<?xml version="1.0" encoding="UTF-8" standalone="no" ?>
<gpx xmlns="http://www.topografix.com/GPX/1/1" xmlns:xsi="http://www.w3.org/2001/XMLSchema-instance" xsi:schemaLocation="http://www.topografix.com/GPX/1/1 http://www.topografix.com/GPX/1/1/gpx.xsd" version="1.1" creator="VisuGPX - https://www.visugpx.com">
  <metadata>
    <name>Rando Vtt Smarves-Pictave 2021</name>
    <desc><![CDATA[Superbe rando, beaucoup de techniques. 
Difficile physiquement.... ]]></desc>
  </metadata>
  <trk>
    <name><![CDATA[Rando Vtt Smarves-Pictave 2021_1]]></name>
    <trkseg>
      <trkpt lat="46.50633" lon="0.36842">
        <ele>136.4</ele>
        <time>2021-09-12T06:18:12Z</time>
      </trkpt>
      <trkpt lat="46.50629" lon="0.36837">
        <ele>136.8</ele>
        <time>2021-09-12T06:18:20Z</time>
      </trkpt>
      <trkpt lat="46.50629" lon="0.36834">
        <ele>136.8</ele>
        <time>2021-09-12T06:18:21Z</time>
      </trkpt>
      <trkpt lat="46.5063" lon="0.36822">
        <ele>136</ele>
        <time>2021-09-12T06:18:26Z</time>
      </trkpt>
      <trkpt lat="46.50631" lon="0.36814">
        <ele>136</ele>
        <time>2021-09-12T06:18:31Z</time>
      </trkpt>
      <trkpt lat="46.50629" lon="0.36812">
        <ele>136</ele>
        <time>2021-09-12T06:18:33Z</time>
      </trkpt>
      <trkpt lat="46.50624" lon="0.36807">
        <ele>135.8</ele>
        <time>2021-09-12T06:18:37Z</time>
      </trkpt>
      <trkpt lat="46.50621" lon="0.36803">
        <ele>135.8</ele>
        <time>2021-09-12T06:18:39Z</time>
      </trkpt>
      <trkpt lat="46.5061" lon="0.36798">
        <ele>136</ele>
        <time>2021-09-12T06:18:43Z</time>
      </trkpt>
      <trkpt lat="46.50592" lon="0.36795">
        <ele>136</ele>
        <time>2021-09-12T06:18:48Z</time>
      </trkpt>
      <trkpt lat="46.50588" lon="0.36794">
        <ele>136</ele>
        <time>2021-09-12T06:18:49Z</time>
      </trkpt>
      <trkpt lat="46.50579" lon="0.36793">
        <ele>136</ele>
        <time>2021-09-12T06:18:51Z</time>
      </trkpt>
      <trkpt lat="46.50572" lon="0.36789">
        <ele>135.8</ele>
        <time>2021-09-12T06:18:53Z</time>
      </trkpt>
      <trkpt lat="46.50563" lon="0.36784">
        <ele>135.6</ele>
        <time>2021-09-12T06:18:56Z</time>
      </trkpt>
      <trkpt lat="46.50559" lon="0.36781">
        <ele>135.4</ele>
        <time>2021-09-12T06:18:57Z</time>
      </trkpt>
      <trkpt lat="46.50555" lon="0.36778">
        <ele>135.2</ele>
        <time>2021-09-12T06:18:58Z</time>
      </trkpt>
      <trkpt lat="46.50551" lon="0.36776">
        <ele>135.2</ele>
        <time>2021-09-12T06:18:59Z</time>
      </trkpt>
      <trkpt lat="46.50544" lon="0.36775">
        <ele>135.2</ele>
        <time>2021-09-12T06:19:01Z</time>
      </trkpt>
      <trkpt lat="46.5054" lon="0.36775">
        <ele>135.2</ele>
        <time>2021-09-12T06:19:02Z</time>
      </trkpt>
      <trkpt lat="46.50536" lon="0.36774">
        <ele>135</ele>
        <time>2021-09-12T06:19:03Z</time>
      </trkpt>
      <trkpt lat="46.50528" lon="0.36769">
        <ele>134.8</ele>
        <time>2021-09-12T06:19:05Z</time>
      </trkpt>
      <trkpt lat="46.50523" lon="0.36767">
        <ele>134.8</ele>
        <time>2021-09-12T06:19:06Z</time>
      </trkpt>
      <trkpt lat="46.50519" lon="0.36765">
        <ele>134.6</ele>
        <time>2021-09-12T06:19:07Z</time>
      </trkpt>
      <trkpt lat="46.50514" lon="0.36762">
        <ele>134.2</ele>
        <time>2021-09-12T06:19:09Z</time>
      </trkpt>
      <trkpt lat="46.50512" lon="0.36761">
        <ele>134.2</ele>
        <time>2021-09-12T06:19:10Z</time>
      </trkpt>
      <trkpt lat="46.5051" lon="0.36759">
        <ele>134.2</ele>
        <time>2021-09-12T06:19:11Z</time>
      </trkpt>
      <trkpt lat="46.50503" lon="0.36751">
        <ele>134</ele>
        <time>2021-09-12T06:19:14Z</time>
      </trkpt>
      <trkpt lat="46.50499" lon="0.36748">
        <ele>134</ele>
        <time>2021-09-12T06:19:15Z</time>
      </trkpt>
      <trkpt lat="46.50491" lon="0.36745">
        <ele>133.6</ele>
        <time>2021-09-12T06:19:17Z</time>
      </trkpt>
      <trkpt lat="46.50487" lon="0.36743">
        <ele>133.6</ele>
        <time>2021-09-12T06:19:18Z</time>
      </trkpt>
      <trkpt lat="46.50478" lon="0.36738">
        <ele>133.4</ele>
        <time>2021-09-12T06:19:20Z</time>
      </trkpt>
      <trkpt lat="46.50466" lon="0.36732">
        <ele>133.2</ele>
        <time>2021-09-12T06:19:23Z</time>
      </trkpt>
      <trkpt lat="46.50454" lon="0.36727">
        <ele>133</ele>
        <time>2021-09-12T06:19:26Z</time>
      </trkpt>
      <trkpt lat="46.50447" lon="0.36728">
        <ele>133</ele>
        <time>2021-09-12T06:19:28Z</time>
      </trkpt>
      <trkpt lat="46.50439" lon="0.36727">
        <ele>133</ele>
        <time>2021-09-12T06:19:30Z</time>
      </trkpt>
      <trkpt lat="46.50421" lon="0.36724">
        <ele>133.6</ele>
        <time>2021-09-12T06:19:34Z</time>
      </trkpt>
      <trkpt lat="46.50409" lon="0.36721">
        <ele>133.6</ele>
        <time>2021-09-12T06:19:37Z</time>
      </trkpt>
      <trkpt lat="46.50395" lon="0.36712">
        <ele>133.8</ele>
        <time>2021-09-12T06:19:40Z</time>
      </trkpt>
      <trkpt lat="46.50391" lon="0.3671">
        <ele>134</ele>
        <time>2021-09-12T06:19:41Z</time>
      </trkpt>
      <trkpt lat="46.50382" lon="0.36706">
        <ele>134.2</ele>
        <time>2021-09-12T06:19:43Z</time>
      </trkpt>
      <trkpt lat="46.50379" lon="0.36703">
        <ele>134.2</ele>
        <time>2021-09-12T06:19:44Z</time>
      </trkpt>
      <trkpt lat="46.50375" lon="0.367">
        <ele>134.2</ele>
        <time>2021-09-12T06:19:45Z</time>
      </trkpt>
      <trkpt lat="46.50365" lon="0.36698">
        <ele>134.2</ele>
        <time>2021-09-12T06:19:47Z</time>
      </trkpt>
      <trkpt lat="46.50361" lon="0.36696">
        <ele>134.2</ele>
        <time>2021-09-12T06:19:48Z</time>
      </trkpt>
      <trkpt lat="46.50358" lon="0.36695">
        <ele>134</ele>
        <time>2021-09-12T06:19:49Z</time>
      </trkpt>
      <trkpt lat="46.50356" lon="0.3669">
        <ele>133.8</ele>
        <time>2021-09-12T06:19:51Z</time>
      </trkpt>
      <trkpt lat="46.50356" lon="0.36676">
        <ele>133.6</ele>
        <time>2021-09-12T06:19:54Z</time>
      </trkpt>
      <trkpt lat="46.50355" lon="0.36672">
        <ele>133.6</ele>
        <time>2021-09-12T06:19:55Z</time>
      </trkpt>
      <trkpt lat="46.50352" lon="0.36669">
        <ele>133.6</ele>
        <time>2021-09-12T06:19:56Z</time>
      </trkpt>
      <trkpt lat="46.50347" lon="0.36664">
        <ele>133.6</ele>
        <time>2021-09-12T06:19:58Z</time>
      </trkpt>
      <trkpt lat="46.50345" lon="0.36664">
        <ele>133.2</ele>
        <time>2021-09-12T06:19:59Z</time>
      </trkpt>
      <trkpt lat="46.50336" lon="0.36664">
        <ele>132.8</ele>
        <time>2021-09-12T06:20:03Z</time>
      </trkpt>
      <trkpt lat="46.50336" lon="0.36666">
        <ele>132.8</ele>
        <time>2021-09-12T06:20:04Z</time>
      </trkpt>
      <trkpt lat="46.50335" lon="0.36667">
        <ele>133.2</ele>
        <time>2021-09-12T06:20:06Z</time>
      </trkpt>
      <trkpt lat="46.50333" lon="0.3667">
        <ele>133.8</ele>
        <time>2021-09-12T06:20:09Z</time>
      </trkpt>
      <trkpt lat="46.50323" lon="0.36673">
        <ele>134.2</ele>
        <time>2021-09-12T06:20:13Z</time>
      </trkpt>
      <trkpt lat="46.50321" lon="0.36672">
        <ele>134.2</ele>
        <time>2021-09-12T06:20:14Z</time>
      </trkpt>
      <trkpt lat="46.50318" lon="0.36671">
        <ele>134.4</ele>
        <time>2021-09-12T06:20:15Z</time>
      </trkpt>
      <trkpt lat="46.50313" lon="0.36668">
        <ele>134.4</ele>
        <time>2021-09-12T06:20:17Z</time>
      </trkpt>
      <trkpt lat="46.50311" lon="0.36666">
        <ele>134.4</ele>
        <time>2021-09-12T06:20:18Z</time>
      </trkpt>
      <trkpt lat="46.50299" lon="0.36654">
        <ele>134</ele>
        <time>2021-09-12T06:20:22Z</time>
      </trkpt>
      <trkpt lat="46.50296" lon="0.36654">
        <ele>134</ele>
        <time>2021-09-12T06:20:23Z</time>
      </trkpt>
      <trkpt lat="46.50279" lon="0.36659">
        <ele>134.8</ele>
        <time>2021-09-12T06:20:28Z</time>
      </trkpt>
      <trkpt lat="46.50274" lon="0.36663">
        <ele>134.8</ele>
        <time>2021-09-12T06:20:30Z</time>
      </trkpt>
      <trkpt lat="46.5027" lon="0.36668">
        <ele>134.6</ele>
        <time>2021-09-12T06:20:32Z</time>
      </trkpt>
      <trkpt lat="46.50266" lon="0.36669">
        <ele>135</ele>
        <time>2021-09-12T06:20:34Z</time>
      </trkpt>
      <trkpt lat="46.50262" lon="0.36669">
        <ele>135.2</ele>
        <time>2021-09-12T06:20:36Z</time>
      </trkpt>
      <trkpt lat="46.5026" lon="0.36669">
        <ele>135.2</ele>
        <time>2021-09-12T06:20:37Z</time>
      </trkpt>
      <trkpt lat="46.50258" lon="0.36668">
        <ele>135.4</ele>
        <time>2021-09-12T06:20:38Z</time>
      </trkpt>
      <trkpt lat="46.50253" lon="0.36662">
        <ele>135.2</ele>
        <time>2021-09-12T06:20:41Z</time>
      </trkpt>
      <trkpt lat="46.50251" lon="0.3666">
        <ele>135</ele>
        <time>2021-09-12T06:20:42Z</time>
      </trkpt>
      <trkpt lat="46.50245" lon="0.36655">
        <ele>134.8</ele>
        <time>2021-09-12T06:20:44Z</time>
      </trkpt>
      <trkpt lat="46.50243" lon="0.36651">
        <ele>134.8</ele>
        <time>2021-09-12T06:20:46Z</time>
      </trkpt>
      <trkpt lat="46.5024" lon="0.36649">
        <ele>134.6</ele>
        <time>2021-09-12T06:20:47Z</time>
      </trkpt>
      <trkpt lat="46.50233" lon="0.36646">
        <ele>134.6</ele>
        <time>2021-09-12T06:20:50Z</time>
      </trkpt>
      <trkpt lat="46.50228" lon="0.36643">
        <ele>134.6</ele>
        <time>2021-09-12T06:20:52Z</time>
      </trkpt>
      <trkpt lat="46.50221" lon="0.36643">
        <ele>134.6</ele>
        <time>2021-09-12T06:20:55Z</time>
      </trkpt>
      <trkpt lat="46.50213" lon="0.36647">
        <ele>134.6</ele>
        <time>2021-09-12T06:20:59Z</time>
      </trkpt>
      <trkpt lat="46.5021" lon="0.36647">
        <ele>134.6</ele>
        <time>2021-09-12T06:21:00Z</time>
      </trkpt>
      <trkpt lat="46.50205" lon="0.36643">
        <ele>134.8</ele>
        <time>2021-09-12T06:21:02Z</time>
      </trkpt>
      <trkpt lat="46.50202" lon="0.36638">
        <ele>135</ele>
        <time>2021-09-12T06:21:04Z</time>
      </trkpt>
      <trkpt lat="46.50197" lon="0.36636">
        <ele>135.2</ele>
        <time>2021-09-12T06:21:06Z</time>
      </trkpt>
      <trkpt lat="46.5019" lon="0.36634">
        <ele>135.4</ele>
        <time>2021-09-12T06:21:09Z</time>
      </trkpt>
      <trkpt lat="46.50185" lon="0.36629">
        <ele>135.4</ele>
        <time>2021-09-12T06:21:11Z</time>
      </trkpt>
      <trkpt lat="46.50177" lon="0.36626">
        <ele>135.4</ele>
        <time>2021-09-12T06:21:13Z</time>
      </trkpt>
      <trkpt lat="46.5017" lon="0.36625">
        <ele>135.2</ele>
        <time>2021-09-12T06:21:15Z</time>
      </trkpt>
      <trkpt lat="46.50167" lon="0.36627">
        <ele>135.2</ele>
        <time>2021-09-12T06:21:17Z</time>
      </trkpt>
      <trkpt lat="46.50166" lon="0.36629">
        <ele>135.2</ele>
        <time>2021-09-12T06:21:18Z</time>
      </trkpt>
      <trkpt lat="46.50156" lon="0.36632">
        <ele>135</ele>
        <time>2021-09-12T06:21:22Z</time>
      </trkpt>
      <trkpt lat="46.50144" lon="0.36638">
        <ele>135.2</ele>
        <time>2021-09-12T06:21:27Z</time>
      </trkpt>
      <trkpt lat="46.50135" lon="0.36648">
        <ele>135.6</ele>
        <time>2021-09-12T06:21:31Z</time>
      </trkpt>
      <trkpt lat="46.5013" lon="0.36652">
        <ele>135.6</ele>
        <time>2021-09-12T06:21:33Z</time>
      </trkpt>
      <trkpt lat="46.50119" lon="0.36664">
        <ele>135.6</ele>
        <time>2021-09-12T06:21:39Z</time>
      </trkpt>
      <trkpt lat="46.50115" lon="0.36677">
        <ele>135.6</ele>
        <time>2021-09-12T06:21:43Z</time>
      </trkpt>
      <trkpt lat="46.50115" lon="0.36681">
        <ele>135.6</ele>
        <time>2021-09-12T06:21:44Z</time>
      </trkpt>
      <trkpt lat="46.50113" lon="0.36691">
        <ele>135.6</ele>
        <time>2021-09-12T06:21:47Z</time>
      </trkpt>
      <trkpt lat="46.50112" lon="0.36703">
        <ele>136</ele>
        <time>2021-09-12T06:21:50Z</time>
      </trkpt>
      <trkpt lat="46.50115" lon="0.36723">
        <ele>136</ele>
        <time>2021-09-12T06:21:57Z</time>
      </trkpt>
      <trkpt lat="46.50124" lon="0.36739">
        <ele>135.8</ele>
        <time>2021-09-12T06:22:02Z</time>
      </trkpt>
      <trkpt lat="46.50132" lon="0.36744">
        <ele>135.8</ele>
        <time>2021-09-12T06:22:06Z</time>
      </trkpt>
      <trkpt lat="46.50136" lon="0.36747">
        <ele>136</ele>
        <time>2021-09-12T06:22:08Z</time>
      </trkpt>
      <trkpt lat="46.5014" lon="0.36746">
        <ele>136.2</ele>
        <time>2021-09-12T06:22:10Z</time>
      </trkpt>
      <trkpt lat="46.50144" lon="0.36746">
        <ele>136.2</ele>
        <time>2021-09-12T06:22:12Z</time>
      </trkpt>
      <trkpt lat="46.50149" lon="0.3675">
        <ele>136</ele>
        <time>2021-09-12T06:22:14Z</time>
      </trkpt>
      <trkpt lat="46.50169" lon="0.36765">
        <ele>136</ele>
        <time>2021-09-12T06:22:21Z</time>
      </trkpt>
      <trkpt lat="46.50175" lon="0.36766">
        <ele>136</ele>
        <time>2021-09-12T06:22:24Z</time>
      </trkpt>
      <trkpt lat="46.50176" lon="0.36768">
        <ele>136</ele>
        <time>2021-09-12T06:22:25Z</time>
      </trkpt>
      <trkpt lat="46.50182" lon="0.36773">
        <ele>135.8</ele>
        <time>2021-09-12T06:22:27Z</time>
      </trkpt>
      <trkpt lat="46.50187" lon="0.36775">
        <ele>135.8</ele>
        <time>2021-09-12T06:22:29Z</time>
      </trkpt>
      <trkpt lat="46.50193" lon="0.36774">
        <ele>135.6</ele>
        <time>2021-09-12T06:22:31Z</time>
      </trkpt>
      <trkpt lat="46.50199" lon="0.36775">
        <ele>135.6</ele>
        <time>2021-09-12T06:22:33Z</time>
      </trkpt>
      <trkpt lat="46.50201" lon="0.36777">
        <ele>135.8</ele>
        <time>2021-09-12T06:22:34Z</time>
      </trkpt>
      <trkpt lat="46.50203" lon="0.36784">
        <ele>136</ele>
        <time>2021-09-12T06:22:36Z</time>
      </trkpt>
      <trkpt lat="46.50205" lon="0.36803">
        <ele>136</ele>
        <time>2021-09-12T06:22:40Z</time>
      </trkpt>
      <trkpt lat="46.50206" lon="0.36808">
        <ele>136</ele>
        <time>2021-09-12T06:22:41Z</time>
      </trkpt>
      <trkpt lat="46.50205" lon="0.36815">
        <ele>136.2</ele>
        <time>2021-09-12T06:22:43Z</time>
      </trkpt>
      <trkpt lat="46.50205" lon="0.36817">
        <ele>136.2</ele>
        <time>2021-09-12T06:22:44Z</time>
      </trkpt>
      <trkpt lat="46.50204" lon="0.36819">
        <ele>136.2</ele>
        <time>2021-09-12T06:22:45Z</time>
      </trkpt>
      <trkpt lat="46.50207" lon="0.36824">
        <ele>136.2</ele>
        <time>2021-09-12T06:22:47Z</time>
      </trkpt>
      <trkpt lat="46.50209" lon="0.3683">
        <ele>136.2</ele>
        <time>2021-09-12T06:22:49Z</time>
      </trkpt>
      <trkpt lat="46.50211" lon="0.3683">
        <ele>136.2</ele>
        <time>2021-09-12T06:22:51Z</time>
      </trkpt>
      <trkpt lat="46.50224" lon="0.36829">
        <ele>136.4</ele>
        <time>2021-09-12T06:22:57Z</time>
      </trkpt>
      <trkpt lat="46.50237" lon="0.36825">
        <ele>136.6</ele>
        <time>2021-09-12T06:23:02Z</time>
      </trkpt>
      <trkpt lat="46.5024" lon="0.36826">
        <ele>136.6</ele>
        <time>2021-09-12T06:23:03Z</time>
      </trkpt>
      <trkpt lat="46.50248" lon="0.36831">
        <ele>136.6</ele>
        <time>2021-09-12T06:23:05Z</time>
      </trkpt>
      <trkpt lat="46.50256" lon="0.36835">
        <ele>136.4</ele>
        <time>2021-09-12T06:23:07Z</time>
      </trkpt>
      <trkpt lat="46.50265" lon="0.36842">
        <ele>136.4</ele>
        <time>2021-09-12T06:23:10Z</time>
      </trkpt>
      <trkpt lat="46.50268" lon="0.36851">
        <ele>136.2</ele>
        <time>2021-09-12T06:23:12Z</time>
      </trkpt>
      <trkpt lat="46.5027" lon="0.36861">
        <ele>136.2</ele>
        <time>2021-09-12T06:23:14Z</time>
      </trkpt>
      <trkpt lat="46.50271" lon="0.36871">
        <ele>136.2</ele>
        <time>2021-09-12T06:23:16Z</time>
      </trkpt>
      <trkpt lat="46.50273" lon="0.36886">
        <ele>136.2</ele>
        <time>2021-09-12T06:23:19Z</time>
      </trkpt>
      <trkpt lat="46.50274" lon="0.36905">
        <ele>136.6</ele>
        <time>2021-09-12T06:23:22Z</time>
      </trkpt>
      <trkpt lat="46.50279" lon="0.36916">
        <ele>136.4</ele>
        <time>2021-09-12T06:23:24Z</time>
      </trkpt>
      <trkpt lat="46.50284" lon="0.36929">
        <ele>136.4</ele>
        <time>2021-09-12T06:23:26Z</time>
      </trkpt>
      <trkpt lat="46.50289" lon="0.36946">
        <ele>136.2</ele>
        <time>2021-09-12T06:23:28Z</time>
      </trkpt>
      <trkpt lat="46.50291" lon="0.36954">
        <ele>136.2</ele>
        <time>2021-09-12T06:23:29Z</time>
      </trkpt>
      <trkpt lat="46.50294" lon="0.36996">
        <ele>136.2</ele>
        <time>2021-09-12T06:23:35Z</time>
      </trkpt>
      <trkpt lat="46.50294" lon="0.37008">
        <ele>135.8</ele>
        <time>2021-09-12T06:23:37Z</time>
      </trkpt>
      <trkpt lat="46.50292" lon="0.37019">
        <ele>135.6</ele>
        <time>2021-09-12T06:23:39Z</time>
      </trkpt>
      <trkpt lat="46.50291" lon="0.37025">
        <ele>135.4</ele>
        <time>2021-09-12T06:23:40Z</time>
      </trkpt>
      <trkpt lat="46.50289" lon="0.3703">
        <ele>135.4</ele>
        <time>2021-09-12T06:23:41Z</time>
      </trkpt>
      <trkpt lat="46.50282" lon="0.37041">
        <ele>135.4</ele>
        <time>2021-09-12T06:23:43Z</time>
      </trkpt>
      <trkpt lat="46.50278" lon="0.37044">
        <ele>135.4</ele>
        <time>2021-09-12T06:23:44Z</time>
      </trkpt>
      <trkpt lat="46.50261" lon="0.3706">
        <ele>135.4</ele>
        <time>2021-09-12T06:23:48Z</time>
      </trkpt>
      <trkpt lat="46.50252" lon="0.37069">
        <ele>135.4</ele>
        <time>2021-09-12T06:23:50Z</time>
      </trkpt>
      <trkpt lat="46.50244" lon="0.3708">
        <ele>135.2</ele>
        <time>2021-09-12T06:23:52Z</time>
      </trkpt>
      <trkpt lat="46.50237" lon="0.37092">
        <ele>135</ele>
        <time>2021-09-12T06:23:55Z</time>
      </trkpt>
      <trkpt lat="46.50232" lon="0.37097">
        <ele>134.8</ele>
        <time>2021-09-12T06:23:57Z</time>
      </trkpt>
      <trkpt lat="46.50228" lon="0.371">
        <ele>134.8</ele>
        <time>2021-09-12T06:23:59Z</time>
      </trkpt>
      <trkpt lat="46.50213" lon="0.371">
        <ele>134.8</ele>
        <time>2021-09-12T06:24:05Z</time>
      </trkpt>
      <trkpt lat="46.50206" lon="0.37098">
        <ele>134.8</ele>
        <time>2021-09-12T06:24:07Z</time>
      </trkpt>
      <trkpt lat="46.50198" lon="0.37096">
        <ele>135</ele>
        <time>2021-09-12T06:24:09Z</time>
      </trkpt>
      <trkpt lat="46.50194" lon="0.37094">
        <ele>134.8</ele>
        <time>2021-09-12T06:24:10Z</time>
      </trkpt>
      <trkpt lat="46.5018" lon="0.37086">
        <ele>135.2</ele>
        <time>2021-09-12T06:24:13Z</time>
      </trkpt>
      <trkpt lat="46.50176" lon="0.37083">
        <ele>135.2</ele>
        <time>2021-09-12T06:24:14Z</time>
      </trkpt>
      <trkpt lat="46.50142" lon="0.37065">
        <ele>135.4</ele>
        <time>2021-09-12T06:24:21Z</time>
      </trkpt>
      <trkpt lat="46.50137" lon="0.37064">
        <ele>135.4</ele>
        <time>2021-09-12T06:24:22Z</time>
      </trkpt>
      <trkpt lat="46.50131" lon="0.37065">
        <ele>135.6</ele>
        <time>2021-09-12T06:24:24Z</time>
      </trkpt>
      <trkpt lat="46.50123" lon="0.37083">
        <ele>135.4</ele>
        <time>2021-09-12T06:24:28Z</time>
      </trkpt>
      <trkpt lat="46.50117" lon="0.37095">
        <ele>135.4</ele>
        <time>2021-09-12T06:24:30Z</time>
      </trkpt>
      <trkpt lat="46.50112" lon="0.37105">
        <ele>135.4</ele>
        <time>2021-09-12T06:24:32Z</time>
      </trkpt>
      <trkpt lat="46.50106" lon="0.3711">
        <ele>135.4</ele>
        <time>2021-09-12T06:24:34Z</time>
      </trkpt>
      <trkpt lat="46.50103" lon="0.3711">
        <ele>135.6</ele>
        <time>2021-09-12T06:24:35Z</time>
      </trkpt>
      <trkpt lat="46.5009" lon="0.37112">
        <ele>135.6</ele>
        <time>2021-09-12T06:24:40Z</time>
      </trkpt>
      <trkpt lat="46.50084" lon="0.37103">
        <ele>135.4</ele>
        <time>2021-09-12T06:24:44Z</time>
      </trkpt>
      <trkpt lat="46.50067" lon="0.37095">
        <ele>135.4</ele>
        <time>2021-09-12T06:24:49Z</time>
      </trkpt>
      <trkpt lat="46.50065" lon="0.37092">
        <ele>135.4</ele>
        <time>2021-09-12T06:24:50Z</time>
      </trkpt>
      <trkpt lat="46.5006" lon="0.37083">
        <ele>135.4</ele>
        <time>2021-09-12T06:24:53Z</time>
      </trkpt>
      <trkpt lat="46.50049" lon="0.37067">
        <ele>135.6</ele>
        <time>2021-09-12T06:24:59Z</time>
      </trkpt>
      <trkpt lat="46.50042" lon="0.37063">
        <ele>135.6</ele>
        <time>2021-09-12T06:25:02Z</time>
      </trkpt>
      <trkpt lat="46.5004" lon="0.37062">
        <ele>135.6</ele>
        <time>2021-09-12T06:25:03Z</time>
      </trkpt>
      <trkpt lat="46.50031" lon="0.37063">
        <ele>136</ele>
        <time>2021-09-12T06:25:08Z</time>
      </trkpt>
      <trkpt lat="46.50028" lon="0.37065">
        <ele>136.2</ele>
        <time>2021-09-12T06:25:10Z</time>
      </trkpt>
      <trkpt lat="46.50024" lon="0.37065">
        <ele>136.4</ele>
        <time>2021-09-12T06:25:11Z</time>
      </trkpt>
      <trkpt lat="46.5002" lon="0.37064">
        <ele>136.2</ele>
        <time>2021-09-12T06:25:14Z</time>
      </trkpt>
      <trkpt lat="46.50006" lon="0.37058">
        <ele>136.4</ele>
        <time>2021-09-12T06:25:20Z</time>
      </trkpt>
      <trkpt lat="46.49994" lon="0.37053">
        <ele>136.2</ele>
        <time>2021-09-12T06:25:25Z</time>
      </trkpt>
      <trkpt lat="46.49993" lon="0.37054">
        <ele>136.2</ele>
        <time>2021-09-12T06:25:26Z</time>
      </trkpt>
      <trkpt lat="46.49984" lon="0.37056">
        <ele>136.2</ele>
        <time>2021-09-12T06:25:31Z</time>
      </trkpt>
      <trkpt lat="46.4998" lon="0.37056">
        <ele>136.2</ele>
        <time>2021-09-12T06:25:33Z</time>
      </trkpt>
      <trkpt lat="46.49976" lon="0.37058">
        <ele>136.2</ele>
        <time>2021-09-12T06:25:36Z</time>
      </trkpt>
      <trkpt lat="46.49975" lon="0.37058">
        <ele>136.2</ele>
        <time>2021-09-12T06:25:37Z</time>
      </trkpt>
      <trkpt lat="46.49973" lon="0.3706">
        <ele>136.2</ele>
        <time>2021-09-12T06:25:40Z</time>
      </trkpt>
      <trkpt lat="46.49968" lon="0.37062">
        <ele>136.2</ele>
        <time>2021-09-12T06:25:42Z</time>
      </trkpt>
      <trkpt lat="46.49955" lon="0.37067">
        <ele>136.4</ele>
        <time>2021-09-12T06:25:51Z</time>
      </trkpt>
      <trkpt lat="46.49944" lon="0.37081">
        <ele>136.4</ele>
        <time>2021-09-12T06:25:58Z</time>
      </trkpt>
      <trkpt lat="46.49935" lon="0.37091">
        <ele>136.4</ele>
        <time>2021-09-12T06:26:02Z</time>
      </trkpt>
      <trkpt lat="46.49932" lon="0.37092">
        <ele>136.6</ele>
        <time>2021-09-12T06:26:03Z</time>
      </trkpt>
      <trkpt lat="46.49924" lon="0.37095">
        <ele>136.6</ele>
        <time>2021-09-12T06:26:06Z</time>
      </trkpt>
      <trkpt lat="46.49921" lon="0.37099">
        <ele>136.6</ele>
        <time>2021-09-12T06:26:08Z</time>
      </trkpt>
      <trkpt lat="46.49913" lon="0.37115">
        <ele>137</ele>
        <time>2021-09-12T06:26:14Z</time>
      </trkpt>
      <trkpt lat="46.49905" lon="0.37132">
        <ele>136.8</ele>
        <time>2021-09-12T06:26:19Z</time>
      </trkpt>
      <trkpt lat="46.49895" lon="0.37147">
        <ele>137</ele>
        <time>2021-09-12T06:26:24Z</time>
      </trkpt>
      <trkpt lat="46.49882" lon="0.37164">
        <ele>137.4</ele>
        <time>2021-09-12T06:26:30Z</time>
      </trkpt>
      <trkpt lat="46.49871" lon="0.37177">
        <ele>137.4</ele>
        <time>2021-09-12T06:26:34Z</time>
      </trkpt>
      <trkpt lat="46.4987" lon="0.37179">
        <ele>137.4</ele>
        <time>2021-09-12T06:26:35Z</time>
      </trkpt>
      <trkpt lat="46.4987" lon="0.37183">
        <ele>137.4</ele>
        <time>2021-09-12T06:26:36Z</time>
      </trkpt>
      <trkpt lat="46.49873" lon="0.37193">
        <ele>137.6</ele>
        <time>2021-09-12T06:26:39Z</time>
      </trkpt>
      <trkpt lat="46.49879" lon="0.37206">
        <ele>137.4</ele>
        <time>2021-09-12T06:26:42Z</time>
      </trkpt>
      <trkpt lat="46.49883" lon="0.37213">
        <ele>137.6</ele>
        <time>2021-09-12T06:26:44Z</time>
      </trkpt>
      <trkpt lat="46.49901" lon="0.37237">
        <ele>137.8</ele>
        <time>2021-09-12T06:26:50Z</time>
      </trkpt>
      <trkpt lat="46.49908" lon="0.37248">
        <ele>137.4</ele>
        <time>2021-09-12T06:26:53Z</time>
      </trkpt>
      <trkpt lat="46.49909" lon="0.37252">
        <ele>137.2</ele>
        <time>2021-09-12T06:26:54Z</time>
      </trkpt>
      <trkpt lat="46.49901" lon="0.37272">
        <ele>137.6</ele>
        <time>2021-09-12T06:27:00Z</time>
      </trkpt>
      <trkpt lat="46.49882" lon="0.37295">
        <ele>138</ele>
        <time>2021-09-12T06:27:07Z</time>
      </trkpt>
      <trkpt lat="46.4986" lon="0.3732">
        <ele>138</ele>
        <time>2021-09-12T06:27:14Z</time>
      </trkpt>
      <trkpt lat="46.4985" lon="0.37334">
        <ele>138</ele>
        <time>2021-09-12T06:27:18Z</time>
      </trkpt>
      <trkpt lat="46.4984" lon="0.37338">
        <ele>138</ele>
        <time>2021-09-12T06:27:22Z</time>
      </trkpt>
      <trkpt lat="46.49822" lon="0.37334">
        <ele>138</ele>
        <time>2021-09-12T06:27:29Z</time>
      </trkpt>
      <trkpt lat="46.49812" lon="0.37325">
        <ele>138.2</ele>
        <time>2021-09-12T06:27:34Z</time>
      </trkpt>
      <trkpt lat="46.49803" lon="0.37322">
        <ele>138.2</ele>
        <time>2021-09-12T06:27:38Z</time>
      </trkpt>
      <trkpt lat="46.49787" lon="0.37324">
        <ele>138.2</ele>
        <time>2021-09-12T06:27:43Z</time>
      </trkpt>
      <trkpt lat="46.49773" lon="0.37334">
        <ele>138.2</ele>
        <time>2021-09-12T06:27:48Z</time>
      </trkpt>
      <trkpt lat="46.49764" lon="0.37354">
        <ele>138.2</ele>
        <time>2021-09-12T06:27:54Z</time>
      </trkpt>
      <trkpt lat="46.49762" lon="0.37364">
        <ele>138</ele>
        <time>2021-09-12T06:27:56Z</time>
      </trkpt>
      <trkpt lat="46.49761" lon="0.37375">
        <ele>138.2</ele>
        <time>2021-09-12T06:27:58Z</time>
      </trkpt>
      <trkpt lat="46.49759" lon="0.37384">
        <ele>138.4</ele>
        <time>2021-09-12T06:28:00Z</time>
      </trkpt>
      <trkpt lat="46.49756" lon="0.37396">
        <ele>138.4</ele>
        <time>2021-09-12T06:28:03Z</time>
      </trkpt>
      <trkpt lat="46.49752" lon="0.37411">
        <ele>138.4</ele>
        <time>2021-09-12T06:28:08Z</time>
      </trkpt>
      <trkpt lat="46.49751" lon="0.37416">
        <ele>138.4</ele>
        <time>2021-09-12T06:28:09Z</time>
      </trkpt>
      <trkpt lat="46.49747" lon="0.37426">
        <ele>138.6</ele>
        <time>2021-09-12T06:28:12Z</time>
      </trkpt>
      <trkpt lat="46.49732" lon="0.37449">
        <ele>138.6</ele>
        <time>2021-09-12T06:28:19Z</time>
      </trkpt>
      <trkpt lat="46.4972" lon="0.37469">
        <ele>138.8</ele>
        <time>2021-09-12T06:28:25Z</time>
      </trkpt>
      <trkpt lat="46.49707" lon="0.37498">
        <ele>138.4</ele>
        <time>2021-09-12T06:28:32Z</time>
      </trkpt>
      <trkpt lat="46.49706" lon="0.37503">
        <ele>138.4</ele>
        <time>2021-09-12T06:28:33Z</time>
      </trkpt>
      <trkpt lat="46.49704" lon="0.37514">
        <ele>138.4</ele>
        <time>2021-09-12T06:28:35Z</time>
      </trkpt>
      <trkpt lat="46.49702" lon="0.37524">
        <ele>138.4</ele>
        <time>2021-09-12T06:28:37Z</time>
      </trkpt>
      <trkpt lat="46.49698" lon="0.37547">
        <ele>138.6</ele>
        <time>2021-09-12T06:28:42Z</time>
      </trkpt>
      <trkpt lat="46.49689" lon="0.37564">
        <ele>138.6</ele>
        <time>2021-09-12T06:28:46Z</time>
      </trkpt>
      <trkpt lat="46.49687" lon="0.37571">
        <ele>138.8</ele>
        <time>2021-09-12T06:28:48Z</time>
      </trkpt>
      <trkpt lat="46.49689" lon="0.3758">
        <ele>139</ele>
        <time>2021-09-12T06:28:50Z</time>
      </trkpt>
      <trkpt lat="46.49702" lon="0.37616">
        <ele>139</ele>
        <time>2021-09-12T06:28:55Z</time>
      </trkpt>
      <trkpt lat="46.49702" lon="0.37616">
        <ele>139</ele>
        <time>2021-09-12T06:28:56Z</time>
      </trkpt>
      <trkpt lat="46.49723" lon="0.3764">
        <ele>138.8</ele>
        <time>2021-09-12T06:29:01Z</time>
      </trkpt>
      <trkpt lat="46.49723" lon="0.3764">
        <ele>138.8</ele>
        <time>2021-09-12T06:29:02Z</time>
      </trkpt>
      <trkpt lat="46.49726" lon="0.37645">
        <ele>138.8</ele>
        <time>2021-09-12T06:29:03Z</time>
      </trkpt>
      <trkpt lat="46.49731" lon="0.37654">
        <ele>138.8</ele>
        <time>2021-09-12T06:29:05Z</time>
      </trkpt>
      <trkpt lat="46.49736" lon="0.37656">
        <ele>138.8</ele>
        <time>2021-09-12T06:29:06Z</time>
      </trkpt>
      <trkpt lat="46.49764" lon="0.37669">
        <ele>139.2</ele>
        <time>2021-09-12T06:29:12Z</time>
      </trkpt>
      <trkpt lat="46.49774" lon="0.37672">
        <ele>138.8</ele>
        <time>2021-09-12T06:29:14Z</time>
      </trkpt>
      <trkpt lat="46.49783" lon="0.37677">
        <ele>138.6</ele>
        <time>2021-09-12T06:29:16Z</time>
      </trkpt>
      <trkpt lat="46.49786" lon="0.3768">
        <ele>138.4</ele>
        <time>2021-09-12T06:29:17Z</time>
      </trkpt>
      <trkpt lat="46.49802" lon="0.37697">
        <ele>138.8</ele>
        <time>2021-09-12T06:29:23Z</time>
      </trkpt>
      <trkpt lat="46.49821" lon="0.37714">
        <ele>138.4</ele>
        <time>2021-09-12T06:29:29Z</time>
      </trkpt>
      <trkpt lat="46.49829" lon="0.37705">
        <ele>138.6</ele>
        <time>2021-09-12T06:29:33Z</time>
      </trkpt>
      <trkpt lat="46.49837" lon="0.37692">
        <ele>138.8</ele>
        <time>2021-09-12T06:29:36Z</time>
      </trkpt>
      <trkpt lat="46.49843" lon="0.37682">
        <ele>139</ele>
        <time>2021-09-12T06:29:38Z</time>
      </trkpt>
      <trkpt lat="46.4987" lon="0.37648">
        <ele>138.6</ele>
        <time>2021-09-12T06:29:45Z</time>
      </trkpt>
      <trkpt lat="46.49894" lon="0.37614">
        <ele>138.6</ele>
        <time>2021-09-12T06:29:52Z</time>
      </trkpt>
      <trkpt lat="46.49924" lon="0.37571">
        <ele>138.6</ele>
        <time>2021-09-12T06:30:00Z</time>
      </trkpt>
      <trkpt lat="46.49954" lon="0.37525">
        <ele>138.6</ele>
        <time>2021-09-12T06:30:08Z</time>
      </trkpt>
      <trkpt lat="46.49979" lon="0.37482">
        <ele>138.2</ele>
        <time>2021-09-12T06:30:15Z</time>
      </trkpt>
      <trkpt lat="46.50002" lon="0.3744">
        <ele>137.6</ele>
        <time>2021-09-12T06:30:22Z</time>
      </trkpt>
      <trkpt lat="46.50021" lon="0.37401">
        <ele>137.2</ele>
        <time>2021-09-12T06:30:28Z</time>
      </trkpt>
      <trkpt lat="46.5004" lon="0.37365">
        <ele>136.6</ele>
        <time>2021-09-12T06:30:34Z</time>
      </trkpt>
      <trkpt lat="46.5005" lon="0.37346">
        <ele>136.6</ele>
        <time>2021-09-12T06:30:37Z</time>
      </trkpt>
      <trkpt lat="46.5006" lon="0.37329">
        <ele>136.2</ele>
        <time>2021-09-12T06:30:40Z</time>
      </trkpt>
      <trkpt lat="46.50065" lon="0.37319">
        <ele>136</ele>
        <time>2021-09-12T06:30:42Z</time>
      </trkpt>
      <trkpt lat="46.50075" lon="0.37303">
        <ele>135.6</ele>
        <time>2021-09-12T06:30:45Z</time>
      </trkpt>
      <trkpt lat="46.50078" lon="0.37297">
        <ele>135.6</ele>
        <time>2021-09-12T06:30:46Z</time>
      </trkpt>
      <trkpt lat="46.50083" lon="0.37287">
        <ele>135.8</ele>
        <time>2021-09-12T06:30:48Z</time>
      </trkpt>
      <trkpt lat="46.5009" lon="0.37277">
        <ele>135.8</ele>
        <time>2021-09-12T06:30:50Z</time>
      </trkpt>
      <trkpt lat="46.50096" lon="0.37266">
        <ele>135.6</ele>
        <time>2021-09-12T06:30:52Z</time>
      </trkpt>
      <trkpt lat="46.50101" lon="0.37258">
        <ele>135</ele>
        <time>2021-09-12T06:30:54Z</time>
      </trkpt>
      <trkpt lat="46.50103" lon="0.37254">
        <ele>134.8</ele>
        <time>2021-09-12T06:30:55Z</time>
      </trkpt>
      <trkpt lat="46.50111" lon="0.3724">
        <ele>134.4</ele>
        <time>2021-09-12T06:30:59Z</time>
      </trkpt>
      <trkpt lat="46.50116" lon="0.37238">
        <ele>134.4</ele>
        <time>2021-09-12T06:31:01Z</time>
      </trkpt>
      <trkpt lat="46.50127" lon="0.37248">
        <ele>134.6</ele>
        <time>2021-09-12T06:31:05Z</time>
      </trkpt>
      <trkpt lat="46.50151" lon="0.37266">
        <ele>134.4</ele>
        <time>2021-09-12T06:31:11Z</time>
      </trkpt>
      <trkpt lat="46.50158" lon="0.37271">
        <ele>134.2</ele>
        <time>2021-09-12T06:31:13Z</time>
      </trkpt>
      <trkpt lat="46.5017" lon="0.37281">
        <ele>134.2</ele>
        <time>2021-09-12T06:31:16Z</time>
      </trkpt>
      <trkpt lat="46.50191" lon="0.37304">
        <ele>134</ele>
        <time>2021-09-12T06:31:22Z</time>
      </trkpt>
      <trkpt lat="46.50195" lon="0.37307">
        <ele>133.8</ele>
        <time>2021-09-12T06:31:23Z</time>
      </trkpt>
      <trkpt lat="46.50211" lon="0.37319">
        <ele>133.6</ele>
        <time>2021-09-12T06:31:27Z</time>
      </trkpt>
      <trkpt lat="46.5022" lon="0.37327">
        <ele>133.4</ele>
        <time>2021-09-12T06:31:29Z</time>
      </trkpt>
      <trkpt lat="46.50223" lon="0.37331">
        <ele>133.2</ele>
        <time>2021-09-12T06:31:30Z</time>
      </trkpt>
      <trkpt lat="46.5023" lon="0.37339">
        <ele>133</ele>
        <time>2021-09-12T06:31:32Z</time>
      </trkpt>
      <trkpt lat="46.50238" lon="0.37349">
        <ele>133</ele>
        <time>2021-09-12T06:31:34Z</time>
      </trkpt>
      <trkpt lat="46.50252" lon="0.3736">
        <ele>132.8</ele>
        <time>2021-09-12T06:31:37Z</time>
      </trkpt>
      <trkpt lat="46.50261" lon="0.37367">
        <ele>132.6</ele>
        <time>2021-09-12T06:31:39Z</time>
      </trkpt>
      <trkpt lat="46.50266" lon="0.37372">
        <ele>132.6</ele>
        <time>2021-09-12T06:31:40Z</time>
      </trkpt>
      <trkpt lat="46.5027" lon="0.37377">
        <ele>132.6</ele>
        <time>2021-09-12T06:31:41Z</time>
      </trkpt>
      <trkpt lat="46.50282" lon="0.37395">
        <ele>132.6</ele>
        <time>2021-09-12T06:31:44Z</time>
      </trkpt>
      <trkpt lat="46.50309" lon="0.3744">
        <ele>132.2</ele>
        <time>2021-09-12T06:31:50Z</time>
      </trkpt>
      <trkpt lat="46.50317" lon="0.37455">
        <ele>132</ele>
        <time>2021-09-12T06:31:52Z</time>
      </trkpt>
      <trkpt lat="46.50332" lon="0.37477">
        <ele>131.2</ele>
        <time>2021-09-12T06:31:55Z</time>
      </trkpt>
      <trkpt lat="46.50337" lon="0.37485">
        <ele>130.6</ele>
        <time>2021-09-12T06:31:56Z</time>
      </trkpt>
      <trkpt lat="46.50357" lon="0.37512">
        <ele>129.6</ele>
        <time>2021-09-12T06:32:00Z</time>
      </trkpt>
      <trkpt lat="46.50368" lon="0.37524">
        <ele>129.4</ele>
        <time>2021-09-12T06:32:02Z</time>
      </trkpt>
      <trkpt lat="46.50382" lon="0.3754">
        <ele>128.8</ele>
        <time>2021-09-12T06:32:06Z</time>
      </trkpt>
      <trkpt lat="46.50384" lon="0.37543">
        <ele>128.4</ele>
        <time>2021-09-12T06:32:07Z</time>
      </trkpt>
      <trkpt lat="46.50387" lon="0.37549">
        <ele>128</ele>
        <time>2021-09-12T06:32:10Z</time>
      </trkpt>
      <trkpt lat="46.50389" lon="0.37549">
        <ele>128</ele>
        <time>2021-09-12T06:32:12Z</time>
      </trkpt>
      <trkpt lat="46.50391" lon="0.37546">
        <ele>128</ele>
        <time>2021-09-12T06:32:14Z</time>
      </trkpt>
      <trkpt lat="46.50401" lon="0.37536">
        <ele>128.6</ele>
        <time>2021-09-12T06:32:20Z</time>
      </trkpt>
      <trkpt lat="46.50407" lon="0.37524">
        <ele>130</ele>
        <time>2021-09-12T06:32:25Z</time>
      </trkpt>
      <trkpt lat="46.50408" lon="0.37521">
        <ele>130.2</ele>
        <time>2021-09-12T06:32:26Z</time>
      </trkpt>
      <trkpt lat="46.50416" lon="0.37502">
        <ele>130.8</ele>
        <time>2021-09-12T06:32:32Z</time>
      </trkpt>
      <trkpt lat="46.50417" lon="0.37499">
        <ele>131.2</ele>
        <time>2021-09-12T06:32:33Z</time>
      </trkpt>
      <trkpt lat="46.50424" lon="0.37489">
        <ele>132.4</ele>
        <time>2021-09-12T06:32:37Z</time>
      </trkpt>
      <trkpt lat="46.50425" lon="0.37485">
        <ele>132.4</ele>
        <time>2021-09-12T06:32:38Z</time>
      </trkpt>
      <trkpt lat="46.50437" lon="0.37469">
        <ele>132.8</ele>
        <time>2021-09-12T06:32:43Z</time>
      </trkpt>
      <trkpt lat="46.50442" lon="0.37464">
        <ele>132.8</ele>
        <time>2021-09-12T06:32:45Z</time>
      </trkpt>
      <trkpt lat="46.50447" lon="0.37462">
        <ele>133.2</ele>
        <time>2021-09-12T06:32:47Z</time>
      </trkpt>
      <trkpt lat="46.50449" lon="0.37462">
        <ele>133.2</ele>
        <time>2021-09-12T06:32:48Z</time>
      </trkpt>
      <trkpt lat="46.50455" lon="0.37463">
        <ele>133.4</ele>
        <time>2021-09-12T06:32:51Z</time>
      </trkpt>
      <trkpt lat="46.50458" lon="0.37462">
        <ele>133.6</ele>
        <time>2021-09-12T06:32:52Z</time>
      </trkpt>
      <trkpt lat="46.5046" lon="0.37462">
        <ele>133.6</ele>
        <time>2021-09-12T06:32:53Z</time>
      </trkpt>
      <trkpt lat="46.50467" lon="0.37461">
        <ele>133.6</ele>
        <time>2021-09-12T06:32:55Z</time>
      </trkpt>
      <trkpt lat="46.50474" lon="0.37458">
        <ele>133.6</ele>
        <time>2021-09-12T06:32:57Z</time>
      </trkpt>
      <trkpt lat="46.50477" lon="0.37456">
        <ele>133.6</ele>
        <time>2021-09-12T06:32:58Z</time>
      </trkpt>
      <trkpt lat="46.50486" lon="0.37438">
        <ele>133.8</ele>
        <time>2021-09-12T06:33:03Z</time>
      </trkpt>
      <trkpt lat="46.50493" lon="0.37418">
        <ele>133.8</ele>
        <time>2021-09-12T06:33:08Z</time>
      </trkpt>
      <trkpt lat="46.50497" lon="0.37405">
        <ele>134.2</ele>
        <time>2021-09-12T06:33:13Z</time>
      </trkpt>
      <trkpt lat="46.50497" lon="0.37399">
        <ele>134</ele>
        <time>2021-09-12T06:33:15Z</time>
      </trkpt>
      <trkpt lat="46.50494" lon="0.37394">
        <ele>133.8</ele>
        <time>2021-09-12T06:33:18Z</time>
      </trkpt>
      <trkpt lat="46.50494" lon="0.37388">
        <ele>134</ele>
        <time>2021-09-12T06:33:20Z</time>
      </trkpt>
      <trkpt lat="46.50503" lon="0.37371">
        <ele>134</ele>
        <time>2021-09-12T06:33:25Z</time>
      </trkpt>
      <trkpt lat="46.50515" lon="0.37353">
        <ele>133.8</ele>
        <time>2021-09-12T06:33:30Z</time>
      </trkpt>
      <trkpt lat="46.50524" lon="0.37344">
        <ele>133.6</ele>
        <time>2021-09-12T06:33:32Z</time>
      </trkpt>
      <trkpt lat="46.50528" lon="0.3734">
        <ele>133.6</ele>
        <time>2021-09-12T06:33:33Z</time>
      </trkpt>
      <trkpt lat="46.50535" lon="0.37331">
        <ele>133.4</ele>
        <time>2021-09-12T06:33:35Z</time>
      </trkpt>
      <trkpt lat="46.50543" lon="0.37326">
        <ele>133</ele>
        <time>2021-09-12T06:33:37Z</time>
      </trkpt>
      <trkpt lat="46.50548" lon="0.37322">
        <ele>132.6</ele>
        <time>2021-09-12T06:33:39Z</time>
      </trkpt>
      <trkpt lat="46.50549" lon="0.37319">
        <ele>132.2</ele>
        <time>2021-09-12T06:33:40Z</time>
      </trkpt>
      <trkpt lat="46.50554" lon="0.37303">
        <ele>131.6</ele>
        <time>2021-09-12T06:33:45Z</time>
      </trkpt>
      <trkpt lat="46.50554" lon="0.37294">
        <ele>131.4</ele>
        <time>2021-09-12T06:33:47Z</time>
      </trkpt>
      <trkpt lat="46.50556" lon="0.37284">
        <ele>131.4</ele>
        <time>2021-09-12T06:33:49Z</time>
      </trkpt>
      <trkpt lat="46.50556" lon="0.37274">
        <ele>131</ele>
        <time>2021-09-12T06:33:51Z</time>
      </trkpt>
      <trkpt lat="46.50557" lon="0.37265">
        <ele>130.8</ele>
        <time>2021-09-12T06:33:53Z</time>
      </trkpt>
      <trkpt lat="46.50559" lon="0.3725">
        <ele>130.4</ele>
        <time>2021-09-12T06:33:56Z</time>
      </trkpt>
      <trkpt lat="46.50563" lon="0.37238">
        <ele>129.8</ele>
        <time>2021-09-12T06:33:58Z</time>
      </trkpt>
      <trkpt lat="46.50565" lon="0.37232">
        <ele>129.4</ele>
        <time>2021-09-12T06:33:59Z</time>
      </trkpt>
      <trkpt lat="46.50569" lon="0.37207">
        <ele>128.8</ele>
        <time>2021-09-12T06:34:03Z</time>
      </trkpt>
      <trkpt lat="46.50569" lon="0.37202">
        <ele>129</ele>
        <time>2021-09-12T06:34:04Z</time>
      </trkpt>
      <trkpt lat="46.50569" lon="0.37197">
        <ele>129.4</ele>
        <time>2021-09-12T06:34:05Z</time>
      </trkpt>
      <trkpt lat="46.50574" lon="0.37178">
        <ele>130</ele>
        <time>2021-09-12T06:34:09Z</time>
      </trkpt>
      <trkpt lat="46.50578" lon="0.37171">
        <ele>130.6</ele>
        <time>2021-09-12T06:34:11Z</time>
      </trkpt>
      <trkpt lat="46.50586" lon="0.37155">
        <ele>131.4</ele>
        <time>2021-09-12T06:34:15Z</time>
      </trkpt>
      <trkpt lat="46.50587" lon="0.37153">
        <ele>132</ele>
        <time>2021-09-12T06:34:16Z</time>
      </trkpt>
      <trkpt lat="46.5059" lon="0.37143">
        <ele>133</ele>
        <time>2021-09-12T06:34:19Z</time>
      </trkpt>
      <trkpt lat="46.50594" lon="0.3714">
        <ele>133.4</ele>
        <time>2021-09-12T06:34:21Z</time>
      </trkpt>
      <trkpt lat="46.50599" lon="0.37141">
        <ele>134.2</ele>
        <time>2021-09-12T06:34:24Z</time>
      </trkpt>
      <trkpt lat="46.50602" lon="0.37142">
        <ele>134.2</ele>
        <time>2021-09-12T06:34:25Z</time>
      </trkpt>
      <trkpt lat="46.50604" lon="0.37143">
        <ele>134.4</ele>
        <time>2021-09-12T06:34:26Z</time>
      </trkpt>
      <trkpt lat="46.50613" lon="0.37148">
        <ele>134.2</ele>
        <time>2021-09-12T06:34:30Z</time>
      </trkpt>
      <trkpt lat="46.50618" lon="0.37158">
        <ele>133</ele>
        <time>2021-09-12T06:34:35Z</time>
      </trkpt>
      <trkpt lat="46.50621" lon="0.37173">
        <ele>132.2</ele>
        <time>2021-09-12T06:34:38Z</time>
      </trkpt>
      <trkpt lat="46.5062" lon="0.37177">
        <ele>132</ele>
        <time>2021-09-12T06:34:39Z</time>
      </trkpt>
      <trkpt lat="46.5062" lon="0.3718">
        <ele>131.4</ele>
        <time>2021-09-12T06:34:40Z</time>
      </trkpt>
      <trkpt lat="46.50619" lon="0.37183">
        <ele>130.4</ele>
        <time>2021-09-12T06:34:41Z</time>
      </trkpt>
      <trkpt lat="46.50618" lon="0.37188">
        <ele>129.2</ele>
        <time>2021-09-12T06:34:43Z</time>
      </trkpt>
      <trkpt lat="46.50615" lon="0.37193">
        <ele>128.4</ele>
        <time>2021-09-12T06:34:45Z</time>
      </trkpt>
      <trkpt lat="46.50614" lon="0.37197">
        <ele>127.8</ele>
        <time>2021-09-12T06:34:46Z</time>
      </trkpt>
      <trkpt lat="46.50614" lon="0.37201">
        <ele>127.4</ele>
        <time>2021-09-12T06:34:47Z</time>
      </trkpt>
      <trkpt lat="46.50615" lon="0.37207">
        <ele>126.8</ele>
        <time>2021-09-12T06:34:49Z</time>
      </trkpt>
      <trkpt lat="46.50615" lon="0.37209">
        <ele>126.6</ele>
        <time>2021-09-12T06:34:50Z</time>
      </trkpt>
      <trkpt lat="46.50615" lon="0.37216">
        <ele>126.2</ele>
        <time>2021-09-12T06:34:53Z</time>
      </trkpt>
      <trkpt lat="46.50617" lon="0.37219">
        <ele>126.2</ele>
        <time>2021-09-12T06:34:55Z</time>
      </trkpt>
      <trkpt lat="46.50618" lon="0.37221">
        <ele>126.2</ele>
        <time>2021-09-12T06:34:56Z</time>
      </trkpt>
      <trkpt lat="46.5062" lon="0.37226">
        <ele>125.8</ele>
        <time>2021-09-12T06:34:58Z</time>
      </trkpt>
      <trkpt lat="46.50619" lon="0.37231">
        <ele>125.8</ele>
        <time>2021-09-12T06:34:59Z</time>
      </trkpt>
      <trkpt lat="46.50616" lon="0.37255">
        <ele>126.4</ele>
        <time>2021-09-12T06:35:04Z</time>
      </trkpt>
      <trkpt lat="46.50614" lon="0.37276">
        <ele>127</ele>
        <time>2021-09-12T06:35:09Z</time>
      </trkpt>
      <trkpt lat="46.50615" lon="0.37294">
        <ele>127</ele>
        <time>2021-09-12T06:35:13Z</time>
      </trkpt>
      <trkpt lat="46.50617" lon="0.37296">
        <ele>127.2</ele>
        <time>2021-09-12T06:35:14Z</time>
      </trkpt>
      <trkpt lat="46.50623" lon="0.37301">
        <ele>127.2</ele>
        <time>2021-09-12T06:35:16Z</time>
      </trkpt>
      <trkpt lat="46.50631" lon="0.3731">
        <ele>127.2</ele>
        <time>2021-09-12T06:35:18Z</time>
      </trkpt>
      <trkpt lat="46.50655" lon="0.37334">
        <ele>125.2</ele>
        <time>2021-09-12T06:35:23Z</time>
      </trkpt>
      <trkpt lat="46.50675" lon="0.37352">
        <ele>124</ele>
        <time>2021-09-12T06:35:27Z</time>
      </trkpt>
      <trkpt lat="46.50686" lon="0.37359">
        <ele>123.6</ele>
        <time>2021-09-12T06:35:29Z</time>
      </trkpt>
      <trkpt lat="46.5071" lon="0.37375">
        <ele>123.8</ele>
        <time>2021-09-12T06:35:35Z</time>
      </trkpt>
      <trkpt lat="46.50732" lon="0.37391">
        <ele>125.2</ele>
        <time>2021-09-12T06:35:41Z</time>
      </trkpt>
      <trkpt lat="46.50734" lon="0.37393">
        <ele>125.6</ele>
        <time>2021-09-12T06:35:42Z</time>
      </trkpt>
      <trkpt lat="46.50736" lon="0.374">
        <ele>125.8</ele>
        <time>2021-09-12T06:35:45Z</time>
      </trkpt>
      <trkpt lat="46.50735" lon="0.37404">
        <ele>125.8</ele>
        <time>2021-09-12T06:35:46Z</time>
      </trkpt>
      <trkpt lat="46.50729" lon="0.37426">
        <ele>125</ele>
        <time>2021-09-12T06:35:50Z</time>
      </trkpt>
      <trkpt lat="46.50726" lon="0.37439">
        <ele>124.2</ele>
        <time>2021-09-12T06:35:52Z</time>
      </trkpt>
      <trkpt lat="46.50722" lon="0.37452">
        <ele>122.8</ele>
        <time>2021-09-12T06:35:54Z</time>
      </trkpt>
      <trkpt lat="46.50716" lon="0.37469">
        <ele>122</ele>
        <time>2021-09-12T06:35:57Z</time>
      </trkpt>
      <trkpt lat="46.5071" lon="0.37489">
        <ele>121.8</ele>
        <time>2021-09-12T06:36:02Z</time>
      </trkpt>
      <trkpt lat="46.50699" lon="0.37523">
        <ele>122.8</ele>
        <time>2021-09-12T06:36:10Z</time>
      </trkpt>
      <trkpt lat="46.50695" lon="0.37535">
        <ele>123.8</ele>
        <time>2021-09-12T06:36:13Z</time>
      </trkpt>
      <trkpt lat="46.5069" lon="0.37553">
        <ele>124.2</ele>
        <time>2021-09-12T06:36:17Z</time>
      </trkpt>
      <trkpt lat="46.50682" lon="0.37571">
        <ele>124.8</ele>
        <time>2021-09-12T06:36:22Z</time>
      </trkpt>
      <trkpt lat="46.5068" lon="0.37578">
        <ele>125.2</ele>
        <time>2021-09-12T06:36:24Z</time>
      </trkpt>
      <trkpt lat="46.5067" lon="0.376">
        <ele>125.4</ele>
        <time>2021-09-12T06:36:30Z</time>
      </trkpt>
      <trkpt lat="46.50665" lon="0.37619">
        <ele>124.8</ele>
        <time>2021-09-12T06:36:36Z</time>
      </trkpt>
      <trkpt lat="46.50661" lon="0.37629">
        <ele>124.6</ele>
        <time>2021-09-12T06:36:39Z</time>
      </trkpt>
      <trkpt lat="46.50657" lon="0.37638">
        <ele>124.4</ele>
        <time>2021-09-12T06:36:41Z</time>
      </trkpt>
      <trkpt lat="46.50656" lon="0.37642">
        <ele>124</ele>
        <time>2021-09-12T06:36:42Z</time>
      </trkpt>
      <trkpt lat="46.50655" lon="0.37646">
        <ele>123.6</ele>
        <time>2021-09-12T06:36:43Z</time>
      </trkpt>
      <trkpt lat="46.50649" lon="0.37666">
        <ele>122.6</ele>
        <time>2021-09-12T06:36:47Z</time>
      </trkpt>
      <trkpt lat="46.50647" lon="0.37678">
        <ele>121.8</ele>
        <time>2021-09-12T06:36:49Z</time>
      </trkpt>
      <trkpt lat="46.50648" lon="0.37683">
        <ele>120.8</ele>
        <time>2021-09-12T06:36:50Z</time>
      </trkpt>
      <trkpt lat="46.50649" lon="0.37687">
        <ele>120.2</ele>
        <time>2021-09-12T06:36:51Z</time>
      </trkpt>
      <trkpt lat="46.50653" lon="0.37698">
        <ele>119.8</ele>
        <time>2021-09-12T06:36:54Z</time>
      </trkpt>
      <trkpt lat="46.50658" lon="0.37711">
        <ele>119.4</ele>
        <time>2021-09-12T06:36:57Z</time>
      </trkpt>
      <trkpt lat="46.50667" lon="0.3772">
        <ele>118.8</ele>
        <time>2021-09-12T06:37:00Z</time>
      </trkpt>
      <trkpt lat="46.5067" lon="0.37724">
        <ele>118.6</ele>
        <time>2021-09-12T06:37:01Z</time>
      </trkpt>
      <trkpt lat="46.50677" lon="0.37731">
        <ele>118.4</ele>
        <time>2021-09-12T06:37:03Z</time>
      </trkpt>
      <trkpt lat="46.5068" lon="0.37735">
        <ele>118.4</ele>
        <time>2021-09-12T06:37:04Z</time>
      </trkpt>
      <trkpt lat="46.50688" lon="0.3774">
        <ele>118</ele>
        <time>2021-09-12T06:37:06Z</time>
      </trkpt>
      <trkpt lat="46.50694" lon="0.37743">
        <ele>117.8</ele>
        <time>2021-09-12T06:37:07Z</time>
      </trkpt>
      <trkpt lat="46.50698" lon="0.37745">
        <ele>117.6</ele>
        <time>2021-09-12T06:37:08Z</time>
      </trkpt>
      <trkpt lat="46.50713" lon="0.37752">
        <ele>117.2</ele>
        <time>2021-09-12T06:37:12Z</time>
      </trkpt>
      <trkpt lat="46.50716" lon="0.37754">
        <ele>117</ele>
        <time>2021-09-12T06:37:13Z</time>
      </trkpt>
      <trkpt lat="46.50727" lon="0.37758">
        <ele>116.8</ele>
        <time>2021-09-12T06:37:16Z</time>
      </trkpt>
      <trkpt lat="46.50731" lon="0.37759">
        <ele>116.6</ele>
        <time>2021-09-12T06:37:18Z</time>
      </trkpt>
      <trkpt lat="46.50741" lon="0.37756">
        <ele>116.8</ele>
        <time>2021-09-12T06:37:23Z</time>
      </trkpt>
      <trkpt lat="46.50743" lon="0.37754">
        <ele>117</ele>
        <time>2021-09-12T06:37:25Z</time>
      </trkpt>
      <trkpt lat="46.50747" lon="0.37749">
        <ele>117.8</ele>
        <time>2021-09-12T06:37:28Z</time>
      </trkpt>
      <trkpt lat="46.50749" lon="0.37745">
        <ele>118</ele>
        <time>2021-09-12T06:37:30Z</time>
      </trkpt>
      <trkpt lat="46.50754" lon="0.37738">
        <ele>119</ele>
        <time>2021-09-12T06:37:33Z</time>
      </trkpt>
      <trkpt lat="46.50757" lon="0.37732">
        <ele>119.4</ele>
        <time>2021-09-12T06:37:35Z</time>
      </trkpt>
      <trkpt lat="46.50763" lon="0.37719">
        <ele>120</ele>
        <time>2021-09-12T06:37:39Z</time>
      </trkpt>
      <trkpt lat="46.50765" lon="0.37712">
        <ele>120.2</ele>
        <time>2021-09-12T06:37:41Z</time>
      </trkpt>
      <trkpt lat="46.50775" lon="0.37688">
        <ele>120</ele>
        <time>2021-09-12T06:37:47Z</time>
      </trkpt>
      <trkpt lat="46.50787" lon="0.37662">
        <ele>119.4</ele>
        <time>2021-09-12T06:37:52Z</time>
      </trkpt>
      <trkpt lat="46.50793" lon="0.37649">
        <ele>119</ele>
        <time>2021-09-12T06:37:54Z</time>
      </trkpt>
      <trkpt lat="46.50802" lon="0.37619">
        <ele>118.8</ele>
        <time>2021-09-12T06:37:58Z</time>
      </trkpt>
      <trkpt lat="46.50808" lon="0.376">
        <ele>120.2</ele>
        <time>2021-09-12T06:38:01Z</time>
      </trkpt>
      <trkpt lat="46.50813" lon="0.37585">
        <ele>121.6</ele>
        <time>2021-09-12T06:38:04Z</time>
      </trkpt>
      <trkpt lat="46.50818" lon="0.37568">
        <ele>123.2</ele>
        <time>2021-09-12T06:38:09Z</time>
      </trkpt>
      <trkpt lat="46.5082" lon="0.37566">
        <ele>123.6</ele>
        <time>2021-09-12T06:38:10Z</time>
      </trkpt>
      <trkpt lat="46.50823" lon="0.3756">
        <ele>124.4</ele>
        <time>2021-09-12T06:38:13Z</time>
      </trkpt>
      <trkpt lat="46.50827" lon="0.37549">
        <ele>125.4</ele>
        <time>2021-09-12T06:38:17Z</time>
      </trkpt>
      <trkpt lat="46.50828" lon="0.37543">
        <ele>125.6</ele>
        <time>2021-09-12T06:38:19Z</time>
      </trkpt>
      <trkpt lat="46.5083" lon="0.37537">
        <ele>126.8</ele>
        <time>2021-09-12T06:38:21Z</time>
      </trkpt>
      <trkpt lat="46.50833" lon="0.37524">
        <ele>127.6</ele>
        <time>2021-09-12T06:38:26Z</time>
      </trkpt>
      <trkpt lat="46.50832" lon="0.37522">
        <ele>127.8</ele>
        <time>2021-09-12T06:38:27Z</time>
      </trkpt>
      <trkpt lat="46.50831" lon="0.37521">
        <ele>127.8</ele>
        <time>2021-09-12T06:38:28Z</time>
      </trkpt>
      <trkpt lat="46.50828" lon="0.37514">
        <ele>128.4</ele>
        <time>2021-09-12T06:38:32Z</time>
      </trkpt>
      <trkpt lat="46.50823" lon="0.37504">
        <ele>128.8</ele>
        <time>2021-09-12T06:38:36Z</time>
      </trkpt>
      <trkpt lat="46.5082" lon="0.37498">
        <ele>129</ele>
        <time>2021-09-12T06:38:38Z</time>
      </trkpt>
      <trkpt lat="46.5082" lon="0.37494">
        <ele>129</ele>
        <time>2021-09-12T06:38:39Z</time>
      </trkpt>
      <trkpt lat="46.50821" lon="0.37487">
        <ele>129.4</ele>
        <time>2021-09-12T06:38:41Z</time>
      </trkpt>
      <trkpt lat="46.50825" lon="0.37471">
        <ele>130.2</ele>
        <time>2021-09-12T06:38:46Z</time>
      </trkpt>
      <trkpt lat="46.50828" lon="0.37466">
        <ele>130.6</ele>
        <time>2021-09-12T06:38:48Z</time>
      </trkpt>
      <trkpt lat="46.50829" lon="0.37461">
        <ele>131.2</ele>
        <time>2021-09-12T06:38:50Z</time>
      </trkpt>
      <trkpt lat="46.50832" lon="0.37454">
        <ele>132</ele>
        <time>2021-09-12T06:38:53Z</time>
      </trkpt>
      <trkpt lat="46.50835" lon="0.3745">
        <ele>132.2</ele>
        <time>2021-09-12T06:38:55Z</time>
      </trkpt>
      <trkpt lat="46.50842" lon="0.37444">
        <ele>132.8</ele>
        <time>2021-09-12T06:39:00Z</time>
      </trkpt>
      <trkpt lat="46.50845" lon="0.37445">
        <ele>133</ele>
        <time>2021-09-12T06:39:02Z</time>
      </trkpt>
      <trkpt lat="46.50849" lon="0.3745">
        <ele>133</ele>
        <time>2021-09-12T06:39:05Z</time>
      </trkpt>
      <trkpt lat="46.50856" lon="0.37465">
        <ele>132.8</ele>
        <time>2021-09-12T06:39:11Z</time>
      </trkpt>
      <trkpt lat="46.50867" lon="0.37489">
        <ele>132.4</ele>
        <time>2021-09-12T06:39:17Z</time>
      </trkpt>
      <trkpt lat="46.50876" lon="0.37508">
        <ele>132.2</ele>
        <time>2021-09-12T06:39:22Z</time>
      </trkpt>
      <trkpt lat="46.50883" lon="0.37517">
        <ele>132</ele>
        <time>2021-09-12T06:39:25Z</time>
      </trkpt>
      <trkpt lat="46.50889" lon="0.37524">
        <ele>132.2</ele>
        <time>2021-09-12T06:39:27Z</time>
      </trkpt>
      <trkpt lat="46.50904" lon="0.37533">
        <ele>132.4</ele>
        <time>2021-09-12T06:39:32Z</time>
      </trkpt>
      <trkpt lat="46.50912" lon="0.37525">
        <ele>132.8</ele>
        <time>2021-09-12T06:39:36Z</time>
      </trkpt>
      <trkpt lat="46.50914" lon="0.37524">
        <ele>133.2</ele>
        <time>2021-09-12T06:39:37Z</time>
      </trkpt>
      <trkpt lat="46.50916" lon="0.37524">
        <ele>133.4</ele>
        <time>2021-09-12T06:39:38Z</time>
      </trkpt>
      <trkpt lat="46.50923" lon="0.37526">
        <ele>133.8</ele>
        <time>2021-09-12T06:39:40Z</time>
      </trkpt>
      <trkpt lat="46.50934" lon="0.37534">
        <ele>134</ele>
        <time>2021-09-12T06:39:43Z</time>
      </trkpt>
      <trkpt lat="46.50936" lon="0.37538">
        <ele>134</ele>
        <time>2021-09-12T06:39:44Z</time>
      </trkpt>
      <trkpt lat="46.50939" lon="0.37541">
        <ele>134</ele>
        <time>2021-09-12T06:39:45Z</time>
      </trkpt>
      <trkpt lat="46.50948" lon="0.37547">
        <ele>133.8</ele>
        <time>2021-09-12T06:39:48Z</time>
      </trkpt>
      <trkpt lat="46.50952" lon="0.37548">
        <ele>133.8</ele>
        <time>2021-09-12T06:39:49Z</time>
      </trkpt>
      <trkpt lat="46.50963" lon="0.37555">
        <ele>133.8</ele>
        <time>2021-09-12T06:39:53Z</time>
      </trkpt>
      <trkpt lat="46.50972" lon="0.37562">
        <ele>133.8</ele>
        <time>2021-09-12T06:39:58Z</time>
      </trkpt>
      <trkpt lat="46.50972" lon="0.37564">
        <ele>133.8</ele>
        <time>2021-09-12T06:39:59Z</time>
      </trkpt>
      <trkpt lat="46.50966" lon="0.37574">
        <ele>133.6</ele>
        <time>2021-09-12T06:40:04Z</time>
      </trkpt>
      <trkpt lat="46.50953" lon="0.37587">
        <ele>132.8</ele>
        <time>2021-09-12T06:40:10Z</time>
      </trkpt>
      <trkpt lat="46.5094" lon="0.37595">
        <ele>132.4</ele>
        <time>2021-09-12T06:40:14Z</time>
      </trkpt>
      <trkpt lat="46.50936" lon="0.37598">
        <ele>132.2</ele>
        <time>2021-09-12T06:40:15Z</time>
      </trkpt>
      <trkpt lat="46.50916" lon="0.37615">
        <ele>131.6</ele>
        <time>2021-09-12T06:40:19Z</time>
      </trkpt>
      <trkpt lat="46.50912" lon="0.37622">
        <ele>131.2</ele>
        <time>2021-09-12T06:40:20Z</time>
      </trkpt>
      <trkpt lat="46.50907" lon="0.37627">
        <ele>131</ele>
        <time>2021-09-12T06:40:21Z</time>
      </trkpt>
      <trkpt lat="46.50898" lon="0.3764">
        <ele>130</ele>
        <time>2021-09-12T06:40:23Z</time>
      </trkpt>
      <trkpt lat="46.50893" lon="0.37645">
        <ele>129.2</ele>
        <time>2021-09-12T06:40:24Z</time>
      </trkpt>
      <trkpt lat="46.50889" lon="0.37651">
        <ele>128.8</ele>
        <time>2021-09-12T06:40:25Z</time>
      </trkpt>
      <trkpt lat="46.50882" lon="0.37665">
        <ele>127.8</ele>
        <time>2021-09-12T06:40:27Z</time>
      </trkpt>
      <trkpt lat="46.5088" lon="0.3767">
        <ele>127</ele>
        <time>2021-09-12T06:40:28Z</time>
      </trkpt>
      <trkpt lat="46.50878" lon="0.37675">
        <ele>126.4</ele>
        <time>2021-09-12T06:40:29Z</time>
      </trkpt>
      <trkpt lat="46.50877" lon="0.3768">
        <ele>125.8</ele>
        <time>2021-09-12T06:40:30Z</time>
      </trkpt>
      <trkpt lat="46.50877" lon="0.37685">
        <ele>125.4</ele>
        <time>2021-09-12T06:40:31Z</time>
      </trkpt>
      <trkpt lat="46.50877" lon="0.3769">
        <ele>125</ele>
        <time>2021-09-12T06:40:32Z</time>
      </trkpt>
      <trkpt lat="46.50875" lon="0.37694">
        <ele>124.6</ele>
        <time>2021-09-12T06:40:33Z</time>
      </trkpt>
      <trkpt lat="46.50874" lon="0.37698">
        <ele>124.2</ele>
        <time>2021-09-12T06:40:34Z</time>
      </trkpt>
      <trkpt lat="46.50872" lon="0.37704">
        <ele>124</ele>
        <time>2021-09-12T06:40:35Z</time>
      </trkpt>
      <trkpt lat="46.5087" lon="0.37714">
        <ele>123.4</ele>
        <time>2021-09-12T06:40:37Z</time>
      </trkpt>
      <trkpt lat="46.5087" lon="0.37718">
        <ele>123.4</ele>
        <time>2021-09-12T06:40:38Z</time>
      </trkpt>
      <trkpt lat="46.5087" lon="0.37723">
        <ele>123.2</ele>
        <time>2021-09-12T06:40:39Z</time>
      </trkpt>
      <trkpt lat="46.5087" lon="0.37727">
        <ele>122.8</ele>
        <time>2021-09-12T06:40:40Z</time>
      </trkpt>
      <trkpt lat="46.50866" lon="0.37751">
        <ele>122.2</ele>
        <time>2021-09-12T06:40:44Z</time>
      </trkpt>
      <trkpt lat="46.50864" lon="0.37768">
        <ele>120.8</ele>
        <time>2021-09-12T06:40:47Z</time>
      </trkpt>
      <trkpt lat="46.50864" lon="0.37781">
        <ele>120.2</ele>
        <time>2021-09-12T06:40:49Z</time>
      </trkpt>
      <trkpt lat="46.50865" lon="0.37788">
        <ele>120</ele>
        <time>2021-09-12T06:40:50Z</time>
      </trkpt>
      <trkpt lat="46.5087" lon="0.37812">
        <ele>119.4</ele>
        <time>2021-09-12T06:40:54Z</time>
      </trkpt>
      <trkpt lat="46.5087" lon="0.37823">
        <ele>118.2</ele>
        <time>2021-09-12T06:40:56Z</time>
      </trkpt>
      <trkpt lat="46.50872" lon="0.37828">
        <ele>117.8</ele>
        <time>2021-09-12T06:40:57Z</time>
      </trkpt>
      <trkpt lat="46.50876" lon="0.37843">
        <ele>117.4</ele>
        <time>2021-09-12T06:41:00Z</time>
      </trkpt>
      <trkpt lat="46.5088" lon="0.37853">
        <ele>117</ele>
        <time>2021-09-12T06:41:02Z</time>
      </trkpt>
      <trkpt lat="46.50885" lon="0.37865">
        <ele>116.2</ele>
        <time>2021-09-12T06:41:04Z</time>
      </trkpt>
      <trkpt lat="46.50891" lon="0.37876">
        <ele>115.4</ele>
        <time>2021-09-12T06:41:06Z</time>
      </trkpt>
      <trkpt lat="46.50894" lon="0.37882">
        <ele>115</ele>
        <time>2021-09-12T06:41:07Z</time>
      </trkpt>
      <trkpt lat="46.50901" lon="0.37892">
        <ele>114.6</ele>
        <time>2021-09-12T06:41:09Z</time>
      </trkpt>
      <trkpt lat="46.50904" lon="0.37897">
        <ele>114.2</ele>
        <time>2021-09-12T06:41:10Z</time>
      </trkpt>
      <trkpt lat="46.50906" lon="0.37901">
        <ele>114</ele>
        <time>2021-09-12T06:41:11Z</time>
      </trkpt>
      <trkpt lat="46.50908" lon="0.37911">
        <ele>113.4</ele>
        <time>2021-09-12T06:41:14Z</time>
      </trkpt>
      <trkpt lat="46.50909" lon="0.37913">
        <ele>113.2</ele>
        <time>2021-09-12T06:41:15Z</time>
      </trkpt>
      <trkpt lat="46.50909" lon="0.37916">
        <ele>113.2</ele>
        <time>2021-09-12T06:41:16Z</time>
      </trkpt>
      <trkpt lat="46.50908" lon="0.37919">
        <ele>113</ele>
        <time>2021-09-12T06:41:18Z</time>
      </trkpt>
      <trkpt lat="46.50908" lon="0.37923">
        <ele>113</ele>
        <time>2021-09-12T06:41:20Z</time>
      </trkpt>
      <trkpt lat="46.50904" lon="0.37928">
        <ele>113</ele>
        <time>2021-09-12T06:41:22Z</time>
      </trkpt>
      <trkpt lat="46.50899" lon="0.37928">
        <ele>113.4</ele>
        <time>2021-09-12T06:41:24Z</time>
      </trkpt>
      <trkpt lat="46.50887" lon="0.37923">
        <ele>113.8</ele>
        <time>2021-09-12T06:41:28Z</time>
      </trkpt>
      <trkpt lat="46.50884" lon="0.3792">
        <ele>113.8</ele>
        <time>2021-09-12T06:41:29Z</time>
      </trkpt>
      <trkpt lat="46.50882" lon="0.37917">
        <ele>114</ele>
        <time>2021-09-12T06:41:30Z</time>
      </trkpt>
      <trkpt lat="46.5087" lon="0.37899">
        <ele>114</ele>
        <time>2021-09-12T06:41:35Z</time>
      </trkpt>
      <trkpt lat="46.50861" lon="0.37885">
        <ele>113.8</ele>
        <time>2021-09-12T06:41:38Z</time>
      </trkpt>
      <trkpt lat="46.50855" lon="0.37877">
        <ele>114</ele>
        <time>2021-09-12T06:41:40Z</time>
      </trkpt>
      <trkpt lat="46.50849" lon="0.37866">
        <ele>114</ele>
        <time>2021-09-12T06:41:42Z</time>
      </trkpt>
      <trkpt lat="46.50846" lon="0.3786">
        <ele>114.2</ele>
        <time>2021-09-12T06:41:43Z</time>
      </trkpt>
      <trkpt lat="46.50833" lon="0.37837">
        <ele>114.4</ele>
        <time>2021-09-12T06:41:47Z</time>
      </trkpt>
      <trkpt lat="46.50831" lon="0.37831">
        <ele>114.4</ele>
        <time>2021-09-12T06:41:48Z</time>
      </trkpt>
      <trkpt lat="46.50822" lon="0.37814">
        <ele>114.8</ele>
        <time>2021-09-12T06:41:52Z</time>
      </trkpt>
      <trkpt lat="46.50819" lon="0.37811">
        <ele>114.8</ele>
        <time>2021-09-12T06:41:53Z</time>
      </trkpt>
      <trkpt lat="46.50815" lon="0.37811">
        <ele>114.8</ele>
        <time>2021-09-12T06:41:56Z</time>
      </trkpt>
      <trkpt lat="46.508" lon="0.37815">
        <ele>114.8</ele>
        <time>2021-09-12T06:42:01Z</time>
      </trkpt>
      <trkpt lat="46.5079" lon="0.37816">
        <ele>115.4</ele>
        <time>2021-09-12T06:42:04Z</time>
      </trkpt>
      <trkpt lat="46.5078" lon="0.3782">
        <ele>116.4</ele>
        <time>2021-09-12T06:42:08Z</time>
      </trkpt>
      <trkpt lat="46.50778" lon="0.37821">
        <ele>116.6</ele>
        <time>2021-09-12T06:42:09Z</time>
      </trkpt>
      <trkpt lat="46.50766" lon="0.37824">
        <ele>117.8</ele>
        <time>2021-09-12T06:42:13Z</time>
      </trkpt>
      <trkpt lat="46.50763" lon="0.37824">
        <ele>118</ele>
        <time>2021-09-12T06:42:14Z</time>
      </trkpt>
      <trkpt lat="46.50752" lon="0.37823">
        <ele>118.8</ele>
        <time>2021-09-12T06:42:17Z</time>
      </trkpt>
      <trkpt lat="46.50742" lon="0.37821">
        <ele>119.2</ele>
        <time>2021-09-12T06:42:20Z</time>
      </trkpt>
      <trkpt lat="46.50721" lon="0.37811">
        <ele>119.2</ele>
        <time>2021-09-12T06:42:26Z</time>
      </trkpt>
      <trkpt lat="46.50698" lon="0.37806">
        <ele>119</ele>
        <time>2021-09-12T06:42:32Z</time>
      </trkpt>
      <trkpt lat="46.5069" lon="0.37806">
        <ele>119.4</ele>
        <time>2021-09-12T06:42:34Z</time>
      </trkpt>
      <trkpt lat="46.50676" lon="0.37801">
        <ele>119.2</ele>
        <time>2021-09-12T06:42:38Z</time>
      </trkpt>
      <trkpt lat="46.50667" lon="0.37793">
        <ele>119.2</ele>
        <time>2021-09-12T06:42:41Z</time>
      </trkpt>
      <trkpt lat="46.5066" lon="0.37788">
        <ele>119.2</ele>
        <time>2021-09-12T06:42:43Z</time>
      </trkpt>
      <trkpt lat="46.50657" lon="0.37787">
        <ele>119.2</ele>
        <time>2021-09-12T06:42:44Z</time>
      </trkpt>
      <trkpt lat="46.50643" lon="0.37778">
        <ele>119.6</ele>
        <time>2021-09-12T06:42:48Z</time>
      </trkpt>
      <trkpt lat="46.50635" lon="0.37774">
        <ele>120</ele>
        <time>2021-09-12T06:42:50Z</time>
      </trkpt>
      <trkpt lat="46.50623" lon="0.37771">
        <ele>120.2</ele>
        <time>2021-09-12T06:42:53Z</time>
      </trkpt>
      <trkpt lat="46.50613" lon="0.37766">
        <ele>121.2</ele>
        <time>2021-09-12T06:42:56Z</time>
      </trkpt>
      <trkpt lat="46.50596" lon="0.37758">
        <ele>122.2</ele>
        <time>2021-09-12T06:43:01Z</time>
      </trkpt>
      <trkpt lat="46.5058" lon="0.37751">
        <ele>123.4</ele>
        <time>2021-09-12T06:43:06Z</time>
      </trkpt>
      <trkpt lat="46.50575" lon="0.37748">
        <ele>123.8</ele>
        <time>2021-09-12T06:43:08Z</time>
      </trkpt>
      <trkpt lat="46.50568" lon="0.37741">
        <ele>124.4</ele>
        <time>2021-09-12T06:43:11Z</time>
      </trkpt>
      <trkpt lat="46.5056" lon="0.37736">
        <ele>124.8</ele>
        <time>2021-09-12T06:43:14Z</time>
      </trkpt>
      <trkpt lat="46.50549" lon="0.37729">
        <ele>125.6</ele>
        <time>2021-09-12T06:43:18Z</time>
      </trkpt>
      <trkpt lat="46.5054" lon="0.37721">
        <ele>126.4</ele>
        <time>2021-09-12T06:43:21Z</time>
      </trkpt>
      <trkpt lat="46.50536" lon="0.37716">
        <ele>126.6</ele>
        <time>2021-09-12T06:43:23Z</time>
      </trkpt>
      <trkpt lat="46.50526" lon="0.37707">
        <ele>127.4</ele>
        <time>2021-09-12T06:43:27Z</time>
      </trkpt>
      <trkpt lat="46.50522" lon="0.37704">
        <ele>127.6</ele>
        <time>2021-09-12T06:43:29Z</time>
      </trkpt>
      <trkpt lat="46.50514" lon="0.37702">
        <ele>128.2</ele>
        <time>2021-09-12T06:43:32Z</time>
      </trkpt>
      <trkpt lat="46.50505" lon="0.37702">
        <ele>129</ele>
        <time>2021-09-12T06:43:35Z</time>
      </trkpt>
      <trkpt lat="46.50495" lon="0.37705">
        <ele>129.8</ele>
        <time>2021-09-12T06:43:39Z</time>
      </trkpt>
      <trkpt lat="46.50491" lon="0.37709">
        <ele>130.2</ele>
        <time>2021-09-12T06:43:41Z</time>
      </trkpt>
      <trkpt lat="46.50488" lon="0.37716">
        <ele>130.4</ele>
        <time>2021-09-12T06:43:44Z</time>
      </trkpt>
      <trkpt lat="46.50486" lon="0.37726">
        <ele>131.2</ele>
        <time>2021-09-12T06:43:48Z</time>
      </trkpt>
      <trkpt lat="46.50484" lon="0.37734">
        <ele>131.6</ele>
        <time>2021-09-12T06:43:51Z</time>
      </trkpt>
      <trkpt lat="46.5048" lon="0.37754">
        <ele>132.2</ele>
        <time>2021-09-12T06:43:57Z</time>
      </trkpt>
      <trkpt lat="46.50479" lon="0.37758">
        <ele>132.4</ele>
        <time>2021-09-12T06:43:58Z</time>
      </trkpt>
      <trkpt lat="46.50477" lon="0.37775">
        <ele>132.6</ele>
        <time>2021-09-12T06:44:02Z</time>
      </trkpt>
      <trkpt lat="46.50476" lon="0.37799">
        <ele>132.8</ele>
        <time>2021-09-12T06:44:07Z</time>
      </trkpt>
      <trkpt lat="46.50477" lon="0.37815">
        <ele>132.8</ele>
        <time>2021-09-12T06:44:11Z</time>
      </trkpt>
      <trkpt lat="46.50478" lon="0.37819">
        <ele>132.8</ele>
        <time>2021-09-12T06:44:12Z</time>
      </trkpt>
      <trkpt lat="46.50481" lon="0.37829">
        <ele>132.6</ele>
        <time>2021-09-12T06:44:14Z</time>
      </trkpt>
      <trkpt lat="46.50485" lon="0.37846">
        <ele>132.6</ele>
        <time>2021-09-12T06:44:17Z</time>
      </trkpt>
      <trkpt lat="46.50494" lon="0.37882">
        <ele>132.8</ele>
        <time>2021-09-12T06:44:23Z</time>
      </trkpt>
      <trkpt lat="46.50494" lon="0.37889">
        <ele>132.8</ele>
        <time>2021-09-12T06:44:24Z</time>
      </trkpt>
      <trkpt lat="46.50497" lon="0.37912">
        <ele>133.2</ele>
        <time>2021-09-12T06:44:28Z</time>
      </trkpt>
      <trkpt lat="46.50498" lon="0.37917">
        <ele>133.4</ele>
        <time>2021-09-12T06:44:29Z</time>
      </trkpt>
      <trkpt lat="46.50499" lon="0.37922">
        <ele>133.6</ele>
        <time>2021-09-12T06:44:30Z</time>
      </trkpt>
      <trkpt lat="46.50503" lon="0.37951">
        <ele>134.4</ele>
        <time>2021-09-12T06:44:35Z</time>
      </trkpt>
      <trkpt lat="46.50506" lon="0.37964">
        <ele>134.2</ele>
        <time>2021-09-12T06:44:37Z</time>
      </trkpt>
      <trkpt lat="46.50508" lon="0.37978">
        <ele>134.2</ele>
        <time>2021-09-12T06:44:39Z</time>
      </trkpt>
      <trkpt lat="46.50511" lon="0.37995">
        <ele>134.2</ele>
        <time>2021-09-12T06:44:42Z</time>
      </trkpt>
      <trkpt lat="46.50515" lon="0.38013">
        <ele>134.6</ele>
        <time>2021-09-12T06:44:45Z</time>
      </trkpt>
      <trkpt lat="46.50517" lon="0.38036">
        <ele>134.4</ele>
        <time>2021-09-12T06:44:48Z</time>
      </trkpt>
      <trkpt lat="46.50519" lon="0.38048">
        <ele>134.6</ele>
        <time>2021-09-12T06:44:50Z</time>
      </trkpt>
      <trkpt lat="46.50516" lon="0.38058">
        <ele>134.6</ele>
        <time>2021-09-12T06:44:52Z</time>
      </trkpt>
      <trkpt lat="46.5051" lon="0.3807">
        <ele>134.4</ele>
        <time>2021-09-12T06:44:55Z</time>
      </trkpt>
      <trkpt lat="46.50503" lon="0.3809">
        <ele>134.4</ele>
        <time>2021-09-12T06:44:59Z</time>
      </trkpt>
      <trkpt lat="46.50496" lon="0.38107">
        <ele>134.4</ele>
        <time>2021-09-12T06:45:03Z</time>
      </trkpt>
      <trkpt lat="46.50492" lon="0.38115">
        <ele>134.2</ele>
        <time>2021-09-12T06:45:05Z</time>
      </trkpt>
      <trkpt lat="46.50483" lon="0.38128">
        <ele>133.8</ele>
        <time>2021-09-12T06:45:08Z</time>
      </trkpt>
      <trkpt lat="46.50477" lon="0.38139">
        <ele>133.8</ele>
        <time>2021-09-12T06:45:10Z</time>
      </trkpt>
      <trkpt lat="46.50475" lon="0.38146">
        <ele>133.8</ele>
        <time>2021-09-12T06:45:11Z</time>
      </trkpt>
      <trkpt lat="46.50463" lon="0.38166">
        <ele>133.8</ele>
        <time>2021-09-12T06:45:15Z</time>
      </trkpt>
      <trkpt lat="46.50452" lon="0.38183">
        <ele>133.8</ele>
        <time>2021-09-12T06:45:19Z</time>
      </trkpt>
      <trkpt lat="46.50449" lon="0.38187">
        <ele>133.8</ele>
        <time>2021-09-12T06:45:20Z</time>
      </trkpt>
      <trkpt lat="46.50436" lon="0.38209">
        <ele>133.8</ele>
        <time>2021-09-12T06:45:26Z</time>
      </trkpt>
      <trkpt lat="46.50423" lon="0.3823">
        <ele>133.6</ele>
        <time>2021-09-12T06:45:32Z</time>
      </trkpt>
      <trkpt lat="46.50423" lon="0.38241">
        <ele>133.6</ele>
        <time>2021-09-12T06:45:34Z</time>
      </trkpt>
      <trkpt lat="46.50424" lon="0.38251">
        <ele>133.4</ele>
        <time>2021-09-12T06:45:36Z</time>
      </trkpt>
      <trkpt lat="46.50424" lon="0.38255">
        <ele>133.4</ele>
        <time>2021-09-12T06:45:37Z</time>
      </trkpt>
      <trkpt lat="46.50427" lon="0.38263">
        <ele>133.4</ele>
        <time>2021-09-12T06:45:39Z</time>
      </trkpt>
      <trkpt lat="46.50433" lon="0.38276">
        <ele>133</ele>
        <time>2021-09-12T06:45:42Z</time>
      </trkpt>
      <trkpt lat="46.5044" lon="0.38289">
        <ele>132.6</ele>
        <time>2021-09-12T06:45:45Z</time>
      </trkpt>
      <trkpt lat="46.50443" lon="0.38299">
        <ele>132.6</ele>
        <time>2021-09-12T06:45:47Z</time>
      </trkpt>
      <trkpt lat="46.50445" lon="0.38304">
        <ele>132.4</ele>
        <time>2021-09-12T06:45:48Z</time>
      </trkpt>
      <trkpt lat="46.50448" lon="0.38314">
        <ele>132.4</ele>
        <time>2021-09-12T06:45:50Z</time>
      </trkpt>
      <trkpt lat="46.50455" lon="0.38326">
        <ele>132.2</ele>
        <time>2021-09-12T06:45:53Z</time>
      </trkpt>
      <trkpt lat="46.50465" lon="0.38338">
        <ele>132</ele>
        <time>2021-09-12T06:45:57Z</time>
      </trkpt>
      <trkpt lat="46.50472" lon="0.38347">
        <ele>131.8</ele>
        <time>2021-09-12T06:46:00Z</time>
      </trkpt>
      <trkpt lat="46.50481" lon="0.38365">
        <ele>132</ele>
        <time>2021-09-12T06:46:04Z</time>
      </trkpt>
      <trkpt lat="46.50492" lon="0.38394">
        <ele>131.2</ele>
        <time>2021-09-12T06:46:10Z</time>
      </trkpt>
      <trkpt lat="46.50493" lon="0.38397">
        <ele>131</ele>
        <time>2021-09-12T06:46:11Z</time>
      </trkpt>
      <trkpt lat="46.50496" lon="0.38403">
        <ele>130.8</ele>
        <time>2021-09-12T06:46:13Z</time>
      </trkpt>
      <trkpt lat="46.505" lon="0.38407">
        <ele>130.6</ele>
        <time>2021-09-12T06:46:16Z</time>
      </trkpt>
      <trkpt lat="46.50502" lon="0.38408">
        <ele>130.4</ele>
        <time>2021-09-12T06:46:17Z</time>
      </trkpt>
      <trkpt lat="46.50507" lon="0.38415">
        <ele>130.4</ele>
        <time>2021-09-12T06:46:21Z</time>
      </trkpt>
      <trkpt lat="46.50507" lon="0.38417">
        <ele>130.2</ele>
        <time>2021-09-12T06:46:22Z</time>
      </trkpt>
      <trkpt lat="46.50507" lon="0.38418">
        <ele>130.2</ele>
        <time>2021-09-12T06:46:30Z</time>
      </trkpt>
      <trkpt lat="46.50513" lon="0.38428">
        <ele>130.2</ele>
        <time>2021-09-12T06:46:37Z</time>
      </trkpt>
      <trkpt lat="46.50521" lon="0.38435">
        <ele>130</ele>
        <time>2021-09-12T06:46:41Z</time>
      </trkpt>
      <trkpt lat="46.50525" lon="0.3844">
        <ele>129.6</ele>
        <time>2021-09-12T06:46:43Z</time>
      </trkpt>
      <trkpt lat="46.50535" lon="0.38458">
        <ele>129.8</ele>
        <time>2021-09-12T06:46:49Z</time>
      </trkpt>
      <trkpt lat="46.50538" lon="0.3846">
        <ele>130</ele>
        <time>2021-09-12T06:46:50Z</time>
      </trkpt>
      <trkpt lat="46.50546" lon="0.38464">
        <ele>130</ele>
        <time>2021-09-12T06:46:53Z</time>
      </trkpt>
      <trkpt lat="46.50553" lon="0.38466">
        <ele>129.8</ele>
        <time>2021-09-12T06:46:58Z</time>
      </trkpt>
      <trkpt lat="46.50556" lon="0.38467">
        <ele>129.4</ele>
        <time>2021-09-12T06:47:01Z</time>
      </trkpt>
      <trkpt lat="46.5056" lon="0.38464">
        <ele>129.2</ele>
        <time>2021-09-12T06:47:04Z</time>
      </trkpt>
      <trkpt lat="46.50564" lon="0.38461">
        <ele>129.2</ele>
        <time>2021-09-12T06:47:06Z</time>
      </trkpt>
      <trkpt lat="46.50569" lon="0.38452">
        <ele>128.8</ele>
        <time>2021-09-12T06:47:09Z</time>
      </trkpt>
      <trkpt lat="46.50574" lon="0.38443">
        <ele>128.4</ele>
        <time>2021-09-12T06:47:12Z</time>
      </trkpt>
      <trkpt lat="46.5058" lon="0.38432">
        <ele>128.2</ele>
        <time>2021-09-12T06:47:15Z</time>
      </trkpt>
      <trkpt lat="46.50586" lon="0.38421">
        <ele>127.4</ele>
        <time>2021-09-12T06:47:18Z</time>
      </trkpt>
      <trkpt lat="46.50587" lon="0.38419">
        <ele>126.8</ele>
        <time>2021-09-12T06:47:19Z</time>
      </trkpt>
      <trkpt lat="46.50589" lon="0.38416">
        <ele>126.4</ele>
        <time>2021-09-12T06:47:20Z</time>
      </trkpt>
      <trkpt lat="46.50593" lon="0.38411">
        <ele>125.6</ele>
        <time>2021-09-12T06:47:22Z</time>
      </trkpt>
      <trkpt lat="46.50597" lon="0.38405">
        <ele>125.4</ele>
        <time>2021-09-12T06:47:24Z</time>
      </trkpt>
      <trkpt lat="46.50601" lon="0.38402">
        <ele>125</ele>
        <time>2021-09-12T06:47:26Z</time>
      </trkpt>
      <trkpt lat="46.50605" lon="0.38399">
        <ele>124.4</ele>
        <time>2021-09-12T06:47:28Z</time>
      </trkpt>
      <trkpt lat="46.50612" lon="0.38394">
        <ele>123.6</ele>
        <time>2021-09-12T06:47:31Z</time>
      </trkpt>
      <trkpt lat="46.50615" lon="0.38391">
        <ele>123.4</ele>
        <time>2021-09-12T06:47:32Z</time>
      </trkpt>
      <trkpt lat="46.50628" lon="0.38377">
        <ele>123</ele>
        <time>2021-09-12T06:47:36Z</time>
      </trkpt>
      <trkpt lat="46.50636" lon="0.38371">
        <ele>123.4</ele>
        <time>2021-09-12T06:47:38Z</time>
      </trkpt>
      <trkpt lat="46.50653" lon="0.38359">
        <ele>123.6</ele>
        <time>2021-09-12T06:47:42Z</time>
      </trkpt>
      <trkpt lat="46.50675" lon="0.38344">
        <ele>124.6</ele>
        <time>2021-09-12T06:47:48Z</time>
      </trkpt>
      <trkpt lat="46.50698" lon="0.38336">
        <ele>125.4</ele>
        <time>2021-09-12T06:47:55Z</time>
      </trkpt>
      <trkpt lat="46.50712" lon="0.38347">
        <ele>125</ele>
        <time>2021-09-12T06:48:00Z</time>
      </trkpt>
      <trkpt lat="46.50721" lon="0.38364">
        <ele>124</ele>
        <time>2021-09-12T06:48:04Z</time>
      </trkpt>
      <trkpt lat="46.50725" lon="0.38371">
        <ele>123.4</ele>
        <time>2021-09-12T06:48:06Z</time>
      </trkpt>
      <trkpt lat="46.50729" lon="0.38373">
        <ele>123</ele>
        <time>2021-09-12T06:48:07Z</time>
      </trkpt>
      <trkpt lat="46.50732" lon="0.38375">
        <ele>122.4</ele>
        <time>2021-09-12T06:48:08Z</time>
      </trkpt>
      <trkpt lat="46.50736" lon="0.38377">
        <ele>122</ele>
        <time>2021-09-12T06:48:09Z</time>
      </trkpt>
      <trkpt lat="46.50739" lon="0.38379">
        <ele>121.8</ele>
        <time>2021-09-12T06:48:10Z</time>
      </trkpt>
      <trkpt lat="46.50746" lon="0.38383">
        <ele>121.4</ele>
        <time>2021-09-12T06:48:12Z</time>
      </trkpt>
      <trkpt lat="46.50752" lon="0.38383">
        <ele>121.4</ele>
        <time>2021-09-12T06:48:14Z</time>
      </trkpt>
      <trkpt lat="46.50763" lon="0.38383">
        <ele>121.6</ele>
        <time>2021-09-12T06:48:16Z</time>
      </trkpt>
      <trkpt lat="46.50782" lon="0.38385">
        <ele>122.2</ele>
        <time>2021-09-12T06:48:20Z</time>
      </trkpt>
      <trkpt lat="46.50785" lon="0.38383">
        <ele>122.2</ele>
        <time>2021-09-12T06:48:21Z</time>
      </trkpt>
      <trkpt lat="46.50799" lon="0.38384">
        <ele>122.4</ele>
        <time>2021-09-12T06:48:24Z</time>
      </trkpt>
      <trkpt lat="46.50806" lon="0.38387">
        <ele>122.6</ele>
        <time>2021-09-12T06:48:26Z</time>
      </trkpt>
      <trkpt lat="46.50824" lon="0.38401">
        <ele>121.6</ele>
        <time>2021-09-12T06:48:32Z</time>
      </trkpt>
      <trkpt lat="46.5083" lon="0.38403">
        <ele>121</ele>
        <time>2021-09-12T06:48:35Z</time>
      </trkpt>
      <trkpt lat="46.50838" lon="0.38404">
        <ele>120.8</ele>
        <time>2021-09-12T06:48:38Z</time>
      </trkpt>
      <trkpt lat="46.5084" lon="0.38403">
        <ele>120.8</ele>
        <time>2021-09-12T06:48:40Z</time>
      </trkpt>
      <trkpt lat="46.50852" lon="0.38397">
        <ele>120.8</ele>
        <time>2021-09-12T06:48:45Z</time>
      </trkpt>
      <trkpt lat="46.50866" lon="0.38391">
        <ele>120.8</ele>
        <time>2021-09-12T06:48:51Z</time>
      </trkpt>
      <trkpt lat="46.50872" lon="0.38389">
        <ele>120.8</ele>
        <time>2021-09-12T06:48:54Z</time>
      </trkpt>
      <trkpt lat="46.50879" lon="0.38388">
        <ele>120.8</ele>
        <time>2021-09-12T06:48:58Z</time>
      </trkpt>
      <trkpt lat="46.5089" lon="0.38382">
        <ele>120.8</ele>
        <time>2021-09-12T06:49:06Z</time>
      </trkpt>
      <trkpt lat="46.50894" lon="0.38378">
        <ele>121</ele>
        <time>2021-09-12T06:49:10Z</time>
      </trkpt>
      <trkpt lat="46.50896" lon="0.38376">
        <ele>121</ele>
        <time>2021-09-12T06:49:12Z</time>
      </trkpt>
      <trkpt lat="46.50897" lon="0.38375">
        <ele>121</ele>
        <time>2021-09-12T06:49:13Z</time>
      </trkpt>
      <trkpt lat="46.50899" lon="0.38374">
        <ele>121</ele>
        <time>2021-09-12T06:49:14Z</time>
      </trkpt>
      <trkpt lat="46.50904" lon="0.3837">
        <ele>120.8</ele>
        <time>2021-09-12T06:49:17Z</time>
      </trkpt>
      <trkpt lat="46.50913" lon="0.3836">
        <ele>120.4</ele>
        <time>2021-09-12T06:49:22Z</time>
      </trkpt>
      <trkpt lat="46.50919" lon="0.38353">
        <ele>119.8</ele>
        <time>2021-09-12T06:49:26Z</time>
      </trkpt>
      <trkpt lat="46.50922" lon="0.38349">
        <ele>119.6</ele>
        <time>2021-09-12T06:49:28Z</time>
      </trkpt>
      <trkpt lat="46.50932" lon="0.38338">
        <ele>118.6</ele>
        <time>2021-09-12T06:49:33Z</time>
      </trkpt>
      <trkpt lat="46.50943" lon="0.38324">
        <ele>117.8</ele>
        <time>2021-09-12T06:49:39Z</time>
      </trkpt>
      <trkpt lat="46.50943" lon="0.38321">
        <ele>118</ele>
        <time>2021-09-12T06:49:40Z</time>
      </trkpt>
      <trkpt lat="46.5095" lon="0.38305">
        <ele>118.6</ele>
        <time>2021-09-12T06:49:44Z</time>
      </trkpt>
      <trkpt lat="46.50962" lon="0.38278">
        <ele>118.4</ele>
        <time>2021-09-12T06:49:51Z</time>
      </trkpt>
      <trkpt lat="46.50973" lon="0.38258">
        <ele>119.4</ele>
        <time>2021-09-12T06:49:57Z</time>
      </trkpt>
      <trkpt lat="46.50987" lon="0.38234">
        <ele>119.6</ele>
        <time>2021-09-12T06:50:04Z</time>
      </trkpt>
      <trkpt lat="46.50989" lon="0.38231">
        <ele>119.6</ele>
        <time>2021-09-12T06:50:05Z</time>
      </trkpt>
      <trkpt lat="46.51" lon="0.38218">
        <ele>119.8</ele>
        <time>2021-09-12T06:50:09Z</time>
      </trkpt>
      <trkpt lat="46.51009" lon="0.38205">
        <ele>120.2</ele>
        <time>2021-09-12T06:50:14Z</time>
      </trkpt>
      <trkpt lat="46.5102" lon="0.38188">
        <ele>120</ele>
        <time>2021-09-12T06:50:19Z</time>
      </trkpt>
      <trkpt lat="46.51033" lon="0.38173">
        <ele>120</ele>
        <time>2021-09-12T06:50:24Z</time>
      </trkpt>
      <trkpt lat="46.51035" lon="0.3817">
        <ele>120</ele>
        <time>2021-09-12T06:50:25Z</time>
      </trkpt>
      <trkpt lat="46.5104" lon="0.3816">
        <ele>120.8</ele>
        <time>2021-09-12T06:50:28Z</time>
      </trkpt>
      <trkpt lat="46.51041" lon="0.38156">
        <ele>121</ele>
        <time>2021-09-12T06:50:29Z</time>
      </trkpt>
      <trkpt lat="46.51049" lon="0.38133">
        <ele>121.4</ele>
        <time>2021-09-12T06:50:35Z</time>
      </trkpt>
      <trkpt lat="46.51056" lon="0.38117">
        <ele>121.8</ele>
        <time>2021-09-12T06:50:41Z</time>
      </trkpt>
      <trkpt lat="46.51058" lon="0.38114">
        <ele>121.6</ele>
        <time>2021-09-12T06:50:43Z</time>
      </trkpt>
      <trkpt lat="46.51061" lon="0.38115">
        <ele>121</ele>
        <time>2021-09-12T06:50:46Z</time>
      </trkpt>
      <trkpt lat="46.51067" lon="0.38126">
        <ele>119.4</ele>
        <time>2021-09-12T06:50:51Z</time>
      </trkpt>
      <trkpt lat="46.51068" lon="0.38128">
        <ele>118.8</ele>
        <time>2021-09-12T06:50:52Z</time>
      </trkpt>
      <trkpt lat="46.5107" lon="0.38132">
        <ele>118</ele>
        <time>2021-09-12T06:50:54Z</time>
      </trkpt>
      <trkpt lat="46.51072" lon="0.38133">
        <ele>117.2</ele>
        <time>2021-09-12T06:50:56Z</time>
      </trkpt>
      <trkpt lat="46.51074" lon="0.38133">
        <ele>116.8</ele>
        <time>2021-09-12T06:50:57Z</time>
      </trkpt>
      <trkpt lat="46.51077" lon="0.38133">
        <ele>115.6</ele>
        <time>2021-09-12T06:51:00Z</time>
      </trkpt>
      <trkpt lat="46.51078" lon="0.38133">
        <ele>115</ele>
        <time>2021-09-12T06:51:01Z</time>
      </trkpt>
      <trkpt lat="46.51081" lon="0.38133">
        <ele>113.8</ele>
        <time>2021-09-12T06:51:02Z</time>
      </trkpt>
      <trkpt lat="46.51084" lon="0.38134">
        <ele>112.8</ele>
        <time>2021-09-12T06:51:05Z</time>
      </trkpt>
      <trkpt lat="46.51087" lon="0.38135">
        <ele>111.2</ele>
        <time>2021-09-12T06:51:07Z</time>
      </trkpt>
      <trkpt lat="46.51089" lon="0.38135">
        <ele>110.6</ele>
        <time>2021-09-12T06:51:08Z</time>
      </trkpt>
      <trkpt lat="46.51091" lon="0.38133">
        <ele>109.8</ele>
        <time>2021-09-12T06:51:09Z</time>
      </trkpt>
      <trkpt lat="46.51096" lon="0.38131">
        <ele>108.8</ele>
        <time>2021-09-12T06:51:10Z</time>
      </trkpt>
      <trkpt lat="46.51104" lon="0.38123">
        <ele>108.4</ele>
        <time>2021-09-12T06:51:14Z</time>
      </trkpt>
      <trkpt lat="46.51115" lon="0.38118">
        <ele>108.6</ele>
        <time>2021-09-12T06:51:19Z</time>
      </trkpt>
      <trkpt lat="46.51124" lon="0.38112">
        <ele>109</ele>
        <time>2021-09-12T06:51:25Z</time>
      </trkpt>
      <trkpt lat="46.51137" lon="0.38105">
        <ele>109.4</ele>
        <time>2021-09-12T06:51:32Z</time>
      </trkpt>
      <trkpt lat="46.51145" lon="0.381">
        <ele>109.4</ele>
        <time>2021-09-12T06:51:37Z</time>
      </trkpt>
      <trkpt lat="46.51151" lon="0.38096">
        <ele>109.8</ele>
        <time>2021-09-12T06:51:40Z</time>
      </trkpt>
      <trkpt lat="46.51155" lon="0.38094">
        <ele>110</ele>
        <time>2021-09-12T06:51:42Z</time>
      </trkpt>
      <trkpt lat="46.51157" lon="0.38093">
        <ele>110</ele>
        <time>2021-09-12T06:51:44Z</time>
      </trkpt>
      <trkpt lat="46.51173" lon="0.38086">
        <ele>109.4</ele>
        <time>2021-09-12T06:51:54Z</time>
      </trkpt>
      <trkpt lat="46.51179" lon="0.38085">
        <ele>108.8</ele>
        <time>2021-09-12T06:51:59Z</time>
      </trkpt>
      <trkpt lat="46.51182" lon="0.38086">
        <ele>107.6</ele>
        <time>2021-09-12T06:52:04Z</time>
      </trkpt>
      <trkpt lat="46.51183" lon="0.38086">
        <ele>107.4</ele>
        <time>2021-09-12T06:52:05Z</time>
      </trkpt>
      <trkpt lat="46.51191" lon="0.38084">
        <ele>106.2</ele>
        <time>2021-09-12T06:52:15Z</time>
      </trkpt>
      <trkpt lat="46.51193" lon="0.38083">
        <ele>105.8</ele>
        <time>2021-09-12T06:52:17Z</time>
      </trkpt>
      <trkpt lat="46.51193" lon="0.38084">
        <ele>105</ele>
        <time>2021-09-12T06:52:19Z</time>
      </trkpt>
      <trkpt lat="46.51195" lon="0.38083">
        <ele>104.2</ele>
        <time>2021-09-12T06:52:23Z</time>
      </trkpt>
      <trkpt lat="46.51196" lon="0.38083">
        <ele>104</ele>
        <time>2021-09-12T06:52:29Z</time>
      </trkpt>
      <trkpt lat="46.51197" lon="0.38084">
        <ele>104</ele>
        <time>2021-09-12T06:52:31Z</time>
      </trkpt>
      <trkpt lat="46.51199" lon="0.38086">
        <ele>103.6</ele>
        <time>2021-09-12T06:52:33Z</time>
      </trkpt>
      <trkpt lat="46.512" lon="0.38086">
        <ele>102.8</ele>
        <time>2021-09-12T06:52:34Z</time>
      </trkpt>
      <trkpt lat="46.51202" lon="0.38085">
        <ele>101.8</ele>
        <time>2021-09-12T06:52:36Z</time>
      </trkpt>
      <trkpt lat="46.51203" lon="0.38085">
        <ele>101.6</ele>
        <time>2021-09-12T06:52:37Z</time>
      </trkpt>
      <trkpt lat="46.51204" lon="0.38084">
        <ele>101.4</ele>
        <time>2021-09-12T06:52:38Z</time>
      </trkpt>
      <trkpt lat="46.51207" lon="0.38081">
        <ele>101.4</ele>
        <time>2021-09-12T06:52:40Z</time>
      </trkpt>
      <trkpt lat="46.51216" lon="0.38078">
        <ele>101.4</ele>
        <time>2021-09-12T06:52:45Z</time>
      </trkpt>
      <trkpt lat="46.51218" lon="0.38077">
        <ele>101.4</ele>
        <time>2021-09-12T06:52:46Z</time>
      </trkpt>
      <trkpt lat="46.51232" lon="0.38074">
        <ele>101.2</ele>
        <time>2021-09-12T06:52:56Z</time>
      </trkpt>
      <trkpt lat="46.51237" lon="0.38071">
        <ele>100.8</ele>
        <time>2021-09-12T06:53:01Z</time>
      </trkpt>
      <trkpt lat="46.51241" lon="0.38067">
        <ele>99.6</ele>
        <time>2021-09-12T06:53:06Z</time>
      </trkpt>
      <trkpt lat="46.51242" lon="0.38066">
        <ele>99</ele>
        <time>2021-09-12T06:53:07Z</time>
      </trkpt>
      <trkpt lat="46.51243" lon="0.38065">
        <ele>98.6</ele>
        <time>2021-09-12T06:53:08Z</time>
      </trkpt>
      <trkpt lat="46.51248" lon="0.38063">
        <ele>97.8</ele>
        <time>2021-09-12T06:53:13Z</time>
      </trkpt>
      <trkpt lat="46.51254" lon="0.38064">
        <ele>97.8</ele>
        <time>2021-09-12T06:53:16Z</time>
      </trkpt>
      <trkpt lat="46.51256" lon="0.38066">
        <ele>97.6</ele>
        <time>2021-09-12T06:53:18Z</time>
      </trkpt>
      <trkpt lat="46.51265" lon="0.3807">
        <ele>97.2</ele>
        <time>2021-09-12T06:53:26Z</time>
      </trkpt>
      <trkpt lat="46.5127" lon="0.38072">
        <ele>96.8</ele>
        <time>2021-09-12T06:53:38Z</time>
      </trkpt>
      <trkpt lat="46.5127" lon="0.38072">
        <ele>97</ele>
        <time>2021-09-12T06:53:53Z</time>
      </trkpt>
      <trkpt lat="46.51271" lon="0.38073">
        <ele>96.8</ele>
        <time>2021-09-12T06:54:12Z</time>
      </trkpt>
      <trkpt lat="46.5128" lon="0.38082">
        <ele>97</ele>
        <time>2021-09-12T06:54:21Z</time>
      </trkpt>
      <trkpt lat="46.51295" lon="0.3809">
        <ele>96.8</ele>
        <time>2021-09-12T06:54:27Z</time>
      </trkpt>
      <trkpt lat="46.51321" lon="0.38091">
        <ele>97.2</ele>
        <time>2021-09-12T06:54:34Z</time>
      </trkpt>
      <trkpt lat="46.51339" lon="0.38093">
        <ele>97.4</ele>
        <time>2021-09-12T06:54:38Z</time>
      </trkpt>
      <trkpt lat="46.51346" lon="0.38095">
        <ele>97.4</ele>
        <time>2021-09-12T06:54:40Z</time>
      </trkpt>
      <trkpt lat="46.51361" lon="0.38104">
        <ele>97</ele>
        <time>2021-09-12T06:54:46Z</time>
      </trkpt>
      <trkpt lat="46.51368" lon="0.38115">
        <ele>96.8</ele>
        <time>2021-09-12T06:54:48Z</time>
      </trkpt>
      <trkpt lat="46.51371" lon="0.38119">
        <ele>96.6</ele>
        <time>2021-09-12T06:54:49Z</time>
      </trkpt>
      <trkpt lat="46.51374" lon="0.38124">
        <ele>96.6</ele>
        <time>2021-09-12T06:54:50Z</time>
      </trkpt>
      <trkpt lat="46.51383" lon="0.38137">
        <ele>95.8</ele>
        <time>2021-09-12T06:54:53Z</time>
      </trkpt>
      <trkpt lat="46.51391" lon="0.3814">
        <ele>96.2</ele>
        <time>2021-09-12T06:54:56Z</time>
      </trkpt>
      <trkpt lat="46.51397" lon="0.38143">
        <ele>96.2</ele>
        <time>2021-09-12T06:54:58Z</time>
      </trkpt>
      <trkpt lat="46.51399" lon="0.38146">
        <ele>96.2</ele>
        <time>2021-09-12T06:54:59Z</time>
      </trkpt>
      <trkpt lat="46.51403" lon="0.38152">
        <ele>96.2</ele>
        <time>2021-09-12T06:55:01Z</time>
      </trkpt>
      <trkpt lat="46.51409" lon="0.38156">
        <ele>96.2</ele>
        <time>2021-09-12T06:55:03Z</time>
      </trkpt>
      <trkpt lat="46.51415" lon="0.38157">
        <ele>96.2</ele>
        <time>2021-09-12T06:55:05Z</time>
      </trkpt>
      <trkpt lat="46.51421" lon="0.38157">
        <ele>96.2</ele>
        <time>2021-09-12T06:55:07Z</time>
      </trkpt>
      <trkpt lat="46.51425" lon="0.38158">
        <ele>96.2</ele>
        <time>2021-09-12T06:55:08Z</time>
      </trkpt>
      <trkpt lat="46.51429" lon="0.38158">
        <ele>96.2</ele>
        <time>2021-09-12T06:55:09Z</time>
      </trkpt>
      <trkpt lat="46.51437" lon="0.38158">
        <ele>96.2</ele>
        <time>2021-09-12T06:55:11Z</time>
      </trkpt>
      <trkpt lat="46.51445" lon="0.38157">
        <ele>96.4</ele>
        <time>2021-09-12T06:55:13Z</time>
      </trkpt>
      <trkpt lat="46.51454" lon="0.38153">
        <ele>96.6</ele>
        <time>2021-09-12T06:55:16Z</time>
      </trkpt>
      <trkpt lat="46.51461" lon="0.38155">
        <ele>96.6</ele>
        <time>2021-09-12T06:55:18Z</time>
      </trkpt>
      <trkpt lat="46.51479" lon="0.38168">
        <ele>96.8</ele>
        <time>2021-09-12T06:55:24Z</time>
      </trkpt>
      <trkpt lat="46.51484" lon="0.38171">
        <ele>96.8</ele>
        <time>2021-09-12T06:55:26Z</time>
      </trkpt>
      <trkpt lat="46.51489" lon="0.38173">
        <ele>96.6</ele>
        <time>2021-09-12T06:55:28Z</time>
      </trkpt>
      <trkpt lat="46.51501" lon="0.38181">
        <ele>96.8</ele>
        <time>2021-09-12T06:55:33Z</time>
      </trkpt>
      <trkpt lat="46.51508" lon="0.38183">
        <ele>96.8</ele>
        <time>2021-09-12T06:55:35Z</time>
      </trkpt>
      <trkpt lat="46.51514" lon="0.38186">
        <ele>97</ele>
        <time>2021-09-12T06:55:37Z</time>
      </trkpt>
      <trkpt lat="46.51518" lon="0.3819">
        <ele>97</ele>
        <time>2021-09-12T06:55:38Z</time>
      </trkpt>
      <trkpt lat="46.51527" lon="0.38195">
        <ele>97</ele>
        <time>2021-09-12T06:55:41Z</time>
      </trkpt>
      <trkpt lat="46.51534" lon="0.38201">
        <ele>97</ele>
        <time>2021-09-12T06:55:43Z</time>
      </trkpt>
      <trkpt lat="46.51537" lon="0.38202">
        <ele>97</ele>
        <time>2021-09-12T06:55:44Z</time>
      </trkpt>
      <trkpt lat="46.51542" lon="0.38204">
        <ele>96.8</ele>
        <time>2021-09-12T06:55:46Z</time>
      </trkpt>
      <trkpt lat="46.51549" lon="0.38207">
        <ele>97</ele>
        <time>2021-09-12T06:55:48Z</time>
      </trkpt>
      <trkpt lat="46.51551" lon="0.38208">
        <ele>97</ele>
        <time>2021-09-12T06:55:49Z</time>
      </trkpt>
      <trkpt lat="46.51564" lon="0.38216">
        <ele>97</ele>
        <time>2021-09-12T06:55:53Z</time>
      </trkpt>
      <trkpt lat="46.51566" lon="0.38217">
        <ele>97.2</ele>
        <time>2021-09-12T06:55:54Z</time>
      </trkpt>
      <trkpt lat="46.51576" lon="0.38223">
        <ele>96.2</ele>
        <time>2021-09-12T06:55:58Z</time>
      </trkpt>
      <trkpt lat="46.51579" lon="0.38224">
        <ele>96.2</ele>
        <time>2021-09-12T06:55:59Z</time>
      </trkpt>
      <trkpt lat="46.51582" lon="0.38225">
        <ele>96.2</ele>
        <time>2021-09-12T06:56:00Z</time>
      </trkpt>
      <trkpt lat="46.51592" lon="0.38226">
        <ele>96.2</ele>
        <time>2021-09-12T06:56:03Z</time>
      </trkpt>
      <trkpt lat="46.51606" lon="0.38229">
        <ele>96.6</ele>
        <time>2021-09-12T06:56:08Z</time>
      </trkpt>
      <trkpt lat="46.51619" lon="0.38238">
        <ele>96.4</ele>
        <time>2021-09-12T06:56:12Z</time>
      </trkpt>
      <trkpt lat="46.51633" lon="0.38243">
        <ele>96</ele>
        <time>2021-09-12T06:56:14Z</time>
      </trkpt>
      <trkpt lat="46.51647" lon="0.38249">
        <ele>96</ele>
        <time>2021-09-12T06:56:16Z</time>
      </trkpt>
      <trkpt lat="46.51673" lon="0.38265">
        <ele>96.2</ele>
        <time>2021-09-12T06:56:22Z</time>
      </trkpt>
      <trkpt lat="46.51678" lon="0.38269">
        <ele>96.4</ele>
        <time>2021-09-12T06:56:24Z</time>
      </trkpt>
      <trkpt lat="46.51686" lon="0.38276">
        <ele>96.6</ele>
        <time>2021-09-12T06:56:27Z</time>
      </trkpt>
      <trkpt lat="46.51694" lon="0.38293">
        <ele>97</ele>
        <time>2021-09-12T06:56:32Z</time>
      </trkpt>
      <trkpt lat="46.51702" lon="0.38306">
        <ele>97.4</ele>
        <time>2021-09-12T06:56:37Z</time>
      </trkpt>
      <trkpt lat="46.51702" lon="0.38308">
        <ele>98</ele>
        <time>2021-09-12T06:56:38Z</time>
      </trkpt>
      <trkpt lat="46.51705" lon="0.38313">
        <ele>99</ele>
        <time>2021-09-12T06:56:40Z</time>
      </trkpt>
      <trkpt lat="46.51709" lon="0.38315">
        <ele>99.4</ele>
        <time>2021-09-12T06:56:42Z</time>
      </trkpt>
      <trkpt lat="46.51718" lon="0.38318">
        <ele>100</ele>
        <time>2021-09-12T06:56:44Z</time>
      </trkpt>
      <trkpt lat="46.5172" lon="0.3832">
        <ele>100.4</ele>
        <time>2021-09-12T06:56:45Z</time>
      </trkpt>
      <trkpt lat="46.51732" lon="0.38331">
        <ele>101.2</ele>
        <time>2021-09-12T06:56:50Z</time>
      </trkpt>
      <trkpt lat="46.51734" lon="0.38333">
        <ele>101.6</ele>
        <time>2021-09-12T06:56:51Z</time>
      </trkpt>
      <trkpt lat="46.51743" lon="0.38339">
        <ele>102.4</ele>
        <time>2021-09-12T06:56:56Z</time>
      </trkpt>
      <trkpt lat="46.51746" lon="0.38339">
        <ele>102.6</ele>
        <time>2021-09-12T06:56:57Z</time>
      </trkpt>
      <trkpt lat="46.51763" lon="0.38348">
        <ele>103.8</ele>
        <time>2021-09-12T06:57:02Z</time>
      </trkpt>
      <trkpt lat="46.51768" lon="0.3835">
        <ele>104.2</ele>
        <time>2021-09-12T06:57:04Z</time>
      </trkpt>
      <trkpt lat="46.51773" lon="0.38352">
        <ele>104.8</ele>
        <time>2021-09-12T06:57:06Z</time>
      </trkpt>
      <trkpt lat="46.51782" lon="0.38357">
        <ele>105.6</ele>
        <time>2021-09-12T06:57:11Z</time>
      </trkpt>
      <trkpt lat="46.51784" lon="0.38358">
        <ele>105.6</ele>
        <time>2021-09-12T06:57:12Z</time>
      </trkpt>
      <trkpt lat="46.51786" lon="0.38359">
        <ele>105.8</ele>
        <time>2021-09-12T06:57:13Z</time>
      </trkpt>
      <trkpt lat="46.51791" lon="0.38365">
        <ele>106.8</ele>
        <time>2021-09-12T06:57:17Z</time>
      </trkpt>
      <trkpt lat="46.51793" lon="0.38366">
        <ele>107</ele>
        <time>2021-09-12T06:57:18Z</time>
      </trkpt>
      <trkpt lat="46.51809" lon="0.38371">
        <ele>108</ele>
        <time>2021-09-12T06:57:24Z</time>
      </trkpt>
      <trkpt lat="46.51811" lon="0.38372">
        <ele>108.2</ele>
        <time>2021-09-12T06:57:25Z</time>
      </trkpt>
      <trkpt lat="46.51818" lon="0.38382">
        <ele>108.8</ele>
        <time>2021-09-12T06:57:30Z</time>
      </trkpt>
      <trkpt lat="46.51824" lon="0.38386">
        <ele>109.2</ele>
        <time>2021-09-12T06:57:32Z</time>
      </trkpt>
      <trkpt lat="46.51834" lon="0.38395">
        <ele>110.4</ele>
        <time>2021-09-12T06:57:36Z</time>
      </trkpt>
      <trkpt lat="46.51836" lon="0.38398">
        <ele>110.4</ele>
        <time>2021-09-12T06:57:37Z</time>
      </trkpt>
      <trkpt lat="46.51844" lon="0.3841">
        <ele>111.4</ele>
        <time>2021-09-12T06:57:42Z</time>
      </trkpt>
      <trkpt lat="46.51847" lon="0.38414">
        <ele>112</ele>
        <time>2021-09-12T06:57:44Z</time>
      </trkpt>
      <trkpt lat="46.51851" lon="0.38421">
        <ele>112.4</ele>
        <time>2021-09-12T06:57:47Z</time>
      </trkpt>
      <trkpt lat="46.51857" lon="0.38432">
        <ele>112.8</ele>
        <time>2021-09-12T06:57:51Z</time>
      </trkpt>
      <trkpt lat="46.51863" lon="0.38448">
        <ele>113.6</ele>
        <time>2021-09-12T06:57:56Z</time>
      </trkpt>
      <trkpt lat="46.51863" lon="0.38452">
        <ele>113.6</ele>
        <time>2021-09-12T06:57:57Z</time>
      </trkpt>
      <trkpt lat="46.51869" lon="0.3847">
        <ele>114.6</ele>
        <time>2021-09-12T06:58:02Z</time>
      </trkpt>
      <trkpt lat="46.51874" lon="0.38486">
        <ele>114.8</ele>
        <time>2021-09-12T06:58:06Z</time>
      </trkpt>
      <trkpt lat="46.5188" lon="0.38502">
        <ele>115.8</ele>
        <time>2021-09-12T06:58:10Z</time>
      </trkpt>
      <trkpt lat="46.51886" lon="0.38517">
        <ele>116.4</ele>
        <time>2021-09-12T06:58:14Z</time>
      </trkpt>
      <trkpt lat="46.51889" lon="0.38522">
        <ele>116.8</ele>
        <time>2021-09-12T06:58:16Z</time>
      </trkpt>
      <trkpt lat="46.51898" lon="0.38543">
        <ele>117.8</ele>
        <time>2021-09-12T06:58:22Z</time>
      </trkpt>
      <trkpt lat="46.51899" lon="0.38547">
        <ele>118</ele>
        <time>2021-09-12T06:58:23Z</time>
      </trkpt>
      <trkpt lat="46.51905" lon="0.38564">
        <ele>119.2</ele>
        <time>2021-09-12T06:58:28Z</time>
      </trkpt>
      <trkpt lat="46.51909" lon="0.38574">
        <ele>119.8</ele>
        <time>2021-09-12T06:58:31Z</time>
      </trkpt>
      <trkpt lat="46.51911" lon="0.3858">
        <ele>120.4</ele>
        <time>2021-09-12T06:58:33Z</time>
      </trkpt>
      <trkpt lat="46.51916" lon="0.38595">
        <ele>121.4</ele>
        <time>2021-09-12T06:58:38Z</time>
      </trkpt>
      <trkpt lat="46.51918" lon="0.386">
        <ele>121.6</ele>
        <time>2021-09-12T06:58:40Z</time>
      </trkpt>
      <trkpt lat="46.51922" lon="0.38607">
        <ele>122.8</ele>
        <time>2021-09-12T06:58:43Z</time>
      </trkpt>
      <trkpt lat="46.5193" lon="0.38622">
        <ele>123.4</ele>
        <time>2021-09-12T06:58:48Z</time>
      </trkpt>
      <trkpt lat="46.51933" lon="0.38632">
        <ele>123.8</ele>
        <time>2021-09-12T06:58:51Z</time>
      </trkpt>
      <trkpt lat="46.51938" lon="0.38642">
        <ele>124.2</ele>
        <time>2021-09-12T06:58:55Z</time>
      </trkpt>
      <trkpt lat="46.51939" lon="0.38648">
        <ele>124.4</ele>
        <time>2021-09-12T06:58:58Z</time>
      </trkpt>
      <trkpt lat="46.51938" lon="0.38653">
        <ele>124.4</ele>
        <time>2021-09-12T06:59:00Z</time>
      </trkpt>
      <trkpt lat="46.51937" lon="0.38655">
        <ele>124.4</ele>
        <time>2021-09-12T06:59:04Z</time>
      </trkpt>
      <trkpt lat="46.51937" lon="0.38655">
        <ele>124.2</ele>
        <time>2021-09-12T06:59:10Z</time>
      </trkpt>
      <trkpt lat="46.51937" lon="0.38655">
        <ele>124.4</ele>
        <time>2021-09-12T06:59:31Z</time>
      </trkpt>
      <trkpt lat="46.51937" lon="0.38655">
        <ele>124.2</ele>
        <time>2021-09-12T07:00:01Z</time>
      </trkpt>
      <trkpt lat="46.51934" lon="0.38659">
        <ele>124.4</ele>
        <time>2021-09-12T07:00:26Z</time>
      </trkpt>
      <trkpt lat="46.51927" lon="0.38669">
        <ele>124.4</ele>
        <time>2021-09-12T07:00:31Z</time>
      </trkpt>
      <trkpt lat="46.51912" lon="0.38689">
        <ele>124</ele>
        <time>2021-09-12T07:00:39Z</time>
      </trkpt>
      <trkpt lat="46.519" lon="0.38704">
        <ele>124.2</ele>
        <time>2021-09-12T07:00:45Z</time>
      </trkpt>
      <trkpt lat="46.51889" lon="0.38721">
        <ele>124.6</ele>
        <time>2021-09-12T07:00:51Z</time>
      </trkpt>
      <trkpt lat="46.51886" lon="0.38728">
        <ele>124.8</ele>
        <time>2021-09-12T07:00:53Z</time>
      </trkpt>
      <trkpt lat="46.51877" lon="0.38745">
        <ele>124.8</ele>
        <time>2021-09-12T07:00:58Z</time>
      </trkpt>
      <trkpt lat="46.51865" lon="0.38773">
        <ele>124.8</ele>
        <time>2021-09-12T07:01:05Z</time>
      </trkpt>
      <trkpt lat="46.51856" lon="0.38805">
        <ele>125</ele>
        <time>2021-09-12T07:01:11Z</time>
      </trkpt>
      <trkpt lat="46.51855" lon="0.38811">
        <ele>124.6</ele>
        <time>2021-09-12T07:01:12Z</time>
      </trkpt>
      <trkpt lat="46.51847" lon="0.38842">
        <ele>123.8</ele>
        <time>2021-09-12T07:01:17Z</time>
      </trkpt>
      <trkpt lat="46.51842" lon="0.38863">
        <ele>123.6</ele>
        <time>2021-09-12T07:01:20Z</time>
      </trkpt>
      <trkpt lat="46.51833" lon="0.38899">
        <ele>122.2</ele>
        <time>2021-09-12T07:01:25Z</time>
      </trkpt>
      <trkpt lat="46.51828" lon="0.38915">
        <ele>121.8</ele>
        <time>2021-09-12T07:01:27Z</time>
      </trkpt>
      <trkpt lat="46.51824" lon="0.3893">
        <ele>121.2</ele>
        <time>2021-09-12T07:01:29Z</time>
      </trkpt>
      <trkpt lat="46.51811" lon="0.38963">
        <ele>120.2</ele>
        <time>2021-09-12T07:01:34Z</time>
      </trkpt>
      <trkpt lat="46.51799" lon="0.38988">
        <ele>119</ele>
        <time>2021-09-12T07:01:38Z</time>
      </trkpt>
      <trkpt lat="46.51791" lon="0.39002">
        <ele>118.4</ele>
        <time>2021-09-12T07:01:40Z</time>
      </trkpt>
      <trkpt lat="46.51783" lon="0.39017">
        <ele>118</ele>
        <time>2021-09-12T07:01:42Z</time>
      </trkpt>
      <trkpt lat="46.51759" lon="0.39058">
        <ele>117.4</ele>
        <time>2021-09-12T07:01:48Z</time>
      </trkpt>
      <trkpt lat="46.51726" lon="0.39109">
        <ele>117.2</ele>
        <time>2021-09-12T07:01:57Z</time>
      </trkpt>
      <trkpt lat="46.51722" lon="0.39116">
        <ele>117</ele>
        <time>2021-09-12T07:01:58Z</time>
      </trkpt>
      <trkpt lat="46.51704" lon="0.39153">
        <ele>115.8</ele>
        <time>2021-09-12T07:02:03Z</time>
      </trkpt>
      <trkpt lat="46.51688" lon="0.39185">
        <ele>114.8</ele>
        <time>2021-09-12T07:02:07Z</time>
      </trkpt>
      <trkpt lat="46.51679" lon="0.39203">
        <ele>114.4</ele>
        <time>2021-09-12T07:02:09Z</time>
      </trkpt>
      <trkpt lat="46.51668" lon="0.39224">
        <ele>113.2</ele>
        <time>2021-09-12T07:02:11Z</time>
      </trkpt>
      <trkpt lat="46.51658" lon="0.39245">
        <ele>111</ele>
        <time>2021-09-12T07:02:13Z</time>
      </trkpt>
      <trkpt lat="46.51653" lon="0.39256">
        <ele>110.2</ele>
        <time>2021-09-12T07:02:14Z</time>
      </trkpt>
      <trkpt lat="46.51648" lon="0.39266">
        <ele>109.4</ele>
        <time>2021-09-12T07:02:15Z</time>
      </trkpt>
      <trkpt lat="46.51641" lon="0.39283">
        <ele>107.4</ele>
        <time>2021-09-12T07:02:17Z</time>
      </trkpt>
      <trkpt lat="46.51638" lon="0.3929">
        <ele>106.4</ele>
        <time>2021-09-12T07:02:18Z</time>
      </trkpt>
      <trkpt lat="46.51635" lon="0.39294">
        <ele>105.2</ele>
        <time>2021-09-12T07:02:19Z</time>
      </trkpt>
      <trkpt lat="46.51632" lon="0.39296">
        <ele>104.6</ele>
        <time>2021-09-12T07:02:20Z</time>
      </trkpt>
      <trkpt lat="46.51628" lon="0.39294">
        <ele>103.8</ele>
        <time>2021-09-12T07:02:21Z</time>
      </trkpt>
      <trkpt lat="46.51625" lon="0.39291">
        <ele>103.2</ele>
        <time>2021-09-12T07:02:22Z</time>
      </trkpt>
      <trkpt lat="46.51617" lon="0.39284">
        <ele>102.6</ele>
        <time>2021-09-12T07:02:24Z</time>
      </trkpt>
      <trkpt lat="46.51612" lon="0.39282">
        <ele>102.2</ele>
        <time>2021-09-12T07:02:25Z</time>
      </trkpt>
      <trkpt lat="46.51608" lon="0.39281">
        <ele>102</ele>
        <time>2021-09-12T07:02:26Z</time>
      </trkpt>
      <trkpt lat="46.51595" lon="0.39293">
        <ele>101.8</ele>
        <time>2021-09-12T07:02:30Z</time>
      </trkpt>
      <trkpt lat="46.51586" lon="0.39304">
        <ele>102.4</ele>
        <time>2021-09-12T07:02:34Z</time>
      </trkpt>
      <trkpt lat="46.51584" lon="0.39312">
        <ele>103.2</ele>
        <time>2021-09-12T07:02:36Z</time>
      </trkpt>
      <trkpt lat="46.51584" lon="0.3932">
        <ele>103.8</ele>
        <time>2021-09-12T07:02:38Z</time>
      </trkpt>
      <trkpt lat="46.51587" lon="0.39327">
        <ele>104.4</ele>
        <time>2021-09-12T07:02:40Z</time>
      </trkpt>
      <trkpt lat="46.51589" lon="0.39333">
        <ele>105.2</ele>
        <time>2021-09-12T07:02:42Z</time>
      </trkpt>
      <trkpt lat="46.5159" lon="0.39337">
        <ele>106</ele>
        <time>2021-09-12T07:02:45Z</time>
      </trkpt>
      <trkpt lat="46.5159" lon="0.39337">
        <ele>106</ele>
        <time>2021-09-12T07:02:46Z</time>
      </trkpt>
      <trkpt lat="46.51589" lon="0.39344">
        <ele>106</ele>
        <time>2021-09-12T07:02:54Z</time>
      </trkpt>
      <trkpt lat="46.51587" lon="0.3935">
        <ele>106.4</ele>
        <time>2021-09-12T07:02:58Z</time>
      </trkpt>
      <trkpt lat="46.51587" lon="0.39353">
        <ele>106.6</ele>
        <time>2021-09-12T07:03:00Z</time>
      </trkpt>
      <trkpt lat="46.51586" lon="0.39361">
        <ele>106.6</ele>
        <time>2021-09-12T07:03:04Z</time>
      </trkpt>
      <trkpt lat="46.51585" lon="0.3937">
        <ele>107.8</ele>
        <time>2021-09-12T07:03:07Z</time>
      </trkpt>
      <trkpt lat="46.51583" lon="0.39381">
        <ele>108.4</ele>
        <time>2021-09-12T07:03:10Z</time>
      </trkpt>
      <trkpt lat="46.51579" lon="0.39397">
        <ele>108.8</ele>
        <time>2021-09-12T07:03:14Z</time>
      </trkpt>
      <trkpt lat="46.51575" lon="0.39412">
        <ele>109.8</ele>
        <time>2021-09-12T07:03:17Z</time>
      </trkpt>
      <trkpt lat="46.51574" lon="0.39417">
        <ele>110</ele>
        <time>2021-09-12T07:03:18Z</time>
      </trkpt>
      <trkpt lat="46.5157" lon="0.39444">
        <ele>111.4</ele>
        <time>2021-09-12T07:03:24Z</time>
      </trkpt>
      <trkpt lat="46.5157" lon="0.39448">
        <ele>111.8</ele>
        <time>2021-09-12T07:03:25Z</time>
      </trkpt>
      <trkpt lat="46.5157" lon="0.39464">
        <ele>112.6</ele>
        <time>2021-09-12T07:03:29Z</time>
      </trkpt>
      <trkpt lat="46.51569" lon="0.39477">
        <ele>113.2</ele>
        <time>2021-09-12T07:03:32Z</time>
      </trkpt>
      <trkpt lat="46.51568" lon="0.39497">
        <ele>113.6</ele>
        <time>2021-09-12T07:03:37Z</time>
      </trkpt>
      <trkpt lat="46.51568" lon="0.39517">
        <ele>114.2</ele>
        <time>2021-09-12T07:03:41Z</time>
      </trkpt>
      <trkpt lat="46.51568" lon="0.39537">
        <ele>114.6</ele>
        <time>2021-09-12T07:03:45Z</time>
      </trkpt>
      <trkpt lat="46.51567" lon="0.39546">
        <ele>114.6</ele>
        <time>2021-09-12T07:03:47Z</time>
      </trkpt>
      <trkpt lat="46.51567" lon="0.39572">
        <ele>115</ele>
        <time>2021-09-12T07:03:53Z</time>
      </trkpt>
      <trkpt lat="46.51567" lon="0.39577">
        <ele>115</ele>
        <time>2021-09-12T07:03:54Z</time>
      </trkpt>
      <trkpt lat="46.51566" lon="0.39612">
        <ele>114.8</ele>
        <time>2021-09-12T07:04:00Z</time>
      </trkpt>
      <trkpt lat="46.51561" lon="0.39648">
        <ele>113.6</ele>
        <time>2021-09-12T07:04:05Z</time>
      </trkpt>
      <trkpt lat="46.5156" lon="0.39657">
        <ele>113.6</ele>
        <time>2021-09-12T07:04:06Z</time>
      </trkpt>
      <trkpt lat="46.51554" lon="0.39707">
        <ele>114.2</ele>
        <time>2021-09-12T07:04:13Z</time>
      </trkpt>
      <trkpt lat="46.51553" lon="0.39718">
        <ele>114.6</ele>
        <time>2021-09-12T07:04:15Z</time>
      </trkpt>
      <trkpt lat="46.51549" lon="0.39747">
        <ele>115.4</ele>
        <time>2021-09-12T07:04:20Z</time>
      </trkpt>
      <trkpt lat="46.51545" lon="0.3977">
        <ele>115.8</ele>
        <time>2021-09-12T07:04:24Z</time>
      </trkpt>
      <trkpt lat="46.51543" lon="0.3978">
        <ele>116.2</ele>
        <time>2021-09-12T07:04:26Z</time>
      </trkpt>
      <trkpt lat="46.51539" lon="0.39796">
        <ele>116.8</ele>
        <time>2021-09-12T07:04:29Z</time>
      </trkpt>
      <trkpt lat="46.51532" lon="0.39821">
        <ele>117.8</ele>
        <time>2021-09-12T07:04:34Z</time>
      </trkpt>
      <trkpt lat="46.5153" lon="0.39831">
        <ele>118</ele>
        <time>2021-09-12T07:04:36Z</time>
      </trkpt>
      <trkpt lat="46.51522" lon="0.39856">
        <ele>118.6</ele>
        <time>2021-09-12T07:04:41Z</time>
      </trkpt>
      <trkpt lat="46.5152" lon="0.39866">
        <ele>119</ele>
        <time>2021-09-12T07:04:43Z</time>
      </trkpt>
      <trkpt lat="46.51512" lon="0.39902">
        <ele>120</ele>
        <time>2021-09-12T07:04:50Z</time>
      </trkpt>
      <trkpt lat="46.51512" lon="0.39907">
        <ele>120</ele>
        <time>2021-09-12T07:04:51Z</time>
      </trkpt>
      <trkpt lat="46.51511" lon="0.39931">
        <ele>120.6</ele>
        <time>2021-09-12T07:04:56Z</time>
      </trkpt>
      <trkpt lat="46.51512" lon="0.3995">
        <ele>121.2</ele>
        <time>2021-09-12T07:05:00Z</time>
      </trkpt>
      <trkpt lat="46.51515" lon="0.39964">
        <ele>121.8</ele>
        <time>2021-09-12T07:05:03Z</time>
      </trkpt>
      <trkpt lat="46.51518" lon="0.39983">
        <ele>122.2</ele>
        <time>2021-09-12T07:05:07Z</time>
      </trkpt>
      <trkpt lat="46.51522" lon="0.40002">
        <ele>122.6</ele>
        <time>2021-09-12T07:05:11Z</time>
      </trkpt>
      <trkpt lat="46.51523" lon="0.40033">
        <ele>122.8</ele>
        <time>2021-09-12T07:05:17Z</time>
      </trkpt>
      <trkpt lat="46.51522" lon="0.4005">
        <ele>123.2</ele>
        <time>2021-09-12T07:05:20Z</time>
      </trkpt>
      <trkpt lat="46.5152" lon="0.40071">
        <ele>123.8</ele>
        <time>2021-09-12T07:05:24Z</time>
      </trkpt>
      <trkpt lat="46.51514" lon="0.40103">
        <ele>124.4</ele>
        <time>2021-09-12T07:05:29Z</time>
      </trkpt>
      <trkpt lat="46.51513" lon="0.40109">
        <ele>124.4</ele>
        <time>2021-09-12T07:05:30Z</time>
      </trkpt>
      <trkpt lat="46.51505" lon="0.40157">
        <ele>124.8</ele>
        <time>2021-09-12T07:05:38Z</time>
      </trkpt>
      <trkpt lat="46.51498" lon="0.40198">
        <ele>125</ele>
        <time>2021-09-12T07:05:45Z</time>
      </trkpt>
      <trkpt lat="46.51494" lon="0.4022">
        <ele>125.4</ele>
        <time>2021-09-12T07:05:49Z</time>
      </trkpt>
      <trkpt lat="46.51493" lon="0.4023">
        <ele>125.4</ele>
        <time>2021-09-12T07:05:51Z</time>
      </trkpt>
      <trkpt lat="46.51485" lon="0.40264">
        <ele>125.4</ele>
        <time>2021-09-12T07:05:58Z</time>
      </trkpt>
      <trkpt lat="46.5148" lon="0.40286">
        <ele>125.8</ele>
        <time>2021-09-12T07:06:04Z</time>
      </trkpt>
      <trkpt lat="46.5148" lon="0.40286">
        <ele>125.8</ele>
        <time>2021-09-12T07:06:10Z</time>
      </trkpt>
      <trkpt lat="46.51478" lon="0.40285">
        <ele>125.8</ele>
        <time>2021-09-12T07:06:21Z</time>
      </trkpt>
      <trkpt lat="46.51476" lon="0.40283">
        <ele>125.8</ele>
        <time>2021-09-12T07:06:30Z</time>
      </trkpt>
      <trkpt lat="46.51477" lon="0.40281">
        <ele>125.8</ele>
        <time>2021-09-12T07:06:36Z</time>
      </trkpt>
      <trkpt lat="46.51476" lon="0.40283">
        <ele>125.8</ele>
        <time>2021-09-12T07:06:41Z</time>
      </trkpt>
      <trkpt lat="46.51474" lon="0.40286">
        <ele>125.8</ele>
        <time>2021-09-12T07:06:45Z</time>
      </trkpt>
      <trkpt lat="46.5148" lon="0.40289">
        <ele>125.6</ele>
        <time>2021-09-12T07:06:53Z</time>
      </trkpt>
      <trkpt lat="46.51481" lon="0.40288">
        <ele>125.6</ele>
        <time>2021-09-12T07:07:01Z</time>
      </trkpt>
      <trkpt lat="46.51481" lon="0.40289">
        <ele>125.8</ele>
        <time>2021-09-12T07:07:10Z</time>
      </trkpt>
      <trkpt lat="46.51481" lon="0.40289">
        <ele>125.8</ele>
        <time>2021-09-12T07:07:11Z</time>
      </trkpt>
      <trkpt lat="46.5148" lon="0.4029">
        <ele>125.8</ele>
        <time>2021-09-12T07:07:28Z</time>
      </trkpt>
      <trkpt lat="46.51479" lon="0.40292">
        <ele>125.8</ele>
        <time>2021-09-12T07:07:42Z</time>
      </trkpt>
      <trkpt lat="46.51479" lon="0.40293">
        <ele>125.8</ele>
        <time>2021-09-12T07:07:58Z</time>
      </trkpt>
      <trkpt lat="46.51479" lon="0.40293">
        <ele>125.8</ele>
        <time>2021-09-12T07:08:04Z</time>
      </trkpt>
      <trkpt lat="46.51479" lon="0.40293">
        <ele>125.8</ele>
        <time>2021-09-12T07:08:22Z</time>
      </trkpt>
      <trkpt lat="46.51479" lon="0.40293">
        <ele>125.8</ele>
        <time>2021-09-12T07:08:45Z</time>
      </trkpt>
      <trkpt lat="46.51479" lon="0.40293">
        <ele>125.8</ele>
        <time>2021-09-12T07:08:53Z</time>
      </trkpt>
      <trkpt lat="46.51479" lon="0.40293">
        <ele>125.8</ele>
        <time>2021-09-12T07:08:55Z</time>
      </trkpt>
      <trkpt lat="46.51479" lon="0.40292">
        <ele>125.8</ele>
        <time>2021-09-12T07:09:22Z</time>
      </trkpt>
      <trkpt lat="46.5148" lon="0.40291">
        <ele>125.8</ele>
        <time>2021-09-12T07:09:34Z</time>
      </trkpt>
      <trkpt lat="46.5148" lon="0.40291">
        <ele>125.8</ele>
        <time>2021-09-12T07:09:46Z</time>
      </trkpt>
      <trkpt lat="46.5148" lon="0.40291">
        <ele>125.8</ele>
        <time>2021-09-12T07:09:52Z</time>
      </trkpt>
      <trkpt lat="46.5148" lon="0.40291">
        <ele>125.8</ele>
        <time>2021-09-12T07:10:17Z</time>
      </trkpt>
      <trkpt lat="46.51479" lon="0.40291">
        <ele>125.8</ele>
        <time>2021-09-12T07:10:39Z</time>
      </trkpt>
      <trkpt lat="46.51478" lon="0.40295">
        <ele>125.8</ele>
        <time>2021-09-12T07:10:50Z</time>
      </trkpt>
      <trkpt lat="46.51474" lon="0.4031">
        <ele>125.8</ele>
        <time>2021-09-12T07:10:56Z</time>
      </trkpt>
      <trkpt lat="46.51471" lon="0.40333">
        <ele>125.8</ele>
        <time>2021-09-12T07:11:01Z</time>
      </trkpt>
      <trkpt lat="46.51471" lon="0.40338">
        <ele>126</ele>
        <time>2021-09-12T07:11:02Z</time>
      </trkpt>
      <trkpt lat="46.51471" lon="0.4037">
        <ele>125.6</ele>
        <time>2021-09-12T07:11:08Z</time>
      </trkpt>
      <trkpt lat="46.5147" lon="0.40411">
        <ele>125</ele>
        <time>2021-09-12T07:11:15Z</time>
      </trkpt>
      <trkpt lat="46.51467" lon="0.40457">
        <ele>124.2</ele>
        <time>2021-09-12T07:11:22Z</time>
      </trkpt>
      <trkpt lat="46.51466" lon="0.40469">
        <ele>124</ele>
        <time>2021-09-12T07:11:24Z</time>
      </trkpt>
      <trkpt lat="46.51465" lon="0.40489">
        <ele>123.2</ele>
        <time>2021-09-12T07:11:27Z</time>
      </trkpt>
      <trkpt lat="46.51464" lon="0.40497">
        <ele>123</ele>
        <time>2021-09-12T07:11:28Z</time>
      </trkpt>
      <trkpt lat="46.51459" lon="0.4054">
        <ele>122</ele>
        <time>2021-09-12T07:11:34Z</time>
      </trkpt>
      <trkpt lat="46.51458" lon="0.40546">
        <ele>121.8</ele>
        <time>2021-09-12T07:11:35Z</time>
      </trkpt>
      <trkpt lat="46.51458" lon="0.4055">
        <ele>121.6</ele>
        <time>2021-09-12T07:11:36Z</time>
      </trkpt>
      <trkpt lat="46.51456" lon="0.40558">
        <ele>121</ele>
        <time>2021-09-12T07:11:38Z</time>
      </trkpt>
      <trkpt lat="46.5145" lon="0.40565">
        <ele>120.2</ele>
        <time>2021-09-12T07:11:41Z</time>
      </trkpt>
      <trkpt lat="46.51449" lon="0.40569">
        <ele>120.2</ele>
        <time>2021-09-12T07:11:42Z</time>
      </trkpt>
      <trkpt lat="46.51446" lon="0.40577">
        <ele>120</ele>
        <time>2021-09-12T07:11:44Z</time>
      </trkpt>
      <trkpt lat="46.51443" lon="0.40585">
        <ele>119.8</ele>
        <time>2021-09-12T07:11:46Z</time>
      </trkpt>
      <trkpt lat="46.5144" lon="0.40588">
        <ele>119.4</ele>
        <time>2021-09-12T07:11:47Z</time>
      </trkpt>
      <trkpt lat="46.51428" lon="0.40593">
        <ele>118.6</ele>
        <time>2021-09-12T07:11:50Z</time>
      </trkpt>
      <trkpt lat="46.51423" lon="0.40595">
        <ele>118.2</ele>
        <time>2021-09-12T07:11:51Z</time>
      </trkpt>
      <trkpt lat="46.51419" lon="0.40597">
        <ele>117.4</ele>
        <time>2021-09-12T07:11:52Z</time>
      </trkpt>
      <trkpt lat="46.5141" lon="0.40601">
        <ele>115.6</ele>
        <time>2021-09-12T07:11:54Z</time>
      </trkpt>
      <trkpt lat="46.51405" lon="0.40602">
        <ele>114.4</ele>
        <time>2021-09-12T07:11:55Z</time>
      </trkpt>
      <trkpt lat="46.51398" lon="0.40607">
        <ele>113</ele>
        <time>2021-09-12T07:11:57Z</time>
      </trkpt>
      <trkpt lat="46.51394" lon="0.40618">
        <ele>111.8</ele>
        <time>2021-09-12T07:11:59Z</time>
      </trkpt>
      <trkpt lat="46.51388" lon="0.40626">
        <ele>110.6</ele>
        <time>2021-09-12T07:12:01Z</time>
      </trkpt>
      <trkpt lat="46.51378" lon="0.40638">
        <ele>110</ele>
        <time>2021-09-12T07:12:04Z</time>
      </trkpt>
      <trkpt lat="46.51375" lon="0.40644">
        <ele>110.2</ele>
        <time>2021-09-12T07:12:05Z</time>
      </trkpt>
      <trkpt lat="46.51374" lon="0.40649">
        <ele>110.2</ele>
        <time>2021-09-12T07:12:06Z</time>
      </trkpt>
      <trkpt lat="46.51375" lon="0.40656">
        <ele>110.4</ele>
        <time>2021-09-12T07:12:08Z</time>
      </trkpt>
      <trkpt lat="46.51375" lon="0.40667">
        <ele>110.2</ele>
        <time>2021-09-12T07:12:10Z</time>
      </trkpt>
      <trkpt lat="46.51374" lon="0.40679">
        <ele>110.2</ele>
        <time>2021-09-12T07:12:12Z</time>
      </trkpt>
      <trkpt lat="46.51375" lon="0.40688">
        <ele>110.2</ele>
        <time>2021-09-12T07:12:14Z</time>
      </trkpt>
      <trkpt lat="46.51376" lon="0.40691">
        <ele>110.2</ele>
        <time>2021-09-12T07:12:15Z</time>
      </trkpt>
      <trkpt lat="46.51377" lon="0.40695">
        <ele>110.2</ele>
        <time>2021-09-12T07:12:16Z</time>
      </trkpt>
      <trkpt lat="46.51378" lon="0.40702">
        <ele>110.4</ele>
        <time>2021-09-12T07:12:18Z</time>
      </trkpt>
      <trkpt lat="46.51373" lon="0.4072">
        <ele>110.8</ele>
        <time>2021-09-12T07:12:21Z</time>
      </trkpt>
      <trkpt lat="46.5137" lon="0.4073">
        <ele>111.6</ele>
        <time>2021-09-12T07:12:22Z</time>
      </trkpt>
      <trkpt lat="46.51368" lon="0.40745">
        <ele>112.6</ele>
        <time>2021-09-12T07:12:26Z</time>
      </trkpt>
      <trkpt lat="46.51367" lon="0.40758">
        <ele>113.6</ele>
        <time>2021-09-12T07:12:29Z</time>
      </trkpt>
      <trkpt lat="46.51367" lon="0.40763">
        <ele>114</ele>
        <time>2021-09-12T07:12:30Z</time>
      </trkpt>
      <trkpt lat="46.51367" lon="0.4078">
        <ele>115.4</ele>
        <time>2021-09-12T07:12:34Z</time>
      </trkpt>
      <trkpt lat="46.51368" lon="0.40785">
        <ele>115.8</ele>
        <time>2021-09-12T07:12:35Z</time>
      </trkpt>
      <trkpt lat="46.51368" lon="0.40794">
        <ele>116.4</ele>
        <time>2021-09-12T07:12:37Z</time>
      </trkpt>
      <trkpt lat="46.5137" lon="0.4081">
        <ele>117.2</ele>
        <time>2021-09-12T07:12:41Z</time>
      </trkpt>
      <trkpt lat="46.51371" lon="0.40816">
        <ele>117.6</ele>
        <time>2021-09-12T07:12:43Z</time>
      </trkpt>
      <trkpt lat="46.51372" lon="0.4083">
        <ele>118</ele>
        <time>2021-09-12T07:12:47Z</time>
      </trkpt>
      <trkpt lat="46.51372" lon="0.4084">
        <ele>118.6</ele>
        <time>2021-09-12T07:12:51Z</time>
      </trkpt>
      <trkpt lat="46.51373" lon="0.40846">
        <ele>119.2</ele>
        <time>2021-09-12T07:12:53Z</time>
      </trkpt>
      <trkpt lat="46.51373" lon="0.40868">
        <ele>119.8</ele>
        <time>2021-09-12T07:12:58Z</time>
      </trkpt>
      <trkpt lat="46.51373" lon="0.4089">
        <ele>121.2</ele>
        <time>2021-09-12T07:13:03Z</time>
      </trkpt>
      <trkpt lat="46.51372" lon="0.409">
        <ele>121.6</ele>
        <time>2021-09-12T07:13:05Z</time>
      </trkpt>
      <trkpt lat="46.51373" lon="0.40912">
        <ele>122.2</ele>
        <time>2021-09-12T07:13:08Z</time>
      </trkpt>
      <trkpt lat="46.51373" lon="0.40925">
        <ele>123</ele>
        <time>2021-09-12T07:13:11Z</time>
      </trkpt>
      <trkpt lat="46.51374" lon="0.40935">
        <ele>123.4</ele>
        <time>2021-09-12T07:13:14Z</time>
      </trkpt>
      <trkpt lat="46.51375" lon="0.40945">
        <ele>123.8</ele>
        <time>2021-09-12T07:13:17Z</time>
      </trkpt>
      <trkpt lat="46.51375" lon="0.40959">
        <ele>124.4</ele>
        <time>2021-09-12T07:13:21Z</time>
      </trkpt>
      <trkpt lat="46.51374" lon="0.40972">
        <ele>125</ele>
        <time>2021-09-12T07:13:25Z</time>
      </trkpt>
      <trkpt lat="46.51372" lon="0.40996">
        <ele>125.4</ele>
        <time>2021-09-12T07:13:31Z</time>
      </trkpt>
      <trkpt lat="46.51369" lon="0.41021">
        <ele>126</ele>
        <time>2021-09-12T07:13:37Z</time>
      </trkpt>
      <trkpt lat="46.51364" lon="0.4105">
        <ele>126.4</ele>
        <time>2021-09-12T07:13:43Z</time>
      </trkpt>
      <trkpt lat="46.51364" lon="0.41055">
        <ele>126.6</ele>
        <time>2021-09-12T07:13:44Z</time>
      </trkpt>
      <trkpt lat="46.5136" lon="0.41092">
        <ele>127.4</ele>
        <time>2021-09-12T07:13:51Z</time>
      </trkpt>
      <trkpt lat="46.51359" lon="0.41097">
        <ele>127.6</ele>
        <time>2021-09-12T07:13:52Z</time>
      </trkpt>
      <trkpt lat="46.51359" lon="0.41122">
        <ele>127.8</ele>
        <time>2021-09-12T07:13:57Z</time>
      </trkpt>
      <trkpt lat="46.51352" lon="0.41154">
        <ele>128.2</ele>
        <time>2021-09-12T07:14:02Z</time>
      </trkpt>
      <trkpt lat="46.51341" lon="0.41178">
        <ele>128.4</ele>
        <time>2021-09-12T07:14:07Z</time>
      </trkpt>
      <trkpt lat="46.51338" lon="0.41183">
        <ele>128.4</ele>
        <time>2021-09-12T07:14:09Z</time>
      </trkpt>
      <trkpt lat="46.51335" lon="0.41183">
        <ele>128.4</ele>
        <time>2021-09-12T07:14:11Z</time>
      </trkpt>
      <trkpt lat="46.51335" lon="0.41183">
        <ele>128.4</ele>
        <time>2021-09-12T07:14:13Z</time>
      </trkpt>
      <trkpt lat="46.51337" lon="0.41183">
        <ele>128.4</ele>
        <time>2021-09-12T07:14:15Z</time>
      </trkpt>
      <trkpt lat="46.51338" lon="0.41189">
        <ele>128.4</ele>
        <time>2021-09-12T07:14:18Z</time>
      </trkpt>
      <trkpt lat="46.51337" lon="0.41195">
        <ele>128.4</ele>
        <time>2021-09-12T07:14:20Z</time>
      </trkpt>
      <trkpt lat="46.51335" lon="0.412">
        <ele>128.4</ele>
        <time>2021-09-12T07:14:22Z</time>
      </trkpt>
      <trkpt lat="46.51333" lon="0.412">
        <ele>128.4</ele>
        <time>2021-09-12T07:14:24Z</time>
      </trkpt>
      <trkpt lat="46.51334" lon="0.41198">
        <ele>128.6</ele>
        <time>2021-09-12T07:14:26Z</time>
      </trkpt>
      <trkpt lat="46.51337" lon="0.41196">
        <ele>128.4</ele>
        <time>2021-09-12T07:14:29Z</time>
      </trkpt>
      <trkpt lat="46.51339" lon="0.41196">
        <ele>128.4</ele>
        <time>2021-09-12T07:14:30Z</time>
      </trkpt>
      <trkpt lat="46.51342" lon="0.41198">
        <ele>128.4</ele>
        <time>2021-09-12T07:14:33Z</time>
      </trkpt>
      <trkpt lat="46.51341" lon="0.412">
        <ele>128.2</ele>
        <time>2021-09-12T07:14:34Z</time>
      </trkpt>
      <trkpt lat="46.51339" lon="0.41203">
        <ele>128.2</ele>
        <time>2021-09-12T07:14:36Z</time>
      </trkpt>
      <trkpt lat="46.51334" lon="0.41207">
        <ele>128.4</ele>
        <time>2021-09-12T07:14:44Z</time>
      </trkpt>
      <trkpt lat="46.51335" lon="0.41207">
        <ele>128.4</ele>
        <time>2021-09-12T07:14:46Z</time>
      </trkpt>
      <trkpt lat="46.51335" lon="0.41202">
        <ele>128.4</ele>
        <time>2021-09-12T07:14:49Z</time>
      </trkpt>
      <trkpt lat="46.51333" lon="0.41204">
        <ele>128.4</ele>
        <time>2021-09-12T07:14:51Z</time>
      </trkpt>
      <trkpt lat="46.51332" lon="0.41207">
        <ele>128.4</ele>
        <time>2021-09-12T07:14:52Z</time>
      </trkpt>
      <trkpt lat="46.51328" lon="0.41216">
        <ele>128.4</ele>
        <time>2021-09-12T07:14:55Z</time>
      </trkpt>
      <trkpt lat="46.51323" lon="0.41219">
        <ele>128.6</ele>
        <time>2021-09-12T07:14:57Z</time>
      </trkpt>
      <trkpt lat="46.51313" lon="0.41217">
        <ele>128.4</ele>
        <time>2021-09-12T07:15:02Z</time>
      </trkpt>
      <trkpt lat="46.51305" lon="0.4122">
        <ele>128</ele>
        <time>2021-09-12T07:15:07Z</time>
      </trkpt>
      <trkpt lat="46.51297" lon="0.41223">
        <ele>127.8</ele>
        <time>2021-09-12T07:15:13Z</time>
      </trkpt>
      <trkpt lat="46.51284" lon="0.41223">
        <ele>127.4</ele>
        <time>2021-09-12T07:15:18Z</time>
      </trkpt>
      <trkpt lat="46.51272" lon="0.41224">
        <ele>127</ele>
        <time>2021-09-12T07:15:21Z</time>
      </trkpt>
      <trkpt lat="46.51266" lon="0.41227">
        <ele>126.4</ele>
        <time>2021-09-12T07:15:23Z</time>
      </trkpt>
      <trkpt lat="46.51259" lon="0.4123">
        <ele>125.2</ele>
        <time>2021-09-12T07:15:26Z</time>
      </trkpt>
      <trkpt lat="46.51257" lon="0.41231">
        <ele>124.8</ele>
        <time>2021-09-12T07:15:27Z</time>
      </trkpt>
      <trkpt lat="46.51251" lon="0.41231">
        <ele>123.4</ele>
        <time>2021-09-12T07:15:29Z</time>
      </trkpt>
      <trkpt lat="46.51247" lon="0.41233">
        <ele>122.4</ele>
        <time>2021-09-12T07:15:31Z</time>
      </trkpt>
      <trkpt lat="46.51245" lon="0.41235">
        <ele>121.4</ele>
        <time>2021-09-12T07:15:33Z</time>
      </trkpt>
      <trkpt lat="46.51243" lon="0.41237">
        <ele>121.2</ele>
        <time>2021-09-12T07:15:34Z</time>
      </trkpt>
      <trkpt lat="46.51234" lon="0.41242">
        <ele>119.6</ele>
        <time>2021-09-12T07:15:39Z</time>
      </trkpt>
      <trkpt lat="46.51233" lon="0.41243">
        <ele>118.8</ele>
        <time>2021-09-12T07:15:40Z</time>
      </trkpt>
      <trkpt lat="46.5123" lon="0.41244">
        <ele>118.2</ele>
        <time>2021-09-12T07:15:41Z</time>
      </trkpt>
      <trkpt lat="46.51226" lon="0.41247">
        <ele>117</ele>
        <time>2021-09-12T07:15:43Z</time>
      </trkpt>
      <trkpt lat="46.51221" lon="0.4125">
        <ele>115.2</ele>
        <time>2021-09-12T07:15:45Z</time>
      </trkpt>
      <trkpt lat="46.5122" lon="0.4125">
        <ele>114</ele>
        <time>2021-09-12T07:15:46Z</time>
      </trkpt>
      <trkpt lat="46.51215" lon="0.41248">
        <ele>112</ele>
        <time>2021-09-12T07:15:48Z</time>
      </trkpt>
      <trkpt lat="46.5121" lon="0.41249">
        <ele>110.6</ele>
        <time>2021-09-12T07:15:50Z</time>
      </trkpt>
      <trkpt lat="46.51207" lon="0.41249">
        <ele>108.6</ele>
        <time>2021-09-12T07:15:52Z</time>
      </trkpt>
      <trkpt lat="46.51205" lon="0.41246">
        <ele>107.4</ele>
        <time>2021-09-12T07:15:54Z</time>
      </trkpt>
      <trkpt lat="46.51203" lon="0.41242">
        <ele>107</ele>
        <time>2021-09-12T07:15:56Z</time>
      </trkpt>
      <trkpt lat="46.51201" lon="0.41238">
        <ele>107</ele>
        <time>2021-09-12T07:15:58Z</time>
      </trkpt>
      <trkpt lat="46.51199" lon="0.41235">
        <ele>106.8</ele>
        <time>2021-09-12T07:16:00Z</time>
      </trkpt>
      <trkpt lat="46.51194" lon="0.41228">
        <ele>106.8</ele>
        <time>2021-09-12T07:16:03Z</time>
      </trkpt>
      <trkpt lat="46.51188" lon="0.41208">
        <ele>107</ele>
        <time>2021-09-12T07:16:10Z</time>
      </trkpt>
      <trkpt lat="46.51187" lon="0.41206">
        <ele>107.2</ele>
        <time>2021-09-12T07:16:11Z</time>
      </trkpt>
      <trkpt lat="46.51186" lon="0.41202">
        <ele>107.4</ele>
        <time>2021-09-12T07:16:14Z</time>
      </trkpt>
      <trkpt lat="46.51183" lon="0.41197">
        <ele>108</ele>
        <time>2021-09-12T07:16:17Z</time>
      </trkpt>
      <trkpt lat="46.51183" lon="0.41193">
        <ele>108.2</ele>
        <time>2021-09-12T07:16:20Z</time>
      </trkpt>
      <trkpt lat="46.51183" lon="0.41192">
        <ele>108.4</ele>
        <time>2021-09-12T07:16:21Z</time>
      </trkpt>
      <trkpt lat="46.51182" lon="0.41191">
        <ele>108.6</ele>
        <time>2021-09-12T07:16:22Z</time>
      </trkpt>
      <trkpt lat="46.51181" lon="0.41188">
        <ele>109.4</ele>
        <time>2021-09-12T07:16:27Z</time>
      </trkpt>
      <trkpt lat="46.5118" lon="0.41185">
        <ele>110</ele>
        <time>2021-09-12T07:16:30Z</time>
      </trkpt>
      <trkpt lat="46.51181" lon="0.41181">
        <ele>110.6</ele>
        <time>2021-09-12T07:16:34Z</time>
      </trkpt>
      <trkpt lat="46.51183" lon="0.41178">
        <ele>111.8</ele>
        <time>2021-09-12T07:16:38Z</time>
      </trkpt>
      <trkpt lat="46.51184" lon="0.41176">
        <ele>112.8</ele>
        <time>2021-09-12T07:16:42Z</time>
      </trkpt>
      <trkpt lat="46.51185" lon="0.41175">
        <ele>113</ele>
        <time>2021-09-12T07:16:43Z</time>
      </trkpt>
      <trkpt lat="46.51185" lon="0.41174">
        <ele>113.8</ele>
        <time>2021-09-12T07:16:46Z</time>
      </trkpt>
      <trkpt lat="46.51187" lon="0.41169">
        <ele>114.8</ele>
        <time>2021-09-12T07:16:53Z</time>
      </trkpt>
      <trkpt lat="46.51187" lon="0.41168">
        <ele>115.4</ele>
        <time>2021-09-12T07:16:55Z</time>
      </trkpt>
      <trkpt lat="46.51186" lon="0.41166">
        <ele>116</ele>
        <time>2021-09-12T07:16:58Z</time>
      </trkpt>
      <trkpt lat="46.51185" lon="0.41166">
        <ele>116.2</ele>
        <time>2021-09-12T07:17:00Z</time>
      </trkpt>
      <trkpt lat="46.51185" lon="0.41164">
        <ele>116.8</ele>
        <time>2021-09-12T07:17:07Z</time>
      </trkpt>
      <trkpt lat="46.51183" lon="0.41156">
        <ele>117.2</ele>
        <time>2021-09-12T07:17:13Z</time>
      </trkpt>
      <trkpt lat="46.51184" lon="0.41155">
        <ele>117.4</ele>
        <time>2021-09-12T07:17:14Z</time>
      </trkpt>
      <trkpt lat="46.51184" lon="0.41146">
        <ele>118.6</ele>
        <time>2021-09-12T07:17:18Z</time>
      </trkpt>
      <trkpt lat="46.51185" lon="0.41134">
        <ele>119.6</ele>
        <time>2021-09-12T07:17:24Z</time>
      </trkpt>
      <trkpt lat="46.51185" lon="0.4113">
        <ele>119.8</ele>
        <time>2021-09-12T07:17:26Z</time>
      </trkpt>
      <trkpt lat="46.51187" lon="0.41116">
        <ele>120.8</ele>
        <time>2021-09-12T07:17:31Z</time>
      </trkpt>
      <trkpt lat="46.51188" lon="0.41107">
        <ele>121.8</ele>
        <time>2021-09-12T07:17:34Z</time>
      </trkpt>
      <trkpt lat="46.51188" lon="0.41105">
        <ele>122</ele>
        <time>2021-09-12T07:17:35Z</time>
      </trkpt>
      <trkpt lat="46.51189" lon="0.41093">
        <ele>123.2</ele>
        <time>2021-09-12T07:17:41Z</time>
      </trkpt>
      <trkpt lat="46.51194" lon="0.41077">
        <ele>123.8</ele>
        <time>2021-09-12T07:17:47Z</time>
      </trkpt>
      <trkpt lat="46.51198" lon="0.41067">
        <ele>124.2</ele>
        <time>2021-09-12T07:17:50Z</time>
      </trkpt>
      <trkpt lat="46.51201" lon="0.4106">
        <ele>124.6</ele>
        <time>2021-09-12T07:17:52Z</time>
      </trkpt>
      <trkpt lat="46.51209" lon="0.41041">
        <ele>125</ele>
        <time>2021-09-12T07:17:57Z</time>
      </trkpt>
      <trkpt lat="46.51215" lon="0.41018">
        <ele>125.2</ele>
        <time>2021-09-12T07:18:02Z</time>
      </trkpt>
      <trkpt lat="46.51217" lon="0.41014">
        <ele>125.4</ele>
        <time>2021-09-12T07:18:03Z</time>
      </trkpt>
      <trkpt lat="46.51229" lon="0.40986">
        <ele>125.4</ele>
        <time>2021-09-12T07:18:09Z</time>
      </trkpt>
      <trkpt lat="46.51235" lon="0.40971">
        <ele>125.4</ele>
        <time>2021-09-12T07:18:12Z</time>
      </trkpt>
      <trkpt lat="46.5124" lon="0.40962">
        <ele>125.2</ele>
        <time>2021-09-12T07:18:14Z</time>
      </trkpt>
      <trkpt lat="46.51242" lon="0.40957">
        <ele>125.2</ele>
        <time>2021-09-12T07:18:15Z</time>
      </trkpt>
      <trkpt lat="46.5125" lon="0.40934">
        <ele>125</ele>
        <time>2021-09-12T07:18:21Z</time>
      </trkpt>
      <trkpt lat="46.51249" lon="0.40926">
        <ele>124.8</ele>
        <time>2021-09-12T07:18:23Z</time>
      </trkpt>
      <trkpt lat="46.51246" lon="0.40918">
        <ele>124.8</ele>
        <time>2021-09-12T07:18:25Z</time>
      </trkpt>
      <trkpt lat="46.51238" lon="0.40902">
        <ele>124.8</ele>
        <time>2021-09-12T07:18:30Z</time>
      </trkpt>
      <trkpt lat="46.51237" lon="0.40898">
        <ele>124.8</ele>
        <time>2021-09-12T07:18:31Z</time>
      </trkpt>
      <trkpt lat="46.51237" lon="0.40894">
        <ele>124.8</ele>
        <time>2021-09-12T07:18:32Z</time>
      </trkpt>
      <trkpt lat="46.51234" lon="0.40888">
        <ele>124.8</ele>
        <time>2021-09-12T07:18:34Z</time>
      </trkpt>
      <trkpt lat="46.5123" lon="0.40883">
        <ele>124.8</ele>
        <time>2021-09-12T07:18:36Z</time>
      </trkpt>
      <trkpt lat="46.51224" lon="0.40877">
        <ele>124.8</ele>
        <time>2021-09-12T07:18:38Z</time>
      </trkpt>
      <trkpt lat="46.51212" lon="0.40861">
        <ele>124.6</ele>
        <time>2021-09-12T07:18:42Z</time>
      </trkpt>
      <trkpt lat="46.51204" lon="0.40855">
        <ele>124.6</ele>
        <time>2021-09-12T07:18:44Z</time>
      </trkpt>
      <trkpt lat="46.51196" lon="0.40849">
        <ele>124.6</ele>
        <time>2021-09-12T07:18:46Z</time>
      </trkpt>
      <trkpt lat="46.51193" lon="0.40846">
        <ele>124.6</ele>
        <time>2021-09-12T07:18:47Z</time>
      </trkpt>
      <trkpt lat="46.51183" lon="0.40835">
        <ele>124.6</ele>
        <time>2021-09-12T07:18:50Z</time>
      </trkpt>
      <trkpt lat="46.51175" lon="0.4083">
        <ele>124.6</ele>
        <time>2021-09-12T07:18:52Z</time>
      </trkpt>
      <trkpt lat="46.51168" lon="0.40816">
        <ele>124.6</ele>
        <time>2021-09-12T07:18:56Z</time>
      </trkpt>
      <trkpt lat="46.51167" lon="0.40807">
        <ele>124.2</ele>
        <time>2021-09-12T07:18:58Z</time>
      </trkpt>
      <trkpt lat="46.51169" lon="0.40803">
        <ele>124.2</ele>
        <time>2021-09-12T07:19:00Z</time>
      </trkpt>
      <trkpt lat="46.51171" lon="0.40801">
        <ele>124.2</ele>
        <time>2021-09-12T07:19:01Z</time>
      </trkpt>
      <trkpt lat="46.51177" lon="0.4079">
        <ele>124</ele>
        <time>2021-09-12T07:19:06Z</time>
      </trkpt>
      <trkpt lat="46.5118" lon="0.40774">
        <ele>123.4</ele>
        <time>2021-09-12T07:19:10Z</time>
      </trkpt>
      <trkpt lat="46.51182" lon="0.40769">
        <ele>123.4</ele>
        <time>2021-09-12T07:19:11Z</time>
      </trkpt>
      <trkpt lat="46.51184" lon="0.4076">
        <ele>123.2</ele>
        <time>2021-09-12T07:19:13Z</time>
      </trkpt>
      <trkpt lat="46.51188" lon="0.40747">
        <ele>122.6</ele>
        <time>2021-09-12T07:19:16Z</time>
      </trkpt>
      <trkpt lat="46.51198" lon="0.40725">
        <ele>122.2</ele>
        <time>2021-09-12T07:19:21Z</time>
      </trkpt>
      <trkpt lat="46.51201" lon="0.40711">
        <ele>122</ele>
        <time>2021-09-12T07:19:23Z</time>
      </trkpt>
      <trkpt lat="46.51202" lon="0.40707">
        <ele>121.8</ele>
        <time>2021-09-12T07:19:24Z</time>
      </trkpt>
      <trkpt lat="46.51201" lon="0.40701">
        <ele>121</ele>
        <time>2021-09-12T07:19:26Z</time>
      </trkpt>
      <trkpt lat="46.51199" lon="0.40698">
        <ele>120.6</ele>
        <time>2021-09-12T07:19:27Z</time>
      </trkpt>
      <trkpt lat="46.51198" lon="0.40694">
        <ele>120.2</ele>
        <time>2021-09-12T07:19:29Z</time>
      </trkpt>
      <trkpt lat="46.51197" lon="0.40688">
        <ele>120</ele>
        <time>2021-09-12T07:19:31Z</time>
      </trkpt>
      <trkpt lat="46.51196" lon="0.40682">
        <ele>120</ele>
        <time>2021-09-12T07:19:33Z</time>
      </trkpt>
      <trkpt lat="46.51193" lon="0.40682">
        <ele>120.2</ele>
        <time>2021-09-12T07:19:35Z</time>
      </trkpt>
      <trkpt lat="46.51189" lon="0.40681">
        <ele>120.2</ele>
        <time>2021-09-12T07:19:37Z</time>
      </trkpt>
      <trkpt lat="46.51187" lon="0.40678">
        <ele>120.2</ele>
        <time>2021-09-12T07:19:38Z</time>
      </trkpt>
      <trkpt lat="46.51186" lon="0.40675">
        <ele>120.2</ele>
        <time>2021-09-12T07:19:39Z</time>
      </trkpt>
      <trkpt lat="46.51184" lon="0.40672">
        <ele>120.2</ele>
        <time>2021-09-12T07:19:40Z</time>
      </trkpt>
      <trkpt lat="46.51181" lon="0.40669">
        <ele>120</ele>
        <time>2021-09-12T07:19:42Z</time>
      </trkpt>
      <trkpt lat="46.51179" lon="0.40669">
        <ele>119.8</ele>
        <time>2021-09-12T07:19:43Z</time>
      </trkpt>
      <trkpt lat="46.51177" lon="0.40666">
        <ele>119.6</ele>
        <time>2021-09-12T07:19:44Z</time>
      </trkpt>
      <trkpt lat="46.51171" lon="0.40655">
        <ele>119.6</ele>
        <time>2021-09-12T07:19:48Z</time>
      </trkpt>
      <trkpt lat="46.51164" lon="0.40646">
        <ele>119.4</ele>
        <time>2021-09-12T07:19:51Z</time>
      </trkpt>
      <trkpt lat="46.51163" lon="0.40642">
        <ele>119.2</ele>
        <time>2021-09-12T07:19:52Z</time>
      </trkpt>
      <trkpt lat="46.51163" lon="0.40638">
        <ele>119</ele>
        <time>2021-09-12T07:19:53Z</time>
      </trkpt>
      <trkpt lat="46.51163" lon="0.40635">
        <ele>118.8</ele>
        <time>2021-09-12T07:19:54Z</time>
      </trkpt>
      <trkpt lat="46.51164" lon="0.40622">
        <ele>118.6</ele>
        <time>2021-09-12T07:19:57Z</time>
      </trkpt>
      <trkpt lat="46.51165" lon="0.40617">
        <ele>118.4</ele>
        <time>2021-09-12T07:19:58Z</time>
      </trkpt>
      <trkpt lat="46.51166" lon="0.40613">
        <ele>118.2</ele>
        <time>2021-09-12T07:19:59Z</time>
      </trkpt>
      <trkpt lat="46.51168" lon="0.40602">
        <ele>117.6</ele>
        <time>2021-09-12T07:20:01Z</time>
      </trkpt>
      <trkpt lat="46.51168" lon="0.40597">
        <ele>117.2</ele>
        <time>2021-09-12T07:20:02Z</time>
      </trkpt>
      <trkpt lat="46.51169" lon="0.40592">
        <ele>116.8</ele>
        <time>2021-09-12T07:20:03Z</time>
      </trkpt>
      <trkpt lat="46.51173" lon="0.40587">
        <ele>116.4</ele>
        <time>2021-09-12T07:20:05Z</time>
      </trkpt>
      <trkpt lat="46.51175" lon="0.40584">
        <ele>116</ele>
        <time>2021-09-12T07:20:06Z</time>
      </trkpt>
      <trkpt lat="46.51177" lon="0.40582">
        <ele>115.6</ele>
        <time>2021-09-12T07:20:07Z</time>
      </trkpt>
      <trkpt lat="46.51182" lon="0.4058">
        <ele>115</ele>
        <time>2021-09-12T07:20:09Z</time>
      </trkpt>
      <trkpt lat="46.51185" lon="0.40578">
        <ele>115</ele>
        <time>2021-09-12T07:20:10Z</time>
      </trkpt>
      <trkpt lat="46.51188" lon="0.40577">
        <ele>114.8</ele>
        <time>2021-09-12T07:20:11Z</time>
      </trkpt>
      <trkpt lat="46.5119" lon="0.40575">
        <ele>114.8</ele>
        <time>2021-09-12T07:20:12Z</time>
      </trkpt>
      <trkpt lat="46.51195" lon="0.4057">
        <ele>114</ele>
        <time>2021-09-12T07:20:15Z</time>
      </trkpt>
      <trkpt lat="46.51199" lon="0.40563">
        <ele>113.8</ele>
        <time>2021-09-12T07:20:17Z</time>
      </trkpt>
      <trkpt lat="46.51201" lon="0.40559">
        <ele>113.4</ele>
        <time>2021-09-12T07:20:18Z</time>
      </trkpt>
      <trkpt lat="46.51204" lon="0.40553">
        <ele>112.4</ele>
        <time>2021-09-12T07:20:19Z</time>
      </trkpt>
      <trkpt lat="46.51209" lon="0.40541">
        <ele>111.2</ele>
        <time>2021-09-12T07:20:21Z</time>
      </trkpt>
      <trkpt lat="46.51214" lon="0.40528">
        <ele>109.2</ele>
        <time>2021-09-12T07:20:23Z</time>
      </trkpt>
      <trkpt lat="46.51216" lon="0.40522">
        <ele>108.2</ele>
        <time>2021-09-12T07:20:24Z</time>
      </trkpt>
      <trkpt lat="46.51216" lon="0.40518">
        <ele>107.6</ele>
        <time>2021-09-12T07:20:25Z</time>
      </trkpt>
      <trkpt lat="46.51215" lon="0.40514">
        <ele>107.4</ele>
        <time>2021-09-12T07:20:26Z</time>
      </trkpt>
      <trkpt lat="46.51215" lon="0.40506">
        <ele>106.6</ele>
        <time>2021-09-12T07:20:28Z</time>
      </trkpt>
      <trkpt lat="46.51212" lon="0.405">
        <ele>106.4</ele>
        <time>2021-09-12T07:20:30Z</time>
      </trkpt>
      <trkpt lat="46.51208" lon="0.40493">
        <ele>106.2</ele>
        <time>2021-09-12T07:20:32Z</time>
      </trkpt>
      <trkpt lat="46.51203" lon="0.40487">
        <ele>106.2</ele>
        <time>2021-09-12T07:20:34Z</time>
      </trkpt>
      <trkpt lat="46.51193" lon="0.40479">
        <ele>106.2</ele>
        <time>2021-09-12T07:20:37Z</time>
      </trkpt>
      <trkpt lat="46.5119" lon="0.40477">
        <ele>106.2</ele>
        <time>2021-09-12T07:20:38Z</time>
      </trkpt>
      <trkpt lat="46.51177" lon="0.40472">
        <ele>106.2</ele>
        <time>2021-09-12T07:20:42Z</time>
      </trkpt>
      <trkpt lat="46.51174" lon="0.40471">
        <ele>106.2</ele>
        <time>2021-09-12T07:20:43Z</time>
      </trkpt>
      <trkpt lat="46.51162" lon="0.40473">
        <ele>105.6</ele>
        <time>2021-09-12T07:20:46Z</time>
      </trkpt>
      <trkpt lat="46.51156" lon="0.40475">
        <ele>105.4</ele>
        <time>2021-09-12T07:20:47Z</time>
      </trkpt>
      <trkpt lat="46.51142" lon="0.40482">
        <ele>105.2</ele>
        <time>2021-09-12T07:20:50Z</time>
      </trkpt>
      <trkpt lat="46.51134" lon="0.40485">
        <ele>105</ele>
        <time>2021-09-12T07:20:52Z</time>
      </trkpt>
      <trkpt lat="46.51122" lon="0.4049">
        <ele>104.8</ele>
        <time>2021-09-12T07:20:55Z</time>
      </trkpt>
      <trkpt lat="46.51113" lon="0.4049">
        <ele>104.8</ele>
        <time>2021-09-12T07:20:57Z</time>
      </trkpt>
      <trkpt lat="46.51109" lon="0.4049">
        <ele>104.8</ele>
        <time>2021-09-12T07:20:58Z</time>
      </trkpt>
      <trkpt lat="46.51104" lon="0.40489">
        <ele>104.8</ele>
        <time>2021-09-12T07:20:59Z</time>
      </trkpt>
      <trkpt lat="46.51086" lon="0.40483">
        <ele>104.6</ele>
        <time>2021-09-12T07:21:03Z</time>
      </trkpt>
      <trkpt lat="46.51082" lon="0.40484">
        <ele>104.4</ele>
        <time>2021-09-12T07:21:04Z</time>
      </trkpt>
      <trkpt lat="46.51079" lon="0.40485">
        <ele>104.2</ele>
        <time>2021-09-12T07:21:05Z</time>
      </trkpt>
      <trkpt lat="46.51076" lon="0.40487">
        <ele>104</ele>
        <time>2021-09-12T07:21:06Z</time>
      </trkpt>
      <trkpt lat="46.5107" lon="0.40494">
        <ele>105.2</ele>
        <time>2021-09-12T07:21:10Z</time>
      </trkpt>
      <trkpt lat="46.51069" lon="0.40495">
        <ele>105.8</ele>
        <time>2021-09-12T07:21:11Z</time>
      </trkpt>
      <trkpt lat="46.51067" lon="0.40497">
        <ele>106.8</ele>
        <time>2021-09-12T07:21:13Z</time>
      </trkpt>
      <trkpt lat="46.51065" lon="0.40497">
        <ele>107.2</ele>
        <time>2021-09-12T07:21:14Z</time>
      </trkpt>
      <trkpt lat="46.51063" lon="0.40502">
        <ele>107.8</ele>
        <time>2021-09-12T07:21:17Z</time>
      </trkpt>
      <trkpt lat="46.51062" lon="0.40505">
        <ele>108.8</ele>
        <time>2021-09-12T07:21:19Z</time>
      </trkpt>
      <trkpt lat="46.51062" lon="0.40506">
        <ele>109.4</ele>
        <time>2021-09-12T07:21:21Z</time>
      </trkpt>
      <trkpt lat="46.51061" lon="0.40507">
        <ele>109.2</ele>
        <time>2021-09-12T07:21:26Z</time>
      </trkpt>
      <trkpt lat="46.5106" lon="0.40509">
        <ele>109.2</ele>
        <time>2021-09-12T07:21:29Z</time>
      </trkpt>
      <trkpt lat="46.51058" lon="0.40514">
        <ele>109.6</ele>
        <time>2021-09-12T07:21:34Z</time>
      </trkpt>
      <trkpt lat="46.51057" lon="0.40516">
        <ele>109.8</ele>
        <time>2021-09-12T07:21:35Z</time>
      </trkpt>
      <trkpt lat="46.51057" lon="0.4052">
        <ele>110.8</ele>
        <time>2021-09-12T07:21:38Z</time>
      </trkpt>
      <trkpt lat="46.51056" lon="0.40526">
        <ele>112.2</ele>
        <time>2021-09-12T07:21:41Z</time>
      </trkpt>
      <trkpt lat="46.51054" lon="0.40536">
        <ele>113.4</ele>
        <time>2021-09-12T07:21:45Z</time>
      </trkpt>
      <trkpt lat="46.51051" lon="0.40542">
        <ele>114.4</ele>
        <time>2021-09-12T07:21:48Z</time>
      </trkpt>
      <trkpt lat="46.51049" lon="0.40552">
        <ele>115.4</ele>
        <time>2021-09-12T07:21:54Z</time>
      </trkpt>
      <trkpt lat="46.51044" lon="0.40569">
        <ele>116.4</ele>
        <time>2021-09-12T07:22:01Z</time>
      </trkpt>
      <trkpt lat="46.51044" lon="0.40573">
        <ele>116.8</ele>
        <time>2021-09-12T07:22:03Z</time>
      </trkpt>
      <trkpt lat="46.51042" lon="0.40581">
        <ele>117.6</ele>
        <time>2021-09-12T07:22:07Z</time>
      </trkpt>
      <trkpt lat="46.51038" lon="0.40598">
        <ele>118.8</ele>
        <time>2021-09-12T07:22:14Z</time>
      </trkpt>
      <trkpt lat="46.51033" lon="0.40616">
        <ele>120</ele>
        <time>2021-09-12T07:22:21Z</time>
      </trkpt>
      <trkpt lat="46.51032" lon="0.40621">
        <ele>120.2</ele>
        <time>2021-09-12T07:22:23Z</time>
      </trkpt>
      <trkpt lat="46.51032" lon="0.40629">
        <ele>120.6</ele>
        <time>2021-09-12T07:22:26Z</time>
      </trkpt>
      <trkpt lat="46.5103" lon="0.40638">
        <ele>121</ele>
        <time>2021-09-12T07:22:29Z</time>
      </trkpt>
      <trkpt lat="46.51023" lon="0.40667">
        <ele>122</ele>
        <time>2021-09-12T07:22:37Z</time>
      </trkpt>
      <trkpt lat="46.51017" lon="0.40696">
        <ele>122.8</ele>
        <time>2021-09-12T07:22:44Z</time>
      </trkpt>
      <trkpt lat="46.51015" lon="0.40706">
        <ele>122.8</ele>
        <time>2021-09-12T07:22:46Z</time>
      </trkpt>
      <trkpt lat="46.5101" lon="0.4071">
        <ele>122.8</ele>
        <time>2021-09-12T07:22:48Z</time>
      </trkpt>
      <trkpt lat="46.50997" lon="0.40708">
        <ele>122.6</ele>
        <time>2021-09-12T07:22:53Z</time>
      </trkpt>
      <trkpt lat="46.50983" lon="0.40704">
        <ele>121.8</ele>
        <time>2021-09-12T07:22:58Z</time>
      </trkpt>
      <trkpt lat="46.50968" lon="0.40702">
        <ele>121.6</ele>
        <time>2021-09-12T07:23:03Z</time>
      </trkpt>
      <trkpt lat="46.50954" lon="0.40696">
        <ele>121</ele>
        <time>2021-09-12T07:23:07Z</time>
      </trkpt>
      <trkpt lat="46.5095" lon="0.40694">
        <ele>121</ele>
        <time>2021-09-12T07:23:08Z</time>
      </trkpt>
      <trkpt lat="46.50946" lon="0.40692">
        <ele>121</ele>
        <time>2021-09-12T07:23:09Z</time>
      </trkpt>
      <trkpt lat="46.50922" lon="0.40681">
        <ele>119.8</ele>
        <time>2021-09-12T07:23:15Z</time>
      </trkpt>
      <trkpt lat="46.50919" lon="0.4068">
        <ele>119.6</ele>
        <time>2021-09-12T07:23:16Z</time>
      </trkpt>
      <trkpt lat="46.50911" lon="0.40678">
        <ele>119.2</ele>
        <time>2021-09-12T07:23:18Z</time>
      </trkpt>
      <trkpt lat="46.50906" lon="0.4068">
        <ele>118.8</ele>
        <time>2021-09-12T07:23:19Z</time>
      </trkpt>
      <trkpt lat="46.50901" lon="0.40684">
        <ele>118.6</ele>
        <time>2021-09-12T07:23:20Z</time>
      </trkpt>
      <trkpt lat="46.50896" lon="0.40693">
        <ele>118.4</ele>
        <time>2021-09-12T07:23:22Z</time>
      </trkpt>
      <trkpt lat="46.50892" lon="0.40702">
        <ele>118.2</ele>
        <time>2021-09-12T07:23:24Z</time>
      </trkpt>
      <trkpt lat="46.5089" lon="0.40706">
        <ele>118.2</ele>
        <time>2021-09-12T07:23:25Z</time>
      </trkpt>
      <trkpt lat="46.50882" lon="0.40728">
        <ele>118.2</ele>
        <time>2021-09-12T07:23:29Z</time>
      </trkpt>
      <trkpt lat="46.5088" lon="0.40734">
        <ele>118</ele>
        <time>2021-09-12T07:23:30Z</time>
      </trkpt>
      <trkpt lat="46.50874" lon="0.40749">
        <ele>117.6</ele>
        <time>2021-09-12T07:23:31Z</time>
      </trkpt>
      <trkpt lat="46.50864" lon="0.4078">
        <ele>117.2</ele>
        <time>2021-09-12T07:23:36Z</time>
      </trkpt>
      <trkpt lat="46.50857" lon="0.40804">
        <ele>116.6</ele>
        <time>2021-09-12T07:23:39Z</time>
      </trkpt>
      <trkpt lat="46.50855" lon="0.40813">
        <ele>116.4</ele>
        <time>2021-09-12T07:23:40Z</time>
      </trkpt>
      <trkpt lat="46.50851" lon="0.40835">
        <ele>115.8</ele>
        <time>2021-09-12T07:23:43Z</time>
      </trkpt>
      <trkpt lat="46.50849" lon="0.40847">
        <ele>115.6</ele>
        <time>2021-09-12T07:23:45Z</time>
      </trkpt>
      <trkpt lat="46.5085" lon="0.40859">
        <ele>115.2</ele>
        <time>2021-09-12T07:23:47Z</time>
      </trkpt>
      <trkpt lat="46.50852" lon="0.40865">
        <ele>114.8</ele>
        <time>2021-09-12T07:23:48Z</time>
      </trkpt>
      <trkpt lat="46.50854" lon="0.40875">
        <ele>114.6</ele>
        <time>2021-09-12T07:23:50Z</time>
      </trkpt>
      <trkpt lat="46.50856" lon="0.40877">
        <ele>114.4</ele>
        <time>2021-09-12T07:23:51Z</time>
      </trkpt>
      <trkpt lat="46.50859" lon="0.40881">
        <ele>114.4</ele>
        <time>2021-09-12T07:23:52Z</time>
      </trkpt>
      <trkpt lat="46.50863" lon="0.40887">
        <ele>114.4</ele>
        <time>2021-09-12T07:23:54Z</time>
      </trkpt>
      <trkpt lat="46.50868" lon="0.40893">
        <ele>114.6</ele>
        <time>2021-09-12T07:23:56Z</time>
      </trkpt>
      <trkpt lat="46.50871" lon="0.40896">
        <ele>114.8</ele>
        <time>2021-09-12T07:23:57Z</time>
      </trkpt>
      <trkpt lat="46.5088" lon="0.4091">
        <ele>115</ele>
        <time>2021-09-12T07:24:01Z</time>
      </trkpt>
      <trkpt lat="46.50883" lon="0.40912">
        <ele>115</ele>
        <time>2021-09-12T07:24:02Z</time>
      </trkpt>
      <trkpt lat="46.50886" lon="0.40914">
        <ele>115</ele>
        <time>2021-09-12T07:24:03Z</time>
      </trkpt>
      <trkpt lat="46.50895" lon="0.40916">
        <ele>115.4</ele>
        <time>2021-09-12T07:24:06Z</time>
      </trkpt>
      <trkpt lat="46.50898" lon="0.40916">
        <ele>115.6</ele>
        <time>2021-09-12T07:24:07Z</time>
      </trkpt>
      <trkpt lat="46.50909" lon="0.40917">
        <ele>115.8</ele>
        <time>2021-09-12T07:24:10Z</time>
      </trkpt>
      <trkpt lat="46.50915" lon="0.40918">
        <ele>116.4</ele>
        <time>2021-09-12T07:24:12Z</time>
      </trkpt>
      <trkpt lat="46.50918" lon="0.40917">
        <ele>116.6</ele>
        <time>2021-09-12T07:24:13Z</time>
      </trkpt>
      <trkpt lat="46.50922" lon="0.40918">
        <ele>116.8</ele>
        <time>2021-09-12T07:24:14Z</time>
      </trkpt>
      <trkpt lat="46.50946" lon="0.40916">
        <ele>117.6</ele>
        <time>2021-09-12T07:24:21Z</time>
      </trkpt>
      <trkpt lat="46.50967" lon="0.40923">
        <ele>118.8</ele>
        <time>2021-09-12T07:24:27Z</time>
      </trkpt>
      <trkpt lat="46.50981" lon="0.4093">
        <ele>119</ele>
        <time>2021-09-12T07:24:32Z</time>
      </trkpt>
      <trkpt lat="46.50985" lon="0.40931">
        <ele>119.2</ele>
        <time>2021-09-12T07:24:33Z</time>
      </trkpt>
      <trkpt lat="46.50999" lon="0.40932">
        <ele>119.6</ele>
        <time>2021-09-12T07:24:37Z</time>
      </trkpt>
      <trkpt lat="46.51001" lon="0.40932">
        <ele>119.8</ele>
        <time>2021-09-12T07:24:38Z</time>
      </trkpt>
      <trkpt lat="46.51021" lon="0.40932">
        <ele>120.4</ele>
        <time>2021-09-12T07:24:43Z</time>
      </trkpt>
      <trkpt lat="46.51032" lon="0.40932">
        <ele>121</ele>
        <time>2021-09-12T07:24:46Z</time>
      </trkpt>
      <trkpt lat="46.51047" lon="0.40933">
        <ele>121.4</ele>
        <time>2021-09-12T07:24:49Z</time>
      </trkpt>
      <trkpt lat="46.51066" lon="0.40932">
        <ele>122</ele>
        <time>2021-09-12T07:24:53Z</time>
      </trkpt>
      <trkpt lat="46.51076" lon="0.40934">
        <ele>122.2</ele>
        <time>2021-09-12T07:24:55Z</time>
      </trkpt>
      <trkpt lat="46.51098" lon="0.40943">
        <ele>122.6</ele>
        <time>2021-09-12T07:25:01Z</time>
      </trkpt>
      <trkpt lat="46.51104" lon="0.40943">
        <ele>122.4</ele>
        <time>2021-09-12T07:25:04Z</time>
      </trkpt>
      <trkpt lat="46.51107" lon="0.4094">
        <ele>122.2</ele>
        <time>2021-09-12T07:25:06Z</time>
      </trkpt>
      <trkpt lat="46.51118" lon="0.40932">
        <ele>122.8</ele>
        <time>2021-09-12T07:25:10Z</time>
      </trkpt>
      <trkpt lat="46.51119" lon="0.40932">
        <ele>123.2</ele>
        <time>2021-09-12T07:25:11Z</time>
      </trkpt>
      <trkpt lat="46.51129" lon="0.40936">
        <ele>123.6</ele>
        <time>2021-09-12T07:25:15Z</time>
      </trkpt>
      <trkpt lat="46.5115" lon="0.40944">
        <ele>123.8</ele>
        <time>2021-09-12T07:25:22Z</time>
      </trkpt>
      <trkpt lat="46.5115" lon="0.40941">
        <ele>123.8</ele>
        <time>2021-09-12T07:25:27Z</time>
      </trkpt>
      <trkpt lat="46.51147" lon="0.40938">
        <ele>123.4</ele>
        <time>2021-09-12T07:25:29Z</time>
      </trkpt>
      <trkpt lat="46.51143" lon="0.4094">
        <ele>123.2</ele>
        <time>2021-09-12T07:25:31Z</time>
      </trkpt>
      <trkpt lat="46.51141" lon="0.40945">
        <ele>123</ele>
        <time>2021-09-12T07:25:34Z</time>
      </trkpt>
      <trkpt lat="46.51143" lon="0.4095">
        <ele>123.2</ele>
        <time>2021-09-12T07:25:36Z</time>
      </trkpt>
      <trkpt lat="46.51153" lon="0.40964">
        <ele>123.4</ele>
        <time>2021-09-12T07:25:42Z</time>
      </trkpt>
      <trkpt lat="46.51164" lon="0.40986">
        <ele>123.6</ele>
        <time>2021-09-12T07:25:48Z</time>
      </trkpt>
      <trkpt lat="46.51176" lon="0.41004">
        <ele>123.8</ele>
        <time>2021-09-12T07:25:53Z</time>
      </trkpt>
      <trkpt lat="46.51183" lon="0.41015">
        <ele>123.8</ele>
        <time>2021-09-12T07:25:56Z</time>
      </trkpt>
      <trkpt lat="46.51187" lon="0.41021">
        <ele>123.8</ele>
        <time>2021-09-12T07:25:58Z</time>
      </trkpt>
      <trkpt lat="46.51191" lon="0.4103">
        <ele>124</ele>
        <time>2021-09-12T07:26:01Z</time>
      </trkpt>
      <trkpt lat="46.51189" lon="0.41036">
        <ele>124</ele>
        <time>2021-09-12T07:26:03Z</time>
      </trkpt>
      <trkpt lat="46.51176" lon="0.41041">
        <ele>123.4</ele>
        <time>2021-09-12T07:26:07Z</time>
      </trkpt>
      <trkpt lat="46.51173" lon="0.41043">
        <ele>123.2</ele>
        <time>2021-09-12T07:26:08Z</time>
      </trkpt>
      <trkpt lat="46.5117" lon="0.41044">
        <ele>122.8</ele>
        <time>2021-09-12T07:26:09Z</time>
      </trkpt>
      <trkpt lat="46.51161" lon="0.41044">
        <ele>122</ele>
        <time>2021-09-12T07:26:11Z</time>
      </trkpt>
      <trkpt lat="46.51151" lon="0.41046">
        <ele>120.6</ele>
        <time>2021-09-12T07:26:13Z</time>
      </trkpt>
      <trkpt lat="46.51144" lon="0.41049">
        <ele>119.2</ele>
        <time>2021-09-12T07:26:15Z</time>
      </trkpt>
      <trkpt lat="46.51141" lon="0.41056">
        <ele>117.8</ele>
        <time>2021-09-12T07:26:16Z</time>
      </trkpt>
      <trkpt lat="46.51141" lon="0.41056">
        <ele>117.8</ele>
        <time>2021-09-12T07:26:17Z</time>
      </trkpt>
      <trkpt lat="46.51142" lon="0.41059">
        <ele>117</ele>
        <time>2021-09-12T07:26:19Z</time>
      </trkpt>
      <trkpt lat="46.51143" lon="0.41062">
        <ele>116.6</ele>
        <time>2021-09-12T07:26:20Z</time>
      </trkpt>
      <trkpt lat="46.51144" lon="0.41065">
        <ele>115.6</ele>
        <time>2021-09-12T07:26:21Z</time>
      </trkpt>
      <trkpt lat="46.51145" lon="0.41067">
        <ele>114.8</ele>
        <time>2021-09-12T07:26:22Z</time>
      </trkpt>
      <trkpt lat="46.51148" lon="0.41071">
        <ele>113.4</ele>
        <time>2021-09-12T07:26:24Z</time>
      </trkpt>
      <trkpt lat="46.51151" lon="0.41076">
        <ele>112.4</ele>
        <time>2021-09-12T07:26:26Z</time>
      </trkpt>
      <trkpt lat="46.51152" lon="0.41078">
        <ele>112</ele>
        <time>2021-09-12T07:26:27Z</time>
      </trkpt>
      <trkpt lat="46.51153" lon="0.41084">
        <ele>110.8</ele>
        <time>2021-09-12T07:26:29Z</time>
      </trkpt>
      <trkpt lat="46.51157" lon="0.4109">
        <ele>109.6</ele>
        <time>2021-09-12T07:26:31Z</time>
      </trkpt>
      <trkpt lat="46.51159" lon="0.41095">
        <ele>108.8</ele>
        <time>2021-09-12T07:26:33Z</time>
      </trkpt>
      <trkpt lat="46.51156" lon="0.41099">
        <ele>108.2</ele>
        <time>2021-09-12T07:26:34Z</time>
      </trkpt>
      <trkpt lat="46.51152" lon="0.41102">
        <ele>107.6</ele>
        <time>2021-09-12T07:26:36Z</time>
      </trkpt>
      <trkpt lat="46.51147" lon="0.411">
        <ele>107</ele>
        <time>2021-09-12T07:26:39Z</time>
      </trkpt>
      <trkpt lat="46.51144" lon="0.411">
        <ele>106.8</ele>
        <time>2021-09-12T07:26:40Z</time>
      </trkpt>
      <trkpt lat="46.51142" lon="0.41099">
        <ele>106.6</ele>
        <time>2021-09-12T07:26:41Z</time>
      </trkpt>
      <trkpt lat="46.5114" lon="0.41098">
        <ele>106.6</ele>
        <time>2021-09-12T07:26:42Z</time>
      </trkpt>
      <trkpt lat="46.51133" lon="0.41093">
        <ele>106.4</ele>
        <time>2021-09-12T07:26:44Z</time>
      </trkpt>
      <trkpt lat="46.51123" lon="0.4109">
        <ele>106</ele>
        <time>2021-09-12T07:26:46Z</time>
      </trkpt>
      <trkpt lat="46.51119" lon="0.4109">
        <ele>106</ele>
        <time>2021-09-12T07:26:47Z</time>
      </trkpt>
      <trkpt lat="46.51107" lon="0.41089">
        <ele>105.4</ele>
        <time>2021-09-12T07:26:50Z</time>
      </trkpt>
      <trkpt lat="46.51097" lon="0.41088">
        <ele>104.8</ele>
        <time>2021-09-12T07:26:52Z</time>
      </trkpt>
      <trkpt lat="46.51091" lon="0.41085">
        <ele>104.2</ele>
        <time>2021-09-12T07:26:53Z</time>
      </trkpt>
      <trkpt lat="46.51082" lon="0.41083">
        <ele>104</ele>
        <time>2021-09-12T07:26:54Z</time>
      </trkpt>
      <trkpt lat="46.51075" lon="0.41081">
        <ele>103.8</ele>
        <time>2021-09-12T07:26:55Z</time>
      </trkpt>
      <trkpt lat="46.51048" lon="0.41071">
        <ele>102.8</ele>
        <time>2021-09-12T07:26:59Z</time>
      </trkpt>
      <trkpt lat="46.51024" lon="0.41061">
        <ele>102.6</ele>
        <time>2021-09-12T07:27:04Z</time>
      </trkpt>
      <trkpt lat="46.50999" lon="0.41052">
        <ele>103</ele>
        <time>2021-09-12T07:27:10Z</time>
      </trkpt>
      <trkpt lat="46.50967" lon="0.41044">
        <ele>102.8</ele>
        <time>2021-09-12T07:27:16Z</time>
      </trkpt>
      <trkpt lat="46.5096" lon="0.41043">
        <ele>102.8</ele>
        <time>2021-09-12T07:27:17Z</time>
      </trkpt>
      <trkpt lat="46.50942" lon="0.41036">
        <ele>102.6</ele>
        <time>2021-09-12T07:27:21Z</time>
      </trkpt>
      <trkpt lat="46.50923" lon="0.4103">
        <ele>102.8</ele>
        <time>2021-09-12T07:27:26Z</time>
      </trkpt>
      <trkpt lat="46.50915" lon="0.41026">
        <ele>103.2</ele>
        <time>2021-09-12T07:27:29Z</time>
      </trkpt>
      <trkpt lat="46.50904" lon="0.41019">
        <ele>103.6</ele>
        <time>2021-09-12T07:27:32Z</time>
      </trkpt>
      <trkpt lat="46.509" lon="0.41017">
        <ele>103.8</ele>
        <time>2021-09-12T07:27:33Z</time>
      </trkpt>
      <trkpt lat="46.50882" lon="0.41008">
        <ele>104.2</ele>
        <time>2021-09-12T07:27:36Z</time>
      </trkpt>
      <trkpt lat="46.50872" lon="0.41004">
        <ele>104.4</ele>
        <time>2021-09-12T07:27:38Z</time>
      </trkpt>
      <trkpt lat="46.50847" lon="0.41001">
        <ele>104.4</ele>
        <time>2021-09-12T07:27:42Z</time>
      </trkpt>
      <trkpt lat="46.50842" lon="0.40999">
        <ele>104.4</ele>
        <time>2021-09-12T07:27:43Z</time>
      </trkpt>
      <trkpt lat="46.50801" lon="0.40986">
        <ele>103.8</ele>
        <time>2021-09-12T07:27:50Z</time>
      </trkpt>
      <trkpt lat="46.50797" lon="0.40983">
        <ele>103.6</ele>
        <time>2021-09-12T07:27:51Z</time>
      </trkpt>
      <trkpt lat="46.50783" lon="0.40972">
        <ele>103.2</ele>
        <time>2021-09-12T07:27:55Z</time>
      </trkpt>
      <trkpt lat="46.5078" lon="0.4097">
        <ele>103</ele>
        <time>2021-09-12T07:27:56Z</time>
      </trkpt>
      <trkpt lat="46.50772" lon="0.40966">
        <ele>103.2</ele>
        <time>2021-09-12T07:27:58Z</time>
      </trkpt>
      <trkpt lat="46.50766" lon="0.40959">
        <ele>103.2</ele>
        <time>2021-09-12T07:28:00Z</time>
      </trkpt>
      <trkpt lat="46.50762" lon="0.40955">
        <ele>103.2</ele>
        <time>2021-09-12T07:28:01Z</time>
      </trkpt>
      <trkpt lat="46.50758" lon="0.40948">
        <ele>103.2</ele>
        <time>2021-09-12T07:28:03Z</time>
      </trkpt>
      <trkpt lat="46.50751" lon="0.40939">
        <ele>103.2</ele>
        <time>2021-09-12T07:28:05Z</time>
      </trkpt>
      <trkpt lat="46.50745" lon="0.4093">
        <ele>103.2</ele>
        <time>2021-09-12T07:28:07Z</time>
      </trkpt>
      <trkpt lat="46.50729" lon="0.40913">
        <ele>103.2</ele>
        <time>2021-09-12T07:28:11Z</time>
      </trkpt>
      <trkpt lat="46.50722" lon="0.40905">
        <ele>103.4</ele>
        <time>2021-09-12T07:28:13Z</time>
      </trkpt>
      <trkpt lat="46.50711" lon="0.40892">
        <ele>103.6</ele>
        <time>2021-09-12T07:28:16Z</time>
      </trkpt>
      <trkpt lat="46.507" lon="0.40867">
        <ele>103.6</ele>
        <time>2021-09-12T07:28:21Z</time>
      </trkpt>
      <trkpt lat="46.50698" lon="0.40859">
        <ele>103.6</ele>
        <time>2021-09-12T07:28:22Z</time>
      </trkpt>
      <trkpt lat="46.50697" lon="0.40853">
        <ele>103.6</ele>
        <time>2021-09-12T07:28:23Z</time>
      </trkpt>
      <trkpt lat="46.50692" lon="0.40829">
        <ele>103.8</ele>
        <time>2021-09-12T07:28:27Z</time>
      </trkpt>
      <trkpt lat="46.50693" lon="0.40811">
        <ele>104.2</ele>
        <time>2021-09-12T07:28:30Z</time>
      </trkpt>
      <trkpt lat="46.50696" lon="0.40799">
        <ele>104.2</ele>
        <time>2021-09-12T07:28:32Z</time>
      </trkpt>
      <trkpt lat="46.50697" lon="0.40793">
        <ele>104.2</ele>
        <time>2021-09-12T07:28:33Z</time>
      </trkpt>
      <trkpt lat="46.50703" lon="0.40776">
        <ele>103.6</ele>
        <time>2021-09-12T07:28:36Z</time>
      </trkpt>
      <trkpt lat="46.50708" lon="0.40768">
        <ele>103.4</ele>
        <time>2021-09-12T07:28:38Z</time>
      </trkpt>
      <trkpt lat="46.5071" lon="0.40764">
        <ele>103.6</ele>
        <time>2021-09-12T07:28:39Z</time>
      </trkpt>
      <trkpt lat="46.50726" lon="0.40747">
        <ele>104.6</ele>
        <time>2021-09-12T07:28:44Z</time>
      </trkpt>
      <trkpt lat="46.5073" lon="0.40745">
        <ele>104.8</ele>
        <time>2021-09-12T07:28:45Z</time>
      </trkpt>
      <trkpt lat="46.50734" lon="0.40744">
        <ele>105.2</ele>
        <time>2021-09-12T07:28:47Z</time>
      </trkpt>
      <trkpt lat="46.50736" lon="0.40745">
        <ele>105.6</ele>
        <time>2021-09-12T07:28:48Z</time>
      </trkpt>
      <trkpt lat="46.50737" lon="0.40745">
        <ele>105.8</ele>
        <time>2021-09-12T07:28:49Z</time>
      </trkpt>
      <trkpt lat="46.50744" lon="0.40743">
        <ele>107</ele>
        <time>2021-09-12T07:28:52Z</time>
      </trkpt>
      <trkpt lat="46.50745" lon="0.40741">
        <ele>107.4</ele>
        <time>2021-09-12T07:28:53Z</time>
      </trkpt>
      <trkpt lat="46.50749" lon="0.40737">
        <ele>108.2</ele>
        <time>2021-09-12T07:28:56Z</time>
      </trkpt>
      <trkpt lat="46.50756" lon="0.40729">
        <ele>108.6</ele>
        <time>2021-09-12T07:28:59Z</time>
      </trkpt>
      <trkpt lat="46.50763" lon="0.40721">
        <ele>108.8</ele>
        <time>2021-09-12T07:29:02Z</time>
      </trkpt>
      <trkpt lat="46.50767" lon="0.4072">
        <ele>109</ele>
        <time>2021-09-12T07:29:04Z</time>
      </trkpt>
      <trkpt lat="46.50767" lon="0.4072">
        <ele>109.2</ele>
        <time>2021-09-12T07:29:05Z</time>
      </trkpt>
      <trkpt lat="46.50771" lon="0.40719">
        <ele>110</ele>
        <time>2021-09-12T07:29:07Z</time>
      </trkpt>
      <trkpt lat="46.50772" lon="0.40718">
        <ele>110.6</ele>
        <time>2021-09-12T07:29:08Z</time>
      </trkpt>
      <trkpt lat="46.50774" lon="0.40717">
        <ele>110.8</ele>
        <time>2021-09-12T07:29:09Z</time>
      </trkpt>
      <trkpt lat="46.50778" lon="0.40715">
        <ele>111</ele>
        <time>2021-09-12T07:29:10Z</time>
      </trkpt>
      <trkpt lat="46.50786" lon="0.40705">
        <ele>111.2</ele>
        <time>2021-09-12T07:29:15Z</time>
      </trkpt>
      <trkpt lat="46.50787" lon="0.40702">
        <ele>111</ele>
        <time>2021-09-12T07:29:16Z</time>
      </trkpt>
      <trkpt lat="46.50793" lon="0.40692">
        <ele>109.8</ele>
        <time>2021-09-12T07:29:20Z</time>
      </trkpt>
      <trkpt lat="46.50795" lon="0.4069">
        <ele>109.2</ele>
        <time>2021-09-12T07:29:21Z</time>
      </trkpt>
      <trkpt lat="46.50801" lon="0.40685">
        <ele>108.6</ele>
        <time>2021-09-12T07:29:25Z</time>
      </trkpt>
      <trkpt lat="46.50811" lon="0.40678">
        <ele>110.4</ele>
        <time>2021-09-12T07:29:38Z</time>
      </trkpt>
      <trkpt lat="46.50813" lon="0.40674">
        <ele>111.2</ele>
        <time>2021-09-12T07:29:42Z</time>
      </trkpt>
      <trkpt lat="46.50813" lon="0.40674">
        <ele>111.6</ele>
        <time>2021-09-12T07:29:43Z</time>
      </trkpt>
      <trkpt lat="46.50814" lon="0.40672">
        <ele>112.2</ele>
        <time>2021-09-12T07:29:48Z</time>
      </trkpt>
      <trkpt lat="46.50815" lon="0.40669">
        <ele>112.6</ele>
        <time>2021-09-12T07:29:53Z</time>
      </trkpt>
      <trkpt lat="46.50816" lon="0.40668">
        <ele>112.6</ele>
        <time>2021-09-12T07:29:54Z</time>
      </trkpt>
      <trkpt lat="46.50817" lon="0.40666">
        <ele>112.8</ele>
        <time>2021-09-12T07:29:56Z</time>
      </trkpt>
      <trkpt lat="46.50825" lon="0.40656">
        <ele>113.2</ele>
        <time>2021-09-12T07:30:07Z</time>
      </trkpt>
      <trkpt lat="46.50826" lon="0.40655">
        <ele>113.2</ele>
        <time>2021-09-12T07:30:08Z</time>
      </trkpt>
      <trkpt lat="46.50831" lon="0.40649">
        <ele>113.8</ele>
        <time>2021-09-12T07:30:14Z</time>
      </trkpt>
      <trkpt lat="46.50832" lon="0.40642">
        <ele>114</ele>
        <time>2021-09-12T07:30:17Z</time>
      </trkpt>
      <trkpt lat="46.50842" lon="0.40621">
        <ele>114.2</ele>
        <time>2021-09-12T07:30:28Z</time>
      </trkpt>
      <trkpt lat="46.50848" lon="0.40601">
        <ele>114.8</ele>
        <time>2021-09-12T07:30:36Z</time>
      </trkpt>
      <trkpt lat="46.50849" lon="0.406">
        <ele>115.2</ele>
        <time>2021-09-12T07:30:37Z</time>
      </trkpt>
      <trkpt lat="46.50854" lon="0.40588">
        <ele>116.2</ele>
        <time>2021-09-12T07:30:43Z</time>
      </trkpt>
      <trkpt lat="46.50863" lon="0.40575">
        <ele>116.2</ele>
        <time>2021-09-12T07:30:49Z</time>
      </trkpt>
      <trkpt lat="46.50865" lon="0.40574">
        <ele>116.4</ele>
        <time>2021-09-12T07:30:50Z</time>
      </trkpt>
      <trkpt lat="46.50869" lon="0.40571">
        <ele>116.4</ele>
        <time>2021-09-12T07:30:53Z</time>
      </trkpt>
      <trkpt lat="46.50872" lon="0.40567">
        <ele>116.4</ele>
        <time>2021-09-12T07:30:55Z</time>
      </trkpt>
      <trkpt lat="46.50875" lon="0.40555">
        <ele>116.2</ele>
        <time>2021-09-12T07:31:00Z</time>
      </trkpt>
      <trkpt lat="46.50879" lon="0.40541">
        <ele>115.6</ele>
        <time>2021-09-12T07:31:05Z</time>
      </trkpt>
      <trkpt lat="46.50879" lon="0.40539">
        <ele>115.4</ele>
        <time>2021-09-12T07:31:06Z</time>
      </trkpt>
      <trkpt lat="46.50879" lon="0.40536">
        <ele>115.2</ele>
        <time>2021-09-12T07:31:07Z</time>
      </trkpt>
      <trkpt lat="46.50879" lon="0.40534">
        <ele>115</ele>
        <time>2021-09-12T07:31:08Z</time>
      </trkpt>
      <trkpt lat="46.50878" lon="0.40531">
        <ele>114.4</ele>
        <time>2021-09-12T07:31:12Z</time>
      </trkpt>
      <trkpt lat="46.50877" lon="0.4053">
        <ele>114.2</ele>
        <time>2021-09-12T07:31:13Z</time>
      </trkpt>
      <trkpt lat="46.50874" lon="0.40532">
        <ele>112.4</ele>
        <time>2021-09-12T07:31:16Z</time>
      </trkpt>
      <trkpt lat="46.50871" lon="0.40535">
        <ele>110.8</ele>
        <time>2021-09-12T07:31:18Z</time>
      </trkpt>
      <trkpt lat="46.50869" lon="0.40537">
        <ele>109.8</ele>
        <time>2021-09-12T07:31:19Z</time>
      </trkpt>
      <trkpt lat="46.50868" lon="0.4054">
        <ele>107.4</ele>
        <time>2021-09-12T07:31:20Z</time>
      </trkpt>
      <trkpt lat="46.50862" lon="0.40552">
        <ele>106.4</ele>
        <time>2021-09-12T07:31:24Z</time>
      </trkpt>
      <trkpt lat="46.50861" lon="0.40554">
        <ele>106.4</ele>
        <time>2021-09-12T07:31:25Z</time>
      </trkpt>
      <trkpt lat="46.50859" lon="0.40558">
        <ele>106.4</ele>
        <time>2021-09-12T07:31:27Z</time>
      </trkpt>
      <trkpt lat="46.50856" lon="0.40562">
        <ele>106</ele>
        <time>2021-09-12T07:31:28Z</time>
      </trkpt>
      <trkpt lat="46.50851" lon="0.40574">
        <ele>105</ele>
        <time>2021-09-12T07:31:31Z</time>
      </trkpt>
      <trkpt lat="46.50848" lon="0.40576">
        <ele>104.8</ele>
        <time>2021-09-12T07:31:32Z</time>
      </trkpt>
      <trkpt lat="46.50843" lon="0.40575">
        <ele>104</ele>
        <time>2021-09-12T07:31:34Z</time>
      </trkpt>
      <trkpt lat="46.50841" lon="0.40572">
        <ele>103.8</ele>
        <time>2021-09-12T07:31:35Z</time>
      </trkpt>
      <trkpt lat="46.50839" lon="0.40567">
        <ele>102.6</ele>
        <time>2021-09-12T07:31:36Z</time>
      </trkpt>
      <trkpt lat="46.50839" lon="0.40558">
        <ele>101.4</ele>
        <time>2021-09-12T07:31:38Z</time>
      </trkpt>
      <trkpt lat="46.50839" lon="0.40555">
        <ele>100.8</ele>
        <time>2021-09-12T07:31:42Z</time>
      </trkpt>
      <trkpt lat="46.50839" lon="0.40555">
        <ele>100.2</ele>
        <time>2021-09-12T07:31:43Z</time>
      </trkpt>
      <trkpt lat="46.50839" lon="0.40555">
        <ele>99.6</ele>
        <time>2021-09-12T07:31:55Z</time>
      </trkpt>
      <trkpt lat="46.50839" lon="0.40555">
        <ele>99.4</ele>
        <time>2021-09-12T07:32:17Z</time>
      </trkpt>
      <trkpt lat="46.50839" lon="0.40555">
        <ele>99.6</ele>
        <time>2021-09-12T07:33:03Z</time>
      </trkpt>
      <trkpt lat="46.50839" lon="0.40556">
        <ele>100.6</ele>
        <time>2021-09-12T07:33:09Z</time>
      </trkpt>
      <trkpt lat="46.50843" lon="0.40549">
        <ele>101</ele>
        <time>2021-09-12T07:33:16Z</time>
      </trkpt>
      <trkpt lat="46.50847" lon="0.4053">
        <ele>101</ele>
        <time>2021-09-12T07:33:22Z</time>
      </trkpt>
      <trkpt lat="46.50855" lon="0.40503">
        <ele>100.8</ele>
        <time>2021-09-12T07:33:29Z</time>
      </trkpt>
      <trkpt lat="46.50862" lon="0.40473">
        <ele>100.8</ele>
        <time>2021-09-12T07:33:37Z</time>
      </trkpt>
      <trkpt lat="46.5087" lon="0.40436">
        <ele>101</ele>
        <time>2021-09-12T07:33:44Z</time>
      </trkpt>
      <trkpt lat="46.50878" lon="0.40401">
        <ele>100.6</ele>
        <time>2021-09-12T07:33:50Z</time>
      </trkpt>
      <trkpt lat="46.50884" lon="0.40386">
        <ele>100.6</ele>
        <time>2021-09-12T07:33:53Z</time>
      </trkpt>
      <trkpt lat="46.5089" lon="0.40373">
        <ele>100.8</ele>
        <time>2021-09-12T07:33:56Z</time>
      </trkpt>
      <trkpt lat="46.50892" lon="0.40368">
        <ele>100.8</ele>
        <time>2021-09-12T07:33:57Z</time>
      </trkpt>
      <trkpt lat="46.50893" lon="0.40334">
        <ele>101.4</ele>
        <time>2021-09-12T07:34:02Z</time>
      </trkpt>
      <trkpt lat="46.50894" lon="0.40315">
        <ele>101.6</ele>
        <time>2021-09-12T07:34:06Z</time>
      </trkpt>
      <trkpt lat="46.50892" lon="0.40312">
        <ele>101.8</ele>
        <time>2021-09-12T07:34:07Z</time>
      </trkpt>
      <trkpt lat="46.50877" lon="0.40311">
        <ele>102.4</ele>
        <time>2021-09-12T07:34:11Z</time>
      </trkpt>
      <trkpt lat="46.50873" lon="0.40311">
        <ele>102.4</ele>
        <time>2021-09-12T07:34:12Z</time>
      </trkpt>
      <trkpt lat="46.50843" lon="0.40314">
        <ele>103.2</ele>
        <time>2021-09-12T07:34:20Z</time>
      </trkpt>
      <trkpt lat="46.50839" lon="0.40315">
        <ele>103.4</ele>
        <time>2021-09-12T07:34:21Z</time>
      </trkpt>
      <trkpt lat="46.50821" lon="0.40317">
        <ele>103.2</ele>
        <time>2021-09-12T07:34:25Z</time>
      </trkpt>
      <trkpt lat="46.50794" lon="0.40308">
        <ele>102.8</ele>
        <time>2021-09-12T07:34:31Z</time>
      </trkpt>
      <trkpt lat="46.5077" lon="0.40303">
        <ele>103.4</ele>
        <time>2021-09-12T07:34:37Z</time>
      </trkpt>
      <trkpt lat="46.50759" lon="0.40307">
        <ele>104.4</ele>
        <time>2021-09-12T07:34:41Z</time>
      </trkpt>
      <trkpt lat="46.50754" lon="0.40309">
        <ele>104.8</ele>
        <time>2021-09-12T07:34:43Z</time>
      </trkpt>
      <trkpt lat="46.50749" lon="0.40309">
        <ele>105.6</ele>
        <time>2021-09-12T07:34:46Z</time>
      </trkpt>
      <trkpt lat="46.50744" lon="0.40309">
        <ele>106.6</ele>
        <time>2021-09-12T07:34:49Z</time>
      </trkpt>
      <trkpt lat="46.50741" lon="0.40309">
        <ele>107.6</ele>
        <time>2021-09-12T07:34:51Z</time>
      </trkpt>
      <trkpt lat="46.50736" lon="0.40309">
        <ele>108.8</ele>
        <time>2021-09-12T07:34:54Z</time>
      </trkpt>
      <trkpt lat="46.50732" lon="0.40309">
        <ele>110</ele>
        <time>2021-09-12T07:34:57Z</time>
      </trkpt>
      <trkpt lat="46.50727" lon="0.40309">
        <ele>111.4</ele>
        <time>2021-09-12T07:35:01Z</time>
      </trkpt>
      <trkpt lat="46.50721" lon="0.4031">
        <ele>112.6</ele>
        <time>2021-09-12T07:35:05Z</time>
      </trkpt>
      <trkpt lat="46.50719" lon="0.40311">
        <ele>113.4</ele>
        <time>2021-09-12T07:35:07Z</time>
      </trkpt>
      <trkpt lat="46.50718" lon="0.40311">
        <ele>113.8</ele>
        <time>2021-09-12T07:35:08Z</time>
      </trkpt>
      <trkpt lat="46.50716" lon="0.4031">
        <ele>114.2</ele>
        <time>2021-09-12T07:35:09Z</time>
      </trkpt>
      <trkpt lat="46.50713" lon="0.40308">
        <ele>115</ele>
        <time>2021-09-12T07:35:12Z</time>
      </trkpt>
      <trkpt lat="46.50712" lon="0.40307">
        <ele>115.2</ele>
        <time>2021-09-12T07:35:13Z</time>
      </trkpt>
      <trkpt lat="46.50709" lon="0.40305">
        <ele>116</ele>
        <time>2021-09-12T07:35:16Z</time>
      </trkpt>
      <trkpt lat="46.50704" lon="0.40301">
        <ele>116.8</ele>
        <time>2021-09-12T07:35:20Z</time>
      </trkpt>
      <trkpt lat="46.50703" lon="0.403">
        <ele>117</ele>
        <time>2021-09-12T07:35:21Z</time>
      </trkpt>
      <trkpt lat="46.50698" lon="0.40287">
        <ele>117.6</ele>
        <time>2021-09-12T07:35:27Z</time>
      </trkpt>
      <trkpt lat="46.50697" lon="0.4028">
        <ele>118</ele>
        <time>2021-09-12T07:35:29Z</time>
      </trkpt>
      <trkpt lat="46.50697" lon="0.40266">
        <ele>118.4</ele>
        <time>2021-09-12T07:35:33Z</time>
      </trkpt>
      <trkpt lat="46.50697" lon="0.40263">
        <ele>118.6</ele>
        <time>2021-09-12T07:35:34Z</time>
      </trkpt>
      <trkpt lat="46.50694" lon="0.40232">
        <ele>118.8</ele>
        <time>2021-09-12T07:35:42Z</time>
      </trkpt>
      <trkpt lat="46.50692" lon="0.40219">
        <ele>119</ele>
        <time>2021-09-12T07:35:43Z</time>
      </trkpt>
      <trkpt lat="46.50693" lon="0.402">
        <ele>119.6</ele>
        <time>2021-09-12T07:35:49Z</time>
      </trkpt>
      <trkpt lat="46.50699" lon="0.40163">
        <ele>119</ele>
        <time>2021-09-12T07:35:55Z</time>
      </trkpt>
      <trkpt lat="46.50706" lon="0.40121">
        <ele>118</ele>
        <time>2021-09-12T07:36:01Z</time>
      </trkpt>
      <trkpt lat="46.50713" lon="0.40094">
        <ele>117.2</ele>
        <time>2021-09-12T07:36:05Z</time>
      </trkpt>
      <trkpt lat="46.50719" lon="0.40073">
        <ele>116.8</ele>
        <time>2021-09-12T07:36:08Z</time>
      </trkpt>
      <trkpt lat="46.5073" lon="0.40036">
        <ele>115.4</ele>
        <time>2021-09-12T07:36:13Z</time>
      </trkpt>
      <trkpt lat="46.50732" lon="0.40028">
        <ele>115</ele>
        <time>2021-09-12T07:36:14Z</time>
      </trkpt>
      <trkpt lat="46.5074" lon="0.39998">
        <ele>114.2</ele>
        <time>2021-09-12T07:36:18Z</time>
      </trkpt>
      <trkpt lat="46.50748" lon="0.39967">
        <ele>113.6</ele>
        <time>2021-09-12T07:36:22Z</time>
      </trkpt>
      <trkpt lat="46.50753" lon="0.39951">
        <ele>113.2</ele>
        <time>2021-09-12T07:36:24Z</time>
      </trkpt>
      <trkpt lat="46.50762" lon="0.39919">
        <ele>112</ele>
        <time>2021-09-12T07:36:28Z</time>
      </trkpt>
      <trkpt lat="46.50765" lon="0.39911">
        <ele>111.8</ele>
        <time>2021-09-12T07:36:29Z</time>
      </trkpt>
      <trkpt lat="46.50775" lon="0.39878">
        <ele>110.8</ele>
        <time>2021-09-12T07:36:33Z</time>
      </trkpt>
      <trkpt lat="46.50783" lon="0.39851">
        <ele>110.2</ele>
        <time>2021-09-12T07:36:36Z</time>
      </trkpt>
      <trkpt lat="46.50785" lon="0.39842">
        <ele>109.8</ele>
        <time>2021-09-12T07:36:37Z</time>
      </trkpt>
      <trkpt lat="46.50794" lon="0.39805">
        <ele>109.4</ele>
        <time>2021-09-12T07:36:41Z</time>
      </trkpt>
      <trkpt lat="46.50797" lon="0.39796">
        <ele>108.8</ele>
        <time>2021-09-12T07:36:42Z</time>
      </trkpt>
      <trkpt lat="46.508" lon="0.39788">
        <ele>108.2</ele>
        <time>2021-09-12T07:36:43Z</time>
      </trkpt>
      <trkpt lat="46.50809" lon="0.39775">
        <ele>107.2</ele>
        <time>2021-09-12T07:36:45Z</time>
      </trkpt>
      <trkpt lat="46.50813" lon="0.3977">
        <ele>106.8</ele>
        <time>2021-09-12T07:36:46Z</time>
      </trkpt>
      <trkpt lat="46.50822" lon="0.3976">
        <ele>105.8</ele>
        <time>2021-09-12T07:36:48Z</time>
      </trkpt>
      <trkpt lat="46.50825" lon="0.39756">
        <ele>105.2</ele>
        <time>2021-09-12T07:36:49Z</time>
      </trkpt>
      <trkpt lat="46.50828" lon="0.39754">
        <ele>104.2</ele>
        <time>2021-09-12T07:36:50Z</time>
      </trkpt>
      <trkpt lat="46.5083" lon="0.39752">
        <ele>103.2</ele>
        <time>2021-09-12T07:36:51Z</time>
      </trkpt>
      <trkpt lat="46.5083" lon="0.3975">
        <ele>102.4</ele>
        <time>2021-09-12T07:36:52Z</time>
      </trkpt>
      <trkpt lat="46.5083" lon="0.39748">
        <ele>102</ele>
        <time>2021-09-12T07:36:53Z</time>
      </trkpt>
      <trkpt lat="46.50829" lon="0.39747">
        <ele>101.6</ele>
        <time>2021-09-12T07:36:54Z</time>
      </trkpt>
      <trkpt lat="46.50827" lon="0.39746">
        <ele>101</ele>
        <time>2021-09-12T07:36:56Z</time>
      </trkpt>
      <trkpt lat="46.50822" lon="0.39748">
        <ele>100.8</ele>
        <time>2021-09-12T07:36:59Z</time>
      </trkpt>
      <trkpt lat="46.50819" lon="0.39748">
        <ele>100.8</ele>
        <time>2021-09-12T07:37:01Z</time>
      </trkpt>
      <trkpt lat="46.50813" lon="0.39745">
        <ele>100.6</ele>
        <time>2021-09-12T07:37:04Z</time>
      </trkpt>
      <trkpt lat="46.50805" lon="0.39742">
        <ele>100.4</ele>
        <time>2021-09-12T07:37:07Z</time>
      </trkpt>
      <trkpt lat="46.50798" lon="0.3974">
        <ele>100.2</ele>
        <time>2021-09-12T07:37:10Z</time>
      </trkpt>
      <trkpt lat="46.50788" lon="0.3974">
        <ele>99.8</ele>
        <time>2021-09-12T07:37:14Z</time>
      </trkpt>
      <trkpt lat="46.50779" lon="0.39741">
        <ele>99.6</ele>
        <time>2021-09-12T07:37:17Z</time>
      </trkpt>
      <trkpt lat="46.50773" lon="0.39742">
        <ele>99.6</ele>
        <time>2021-09-12T07:37:19Z</time>
      </trkpt>
      <trkpt lat="46.50765" lon="0.39742">
        <ele>100</ele>
        <time>2021-09-12T07:37:23Z</time>
      </trkpt>
      <trkpt lat="46.50751" lon="0.39745">
        <ele>99.4</ele>
        <time>2021-09-12T07:37:29Z</time>
      </trkpt>
      <trkpt lat="46.50743" lon="0.39748">
        <ele>99.2</ele>
        <time>2021-09-12T07:37:32Z</time>
      </trkpt>
      <trkpt lat="46.50738" lon="0.39747">
        <ele>99</ele>
        <time>2021-09-12T07:37:34Z</time>
      </trkpt>
      <trkpt lat="46.5073" lon="0.39745">
        <ele>99</ele>
        <time>2021-09-12T07:37:36Z</time>
      </trkpt>
      <trkpt lat="46.50721" lon="0.39747">
        <ele>99</ele>
        <time>2021-09-12T07:37:38Z</time>
      </trkpt>
      <trkpt lat="46.50712" lon="0.3975">
        <ele>99</ele>
        <time>2021-09-12T07:37:40Z</time>
      </trkpt>
      <trkpt lat="46.50709" lon="0.39751">
        <ele>98.8</ele>
        <time>2021-09-12T07:37:41Z</time>
      </trkpt>
      <trkpt lat="46.50705" lon="0.39752">
        <ele>98.6</ele>
        <time>2021-09-12T07:37:42Z</time>
      </trkpt>
      <trkpt lat="46.50701" lon="0.39753">
        <ele>98.6</ele>
        <time>2021-09-12T07:37:43Z</time>
      </trkpt>
      <trkpt lat="46.50685" lon="0.39755">
        <ele>98.8</ele>
        <time>2021-09-12T07:37:47Z</time>
      </trkpt>
      <trkpt lat="46.50673" lon="0.39756">
        <ele>99</ele>
        <time>2021-09-12T07:37:50Z</time>
      </trkpt>
      <trkpt lat="46.50664" lon="0.39758">
        <ele>98.6</ele>
        <time>2021-09-12T07:37:52Z</time>
      </trkpt>
      <trkpt lat="46.50638" lon="0.3976">
        <ele>98.6</ele>
        <time>2021-09-12T07:37:57Z</time>
      </trkpt>
      <trkpt lat="46.50609" lon="0.39761">
        <ele>98.6</ele>
        <time>2021-09-12T07:38:03Z</time>
      </trkpt>
      <trkpt lat="46.50604" lon="0.3976">
        <ele>98.6</ele>
        <time>2021-09-12T07:38:04Z</time>
      </trkpt>
      <trkpt lat="46.50591" lon="0.39758">
        <ele>98.8</ele>
        <time>2021-09-12T07:38:07Z</time>
      </trkpt>
      <trkpt lat="46.50579" lon="0.39754">
        <ele>99</ele>
        <time>2021-09-12T07:38:10Z</time>
      </trkpt>
      <trkpt lat="46.50566" lon="0.39749">
        <ele>99.2</ele>
        <time>2021-09-12T07:38:13Z</time>
      </trkpt>
      <trkpt lat="46.50543" lon="0.39744">
        <ele>99.6</ele>
        <time>2021-09-12T07:38:19Z</time>
      </trkpt>
      <trkpt lat="46.50527" lon="0.3974">
        <ele>99.8</ele>
        <time>2021-09-12T07:38:22Z</time>
      </trkpt>
      <trkpt lat="46.50522" lon="0.39738">
        <ele>100</ele>
        <time>2021-09-12T07:38:23Z</time>
      </trkpt>
      <trkpt lat="46.50518" lon="0.39735">
        <ele>100</ele>
        <time>2021-09-12T07:38:24Z</time>
      </trkpt>
      <trkpt lat="46.50498" lon="0.39721">
        <ele>100.6</ele>
        <time>2021-09-12T07:38:30Z</time>
      </trkpt>
      <trkpt lat="46.50489" lon="0.39713">
        <ele>101</ele>
        <time>2021-09-12T07:38:31Z</time>
      </trkpt>
      <trkpt lat="46.50485" lon="0.39705">
        <ele>101</ele>
        <time>2021-09-12T07:38:35Z</time>
      </trkpt>
      <trkpt lat="46.50482" lon="0.39696">
        <ele>101</ele>
        <time>2021-09-12T07:38:37Z</time>
      </trkpt>
      <trkpt lat="46.50474" lon="0.39673">
        <ele>101.2</ele>
        <time>2021-09-12T07:38:41Z</time>
      </trkpt>
      <trkpt lat="46.50471" lon="0.39666">
        <ele>101.2</ele>
        <time>2021-09-12T07:38:42Z</time>
      </trkpt>
      <trkpt lat="46.50467" lon="0.39642">
        <ele>101.2</ele>
        <time>2021-09-12T07:38:47Z</time>
      </trkpt>
      <trkpt lat="46.50468" lon="0.39631">
        <ele>101.2</ele>
        <time>2021-09-12T07:38:49Z</time>
      </trkpt>
      <trkpt lat="46.5047" lon="0.39613">
        <ele>101.2</ele>
        <time>2021-09-12T07:38:52Z</time>
      </trkpt>
      <trkpt lat="46.50466" lon="0.3959">
        <ele>101.2</ele>
        <time>2021-09-12T07:38:55Z</time>
      </trkpt>
      <trkpt lat="46.50462" lon="0.39573">
        <ele>101</ele>
        <time>2021-09-12T07:38:57Z</time>
      </trkpt>
      <trkpt lat="46.50463" lon="0.39564">
        <ele>101</ele>
        <time>2021-09-12T07:38:58Z</time>
      </trkpt>
      <trkpt lat="46.50473" lon="0.39527">
        <ele>100.4</ele>
        <time>2021-09-12T07:39:03Z</time>
      </trkpt>
      <trkpt lat="46.50475" lon="0.39513">
        <ele>100.4</ele>
        <time>2021-09-12T07:39:05Z</time>
      </trkpt>
      <trkpt lat="46.50473" lon="0.39501">
        <ele>100.6</ele>
        <time>2021-09-12T07:39:07Z</time>
      </trkpt>
      <trkpt lat="46.5046" lon="0.39468">
        <ele>100.8</ele>
        <time>2021-09-12T07:39:13Z</time>
      </trkpt>
      <trkpt lat="46.50457" lon="0.39464">
        <ele>101</ele>
        <time>2021-09-12T07:39:14Z</time>
      </trkpt>
      <trkpt lat="46.50454" lon="0.3946">
        <ele>101</ele>
        <time>2021-09-12T07:39:15Z</time>
      </trkpt>
      <trkpt lat="46.5044" lon="0.39443">
        <ele>102.2</ele>
        <time>2021-09-12T07:39:19Z</time>
      </trkpt>
      <trkpt lat="46.50437" lon="0.39439">
        <ele>102.2</ele>
        <time>2021-09-12T07:39:20Z</time>
      </trkpt>
      <trkpt lat="46.50427" lon="0.39428">
        <ele>102.6</ele>
        <time>2021-09-12T07:39:23Z</time>
      </trkpt>
      <trkpt lat="46.50421" lon="0.39424">
        <ele>102.6</ele>
        <time>2021-09-12T07:39:25Z</time>
      </trkpt>
      <trkpt lat="46.50405" lon="0.39412">
        <ele>103</ele>
        <time>2021-09-12T07:39:29Z</time>
      </trkpt>
      <trkpt lat="46.50392" lon="0.39399">
        <ele>103.2</ele>
        <time>2021-09-12T07:39:32Z</time>
      </trkpt>
      <trkpt lat="46.5038" lon="0.39387">
        <ele>103.4</ele>
        <time>2021-09-12T07:39:35Z</time>
      </trkpt>
      <trkpt lat="46.50374" lon="0.39378">
        <ele>103.8</ele>
        <time>2021-09-12T07:39:37Z</time>
      </trkpt>
      <trkpt lat="46.50358" lon="0.39362">
        <ele>104.2</ele>
        <time>2021-09-12T07:39:41Z</time>
      </trkpt>
      <trkpt lat="46.50348" lon="0.39355">
        <ele>104.4</ele>
        <time>2021-09-12T07:39:43Z</time>
      </trkpt>
      <trkpt lat="46.50338" lon="0.39333">
        <ele>105.6</ele>
        <time>2021-09-12T07:39:49Z</time>
      </trkpt>
      <trkpt lat="46.5033" lon="0.39311">
        <ele>106.6</ele>
        <time>2021-09-12T07:39:55Z</time>
      </trkpt>
      <trkpt lat="46.50326" lon="0.39302">
        <ele>107.8</ele>
        <time>2021-09-12T07:39:58Z</time>
      </trkpt>
      <trkpt lat="46.50321" lon="0.39288">
        <ele>108.2</ele>
        <time>2021-09-12T07:40:01Z</time>
      </trkpt>
      <trkpt lat="46.50312" lon="0.39261">
        <ele>108.8</ele>
        <time>2021-09-12T07:40:07Z</time>
      </trkpt>
      <trkpt lat="46.50312" lon="0.39258">
        <ele>109.2</ele>
        <time>2021-09-12T07:40:08Z</time>
      </trkpt>
      <trkpt lat="46.50312" lon="0.39239">
        <ele>109.8</ele>
        <time>2021-09-12T07:40:12Z</time>
      </trkpt>
      <trkpt lat="46.50313" lon="0.39225">
        <ele>110.2</ele>
        <time>2021-09-12T07:40:15Z</time>
      </trkpt>
      <trkpt lat="46.50315" lon="0.39209">
        <ele>111</ele>
        <time>2021-09-12T07:40:19Z</time>
      </trkpt>
      <trkpt lat="46.50316" lon="0.39206">
        <ele>111.2</ele>
        <time>2021-09-12T07:40:20Z</time>
      </trkpt>
      <trkpt lat="46.50314" lon="0.3919">
        <ele>112</ele>
        <time>2021-09-12T07:40:24Z</time>
      </trkpt>
      <trkpt lat="46.50314" lon="0.39181">
        <ele>112.4</ele>
        <time>2021-09-12T07:40:26Z</time>
      </trkpt>
      <trkpt lat="46.50314" lon="0.3916">
        <ele>113.2</ele>
        <time>2021-09-12T07:40:31Z</time>
      </trkpt>
      <trkpt lat="46.50312" lon="0.39151">
        <ele>113.6</ele>
        <time>2021-09-12T07:40:33Z</time>
      </trkpt>
      <trkpt lat="46.50312" lon="0.39129">
        <ele>114.2</ele>
        <time>2021-09-12T07:40:38Z</time>
      </trkpt>
      <trkpt lat="46.50309" lon="0.39116">
        <ele>114.6</ele>
        <time>2021-09-12T07:40:41Z</time>
      </trkpt>
      <trkpt lat="46.50309" lon="0.39105">
        <ele>115.2</ele>
        <time>2021-09-12T07:40:44Z</time>
      </trkpt>
      <trkpt lat="46.50309" lon="0.39092">
        <ele>115.6</ele>
        <time>2021-09-12T07:40:47Z</time>
      </trkpt>
      <trkpt lat="46.50306" lon="0.39076">
        <ele>116.4</ele>
        <time>2021-09-12T07:40:51Z</time>
      </trkpt>
      <trkpt lat="46.50305" lon="0.39063">
        <ele>116.8</ele>
        <time>2021-09-12T07:40:54Z</time>
      </trkpt>
      <trkpt lat="46.50304" lon="0.39045">
        <ele>117.6</ele>
        <time>2021-09-12T07:40:59Z</time>
      </trkpt>
      <trkpt lat="46.50304" lon="0.39041">
        <ele>117.8</ele>
        <time>2021-09-12T07:41:00Z</time>
      </trkpt>
      <trkpt lat="46.50302" lon="0.39023">
        <ele>118.4</ele>
        <time>2021-09-12T07:41:05Z</time>
      </trkpt>
      <trkpt lat="46.50298" lon="0.39005">
        <ele>118.6</ele>
        <time>2021-09-12T07:41:09Z</time>
      </trkpt>
      <trkpt lat="46.50297" lon="0.38996">
        <ele>118.8</ele>
        <time>2021-09-12T07:41:11Z</time>
      </trkpt>
      <trkpt lat="46.50295" lon="0.3897">
        <ele>119.4</ele>
        <time>2021-09-12T07:41:16Z</time>
      </trkpt>
      <trkpt lat="46.50294" lon="0.3896">
        <ele>119.6</ele>
        <time>2021-09-12T07:41:18Z</time>
      </trkpt>
      <trkpt lat="46.50296" lon="0.38934">
        <ele>120</ele>
        <time>2021-09-12T07:41:23Z</time>
      </trkpt>
      <trkpt lat="46.50303" lon="0.38904">
        <ele>120.8</ele>
        <time>2021-09-12T07:41:29Z</time>
      </trkpt>
      <trkpt lat="46.50307" lon="0.38875">
        <ele>121.6</ele>
        <time>2021-09-12T07:41:35Z</time>
      </trkpt>
      <trkpt lat="46.50308" lon="0.38864">
        <ele>122</ele>
        <time>2021-09-12T07:41:37Z</time>
      </trkpt>
      <trkpt lat="46.50307" lon="0.38848">
        <ele>122.2</ele>
        <time>2021-09-12T07:41:40Z</time>
      </trkpt>
      <trkpt lat="46.50311" lon="0.38821">
        <ele>122.8</ele>
        <time>2021-09-12T07:41:46Z</time>
      </trkpt>
      <trkpt lat="46.50311" lon="0.38793">
        <ele>123</ele>
        <time>2021-09-12T07:41:52Z</time>
      </trkpt>
      <trkpt lat="46.50313" lon="0.38783">
        <ele>123.2</ele>
        <time>2021-09-12T07:41:53Z</time>
      </trkpt>
      <trkpt lat="46.50317" lon="0.38755">
        <ele>123.6</ele>
        <time>2021-09-12T07:41:59Z</time>
      </trkpt>
      <trkpt lat="46.50318" lon="0.38748">
        <ele>123.8</ele>
        <time>2021-09-12T07:42:00Z</time>
      </trkpt>
      <trkpt lat="46.50325" lon="0.3871">
        <ele>124.2</ele>
        <time>2021-09-12T07:42:06Z</time>
      </trkpt>
      <trkpt lat="46.50327" lon="0.38705">
        <ele>124.4</ele>
        <time>2021-09-12T07:42:07Z</time>
      </trkpt>
      <trkpt lat="46.50335" lon="0.38681">
        <ele>124.6</ele>
        <time>2021-09-12T07:42:11Z</time>
      </trkpt>
      <trkpt lat="46.50338" lon="0.38668">
        <ele>124.6</ele>
        <time>2021-09-12T07:42:13Z</time>
      </trkpt>
      <trkpt lat="46.5034" lon="0.38663">
        <ele>124.6</ele>
        <time>2021-09-12T07:42:14Z</time>
      </trkpt>
      <trkpt lat="46.5034" lon="0.38637">
        <ele>125</ele>
        <time>2021-09-12T07:42:18Z</time>
      </trkpt>
      <trkpt lat="46.50345" lon="0.38619">
        <ele>125.2</ele>
        <time>2021-09-12T07:42:21Z</time>
      </trkpt>
      <trkpt lat="46.50349" lon="0.38606">
        <ele>125.4</ele>
        <time>2021-09-12T07:42:23Z</time>
      </trkpt>
      <trkpt lat="46.50349" lon="0.38594">
        <ele>125.6</ele>
        <time>2021-09-12T07:42:25Z</time>
      </trkpt>
      <trkpt lat="46.50349" lon="0.38581">
        <ele>125.6</ele>
        <time>2021-09-12T07:42:27Z</time>
      </trkpt>
      <trkpt lat="46.5035" lon="0.38557">
        <ele>125.6</ele>
        <time>2021-09-12T07:42:31Z</time>
      </trkpt>
      <trkpt lat="46.5035" lon="0.38552">
        <ele>125.6</ele>
        <time>2021-09-12T07:42:32Z</time>
      </trkpt>
      <trkpt lat="46.50346" lon="0.38531">
        <ele>125.6</ele>
        <time>2021-09-12T07:42:35Z</time>
      </trkpt>
      <trkpt lat="46.50345" lon="0.38511">
        <ele>125.8</ele>
        <time>2021-09-12T07:42:38Z</time>
      </trkpt>
      <trkpt lat="46.50348" lon="0.38486">
        <ele>126</ele>
        <time>2021-09-12T07:42:43Z</time>
      </trkpt>
      <trkpt lat="46.50349" lon="0.38475">
        <ele>126.2</ele>
        <time>2021-09-12T07:42:45Z</time>
      </trkpt>
      <trkpt lat="46.50349" lon="0.38468">
        <ele>126.4</ele>
        <time>2021-09-12T07:42:46Z</time>
      </trkpt>
      <trkpt lat="46.5035" lon="0.38455">
        <ele>126.8</ele>
        <time>2021-09-12T07:42:48Z</time>
      </trkpt>
      <trkpt lat="46.50351" lon="0.38431">
        <ele>127.4</ele>
        <time>2021-09-12T07:42:52Z</time>
      </trkpt>
      <trkpt lat="46.5035" lon="0.38415">
        <ele>128</ele>
        <time>2021-09-12T07:42:55Z</time>
      </trkpt>
      <trkpt lat="46.50346" lon="0.38402">
        <ele>128.4</ele>
        <time>2021-09-12T07:42:57Z</time>
      </trkpt>
      <trkpt lat="46.50342" lon="0.38365">
        <ele>128.8</ele>
        <time>2021-09-12T07:43:03Z</time>
      </trkpt>
      <trkpt lat="46.50341" lon="0.38349">
        <ele>129.4</ele>
        <time>2021-09-12T07:43:06Z</time>
      </trkpt>
      <trkpt lat="46.50342" lon="0.38346">
        <ele>129.6</ele>
        <time>2021-09-12T07:43:07Z</time>
      </trkpt>
      <trkpt lat="46.50342" lon="0.38344">
        <ele>129.6</ele>
        <time>2021-09-12T07:43:08Z</time>
      </trkpt>
      <trkpt lat="46.50346" lon="0.38341">
        <ele>129.6</ele>
        <time>2021-09-12T07:43:11Z</time>
      </trkpt>
      <trkpt lat="46.50348" lon="0.38343">
        <ele>129.6</ele>
        <time>2021-09-12T07:43:12Z</time>
      </trkpt>
      <trkpt lat="46.5035" lon="0.38343">
        <ele>129.6</ele>
        <time>2021-09-12T07:43:13Z</time>
      </trkpt>
      <trkpt lat="46.50355" lon="0.3834">
        <ele>129.8</ele>
        <time>2021-09-12T07:43:16Z</time>
      </trkpt>
      <trkpt lat="46.50365" lon="0.38319">
        <ele>130.2</ele>
        <time>2021-09-12T07:43:22Z</time>
      </trkpt>
      <trkpt lat="46.50377" lon="0.38296">
        <ele>130.4</ele>
        <time>2021-09-12T07:43:28Z</time>
      </trkpt>
      <trkpt lat="46.5039" lon="0.38275">
        <ele>130.8</ele>
        <time>2021-09-12T07:43:33Z</time>
      </trkpt>
      <trkpt lat="46.50394" lon="0.38267">
        <ele>130.6</ele>
        <time>2021-09-12T07:43:35Z</time>
      </trkpt>
      <trkpt lat="46.50411" lon="0.38241">
        <ele>130.6</ele>
        <time>2021-09-12T07:43:41Z</time>
      </trkpt>
      <trkpt lat="46.50431" lon="0.38213">
        <ele>130.8</ele>
        <time>2021-09-12T07:43:47Z</time>
      </trkpt>
      <trkpt lat="46.5045" lon="0.38185">
        <ele>131</ele>
        <time>2021-09-12T07:43:53Z</time>
      </trkpt>
      <trkpt lat="46.50456" lon="0.38177">
        <ele>130.8</ele>
        <time>2021-09-12T07:43:55Z</time>
      </trkpt>
      <trkpt lat="46.50463" lon="0.38165">
        <ele>130.8</ele>
        <time>2021-09-12T07:43:58Z</time>
      </trkpt>
      <trkpt lat="46.50477" lon="0.38145">
        <ele>130.8</ele>
        <time>2021-09-12T07:44:02Z</time>
      </trkpt>
      <trkpt lat="46.50495" lon="0.38124">
        <ele>130.8</ele>
        <time>2021-09-12T07:44:08Z</time>
      </trkpt>
      <trkpt lat="46.50511" lon="0.38105">
        <ele>130.8</ele>
        <time>2021-09-12T07:44:14Z</time>
      </trkpt>
      <trkpt lat="46.50519" lon="0.38092">
        <ele>130.8</ele>
        <time>2021-09-12T07:44:17Z</time>
      </trkpt>
      <trkpt lat="46.50521" lon="0.38088">
        <ele>131</ele>
        <time>2021-09-12T07:44:18Z</time>
      </trkpt>
      <trkpt lat="46.50528" lon="0.38077">
        <ele>131</ele>
        <time>2021-09-12T07:44:21Z</time>
      </trkpt>
      <trkpt lat="46.50536" lon="0.38065">
        <ele>131</ele>
        <time>2021-09-12T07:44:24Z</time>
      </trkpt>
      <trkpt lat="46.50543" lon="0.38056">
        <ele>130.6</ele>
        <time>2021-09-12T07:44:27Z</time>
      </trkpt>
      <trkpt lat="46.50548" lon="0.38046">
        <ele>130.6</ele>
        <time>2021-09-12T07:44:29Z</time>
      </trkpt>
      <trkpt lat="46.50553" lon="0.38039">
        <ele>130.4</ele>
        <time>2021-09-12T07:44:31Z</time>
      </trkpt>
      <trkpt lat="46.50561" lon="0.38029">
        <ele>130.4</ele>
        <time>2021-09-12T07:44:33Z</time>
      </trkpt>
      <trkpt lat="46.50565" lon="0.38024">
        <ele>130.4</ele>
        <time>2021-09-12T07:44:34Z</time>
      </trkpt>
      <trkpt lat="46.50593" lon="0.37985">
        <ele>129.2</ele>
        <time>2021-09-12T07:44:40Z</time>
      </trkpt>
      <trkpt lat="46.50609" lon="0.37961">
        <ele>128.2</ele>
        <time>2021-09-12T07:44:44Z</time>
      </trkpt>
      <trkpt lat="46.50617" lon="0.37948">
        <ele>127.2</ele>
        <time>2021-09-12T07:44:46Z</time>
      </trkpt>
      <trkpt lat="46.50628" lon="0.37936">
        <ele>126.4</ele>
        <time>2021-09-12T07:44:48Z</time>
      </trkpt>
      <trkpt lat="46.50633" lon="0.37929">
        <ele>126</ele>
        <time>2021-09-12T07:44:49Z</time>
      </trkpt>
      <trkpt lat="46.50638" lon="0.37922">
        <ele>125.8</ele>
        <time>2021-09-12T07:44:50Z</time>
      </trkpt>
      <trkpt lat="46.50645" lon="0.37908">
        <ele>125.4</ele>
        <time>2021-09-12T07:44:51Z</time>
      </trkpt>
      <trkpt lat="46.50645" lon="0.37908">
        <ele>124.8</ele>
        <time>2021-09-12T07:44:53Z</time>
      </trkpt>
      <trkpt lat="46.50661" lon="0.37876">
        <ele>123.4</ele>
        <time>2021-09-12T07:44:56Z</time>
      </trkpt>
      <trkpt lat="46.50672" lon="0.37858">
        <ele>122.2</ele>
        <time>2021-09-12T07:44:58Z</time>
      </trkpt>
      <trkpt lat="46.50677" lon="0.37849">
        <ele>121.2</ele>
        <time>2021-09-12T07:44:59Z</time>
      </trkpt>
      <trkpt lat="46.50683" lon="0.3784">
        <ele>120.6</ele>
        <time>2021-09-12T07:45:00Z</time>
      </trkpt>
      <trkpt lat="46.50694" lon="0.37822">
        <ele>119</ele>
        <time>2021-09-12T07:45:02Z</time>
      </trkpt>
      <trkpt lat="46.507" lon="0.37812">
        <ele>117.6</ele>
        <time>2021-09-12T07:45:03Z</time>
      </trkpt>
      <trkpt lat="46.50706" lon="0.37803">
        <ele>116.4</ele>
        <time>2021-09-12T07:45:04Z</time>
      </trkpt>
      <trkpt lat="46.50713" lon="0.37794">
        <ele>115.8</ele>
        <time>2021-09-12T07:45:05Z</time>
      </trkpt>
      <trkpt lat="46.50725" lon="0.37779">
        <ele>115.2</ele>
        <time>2021-09-12T07:45:07Z</time>
      </trkpt>
      <trkpt lat="46.50734" lon="0.37765">
        <ele>114.8</ele>
        <time>2021-09-12T07:45:10Z</time>
      </trkpt>
      <trkpt lat="46.50747" lon="0.37742">
        <ele>115.4</ele>
        <time>2021-09-12T07:45:15Z</time>
      </trkpt>
      <trkpt lat="46.50753" lon="0.37731">
        <ele>116.2</ele>
        <time>2021-09-12T07:45:17Z</time>
      </trkpt>
      <trkpt lat="46.50767" lon="0.37703">
        <ele>117.2</ele>
        <time>2021-09-12T07:45:22Z</time>
      </trkpt>
      <trkpt lat="46.50771" lon="0.37698">
        <ele>117.2</ele>
        <time>2021-09-12T07:45:23Z</time>
      </trkpt>
      <trkpt lat="46.50782" lon="0.37671">
        <ele>116.8</ele>
        <time>2021-09-12T07:45:27Z</time>
      </trkpt>
      <trkpt lat="46.50792" lon="0.37647">
        <ele>116</ele>
        <time>2021-09-12T07:45:30Z</time>
      </trkpt>
      <trkpt lat="46.50801" lon="0.3763">
        <ele>116</ele>
        <time>2021-09-12T07:45:32Z</time>
      </trkpt>
      <trkpt lat="46.50805" lon="0.37623">
        <ele>116</ele>
        <time>2021-09-12T07:45:33Z</time>
      </trkpt>
      <trkpt lat="46.50813" lon="0.37604">
        <ele>116.8</ele>
        <time>2021-09-12T07:45:36Z</time>
      </trkpt>
      <trkpt lat="46.50812" lon="0.37598">
        <ele>117</ele>
        <time>2021-09-12T07:45:37Z</time>
      </trkpt>
      <trkpt lat="46.50815" lon="0.3759">
        <ele>117.6</ele>
        <time>2021-09-12T07:45:39Z</time>
      </trkpt>
      <trkpt lat="46.50816" lon="0.37587">
        <ele>118</ele>
        <time>2021-09-12T07:45:40Z</time>
      </trkpt>
      <trkpt lat="46.50819" lon="0.37578">
        <ele>119.2</ele>
        <time>2021-09-12T07:45:43Z</time>
      </trkpt>
      <trkpt lat="46.50822" lon="0.37568">
        <ele>120.2</ele>
        <time>2021-09-12T07:45:46Z</time>
      </trkpt>
      <trkpt lat="46.50823" lon="0.37565">
        <ele>120.2</ele>
        <time>2021-09-12T07:45:47Z</time>
      </trkpt>
      <trkpt lat="46.50827" lon="0.3755">
        <ele>121.8</ele>
        <time>2021-09-12T07:45:52Z</time>
      </trkpt>
      <trkpt lat="46.5083" lon="0.37539">
        <ele>123</ele>
        <time>2021-09-12T07:45:56Z</time>
      </trkpt>
      <trkpt lat="46.50833" lon="0.37527">
        <ele>123.8</ele>
        <time>2021-09-12T07:46:00Z</time>
      </trkpt>
      <trkpt lat="46.50834" lon="0.37522">
        <ele>124.2</ele>
        <time>2021-09-12T07:46:02Z</time>
      </trkpt>
      <trkpt lat="46.50833" lon="0.3752">
        <ele>124.4</ele>
        <time>2021-09-12T07:46:03Z</time>
      </trkpt>
      <trkpt lat="46.50832" lon="0.37518">
        <ele>124.6</ele>
        <time>2021-09-12T07:46:04Z</time>
      </trkpt>
      <trkpt lat="46.50832" lon="0.37516">
        <ele>124.8</ele>
        <time>2021-09-12T07:46:05Z</time>
      </trkpt>
      <trkpt lat="46.5083" lon="0.37503">
        <ele>125.2</ele>
        <time>2021-09-12T07:46:09Z</time>
      </trkpt>
      <trkpt lat="46.50826" lon="0.37497">
        <ele>125.4</ele>
        <time>2021-09-12T07:46:11Z</time>
      </trkpt>
      <trkpt lat="46.50826" lon="0.37495">
        <ele>125.6</ele>
        <time>2021-09-12T07:46:12Z</time>
      </trkpt>
      <trkpt lat="46.50825" lon="0.37488">
        <ele>126</ele>
        <time>2021-09-12T07:46:14Z</time>
      </trkpt>
      <trkpt lat="46.50825" lon="0.37482">
        <ele>126.2</ele>
        <time>2021-09-12T07:46:16Z</time>
      </trkpt>
      <trkpt lat="46.50826" lon="0.37478">
        <ele>126.4</ele>
        <time>2021-09-12T07:46:17Z</time>
      </trkpt>
      <trkpt lat="46.50828" lon="0.37473">
        <ele>126.8</ele>
        <time>2021-09-12T07:46:19Z</time>
      </trkpt>
      <trkpt lat="46.50831" lon="0.37462">
        <ele>127.6</ele>
        <time>2021-09-12T07:46:23Z</time>
      </trkpt>
      <trkpt lat="46.50834" lon="0.37455">
        <ele>128.2</ele>
        <time>2021-09-12T07:46:25Z</time>
      </trkpt>
      <trkpt lat="46.50835" lon="0.37449">
        <ele>128.6</ele>
        <time>2021-09-12T07:46:28Z</time>
      </trkpt>
      <trkpt lat="46.50836" lon="0.37447">
        <ele>128.6</ele>
        <time>2021-09-12T07:46:29Z</time>
      </trkpt>
      <trkpt lat="46.5084" lon="0.37443">
        <ele>128.8</ele>
        <time>2021-09-12T07:46:31Z</time>
      </trkpt>
      <trkpt lat="46.50843" lon="0.37441">
        <ele>129</ele>
        <time>2021-09-12T07:46:33Z</time>
      </trkpt>
      <trkpt lat="46.50846" lon="0.37442">
        <ele>129.2</ele>
        <time>2021-09-12T07:46:35Z</time>
      </trkpt>
      <trkpt lat="46.50851" lon="0.3744">
        <ele>129.2</ele>
        <time>2021-09-12T07:46:38Z</time>
      </trkpt>
      <trkpt lat="46.50852" lon="0.37438">
        <ele>129.4</ele>
        <time>2021-09-12T07:46:40Z</time>
      </trkpt>
      <trkpt lat="46.50852" lon="0.37436">
        <ele>129.4</ele>
        <time>2021-09-12T07:46:42Z</time>
      </trkpt>
      <trkpt lat="46.50851" lon="0.37437">
        <ele>129.4</ele>
        <time>2021-09-12T07:46:44Z</time>
      </trkpt>
      <trkpt lat="46.50851" lon="0.37438">
        <ele>129.4</ele>
        <time>2021-09-12T07:46:45Z</time>
      </trkpt>
      <trkpt lat="46.50854" lon="0.37445">
        <ele>129.2</ele>
        <time>2021-09-12T07:46:48Z</time>
      </trkpt>
      <trkpt lat="46.50864" lon="0.37465">
        <ele>128.8</ele>
        <time>2021-09-12T07:46:53Z</time>
      </trkpt>
      <trkpt lat="46.50867" lon="0.37475">
        <ele>128.6</ele>
        <time>2021-09-12T07:46:55Z</time>
      </trkpt>
      <trkpt lat="46.50873" lon="0.37492">
        <ele>128.4</ele>
        <time>2021-09-12T07:46:58Z</time>
      </trkpt>
      <trkpt lat="46.50883" lon="0.37516">
        <ele>128.2</ele>
        <time>2021-09-12T07:47:02Z</time>
      </trkpt>
      <trkpt lat="46.50889" lon="0.37526">
        <ele>128.2</ele>
        <time>2021-09-12T07:47:04Z</time>
      </trkpt>
      <trkpt lat="46.50892" lon="0.3753">
        <ele>128.2</ele>
        <time>2021-09-12T07:47:05Z</time>
      </trkpt>
      <trkpt lat="46.50897" lon="0.37536">
        <ele>128.2</ele>
        <time>2021-09-12T07:47:07Z</time>
      </trkpt>
      <trkpt lat="46.50903" lon="0.37537">
        <ele>128.4</ele>
        <time>2021-09-12T07:47:08Z</time>
      </trkpt>
      <trkpt lat="46.50907" lon="0.37534">
        <ele>128.8</ele>
        <time>2021-09-12T07:47:11Z</time>
      </trkpt>
      <trkpt lat="46.50912" lon="0.37527">
        <ele>129.2</ele>
        <time>2021-09-12T07:47:14Z</time>
      </trkpt>
      <trkpt lat="46.50914" lon="0.37527">
        <ele>129.2</ele>
        <time>2021-09-12T07:47:15Z</time>
      </trkpt>
      <trkpt lat="46.50919" lon="0.37528">
        <ele>129.2</ele>
        <time>2021-09-12T07:47:17Z</time>
      </trkpt>
      <trkpt lat="46.50936" lon="0.37544">
        <ele>129.6</ele>
        <time>2021-09-12T07:47:22Z</time>
      </trkpt>
      <trkpt lat="46.50944" lon="0.37548">
        <ele>129.8</ele>
        <time>2021-09-12T07:47:24Z</time>
      </trkpt>
      <trkpt lat="46.50955" lon="0.37555">
        <ele>129.8</ele>
        <time>2021-09-12T07:47:27Z</time>
      </trkpt>
      <trkpt lat="46.50961" lon="0.3756">
        <ele>130</ele>
        <time>2021-09-12T07:47:29Z</time>
      </trkpt>
      <trkpt lat="46.50965" lon="0.37564">
        <ele>129.8</ele>
        <time>2021-09-12T07:47:31Z</time>
      </trkpt>
      <trkpt lat="46.50965" lon="0.37566">
        <ele>129.8</ele>
        <time>2021-09-12T07:47:32Z</time>
      </trkpt>
      <trkpt lat="46.50964" lon="0.37568">
        <ele>129.8</ele>
        <time>2021-09-12T07:47:33Z</time>
      </trkpt>
      <trkpt lat="46.50958" lon="0.37577">
        <ele>129.6</ele>
        <time>2021-09-12T07:47:36Z</time>
      </trkpt>
      <trkpt lat="46.50943" lon="0.37594">
        <ele>128.6</ele>
        <time>2021-09-12T07:47:41Z</time>
      </trkpt>
      <trkpt lat="46.50939" lon="0.37598">
        <ele>128.4</ele>
        <time>2021-09-12T07:47:42Z</time>
      </trkpt>
      <trkpt lat="46.50932" lon="0.37604">
        <ele>128.4</ele>
        <time>2021-09-12T07:47:44Z</time>
      </trkpt>
      <trkpt lat="46.50918" lon="0.37615">
        <ele>127.8</ele>
        <time>2021-09-12T07:47:47Z</time>
      </trkpt>
      <trkpt lat="46.50914" lon="0.3762">
        <ele>126.8</ele>
        <time>2021-09-12T07:47:48Z</time>
      </trkpt>
      <trkpt lat="46.50907" lon="0.3763">
        <ele>126</ele>
        <time>2021-09-12T07:47:50Z</time>
      </trkpt>
      <trkpt lat="46.50902" lon="0.37635">
        <ele>125.8</ele>
        <time>2021-09-12T07:47:51Z</time>
      </trkpt>
      <trkpt lat="46.50897" lon="0.37641">
        <ele>125.6</ele>
        <time>2021-09-12T07:47:52Z</time>
      </trkpt>
      <trkpt lat="46.50892" lon="0.37647">
        <ele>125.2</ele>
        <time>2021-09-12T07:47:53Z</time>
      </trkpt>
      <trkpt lat="46.50884" lon="0.37663">
        <ele>124.2</ele>
        <time>2021-09-12T07:47:55Z</time>
      </trkpt>
      <trkpt lat="46.5088" lon="0.37672">
        <ele>123.8</ele>
        <time>2021-09-12T07:47:56Z</time>
      </trkpt>
      <trkpt lat="46.50878" lon="0.37679">
        <ele>122.6</ele>
        <time>2021-09-12T07:47:57Z</time>
      </trkpt>
      <trkpt lat="46.50877" lon="0.37684">
        <ele>122</ele>
        <time>2021-09-12T07:47:58Z</time>
      </trkpt>
      <trkpt lat="46.50874" lon="0.37695">
        <ele>121.6</ele>
        <time>2021-09-12T07:48:00Z</time>
      </trkpt>
      <trkpt lat="46.50871" lon="0.37708">
        <ele>121.2</ele>
        <time>2021-09-12T07:48:02Z</time>
      </trkpt>
      <trkpt lat="46.5087" lon="0.37718">
        <ele>120.6</ele>
        <time>2021-09-12T07:48:04Z</time>
      </trkpt>
      <trkpt lat="46.5087" lon="0.37723">
        <ele>120</ele>
        <time>2021-09-12T07:48:05Z</time>
      </trkpt>
      <trkpt lat="46.50871" lon="0.37739">
        <ele>118.8</ele>
        <time>2021-09-12T07:48:08Z</time>
      </trkpt>
      <trkpt lat="46.50869" lon="0.37755">
        <ele>118</ele>
        <time>2021-09-12T07:48:11Z</time>
      </trkpt>
      <trkpt lat="46.50868" lon="0.3776">
        <ele>117.8</ele>
        <time>2021-09-12T07:48:12Z</time>
      </trkpt>
      <trkpt lat="46.50867" lon="0.37765">
        <ele>117.4</ele>
        <time>2021-09-12T07:48:13Z</time>
      </trkpt>
      <trkpt lat="46.50867" lon="0.37778">
        <ele>116.8</ele>
        <time>2021-09-12T07:48:15Z</time>
      </trkpt>
      <trkpt lat="46.5087" lon="0.37791">
        <ele>116.4</ele>
        <time>2021-09-12T07:48:17Z</time>
      </trkpt>
      <trkpt lat="46.50871" lon="0.37801">
        <ele>116</ele>
        <time>2021-09-12T07:48:18Z</time>
      </trkpt>
      <trkpt lat="46.50872" lon="0.37808">
        <ele>115.8</ele>
        <time>2021-09-12T07:48:19Z</time>
      </trkpt>
      <trkpt lat="46.50875" lon="0.37815">
        <ele>115</ele>
        <time>2021-09-12T07:48:20Z</time>
      </trkpt>
      <trkpt lat="46.50878" lon="0.37824">
        <ele>114.4</ele>
        <time>2021-09-12T07:48:21Z</time>
      </trkpt>
      <trkpt lat="46.50881" lon="0.37832">
        <ele>114.2</ele>
        <time>2021-09-12T07:48:22Z</time>
      </trkpt>
      <trkpt lat="46.50889" lon="0.37854">
        <ele>112.6</ele>
        <time>2021-09-12T07:48:25Z</time>
      </trkpt>
      <trkpt lat="46.50893" lon="0.37861">
        <ele>112</ele>
        <time>2021-09-12T07:48:26Z</time>
      </trkpt>
      <trkpt lat="46.50899" lon="0.37876">
        <ele>111.4</ele>
        <time>2021-09-12T07:48:28Z</time>
      </trkpt>
      <trkpt lat="46.50904" lon="0.37888">
        <ele>111.4</ele>
        <time>2021-09-12T07:48:30Z</time>
      </trkpt>
      <trkpt lat="46.50908" lon="0.37894">
        <ele>111.2</ele>
        <time>2021-09-12T07:48:31Z</time>
      </trkpt>
      <trkpt lat="46.50912" lon="0.37902">
        <ele>110.4</ele>
        <time>2021-09-12T07:48:33Z</time>
      </trkpt>
      <trkpt lat="46.50912" lon="0.37912">
        <ele>109.8</ele>
        <time>2021-09-12T07:48:35Z</time>
      </trkpt>
      <trkpt lat="46.50911" lon="0.37919">
        <ele>109.2</ele>
        <time>2021-09-12T07:48:37Z</time>
      </trkpt>
      <trkpt lat="46.5091" lon="0.37922">
        <ele>109.2</ele>
        <time>2021-09-12T07:48:38Z</time>
      </trkpt>
      <trkpt lat="46.50906" lon="0.37929">
        <ele>109.2</ele>
        <time>2021-09-12T07:48:40Z</time>
      </trkpt>
      <trkpt lat="46.50902" lon="0.37933">
        <ele>109.2</ele>
        <time>2021-09-12T07:48:42Z</time>
      </trkpt>
      <trkpt lat="46.50898" lon="0.37932">
        <ele>109.4</ele>
        <time>2021-09-12T07:48:44Z</time>
      </trkpt>
      <trkpt lat="46.50897" lon="0.3793">
        <ele>109.4</ele>
        <time>2021-09-12T07:48:45Z</time>
      </trkpt>
      <trkpt lat="46.50895" lon="0.37927">
        <ele>109.4</ele>
        <time>2021-09-12T07:48:46Z</time>
      </trkpt>
      <trkpt lat="46.50892" lon="0.37922">
        <ele>109.4</ele>
        <time>2021-09-12T07:48:48Z</time>
      </trkpt>
      <trkpt lat="46.50889" lon="0.37916">
        <ele>109.6</ele>
        <time>2021-09-12T07:48:50Z</time>
      </trkpt>
      <trkpt lat="46.50882" lon="0.37889">
        <ele>110</ele>
        <time>2021-09-12T07:48:56Z</time>
      </trkpt>
      <trkpt lat="46.5088" lon="0.37879">
        <ele>110.2</ele>
        <time>2021-09-12T07:48:59Z</time>
      </trkpt>
      <trkpt lat="46.50879" lon="0.37871">
        <ele>110.2</ele>
        <time>2021-09-12T07:49:01Z</time>
      </trkpt>
      <trkpt lat="46.50879" lon="0.37871">
        <ele>110.4</ele>
        <time>2021-09-12T07:49:02Z</time>
      </trkpt>
      <trkpt lat="46.50877" lon="0.37857">
        <ele>110.4</ele>
        <time>2021-09-12T07:49:04Z</time>
      </trkpt>
      <trkpt lat="46.5087" lon="0.37839">
        <ele>110.6</ele>
        <time>2021-09-12T07:49:07Z</time>
      </trkpt>
      <trkpt lat="46.5087" lon="0.37835">
        <ele>110.6</ele>
        <time>2021-09-12T07:49:08Z</time>
      </trkpt>
      <trkpt lat="46.50862" lon="0.37826">
        <ele>110.6</ele>
        <time>2021-09-12T07:49:10Z</time>
      </trkpt>
      <trkpt lat="46.50859" lon="0.3782">
        <ele>110.6</ele>
        <time>2021-09-12T07:49:12Z</time>
      </trkpt>
      <trkpt lat="46.50835" lon="0.37802">
        <ele>111.6</ele>
        <time>2021-09-12T07:49:18Z</time>
      </trkpt>
      <trkpt lat="46.5082" lon="0.37794">
        <ele>112.4</ele>
        <time>2021-09-12T07:49:21Z</time>
      </trkpt>
      <trkpt lat="46.50816" lon="0.37791">
        <ele>112.6</ele>
        <time>2021-09-12T07:49:22Z</time>
      </trkpt>
      <trkpt lat="46.50811" lon="0.37789">
        <ele>112.8</ele>
        <time>2021-09-12T07:49:23Z</time>
      </trkpt>
      <trkpt lat="46.50807" lon="0.37788">
        <ele>113</ele>
        <time>2021-09-12T07:49:24Z</time>
      </trkpt>
      <trkpt lat="46.50784" lon="0.37782">
        <ele>113</ele>
        <time>2021-09-12T07:49:29Z</time>
      </trkpt>
      <trkpt lat="46.50781" lon="0.3778">
        <ele>113</ele>
        <time>2021-09-12T07:49:30Z</time>
      </trkpt>
      <trkpt lat="46.5077" lon="0.37776">
        <ele>113.2</ele>
        <time>2021-09-12T07:49:33Z</time>
      </trkpt>
      <trkpt lat="46.50763" lon="0.37773">
        <ele>113.4</ele>
        <time>2021-09-12T07:49:35Z</time>
      </trkpt>
      <trkpt lat="46.50753" lon="0.37771">
        <ele>113.6</ele>
        <time>2021-09-12T07:49:37Z</time>
      </trkpt>
      <trkpt lat="46.50748" lon="0.37768">
        <ele>113.8</ele>
        <time>2021-09-12T07:49:38Z</time>
      </trkpt>
      <trkpt lat="46.50734" lon="0.37761">
        <ele>114</ele>
        <time>2021-09-12T07:49:41Z</time>
      </trkpt>
      <trkpt lat="46.50722" lon="0.37755">
        <ele>114.2</ele>
        <time>2021-09-12T07:49:44Z</time>
      </trkpt>
      <trkpt lat="46.50702" lon="0.37745">
        <ele>114.4</ele>
        <time>2021-09-12T07:49:48Z</time>
      </trkpt>
      <trkpt lat="46.50688" lon="0.37736">
        <ele>114.8</ele>
        <time>2021-09-12T07:49:51Z</time>
      </trkpt>
      <trkpt lat="46.50675" lon="0.37726">
        <ele>115.2</ele>
        <time>2021-09-12T07:49:54Z</time>
      </trkpt>
      <trkpt lat="46.50659" lon="0.37716">
        <ele>115.8</ele>
        <time>2021-09-12T07:49:57Z</time>
      </trkpt>
      <trkpt lat="46.50643" lon="0.37707">
        <ele>116</ele>
        <time>2021-09-12T07:50:00Z</time>
      </trkpt>
      <trkpt lat="46.50617" lon="0.37689">
        <ele>116.8</ele>
        <time>2021-09-12T07:50:06Z</time>
      </trkpt>
      <trkpt lat="46.50608" lon="0.37684">
        <ele>117</ele>
        <time>2021-09-12T07:50:08Z</time>
      </trkpt>
      <trkpt lat="46.50586" lon="0.37672">
        <ele>117.4</ele>
        <time>2021-09-12T07:50:13Z</time>
      </trkpt>
      <trkpt lat="46.5058" lon="0.37668">
        <ele>117.8</ele>
        <time>2021-09-12T07:50:15Z</time>
      </trkpt>
      <trkpt lat="46.50577" lon="0.37665">
        <ele>118</ele>
        <time>2021-09-12T07:50:16Z</time>
      </trkpt>
      <trkpt lat="46.50569" lon="0.37661">
        <ele>118</ele>
        <time>2021-09-12T07:50:18Z</time>
      </trkpt>
      <trkpt lat="46.50557" lon="0.37654">
        <ele>118.4</ele>
        <time>2021-09-12T07:50:21Z</time>
      </trkpt>
      <trkpt lat="46.50553" lon="0.37652">
        <ele>118.6</ele>
        <time>2021-09-12T07:50:22Z</time>
      </trkpt>
      <trkpt lat="46.50539" lon="0.37647">
        <ele>119.2</ele>
        <time>2021-09-12T07:50:25Z</time>
      </trkpt>
      <trkpt lat="46.50532" lon="0.37644">
        <ele>119.4</ele>
        <time>2021-09-12T07:50:27Z</time>
      </trkpt>
      <trkpt lat="46.50528" lon="0.37643">
        <ele>119.6</ele>
        <time>2021-09-12T07:50:28Z</time>
      </trkpt>
      <trkpt lat="46.50511" lon="0.37635">
        <ele>120.2</ele>
        <time>2021-09-12T07:50:32Z</time>
      </trkpt>
      <trkpt lat="46.505" lon="0.37628">
        <ele>120.4</ele>
        <time>2021-09-12T07:50:35Z</time>
      </trkpt>
      <trkpt lat="46.50491" lon="0.37623">
        <ele>120.8</ele>
        <time>2021-09-12T07:50:37Z</time>
      </trkpt>
      <trkpt lat="46.50474" lon="0.37611">
        <ele>121.4</ele>
        <time>2021-09-12T07:50:41Z</time>
      </trkpt>
      <trkpt lat="46.50467" lon="0.37606">
        <ele>121.6</ele>
        <time>2021-09-12T07:50:43Z</time>
      </trkpt>
      <trkpt lat="46.50464" lon="0.37604">
        <ele>121.8</ele>
        <time>2021-09-12T07:50:44Z</time>
      </trkpt>
      <trkpt lat="46.50453" lon="0.37597">
        <ele>122</ele>
        <time>2021-09-12T07:50:47Z</time>
      </trkpt>
      <trkpt lat="46.50447" lon="0.37592">
        <ele>122.4</ele>
        <time>2021-09-12T07:50:49Z</time>
      </trkpt>
      <trkpt lat="46.50444" lon="0.37589">
        <ele>122.6</ele>
        <time>2021-09-12T07:50:50Z</time>
      </trkpt>
      <trkpt lat="46.50428" lon="0.37574">
        <ele>123.4</ele>
        <time>2021-09-12T07:50:55Z</time>
      </trkpt>
      <trkpt lat="46.50422" lon="0.37571">
        <ele>123.6</ele>
        <time>2021-09-12T07:50:56Z</time>
      </trkpt>
      <trkpt lat="46.5041" lon="0.37557">
        <ele>124</ele>
        <time>2021-09-12T07:51:00Z</time>
      </trkpt>
      <trkpt lat="46.50397" lon="0.37542">
        <ele>124.6</ele>
        <time>2021-09-12T07:51:04Z</time>
      </trkpt>
      <trkpt lat="46.50392" lon="0.37535">
        <ele>125</ele>
        <time>2021-09-12T07:51:06Z</time>
      </trkpt>
      <trkpt lat="46.50388" lon="0.37532">
        <ele>125.2</ele>
        <time>2021-09-12T07:51:07Z</time>
      </trkpt>
      <trkpt lat="46.50388" lon="0.37528">
        <ele>125.4</ele>
        <time>2021-09-12T07:51:08Z</time>
      </trkpt>
      <trkpt lat="46.50385" lon="0.37522">
        <ele>125.6</ele>
        <time>2021-09-12T07:51:09Z</time>
      </trkpt>
      <trkpt lat="46.50385" lon="0.37513">
        <ele>125.8</ele>
        <time>2021-09-12T07:51:11Z</time>
      </trkpt>
      <trkpt lat="46.50387" lon="0.37494">
        <ele>126.8</ele>
        <time>2021-09-12T07:51:15Z</time>
      </trkpt>
      <trkpt lat="46.50391" lon="0.37478">
        <ele>127.8</ele>
        <time>2021-09-12T07:51:19Z</time>
      </trkpt>
      <trkpt lat="46.50392" lon="0.37475">
        <ele>128.2</ele>
        <time>2021-09-12T07:51:20Z</time>
      </trkpt>
      <trkpt lat="46.50396" lon="0.37456">
        <ele>129</ele>
        <time>2021-09-12T07:51:25Z</time>
      </trkpt>
      <trkpt lat="46.50399" lon="0.37444">
        <ele>129.2</ele>
        <time>2021-09-12T07:51:28Z</time>
      </trkpt>
      <trkpt lat="46.50402" lon="0.3743">
        <ele>129.8</ele>
        <time>2021-09-12T07:51:32Z</time>
      </trkpt>
      <trkpt lat="46.50406" lon="0.37416">
        <ele>130.2</ele>
        <time>2021-09-12T07:51:35Z</time>
      </trkpt>
      <trkpt lat="46.50411" lon="0.37395">
        <ele>130.6</ele>
        <time>2021-09-12T07:51:39Z</time>
      </trkpt>
      <trkpt lat="46.50412" lon="0.37389">
        <ele>130.6</ele>
        <time>2021-09-12T07:51:40Z</time>
      </trkpt>
      <trkpt lat="46.5042" lon="0.37358">
        <ele>130.8</ele>
        <time>2021-09-12T07:51:45Z</time>
      </trkpt>
      <trkpt lat="46.50434" lon="0.37317">
        <ele>131.2</ele>
        <time>2021-09-12T07:51:52Z</time>
      </trkpt>
      <trkpt lat="46.5044" lon="0.37304">
        <ele>131.2</ele>
        <time>2021-09-12T07:51:54Z</time>
      </trkpt>
      <trkpt lat="46.50449" lon="0.37283">
        <ele>131.2</ele>
        <time>2021-09-12T07:51:57Z</time>
      </trkpt>
      <trkpt lat="46.5046" lon="0.37245">
        <ele>130.6</ele>
        <time>2021-09-12T07:52:03Z</time>
      </trkpt>
      <trkpt lat="46.5047" lon="0.37218">
        <ele>130.2</ele>
        <time>2021-09-12T07:52:07Z</time>
      </trkpt>
      <trkpt lat="46.50475" lon="0.37203">
        <ele>129.8</ele>
        <time>2021-09-12T07:52:09Z</time>
      </trkpt>
      <trkpt lat="46.50483" lon="0.37177">
        <ele>129.2</ele>
        <time>2021-09-12T07:52:12Z</time>
      </trkpt>
      <trkpt lat="46.5049" lon="0.3716">
        <ele>128.8</ele>
        <time>2021-09-12T07:52:14Z</time>
      </trkpt>
      <trkpt lat="46.50508" lon="0.37114">
        <ele>128</ele>
        <time>2021-09-12T07:52:20Z</time>
      </trkpt>
      <trkpt lat="46.50521" lon="0.37075">
        <ele>128.6</ele>
        <time>2021-09-12T07:52:26Z</time>
      </trkpt>
      <trkpt lat="46.50526" lon="0.37061">
        <ele>129</ele>
        <time>2021-09-12T07:52:29Z</time>
      </trkpt>
      <trkpt lat="46.50533" lon="0.37043">
        <ele>130.2</ele>
        <time>2021-09-12T07:52:33Z</time>
      </trkpt>
      <trkpt lat="46.5054" lon="0.37027">
        <ele>131.6</ele>
        <time>2021-09-12T07:52:36Z</time>
      </trkpt>
      <trkpt lat="46.50549" lon="0.37005">
        <ele>132.6</ele>
        <time>2021-09-12T07:52:40Z</time>
      </trkpt>
      <trkpt lat="46.50556" lon="0.36992">
        <ele>133</ele>
        <time>2021-09-12T07:52:45Z</time>
      </trkpt>
      <trkpt lat="46.50558" lon="0.36989">
        <ele>133</ele>
        <time>2021-09-12T07:52:46Z</time>
      </trkpt>
      <trkpt lat="46.50565" lon="0.36976">
        <ele>133.4</ele>
        <time>2021-09-12T07:52:50Z</time>
      </trkpt>
      <trkpt lat="46.50579" lon="0.36949">
        <ele>133.6</ele>
        <time>2021-09-12T07:52:56Z</time>
      </trkpt>
      <trkpt lat="46.50581" lon="0.36944">
        <ele>133.6</ele>
        <time>2021-09-12T07:52:57Z</time>
      </trkpt>
      <trkpt lat="46.5059" lon="0.36923">
        <ele>133.8</ele>
        <time>2021-09-12T07:53:01Z</time>
      </trkpt>
      <trkpt lat="46.50597" lon="0.36905">
        <ele>134</ele>
        <time>2021-09-12T07:53:05Z</time>
      </trkpt>
      <trkpt lat="46.50609" lon="0.36876">
        <ele>133.8</ele>
        <time>2021-09-12T07:53:11Z</time>
      </trkpt>
      <trkpt lat="46.50616" lon="0.36862">
        <ele>133.4</ele>
        <time>2021-09-12T07:53:14Z</time>
      </trkpt>
      <trkpt lat="46.50621" lon="0.36843">
        <ele>133.4</ele>
        <time>2021-09-12T07:53:18Z</time>
      </trkpt>
      <trkpt lat="46.50627" lon="0.36824">
        <ele>132.4</ele>
        <time>2021-09-12T07:53:23Z</time>
      </trkpt>
      <trkpt lat="46.50628" lon="0.36812">
        <ele>132</ele>
        <time>2021-09-12T07:53:27Z</time>
      </trkpt>
      <trkpt lat="46.50629" lon="0.36811">
        <ele>131.8</ele>
        <time>2021-09-12T07:53:28Z</time>
      </trkpt>
      <trkpt lat="46.50631" lon="0.36808">
        <ele>131.6</ele>
        <time>2021-09-12T07:53:42Z</time>
      </trkpt>
      <trkpt lat="46.50631" lon="0.36807">
        <ele>131.6</ele>
        <time>2021-09-12T07:53:53Z</time>
      </trkpt>
      <trkpt lat="46.5063" lon="0.36808">
        <ele>131.8</ele>
        <time>2021-09-12T07:54:04Z</time>
      </trkpt>
      <trkpt lat="46.5063" lon="0.36807">
        <ele>131.8</ele>
        <time>2021-09-12T07:54:10Z</time>
      </trkpt>
      <trkpt lat="46.50633" lon="0.36804">
        <ele>131.8</ele>
        <time>2021-09-12T08:08:52Z</time>
      </trkpt>
      <trkpt lat="46.50633" lon="0.36803">
        <ele>131.8</ele>
        <time>2021-09-12T08:08:57Z</time>
      </trkpt>
      <trkpt lat="46.50634" lon="0.36799">
        <ele>131.6</ele>
        <time>2021-09-12T08:09:00Z</time>
      </trkpt>
      <trkpt lat="46.50637" lon="0.36787">
        <ele>131.8</ele>
        <time>2021-09-12T08:09:04Z</time>
      </trkpt>
      <trkpt lat="46.50641" lon="0.36767">
        <ele>131.4</ele>
        <time>2021-09-12T08:09:09Z</time>
      </trkpt>
      <trkpt lat="46.5064" lon="0.36752">
        <ele>130.8</ele>
        <time>2021-09-12T08:09:13Z</time>
      </trkpt>
      <trkpt lat="46.50638" lon="0.36737">
        <ele>130.6</ele>
        <time>2021-09-12T08:09:16Z</time>
      </trkpt>
      <trkpt lat="46.50638" lon="0.36731">
        <ele>130.4</ele>
        <time>2021-09-12T08:09:17Z</time>
      </trkpt>
      <trkpt lat="46.50639" lon="0.36726">
        <ele>130.2</ele>
        <time>2021-09-12T08:09:18Z</time>
      </trkpt>
      <trkpt lat="46.50642" lon="0.36696">
        <ele>129</ele>
        <time>2021-09-12T08:09:22Z</time>
      </trkpt>
      <trkpt lat="46.50644" lon="0.36688">
        <ele>128.6</ele>
        <time>2021-09-12T08:09:23Z</time>
      </trkpt>
      <trkpt lat="46.50646" lon="0.36671">
        <ele>127.8</ele>
        <time>2021-09-12T08:09:25Z</time>
      </trkpt>
      <trkpt lat="46.5065" lon="0.36654">
        <ele>126.8</ele>
        <time>2021-09-12T08:09:27Z</time>
      </trkpt>
      <trkpt lat="46.50656" lon="0.36639">
        <ele>125.8</ele>
        <time>2021-09-12T08:09:29Z</time>
      </trkpt>
      <trkpt lat="46.50661" lon="0.36633">
        <ele>125.4</ele>
        <time>2021-09-12T08:09:30Z</time>
      </trkpt>
      <trkpt lat="46.50671" lon="0.36621">
        <ele>125</ele>
        <time>2021-09-12T08:09:32Z</time>
      </trkpt>
      <trkpt lat="46.50676" lon="0.36616">
        <ele>124.2</ele>
        <time>2021-09-12T08:09:33Z</time>
      </trkpt>
      <trkpt lat="46.50684" lon="0.36602">
        <ele>123</ele>
        <time>2021-09-12T08:09:35Z</time>
      </trkpt>
      <trkpt lat="46.50692" lon="0.36581">
        <ele>122.6</ele>
        <time>2021-09-12T08:09:37Z</time>
      </trkpt>
      <trkpt lat="46.507" lon="0.36533">
        <ele>122.4</ele>
        <time>2021-09-12T08:09:44Z</time>
      </trkpt>
      <trkpt lat="46.50705" lon="0.36506">
        <ele>122.6</ele>
        <time>2021-09-12T08:09:48Z</time>
      </trkpt>
      <trkpt lat="46.50707" lon="0.36493">
        <ele>122.8</ele>
        <time>2021-09-12T08:09:50Z</time>
      </trkpt>
      <trkpt lat="46.50705" lon="0.36486">
        <ele>123</ele>
        <time>2021-09-12T08:09:51Z</time>
      </trkpt>
      <trkpt lat="46.50704" lon="0.36468">
        <ele>123.4</ele>
        <time>2021-09-12T08:09:54Z</time>
      </trkpt>
      <trkpt lat="46.50708" lon="0.36452">
        <ele>123.6</ele>
        <time>2021-09-12T08:09:57Z</time>
      </trkpt>
      <trkpt lat="46.50711" lon="0.3643">
        <ele>124.2</ele>
        <time>2021-09-12T08:10:01Z</time>
      </trkpt>
      <trkpt lat="46.50714" lon="0.36418">
        <ele>124.8</ele>
        <time>2021-09-12T08:10:03Z</time>
      </trkpt>
      <trkpt lat="46.50715" lon="0.36406">
        <ele>125.2</ele>
        <time>2021-09-12T08:10:05Z</time>
      </trkpt>
      <trkpt lat="46.50715" lon="0.36395">
        <ele>125.6</ele>
        <time>2021-09-12T08:10:07Z</time>
      </trkpt>
      <trkpt lat="46.50716" lon="0.36384">
        <ele>125.8</ele>
        <time>2021-09-12T08:10:09Z</time>
      </trkpt>
      <trkpt lat="46.50719" lon="0.36358">
        <ele>126.2</ele>
        <time>2021-09-12T08:10:13Z</time>
      </trkpt>
      <trkpt lat="46.50722" lon="0.36338">
        <ele>127</ele>
        <time>2021-09-12T08:10:16Z</time>
      </trkpt>
      <trkpt lat="46.50725" lon="0.36318">
        <ele>127.2</ele>
        <time>2021-09-12T08:10:19Z</time>
      </trkpt>
      <trkpt lat="46.50732" lon="0.36277">
        <ele>128.4</ele>
        <time>2021-09-12T08:10:25Z</time>
      </trkpt>
      <trkpt lat="46.50735" lon="0.36251">
        <ele>128.8</ele>
        <time>2021-09-12T08:10:29Z</time>
      </trkpt>
      <trkpt lat="46.50738" lon="0.36233">
        <ele>129.4</ele>
        <time>2021-09-12T08:10:32Z</time>
      </trkpt>
      <trkpt lat="46.5074" lon="0.36226">
        <ele>129.4</ele>
        <time>2021-09-12T08:10:33Z</time>
      </trkpt>
      <trkpt lat="46.50749" lon="0.36172">
        <ele>130.2</ele>
        <time>2021-09-12T08:10:42Z</time>
      </trkpt>
      <trkpt lat="46.5076" lon="0.36132">
        <ele>130.2</ele>
        <time>2021-09-12T08:10:49Z</time>
      </trkpt>
      <trkpt lat="46.50762" lon="0.36127">
        <ele>130.2</ele>
        <time>2021-09-12T08:10:50Z</time>
      </trkpt>
      <trkpt lat="46.50766" lon="0.36123">
        <ele>130.4</ele>
        <time>2021-09-12T08:10:51Z</time>
      </trkpt>
      <trkpt lat="46.50772" lon="0.36114">
        <ele>130.2</ele>
        <time>2021-09-12T08:10:53Z</time>
      </trkpt>
      <trkpt lat="46.50775" lon="0.36108">
        <ele>130</ele>
        <time>2021-09-12T08:10:54Z</time>
      </trkpt>
      <trkpt lat="46.5078" lon="0.36094">
        <ele>129.6</ele>
        <time>2021-09-12T08:10:56Z</time>
      </trkpt>
      <trkpt lat="46.50783" lon="0.36083">
        <ele>128.8</ele>
        <time>2021-09-12T08:10:58Z</time>
      </trkpt>
      <trkpt lat="46.50785" lon="0.36072">
        <ele>128.6</ele>
        <time>2021-09-12T08:11:00Z</time>
      </trkpt>
      <trkpt lat="46.50785" lon="0.36058">
        <ele>128.6</ele>
        <time>2021-09-12T08:11:03Z</time>
      </trkpt>
      <trkpt lat="46.50784" lon="0.36054">
        <ele>128.6</ele>
        <time>2021-09-12T08:11:04Z</time>
      </trkpt>
      <trkpt lat="46.50782" lon="0.36035">
        <ele>129.2</ele>
        <time>2021-09-12T08:11:08Z</time>
      </trkpt>
      <trkpt lat="46.5078" lon="0.36013">
        <ele>130.6</ele>
        <time>2021-09-12T08:11:12Z</time>
      </trkpt>
      <trkpt lat="46.50779" lon="0.36003">
        <ele>131.4</ele>
        <time>2021-09-12T08:11:14Z</time>
      </trkpt>
      <trkpt lat="46.50778" lon="0.35996">
        <ele>131.8</ele>
        <time>2021-09-12T08:11:15Z</time>
      </trkpt>
      <trkpt lat="46.50775" lon="0.35974">
        <ele>133</ele>
        <time>2021-09-12T08:11:19Z</time>
      </trkpt>
      <trkpt lat="46.50774" lon="0.35963">
        <ele>133.4</ele>
        <time>2021-09-12T08:11:21Z</time>
      </trkpt>
      <trkpt lat="46.50767" lon="0.35917">
        <ele>134</ele>
        <time>2021-09-12T08:11:29Z</time>
      </trkpt>
      <trkpt lat="46.50763" lon="0.359">
        <ele>134</ele>
        <time>2021-09-12T08:11:32Z</time>
      </trkpt>
      <trkpt lat="46.50755" lon="0.35873">
        <ele>135.2</ele>
        <time>2021-09-12T08:11:37Z</time>
      </trkpt>
      <trkpt lat="46.50754" lon="0.35867">
        <ele>135.2</ele>
        <time>2021-09-12T08:11:38Z</time>
      </trkpt>
      <trkpt lat="46.50754" lon="0.35855">
        <ele>135.8</ele>
        <time>2021-09-12T08:11:40Z</time>
      </trkpt>
      <trkpt lat="46.50756" lon="0.35849">
        <ele>136</ele>
        <time>2021-09-12T08:11:41Z</time>
      </trkpt>
      <trkpt lat="46.50765" lon="0.35816">
        <ele>136.2</ele>
        <time>2021-09-12T08:11:47Z</time>
      </trkpt>
      <trkpt lat="46.50769" lon="0.35805">
        <ele>136.2</ele>
        <time>2021-09-12T08:11:49Z</time>
      </trkpt>
      <trkpt lat="46.50786" lon="0.35772">
        <ele>136.2</ele>
        <time>2021-09-12T08:11:55Z</time>
      </trkpt>
      <trkpt lat="46.50794" lon="0.35762">
        <ele>136.2</ele>
        <time>2021-09-12T08:11:57Z</time>
      </trkpt>
      <trkpt lat="46.50801" lon="0.35754">
        <ele>135.8</ele>
        <time>2021-09-12T08:11:59Z</time>
      </trkpt>
      <trkpt lat="46.50803" lon="0.35751">
        <ele>135.6</ele>
        <time>2021-09-12T08:12:00Z</time>
      </trkpt>
      <trkpt lat="46.50819" lon="0.35732">
        <ele>135.6</ele>
        <time>2021-09-12T08:12:06Z</time>
      </trkpt>
      <trkpt lat="46.50828" lon="0.35714">
        <ele>135.6</ele>
        <time>2021-09-12T08:12:10Z</time>
      </trkpt>
      <trkpt lat="46.50838" lon="0.35692">
        <ele>135.6</ele>
        <time>2021-09-12T08:12:14Z</time>
      </trkpt>
      <trkpt lat="46.50846" lon="0.35683">
        <ele>135.6</ele>
        <time>2021-09-12T08:12:16Z</time>
      </trkpt>
      <trkpt lat="46.50854" lon="0.35676">
        <ele>135.6</ele>
        <time>2021-09-12T08:12:18Z</time>
      </trkpt>
      <trkpt lat="46.50868" lon="0.35657">
        <ele>135.4</ele>
        <time>2021-09-12T08:12:22Z</time>
      </trkpt>
      <trkpt lat="46.50874" lon="0.35646">
        <ele>135</ele>
        <time>2021-09-12T08:12:24Z</time>
      </trkpt>
      <trkpt lat="46.50884" lon="0.35628">
        <ele>134.6</ele>
        <time>2021-09-12T08:12:27Z</time>
      </trkpt>
      <trkpt lat="46.50898" lon="0.35604">
        <ele>134</ele>
        <time>2021-09-12T08:12:31Z</time>
      </trkpt>
      <trkpt lat="46.50912" lon="0.35582">
        <ele>133.4</ele>
        <time>2021-09-12T08:12:35Z</time>
      </trkpt>
      <trkpt lat="46.50925" lon="0.35559">
        <ele>133</ele>
        <time>2021-09-12T08:12:39Z</time>
      </trkpt>
      <trkpt lat="46.50935" lon="0.35542">
        <ele>132.6</ele>
        <time>2021-09-12T08:12:42Z</time>
      </trkpt>
      <trkpt lat="46.50949" lon="0.35517">
        <ele>132.2</ele>
        <time>2021-09-12T08:12:46Z</time>
      </trkpt>
      <trkpt lat="46.50957" lon="0.35503">
        <ele>132</ele>
        <time>2021-09-12T08:12:48Z</time>
      </trkpt>
      <trkpt lat="46.50961" lon="0.35497">
        <ele>132</ele>
        <time>2021-09-12T08:12:49Z</time>
      </trkpt>
      <trkpt lat="46.50976" lon="0.35475">
        <ele>131</ele>
        <time>2021-09-12T08:12:53Z</time>
      </trkpt>
      <trkpt lat="46.50988" lon="0.35461">
        <ele>130.8</ele>
        <time>2021-09-12T08:12:56Z</time>
      </trkpt>
      <trkpt lat="46.50992" lon="0.35456">
        <ele>130.6</ele>
        <time>2021-09-12T08:12:57Z</time>
      </trkpt>
      <trkpt lat="46.50992" lon="0.35456">
        <ele>130.2</ele>
        <time>2021-09-12T08:13:02Z</time>
      </trkpt>
      <trkpt lat="46.51015" lon="0.35428">
        <ele>130.2</ele>
        <time>2021-09-12T08:13:03Z</time>
      </trkpt>
      <trkpt lat="46.51019" lon="0.35424">
        <ele>130.4</ele>
        <time>2021-09-12T08:13:04Z</time>
      </trkpt>
      <trkpt lat="46.51028" lon="0.35421">
        <ele>130.6</ele>
        <time>2021-09-12T08:13:06Z</time>
      </trkpt>
      <trkpt lat="46.51038" lon="0.35418">
        <ele>130.6</ele>
        <time>2021-09-12T08:13:08Z</time>
      </trkpt>
      <trkpt lat="46.51044" lon="0.35409">
        <ele>130.6</ele>
        <time>2021-09-12T08:13:10Z</time>
      </trkpt>
      <trkpt lat="46.51046" lon="0.35397">
        <ele>130.2</ele>
        <time>2021-09-12T08:13:12Z</time>
      </trkpt>
      <trkpt lat="46.51046" lon="0.35391">
        <ele>130</ele>
        <time>2021-09-12T08:13:13Z</time>
      </trkpt>
      <trkpt lat="46.51044" lon="0.35385">
        <ele>129.8</ele>
        <time>2021-09-12T08:13:14Z</time>
      </trkpt>
      <trkpt lat="46.51038" lon="0.3537">
        <ele>129.8</ele>
        <time>2021-09-12T08:13:17Z</time>
      </trkpt>
      <trkpt lat="46.51038" lon="0.35359">
        <ele>130</ele>
        <time>2021-09-12T08:13:19Z</time>
      </trkpt>
      <trkpt lat="46.51039" lon="0.35347">
        <ele>130</ele>
        <time>2021-09-12T08:13:21Z</time>
      </trkpt>
      <trkpt lat="46.51045" lon="0.35306">
        <ele>129.4</ele>
        <time>2021-09-12T08:13:27Z</time>
      </trkpt>
      <trkpt lat="46.51048" lon="0.35282">
        <ele>128.8</ele>
        <time>2021-09-12T08:13:30Z</time>
      </trkpt>
      <trkpt lat="46.51053" lon="0.35246">
        <ele>128</ele>
        <time>2021-09-12T08:13:34Z</time>
      </trkpt>
      <trkpt lat="46.51055" lon="0.35228">
        <ele>127.8</ele>
        <time>2021-09-12T08:13:36Z</time>
      </trkpt>
      <trkpt lat="46.51059" lon="0.35183">
        <ele>126.6</ele>
        <time>2021-09-12T08:13:41Z</time>
      </trkpt>
      <trkpt lat="46.51061" lon="0.35148">
        <ele>125.2</ele>
        <time>2021-09-12T08:13:45Z</time>
      </trkpt>
      <trkpt lat="46.51064" lon="0.3513">
        <ele>124.4</ele>
        <time>2021-09-12T08:13:47Z</time>
      </trkpt>
      <trkpt lat="46.51067" lon="0.3511">
        <ele>124</ele>
        <time>2021-09-12T08:13:49Z</time>
      </trkpt>
      <trkpt lat="46.51074" lon="0.3508">
        <ele>122.6</ele>
        <time>2021-09-12T08:13:52Z</time>
      </trkpt>
      <trkpt lat="46.51079" lon="0.35063">
        <ele>121.4</ele>
        <time>2021-09-12T08:13:54Z</time>
      </trkpt>
      <trkpt lat="46.51083" lon="0.35052">
        <ele>120.4</ele>
        <time>2021-09-12T08:13:56Z</time>
      </trkpt>
      <trkpt lat="46.51088" lon="0.35038">
        <ele>119.4</ele>
        <time>2021-09-12T08:14:00Z</time>
      </trkpt>
      <trkpt lat="46.5109" lon="0.35036">
        <ele>118.4</ele>
        <time>2021-09-12T08:14:01Z</time>
      </trkpt>
      <trkpt lat="46.51098" lon="0.35029">
        <ele>117.2</ele>
        <time>2021-09-12T08:14:03Z</time>
      </trkpt>
      <trkpt lat="46.51101" lon="0.35024">
        <ele>117</ele>
        <time>2021-09-12T08:14:04Z</time>
      </trkpt>
      <trkpt lat="46.51106" lon="0.35016">
        <ele>116.8</ele>
        <time>2021-09-12T08:14:06Z</time>
      </trkpt>
      <trkpt lat="46.51109" lon="0.35014">
        <ele>116.6</ele>
        <time>2021-09-12T08:14:07Z</time>
      </trkpt>
      <trkpt lat="46.51115" lon="0.35011">
        <ele>116</ele>
        <time>2021-09-12T08:14:09Z</time>
      </trkpt>
      <trkpt lat="46.51121" lon="0.35007">
        <ele>115.8</ele>
        <time>2021-09-12T08:14:11Z</time>
      </trkpt>
      <trkpt lat="46.51124" lon="0.35003">
        <ele>115.8</ele>
        <time>2021-09-12T08:14:12Z</time>
      </trkpt>
      <trkpt lat="46.51126" lon="0.34997">
        <ele>115.8</ele>
        <time>2021-09-12T08:14:13Z</time>
      </trkpt>
      <trkpt lat="46.51134" lon="0.34977">
        <ele>116.6</ele>
        <time>2021-09-12T08:14:16Z</time>
      </trkpt>
      <trkpt lat="46.51142" lon="0.34968">
        <ele>117.4</ele>
        <time>2021-09-12T08:14:18Z</time>
      </trkpt>
      <trkpt lat="46.51145" lon="0.34964">
        <ele>117.6</ele>
        <time>2021-09-12T08:14:19Z</time>
      </trkpt>
      <trkpt lat="46.51147" lon="0.34953">
        <ele>118.4</ele>
        <time>2021-09-12T08:14:21Z</time>
      </trkpt>
      <trkpt lat="46.51147" lon="0.34947">
        <ele>118.8</ele>
        <time>2021-09-12T08:14:22Z</time>
      </trkpt>
      <trkpt lat="46.51148" lon="0.34936">
        <ele>119.2</ele>
        <time>2021-09-12T08:14:24Z</time>
      </trkpt>
      <trkpt lat="46.51148" lon="0.34931">
        <ele>119.4</ele>
        <time>2021-09-12T08:14:25Z</time>
      </trkpt>
      <trkpt lat="46.51149" lon="0.34918">
        <ele>120.2</ele>
        <time>2021-09-12T08:14:28Z</time>
      </trkpt>
      <trkpt lat="46.51149" lon="0.34914">
        <ele>120.6</ele>
        <time>2021-09-12T08:14:29Z</time>
      </trkpt>
      <trkpt lat="46.51147" lon="0.34894">
        <ele>121.6</ele>
        <time>2021-09-12T08:14:33Z</time>
      </trkpt>
      <trkpt lat="46.51148" lon="0.3489">
        <ele>121.8</ele>
        <time>2021-09-12T08:14:34Z</time>
      </trkpt>
      <trkpt lat="46.51152" lon="0.34886">
        <ele>122</ele>
        <time>2021-09-12T08:14:36Z</time>
      </trkpt>
      <trkpt lat="46.51168" lon="0.34879">
        <ele>122.6</ele>
        <time>2021-09-12T08:14:41Z</time>
      </trkpt>
      <trkpt lat="46.51181" lon="0.34867">
        <ele>122.8</ele>
        <time>2021-09-12T08:14:45Z</time>
      </trkpt>
      <trkpt lat="46.51185" lon="0.34866">
        <ele>123</ele>
        <time>2021-09-12T08:14:46Z</time>
      </trkpt>
      <trkpt lat="46.51189" lon="0.34866">
        <ele>123</ele>
        <time>2021-09-12T08:14:47Z</time>
      </trkpt>
      <trkpt lat="46.51202" lon="0.34871">
        <ele>123</ele>
        <time>2021-09-12T08:14:50Z</time>
      </trkpt>
      <trkpt lat="46.51223" lon="0.34881">
        <ele>122.2</ele>
        <time>2021-09-12T08:14:54Z</time>
      </trkpt>
      <trkpt lat="46.51237" lon="0.34889">
        <ele>121.6</ele>
        <time>2021-09-12T08:14:57Z</time>
      </trkpt>
      <trkpt lat="46.51247" lon="0.34895">
        <ele>120.8</ele>
        <time>2021-09-12T08:14:59Z</time>
      </trkpt>
      <trkpt lat="46.51253" lon="0.34899">
        <ele>120.2</ele>
        <time>2021-09-12T08:15:00Z</time>
      </trkpt>
      <trkpt lat="46.51269" lon="0.34911">
        <ele>119</ele>
        <time>2021-09-12T08:15:03Z</time>
      </trkpt>
      <trkpt lat="46.51278" lon="0.34917">
        <ele>118.2</ele>
        <time>2021-09-12T08:15:04Z</time>
      </trkpt>
      <trkpt lat="46.51278" lon="0.34917">
        <ele>117</ele>
        <time>2021-09-12T08:15:06Z</time>
      </trkpt>
      <trkpt lat="46.51286" lon="0.3492">
        <ele>116.4</ele>
        <time>2021-09-12T08:15:07Z</time>
      </trkpt>
      <trkpt lat="46.51289" lon="0.34919">
        <ele>115.8</ele>
        <time>2021-09-12T08:15:08Z</time>
      </trkpt>
      <trkpt lat="46.51291" lon="0.34916">
        <ele>115.6</ele>
        <time>2021-09-12T08:15:09Z</time>
      </trkpt>
      <trkpt lat="46.51296" lon="0.34905">
        <ele>115.6</ele>
        <time>2021-09-12T08:15:14Z</time>
      </trkpt>
      <trkpt lat="46.51294" lon="0.34898">
        <ele>116.2</ele>
        <time>2021-09-12T08:15:17Z</time>
      </trkpt>
      <trkpt lat="46.51294" lon="0.34893">
        <ele>117.2</ele>
        <time>2021-09-12T08:15:19Z</time>
      </trkpt>
      <trkpt lat="46.51296" lon="0.34886">
        <ele>117.8</ele>
        <time>2021-09-12T08:15:22Z</time>
      </trkpt>
      <trkpt lat="46.51296" lon="0.3488">
        <ele>118.2</ele>
        <time>2021-09-12T08:15:24Z</time>
      </trkpt>
      <trkpt lat="46.51295" lon="0.34873">
        <ele>119</ele>
        <time>2021-09-12T08:15:27Z</time>
      </trkpt>
      <trkpt lat="46.51294" lon="0.34869">
        <ele>119.4</ele>
        <time>2021-09-12T08:15:29Z</time>
      </trkpt>
      <trkpt lat="46.51295" lon="0.34866">
        <ele>119.6</ele>
        <time>2021-09-12T08:15:30Z</time>
      </trkpt>
      <trkpt lat="46.51296" lon="0.3486">
        <ele>119.8</ele>
        <time>2021-09-12T08:15:32Z</time>
      </trkpt>
      <trkpt lat="46.51295" lon="0.34851">
        <ele>120.2</ele>
        <time>2021-09-12T08:15:35Z</time>
      </trkpt>
      <trkpt lat="46.51295" lon="0.34848">
        <ele>120.2</ele>
        <time>2021-09-12T08:15:36Z</time>
      </trkpt>
      <trkpt lat="46.51294" lon="0.34846">
        <ele>120.4</ele>
        <time>2021-09-12T08:15:37Z</time>
      </trkpt>
      <trkpt lat="46.51293" lon="0.34836">
        <ele>120.8</ele>
        <time>2021-09-12T08:15:41Z</time>
      </trkpt>
      <trkpt lat="46.51294" lon="0.34831">
        <ele>120.8</ele>
        <time>2021-09-12T08:15:43Z</time>
      </trkpt>
      <trkpt lat="46.513" lon="0.34826">
        <ele>120.8</ele>
        <time>2021-09-12T08:15:46Z</time>
      </trkpt>
      <trkpt lat="46.51303" lon="0.34825">
        <ele>120.6</ele>
        <time>2021-09-12T08:15:48Z</time>
      </trkpt>
      <trkpt lat="46.51305" lon="0.34827">
        <ele>120.4</ele>
        <time>2021-09-12T08:15:51Z</time>
      </trkpt>
      <trkpt lat="46.51306" lon="0.34827">
        <ele>120.4</ele>
        <time>2021-09-12T08:15:52Z</time>
      </trkpt>
      <trkpt lat="46.51313" lon="0.34828">
        <ele>120</ele>
        <time>2021-09-12T08:15:56Z</time>
      </trkpt>
      <trkpt lat="46.51324" lon="0.34824">
        <ele>119.6</ele>
        <time>2021-09-12T08:16:01Z</time>
      </trkpt>
      <trkpt lat="46.51332" lon="0.34822">
        <ele>119.4</ele>
        <time>2021-09-12T08:16:04Z</time>
      </trkpt>
      <trkpt lat="46.51334" lon="0.34823">
        <ele>119.4</ele>
        <time>2021-09-12T08:16:05Z</time>
      </trkpt>
      <trkpt lat="46.51336" lon="0.34824">
        <ele>119.4</ele>
        <time>2021-09-12T08:16:06Z</time>
      </trkpt>
      <trkpt lat="46.51341" lon="0.34826">
        <ele>119.2</ele>
        <time>2021-09-12T08:16:08Z</time>
      </trkpt>
      <trkpt lat="46.51347" lon="0.34828">
        <ele>118.2</ele>
        <time>2021-09-12T08:16:10Z</time>
      </trkpt>
      <trkpt lat="46.51351" lon="0.3483">
        <ele>117.4</ele>
        <time>2021-09-12T08:16:11Z</time>
      </trkpt>
      <trkpt lat="46.51354" lon="0.34831">
        <ele>116.8</ele>
        <time>2021-09-12T08:16:12Z</time>
      </trkpt>
      <trkpt lat="46.51359" lon="0.34832">
        <ele>115.2</ele>
        <time>2021-09-12T08:16:14Z</time>
      </trkpt>
      <trkpt lat="46.51362" lon="0.34831">
        <ele>114.4</ele>
        <time>2021-09-12T08:16:15Z</time>
      </trkpt>
      <trkpt lat="46.51364" lon="0.34831">
        <ele>113.8</ele>
        <time>2021-09-12T08:16:16Z</time>
      </trkpt>
      <trkpt lat="46.51367" lon="0.3483">
        <ele>112.6</ele>
        <time>2021-09-12T08:16:17Z</time>
      </trkpt>
      <trkpt lat="46.51371" lon="0.34828">
        <ele>111.6</ele>
        <time>2021-09-12T08:16:20Z</time>
      </trkpt>
      <trkpt lat="46.51372" lon="0.34826">
        <ele>111.8</ele>
        <time>2021-09-12T08:16:21Z</time>
      </trkpt>
      <trkpt lat="46.51374" lon="0.34826">
        <ele>112.6</ele>
        <time>2021-09-12T08:16:23Z</time>
      </trkpt>
      <trkpt lat="46.51375" lon="0.34823">
        <ele>113.2</ele>
        <time>2021-09-12T08:16:25Z</time>
      </trkpt>
      <trkpt lat="46.51376" lon="0.34824">
        <ele>113.4</ele>
        <time>2021-09-12T08:16:26Z</time>
      </trkpt>
      <trkpt lat="46.51382" lon="0.34821">
        <ele>113.6</ele>
        <time>2021-09-12T08:16:28Z</time>
      </trkpt>
      <trkpt lat="46.51384" lon="0.3482">
        <ele>113.8</ele>
        <time>2021-09-12T08:16:29Z</time>
      </trkpt>
      <trkpt lat="46.51389" lon="0.3482">
        <ele>113.8</ele>
        <time>2021-09-12T08:16:31Z</time>
      </trkpt>
      <trkpt lat="46.51396" lon="0.34816">
        <ele>112.8</ele>
        <time>2021-09-12T08:16:35Z</time>
      </trkpt>
      <trkpt lat="46.51398" lon="0.34814">
        <ele>112.6</ele>
        <time>2021-09-12T08:16:36Z</time>
      </trkpt>
      <trkpt lat="46.514" lon="0.34812">
        <ele>112.4</ele>
        <time>2021-09-12T08:16:37Z</time>
      </trkpt>
      <trkpt lat="46.51407" lon="0.34796">
        <ele>111.8</ele>
        <time>2021-09-12T08:16:44Z</time>
      </trkpt>
      <trkpt lat="46.51409" lon="0.34788">
        <ele>111.4</ele>
        <time>2021-09-12T08:16:46Z</time>
      </trkpt>
      <trkpt lat="46.51411" lon="0.34782">
        <ele>110.4</ele>
        <time>2021-09-12T08:16:48Z</time>
      </trkpt>
      <trkpt lat="46.51411" lon="0.34781">
        <ele>110.2</ele>
        <time>2021-09-12T08:16:49Z</time>
      </trkpt>
      <trkpt lat="46.51413" lon="0.34774">
        <ele>110.2</ele>
        <time>2021-09-12T08:16:52Z</time>
      </trkpt>
      <trkpt lat="46.51417" lon="0.34761">
        <ele>109.8</ele>
        <time>2021-09-12T08:16:56Z</time>
      </trkpt>
      <trkpt lat="46.51419" lon="0.34754">
        <ele>109</ele>
        <time>2021-09-12T08:16:58Z</time>
      </trkpt>
      <trkpt lat="46.51422" lon="0.34747">
        <ele>107.8</ele>
        <time>2021-09-12T08:17:00Z</time>
      </trkpt>
      <trkpt lat="46.51425" lon="0.3474">
        <ele>107</ele>
        <time>2021-09-12T08:17:02Z</time>
      </trkpt>
      <trkpt lat="46.51428" lon="0.34735">
        <ele>106.6</ele>
        <time>2021-09-12T08:17:04Z</time>
      </trkpt>
      <trkpt lat="46.5143" lon="0.34726">
        <ele>106.6</ele>
        <time>2021-09-12T08:17:07Z</time>
      </trkpt>
      <trkpt lat="46.51432" lon="0.34717">
        <ele>106.6</ele>
        <time>2021-09-12T08:17:10Z</time>
      </trkpt>
      <trkpt lat="46.51434" lon="0.34709">
        <ele>107.6</ele>
        <time>2021-09-12T08:17:13Z</time>
      </trkpt>
      <trkpt lat="46.51434" lon="0.34706">
        <ele>107.6</ele>
        <time>2021-09-12T08:17:14Z</time>
      </trkpt>
      <trkpt lat="46.51439" lon="0.34685">
        <ele>107</ele>
        <time>2021-09-12T08:17:21Z</time>
      </trkpt>
      <trkpt lat="46.51444" lon="0.34677">
        <ele>107</ele>
        <time>2021-09-12T08:17:24Z</time>
      </trkpt>
      <trkpt lat="46.51449" lon="0.34673">
        <ele>105</ele>
        <time>2021-09-12T08:17:26Z</time>
      </trkpt>
      <trkpt lat="46.51451" lon="0.34669">
        <ele>103.6</ele>
        <time>2021-09-12T08:17:27Z</time>
      </trkpt>
      <trkpt lat="46.51452" lon="0.34665">
        <ele>102.4</ele>
        <time>2021-09-12T08:17:28Z</time>
      </trkpt>
      <trkpt lat="46.51455" lon="0.34658">
        <ele>101</ele>
        <time>2021-09-12T08:17:30Z</time>
      </trkpt>
      <trkpt lat="46.51462" lon="0.34639">
        <ele>100.2</ele>
        <time>2021-09-12T08:17:37Z</time>
      </trkpt>
      <trkpt lat="46.51466" lon="0.34621">
        <ele>100.2</ele>
        <time>2021-09-12T08:17:41Z</time>
      </trkpt>
      <trkpt lat="46.51469" lon="0.34611">
        <ele>100</ele>
        <time>2021-09-12T08:17:43Z</time>
      </trkpt>
      <trkpt lat="46.51475" lon="0.3459">
        <ele>99.2</ele>
        <time>2021-09-12T08:17:46Z</time>
      </trkpt>
      <trkpt lat="46.51477" lon="0.34583">
        <ele>99</ele>
        <time>2021-09-12T08:17:47Z</time>
      </trkpt>
      <trkpt lat="46.51485" lon="0.34561">
        <ele>98.8</ele>
        <time>2021-09-12T08:17:51Z</time>
      </trkpt>
      <trkpt lat="46.51498" lon="0.34536">
        <ele>100</ele>
        <time>2021-09-12T08:17:57Z</time>
      </trkpt>
      <trkpt lat="46.51498" lon="0.34533">
        <ele>100</ele>
        <time>2021-09-12T08:17:58Z</time>
      </trkpt>
      <trkpt lat="46.51497" lon="0.34527">
        <ele>100.2</ele>
        <time>2021-09-12T08:18:00Z</time>
      </trkpt>
      <trkpt lat="46.51496" lon="0.34525">
        <ele>100.2</ele>
        <time>2021-09-12T08:18:01Z</time>
      </trkpt>
      <trkpt lat="46.51488" lon="0.3452">
        <ele>101.2</ele>
        <time>2021-09-12T08:18:04Z</time>
      </trkpt>
      <trkpt lat="46.51483" lon="0.34517">
        <ele>102</ele>
        <time>2021-09-12T08:18:06Z</time>
      </trkpt>
      <trkpt lat="46.51481" lon="0.34515">
        <ele>102.4</ele>
        <time>2021-09-12T08:18:07Z</time>
      </trkpt>
      <trkpt lat="46.51475" lon="0.3451">
        <ele>103.4</ele>
        <time>2021-09-12T08:18:10Z</time>
      </trkpt>
      <trkpt lat="46.51469" lon="0.34506">
        <ele>104.6</ele>
        <time>2021-09-12T08:18:13Z</time>
      </trkpt>
      <trkpt lat="46.5146" lon="0.34504">
        <ele>105.6</ele>
        <time>2021-09-12T08:18:17Z</time>
      </trkpt>
      <trkpt lat="46.51452" lon="0.34503">
        <ele>106.6</ele>
        <time>2021-09-12T08:18:20Z</time>
      </trkpt>
      <trkpt lat="46.5145" lon="0.34503">
        <ele>106.6</ele>
        <time>2021-09-12T08:18:21Z</time>
      </trkpt>
      <trkpt lat="46.51439" lon="0.345">
        <ele>107.8</ele>
        <time>2021-09-12T08:18:25Z</time>
      </trkpt>
      <trkpt lat="46.51431" lon="0.34499">
        <ele>108.4</ele>
        <time>2021-09-12T08:18:28Z</time>
      </trkpt>
      <trkpt lat="46.51426" lon="0.34499">
        <ele>109.2</ele>
        <time>2021-09-12T08:18:30Z</time>
      </trkpt>
      <trkpt lat="46.51414" lon="0.34501">
        <ele>110</ele>
        <time>2021-09-12T08:18:36Z</time>
      </trkpt>
      <trkpt lat="46.51412" lon="0.34503">
        <ele>110.2</ele>
        <time>2021-09-12T08:18:37Z</time>
      </trkpt>
      <trkpt lat="46.51409" lon="0.34508">
        <ele>111</ele>
        <time>2021-09-12T08:18:40Z</time>
      </trkpt>
      <trkpt lat="46.51408" lon="0.34509">
        <ele>111.4</ele>
        <time>2021-09-12T08:18:41Z</time>
      </trkpt>
      <trkpt lat="46.51406" lon="0.34513">
        <ele>112.4</ele>
        <time>2021-09-12T08:18:44Z</time>
      </trkpt>
      <trkpt lat="46.51403" lon="0.34516">
        <ele>113</ele>
        <time>2021-09-12T08:18:46Z</time>
      </trkpt>
      <trkpt lat="46.514" lon="0.3452">
        <ele>113.6</ele>
        <time>2021-09-12T08:18:49Z</time>
      </trkpt>
      <trkpt lat="46.51395" lon="0.34525">
        <ele>114.2</ele>
        <time>2021-09-12T08:18:52Z</time>
      </trkpt>
      <trkpt lat="46.51391" lon="0.34529">
        <ele>114.8</ele>
        <time>2021-09-12T08:18:54Z</time>
      </trkpt>
      <trkpt lat="46.51382" lon="0.34537">
        <ele>114.8</ele>
        <time>2021-09-12T08:18:58Z</time>
      </trkpt>
      <trkpt lat="46.51372" lon="0.34543">
        <ele>115.8</ele>
        <time>2021-09-12T08:19:02Z</time>
      </trkpt>
      <trkpt lat="46.51363" lon="0.34547">
        <ele>116.4</ele>
        <time>2021-09-12T08:19:05Z</time>
      </trkpt>
      <trkpt lat="46.51357" lon="0.3455">
        <ele>116.8</ele>
        <time>2021-09-12T08:19:07Z</time>
      </trkpt>
      <trkpt lat="46.51338" lon="0.3456">
        <ele>117.6</ele>
        <time>2021-09-12T08:19:13Z</time>
      </trkpt>
      <trkpt lat="46.51332" lon="0.34564">
        <ele>118</ele>
        <time>2021-09-12T08:19:15Z</time>
      </trkpt>
      <trkpt lat="46.51314" lon="0.34576">
        <ele>118.6</ele>
        <time>2021-09-12T08:19:21Z</time>
      </trkpt>
      <trkpt lat="46.513" lon="0.3459">
        <ele>119.2</ele>
        <time>2021-09-12T08:19:26Z</time>
      </trkpt>
      <trkpt lat="46.5129" lon="0.34599">
        <ele>119.6</ele>
        <time>2021-09-12T08:19:29Z</time>
      </trkpt>
      <trkpt lat="46.51269" lon="0.34609">
        <ele>120</ele>
        <time>2021-09-12T08:19:35Z</time>
      </trkpt>
      <trkpt lat="46.51262" lon="0.34607">
        <ele>120.2</ele>
        <time>2021-09-12T08:19:37Z</time>
      </trkpt>
      <trkpt lat="46.51247" lon="0.34604">
        <ele>120.8</ele>
        <time>2021-09-12T08:19:41Z</time>
      </trkpt>
      <trkpt lat="46.5124" lon="0.34603">
        <ele>121.4</ele>
        <time>2021-09-12T08:19:43Z</time>
      </trkpt>
      <trkpt lat="46.51217" lon="0.34603">
        <ele>122</ele>
        <time>2021-09-12T08:19:50Z</time>
      </trkpt>
      <trkpt lat="46.51202" lon="0.34606">
        <ele>122.4</ele>
        <time>2021-09-12T08:19:55Z</time>
      </trkpt>
      <trkpt lat="46.51194" lon="0.34606">
        <ele>122.6</ele>
        <time>2021-09-12T08:19:57Z</time>
      </trkpt>
      <trkpt lat="46.51192" lon="0.34603">
        <ele>122.8</ele>
        <time>2021-09-12T08:19:58Z</time>
      </trkpt>
      <trkpt lat="46.5119" lon="0.34593">
        <ele>122.8</ele>
        <time>2021-09-12T08:20:00Z</time>
      </trkpt>
      <trkpt lat="46.5119" lon="0.34587">
        <ele>122.8</ele>
        <time>2021-09-12T08:20:01Z</time>
      </trkpt>
      <trkpt lat="46.51193" lon="0.34563">
        <ele>122.2</ele>
        <time>2021-09-12T08:20:05Z</time>
      </trkpt>
      <trkpt lat="46.51193" lon="0.34556">
        <ele>122.2</ele>
        <time>2021-09-12T08:20:06Z</time>
      </trkpt>
      <trkpt lat="46.51192" lon="0.34521">
        <ele>121.8</ele>
        <time>2021-09-12T08:20:11Z</time>
      </trkpt>
      <trkpt lat="46.51184" lon="0.34477">
        <ele>121.6</ele>
        <time>2021-09-12T08:20:17Z</time>
      </trkpt>
      <trkpt lat="46.5117" lon="0.34418">
        <ele>121.6</ele>
        <time>2021-09-12T08:20:25Z</time>
      </trkpt>
      <trkpt lat="46.51156" lon="0.3435">
        <ele>122.8</ele>
        <time>2021-09-12T08:20:34Z</time>
      </trkpt>
      <trkpt lat="46.51155" lon="0.34327">
        <ele>123.4</ele>
        <time>2021-09-12T08:20:37Z</time>
      </trkpt>
      <trkpt lat="46.51156" lon="0.34319">
        <ele>123.4</ele>
        <time>2021-09-12T08:20:38Z</time>
      </trkpt>
      <trkpt lat="46.51157" lon="0.34311">
        <ele>123.6</ele>
        <time>2021-09-12T08:20:39Z</time>
      </trkpt>
      <trkpt lat="46.51171" lon="0.34262">
        <ele>123.4</ele>
        <time>2021-09-12T08:20:46Z</time>
      </trkpt>
      <trkpt lat="46.51182" lon="0.34213">
        <ele>123.6</ele>
        <time>2021-09-12T08:20:53Z</time>
      </trkpt>
      <trkpt lat="46.5119" lon="0.34181">
        <ele>123.6</ele>
        <time>2021-09-12T08:20:58Z</time>
      </trkpt>
      <trkpt lat="46.51192" lon="0.34178">
        <ele>123.4</ele>
        <time>2021-09-12T08:20:59Z</time>
      </trkpt>
      <trkpt lat="46.51195" lon="0.34175">
        <ele>123.2</ele>
        <time>2021-09-12T08:21:00Z</time>
      </trkpt>
      <trkpt lat="46.51201" lon="0.34171">
        <ele>122.4</ele>
        <time>2021-09-12T08:21:02Z</time>
      </trkpt>
      <trkpt lat="46.51203" lon="0.34167">
        <ele>121.8</ele>
        <time>2021-09-12T08:21:03Z</time>
      </trkpt>
      <trkpt lat="46.51206" lon="0.34164">
        <ele>121.2</ele>
        <time>2021-09-12T08:21:04Z</time>
      </trkpt>
      <trkpt lat="46.51213" lon="0.34162">
        <ele>120.2</ele>
        <time>2021-09-12T08:21:06Z</time>
      </trkpt>
      <trkpt lat="46.51215" lon="0.3416">
        <ele>119.8</ele>
        <time>2021-09-12T08:21:07Z</time>
      </trkpt>
      <trkpt lat="46.51217" lon="0.34158">
        <ele>119.6</ele>
        <time>2021-09-12T08:21:08Z</time>
      </trkpt>
      <trkpt lat="46.51219" lon="0.34152">
        <ele>118.6</ele>
        <time>2021-09-12T08:21:10Z</time>
      </trkpt>
      <trkpt lat="46.51219" lon="0.3415">
        <ele>118</ele>
        <time>2021-09-12T08:21:11Z</time>
      </trkpt>
      <trkpt lat="46.5122" lon="0.34149">
        <ele>117.4</ele>
        <time>2021-09-12T08:21:12Z</time>
      </trkpt>
      <trkpt lat="46.51221" lon="0.34147">
        <ele>115.6</ele>
        <time>2021-09-12T08:21:14Z</time>
      </trkpt>
      <trkpt lat="46.51223" lon="0.34146">
        <ele>114.4</ele>
        <time>2021-09-12T08:21:16Z</time>
      </trkpt>
      <trkpt lat="46.51223" lon="0.34145">
        <ele>113.8</ele>
        <time>2021-09-12T08:21:17Z</time>
      </trkpt>
      <trkpt lat="46.51224" lon="0.34144">
        <ele>113</ele>
        <time>2021-09-12T08:21:18Z</time>
      </trkpt>
      <trkpt lat="46.51225" lon="0.34143">
        <ele>112</ele>
        <time>2021-09-12T08:21:19Z</time>
      </trkpt>
      <trkpt lat="46.51228" lon="0.34141">
        <ele>110.6</ele>
        <time>2021-09-12T08:21:21Z</time>
      </trkpt>
      <trkpt lat="46.51229" lon="0.3414">
        <ele>109.6</ele>
        <time>2021-09-12T08:21:22Z</time>
      </trkpt>
      <trkpt lat="46.51232" lon="0.34136">
        <ele>108</ele>
        <time>2021-09-12T08:21:24Z</time>
      </trkpt>
      <trkpt lat="46.51234" lon="0.3413">
        <ele>105.6</ele>
        <time>2021-09-12T08:21:26Z</time>
      </trkpt>
      <trkpt lat="46.51235" lon="0.34126">
        <ele>103.8</ele>
        <time>2021-09-12T08:21:27Z</time>
      </trkpt>
      <trkpt lat="46.51235" lon="0.34122">
        <ele>102</ele>
        <time>2021-09-12T08:21:28Z</time>
      </trkpt>
      <trkpt lat="46.51236" lon="0.34119">
        <ele>100</ele>
        <time>2021-09-12T08:21:29Z</time>
      </trkpt>
      <trkpt lat="46.51236" lon="0.34115">
        <ele>97.8</ele>
        <time>2021-09-12T08:21:30Z</time>
      </trkpt>
      <trkpt lat="46.51237" lon="0.34112">
        <ele>96.2</ele>
        <time>2021-09-12T08:21:31Z</time>
      </trkpt>
      <trkpt lat="46.51238" lon="0.34108">
        <ele>95.2</ele>
        <time>2021-09-12T08:21:32Z</time>
      </trkpt>
      <trkpt lat="46.51242" lon="0.341">
        <ele>93.4</ele>
        <time>2021-09-12T08:21:34Z</time>
      </trkpt>
      <trkpt lat="46.51243" lon="0.34095">
        <ele>92.4</ele>
        <time>2021-09-12T08:21:36Z</time>
      </trkpt>
      <trkpt lat="46.51244" lon="0.34092">
        <ele>92</ele>
        <time>2021-09-12T08:21:37Z</time>
      </trkpt>
      <trkpt lat="46.51243" lon="0.34088">
        <ele>91.2</ele>
        <time>2021-09-12T08:21:39Z</time>
      </trkpt>
      <trkpt lat="46.51242" lon="0.3408">
        <ele>90.4</ele>
        <time>2021-09-12T08:21:41Z</time>
      </trkpt>
      <trkpt lat="46.51242" lon="0.34074">
        <ele>89.8</ele>
        <time>2021-09-12T08:21:42Z</time>
      </trkpt>
      <trkpt lat="46.51242" lon="0.34069">
        <ele>89</ele>
        <time>2021-09-12T08:21:43Z</time>
      </trkpt>
      <trkpt lat="46.51241" lon="0.34064">
        <ele>88.4</ele>
        <time>2021-09-12T08:21:44Z</time>
      </trkpt>
      <trkpt lat="46.51242" lon="0.3406">
        <ele>87.8</ele>
        <time>2021-09-12T08:21:45Z</time>
      </trkpt>
      <trkpt lat="46.5124" lon="0.3405">
        <ele>86.2</ele>
        <time>2021-09-12T08:21:47Z</time>
      </trkpt>
      <trkpt lat="46.5124" lon="0.34045">
        <ele>85.6</ele>
        <time>2021-09-12T08:21:48Z</time>
      </trkpt>
      <trkpt lat="46.5124" lon="0.34037">
        <ele>85</ele>
        <time>2021-09-12T08:21:49Z</time>
      </trkpt>
      <trkpt lat="46.51241" lon="0.34026">
        <ele>82.4</ele>
        <time>2021-09-12T08:21:51Z</time>
      </trkpt>
      <trkpt lat="46.51242" lon="0.34018">
        <ele>80.8</ele>
        <time>2021-09-12T08:21:52Z</time>
      </trkpt>
      <trkpt lat="46.51244" lon="0.34012">
        <ele>79.6</ele>
        <time>2021-09-12T08:21:53Z</time>
      </trkpt>
      <trkpt lat="46.51244" lon="0.34005">
        <ele>78</ele>
        <time>2021-09-12T08:21:54Z</time>
      </trkpt>
      <trkpt lat="46.51247" lon="0.33997">
        <ele>76.6</ele>
        <time>2021-09-12T08:21:56Z</time>
      </trkpt>
      <trkpt lat="46.51249" lon="0.33998">
        <ele>76.2</ele>
        <time>2021-09-12T08:21:57Z</time>
      </trkpt>
      <trkpt lat="46.5126" lon="0.34">
        <ele>75.8</ele>
        <time>2021-09-12T08:22:02Z</time>
      </trkpt>
      <trkpt lat="46.5127" lon="0.3401">
        <ele>75.6</ele>
        <time>2021-09-12T08:22:06Z</time>
      </trkpt>
      <trkpt lat="46.51281" lon="0.34018">
        <ele>75.8</ele>
        <time>2021-09-12T08:22:10Z</time>
      </trkpt>
      <trkpt lat="46.51292" lon="0.34021">
        <ele>75.6</ele>
        <time>2021-09-12T08:22:15Z</time>
      </trkpt>
      <trkpt lat="46.51294" lon="0.34023">
        <ele>75.4</ele>
        <time>2021-09-12T08:22:18Z</time>
      </trkpt>
      <trkpt lat="46.51293" lon="0.34026">
        <ele>75.4</ele>
        <time>2021-09-12T08:22:20Z</time>
      </trkpt>
      <trkpt lat="46.51293" lon="0.34029">
        <ele>76.6</ele>
        <time>2021-09-12T08:22:22Z</time>
      </trkpt>
      <trkpt lat="46.51293" lon="0.34029">
        <ele>76.8</ele>
        <time>2021-09-12T08:22:23Z</time>
      </trkpt>
      <trkpt lat="46.51293" lon="0.34032">
        <ele>77.6</ele>
        <time>2021-09-12T08:22:26Z</time>
      </trkpt>
      <trkpt lat="46.51294" lon="0.34032">
        <ele>77.8</ele>
        <time>2021-09-12T08:22:27Z</time>
      </trkpt>
      <trkpt lat="46.51296" lon="0.34035">
        <ele>79</ele>
        <time>2021-09-12T08:22:31Z</time>
      </trkpt>
      <trkpt lat="46.51296" lon="0.34041">
        <ele>80</ele>
        <time>2021-09-12T08:22:35Z</time>
      </trkpt>
      <trkpt lat="46.51296" lon="0.34042">
        <ele>80.2</ele>
        <time>2021-09-12T08:22:36Z</time>
      </trkpt>
      <trkpt lat="46.51295" lon="0.34045">
        <ele>81.4</ele>
        <time>2021-09-12T08:22:39Z</time>
      </trkpt>
      <trkpt lat="46.51296" lon="0.34048">
        <ele>82.4</ele>
        <time>2021-09-12T08:22:43Z</time>
      </trkpt>
      <trkpt lat="46.51296" lon="0.34052">
        <ele>83</ele>
        <time>2021-09-12T08:22:47Z</time>
      </trkpt>
      <trkpt lat="46.51296" lon="0.34054">
        <ele>83.6</ele>
        <time>2021-09-12T08:22:49Z</time>
      </trkpt>
      <trkpt lat="46.51297" lon="0.34059">
        <ele>84.6</ele>
        <time>2021-09-12T08:22:55Z</time>
      </trkpt>
      <trkpt lat="46.51298" lon="0.3406">
        <ele>84.8</ele>
        <time>2021-09-12T08:22:58Z</time>
      </trkpt>
      <trkpt lat="46.513" lon="0.34062">
        <ele>84.6</ele>
        <time>2021-09-12T08:23:03Z</time>
      </trkpt>
      <trkpt lat="46.51302" lon="0.34065">
        <ele>84.6</ele>
        <time>2021-09-12T08:23:06Z</time>
      </trkpt>
      <trkpt lat="46.51306" lon="0.34069">
        <ele>85</ele>
        <time>2021-09-12T08:23:10Z</time>
      </trkpt>
      <trkpt lat="46.5131" lon="0.34076">
        <ele>85.6</ele>
        <time>2021-09-12T08:23:16Z</time>
      </trkpt>
      <trkpt lat="46.51317" lon="0.34086">
        <ele>86.6</ele>
        <time>2021-09-12T08:23:22Z</time>
      </trkpt>
      <trkpt lat="46.5132" lon="0.34089">
        <ele>86.8</ele>
        <time>2021-09-12T08:23:24Z</time>
      </trkpt>
      <trkpt lat="46.51328" lon="0.34099">
        <ele>87.6</ele>
        <time>2021-09-12T08:23:30Z</time>
      </trkpt>
      <trkpt lat="46.51336" lon="0.34107">
        <ele>88.8</ele>
        <time>2021-09-12T08:23:34Z</time>
      </trkpt>
      <trkpt lat="46.51338" lon="0.34111">
        <ele>89</ele>
        <time>2021-09-12T08:23:35Z</time>
      </trkpt>
      <trkpt lat="46.51346" lon="0.34119">
        <ele>88.8</ele>
        <time>2021-09-12T08:23:39Z</time>
      </trkpt>
      <trkpt lat="46.51349" lon="0.34121">
        <ele>88.8</ele>
        <time>2021-09-12T08:23:40Z</time>
      </trkpt>
      <trkpt lat="46.51362" lon="0.34125">
        <ele>87.6</ele>
        <time>2021-09-12T08:23:45Z</time>
      </trkpt>
      <trkpt lat="46.51374" lon="0.34132">
        <ele>86.4</ele>
        <time>2021-09-12T08:23:49Z</time>
      </trkpt>
      <trkpt lat="46.51381" lon="0.34134">
        <ele>85.8</ele>
        <time>2021-09-12T08:23:51Z</time>
      </trkpt>
      <trkpt lat="46.51384" lon="0.34134">
        <ele>85.4</ele>
        <time>2021-09-12T08:23:52Z</time>
      </trkpt>
      <trkpt lat="46.5139" lon="0.34133">
        <ele>84.2</ele>
        <time>2021-09-12T08:23:54Z</time>
      </trkpt>
      <trkpt lat="46.51395" lon="0.34132">
        <ele>83</ele>
        <time>2021-09-12T08:23:56Z</time>
      </trkpt>
      <trkpt lat="46.51399" lon="0.34132">
        <ele>82.6</ele>
        <time>2021-09-12T08:23:57Z</time>
      </trkpt>
      <trkpt lat="46.51406" lon="0.3413">
        <ele>81.8</ele>
        <time>2021-09-12T08:23:59Z</time>
      </trkpt>
      <trkpt lat="46.5141" lon="0.3413">
        <ele>81.2</ele>
        <time>2021-09-12T08:24:00Z</time>
      </trkpt>
      <trkpt lat="46.51413" lon="0.3413">
        <ele>81</ele>
        <time>2021-09-12T08:24:01Z</time>
      </trkpt>
      <trkpt lat="46.51416" lon="0.34129">
        <ele>80.8</ele>
        <time>2021-09-12T08:24:02Z</time>
      </trkpt>
      <trkpt lat="46.51432" lon="0.34123">
        <ele>79.4</ele>
        <time>2021-09-12T08:24:06Z</time>
      </trkpt>
      <trkpt lat="46.5144" lon="0.34119">
        <ele>77.8</ele>
        <time>2021-09-12T08:24:08Z</time>
      </trkpt>
      <trkpt lat="46.51445" lon="0.34117">
        <ele>76.6</ele>
        <time>2021-09-12T08:24:11Z</time>
      </trkpt>
      <trkpt lat="46.51449" lon="0.34116">
        <ele>76</ele>
        <time>2021-09-12T08:24:23Z</time>
      </trkpt>
      <trkpt lat="46.51449" lon="0.34116">
        <ele>75.8</ele>
        <time>2021-09-12T08:24:44Z</time>
      </trkpt>
      <trkpt lat="46.5145" lon="0.34115">
        <ele>75.6</ele>
        <time>2021-09-12T08:25:10Z</time>
      </trkpt>
      <trkpt lat="46.51451" lon="0.34113">
        <ele>75.6</ele>
        <time>2021-09-12T08:25:12Z</time>
      </trkpt>
      <trkpt lat="46.51453" lon="0.34112">
        <ele>75.4</ele>
        <time>2021-09-12T08:25:13Z</time>
      </trkpt>
      <trkpt lat="46.51455" lon="0.34111">
        <ele>75.2</ele>
        <time>2021-09-12T08:25:14Z</time>
      </trkpt>
      <trkpt lat="46.51459" lon="0.3411">
        <ele>74.6</ele>
        <time>2021-09-12T08:25:15Z</time>
      </trkpt>
      <trkpt lat="46.51464" lon="0.3411">
        <ele>73.8</ele>
        <time>2021-09-12T08:25:16Z</time>
      </trkpt>
      <trkpt lat="46.51475" lon="0.34111">
        <ele>73</ele>
        <time>2021-09-12T08:25:18Z</time>
      </trkpt>
      <trkpt lat="46.5148" lon="0.34112">
        <ele>72.8</ele>
        <time>2021-09-12T08:25:19Z</time>
      </trkpt>
      <trkpt lat="46.51485" lon="0.34114">
        <ele>72.8</ele>
        <time>2021-09-12T08:25:20Z</time>
      </trkpt>
      <trkpt lat="46.51494" lon="0.34116">
        <ele>72.8</ele>
        <time>2021-09-12T08:25:22Z</time>
      </trkpt>
      <trkpt lat="46.51515" lon="0.34122">
        <ele>72.4</ele>
        <time>2021-09-12T08:25:27Z</time>
      </trkpt>
      <trkpt lat="46.51545" lon="0.34127">
        <ele>72.2</ele>
        <time>2021-09-12T08:25:33Z</time>
      </trkpt>
      <trkpt lat="46.51561" lon="0.34129">
        <ele>71.6</ele>
        <time>2021-09-12T08:25:37Z</time>
      </trkpt>
      <trkpt lat="46.51576" lon="0.3413">
        <ele>71.4</ele>
        <time>2021-09-12T08:25:40Z</time>
      </trkpt>
      <trkpt lat="46.51597" lon="0.3413">
        <ele>72</ele>
        <time>2021-09-12T08:25:44Z</time>
      </trkpt>
      <trkpt lat="46.51607" lon="0.34134">
        <ele>72</ele>
        <time>2021-09-12T08:25:46Z</time>
      </trkpt>
      <trkpt lat="46.51628" lon="0.34145">
        <ele>72</ele>
        <time>2021-09-12T08:25:51Z</time>
      </trkpt>
      <trkpt lat="46.5163" lon="0.34149">
        <ele>72</ele>
        <time>2021-09-12T08:25:52Z</time>
      </trkpt>
      <trkpt lat="46.51633" lon="0.34162">
        <ele>72.8</ele>
        <time>2021-09-12T08:25:55Z</time>
      </trkpt>
      <trkpt lat="46.51633" lon="0.34166">
        <ele>73</ele>
        <time>2021-09-12T08:25:56Z</time>
      </trkpt>
      <trkpt lat="46.51634" lon="0.34176">
        <ele>74</ele>
        <time>2021-09-12T08:25:59Z</time>
      </trkpt>
      <trkpt lat="46.51634" lon="0.34176">
        <ele>75.6</ele>
        <time>2021-09-12T08:26:01Z</time>
      </trkpt>
      <trkpt lat="46.51637" lon="0.34187">
        <ele>76.6</ele>
        <time>2021-09-12T08:26:04Z</time>
      </trkpt>
      <trkpt lat="46.51638" lon="0.34189">
        <ele>77.4</ele>
        <time>2021-09-12T08:26:05Z</time>
      </trkpt>
      <trkpt lat="46.51638" lon="0.3419">
        <ele>77.6</ele>
        <time>2021-09-12T08:26:06Z</time>
      </trkpt>
      <trkpt lat="46.51642" lon="0.34196">
        <ele>78.2</ele>
        <time>2021-09-12T08:26:09Z</time>
      </trkpt>
      <trkpt lat="46.51659" lon="0.34207">
        <ele>77.4</ele>
        <time>2021-09-12T08:26:14Z</time>
      </trkpt>
      <trkpt lat="46.51676" lon="0.34211">
        <ele>77</ele>
        <time>2021-09-12T08:26:18Z</time>
      </trkpt>
      <trkpt lat="46.51678" lon="0.34211">
        <ele>76.8</ele>
        <time>2021-09-12T08:26:19Z</time>
      </trkpt>
      <trkpt lat="46.51681" lon="0.34209">
        <ele>76.6</ele>
        <time>2021-09-12T08:26:20Z</time>
      </trkpt>
      <trkpt lat="46.51687" lon="0.34202">
        <ele>76.6</ele>
        <time>2021-09-12T08:26:22Z</time>
      </trkpt>
      <trkpt lat="46.51701" lon="0.34174">
        <ele>75.6</ele>
        <time>2021-09-12T08:26:27Z</time>
      </trkpt>
      <trkpt lat="46.5172" lon="0.34125">
        <ele>74.8</ele>
        <time>2021-09-12T08:26:34Z</time>
      </trkpt>
      <trkpt lat="46.51724" lon="0.34109">
        <ele>74.6</ele>
        <time>2021-09-12T08:26:36Z</time>
      </trkpt>
      <trkpt lat="46.51726" lon="0.341">
        <ele>74.4</ele>
        <time>2021-09-12T08:26:37Z</time>
      </trkpt>
      <trkpt lat="46.51728" lon="0.34082">
        <ele>74.4</ele>
        <time>2021-09-12T08:26:39Z</time>
      </trkpt>
      <trkpt lat="46.5173" lon="0.34047">
        <ele>73.8</ele>
        <time>2021-09-12T08:26:43Z</time>
      </trkpt>
      <trkpt lat="46.51732" lon="0.34041">
        <ele>73.6</ele>
        <time>2021-09-12T08:26:44Z</time>
      </trkpt>
      <trkpt lat="46.51735" lon="0.34037">
        <ele>73.6</ele>
        <time>2021-09-12T08:26:45Z</time>
      </trkpt>
      <trkpt lat="46.51739" lon="0.34034">
        <ele>73.4</ele>
        <time>2021-09-12T08:26:46Z</time>
      </trkpt>
      <trkpt lat="46.51741" lon="0.34034">
        <ele>73.4</ele>
        <time>2021-09-12T08:26:47Z</time>
      </trkpt>
      <trkpt lat="46.51748" lon="0.34036">
        <ele>73.2</ele>
        <time>2021-09-12T08:26:49Z</time>
      </trkpt>
      <trkpt lat="46.51755" lon="0.34041">
        <ele>73.2</ele>
        <time>2021-09-12T08:26:51Z</time>
      </trkpt>
      <trkpt lat="46.51784" lon="0.34055">
        <ele>73</ele>
        <time>2021-09-12T08:26:56Z</time>
      </trkpt>
      <trkpt lat="46.5179" lon="0.34056">
        <ele>73</ele>
        <time>2021-09-12T08:26:57Z</time>
      </trkpt>
      <trkpt lat="46.51803" lon="0.34056">
        <ele>73</ele>
        <time>2021-09-12T08:26:59Z</time>
      </trkpt>
      <trkpt lat="46.51822" lon="0.34051">
        <ele>73.2</ele>
        <time>2021-09-12T08:27:02Z</time>
      </trkpt>
      <trkpt lat="46.51835" lon="0.34052">
        <ele>73.2</ele>
        <time>2021-09-12T08:27:04Z</time>
      </trkpt>
      <trkpt lat="46.51847" lon="0.34057">
        <ele>73.2</ele>
        <time>2021-09-12T08:27:06Z</time>
      </trkpt>
      <trkpt lat="46.5186" lon="0.34062">
        <ele>73</ele>
        <time>2021-09-12T08:27:08Z</time>
      </trkpt>
      <trkpt lat="46.51872" lon="0.34063">
        <ele>72.8</ele>
        <time>2021-09-12T08:27:10Z</time>
      </trkpt>
      <trkpt lat="46.51884" lon="0.34061">
        <ele>72.8</ele>
        <time>2021-09-12T08:27:12Z</time>
      </trkpt>
      <trkpt lat="46.51934" lon="0.34046">
        <ele>72.6</ele>
        <time>2021-09-12T08:27:20Z</time>
      </trkpt>
      <trkpt lat="46.51963" lon="0.34034">
        <ele>73.2</ele>
        <time>2021-09-12T08:27:25Z</time>
      </trkpt>
      <trkpt lat="46.51967" lon="0.3403">
        <ele>73.2</ele>
        <time>2021-09-12T08:27:26Z</time>
      </trkpt>
      <trkpt lat="46.51969" lon="0.34024">
        <ele>73.2</ele>
        <time>2021-09-12T08:27:27Z</time>
      </trkpt>
      <trkpt lat="46.51969" lon="0.34017">
        <ele>73</ele>
        <time>2021-09-12T08:27:28Z</time>
      </trkpt>
      <trkpt lat="46.51968" lon="0.3401">
        <ele>73</ele>
        <time>2021-09-12T08:27:29Z</time>
      </trkpt>
      <trkpt lat="46.51965" lon="0.33998">
        <ele>73</ele>
        <time>2021-09-12T08:27:31Z</time>
      </trkpt>
      <trkpt lat="46.51964" lon="0.33993">
        <ele>72.8</ele>
        <time>2021-09-12T08:27:32Z</time>
      </trkpt>
      <trkpt lat="46.51963" lon="0.33987">
        <ele>73</ele>
        <time>2021-09-12T08:27:33Z</time>
      </trkpt>
      <trkpt lat="46.51967" lon="0.33978">
        <ele>73</ele>
        <time>2021-09-12T08:27:35Z</time>
      </trkpt>
      <trkpt lat="46.51969" lon="0.33965">
        <ele>72.6</ele>
        <time>2021-09-12T08:27:37Z</time>
      </trkpt>
      <trkpt lat="46.51969" lon="0.33958">
        <ele>72.4</ele>
        <time>2021-09-12T08:27:38Z</time>
      </trkpt>
      <trkpt lat="46.5197" lon="0.3395">
        <ele>72.2</ele>
        <time>2021-09-12T08:27:39Z</time>
      </trkpt>
      <trkpt lat="46.51975" lon="0.33927">
        <ele>72</ele>
        <time>2021-09-12T08:27:42Z</time>
      </trkpt>
      <trkpt lat="46.51983" lon="0.3388">
        <ele>72</ele>
        <time>2021-09-12T08:27:48Z</time>
      </trkpt>
      <trkpt lat="46.51987" lon="0.33833">
        <ele>71.8</ele>
        <time>2021-09-12T08:27:55Z</time>
      </trkpt>
      <trkpt lat="46.51992" lon="0.33784">
        <ele>72</ele>
        <time>2021-09-12T08:28:03Z</time>
      </trkpt>
      <trkpt lat="46.51996" lon="0.33755">
        <ele>72</ele>
        <time>2021-09-12T08:28:08Z</time>
      </trkpt>
      <trkpt lat="46.51997" lon="0.33744">
        <ele>71.8</ele>
        <time>2021-09-12T08:28:10Z</time>
      </trkpt>
      <trkpt lat="46.51998" lon="0.33739">
        <ele>71.8</ele>
        <time>2021-09-12T08:28:11Z</time>
      </trkpt>
      <trkpt lat="46.52" lon="0.33733">
        <ele>72</ele>
        <time>2021-09-12T08:28:13Z</time>
      </trkpt>
      <trkpt lat="46.52001" lon="0.33731">
        <ele>72</ele>
        <time>2021-09-12T08:28:14Z</time>
      </trkpt>
      <trkpt lat="46.52012" lon="0.33729">
        <ele>72.8</ele>
        <time>2021-09-12T08:28:19Z</time>
      </trkpt>
      <trkpt lat="46.52015" lon="0.33729">
        <ele>72.8</ele>
        <time>2021-09-12T08:28:20Z</time>
      </trkpt>
      <trkpt lat="46.52027" lon="0.3373">
        <ele>72.8</ele>
        <time>2021-09-12T08:28:23Z</time>
      </trkpt>
      <trkpt lat="46.52057" lon="0.33736">
        <ele>72.8</ele>
        <time>2021-09-12T08:28:29Z</time>
      </trkpt>
      <trkpt lat="46.5206" lon="0.33742">
        <ele>73.2</ele>
        <time>2021-09-12T08:28:31Z</time>
      </trkpt>
      <trkpt lat="46.5206" lon="0.33747">
        <ele>73.2</ele>
        <time>2021-09-12T08:28:32Z</time>
      </trkpt>
      <trkpt lat="46.5206" lon="0.33751">
        <ele>73.4</ele>
        <time>2021-09-12T08:28:33Z</time>
      </trkpt>
      <trkpt lat="46.52059" lon="0.33762">
        <ele>73.4</ele>
        <time>2021-09-12T08:28:35Z</time>
      </trkpt>
      <trkpt lat="46.52057" lon="0.33776">
        <ele>73.6</ele>
        <time>2021-09-12T08:28:37Z</time>
      </trkpt>
      <trkpt lat="46.52057" lon="0.33782">
        <ele>73.8</ele>
        <time>2021-09-12T08:28:38Z</time>
      </trkpt>
      <trkpt lat="46.52059" lon="0.33804">
        <ele>73.6</ele>
        <time>2021-09-12T08:28:41Z</time>
      </trkpt>
      <trkpt lat="46.52061" lon="0.33812">
        <ele>73.6</ele>
        <time>2021-09-12T08:28:42Z</time>
      </trkpt>
      <trkpt lat="46.52072" lon="0.33878">
        <ele>73.2</ele>
        <time>2021-09-12T08:28:50Z</time>
      </trkpt>
      <trkpt lat="46.52078" lon="0.3393">
        <ele>73.4</ele>
        <time>2021-09-12T08:28:57Z</time>
      </trkpt>
      <trkpt lat="46.52084" lon="0.33947">
        <ele>73.4</ele>
        <time>2021-09-12T08:29:00Z</time>
      </trkpt>
      <trkpt lat="46.52094" lon="0.33953">
        <ele>73.2</ele>
        <time>2021-09-12T08:29:02Z</time>
      </trkpt>
      <trkpt lat="46.52124" lon="0.33967">
        <ele>73</ele>
        <time>2021-09-12T08:29:07Z</time>
      </trkpt>
      <trkpt lat="46.52161" lon="0.33975">
        <ele>72.6</ele>
        <time>2021-09-12T08:29:13Z</time>
      </trkpt>
      <trkpt lat="46.52198" lon="0.33973">
        <ele>72.8</ele>
        <time>2021-09-12T08:29:19Z</time>
      </trkpt>
      <trkpt lat="46.52212" lon="0.3397">
        <ele>72.8</ele>
        <time>2021-09-12T08:29:21Z</time>
      </trkpt>
      <trkpt lat="46.52227" lon="0.33964">
        <ele>72.6</ele>
        <time>2021-09-12T08:29:23Z</time>
      </trkpt>
      <trkpt lat="46.52282" lon="0.33919">
        <ele>73.4</ele>
        <time>2021-09-12T08:29:33Z</time>
      </trkpt>
      <trkpt lat="46.52336" lon="0.3388">
        <ele>73.4</ele>
        <time>2021-09-12T08:29:43Z</time>
      </trkpt>
      <trkpt lat="46.52341" lon="0.33876">
        <ele>73.2</ele>
        <time>2021-09-12T08:29:44Z</time>
      </trkpt>
      <trkpt lat="46.5238" lon="0.33851">
        <ele>73.2</ele>
        <time>2021-09-12T08:29:51Z</time>
      </trkpt>
      <trkpt lat="46.52424" lon="0.33813">
        <ele>72.4</ele>
        <time>2021-09-12T08:29:59Z</time>
      </trkpt>
      <trkpt lat="46.52454" lon="0.33781">
        <ele>72.4</ele>
        <time>2021-09-12T08:30:05Z</time>
      </trkpt>
      <trkpt lat="46.52481" lon="0.33746">
        <ele>72.2</ele>
        <time>2021-09-12T08:30:11Z</time>
      </trkpt>
      <trkpt lat="46.52485" lon="0.3374">
        <ele>72.2</ele>
        <time>2021-09-12T08:30:12Z</time>
      </trkpt>
      <trkpt lat="46.52501" lon="0.33711">
        <ele>72.2</ele>
        <time>2021-09-12T08:30:17Z</time>
      </trkpt>
      <trkpt lat="46.52505" lon="0.337">
        <ele>72.4</ele>
        <time>2021-09-12T08:30:19Z</time>
      </trkpt>
      <trkpt lat="46.52506" lon="0.33688">
        <ele>73.2</ele>
        <time>2021-09-12T08:30:21Z</time>
      </trkpt>
      <trkpt lat="46.52505" lon="0.33683">
        <ele>73.4</ele>
        <time>2021-09-12T08:30:22Z</time>
      </trkpt>
      <trkpt lat="46.52507" lon="0.33663">
        <ele>74.4</ele>
        <time>2021-09-12T08:30:26Z</time>
      </trkpt>
      <trkpt lat="46.5251" lon="0.33652">
        <ele>75.6</ele>
        <time>2021-09-12T08:30:29Z</time>
      </trkpt>
      <trkpt lat="46.52513" lon="0.33645">
        <ele>76.4</ele>
        <time>2021-09-12T08:30:32Z</time>
      </trkpt>
      <trkpt lat="46.52514" lon="0.33642">
        <ele>77</ele>
        <time>2021-09-12T08:30:33Z</time>
      </trkpt>
      <trkpt lat="46.52518" lon="0.33632">
        <ele>78.2</ele>
        <time>2021-09-12T08:30:37Z</time>
      </trkpt>
      <trkpt lat="46.52521" lon="0.33627">
        <ele>78.6</ele>
        <time>2021-09-12T08:30:39Z</time>
      </trkpt>
      <trkpt lat="46.52525" lon="0.33615">
        <ele>79.2</ele>
        <time>2021-09-12T08:30:43Z</time>
      </trkpt>
      <trkpt lat="46.52528" lon="0.33605">
        <ele>79.8</ele>
        <time>2021-09-12T08:30:46Z</time>
      </trkpt>
      <trkpt lat="46.52529" lon="0.33597">
        <ele>80.8</ele>
        <time>2021-09-12T08:30:48Z</time>
      </trkpt>
      <trkpt lat="46.52531" lon="0.33584">
        <ele>81.6</ele>
        <time>2021-09-12T08:30:52Z</time>
      </trkpt>
      <trkpt lat="46.5253" lon="0.33573">
        <ele>81.8</ele>
        <time>2021-09-12T08:30:55Z</time>
      </trkpt>
      <trkpt lat="46.52529" lon="0.33555">
        <ele>83</ele>
        <time>2021-09-12T08:31:00Z</time>
      </trkpt>
      <trkpt lat="46.52527" lon="0.33529">
        <ele>84.2</ele>
        <time>2021-09-12T08:31:07Z</time>
      </trkpt>
      <trkpt lat="46.52527" lon="0.33521">
        <ele>84.4</ele>
        <time>2021-09-12T08:31:09Z</time>
      </trkpt>
      <trkpt lat="46.52528" lon="0.33496">
        <ele>85.2</ele>
        <time>2021-09-12T08:31:15Z</time>
      </trkpt>
      <trkpt lat="46.52528" lon="0.33488">
        <ele>85.6</ele>
        <time>2021-09-12T08:31:17Z</time>
      </trkpt>
      <trkpt lat="46.52531" lon="0.33454">
        <ele>86.2</ele>
        <time>2021-09-12T08:31:24Z</time>
      </trkpt>
      <trkpt lat="46.52534" lon="0.33427">
        <ele>87</ele>
        <time>2021-09-12T08:31:29Z</time>
      </trkpt>
      <trkpt lat="46.52539" lon="0.33417">
        <ele>87.6</ele>
        <time>2021-09-12T08:31:32Z</time>
      </trkpt>
      <trkpt lat="46.5254" lon="0.33414">
        <ele>87.6</ele>
        <time>2021-09-12T08:31:33Z</time>
      </trkpt>
      <trkpt lat="46.52555" lon="0.33395">
        <ele>88.4</ele>
        <time>2021-09-12T08:31:39Z</time>
      </trkpt>
      <trkpt lat="46.52558" lon="0.33391">
        <ele>88.6</ele>
        <time>2021-09-12T08:31:40Z</time>
      </trkpt>
      <trkpt lat="46.52575" lon="0.33373">
        <ele>88.8</ele>
        <time>2021-09-12T08:31:46Z</time>
      </trkpt>
      <trkpt lat="46.52589" lon="0.33368">
        <ele>88.8</ele>
        <time>2021-09-12T08:31:50Z</time>
      </trkpt>
      <trkpt lat="46.52604" lon="0.33382">
        <ele>89.2</ele>
        <time>2021-09-12T08:31:55Z</time>
      </trkpt>
      <trkpt lat="46.52619" lon="0.33401">
        <ele>89.6</ele>
        <time>2021-09-12T08:32:00Z</time>
      </trkpt>
      <trkpt lat="46.52622" lon="0.33403">
        <ele>89.8</ele>
        <time>2021-09-12T08:32:01Z</time>
      </trkpt>
      <trkpt lat="46.52629" lon="0.3341">
        <ele>90</ele>
        <time>2021-09-12T08:32:04Z</time>
      </trkpt>
      <trkpt lat="46.52632" lon="0.33411">
        <ele>90.2</ele>
        <time>2021-09-12T08:32:05Z</time>
      </trkpt>
      <trkpt lat="46.52643" lon="0.33415">
        <ele>90.6</ele>
        <time>2021-09-12T08:32:09Z</time>
      </trkpt>
      <trkpt lat="46.52648" lon="0.33416">
        <ele>91</ele>
        <time>2021-09-12T08:32:11Z</time>
      </trkpt>
      <trkpt lat="46.52657" lon="0.33418">
        <ele>91.6</ele>
        <time>2021-09-12T08:32:15Z</time>
      </trkpt>
      <trkpt lat="46.52666" lon="0.3342">
        <ele>92.8</ele>
        <time>2021-09-12T08:32:19Z</time>
      </trkpt>
      <trkpt lat="46.52686" lon="0.33423">
        <ele>93.8</ele>
        <time>2021-09-12T08:32:26Z</time>
      </trkpt>
      <trkpt lat="46.52705" lon="0.33421">
        <ele>94.8</ele>
        <time>2021-09-12T08:32:32Z</time>
      </trkpt>
      <trkpt lat="46.52711" lon="0.33421">
        <ele>94.8</ele>
        <time>2021-09-12T08:32:34Z</time>
      </trkpt>
      <trkpt lat="46.5272" lon="0.33421">
        <ele>95.4</ele>
        <time>2021-09-12T08:32:37Z</time>
      </trkpt>
      <trkpt lat="46.52736" lon="0.33429">
        <ele>95.8</ele>
        <time>2021-09-12T08:32:42Z</time>
      </trkpt>
      <trkpt lat="46.52746" lon="0.33433">
        <ele>95.8</ele>
        <time>2021-09-12T08:32:45Z</time>
      </trkpt>
      <trkpt lat="46.52754" lon="0.33435">
        <ele>96</ele>
        <time>2021-09-12T08:32:47Z</time>
      </trkpt>
      <trkpt lat="46.52763" lon="0.33436">
        <ele>96.2</ele>
        <time>2021-09-12T08:32:49Z</time>
      </trkpt>
      <trkpt lat="46.52777" lon="0.33438">
        <ele>96.8</ele>
        <time>2021-09-12T08:32:52Z</time>
      </trkpt>
      <trkpt lat="46.52787" lon="0.33438">
        <ele>97</ele>
        <time>2021-09-12T08:32:54Z</time>
      </trkpt>
      <trkpt lat="46.52802" lon="0.33438">
        <ele>97</ele>
        <time>2021-09-12T08:32:57Z</time>
      </trkpt>
      <trkpt lat="46.52822" lon="0.33432">
        <ele>97</ele>
        <time>2021-09-12T08:33:01Z</time>
      </trkpt>
      <trkpt lat="46.52832" lon="0.33428">
        <ele>97</ele>
        <time>2021-09-12T08:33:03Z</time>
      </trkpt>
      <trkpt lat="46.52853" lon="0.33428">
        <ele>96</ele>
        <time>2021-09-12T08:33:06Z</time>
      </trkpt>
      <trkpt lat="46.52859" lon="0.33428">
        <ele>95.8</ele>
        <time>2021-09-12T08:33:07Z</time>
      </trkpt>
      <trkpt lat="46.52882" lon="0.33433">
        <ele>95.8</ele>
        <time>2021-09-12T08:33:11Z</time>
      </trkpt>
      <trkpt lat="46.52894" lon="0.33439">
        <ele>96.6</ele>
        <time>2021-09-12T08:33:14Z</time>
      </trkpt>
      <trkpt lat="46.52898" lon="0.33441">
        <ele>97</ele>
        <time>2021-09-12T08:33:15Z</time>
      </trkpt>
      <trkpt lat="46.52901" lon="0.33443">
        <ele>97.4</ele>
        <time>2021-09-12T08:33:16Z</time>
      </trkpt>
      <trkpt lat="46.5291" lon="0.33448">
        <ele>98</ele>
        <time>2021-09-12T08:33:19Z</time>
      </trkpt>
      <trkpt lat="46.52915" lon="0.33452">
        <ele>98.6</ele>
        <time>2021-09-12T08:33:21Z</time>
      </trkpt>
      <trkpt lat="46.52923" lon="0.33457">
        <ele>99.2</ele>
        <time>2021-09-12T08:33:24Z</time>
      </trkpt>
      <trkpt lat="46.52931" lon="0.3346">
        <ele>99.4</ele>
        <time>2021-09-12T08:33:26Z</time>
      </trkpt>
      <trkpt lat="46.52945" lon="0.33464">
        <ele>100.6</ele>
        <time>2021-09-12T08:33:30Z</time>
      </trkpt>
      <trkpt lat="46.52951" lon="0.33466">
        <ele>101.2</ele>
        <time>2021-09-12T08:33:32Z</time>
      </trkpt>
      <trkpt lat="46.52969" lon="0.33475">
        <ele>101.4</ele>
        <time>2021-09-12T08:33:37Z</time>
      </trkpt>
      <trkpt lat="46.5298" lon="0.33486">
        <ele>101.8</ele>
        <time>2021-09-12T08:33:40Z</time>
      </trkpt>
      <trkpt lat="46.5299" lon="0.33498">
        <ele>101.8</ele>
        <time>2021-09-12T08:33:43Z</time>
      </trkpt>
      <trkpt lat="46.5302" lon="0.33522">
        <ele>101.8</ele>
        <time>2021-09-12T08:33:50Z</time>
      </trkpt>
      <trkpt lat="46.5305" lon="0.33539">
        <ele>101.2</ele>
        <time>2021-09-12T08:33:57Z</time>
      </trkpt>
      <trkpt lat="46.53054" lon="0.3354">
        <ele>101.4</ele>
        <time>2021-09-12T08:33:58Z</time>
      </trkpt>
      <trkpt lat="46.53062" lon="0.33541">
        <ele>101.8</ele>
        <time>2021-09-12T08:34:00Z</time>
      </trkpt>
      <trkpt lat="46.53068" lon="0.33543">
        <ele>102.2</ele>
        <time>2021-09-12T08:34:02Z</time>
      </trkpt>
      <trkpt lat="46.53081" lon="0.33545">
        <ele>102.8</ele>
        <time>2021-09-12T08:34:06Z</time>
      </trkpt>
      <trkpt lat="46.53089" lon="0.33544">
        <ele>103</ele>
        <time>2021-09-12T08:34:08Z</time>
      </trkpt>
      <trkpt lat="46.53098" lon="0.33546">
        <ele>103.4</ele>
        <time>2021-09-12T08:34:10Z</time>
      </trkpt>
      <trkpt lat="46.53111" lon="0.33551">
        <ele>103.8</ele>
        <time>2021-09-12T08:34:13Z</time>
      </trkpt>
      <trkpt lat="46.53116" lon="0.33552">
        <ele>104</ele>
        <time>2021-09-12T08:34:14Z</time>
      </trkpt>
      <trkpt lat="46.53143" lon="0.33561">
        <ele>104.4</ele>
        <time>2021-09-12T08:34:20Z</time>
      </trkpt>
      <trkpt lat="46.53172" lon="0.33565">
        <ele>104.6</ele>
        <time>2021-09-12T08:34:26Z</time>
      </trkpt>
      <trkpt lat="46.53189" lon="0.33564">
        <ele>105</ele>
        <time>2021-09-12T08:34:30Z</time>
      </trkpt>
      <trkpt lat="46.53202" lon="0.33562">
        <ele>105.4</ele>
        <time>2021-09-12T08:34:33Z</time>
      </trkpt>
      <trkpt lat="46.53214" lon="0.33564">
        <ele>106</ele>
        <time>2021-09-12T08:34:37Z</time>
      </trkpt>
      <trkpt lat="46.53216" lon="0.33566">
        <ele>106.2</ele>
        <time>2021-09-12T08:34:38Z</time>
      </trkpt>
      <trkpt lat="46.53222" lon="0.33583">
        <ele>106.6</ele>
        <time>2021-09-12T08:34:42Z</time>
      </trkpt>
      <trkpt lat="46.53231" lon="0.33601">
        <ele>105.8</ele>
        <time>2021-09-12T08:34:47Z</time>
      </trkpt>
      <trkpt lat="46.5324" lon="0.33612">
        <ele>105.4</ele>
        <time>2021-09-12T08:34:52Z</time>
      </trkpt>
      <trkpt lat="46.53242" lon="0.33616">
        <ele>104.4</ele>
        <time>2021-09-12T08:34:53Z</time>
      </trkpt>
      <trkpt lat="46.53243" lon="0.33618">
        <ele>103.4</ele>
        <time>2021-09-12T08:34:56Z</time>
      </trkpt>
      <trkpt lat="46.53243" lon="0.33619">
        <ele>103</ele>
        <time>2021-09-12T08:34:57Z</time>
      </trkpt>
      <trkpt lat="46.5324" lon="0.33619">
        <ele>102.4</ele>
        <time>2021-09-12T08:35:00Z</time>
      </trkpt>
      <trkpt lat="46.53238" lon="0.33619">
        <ele>101.2</ele>
        <time>2021-09-12T08:35:02Z</time>
      </trkpt>
      <trkpt lat="46.53237" lon="0.33621">
        <ele>99.6</ele>
        <time>2021-09-12T08:35:04Z</time>
      </trkpt>
      <trkpt lat="46.53237" lon="0.33621">
        <ele>99.2</ele>
        <time>2021-09-12T08:35:05Z</time>
      </trkpt>
      <trkpt lat="46.53239" lon="0.33624">
        <ele>98.4</ele>
        <time>2021-09-12T08:35:08Z</time>
      </trkpt>
      <trkpt lat="46.53241" lon="0.33626">
        <ele>97.8</ele>
        <time>2021-09-12T08:35:10Z</time>
      </trkpt>
      <trkpt lat="46.53242" lon="0.33627">
        <ele>96.8</ele>
        <time>2021-09-12T08:35:11Z</time>
      </trkpt>
      <trkpt lat="46.53246" lon="0.33629">
        <ele>95.4</ele>
        <time>2021-09-12T08:35:13Z</time>
      </trkpt>
      <trkpt lat="46.53249" lon="0.3363">
        <ele>94</ele>
        <time>2021-09-12T08:35:15Z</time>
      </trkpt>
      <trkpt lat="46.53251" lon="0.33631">
        <ele>92.6</ele>
        <time>2021-09-12T08:35:17Z</time>
      </trkpt>
      <trkpt lat="46.53251" lon="0.33631">
        <ele>91.4</ele>
        <time>2021-09-12T08:35:19Z</time>
      </trkpt>
      <trkpt lat="46.53251" lon="0.33631">
        <ele>91.2</ele>
        <time>2021-09-12T08:35:20Z</time>
      </trkpt>
      <trkpt lat="46.5325" lon="0.33631">
        <ele>91</ele>
        <time>2021-09-12T08:35:21Z</time>
      </trkpt>
      <trkpt lat="46.53251" lon="0.33632">
        <ele>90.8</ele>
        <time>2021-09-12T08:35:24Z</time>
      </trkpt>
      <trkpt lat="46.53248" lon="0.33635">
        <ele>90.4</ele>
        <time>2021-09-12T08:35:28Z</time>
      </trkpt>
      <trkpt lat="46.53247" lon="0.33634">
        <ele>90</ele>
        <time>2021-09-12T08:35:29Z</time>
      </trkpt>
      <trkpt lat="46.53244" lon="0.33636">
        <ele>89.8</ele>
        <time>2021-09-12T08:35:30Z</time>
      </trkpt>
      <trkpt lat="46.5324" lon="0.33636">
        <ele>88.8</ele>
        <time>2021-09-12T08:35:32Z</time>
      </trkpt>
      <trkpt lat="46.53235" lon="0.33636">
        <ele>87.8</ele>
        <time>2021-09-12T08:35:34Z</time>
      </trkpt>
      <trkpt lat="46.53232" lon="0.33635">
        <ele>86.6</ele>
        <time>2021-09-12T08:35:36Z</time>
      </trkpt>
      <trkpt lat="46.5323" lon="0.33638">
        <ele>85.6</ele>
        <time>2021-09-12T08:35:39Z</time>
      </trkpt>
      <trkpt lat="46.53229" lon="0.33639">
        <ele>85.2</ele>
        <time>2021-09-12T08:35:40Z</time>
      </trkpt>
      <trkpt lat="46.53229" lon="0.33641">
        <ele>84.2</ele>
        <time>2021-09-12T08:35:42Z</time>
      </trkpt>
      <trkpt lat="46.53229" lon="0.33646">
        <ele>83</ele>
        <time>2021-09-12T08:35:45Z</time>
      </trkpt>
      <trkpt lat="46.5323" lon="0.33646">
        <ele>81.8</ele>
        <time>2021-09-12T08:35:47Z</time>
      </trkpt>
      <trkpt lat="46.5323" lon="0.33647">
        <ele>79.6</ele>
        <time>2021-09-12T08:35:50Z</time>
      </trkpt>
      <trkpt lat="46.53231" lon="0.33648">
        <ele>79.6</ele>
        <time>2021-09-12T08:35:53Z</time>
      </trkpt>
      <trkpt lat="46.53232" lon="0.33649">
        <ele>79.6</ele>
        <time>2021-09-12T08:35:56Z</time>
      </trkpt>
      <trkpt lat="46.53234" lon="0.33651">
        <ele>79.6</ele>
        <time>2021-09-12T08:36:05Z</time>
      </trkpt>
      <trkpt lat="46.53234" lon="0.33651">
        <ele>79.6</ele>
        <time>2021-09-12T08:36:07Z</time>
      </trkpt>
      <trkpt lat="46.53235" lon="0.33663">
        <ele>79.6</ele>
        <time>2021-09-12T08:36:10Z</time>
      </trkpt>
      <trkpt lat="46.5323" lon="0.33679">
        <ele>79.8</ele>
        <time>2021-09-12T08:36:13Z</time>
      </trkpt>
      <trkpt lat="46.53229" lon="0.33682">
        <ele>79.8</ele>
        <time>2021-09-12T08:36:14Z</time>
      </trkpt>
      <trkpt lat="46.53222" lon="0.33693">
        <ele>78.8</ele>
        <time>2021-09-12T08:36:22Z</time>
      </trkpt>
      <trkpt lat="46.53222" lon="0.33694">
        <ele>78.6</ele>
        <time>2021-09-12T08:36:23Z</time>
      </trkpt>
      <trkpt lat="46.53222" lon="0.33696">
        <ele>77.4</ele>
        <time>2021-09-12T08:36:25Z</time>
      </trkpt>
      <trkpt lat="46.53223" lon="0.33699">
        <ele>76.2</ele>
        <time>2021-09-12T08:36:27Z</time>
      </trkpt>
      <trkpt lat="46.53225" lon="0.33701">
        <ele>75.8</ele>
        <time>2021-09-12T08:36:29Z</time>
      </trkpt>
      <trkpt lat="46.53227" lon="0.33703">
        <ele>75.6</ele>
        <time>2021-09-12T08:36:31Z</time>
      </trkpt>
      <trkpt lat="46.53229" lon="0.33704">
        <ele>75.6</ele>
        <time>2021-09-12T08:36:33Z</time>
      </trkpt>
      <trkpt lat="46.53235" lon="0.33708">
        <ele>75.6</ele>
        <time>2021-09-12T08:36:39Z</time>
      </trkpt>
      <trkpt lat="46.53239" lon="0.3371">
        <ele>75.8</ele>
        <time>2021-09-12T08:36:41Z</time>
      </trkpt>
      <trkpt lat="46.53251" lon="0.33717">
        <ele>76</ele>
        <time>2021-09-12T08:36:45Z</time>
      </trkpt>
      <trkpt lat="46.53265" lon="0.33725">
        <ele>76</ele>
        <time>2021-09-12T08:36:50Z</time>
      </trkpt>
      <trkpt lat="46.53271" lon="0.33729">
        <ele>75.8</ele>
        <time>2021-09-12T08:36:52Z</time>
      </trkpt>
      <trkpt lat="46.53283" lon="0.33734">
        <ele>75.4</ele>
        <time>2021-09-12T08:36:55Z</time>
      </trkpt>
      <trkpt lat="46.53288" lon="0.33736">
        <ele>75.2</ele>
        <time>2021-09-12T08:36:56Z</time>
      </trkpt>
      <trkpt lat="46.53294" lon="0.33741">
        <ele>75.2</ele>
        <time>2021-09-12T08:36:58Z</time>
      </trkpt>
      <trkpt lat="46.53302" lon="0.33743">
        <ele>75.6</ele>
        <time>2021-09-12T08:37:00Z</time>
      </trkpt>
      <trkpt lat="46.53306" lon="0.33745">
        <ele>75.8</ele>
        <time>2021-09-12T08:37:01Z</time>
      </trkpt>
      <trkpt lat="46.53317" lon="0.33749">
        <ele>76</ele>
        <time>2021-09-12T08:37:04Z</time>
      </trkpt>
      <trkpt lat="46.53319" lon="0.33751">
        <ele>76</ele>
        <time>2021-09-12T08:37:05Z</time>
      </trkpt>
      <trkpt lat="46.53323" lon="0.33754">
        <ele>76</ele>
        <time>2021-09-12T08:37:06Z</time>
      </trkpt>
      <trkpt lat="46.53335" lon="0.3376">
        <ele>75.4</ele>
        <time>2021-09-12T08:37:09Z</time>
      </trkpt>
      <trkpt lat="46.53339" lon="0.33761">
        <ele>75.4</ele>
        <time>2021-09-12T08:37:10Z</time>
      </trkpt>
      <trkpt lat="46.5336" lon="0.33768">
        <ele>75.6</ele>
        <time>2021-09-12T08:37:14Z</time>
      </trkpt>
      <trkpt lat="46.53365" lon="0.3377">
        <ele>75.6</ele>
        <time>2021-09-12T08:37:15Z</time>
      </trkpt>
      <trkpt lat="46.5339" lon="0.33778">
        <ele>76</ele>
        <time>2021-09-12T08:37:20Z</time>
      </trkpt>
      <trkpt lat="46.534" lon="0.33779">
        <ele>76</ele>
        <time>2021-09-12T08:37:21Z</time>
      </trkpt>
      <trkpt lat="46.53426" lon="0.33789">
        <ele>75.8</ele>
        <time>2021-09-12T08:37:27Z</time>
      </trkpt>
      <trkpt lat="46.53438" lon="0.33793">
        <ele>75.8</ele>
        <time>2021-09-12T08:37:29Z</time>
      </trkpt>
      <trkpt lat="46.53446" lon="0.33798">
        <ele>75.8</ele>
        <time>2021-09-12T08:37:31Z</time>
      </trkpt>
      <trkpt lat="46.5345" lon="0.33801">
        <ele>76</ele>
        <time>2021-09-12T08:37:32Z</time>
      </trkpt>
      <trkpt lat="46.53454" lon="0.33802">
        <ele>76</ele>
        <time>2021-09-12T08:37:33Z</time>
      </trkpt>
      <trkpt lat="46.53458" lon="0.33801">
        <ele>76</ele>
        <time>2021-09-12T08:37:35Z</time>
      </trkpt>
      <trkpt lat="46.5346" lon="0.33801">
        <ele>76.2</ele>
        <time>2021-09-12T08:37:36Z</time>
      </trkpt>
      <trkpt lat="46.53462" lon="0.338">
        <ele>76.2</ele>
        <time>2021-09-12T08:37:38Z</time>
      </trkpt>
      <trkpt lat="46.53463" lon="0.338">
        <ele>76.2</ele>
        <time>2021-09-12T08:37:39Z</time>
      </trkpt>
      <trkpt lat="46.53471" lon="0.338">
        <ele>77.4</ele>
        <time>2021-09-12T08:37:43Z</time>
      </trkpt>
      <trkpt lat="46.53473" lon="0.33801">
        <ele>77.6</ele>
        <time>2021-09-12T08:37:44Z</time>
      </trkpt>
      <trkpt lat="46.53478" lon="0.33802">
        <ele>78.6</ele>
        <time>2021-09-12T08:37:47Z</time>
      </trkpt>
      <trkpt lat="46.53483" lon="0.33805">
        <ele>79.4</ele>
        <time>2021-09-12T08:37:50Z</time>
      </trkpt>
      <trkpt lat="46.53485" lon="0.33805">
        <ele>79.6</ele>
        <time>2021-09-12T08:37:51Z</time>
      </trkpt>
      <trkpt lat="46.53491" lon="0.33806">
        <ele>80.8</ele>
        <time>2021-09-12T08:37:54Z</time>
      </trkpt>
      <trkpt lat="46.53496" lon="0.33809">
        <ele>81.8</ele>
        <time>2021-09-12T08:37:57Z</time>
      </trkpt>
      <trkpt lat="46.53498" lon="0.3381">
        <ele>82.6</ele>
        <time>2021-09-12T08:37:59Z</time>
      </trkpt>
      <trkpt lat="46.53501" lon="0.33813">
        <ele>83</ele>
        <time>2021-09-12T08:38:01Z</time>
      </trkpt>
      <trkpt lat="46.53503" lon="0.33815">
        <ele>83.2</ele>
        <time>2021-09-12T08:38:02Z</time>
      </trkpt>
      <trkpt lat="46.53505" lon="0.33816">
        <ele>83.6</ele>
        <time>2021-09-12T08:38:04Z</time>
      </trkpt>
      <trkpt lat="46.53506" lon="0.33817">
        <ele>84</ele>
        <time>2021-09-12T08:38:05Z</time>
      </trkpt>
      <trkpt lat="46.53508" lon="0.33818">
        <ele>84.4</ele>
        <time>2021-09-12T08:38:06Z</time>
      </trkpt>
      <trkpt lat="46.53514" lon="0.33822">
        <ele>85.4</ele>
        <time>2021-09-12T08:38:10Z</time>
      </trkpt>
      <trkpt lat="46.53519" lon="0.33824">
        <ele>86.6</ele>
        <time>2021-09-12T08:38:14Z</time>
      </trkpt>
      <trkpt lat="46.53524" lon="0.33828">
        <ele>87</ele>
        <time>2021-09-12T08:38:17Z</time>
      </trkpt>
      <trkpt lat="46.53528" lon="0.3383">
        <ele>87.6</ele>
        <time>2021-09-12T08:38:21Z</time>
      </trkpt>
      <trkpt lat="46.53535" lon="0.33835">
        <ele>88.8</ele>
        <time>2021-09-12T08:38:27Z</time>
      </trkpt>
      <trkpt lat="46.53536" lon="0.33836">
        <ele>88.8</ele>
        <time>2021-09-12T08:38:28Z</time>
      </trkpt>
      <trkpt lat="46.53537" lon="0.33836">
        <ele>89.2</ele>
        <time>2021-09-12T08:38:29Z</time>
      </trkpt>
      <trkpt lat="46.5354" lon="0.33839">
        <ele>89.8</ele>
        <time>2021-09-12T08:38:32Z</time>
      </trkpt>
      <trkpt lat="46.53542" lon="0.33839">
        <ele>90</ele>
        <time>2021-09-12T08:38:33Z</time>
      </trkpt>
      <trkpt lat="46.53547" lon="0.33843">
        <ele>91.2</ele>
        <time>2021-09-12T08:38:37Z</time>
      </trkpt>
      <trkpt lat="46.53551" lon="0.33846">
        <ele>92.2</ele>
        <time>2021-09-12T08:38:41Z</time>
      </trkpt>
      <trkpt lat="46.53558" lon="0.33848">
        <ele>93.6</ele>
        <time>2021-09-12T08:38:46Z</time>
      </trkpt>
      <trkpt lat="46.53565" lon="0.33848">
        <ele>94.6</ele>
        <time>2021-09-12T08:38:52Z</time>
      </trkpt>
      <trkpt lat="46.53567" lon="0.33848">
        <ele>94.6</ele>
        <time>2021-09-12T08:38:53Z</time>
      </trkpt>
      <trkpt lat="46.53573" lon="0.33845">
        <ele>95.6</ele>
        <time>2021-09-12T08:38:58Z</time>
      </trkpt>
      <trkpt lat="46.53582" lon="0.33839">
        <ele>96.6</ele>
        <time>2021-09-12T08:39:04Z</time>
      </trkpt>
      <trkpt lat="46.53583" lon="0.33837">
        <ele>96.8</ele>
        <time>2021-09-12T08:39:05Z</time>
      </trkpt>
      <trkpt lat="46.53585" lon="0.33825">
        <ele>97.4</ele>
        <time>2021-09-12T08:39:10Z</time>
      </trkpt>
      <trkpt lat="46.53585" lon="0.33818">
        <ele>97.8</ele>
        <time>2021-09-12T08:39:13Z</time>
      </trkpt>
      <trkpt lat="46.53587" lon="0.33798">
        <ele>99</ele>
        <time>2021-09-12T08:39:20Z</time>
      </trkpt>
      <trkpt lat="46.53587" lon="0.33788">
        <ele>99.6</ele>
        <time>2021-09-12T08:39:25Z</time>
      </trkpt>
      <trkpt lat="46.53586" lon="0.33786">
        <ele>99.6</ele>
        <time>2021-09-12T08:39:27Z</time>
      </trkpt>
      <trkpt lat="46.53584" lon="0.33783">
        <ele>100</ele>
        <time>2021-09-12T08:39:30Z</time>
      </trkpt>
      <trkpt lat="46.5358" lon="0.3378">
        <ele>100.6</ele>
        <time>2021-09-12T08:39:34Z</time>
      </trkpt>
      <trkpt lat="46.53574" lon="0.33778">
        <ele>100.8</ele>
        <time>2021-09-12T08:39:37Z</time>
      </trkpt>
      <trkpt lat="46.53566" lon="0.33776">
        <ele>101.2</ele>
        <time>2021-09-12T08:39:41Z</time>
      </trkpt>
      <trkpt lat="46.53557" lon="0.33775">
        <ele>102</ele>
        <time>2021-09-12T08:39:45Z</time>
      </trkpt>
      <trkpt lat="46.53553" lon="0.33775">
        <ele>102.4</ele>
        <time>2021-09-12T08:39:47Z</time>
      </trkpt>
      <trkpt lat="46.53541" lon="0.33773">
        <ele>103.2</ele>
        <time>2021-09-12T08:39:52Z</time>
      </trkpt>
      <trkpt lat="46.53536" lon="0.33771">
        <ele>103.4</ele>
        <time>2021-09-12T08:39:54Z</time>
      </trkpt>
      <trkpt lat="46.53526" lon="0.33768">
        <ele>104.4</ele>
        <time>2021-09-12T08:39:58Z</time>
      </trkpt>
      <trkpt lat="46.53523" lon="0.33768">
        <ele>104.6</ele>
        <time>2021-09-12T08:39:59Z</time>
      </trkpt>
      <trkpt lat="46.5351" lon="0.33764">
        <ele>105.4</ele>
        <time>2021-09-12T08:40:04Z</time>
      </trkpt>
      <trkpt lat="46.535" lon="0.33756">
        <ele>105.8</ele>
        <time>2021-09-12T08:40:08Z</time>
      </trkpt>
      <trkpt lat="46.53492" lon="0.33748">
        <ele>106.4</ele>
        <time>2021-09-12T08:40:11Z</time>
      </trkpt>
      <trkpt lat="46.53483" lon="0.33742">
        <ele>107</ele>
        <time>2021-09-12T08:40:14Z</time>
      </trkpt>
      <trkpt lat="46.53465" lon="0.33731">
        <ele>108</ele>
        <time>2021-09-12T08:40:20Z</time>
      </trkpt>
      <trkpt lat="46.53462" lon="0.3373">
        <ele>108.4</ele>
        <time>2021-09-12T08:40:21Z</time>
      </trkpt>
      <trkpt lat="46.53447" lon="0.3372">
        <ele>109.2</ele>
        <time>2021-09-12T08:40:26Z</time>
      </trkpt>
      <trkpt lat="46.53441" lon="0.33712">
        <ele>109.6</ele>
        <time>2021-09-12T08:40:29Z</time>
      </trkpt>
      <trkpt lat="46.53435" lon="0.33708">
        <ele>109.6</ele>
        <time>2021-09-12T08:40:31Z</time>
      </trkpt>
      <trkpt lat="46.53427" lon="0.33699">
        <ele>110.2</ele>
        <time>2021-09-12T08:40:34Z</time>
      </trkpt>
      <trkpt lat="46.53428" lon="0.33696">
        <ele>110.4</ele>
        <time>2021-09-12T08:40:35Z</time>
      </trkpt>
      <trkpt lat="46.53428" lon="0.33692">
        <ele>110.6</ele>
        <time>2021-09-12T08:40:36Z</time>
      </trkpt>
      <trkpt lat="46.53434" lon="0.3367">
        <ele>111.4</ele>
        <time>2021-09-12T08:40:41Z</time>
      </trkpt>
      <trkpt lat="46.53438" lon="0.33656">
        <ele>111.6</ele>
        <time>2021-09-12T08:40:44Z</time>
      </trkpt>
      <trkpt lat="46.53443" lon="0.33637">
        <ele>112</ele>
        <time>2021-09-12T08:40:48Z</time>
      </trkpt>
      <trkpt lat="46.5345" lon="0.33601">
        <ele>112.4</ele>
        <time>2021-09-12T08:40:55Z</time>
      </trkpt>
      <trkpt lat="46.53446" lon="0.33585">
        <ele>112.4</ele>
        <time>2021-09-12T08:40:59Z</time>
      </trkpt>
      <trkpt lat="46.53436" lon="0.33572">
        <ele>112.6</ele>
        <time>2021-09-12T08:41:03Z</time>
      </trkpt>
      <trkpt lat="46.53433" lon="0.33569">
        <ele>112.8</ele>
        <time>2021-09-12T08:41:04Z</time>
      </trkpt>
      <trkpt lat="46.5343" lon="0.33566">
        <ele>112.8</ele>
        <time>2021-09-12T08:41:05Z</time>
      </trkpt>
      <trkpt lat="46.53424" lon="0.33561">
        <ele>113</ele>
        <time>2021-09-12T08:41:07Z</time>
      </trkpt>
      <trkpt lat="46.5342" lon="0.33554">
        <ele>113.2</ele>
        <time>2021-09-12T08:41:09Z</time>
      </trkpt>
      <trkpt lat="46.53419" lon="0.3355">
        <ele>113.2</ele>
        <time>2021-09-12T08:41:10Z</time>
      </trkpt>
      <trkpt lat="46.53423" lon="0.33541">
        <ele>113.2</ele>
        <time>2021-09-12T08:41:12Z</time>
      </trkpt>
      <trkpt lat="46.53439" lon="0.33533">
        <ele>113.2</ele>
        <time>2021-09-12T08:41:16Z</time>
      </trkpt>
      <trkpt lat="46.53463" lon="0.33522">
        <ele>112.4</ele>
        <time>2021-09-12T08:41:21Z</time>
      </trkpt>
      <trkpt lat="46.53468" lon="0.3352">
        <ele>112.2</ele>
        <time>2021-09-12T08:41:22Z</time>
      </trkpt>
      <trkpt lat="46.53478" lon="0.33516">
        <ele>112</ele>
        <time>2021-09-12T08:41:24Z</time>
      </trkpt>
      <trkpt lat="46.53486" lon="0.33511">
        <ele>111.8</ele>
        <time>2021-09-12T08:41:26Z</time>
      </trkpt>
      <trkpt lat="46.5349" lon="0.33509">
        <ele>111.8</ele>
        <time>2021-09-12T08:41:27Z</time>
      </trkpt>
      <trkpt lat="46.53494" lon="0.33507">
        <ele>111.8</ele>
        <time>2021-09-12T08:41:28Z</time>
      </trkpt>
      <trkpt lat="46.535" lon="0.33503">
        <ele>112</ele>
        <time>2021-09-12T08:41:30Z</time>
      </trkpt>
      <trkpt lat="46.53503" lon="0.33501">
        <ele>112</ele>
        <time>2021-09-12T08:41:31Z</time>
      </trkpt>
      <trkpt lat="46.53516" lon="0.33487">
        <ele>112.8</ele>
        <time>2021-09-12T08:41:37Z</time>
      </trkpt>
      <trkpt lat="46.53528" lon="0.33477">
        <ele>113.8</ele>
        <time>2021-09-12T08:41:42Z</time>
      </trkpt>
      <trkpt lat="46.53531" lon="0.33474">
        <ele>114</ele>
        <time>2021-09-12T08:41:43Z</time>
      </trkpt>
      <trkpt lat="46.53543" lon="0.33461">
        <ele>114.8</ele>
        <time>2021-09-12T08:41:47Z</time>
      </trkpt>
      <trkpt lat="46.5355" lon="0.33455">
        <ele>114.8</ele>
        <time>2021-09-12T08:41:49Z</time>
      </trkpt>
      <trkpt lat="46.53566" lon="0.33439">
        <ele>115.8</ele>
        <time>2021-09-12T08:41:54Z</time>
      </trkpt>
      <trkpt lat="46.5357" lon="0.33436">
        <ele>115.6</ele>
        <time>2021-09-12T08:41:55Z</time>
      </trkpt>
      <trkpt lat="46.53573" lon="0.33432">
        <ele>115.6</ele>
        <time>2021-09-12T08:41:56Z</time>
      </trkpt>
      <trkpt lat="46.53575" lon="0.33429">
        <ele>115.6</ele>
        <time>2021-09-12T08:41:57Z</time>
      </trkpt>
      <trkpt lat="46.53581" lon="0.33416">
        <ele>115.6</ele>
        <time>2021-09-12T08:42:00Z</time>
      </trkpt>
      <trkpt lat="46.53583" lon="0.33412">
        <ele>115.6</ele>
        <time>2021-09-12T08:42:01Z</time>
      </trkpt>
      <trkpt lat="46.53589" lon="0.33404">
        <ele>116</ele>
        <time>2021-09-12T08:42:03Z</time>
      </trkpt>
      <trkpt lat="46.53598" lon="0.3339">
        <ele>116.2</ele>
        <time>2021-09-12T08:42:06Z</time>
      </trkpt>
      <trkpt lat="46.5361" lon="0.3337">
        <ele>116.2</ele>
        <time>2021-09-12T08:42:10Z</time>
      </trkpt>
      <trkpt lat="46.53616" lon="0.33351">
        <ele>116.2</ele>
        <time>2021-09-12T08:42:13Z</time>
      </trkpt>
      <trkpt lat="46.53619" lon="0.3334">
        <ele>116</ele>
        <time>2021-09-12T08:42:15Z</time>
      </trkpt>
      <trkpt lat="46.53625" lon="0.33329">
        <ele>116</ele>
        <time>2021-09-12T08:42:17Z</time>
      </trkpt>
      <trkpt lat="46.53642" lon="0.33306">
        <ele>115.6</ele>
        <time>2021-09-12T08:42:21Z</time>
      </trkpt>
      <trkpt lat="46.53651" lon="0.33293">
        <ele>114.8</ele>
        <time>2021-09-12T08:42:23Z</time>
      </trkpt>
      <trkpt lat="46.53674" lon="0.33262">
        <ele>114</ele>
        <time>2021-09-12T08:42:28Z</time>
      </trkpt>
      <trkpt lat="46.53688" lon="0.33242">
        <ele>113.6</ele>
        <time>2021-09-12T08:42:31Z</time>
      </trkpt>
      <trkpt lat="46.53709" lon="0.33219">
        <ele>112.8</ele>
        <time>2021-09-12T08:42:35Z</time>
      </trkpt>
      <trkpt lat="46.53714" lon="0.33214">
        <ele>112.6</ele>
        <time>2021-09-12T08:42:36Z</time>
      </trkpt>
      <trkpt lat="46.5372" lon="0.33207">
        <ele>111.6</ele>
        <time>2021-09-12T08:42:38Z</time>
      </trkpt>
      <trkpt lat="46.53722" lon="0.33207">
        <ele>111.2</ele>
        <time>2021-09-12T08:42:39Z</time>
      </trkpt>
      <trkpt lat="46.5373" lon="0.33211">
        <ele>110.2</ele>
        <time>2021-09-12T08:42:43Z</time>
      </trkpt>
      <trkpt lat="46.53731" lon="0.33212">
        <ele>110.2</ele>
        <time>2021-09-12T08:42:44Z</time>
      </trkpt>
      <trkpt lat="46.53732" lon="0.33213">
        <ele>110</ele>
        <time>2021-09-12T08:42:45Z</time>
      </trkpt>
      <trkpt lat="46.53732" lon="0.33214">
        <ele>109.8</ele>
        <time>2021-09-12T08:42:46Z</time>
      </trkpt>
      <trkpt lat="46.53736" lon="0.33218">
        <ele>109.6</ele>
        <time>2021-09-12T08:42:49Z</time>
      </trkpt>
      <trkpt lat="46.53737" lon="0.33218">
        <ele>109.4</ele>
        <time>2021-09-12T08:42:50Z</time>
      </trkpt>
      <trkpt lat="46.53744" lon="0.33214">
        <ele>109.2</ele>
        <time>2021-09-12T08:42:52Z</time>
      </trkpt>
      <trkpt lat="46.53744" lon="0.33214">
        <ele>108.6</ele>
        <time>2021-09-12T08:42:53Z</time>
      </trkpt>
      <trkpt lat="46.53746" lon="0.33215">
        <ele>107.8</ele>
        <time>2021-09-12T08:42:54Z</time>
      </trkpt>
      <trkpt lat="46.5375" lon="0.33218">
        <ele>106.8</ele>
        <time>2021-09-12T08:42:56Z</time>
      </trkpt>
      <trkpt lat="46.5375" lon="0.33221">
        <ele>106.6</ele>
        <time>2021-09-12T08:42:57Z</time>
      </trkpt>
      <trkpt lat="46.53756" lon="0.33233">
        <ele>106.4</ele>
        <time>2021-09-12T08:43:01Z</time>
      </trkpt>
      <trkpt lat="46.53759" lon="0.33244">
        <ele>105.2</ele>
        <time>2021-09-12T08:43:05Z</time>
      </trkpt>
      <trkpt lat="46.5376" lon="0.33245">
        <ele>104.6</ele>
        <time>2021-09-12T08:43:06Z</time>
      </trkpt>
      <trkpt lat="46.53762" lon="0.33245">
        <ele>103.4</ele>
        <time>2021-09-12T08:43:08Z</time>
      </trkpt>
      <trkpt lat="46.53764" lon="0.33244">
        <ele>102.4</ele>
        <time>2021-09-12T08:43:10Z</time>
      </trkpt>
      <trkpt lat="46.53764" lon="0.33246">
        <ele>102</ele>
        <time>2021-09-12T08:43:11Z</time>
      </trkpt>
      <trkpt lat="46.53766" lon="0.33248">
        <ele>101</ele>
        <time>2021-09-12T08:43:13Z</time>
      </trkpt>
      <trkpt lat="46.53767" lon="0.33251">
        <ele>100.2</ele>
        <time>2021-09-12T08:43:15Z</time>
      </trkpt>
      <trkpt lat="46.53768" lon="0.33252">
        <ele>99.8</ele>
        <time>2021-09-12T08:43:16Z</time>
      </trkpt>
      <trkpt lat="46.53768" lon="0.33254">
        <ele>99.6</ele>
        <time>2021-09-12T08:43:17Z</time>
      </trkpt>
      <trkpt lat="46.53771" lon="0.33256">
        <ele>99.2</ele>
        <time>2021-09-12T08:43:19Z</time>
      </trkpt>
      <trkpt lat="46.53772" lon="0.33257">
        <ele>98.2</ele>
        <time>2021-09-12T08:43:20Z</time>
      </trkpt>
      <trkpt lat="46.53773" lon="0.3326">
        <ele>96.8</ele>
        <time>2021-09-12T08:43:22Z</time>
      </trkpt>
      <trkpt lat="46.53774" lon="0.33268">
        <ele>95.8</ele>
        <time>2021-09-12T08:43:25Z</time>
      </trkpt>
      <trkpt lat="46.53777" lon="0.33272">
        <ele>95.2</ele>
        <time>2021-09-12T08:43:28Z</time>
      </trkpt>
      <trkpt lat="46.53778" lon="0.33272">
        <ele>95.2</ele>
        <time>2021-09-12T08:43:29Z</time>
      </trkpt>
      <trkpt lat="46.5378" lon="0.33272">
        <ele>94.6</ele>
        <time>2021-09-12T08:43:31Z</time>
      </trkpt>
      <trkpt lat="46.53781" lon="0.33272">
        <ele>94.2</ele>
        <time>2021-09-12T08:43:32Z</time>
      </trkpt>
      <trkpt lat="46.53781" lon="0.33272">
        <ele>93.6</ele>
        <time>2021-09-12T08:43:34Z</time>
      </trkpt>
      <trkpt lat="46.53782" lon="0.33273">
        <ele>93.4</ele>
        <time>2021-09-12T08:43:35Z</time>
      </trkpt>
      <trkpt lat="46.53783" lon="0.33274">
        <ele>92.4</ele>
        <time>2021-09-12T08:43:37Z</time>
      </trkpt>
      <trkpt lat="46.53784" lon="0.33275">
        <ele>92.2</ele>
        <time>2021-09-12T08:43:38Z</time>
      </trkpt>
      <trkpt lat="46.53785" lon="0.33275">
        <ele>91</ele>
        <time>2021-09-12T08:43:40Z</time>
      </trkpt>
      <trkpt lat="46.53786" lon="0.33274">
        <ele>90.4</ele>
        <time>2021-09-12T08:43:42Z</time>
      </trkpt>
      <trkpt lat="46.53789" lon="0.33273">
        <ele>89.8</ele>
        <time>2021-09-12T08:43:44Z</time>
      </trkpt>
      <trkpt lat="46.53791" lon="0.33272">
        <ele>89.6</ele>
        <time>2021-09-12T08:43:45Z</time>
      </trkpt>
      <trkpt lat="46.53797" lon="0.33271">
        <ele>88.8</ele>
        <time>2021-09-12T08:43:48Z</time>
      </trkpt>
      <trkpt lat="46.538" lon="0.33269">
        <ele>86.6</ele>
        <time>2021-09-12T08:43:49Z</time>
      </trkpt>
      <trkpt lat="46.53803" lon="0.33265">
        <ele>85.6</ele>
        <time>2021-09-12T08:43:50Z</time>
      </trkpt>
      <trkpt lat="46.5381" lon="0.33255">
        <ele>83.8</ele>
        <time>2021-09-12T08:43:52Z</time>
      </trkpt>
      <trkpt lat="46.53813" lon="0.3325">
        <ele>83.4</ele>
        <time>2021-09-12T08:43:53Z</time>
      </trkpt>
      <trkpt lat="46.53818" lon="0.33242">
        <ele>82.6</ele>
        <time>2021-09-12T08:43:55Z</time>
      </trkpt>
      <trkpt lat="46.53819" lon="0.33237">
        <ele>82.2</ele>
        <time>2021-09-12T08:43:57Z</time>
      </trkpt>
      <trkpt lat="46.53821" lon="0.33231">
        <ele>83</ele>
        <time>2021-09-12T08:44:03Z</time>
      </trkpt>
      <trkpt lat="46.53819" lon="0.33228">
        <ele>83.8</ele>
        <time>2021-09-12T08:44:06Z</time>
      </trkpt>
      <trkpt lat="46.53816" lon="0.33224">
        <ele>85</ele>
        <time>2021-09-12T08:44:10Z</time>
      </trkpt>
      <trkpt lat="46.53814" lon="0.3322">
        <ele>86</ele>
        <time>2021-09-12T08:44:13Z</time>
      </trkpt>
      <trkpt lat="46.53814" lon="0.33219">
        <ele>86.2</ele>
        <time>2021-09-12T08:44:14Z</time>
      </trkpt>
      <trkpt lat="46.53813" lon="0.33216">
        <ele>86.6</ele>
        <time>2021-09-12T08:44:16Z</time>
      </trkpt>
      <trkpt lat="46.53812" lon="0.33215">
        <ele>87.2</ele>
        <time>2021-09-12T08:44:17Z</time>
      </trkpt>
      <trkpt lat="46.53811" lon="0.33215">
        <ele>87.6</ele>
        <time>2021-09-12T08:44:18Z</time>
      </trkpt>
      <trkpt lat="46.5381" lon="0.33214">
        <ele>88.2</ele>
        <time>2021-09-12T08:44:20Z</time>
      </trkpt>
      <trkpt lat="46.5381" lon="0.33214">
        <ele>88.4</ele>
        <time>2021-09-12T08:44:21Z</time>
      </trkpt>
      <trkpt lat="46.53805" lon="0.33211">
        <ele>89.4</ele>
        <time>2021-09-12T08:44:26Z</time>
      </trkpt>
      <trkpt lat="46.53804" lon="0.33211">
        <ele>89.6</ele>
        <time>2021-09-12T08:44:27Z</time>
      </trkpt>
      <trkpt lat="46.53803" lon="0.3321">
        <ele>89.8</ele>
        <time>2021-09-12T08:44:28Z</time>
      </trkpt>
      <trkpt lat="46.53803" lon="0.33209">
        <ele>90.2</ele>
        <time>2021-09-12T08:44:30Z</time>
      </trkpt>
      <trkpt lat="46.53802" lon="0.33208">
        <ele>90.6</ele>
        <time>2021-09-12T08:44:32Z</time>
      </trkpt>
      <trkpt lat="46.53801" lon="0.33207">
        <ele>91</ele>
        <time>2021-09-12T08:44:34Z</time>
      </trkpt>
      <trkpt lat="46.538" lon="0.33207">
        <ele>91.8</ele>
        <time>2021-09-12T08:44:37Z</time>
      </trkpt>
      <trkpt lat="46.53798" lon="0.33206">
        <ele>92.8</ele>
        <time>2021-09-12T08:44:41Z</time>
      </trkpt>
      <trkpt lat="46.53795" lon="0.33203">
        <ele>93.8</ele>
        <time>2021-09-12T08:44:46Z</time>
      </trkpt>
      <trkpt lat="46.53791" lon="0.33201">
        <ele>95.2</ele>
        <time>2021-09-12T08:44:52Z</time>
      </trkpt>
      <trkpt lat="46.53789" lon="0.332">
        <ele>96.4</ele>
        <time>2021-09-12T08:44:56Z</time>
      </trkpt>
      <trkpt lat="46.53788" lon="0.332">
        <ele>96.4</ele>
        <time>2021-09-12T08:44:57Z</time>
      </trkpt>
      <trkpt lat="46.53784" lon="0.33199">
        <ele>97.6</ele>
        <time>2021-09-12T08:45:03Z</time>
      </trkpt>
      <trkpt lat="46.53781" lon="0.33197">
        <ele>98.6</ele>
        <time>2021-09-12T08:45:09Z</time>
      </trkpt>
      <trkpt lat="46.5378" lon="0.33195">
        <ele>99.6</ele>
        <time>2021-09-12T08:45:13Z</time>
      </trkpt>
      <trkpt lat="46.53779" lon="0.33195">
        <ele>99.8</ele>
        <time>2021-09-12T08:45:15Z</time>
      </trkpt>
      <trkpt lat="46.53777" lon="0.33194">
        <ele>100.8</ele>
        <time>2021-09-12T08:45:20Z</time>
      </trkpt>
      <trkpt lat="46.53772" lon="0.33192">
        <ele>101.6</ele>
        <time>2021-09-12T08:45:26Z</time>
      </trkpt>
      <trkpt lat="46.53772" lon="0.33191">
        <ele>101.8</ele>
        <time>2021-09-12T08:45:27Z</time>
      </trkpt>
      <trkpt lat="46.53769" lon="0.33193">
        <ele>102.6</ele>
        <time>2021-09-12T08:45:32Z</time>
      </trkpt>
      <trkpt lat="46.53767" lon="0.33194">
        <ele>103</ele>
        <time>2021-09-12T08:45:35Z</time>
      </trkpt>
      <trkpt lat="46.53766" lon="0.33194">
        <ele>103.6</ele>
        <time>2021-09-12T08:45:37Z</time>
      </trkpt>
      <trkpt lat="46.53764" lon="0.33194">
        <ele>104.2</ele>
        <time>2021-09-12T08:45:40Z</time>
      </trkpt>
      <trkpt lat="46.53759" lon="0.33192">
        <ele>105.4</ele>
        <time>2021-09-12T08:45:47Z</time>
      </trkpt>
      <trkpt lat="46.53757" lon="0.33189">
        <ele>105.6</ele>
        <time>2021-09-12T08:45:51Z</time>
      </trkpt>
      <trkpt lat="46.53753" lon="0.33184">
        <ele>106</ele>
        <time>2021-09-12T08:46:02Z</time>
      </trkpt>
      <trkpt lat="46.53753" lon="0.33182">
        <ele>106</ele>
        <time>2021-09-12T08:46:05Z</time>
      </trkpt>
      <trkpt lat="46.53752" lon="0.33181">
        <ele>106.4</ele>
        <time>2021-09-12T08:46:07Z</time>
      </trkpt>
      <trkpt lat="46.5375" lon="0.33177">
        <ele>107.6</ele>
        <time>2021-09-12T08:46:10Z</time>
      </trkpt>
      <trkpt lat="46.53749" lon="0.33173">
        <ele>108.4</ele>
        <time>2021-09-12T08:46:13Z</time>
      </trkpt>
      <trkpt lat="46.53751" lon="0.33166">
        <ele>108.6</ele>
        <time>2021-09-12T08:46:16Z</time>
      </trkpt>
      <trkpt lat="46.53754" lon="0.33156">
        <ele>108.8</ele>
        <time>2021-09-12T08:46:20Z</time>
      </trkpt>
      <trkpt lat="46.53762" lon="0.33143">
        <ele>109</ele>
        <time>2021-09-12T08:46:26Z</time>
      </trkpt>
      <trkpt lat="46.5377" lon="0.33127">
        <ele>109.2</ele>
        <time>2021-09-12T08:46:31Z</time>
      </trkpt>
      <trkpt lat="46.53779" lon="0.33107">
        <ele>109.4</ele>
        <time>2021-09-12T08:46:36Z</time>
      </trkpt>
      <trkpt lat="46.53781" lon="0.33103">
        <ele>109.4</ele>
        <time>2021-09-12T08:46:37Z</time>
      </trkpt>
      <trkpt lat="46.53784" lon="0.33094">
        <ele>109.4</ele>
        <time>2021-09-12T08:46:39Z</time>
      </trkpt>
      <trkpt lat="46.5379" lon="0.33077">
        <ele>108.6</ele>
        <time>2021-09-12T08:46:42Z</time>
      </trkpt>
      <trkpt lat="46.53792" lon="0.33071">
        <ele>108.4</ele>
        <time>2021-09-12T08:46:43Z</time>
      </trkpt>
      <trkpt lat="46.53803" lon="0.33047">
        <ele>107.6</ele>
        <time>2021-09-12T08:46:47Z</time>
      </trkpt>
      <trkpt lat="46.53809" lon="0.3304">
        <ele>106.8</ele>
        <time>2021-09-12T08:46:49Z</time>
      </trkpt>
      <trkpt lat="46.53813" lon="0.33037">
        <ele>106.2</ele>
        <time>2021-09-12T08:46:50Z</time>
      </trkpt>
      <trkpt lat="46.53822" lon="0.33029">
        <ele>105.4</ele>
        <time>2021-09-12T08:46:52Z</time>
      </trkpt>
      <trkpt lat="46.53828" lon="0.33021">
        <ele>105.2</ele>
        <time>2021-09-12T08:46:54Z</time>
      </trkpt>
      <trkpt lat="46.53833" lon="0.33015">
        <ele>105.2</ele>
        <time>2021-09-12T08:46:56Z</time>
      </trkpt>
      <trkpt lat="46.53846" lon="0.32994">
        <ele>106.6</ele>
        <time>2021-09-12T08:47:03Z</time>
      </trkpt>
      <trkpt lat="46.53849" lon="0.32987">
        <ele>107.6</ele>
        <time>2021-09-12T08:47:06Z</time>
      </trkpt>
      <trkpt lat="46.53851" lon="0.32981">
        <ele>108.2</ele>
        <time>2021-09-12T08:47:08Z</time>
      </trkpt>
      <trkpt lat="46.53853" lon="0.32977">
        <ele>108.4</ele>
        <time>2021-09-12T08:47:09Z</time>
      </trkpt>
      <trkpt lat="46.5386" lon="0.3297">
        <ele>108.8</ele>
        <time>2021-09-12T08:47:11Z</time>
      </trkpt>
      <trkpt lat="46.53863" lon="0.32966">
        <ele>109</ele>
        <time>2021-09-12T08:47:12Z</time>
      </trkpt>
      <trkpt lat="46.53875" lon="0.32949">
        <ele>109</ele>
        <time>2021-09-12T08:47:17Z</time>
      </trkpt>
      <trkpt lat="46.53881" lon="0.32939">
        <ele>108.8</ele>
        <time>2021-09-12T08:47:20Z</time>
      </trkpt>
      <trkpt lat="46.53883" lon="0.32934">
        <ele>108.8</ele>
        <time>2021-09-12T08:47:22Z</time>
      </trkpt>
      <trkpt lat="46.53884" lon="0.32932">
        <ele>109</ele>
        <time>2021-09-12T08:47:23Z</time>
      </trkpt>
      <trkpt lat="46.53886" lon="0.32926">
        <ele>110</ele>
        <time>2021-09-12T08:47:26Z</time>
      </trkpt>
      <trkpt lat="46.53888" lon="0.32921">
        <ele>110.6</ele>
        <time>2021-09-12T08:47:28Z</time>
      </trkpt>
      <trkpt lat="46.5389" lon="0.32917">
        <ele>111.2</ele>
        <time>2021-09-12T08:47:30Z</time>
      </trkpt>
      <trkpt lat="46.53891" lon="0.32915">
        <ele>111.4</ele>
        <time>2021-09-12T08:47:31Z</time>
      </trkpt>
      <trkpt lat="46.53896" lon="0.329">
        <ele>112</ele>
        <time>2021-09-12T08:47:36Z</time>
      </trkpt>
      <trkpt lat="46.53898" lon="0.32897">
        <ele>112</ele>
        <time>2021-09-12T08:47:37Z</time>
      </trkpt>
      <trkpt lat="46.53912" lon="0.32882">
        <ele>110.8</ele>
        <time>2021-09-12T08:47:43Z</time>
      </trkpt>
      <trkpt lat="46.53923" lon="0.32871">
        <ele>110</ele>
        <time>2021-09-12T08:47:47Z</time>
      </trkpt>
      <trkpt lat="46.53929" lon="0.3287">
        <ele>109.6</ele>
        <time>2021-09-12T08:47:50Z</time>
      </trkpt>
      <trkpt lat="46.53931" lon="0.32865">
        <ele>109.2</ele>
        <time>2021-09-12T08:47:52Z</time>
      </trkpt>
      <trkpt lat="46.53932" lon="0.32862">
        <ele>109</ele>
        <time>2021-09-12T08:47:53Z</time>
      </trkpt>
      <trkpt lat="46.53938" lon="0.32854">
        <ele>108.6</ele>
        <time>2021-09-12T08:47:57Z</time>
      </trkpt>
      <trkpt lat="46.53949" lon="0.32849">
        <ele>107.8</ele>
        <time>2021-09-12T08:48:02Z</time>
      </trkpt>
      <trkpt lat="46.53953" lon="0.32846">
        <ele>107.6</ele>
        <time>2021-09-12T08:48:04Z</time>
      </trkpt>
      <trkpt lat="46.53958" lon="0.32842">
        <ele>107.4</ele>
        <time>2021-09-12T08:48:06Z</time>
      </trkpt>
      <trkpt lat="46.5396" lon="0.3284">
        <ele>107.2</ele>
        <time>2021-09-12T08:48:07Z</time>
      </trkpt>
      <trkpt lat="46.53969" lon="0.3283">
        <ele>105.8</ele>
        <time>2021-09-12T08:48:10Z</time>
      </trkpt>
      <trkpt lat="46.53972" lon="0.32824">
        <ele>105</ele>
        <time>2021-09-12T08:48:12Z</time>
      </trkpt>
      <trkpt lat="46.53972" lon="0.32824">
        <ele>104.8</ele>
        <time>2021-09-12T08:48:13Z</time>
      </trkpt>
      <trkpt lat="46.53969" lon="0.32819">
        <ele>104</ele>
        <time>2021-09-12T08:48:18Z</time>
      </trkpt>
      <trkpt lat="46.53969" lon="0.32817">
        <ele>103.6</ele>
        <time>2021-09-12T08:48:19Z</time>
      </trkpt>
      <trkpt lat="46.53962" lon="0.32811">
        <ele>102.8</ele>
        <time>2021-09-12T08:48:24Z</time>
      </trkpt>
      <trkpt lat="46.53949" lon="0.32813">
        <ele>103.8</ele>
        <time>2021-09-12T08:48:30Z</time>
      </trkpt>
      <trkpt lat="46.5394" lon="0.32813">
        <ele>104.6</ele>
        <time>2021-09-12T08:48:34Z</time>
      </trkpt>
      <trkpt lat="46.53933" lon="0.32814">
        <ele>105.6</ele>
        <time>2021-09-12T08:48:37Z</time>
      </trkpt>
      <trkpt lat="46.53932" lon="0.32814">
        <ele>105.8</ele>
        <time>2021-09-12T08:48:38Z</time>
      </trkpt>
      <trkpt lat="46.5392" lon="0.32816">
        <ele>106.8</ele>
        <time>2021-09-12T08:48:44Z</time>
      </trkpt>
      <trkpt lat="46.53912" lon="0.32818">
        <ele>108</ele>
        <time>2021-09-12T08:48:48Z</time>
      </trkpt>
      <trkpt lat="46.53907" lon="0.32818">
        <ele>108.2</ele>
        <time>2021-09-12T08:48:50Z</time>
      </trkpt>
      <trkpt lat="46.53889" lon="0.32812">
        <ele>108.6</ele>
        <time>2021-09-12T08:48:58Z</time>
      </trkpt>
      <trkpt lat="46.53874" lon="0.32806">
        <ele>108.8</ele>
        <time>2021-09-12T08:49:04Z</time>
      </trkpt>
      <trkpt lat="46.53865" lon="0.328">
        <ele>109</ele>
        <time>2021-09-12T08:49:07Z</time>
      </trkpt>
      <trkpt lat="46.53851" lon="0.32794">
        <ele>108.8</ele>
        <time>2021-09-12T08:49:10Z</time>
      </trkpt>
      <trkpt lat="46.5383" lon="0.32785">
        <ele>109.2</ele>
        <time>2021-09-12T08:49:15Z</time>
      </trkpt>
      <trkpt lat="46.53807" lon="0.32776">
        <ele>109.8</ele>
        <time>2021-09-12T08:49:20Z</time>
      </trkpt>
      <trkpt lat="46.53802" lon="0.32775">
        <ele>109.8</ele>
        <time>2021-09-12T08:49:21Z</time>
      </trkpt>
      <trkpt lat="46.5379" lon="0.32773">
        <ele>109.8</ele>
        <time>2021-09-12T08:49:24Z</time>
      </trkpt>
      <trkpt lat="46.53777" lon="0.32769">
        <ele>110</ele>
        <time>2021-09-12T08:49:27Z</time>
      </trkpt>
      <trkpt lat="46.53768" lon="0.32767">
        <ele>110.2</ele>
        <time>2021-09-12T08:49:29Z</time>
      </trkpt>
      <trkpt lat="46.53764" lon="0.32766">
        <ele>110.2</ele>
        <time>2021-09-12T08:49:30Z</time>
      </trkpt>
      <trkpt lat="46.53752" lon="0.32764">
        <ele>110.8</ele>
        <time>2021-09-12T08:49:33Z</time>
      </trkpt>
      <trkpt lat="46.53742" lon="0.32762">
        <ele>111.2</ele>
        <time>2021-09-12T08:49:36Z</time>
      </trkpt>
      <trkpt lat="46.53729" lon="0.3276">
        <ele>112</ele>
        <time>2021-09-12T08:49:40Z</time>
      </trkpt>
      <trkpt lat="46.53718" lon="0.32759">
        <ele>112.4</ele>
        <time>2021-09-12T08:49:43Z</time>
      </trkpt>
      <trkpt lat="46.53707" lon="0.32757">
        <ele>112.6</ele>
        <time>2021-09-12T08:49:46Z</time>
      </trkpt>
      <trkpt lat="46.53693" lon="0.32755">
        <ele>113.4</ele>
        <time>2021-09-12T08:49:50Z</time>
      </trkpt>
      <trkpt lat="46.53687" lon="0.32754">
        <ele>113.8</ele>
        <time>2021-09-12T08:49:52Z</time>
      </trkpt>
      <trkpt lat="46.53678" lon="0.32753">
        <ele>114.4</ele>
        <time>2021-09-12T08:49:55Z</time>
      </trkpt>
      <trkpt lat="46.53669" lon="0.32753">
        <ele>114.6</ele>
        <time>2021-09-12T08:49:58Z</time>
      </trkpt>
      <trkpt lat="46.5366" lon="0.32754">
        <ele>115.4</ele>
        <time>2021-09-12T08:50:02Z</time>
      </trkpt>
      <trkpt lat="46.53653" lon="0.32751">
        <ele>115.6</ele>
        <time>2021-09-12T08:50:05Z</time>
      </trkpt>
      <trkpt lat="46.53647" lon="0.32736">
        <ele>115.6</ele>
        <time>2021-09-12T08:50:09Z</time>
      </trkpt>
      <trkpt lat="46.53646" lon="0.32728">
        <ele>114.4</ele>
        <time>2021-09-12T08:50:11Z</time>
      </trkpt>
      <trkpt lat="46.53649" lon="0.32718">
        <ele>113</ele>
        <time>2021-09-12T08:50:14Z</time>
      </trkpt>
      <trkpt lat="46.5365" lon="0.32715">
        <ele>112.2</ele>
        <time>2021-09-12T08:50:15Z</time>
      </trkpt>
      <trkpt lat="46.53652" lon="0.32712">
        <ele>111.8</ele>
        <time>2021-09-12T08:50:16Z</time>
      </trkpt>
      <trkpt lat="46.53656" lon="0.32701">
        <ele>110.6</ele>
        <time>2021-09-12T08:50:18Z</time>
      </trkpt>
      <trkpt lat="46.53657" lon="0.32694">
        <ele>110</ele>
        <time>2021-09-12T08:50:19Z</time>
      </trkpt>
      <trkpt lat="46.53657" lon="0.32688">
        <ele>109.6</ele>
        <time>2021-09-12T08:50:20Z</time>
      </trkpt>
      <trkpt lat="46.53657" lon="0.32681">
        <ele>109.2</ele>
        <time>2021-09-12T08:50:21Z</time>
      </trkpt>
      <trkpt lat="46.53657" lon="0.32677">
        <ele>107.6</ele>
        <time>2021-09-12T08:50:22Z</time>
      </trkpt>
      <trkpt lat="46.53655" lon="0.32674">
        <ele>106.6</ele>
        <time>2021-09-12T08:50:23Z</time>
      </trkpt>
      <trkpt lat="46.53652" lon="0.32671">
        <ele>106</ele>
        <time>2021-09-12T08:50:24Z</time>
      </trkpt>
      <trkpt lat="46.5365" lon="0.32669">
        <ele>105.2</ele>
        <time>2021-09-12T08:50:25Z</time>
      </trkpt>
      <trkpt lat="46.53648" lon="0.32666">
        <ele>104.8</ele>
        <time>2021-09-12T08:50:26Z</time>
      </trkpt>
      <trkpt lat="46.53644" lon="0.32659">
        <ele>104.2</ele>
        <time>2021-09-12T08:50:28Z</time>
      </trkpt>
      <trkpt lat="46.53644" lon="0.32644">
        <ele>103.4</ele>
        <time>2021-09-12T08:50:32Z</time>
      </trkpt>
      <trkpt lat="46.53647" lon="0.32638">
        <ele>102.8</ele>
        <time>2021-09-12T08:50:34Z</time>
      </trkpt>
      <trkpt lat="46.53649" lon="0.32633">
        <ele>102.4</ele>
        <time>2021-09-12T08:50:35Z</time>
      </trkpt>
      <trkpt lat="46.5365" lon="0.32629">
        <ele>101.2</ele>
        <time>2021-09-12T08:50:36Z</time>
      </trkpt>
      <trkpt lat="46.53652" lon="0.32624">
        <ele>100.4</ele>
        <time>2021-09-12T08:50:37Z</time>
      </trkpt>
      <trkpt lat="46.53653" lon="0.32618">
        <ele>99.2</ele>
        <time>2021-09-12T08:50:38Z</time>
      </trkpt>
      <trkpt lat="46.53653" lon="0.32615">
        <ele>98.2</ele>
        <time>2021-09-12T08:50:39Z</time>
      </trkpt>
      <trkpt lat="46.53653" lon="0.32611">
        <ele>97.2</ele>
        <time>2021-09-12T08:50:40Z</time>
      </trkpt>
      <trkpt lat="46.53653" lon="0.32608">
        <ele>96.6</ele>
        <time>2021-09-12T08:50:41Z</time>
      </trkpt>
      <trkpt lat="46.53651" lon="0.32606">
        <ele>96.2</ele>
        <time>2021-09-12T08:50:42Z</time>
      </trkpt>
      <trkpt lat="46.53648" lon="0.32602">
        <ele>95.8</ele>
        <time>2021-09-12T08:50:46Z</time>
      </trkpt>
      <trkpt lat="46.53635" lon="0.32602">
        <ele>97.2</ele>
        <time>2021-09-12T08:50:52Z</time>
      </trkpt>
      <trkpt lat="46.5363" lon="0.326">
        <ele>97.4</ele>
        <time>2021-09-12T08:50:53Z</time>
      </trkpt>
      <trkpt lat="46.53626" lon="0.32598">
        <ele>98.6</ele>
        <time>2021-09-12T08:50:57Z</time>
      </trkpt>
      <trkpt lat="46.53623" lon="0.32598">
        <ele>98.8</ele>
        <time>2021-09-12T08:50:59Z</time>
      </trkpt>
      <trkpt lat="46.53623" lon="0.32598">
        <ele>99.8</ele>
        <time>2021-09-12T08:51:01Z</time>
      </trkpt>
      <trkpt lat="46.5361" lon="0.32602">
        <ele>101</ele>
        <time>2021-09-12T08:51:07Z</time>
      </trkpt>
      <trkpt lat="46.536" lon="0.32605">
        <ele>102.2</ele>
        <time>2021-09-12T08:51:13Z</time>
      </trkpt>
      <trkpt lat="46.53598" lon="0.32606">
        <ele>102.4</ele>
        <time>2021-09-12T08:51:14Z</time>
      </trkpt>
      <trkpt lat="46.53593" lon="0.32607">
        <ele>103.2</ele>
        <time>2021-09-12T08:51:17Z</time>
      </trkpt>
      <trkpt lat="46.53584" lon="0.32608">
        <ele>104</ele>
        <time>2021-09-12T08:51:22Z</time>
      </trkpt>
      <trkpt lat="46.53583" lon="0.32608">
        <ele>104.2</ele>
        <time>2021-09-12T08:51:23Z</time>
      </trkpt>
      <trkpt lat="46.53572" lon="0.32607">
        <ele>105.4</ele>
        <time>2021-09-12T08:51:30Z</time>
      </trkpt>
      <trkpt lat="46.53565" lon="0.32607">
        <ele>106</ele>
        <time>2021-09-12T08:51:34Z</time>
      </trkpt>
      <trkpt lat="46.53562" lon="0.32606">
        <ele>106.2</ele>
        <time>2021-09-12T08:51:36Z</time>
      </trkpt>
      <trkpt lat="46.53561" lon="0.32606">
        <ele>106.4</ele>
        <time>2021-09-12T08:51:37Z</time>
      </trkpt>
      <trkpt lat="46.53553" lon="0.32608">
        <ele>107</ele>
        <time>2021-09-12T08:51:42Z</time>
      </trkpt>
      <trkpt lat="46.53548" lon="0.32611">
        <ele>107.4</ele>
        <time>2021-09-12T08:51:45Z</time>
      </trkpt>
      <trkpt lat="46.53541" lon="0.32614">
        <ele>108.2</ele>
        <time>2021-09-12T08:51:49Z</time>
      </trkpt>
      <trkpt lat="46.53538" lon="0.32616">
        <ele>108.8</ele>
        <time>2021-09-12T08:51:51Z</time>
      </trkpt>
      <trkpt lat="46.5353" lon="0.3262">
        <ele>109.8</ele>
        <time>2021-09-12T08:51:55Z</time>
      </trkpt>
      <trkpt lat="46.53528" lon="0.32621">
        <ele>110</ele>
        <time>2021-09-12T08:51:56Z</time>
      </trkpt>
      <trkpt lat="46.53518" lon="0.32626">
        <ele>110.8</ele>
        <time>2021-09-12T08:52:02Z</time>
      </trkpt>
      <trkpt lat="46.53507" lon="0.32631">
        <ele>111.8</ele>
        <time>2021-09-12T08:52:09Z</time>
      </trkpt>
      <trkpt lat="46.53506" lon="0.32631">
        <ele>112</ele>
        <time>2021-09-12T08:52:10Z</time>
      </trkpt>
      <trkpt lat="46.53497" lon="0.32635">
        <ele>112.8</ele>
        <time>2021-09-12T08:52:16Z</time>
      </trkpt>
      <trkpt lat="46.53492" lon="0.32635">
        <ele>113.2</ele>
        <time>2021-09-12T08:52:18Z</time>
      </trkpt>
      <trkpt lat="46.53483" lon="0.32639">
        <ele>114</ele>
        <time>2021-09-12T08:52:22Z</time>
      </trkpt>
      <trkpt lat="46.53481" lon="0.3264">
        <ele>114.2</ele>
        <time>2021-09-12T08:52:23Z</time>
      </trkpt>
      <trkpt lat="46.53474" lon="0.32643">
        <ele>114.8</ele>
        <time>2021-09-12T08:52:27Z</time>
      </trkpt>
      <trkpt lat="46.53468" lon="0.32645">
        <ele>115.4</ele>
        <time>2021-09-12T08:52:30Z</time>
      </trkpt>
      <trkpt lat="46.53464" lon="0.32647">
        <ele>115.8</ele>
        <time>2021-09-12T08:52:33Z</time>
      </trkpt>
      <trkpt lat="46.53457" lon="0.3265">
        <ele>116.4</ele>
        <time>2021-09-12T08:52:36Z</time>
      </trkpt>
      <trkpt lat="46.53446" lon="0.32653">
        <ele>117.4</ele>
        <time>2021-09-12T08:52:41Z</time>
      </trkpt>
      <trkpt lat="46.53444" lon="0.32654">
        <ele>117.6</ele>
        <time>2021-09-12T08:52:42Z</time>
      </trkpt>
      <trkpt lat="46.53431" lon="0.32655">
        <ele>117.8</ele>
        <time>2021-09-12T08:52:47Z</time>
      </trkpt>
      <trkpt lat="46.53415" lon="0.3266">
        <ele>118.4</ele>
        <time>2021-09-12T08:52:53Z</time>
      </trkpt>
      <trkpt lat="46.53413" lon="0.3266">
        <ele>118.8</ele>
        <time>2021-09-12T08:52:54Z</time>
      </trkpt>
      <trkpt lat="46.53401" lon="0.32658">
        <ele>119.2</ele>
        <time>2021-09-12T08:52:58Z</time>
      </trkpt>
      <trkpt lat="46.53385" lon="0.32654">
        <ele>119.4</ele>
        <time>2021-09-12T08:53:04Z</time>
      </trkpt>
      <trkpt lat="46.53365" lon="0.32643">
        <ele>119.4</ele>
        <time>2021-09-12T08:53:11Z</time>
      </trkpt>
      <trkpt lat="46.53361" lon="0.3264">
        <ele>119.4</ele>
        <time>2021-09-12T08:53:12Z</time>
      </trkpt>
      <trkpt lat="46.53353" lon="0.32637">
        <ele>119.2</ele>
        <time>2021-09-12T08:53:14Z</time>
      </trkpt>
      <trkpt lat="46.53344" lon="0.32632">
        <ele>119</ele>
        <time>2021-09-12T08:53:16Z</time>
      </trkpt>
      <trkpt lat="46.53321" lon="0.32618">
        <ele>119</ele>
        <time>2021-09-12T08:53:21Z</time>
      </trkpt>
      <trkpt lat="46.53317" lon="0.32616">
        <ele>119.2</ele>
        <time>2021-09-12T08:53:22Z</time>
      </trkpt>
      <trkpt lat="46.53314" lon="0.32613">
        <ele>119.2</ele>
        <time>2021-09-12T08:53:23Z</time>
      </trkpt>
      <trkpt lat="46.5331" lon="0.32606">
        <ele>119.2</ele>
        <time>2021-09-12T08:53:25Z</time>
      </trkpt>
      <trkpt lat="46.53308" lon="0.32601">
        <ele>119.2</ele>
        <time>2021-09-12T08:53:26Z</time>
      </trkpt>
      <trkpt lat="46.53306" lon="0.32597">
        <ele>119</ele>
        <time>2021-09-12T08:53:27Z</time>
      </trkpt>
      <trkpt lat="46.53304" lon="0.32585">
        <ele>119</ele>
        <time>2021-09-12T08:53:29Z</time>
      </trkpt>
      <trkpt lat="46.53302" lon="0.32579">
        <ele>118.8</ele>
        <time>2021-09-12T08:53:30Z</time>
      </trkpt>
      <trkpt lat="46.53297" lon="0.3256">
        <ele>117.2</ele>
        <time>2021-09-12T08:53:33Z</time>
      </trkpt>
      <trkpt lat="46.53295" lon="0.32553">
        <ele>117</ele>
        <time>2021-09-12T08:53:34Z</time>
      </trkpt>
      <trkpt lat="46.53293" lon="0.32548">
        <ele>116.8</ele>
        <time>2021-09-12T08:53:35Z</time>
      </trkpt>
      <trkpt lat="46.5329" lon="0.32538">
        <ele>116.2</ele>
        <time>2021-09-12T08:53:37Z</time>
      </trkpt>
      <trkpt lat="46.53286" lon="0.32527">
        <ele>115.6</ele>
        <time>2021-09-12T08:53:39Z</time>
      </trkpt>
      <trkpt lat="46.53285" lon="0.32522">
        <ele>115.4</ele>
        <time>2021-09-12T08:53:40Z</time>
      </trkpt>
      <trkpt lat="46.53284" lon="0.32511">
        <ele>115.4</ele>
        <time>2021-09-12T08:53:42Z</time>
      </trkpt>
      <trkpt lat="46.53285" lon="0.32502">
        <ele>115</ele>
        <time>2021-09-12T08:53:44Z</time>
      </trkpt>
      <trkpt lat="46.53287" lon="0.32493">
        <ele>114</ele>
        <time>2021-09-12T08:53:46Z</time>
      </trkpt>
      <trkpt lat="46.53288" lon="0.3249">
        <ele>112.8</ele>
        <time>2021-09-12T08:53:47Z</time>
      </trkpt>
      <trkpt lat="46.53288" lon="0.32486">
        <ele>112</ele>
        <time>2021-09-12T08:53:48Z</time>
      </trkpt>
      <trkpt lat="46.5329" lon="0.32482">
        <ele>111.6</ele>
        <time>2021-09-12T08:53:49Z</time>
      </trkpt>
      <trkpt lat="46.53294" lon="0.32476">
        <ele>110</ele>
        <time>2021-09-12T08:53:50Z</time>
      </trkpt>
      <trkpt lat="46.53302" lon="0.32465">
        <ele>109</ele>
        <time>2021-09-12T08:53:55Z</time>
      </trkpt>
      <trkpt lat="46.53307" lon="0.32462">
        <ele>108.4</ele>
        <time>2021-09-12T08:53:57Z</time>
      </trkpt>
      <trkpt lat="46.53308" lon="0.32462">
        <ele>107.8</ele>
        <time>2021-09-12T08:53:58Z</time>
      </trkpt>
      <trkpt lat="46.5331" lon="0.32461">
        <ele>106.2</ele>
        <time>2021-09-12T08:54:00Z</time>
      </trkpt>
      <trkpt lat="46.53312" lon="0.3246">
        <ele>105</ele>
        <time>2021-09-12T08:54:01Z</time>
      </trkpt>
      <trkpt lat="46.53315" lon="0.32459">
        <ele>103.8</ele>
        <time>2021-09-12T08:54:02Z</time>
      </trkpt>
      <trkpt lat="46.53316" lon="0.32458">
        <ele>103.2</ele>
        <time>2021-09-12T08:54:03Z</time>
      </trkpt>
      <trkpt lat="46.53318" lon="0.32457">
        <ele>102.8</ele>
        <time>2021-09-12T08:54:04Z</time>
      </trkpt>
      <trkpt lat="46.53321" lon="0.32454">
        <ele>100.8</ele>
        <time>2021-09-12T08:54:06Z</time>
      </trkpt>
      <trkpt lat="46.53323" lon="0.32451">
        <ele>99.6</ele>
        <time>2021-09-12T08:54:08Z</time>
      </trkpt>
      <trkpt lat="46.53325" lon="0.32449">
        <ele>99.4</ele>
        <time>2021-09-12T08:54:09Z</time>
      </trkpt>
      <trkpt lat="46.53329" lon="0.32446">
        <ele>99.2</ele>
        <time>2021-09-12T08:54:11Z</time>
      </trkpt>
      <trkpt lat="46.53336" lon="0.32443">
        <ele>98.4</ele>
        <time>2021-09-12T08:54:13Z</time>
      </trkpt>
      <trkpt lat="46.53339" lon="0.32442">
        <ele>97.8</ele>
        <time>2021-09-12T08:54:14Z</time>
      </trkpt>
      <trkpt lat="46.53341" lon="0.32444">
        <ele>97.4</ele>
        <time>2021-09-12T08:54:16Z</time>
      </trkpt>
      <trkpt lat="46.53343" lon="0.32445">
        <ele>97</ele>
        <time>2021-09-12T08:54:17Z</time>
      </trkpt>
      <trkpt lat="46.53346" lon="0.32445">
        <ele>96.8</ele>
        <time>2021-09-12T08:54:20Z</time>
      </trkpt>
      <trkpt lat="46.53349" lon="0.3245">
        <ele>98.8</ele>
        <time>2021-09-12T08:54:26Z</time>
      </trkpt>
      <trkpt lat="46.5335" lon="0.32451">
        <ele>98.8</ele>
        <time>2021-09-12T08:54:29Z</time>
      </trkpt>
      <trkpt lat="46.53353" lon="0.32451">
        <ele>98.8</ele>
        <time>2021-09-12T08:54:33Z</time>
      </trkpt>
      <trkpt lat="46.53358" lon="0.32451">
        <ele>98.8</ele>
        <time>2021-09-12T08:54:37Z</time>
      </trkpt>
      <trkpt lat="46.5336" lon="0.32452">
        <ele>98.8</ele>
        <time>2021-09-12T08:54:38Z</time>
      </trkpt>
      <trkpt lat="46.53361" lon="0.32452">
        <ele>99.2</ele>
        <time>2021-09-12T08:54:39Z</time>
      </trkpt>
      <trkpt lat="46.53363" lon="0.32454">
        <ele>100</ele>
        <time>2021-09-12T08:54:41Z</time>
      </trkpt>
      <trkpt lat="46.53374" lon="0.32462">
        <ele>100.6</ele>
        <time>2021-09-12T08:54:48Z</time>
      </trkpt>
      <trkpt lat="46.53393" lon="0.32477">
        <ele>100</ele>
        <time>2021-09-12T08:55:00Z</time>
      </trkpt>
      <trkpt lat="46.53396" lon="0.32479">
        <ele>99.8</ele>
        <time>2021-09-12T08:55:15Z</time>
      </trkpt>
      <trkpt lat="46.53397" lon="0.32478">
        <ele>99.6</ele>
        <time>2021-09-12T08:55:28Z</time>
      </trkpt>
      <trkpt lat="46.53398" lon="0.32477">
        <ele>99.6</ele>
        <time>2021-09-12T08:55:44Z</time>
      </trkpt>
      <trkpt lat="46.53399" lon="0.32476">
        <ele>99.4</ele>
        <time>2021-09-12T08:55:51Z</time>
      </trkpt>
      <trkpt lat="46.534" lon="0.32476">
        <ele>98.6</ele>
        <time>2021-09-12T08:55:52Z</time>
      </trkpt>
      <trkpt lat="46.53401" lon="0.32475">
        <ele>98.2</ele>
        <time>2021-09-12T08:55:53Z</time>
      </trkpt>
      <trkpt lat="46.53403" lon="0.32474">
        <ele>97</ele>
        <time>2021-09-12T08:55:55Z</time>
      </trkpt>
      <trkpt lat="46.53404" lon="0.32473">
        <ele>95.8</ele>
        <time>2021-09-12T08:55:57Z</time>
      </trkpt>
      <trkpt lat="46.53406" lon="0.32472">
        <ele>93.2</ele>
        <time>2021-09-12T08:55:59Z</time>
      </trkpt>
      <trkpt lat="46.53408" lon="0.32471">
        <ele>91.2</ele>
        <time>2021-09-12T08:56:01Z</time>
      </trkpt>
      <trkpt lat="46.53408" lon="0.3247">
        <ele>90.6</ele>
        <time>2021-09-12T08:56:02Z</time>
      </trkpt>
      <trkpt lat="46.53409" lon="0.3247">
        <ele>90.2</ele>
        <time>2021-09-12T08:56:03Z</time>
      </trkpt>
      <trkpt lat="46.53412" lon="0.32469">
        <ele>89</ele>
        <time>2021-09-12T08:56:05Z</time>
      </trkpt>
      <trkpt lat="46.53413" lon="0.32469">
        <ele>88.4</ele>
        <time>2021-09-12T08:56:06Z</time>
      </trkpt>
      <trkpt lat="46.53415" lon="0.32469">
        <ele>87.4</ele>
        <time>2021-09-12T08:56:07Z</time>
      </trkpt>
      <trkpt lat="46.53416" lon="0.32469">
        <ele>86.4</ele>
        <time>2021-09-12T08:56:08Z</time>
      </trkpt>
      <trkpt lat="46.53417" lon="0.3247">
        <ele>85</ele>
        <time>2021-09-12T08:56:09Z</time>
      </trkpt>
      <trkpt lat="46.53421" lon="0.32471">
        <ele>83.4</ele>
        <time>2021-09-12T08:56:11Z</time>
      </trkpt>
      <trkpt lat="46.53425" lon="0.32472">
        <ele>81.8</ele>
        <time>2021-09-12T08:56:13Z</time>
      </trkpt>
      <trkpt lat="46.53429" lon="0.3247">
        <ele>81.2</ele>
        <time>2021-09-12T08:56:14Z</time>
      </trkpt>
      <trkpt lat="46.53434" lon="0.32467">
        <ele>81</ele>
        <time>2021-09-12T08:56:16Z</time>
      </trkpt>
      <trkpt lat="46.53438" lon="0.32465">
        <ele>80.8</ele>
        <time>2021-09-12T08:56:18Z</time>
      </trkpt>
      <trkpt lat="46.53448" lon="0.3246">
        <ele>81</ele>
        <time>2021-09-12T08:56:22Z</time>
      </trkpt>
      <trkpt lat="46.53451" lon="0.32458">
        <ele>81.2</ele>
        <time>2021-09-12T08:56:24Z</time>
      </trkpt>
      <trkpt lat="46.53455" lon="0.32452">
        <ele>81.6</ele>
        <time>2021-09-12T08:56:27Z</time>
      </trkpt>
      <trkpt lat="46.53456" lon="0.32451">
        <ele>81.8</ele>
        <time>2021-09-12T08:56:28Z</time>
      </trkpt>
      <trkpt lat="46.53457" lon="0.32443">
        <ele>82</ele>
        <time>2021-09-12T08:56:32Z</time>
      </trkpt>
      <trkpt lat="46.53454" lon="0.32434">
        <ele>81.6</ele>
        <time>2021-09-12T08:56:38Z</time>
      </trkpt>
      <trkpt lat="46.53451" lon="0.32428">
        <ele>82.4</ele>
        <time>2021-09-12T08:56:44Z</time>
      </trkpt>
      <trkpt lat="46.53437" lon="0.3242">
        <ele>82.2</ele>
        <time>2021-09-12T08:56:50Z</time>
      </trkpt>
      <trkpt lat="46.53422" lon="0.32417">
        <ele>82.2</ele>
        <time>2021-09-12T08:56:56Z</time>
      </trkpt>
      <trkpt lat="46.53412" lon="0.32412">
        <ele>81.2</ele>
        <time>2021-09-12T08:57:03Z</time>
      </trkpt>
      <trkpt lat="46.5341" lon="0.32411">
        <ele>81.2</ele>
        <time>2021-09-12T08:57:04Z</time>
      </trkpt>
      <trkpt lat="46.53407" lon="0.32408">
        <ele>81.2</ele>
        <time>2021-09-12T08:57:06Z</time>
      </trkpt>
      <trkpt lat="46.53406" lon="0.32404">
        <ele>81.6</ele>
        <time>2021-09-12T08:57:09Z</time>
      </trkpt>
      <trkpt lat="46.53403" lon="0.324">
        <ele>81.4</ele>
        <time>2021-09-12T08:57:13Z</time>
      </trkpt>
      <trkpt lat="46.53401" lon="0.32395">
        <ele>81.6</ele>
        <time>2021-09-12T08:57:26Z</time>
      </trkpt>
      <trkpt lat="46.534" lon="0.32394">
        <ele>80.8</ele>
        <time>2021-09-12T08:57:40Z</time>
      </trkpt>
      <trkpt lat="46.534" lon="0.32394">
        <ele>80.8</ele>
        <time>2021-09-12T08:57:41Z</time>
      </trkpt>
      <trkpt lat="46.534" lon="0.32394">
        <ele>81</ele>
        <time>2021-09-12T08:57:52Z</time>
      </trkpt>
      <trkpt lat="46.534" lon="0.32394">
        <ele>80.8</ele>
        <time>2021-09-12T08:58:03Z</time>
      </trkpt>
      <trkpt lat="46.53395" lon="0.32391">
        <ele>80.8</ele>
        <time>2021-09-12T08:58:22Z</time>
      </trkpt>
      <trkpt lat="46.5339" lon="0.32384">
        <ele>80.6</ele>
        <time>2021-09-12T08:58:37Z</time>
      </trkpt>
      <trkpt lat="46.53393" lon="0.32375">
        <ele>81.2</ele>
        <time>2021-09-12T08:58:47Z</time>
      </trkpt>
      <trkpt lat="46.53393" lon="0.32372">
        <ele>81.4</ele>
        <time>2021-09-12T08:58:50Z</time>
      </trkpt>
      <trkpt lat="46.53392" lon="0.3237">
        <ele>81.2</ele>
        <time>2021-09-12T08:58:55Z</time>
      </trkpt>
      <trkpt lat="46.53391" lon="0.32366">
        <ele>81.4</ele>
        <time>2021-09-12T08:59:02Z</time>
      </trkpt>
      <trkpt lat="46.53385" lon="0.32359">
        <ele>81.2</ele>
        <time>2021-09-12T08:59:12Z</time>
      </trkpt>
      <trkpt lat="46.53382" lon="0.32358">
        <ele>81.2</ele>
        <time>2021-09-12T08:59:16Z</time>
      </trkpt>
      <trkpt lat="46.5338" lon="0.32357">
        <ele>81.2</ele>
        <time>2021-09-12T08:59:20Z</time>
      </trkpt>
      <trkpt lat="46.53379" lon="0.32357">
        <ele>81.8</ele>
        <time>2021-09-12T08:59:23Z</time>
      </trkpt>
      <trkpt lat="46.53373" lon="0.32354">
        <ele>82</ele>
        <time>2021-09-12T08:59:36Z</time>
      </trkpt>
      <trkpt lat="46.5337" lon="0.32355">
        <ele>82</ele>
        <time>2021-09-12T08:59:41Z</time>
      </trkpt>
      <trkpt lat="46.53367" lon="0.32353">
        <ele>82.2</ele>
        <time>2021-09-12T08:59:45Z</time>
      </trkpt>
      <trkpt lat="46.53364" lon="0.3235">
        <ele>83</ele>
        <time>2021-09-12T08:59:49Z</time>
      </trkpt>
      <trkpt lat="46.53362" lon="0.32348">
        <ele>84</ele>
        <time>2021-09-12T08:59:53Z</time>
      </trkpt>
      <trkpt lat="46.53361" lon="0.32347">
        <ele>84.4</ele>
        <time>2021-09-12T08:59:55Z</time>
      </trkpt>
      <trkpt lat="46.5336" lon="0.32346">
        <ele>84.8</ele>
        <time>2021-09-12T08:59:58Z</time>
      </trkpt>
      <trkpt lat="46.53359" lon="0.32344">
        <ele>85</ele>
        <time>2021-09-12T09:00:00Z</time>
      </trkpt>
      <trkpt lat="46.53356" lon="0.32338">
        <ele>85.2</ele>
        <time>2021-09-12T09:00:06Z</time>
      </trkpt>
      <trkpt lat="46.53354" lon="0.32333">
        <ele>85.2</ele>
        <time>2021-09-12T09:00:09Z</time>
      </trkpt>
      <trkpt lat="46.53354" lon="0.32331">
        <ele>85.4</ele>
        <time>2021-09-12T09:00:10Z</time>
      </trkpt>
      <trkpt lat="46.53348" lon="0.32322">
        <ele>86.2</ele>
        <time>2021-09-12T09:00:15Z</time>
      </trkpt>
      <trkpt lat="46.53342" lon="0.32315">
        <ele>86.8</ele>
        <time>2021-09-12T09:00:19Z</time>
      </trkpt>
      <trkpt lat="46.53334" lon="0.32306">
        <ele>87.4</ele>
        <time>2021-09-12T09:00:25Z</time>
      </trkpt>
      <trkpt lat="46.53334" lon="0.32306">
        <ele>87.6</ele>
        <time>2021-09-12T09:00:26Z</time>
      </trkpt>
      <trkpt lat="46.53327" lon="0.32298">
        <ele>88.4</ele>
        <time>2021-09-12T09:00:37Z</time>
      </trkpt>
      <trkpt lat="46.53326" lon="0.32298">
        <ele>88.6</ele>
        <time>2021-09-12T09:00:40Z</time>
      </trkpt>
      <trkpt lat="46.53323" lon="0.32295">
        <ele>89.6</ele>
        <time>2021-09-12T09:00:49Z</time>
      </trkpt>
      <trkpt lat="46.53322" lon="0.32294">
        <ele>89.6</ele>
        <time>2021-09-12T09:00:50Z</time>
      </trkpt>
      <trkpt lat="46.53313" lon="0.32287">
        <ele>90.4</ele>
        <time>2021-09-12T09:00:58Z</time>
      </trkpt>
      <trkpt lat="46.53311" lon="0.32286">
        <ele>90.6</ele>
        <time>2021-09-12T09:00:59Z</time>
      </trkpt>
      <trkpt lat="46.53305" lon="0.32281">
        <ele>91.8</ele>
        <time>2021-09-12T09:01:04Z</time>
      </trkpt>
      <trkpt lat="46.53303" lon="0.32279">
        <ele>92.2</ele>
        <time>2021-09-12T09:01:06Z</time>
      </trkpt>
      <trkpt lat="46.53294" lon="0.32267">
        <ele>91.2</ele>
        <time>2021-09-12T09:01:14Z</time>
      </trkpt>
      <trkpt lat="46.53283" lon="0.32257">
        <ele>92.2</ele>
        <time>2021-09-12T09:01:24Z</time>
      </trkpt>
      <trkpt lat="46.53282" lon="0.32255">
        <ele>92.2</ele>
        <time>2021-09-12T09:01:25Z</time>
      </trkpt>
      <trkpt lat="46.5328" lon="0.32253">
        <ele>92.2</ele>
        <time>2021-09-12T09:01:27Z</time>
      </trkpt>
      <trkpt lat="46.53269" lon="0.32238">
        <ele>92.4</ele>
        <time>2021-09-12T09:01:35Z</time>
      </trkpt>
      <trkpt lat="46.5326" lon="0.32232">
        <ele>93</ele>
        <time>2021-09-12T09:01:40Z</time>
      </trkpt>
      <trkpt lat="46.53258" lon="0.32229">
        <ele>93.4</ele>
        <time>2021-09-12T09:01:42Z</time>
      </trkpt>
      <trkpt lat="46.53245" lon="0.32216">
        <ele>93.8</ele>
        <time>2021-09-12T09:01:49Z</time>
      </trkpt>
      <trkpt lat="46.53237" lon="0.32211">
        <ele>94</ele>
        <time>2021-09-12T09:01:54Z</time>
      </trkpt>
      <trkpt lat="46.5323" lon="0.32206">
        <ele>94.6</ele>
        <time>2021-09-12T09:01:58Z</time>
      </trkpt>
      <trkpt lat="46.53217" lon="0.32195">
        <ele>94.8</ele>
        <time>2021-09-12T09:02:04Z</time>
      </trkpt>
      <trkpt lat="46.53215" lon="0.32193">
        <ele>95.2</ele>
        <time>2021-09-12T09:02:05Z</time>
      </trkpt>
      <trkpt lat="46.53203" lon="0.32187">
        <ele>96.2</ele>
        <time>2021-09-12T09:02:10Z</time>
      </trkpt>
      <trkpt lat="46.53202" lon="0.32186">
        <ele>96.8</ele>
        <time>2021-09-12T09:02:11Z</time>
      </trkpt>
      <trkpt lat="46.532" lon="0.32186">
        <ele>97.2</ele>
        <time>2021-09-12T09:02:13Z</time>
      </trkpt>
      <trkpt lat="46.53195" lon="0.32186">
        <ele>98.2</ele>
        <time>2021-09-12T09:02:17Z</time>
      </trkpt>
      <trkpt lat="46.53191" lon="0.32184">
        <ele>99.2</ele>
        <time>2021-09-12T09:02:20Z</time>
      </trkpt>
      <trkpt lat="46.53189" lon="0.32184">
        <ele>99.4</ele>
        <time>2021-09-12T09:02:21Z</time>
      </trkpt>
      <trkpt lat="46.53176" lon="0.32181">
        <ele>100.2</ele>
        <time>2021-09-12T09:02:29Z</time>
      </trkpt>
      <trkpt lat="46.53174" lon="0.32181">
        <ele>100.8</ele>
        <time>2021-09-12T09:02:30Z</time>
      </trkpt>
      <trkpt lat="46.53166" lon="0.32178">
        <ele>101.8</ele>
        <time>2021-09-12T09:02:35Z</time>
      </trkpt>
      <trkpt lat="46.53159" lon="0.32176">
        <ele>103</ele>
        <time>2021-09-12T09:02:39Z</time>
      </trkpt>
      <trkpt lat="46.53157" lon="0.32176">
        <ele>103.2</ele>
        <time>2021-09-12T09:02:41Z</time>
      </trkpt>
      <trkpt lat="46.53141" lon="0.32173">
        <ele>104</ele>
        <time>2021-09-12T09:02:50Z</time>
      </trkpt>
      <trkpt lat="46.53129" lon="0.32171">
        <ele>104</ele>
        <time>2021-09-12T09:02:56Z</time>
      </trkpt>
      <trkpt lat="46.53119" lon="0.32171">
        <ele>104.6</ele>
        <time>2021-09-12T09:03:02Z</time>
      </trkpt>
      <trkpt lat="46.53112" lon="0.32168">
        <ele>105</ele>
        <time>2021-09-12T09:03:06Z</time>
      </trkpt>
      <trkpt lat="46.53109" lon="0.32167">
        <ele>105.2</ele>
        <time>2021-09-12T09:03:08Z</time>
      </trkpt>
      <trkpt lat="46.53093" lon="0.32159">
        <ele>106.2</ele>
        <time>2021-09-12T09:03:19Z</time>
      </trkpt>
      <trkpt lat="46.53092" lon="0.32158">
        <ele>106.2</ele>
        <time>2021-09-12T09:03:20Z</time>
      </trkpt>
      <trkpt lat="46.53082" lon="0.32151">
        <ele>106.2</ele>
        <time>2021-09-12T09:03:26Z</time>
      </trkpt>
      <trkpt lat="46.53077" lon="0.32146">
        <ele>106.6</ele>
        <time>2021-09-12T09:03:29Z</time>
      </trkpt>
      <trkpt lat="46.53073" lon="0.3214">
        <ele>107.2</ele>
        <time>2021-09-12T09:03:32Z</time>
      </trkpt>
      <trkpt lat="46.5307" lon="0.32135">
        <ele>107.2</ele>
        <time>2021-09-12T09:03:34Z</time>
      </trkpt>
      <trkpt lat="46.53065" lon="0.32127">
        <ele>107</ele>
        <time>2021-09-12T09:03:37Z</time>
      </trkpt>
      <trkpt lat="46.53051" lon="0.32112">
        <ele>108</ele>
        <time>2021-09-12T09:03:44Z</time>
      </trkpt>
      <trkpt lat="46.53047" lon="0.32107">
        <ele>108.4</ele>
        <time>2021-09-12T09:03:46Z</time>
      </trkpt>
      <trkpt lat="46.53045" lon="0.32105">
        <ele>109</ele>
        <time>2021-09-12T09:03:48Z</time>
      </trkpt>
      <trkpt lat="46.53042" lon="0.32103">
        <ele>109.4</ele>
        <time>2021-09-12T09:03:50Z</time>
      </trkpt>
      <trkpt lat="46.53039" lon="0.32097">
        <ele>109.4</ele>
        <time>2021-09-12T09:03:52Z</time>
      </trkpt>
      <trkpt lat="46.5303" lon="0.32085">
        <ele>110</ele>
        <time>2021-09-12T09:03:58Z</time>
      </trkpt>
      <trkpt lat="46.53017" lon="0.32071">
        <ele>110.6</ele>
        <time>2021-09-12T09:04:04Z</time>
      </trkpt>
      <trkpt lat="46.53016" lon="0.32069">
        <ele>110.6</ele>
        <time>2021-09-12T09:04:05Z</time>
      </trkpt>
      <trkpt lat="46.53015" lon="0.32064">
        <ele>110.8</ele>
        <time>2021-09-12T09:04:08Z</time>
      </trkpt>
      <trkpt lat="46.53016" lon="0.32063">
        <ele>110.8</ele>
        <time>2021-09-12T09:04:09Z</time>
      </trkpt>
      <trkpt lat="46.53016" lon="0.3206">
        <ele>110.2</ele>
        <time>2021-09-12T09:04:10Z</time>
      </trkpt>
      <trkpt lat="46.53018" lon="0.32057">
        <ele>108.8</ele>
        <time>2021-09-12T09:04:12Z</time>
      </trkpt>
      <trkpt lat="46.53019" lon="0.32053">
        <ele>107.4</ele>
        <time>2021-09-12T09:04:14Z</time>
      </trkpt>
      <trkpt lat="46.5302" lon="0.32049">
        <ele>105.8</ele>
        <time>2021-09-12T09:04:16Z</time>
      </trkpt>
      <trkpt lat="46.53021" lon="0.32048">
        <ele>104.6</ele>
        <time>2021-09-12T09:04:17Z</time>
      </trkpt>
      <trkpt lat="46.53021" lon="0.32046">
        <ele>103.4</ele>
        <time>2021-09-12T09:04:18Z</time>
      </trkpt>
      <trkpt lat="46.53022" lon="0.32042">
        <ele>101.8</ele>
        <time>2021-09-12T09:04:20Z</time>
      </trkpt>
      <trkpt lat="46.53023" lon="0.3204">
        <ele>100.6</ele>
        <time>2021-09-12T09:04:21Z</time>
      </trkpt>
      <trkpt lat="46.53025" lon="0.3203">
        <ele>99.2</ele>
        <time>2021-09-12T09:04:24Z</time>
      </trkpt>
      <trkpt lat="46.53028" lon="0.32024">
        <ele>96.2</ele>
        <time>2021-09-12T09:04:26Z</time>
      </trkpt>
      <trkpt lat="46.5303" lon="0.32021">
        <ele>94.6</ele>
        <time>2021-09-12T09:04:27Z</time>
      </trkpt>
      <trkpt lat="46.5303" lon="0.32018">
        <ele>93.2</ele>
        <time>2021-09-12T09:04:28Z</time>
      </trkpt>
      <trkpt lat="46.53031" lon="0.32014">
        <ele>92</ele>
        <time>2021-09-12T09:04:30Z</time>
      </trkpt>
      <trkpt lat="46.53032" lon="0.32012">
        <ele>91.8</ele>
        <time>2021-09-12T09:04:31Z</time>
      </trkpt>
      <trkpt lat="46.53032" lon="0.3201">
        <ele>91.6</ele>
        <time>2021-09-12T09:04:32Z</time>
      </trkpt>
      <trkpt lat="46.53032" lon="0.32002">
        <ele>92</ele>
        <time>2021-09-12T09:04:36Z</time>
      </trkpt>
      <trkpt lat="46.53031" lon="0.31999">
        <ele>92.2</ele>
        <time>2021-09-12T09:04:37Z</time>
      </trkpt>
      <trkpt lat="46.53029" lon="0.31979">
        <ele>92.4</ele>
        <time>2021-09-12T09:04:44Z</time>
      </trkpt>
      <trkpt lat="46.53032" lon="0.31963">
        <ele>91.2</ele>
        <time>2021-09-12T09:04:50Z</time>
      </trkpt>
      <trkpt lat="46.53033" lon="0.31959">
        <ele>90.8</ele>
        <time>2021-09-12T09:04:51Z</time>
      </trkpt>
      <trkpt lat="46.53034" lon="0.31943">
        <ele>90</ele>
        <time>2021-09-12T09:04:55Z</time>
      </trkpt>
      <trkpt lat="46.53036" lon="0.31927">
        <ele>90.2</ele>
        <time>2021-09-12T09:05:00Z</time>
      </trkpt>
      <trkpt lat="46.53036" lon="0.31911">
        <ele>91</ele>
        <time>2021-09-12T09:05:06Z</time>
      </trkpt>
      <trkpt lat="46.53037" lon="0.31909">
        <ele>91.2</ele>
        <time>2021-09-12T09:05:07Z</time>
      </trkpt>
      <trkpt lat="46.53039" lon="0.31903">
        <ele>90.8</ele>
        <time>2021-09-12T09:05:10Z</time>
      </trkpt>
      <trkpt lat="46.5304" lon="0.31898">
        <ele>89.8</ele>
        <time>2021-09-12T09:05:13Z</time>
      </trkpt>
      <trkpt lat="46.53041" lon="0.31896">
        <ele>89.4</ele>
        <time>2021-09-12T09:05:14Z</time>
      </trkpt>
      <trkpt lat="46.53041" lon="0.31894">
        <ele>89.4</ele>
        <time>2021-09-12T09:05:15Z</time>
      </trkpt>
      <trkpt lat="46.53043" lon="0.31889">
        <ele>87.8</ele>
        <time>2021-09-12T09:05:17Z</time>
      </trkpt>
      <trkpt lat="46.53045" lon="0.31887">
        <ele>87</ele>
        <time>2021-09-12T09:05:19Z</time>
      </trkpt>
      <trkpt lat="46.53048" lon="0.31884">
        <ele>86.2</ele>
        <time>2021-09-12T09:05:20Z</time>
      </trkpt>
      <trkpt lat="46.53049" lon="0.31884">
        <ele>85.8</ele>
        <time>2021-09-12T09:05:21Z</time>
      </trkpt>
      <trkpt lat="46.5305" lon="0.31883">
        <ele>85.2</ele>
        <time>2021-09-12T09:05:23Z</time>
      </trkpt>
      <trkpt lat="46.53051" lon="0.31882">
        <ele>85</ele>
        <time>2021-09-12T09:05:24Z</time>
      </trkpt>
      <trkpt lat="46.53052" lon="0.31881">
        <ele>84.8</ele>
        <time>2021-09-12T09:05:25Z</time>
      </trkpt>
      <trkpt lat="46.53053" lon="0.31878">
        <ele>84.6</ele>
        <time>2021-09-12T09:05:27Z</time>
      </trkpt>
      <trkpt lat="46.53053" lon="0.31876">
        <ele>84.6</ele>
        <time>2021-09-12T09:05:29Z</time>
      </trkpt>
      <trkpt lat="46.53052" lon="0.3187">
        <ele>85</ele>
        <time>2021-09-12T09:05:32Z</time>
      </trkpt>
      <trkpt lat="46.5305" lon="0.31864">
        <ele>85.6</ele>
        <time>2021-09-12T09:05:36Z</time>
      </trkpt>
      <trkpt lat="46.53047" lon="0.3186">
        <ele>86.4</ele>
        <time>2021-09-12T09:05:39Z</time>
      </trkpt>
      <trkpt lat="46.53046" lon="0.31854">
        <ele>87</ele>
        <time>2021-09-12T09:05:42Z</time>
      </trkpt>
      <trkpt lat="46.53047" lon="0.31853">
        <ele>87.4</ele>
        <time>2021-09-12T09:05:44Z</time>
      </trkpt>
      <trkpt lat="46.53045" lon="0.31848">
        <ele>87.4</ele>
        <time>2021-09-12T09:05:51Z</time>
      </trkpt>
      <trkpt lat="46.53049" lon="0.31843">
        <ele>87.4</ele>
        <time>2021-09-12T09:06:02Z</time>
      </trkpt>
      <trkpt lat="46.53049" lon="0.31838">
        <ele>87.4</ele>
        <time>2021-09-12T09:06:07Z</time>
      </trkpt>
      <trkpt lat="46.53049" lon="0.31837">
        <ele>87</ele>
        <time>2021-09-12T09:06:13Z</time>
      </trkpt>
      <trkpt lat="46.53049" lon="0.31831">
        <ele>88</ele>
        <time>2021-09-12T09:06:22Z</time>
      </trkpt>
      <trkpt lat="46.53049" lon="0.31828">
        <ele>88.2</ele>
        <time>2021-09-12T09:06:24Z</time>
      </trkpt>
      <trkpt lat="46.53049" lon="0.31817">
        <ele>88.8</ele>
        <time>2021-09-12T09:06:28Z</time>
      </trkpt>
      <trkpt lat="46.5305" lon="0.31811">
        <ele>89.2</ele>
        <time>2021-09-12T09:06:30Z</time>
      </trkpt>
      <trkpt lat="46.5305" lon="0.31803">
        <ele>89.6</ele>
        <time>2021-09-12T09:06:34Z</time>
      </trkpt>
      <trkpt lat="46.53049" lon="0.31802">
        <ele>89.8</ele>
        <time>2021-09-12T09:06:35Z</time>
      </trkpt>
      <trkpt lat="46.53049" lon="0.31798">
        <ele>90.4</ele>
        <time>2021-09-12T09:06:37Z</time>
      </trkpt>
      <trkpt lat="46.53048" lon="0.31793">
        <ele>90.8</ele>
        <time>2021-09-12T09:06:39Z</time>
      </trkpt>
      <trkpt lat="46.53047" lon="0.31788">
        <ele>91</ele>
        <time>2021-09-12T09:06:41Z</time>
      </trkpt>
      <trkpt lat="46.53043" lon="0.31774">
        <ele>92.2</ele>
        <time>2021-09-12T09:06:46Z</time>
      </trkpt>
      <trkpt lat="46.5304" lon="0.31765">
        <ele>93.2</ele>
        <time>2021-09-12T09:06:50Z</time>
      </trkpt>
      <trkpt lat="46.53036" lon="0.31753">
        <ele>94.4</ele>
        <time>2021-09-12T09:06:55Z</time>
      </trkpt>
      <trkpt lat="46.53033" lon="0.31742">
        <ele>95</ele>
        <time>2021-09-12T09:06:59Z</time>
      </trkpt>
      <trkpt lat="46.53032" lon="0.31727">
        <ele>95.4</ele>
        <time>2021-09-12T09:07:05Z</time>
      </trkpt>
      <trkpt lat="46.5303" lon="0.31718">
        <ele>96.8</ele>
        <time>2021-09-12T09:07:09Z</time>
      </trkpt>
      <trkpt lat="46.5303" lon="0.31715">
        <ele>97.2</ele>
        <time>2021-09-12T09:07:11Z</time>
      </trkpt>
      <trkpt lat="46.53029" lon="0.31712">
        <ele>97.8</ele>
        <time>2021-09-12T09:07:13Z</time>
      </trkpt>
      <trkpt lat="46.53029" lon="0.3171">
        <ele>98</ele>
        <time>2021-09-12T09:07:14Z</time>
      </trkpt>
      <trkpt lat="46.53028" lon="0.31704">
        <ele>98.8</ele>
        <time>2021-09-12T09:07:17Z</time>
      </trkpt>
      <trkpt lat="46.53027" lon="0.31701">
        <ele>99.4</ele>
        <time>2021-09-12T09:07:19Z</time>
      </trkpt>
      <trkpt lat="46.53026" lon="0.31698">
        <ele>99.8</ele>
        <time>2021-09-12T09:07:22Z</time>
      </trkpt>
      <trkpt lat="46.53025" lon="0.31696">
        <ele>100</ele>
        <time>2021-09-12T09:07:23Z</time>
      </trkpt>
      <trkpt lat="46.53025" lon="0.3169">
        <ele>100</ele>
        <time>2021-09-12T09:07:27Z</time>
      </trkpt>
      <trkpt lat="46.53024" lon="0.31686">
        <ele>101</ele>
        <time>2021-09-12T09:07:31Z</time>
      </trkpt>
      <trkpt lat="46.53023" lon="0.31683">
        <ele>101.6</ele>
        <time>2021-09-12T09:07:34Z</time>
      </trkpt>
      <trkpt lat="46.5302" lon="0.31675">
        <ele>102.2</ele>
        <time>2021-09-12T09:07:40Z</time>
      </trkpt>
      <trkpt lat="46.53018" lon="0.3167">
        <ele>103.2</ele>
        <time>2021-09-12T09:07:45Z</time>
      </trkpt>
      <trkpt lat="46.53018" lon="0.31669">
        <ele>103.4</ele>
        <time>2021-09-12T09:07:46Z</time>
      </trkpt>
      <trkpt lat="46.53014" lon="0.31662">
        <ele>104.4</ele>
        <time>2021-09-12T09:07:53Z</time>
      </trkpt>
      <trkpt lat="46.53011" lon="0.31661">
        <ele>105.2</ele>
        <time>2021-09-12T09:07:56Z</time>
      </trkpt>
      <trkpt lat="46.5301" lon="0.31661">
        <ele>105.6</ele>
        <time>2021-09-12T09:07:58Z</time>
      </trkpt>
      <trkpt lat="46.53007" lon="0.3166">
        <ele>106.6</ele>
        <time>2021-09-12T09:08:04Z</time>
      </trkpt>
      <trkpt lat="46.53007" lon="0.3166">
        <ele>107</ele>
        <time>2021-09-12T09:08:06Z</time>
      </trkpt>
      <trkpt lat="46.53006" lon="0.31659">
        <ele>107.2</ele>
        <time>2021-09-12T09:08:07Z</time>
      </trkpt>
      <trkpt lat="46.53003" lon="0.31653">
        <ele>108</ele>
        <time>2021-09-12T09:08:18Z</time>
      </trkpt>
      <trkpt lat="46.53002" lon="0.31652">
        <ele>108.2</ele>
        <time>2021-09-12T09:08:19Z</time>
      </trkpt>
      <trkpt lat="46.53" lon="0.3164">
        <ele>109.2</ele>
        <time>2021-09-12T09:08:27Z</time>
      </trkpt>
      <trkpt lat="46.53" lon="0.31633">
        <ele>110.2</ele>
        <time>2021-09-12T09:08:31Z</time>
      </trkpt>
      <trkpt lat="46.52999" lon="0.31632">
        <ele>110.4</ele>
        <time>2021-09-12T09:08:32Z</time>
      </trkpt>
      <trkpt lat="46.52997" lon="0.3162">
        <ele>110.8</ele>
        <time>2021-09-12T09:08:37Z</time>
      </trkpt>
      <trkpt lat="46.52995" lon="0.31603">
        <ele>111.2</ele>
        <time>2021-09-12T09:08:44Z</time>
      </trkpt>
      <trkpt lat="46.52995" lon="0.31596">
        <ele>111.4</ele>
        <time>2021-09-12T09:08:47Z</time>
      </trkpt>
      <trkpt lat="46.5299" lon="0.31569">
        <ele>112.2</ele>
        <time>2021-09-12T09:08:56Z</time>
      </trkpt>
      <trkpt lat="46.52984" lon="0.3155">
        <ele>111.2</ele>
        <time>2021-09-12T09:09:01Z</time>
      </trkpt>
      <trkpt lat="46.52983" lon="0.3154">
        <ele>111.2</ele>
        <time>2021-09-12T09:09:05Z</time>
      </trkpt>
      <trkpt lat="46.52982" lon="0.31533">
        <ele>111</ele>
        <time>2021-09-12T09:09:07Z</time>
      </trkpt>
      <trkpt lat="46.52976" lon="0.31518">
        <ele>111.6</ele>
        <time>2021-09-12T09:09:12Z</time>
      </trkpt>
      <trkpt lat="46.52974" lon="0.31515">
        <ele>111.6</ele>
        <time>2021-09-12T09:09:13Z</time>
      </trkpt>
      <trkpt lat="46.52972" lon="0.31508">
        <ele>111.8</ele>
        <time>2021-09-12T09:09:15Z</time>
      </trkpt>
      <trkpt lat="46.52971" lon="0.315">
        <ele>112</ele>
        <time>2021-09-12T09:09:17Z</time>
      </trkpt>
      <trkpt lat="46.5297" lon="0.31497">
        <ele>112.2</ele>
        <time>2021-09-12T09:09:18Z</time>
      </trkpt>
      <trkpt lat="46.52968" lon="0.31494">
        <ele>112.2</ele>
        <time>2021-09-12T09:09:19Z</time>
      </trkpt>
      <trkpt lat="46.52965" lon="0.31491">
        <ele>112.4</ele>
        <time>2021-09-12T09:09:20Z</time>
      </trkpt>
      <trkpt lat="46.52961" lon="0.31485">
        <ele>112.8</ele>
        <time>2021-09-12T09:09:23Z</time>
      </trkpt>
      <trkpt lat="46.52959" lon="0.31483">
        <ele>113.4</ele>
        <time>2021-09-12T09:09:24Z</time>
      </trkpt>
      <trkpt lat="46.52956" lon="0.31474">
        <ele>114.6</ele>
        <time>2021-09-12T09:09:27Z</time>
      </trkpt>
      <trkpt lat="46.52955" lon="0.31472">
        <ele>114.6</ele>
        <time>2021-09-12T09:09:28Z</time>
      </trkpt>
      <trkpt lat="46.52953" lon="0.31469">
        <ele>115</ele>
        <time>2021-09-12T09:09:29Z</time>
      </trkpt>
      <trkpt lat="46.5295" lon="0.31465">
        <ele>115.8</ele>
        <time>2021-09-12T09:09:31Z</time>
      </trkpt>
      <trkpt lat="46.52938" lon="0.31447">
        <ele>117</ele>
        <time>2021-09-12T09:09:38Z</time>
      </trkpt>
      <trkpt lat="46.52934" lon="0.31442">
        <ele>117.4</ele>
        <time>2021-09-12T09:09:40Z</time>
      </trkpt>
      <trkpt lat="46.52933" lon="0.3144">
        <ele>117.4</ele>
        <time>2021-09-12T09:09:41Z</time>
      </trkpt>
      <trkpt lat="46.52928" lon="0.31426">
        <ele>117.8</ele>
        <time>2021-09-12T09:09:46Z</time>
      </trkpt>
      <trkpt lat="46.52921" lon="0.31405">
        <ele>118</ele>
        <time>2021-09-12T09:09:52Z</time>
      </trkpt>
      <trkpt lat="46.52917" lon="0.31398">
        <ele>118</ele>
        <time>2021-09-12T09:09:54Z</time>
      </trkpt>
      <trkpt lat="46.52906" lon="0.31381">
        <ele>118.2</ele>
        <time>2021-09-12T09:09:59Z</time>
      </trkpt>
      <trkpt lat="46.52895" lon="0.31361">
        <ele>118.4</ele>
        <time>2021-09-12T09:10:04Z</time>
      </trkpt>
      <trkpt lat="46.52886" lon="0.31343">
        <ele>118.4</ele>
        <time>2021-09-12T09:10:09Z</time>
      </trkpt>
      <trkpt lat="46.52881" lon="0.31328">
        <ele>117.8</ele>
        <time>2021-09-12T09:10:14Z</time>
      </trkpt>
      <trkpt lat="46.52879" lon="0.31322">
        <ele>117.6</ele>
        <time>2021-09-12T09:10:27Z</time>
      </trkpt>
      <trkpt lat="46.52878" lon="0.31319">
        <ele>117.4</ele>
        <time>2021-09-12T09:10:44Z</time>
      </trkpt>
      <trkpt lat="46.52876" lon="0.3131">
        <ele>117.2</ele>
        <time>2021-09-12T09:10:52Z</time>
      </trkpt>
      <trkpt lat="46.52875" lon="0.31306">
        <ele>116.8</ele>
        <time>2021-09-12T09:10:54Z</time>
      </trkpt>
      <trkpt lat="46.52874" lon="0.31297">
        <ele>115.6</ele>
        <time>2021-09-12T09:10:59Z</time>
      </trkpt>
      <trkpt lat="46.52874" lon="0.31291">
        <ele>113.8</ele>
        <time>2021-09-12T09:11:02Z</time>
      </trkpt>
      <trkpt lat="46.52874" lon="0.31289">
        <ele>112.6</ele>
        <time>2021-09-12T09:11:03Z</time>
      </trkpt>
      <trkpt lat="46.52874" lon="0.31283">
        <ele>110.6</ele>
        <time>2021-09-12T09:11:05Z</time>
      </trkpt>
      <trkpt lat="46.52875" lon="0.3128">
        <ele>109.2</ele>
        <time>2021-09-12T09:11:06Z</time>
      </trkpt>
      <trkpt lat="46.52875" lon="0.31277">
        <ele>107.6</ele>
        <time>2021-09-12T09:11:07Z</time>
      </trkpt>
      <trkpt lat="46.52876" lon="0.31275">
        <ele>106.4</ele>
        <time>2021-09-12T09:11:08Z</time>
      </trkpt>
      <trkpt lat="46.52877" lon="0.31273">
        <ele>105</ele>
        <time>2021-09-12T09:11:09Z</time>
      </trkpt>
      <trkpt lat="46.52877" lon="0.3127">
        <ele>103.8</ele>
        <time>2021-09-12T09:11:10Z</time>
      </trkpt>
      <trkpt lat="46.52878" lon="0.31268">
        <ele>102.2</ele>
        <time>2021-09-12T09:11:11Z</time>
      </trkpt>
      <trkpt lat="46.52879" lon="0.31266">
        <ele>100.6</ele>
        <time>2021-09-12T09:11:12Z</time>
      </trkpt>
      <trkpt lat="46.52879" lon="0.31264">
        <ele>99.2</ele>
        <time>2021-09-12T09:11:13Z</time>
      </trkpt>
      <trkpt lat="46.5288" lon="0.31262">
        <ele>97.8</ele>
        <time>2021-09-12T09:11:14Z</time>
      </trkpt>
      <trkpt lat="46.52881" lon="0.3126">
        <ele>96.4</ele>
        <time>2021-09-12T09:11:15Z</time>
      </trkpt>
      <trkpt lat="46.52881" lon="0.31258">
        <ele>95.4</ele>
        <time>2021-09-12T09:11:16Z</time>
      </trkpt>
      <trkpt lat="46.52881" lon="0.31254">
        <ele>93.8</ele>
        <time>2021-09-12T09:11:18Z</time>
      </trkpt>
      <trkpt lat="46.52882" lon="0.31249">
        <ele>92.4</ele>
        <time>2021-09-12T09:11:20Z</time>
      </trkpt>
      <trkpt lat="46.52883" lon="0.31243">
        <ele>90.8</ele>
        <time>2021-09-12T09:11:22Z</time>
      </trkpt>
      <trkpt lat="46.52883" lon="0.31234">
        <ele>89.6</ele>
        <time>2021-09-12T09:11:24Z</time>
      </trkpt>
      <trkpt lat="46.52886" lon="0.31232">
        <ele>89</ele>
        <time>2021-09-12T09:11:25Z</time>
      </trkpt>
      <trkpt lat="46.52886" lon="0.31231">
        <ele>87.6</ele>
        <time>2021-09-12T09:11:26Z</time>
      </trkpt>
      <trkpt lat="46.52889" lon="0.31229">
        <ele>86.6</ele>
        <time>2021-09-12T09:11:28Z</time>
      </trkpt>
      <trkpt lat="46.52896" lon="0.31234">
        <ele>85.8</ele>
        <time>2021-09-12T09:11:32Z</time>
      </trkpt>
      <trkpt lat="46.52902" lon="0.31238">
        <ele>85.6</ele>
        <time>2021-09-12T09:11:35Z</time>
      </trkpt>
      <trkpt lat="46.52907" lon="0.31241">
        <ele>85.6</ele>
        <time>2021-09-12T09:11:38Z</time>
      </trkpt>
      <trkpt lat="46.52915" lon="0.31249">
        <ele>84.4</ele>
        <time>2021-09-12T09:11:42Z</time>
      </trkpt>
      <trkpt lat="46.52918" lon="0.31252">
        <ele>84.2</ele>
        <time>2021-09-12T09:11:44Z</time>
      </trkpt>
      <trkpt lat="46.52927" lon="0.31254">
        <ele>83.8</ele>
        <time>2021-09-12T09:11:50Z</time>
      </trkpt>
      <trkpt lat="46.52933" lon="0.31252">
        <ele>83.8</ele>
        <time>2021-09-12T09:11:52Z</time>
      </trkpt>
      <trkpt lat="46.5294" lon="0.31246">
        <ele>83.8</ele>
        <time>2021-09-12T09:11:55Z</time>
      </trkpt>
      <trkpt lat="46.52943" lon="0.31245">
        <ele>84</ele>
        <time>2021-09-12T09:11:56Z</time>
      </trkpt>
      <trkpt lat="46.52962" lon="0.31241">
        <ele>84</ele>
        <time>2021-09-12T09:12:01Z</time>
      </trkpt>
      <trkpt lat="46.52974" lon="0.31231">
        <ele>84.4</ele>
        <time>2021-09-12T09:12:05Z</time>
      </trkpt>
      <trkpt lat="46.52984" lon="0.31223">
        <ele>85.6</ele>
        <time>2021-09-12T09:12:10Z</time>
      </trkpt>
      <trkpt lat="46.52986" lon="0.3122">
        <ele>85.8</ele>
        <time>2021-09-12T09:12:11Z</time>
      </trkpt>
      <trkpt lat="46.52993" lon="0.31208">
        <ele>86.8</ele>
        <time>2021-09-12T09:12:16Z</time>
      </trkpt>
      <trkpt lat="46.52995" lon="0.31204">
        <ele>87</ele>
        <time>2021-09-12T09:12:17Z</time>
      </trkpt>
      <trkpt lat="46.53" lon="0.3119">
        <ele>87.8</ele>
        <time>2021-09-12T09:12:22Z</time>
      </trkpt>
      <trkpt lat="46.53002" lon="0.31186">
        <ele>88</ele>
        <time>2021-09-12T09:12:24Z</time>
      </trkpt>
      <trkpt lat="46.53009" lon="0.31173">
        <ele>88.8</ele>
        <time>2021-09-12T09:12:29Z</time>
      </trkpt>
      <trkpt lat="46.5301" lon="0.3117">
        <ele>89</ele>
        <time>2021-09-12T09:12:30Z</time>
      </trkpt>
      <trkpt lat="46.53019" lon="0.31154">
        <ele>89.8</ele>
        <time>2021-09-12T09:12:36Z</time>
      </trkpt>
      <trkpt lat="46.53021" lon="0.31152">
        <ele>90</ele>
        <time>2021-09-12T09:12:37Z</time>
      </trkpt>
      <trkpt lat="46.5303" lon="0.31138">
        <ele>90.4</ele>
        <time>2021-09-12T09:12:42Z</time>
      </trkpt>
      <trkpt lat="46.53033" lon="0.31133">
        <ele>91.2</ele>
        <time>2021-09-12T09:12:44Z</time>
      </trkpt>
      <trkpt lat="46.53045" lon="0.31115">
        <ele>92.2</ele>
        <time>2021-09-12T09:12:52Z</time>
      </trkpt>
      <trkpt lat="46.53049" lon="0.31113">
        <ele>92.8</ele>
        <time>2021-09-12T09:12:54Z</time>
      </trkpt>
      <trkpt lat="46.53055" lon="0.31106">
        <ele>93.2</ele>
        <time>2021-09-12T09:12:58Z</time>
      </trkpt>
      <trkpt lat="46.53062" lon="0.31097">
        <ele>94.4</ele>
        <time>2021-09-12T09:13:02Z</time>
      </trkpt>
      <trkpt lat="46.53066" lon="0.31094">
        <ele>94.6</ele>
        <time>2021-09-12T09:13:04Z</time>
      </trkpt>
      <trkpt lat="46.5307" lon="0.3109">
        <ele>94.8</ele>
        <time>2021-09-12T09:13:06Z</time>
      </trkpt>
      <trkpt lat="46.53078" lon="0.31081">
        <ele>95.4</ele>
        <time>2021-09-12T09:13:11Z</time>
      </trkpt>
      <trkpt lat="46.53082" lon="0.31079">
        <ele>95.6</ele>
        <time>2021-09-12T09:13:13Z</time>
      </trkpt>
      <trkpt lat="46.5309" lon="0.31069">
        <ele>96.6</ele>
        <time>2021-09-12T09:13:19Z</time>
      </trkpt>
      <trkpt lat="46.53092" lon="0.31066">
        <ele>96.6</ele>
        <time>2021-09-12T09:13:20Z</time>
      </trkpt>
      <trkpt lat="46.53095" lon="0.31061">
        <ele>96.8</ele>
        <time>2021-09-12T09:13:22Z</time>
      </trkpt>
      <trkpt lat="46.53101" lon="0.31055">
        <ele>97.2</ele>
        <time>2021-09-12T09:13:25Z</time>
      </trkpt>
      <trkpt lat="46.53108" lon="0.3105">
        <ele>97.6</ele>
        <time>2021-09-12T09:13:28Z</time>
      </trkpt>
      <trkpt lat="46.53115" lon="0.31041">
        <ele>98.4</ele>
        <time>2021-09-12T09:13:33Z</time>
      </trkpt>
      <trkpt lat="46.5312" lon="0.31035">
        <ele>98.6</ele>
        <time>2021-09-12T09:13:36Z</time>
      </trkpt>
      <trkpt lat="46.53128" lon="0.31025">
        <ele>99.4</ele>
        <time>2021-09-12T09:13:41Z</time>
      </trkpt>
      <trkpt lat="46.53138" lon="0.31014">
        <ele>99.8</ele>
        <time>2021-09-12T09:13:46Z</time>
      </trkpt>
      <trkpt lat="46.53141" lon="0.31009">
        <ele>100.2</ele>
        <time>2021-09-12T09:13:49Z</time>
      </trkpt>
      <trkpt lat="46.53143" lon="0.31005">
        <ele>100.6</ele>
        <time>2021-09-12T09:13:51Z</time>
      </trkpt>
      <trkpt lat="46.53144" lon="0.30997">
        <ele>100.8</ele>
        <time>2021-09-12T09:13:54Z</time>
      </trkpt>
      <trkpt lat="46.53146" lon="0.30994">
        <ele>101.4</ele>
        <time>2021-09-12T09:13:56Z</time>
      </trkpt>
      <trkpt lat="46.53154" lon="0.30987">
        <ele>101.6</ele>
        <time>2021-09-12T09:14:00Z</time>
      </trkpt>
      <trkpt lat="46.53155" lon="0.30985">
        <ele>101.8</ele>
        <time>2021-09-12T09:14:01Z</time>
      </trkpt>
      <trkpt lat="46.53156" lon="0.30984">
        <ele>102</ele>
        <time>2021-09-12T09:14:02Z</time>
      </trkpt>
      <trkpt lat="46.53167" lon="0.30973">
        <ele>103</ele>
        <time>2021-09-12T09:14:08Z</time>
      </trkpt>
      <trkpt lat="46.5317" lon="0.3097">
        <ele>103.2</ele>
        <time>2021-09-12T09:14:09Z</time>
      </trkpt>
      <trkpt lat="46.53177" lon="0.30964">
        <ele>104.4</ele>
        <time>2021-09-12T09:14:13Z</time>
      </trkpt>
      <trkpt lat="46.53179" lon="0.30961">
        <ele>104.6</ele>
        <time>2021-09-12T09:14:14Z</time>
      </trkpt>
      <trkpt lat="46.53187" lon="0.30947">
        <ele>105.4</ele>
        <time>2021-09-12T09:14:20Z</time>
      </trkpt>
      <trkpt lat="46.53188" lon="0.30946">
        <ele>105.6</ele>
        <time>2021-09-12T09:14:21Z</time>
      </trkpt>
      <trkpt lat="46.53203" lon="0.30933">
        <ele>106</ele>
        <time>2021-09-12T09:14:29Z</time>
      </trkpt>
      <trkpt lat="46.53209" lon="0.30926">
        <ele>106.6</ele>
        <time>2021-09-12T09:14:33Z</time>
      </trkpt>
      <trkpt lat="46.53212" lon="0.30921">
        <ele>107</ele>
        <time>2021-09-12T09:14:35Z</time>
      </trkpt>
      <trkpt lat="46.53226" lon="0.30906">
        <ele>107.4</ele>
        <time>2021-09-12T09:14:42Z</time>
      </trkpt>
      <trkpt lat="46.53228" lon="0.30903">
        <ele>107.4</ele>
        <time>2021-09-12T09:14:43Z</time>
      </trkpt>
      <trkpt lat="46.53244" lon="0.30884">
        <ele>107.6</ele>
        <time>2021-09-12T09:14:51Z</time>
      </trkpt>
      <trkpt lat="46.53248" lon="0.30882">
        <ele>107.6</ele>
        <time>2021-09-12T09:14:52Z</time>
      </trkpt>
      <trkpt lat="46.53265" lon="0.30871">
        <ele>108.8</ele>
        <time>2021-09-12T09:14:58Z</time>
      </trkpt>
      <trkpt lat="46.53268" lon="0.3087">
        <ele>108.8</ele>
        <time>2021-09-12T09:14:59Z</time>
      </trkpt>
      <trkpt lat="46.53286" lon="0.3086">
        <ele>109.2</ele>
        <time>2021-09-12T09:15:06Z</time>
      </trkpt>
      <trkpt lat="46.53298" lon="0.30854">
        <ele>110</ele>
        <time>2021-09-12T09:15:11Z</time>
      </trkpt>
      <trkpt lat="46.533" lon="0.30853">
        <ele>110.2</ele>
        <time>2021-09-12T09:15:12Z</time>
      </trkpt>
      <trkpt lat="46.53313" lon="0.30844">
        <ele>110.8</ele>
        <time>2021-09-12T09:15:18Z</time>
      </trkpt>
      <trkpt lat="46.53318" lon="0.30841">
        <ele>111.2</ele>
        <time>2021-09-12T09:15:20Z</time>
      </trkpt>
      <trkpt lat="46.53326" lon="0.30832">
        <ele>111.6</ele>
        <time>2021-09-12T09:15:24Z</time>
      </trkpt>
      <trkpt lat="46.53327" lon="0.30831">
        <ele>111.8</ele>
        <time>2021-09-12T09:15:25Z</time>
      </trkpt>
      <trkpt lat="46.53338" lon="0.30823">
        <ele>112.2</ele>
        <time>2021-09-12T09:15:30Z</time>
      </trkpt>
      <trkpt lat="46.53341" lon="0.3082">
        <ele>112.6</ele>
        <time>2021-09-12T09:15:32Z</time>
      </trkpt>
      <trkpt lat="46.53355" lon="0.30814">
        <ele>113.4</ele>
        <time>2021-09-12T09:15:37Z</time>
      </trkpt>
      <trkpt lat="46.53362" lon="0.30811">
        <ele>113.6</ele>
        <time>2021-09-12T09:15:39Z</time>
      </trkpt>
      <trkpt lat="46.53381" lon="0.30805">
        <ele>113.8</ele>
        <time>2021-09-12T09:15:46Z</time>
      </trkpt>
      <trkpt lat="46.53389" lon="0.30801">
        <ele>114.4</ele>
        <time>2021-09-12T09:15:49Z</time>
      </trkpt>
      <trkpt lat="46.53398" lon="0.30795">
        <ele>114.6</ele>
        <time>2021-09-12T09:15:53Z</time>
      </trkpt>
      <trkpt lat="46.53406" lon="0.30788">
        <ele>115.4</ele>
        <time>2021-09-12T09:15:57Z</time>
      </trkpt>
      <trkpt lat="46.53416" lon="0.30783">
        <ele>115.8</ele>
        <time>2021-09-12T09:16:01Z</time>
      </trkpt>
      <trkpt lat="46.53424" lon="0.30779">
        <ele>116.6</ele>
        <time>2021-09-12T09:16:06Z</time>
      </trkpt>
      <trkpt lat="46.53426" lon="0.30779">
        <ele>116.8</ele>
        <time>2021-09-12T09:16:07Z</time>
      </trkpt>
      <trkpt lat="46.5343" lon="0.30778">
        <ele>117</ele>
        <time>2021-09-12T09:16:08Z</time>
      </trkpt>
      <trkpt lat="46.53436" lon="0.30777">
        <ele>117.4</ele>
        <time>2021-09-12T09:16:10Z</time>
      </trkpt>
      <trkpt lat="46.53437" lon="0.30776">
        <ele>117.6</ele>
        <time>2021-09-12T09:16:11Z</time>
      </trkpt>
      <trkpt lat="46.53439" lon="0.30775">
        <ele>118</ele>
        <time>2021-09-12T09:16:12Z</time>
      </trkpt>
      <trkpt lat="46.53449" lon="0.3077">
        <ele>118.8</ele>
        <time>2021-09-12T09:16:17Z</time>
      </trkpt>
      <trkpt lat="46.53454" lon="0.30768">
        <ele>119.2</ele>
        <time>2021-09-12T09:16:19Z</time>
      </trkpt>
      <trkpt lat="46.53458" lon="0.30767">
        <ele>119.8</ele>
        <time>2021-09-12T09:16:21Z</time>
      </trkpt>
      <trkpt lat="46.53459" lon="0.30766">
        <ele>120</ele>
        <time>2021-09-12T09:16:22Z</time>
      </trkpt>
      <trkpt lat="46.53467" lon="0.30764">
        <ele>120.6</ele>
        <time>2021-09-12T09:16:26Z</time>
      </trkpt>
      <trkpt lat="46.53468" lon="0.30764">
        <ele>120.8</ele>
        <time>2021-09-12T09:16:27Z</time>
      </trkpt>
      <trkpt lat="46.5347" lon="0.30763">
        <ele>121</ele>
        <time>2021-09-12T09:16:28Z</time>
      </trkpt>
      <trkpt lat="46.53478" lon="0.30763">
        <ele>122</ele>
        <time>2021-09-12T09:16:33Z</time>
      </trkpt>
      <trkpt lat="46.5348" lon="0.30762">
        <ele>122.2</ele>
        <time>2021-09-12T09:16:34Z</time>
      </trkpt>
      <trkpt lat="46.53492" lon="0.3076">
        <ele>123.2</ele>
        <time>2021-09-12T09:16:41Z</time>
      </trkpt>
      <trkpt lat="46.53495" lon="0.30759">
        <ele>123.6</ele>
        <time>2021-09-12T09:16:43Z</time>
      </trkpt>
      <trkpt lat="46.535" lon="0.30759">
        <ele>124.2</ele>
        <time>2021-09-12T09:16:47Z</time>
      </trkpt>
      <trkpt lat="46.53511" lon="0.30757">
        <ele>125.2</ele>
        <time>2021-09-12T09:16:52Z</time>
      </trkpt>
      <trkpt lat="46.53516" lon="0.30757">
        <ele>125.6</ele>
        <time>2021-09-12T09:16:55Z</time>
      </trkpt>
      <trkpt lat="46.53527" lon="0.30757">
        <ele>126.2</ele>
        <time>2021-09-12T09:17:00Z</time>
      </trkpt>
      <trkpt lat="46.53533" lon="0.30756">
        <ele>127</ele>
        <time>2021-09-12T09:17:04Z</time>
      </trkpt>
      <trkpt lat="46.53538" lon="0.30757">
        <ele>127.2</ele>
        <time>2021-09-12T09:17:06Z</time>
      </trkpt>
      <trkpt lat="46.5354" lon="0.30757">
        <ele>127.4</ele>
        <time>2021-09-12T09:17:07Z</time>
      </trkpt>
      <trkpt lat="46.53547" lon="0.30758">
        <ele>128.2</ele>
        <time>2021-09-12T09:17:11Z</time>
      </trkpt>
      <trkpt lat="46.53558" lon="0.30759">
        <ele>129.2</ele>
        <time>2021-09-12T09:17:18Z</time>
      </trkpt>
      <trkpt lat="46.53559" lon="0.30759">
        <ele>129.4</ele>
        <time>2021-09-12T09:17:19Z</time>
      </trkpt>
      <trkpt lat="46.5357" lon="0.30763">
        <ele>130.2</ele>
        <time>2021-09-12T09:17:26Z</time>
      </trkpt>
      <trkpt lat="46.53581" lon="0.30767">
        <ele>131</ele>
        <time>2021-09-12T09:17:32Z</time>
      </trkpt>
      <trkpt lat="46.53587" lon="0.3077">
        <ele>131.4</ele>
        <time>2021-09-12T09:17:36Z</time>
      </trkpt>
      <trkpt lat="46.53599" lon="0.30777">
        <ele>132</ele>
        <time>2021-09-12T09:17:43Z</time>
      </trkpt>
      <trkpt lat="46.53608" lon="0.30787">
        <ele>132.4</ele>
        <time>2021-09-12T09:17:49Z</time>
      </trkpt>
      <trkpt lat="46.5362" lon="0.30804">
        <ele>133.2</ele>
        <time>2021-09-12T09:17:56Z</time>
      </trkpt>
      <trkpt lat="46.53627" lon="0.30814">
        <ele>133.4</ele>
        <time>2021-09-12T09:18:00Z</time>
      </trkpt>
      <trkpt lat="46.53632" lon="0.30824">
        <ele>133.8</ele>
        <time>2021-09-12T09:18:03Z</time>
      </trkpt>
      <trkpt lat="46.5364" lon="0.30841">
        <ele>134.2</ele>
        <time>2021-09-12T09:18:08Z</time>
      </trkpt>
      <trkpt lat="46.53644" lon="0.30852">
        <ele>134.6</ele>
        <time>2021-09-12T09:18:11Z</time>
      </trkpt>
      <trkpt lat="46.53653" lon="0.30877">
        <ele>135</ele>
        <time>2021-09-12T09:18:18Z</time>
      </trkpt>
      <trkpt lat="46.5366" lon="0.309">
        <ele>135.4</ele>
        <time>2021-09-12T09:18:23Z</time>
      </trkpt>
      <trkpt lat="46.5367" lon="0.30931">
        <ele>135.2</ele>
        <time>2021-09-12T09:18:29Z</time>
      </trkpt>
      <trkpt lat="46.53675" lon="0.30955">
        <ele>135.2</ele>
        <time>2021-09-12T09:18:33Z</time>
      </trkpt>
      <trkpt lat="46.53681" lon="0.3097">
        <ele>135</ele>
        <time>2021-09-12T09:18:36Z</time>
      </trkpt>
      <trkpt lat="46.53685" lon="0.30981">
        <ele>134.8</ele>
        <time>2021-09-12T09:18:38Z</time>
      </trkpt>
      <trkpt lat="46.53692" lon="0.30997">
        <ele>134.6</ele>
        <time>2021-09-12T09:18:41Z</time>
      </trkpt>
      <trkpt lat="46.53694" lon="0.31002">
        <ele>134.6</ele>
        <time>2021-09-12T09:18:42Z</time>
      </trkpt>
      <trkpt lat="46.53697" lon="0.31007">
        <ele>134.6</ele>
        <time>2021-09-12T09:18:43Z</time>
      </trkpt>
      <trkpt lat="46.53709" lon="0.31026">
        <ele>134.4</ele>
        <time>2021-09-12T09:18:47Z</time>
      </trkpt>
      <trkpt lat="46.53712" lon="0.31031">
        <ele>134.6</ele>
        <time>2021-09-12T09:18:48Z</time>
      </trkpt>
      <trkpt lat="46.53718" lon="0.31044">
        <ele>134.4</ele>
        <time>2021-09-12T09:18:49Z</time>
      </trkpt>
      <trkpt lat="46.53723" lon="0.31054">
        <ele>134</ele>
        <time>2021-09-12T09:18:52Z</time>
      </trkpt>
      <trkpt lat="46.53732" lon="0.31068">
        <ele>133.6</ele>
        <time>2021-09-12T09:18:55Z</time>
      </trkpt>
      <trkpt lat="46.53734" lon="0.31073">
        <ele>133.4</ele>
        <time>2021-09-12T09:18:56Z</time>
      </trkpt>
      <trkpt lat="46.53739" lon="0.31085">
        <ele>133.4</ele>
        <time>2021-09-12T09:18:58Z</time>
      </trkpt>
      <trkpt lat="46.53747" lon="0.31102">
        <ele>133.2</ele>
        <time>2021-09-12T09:19:01Z</time>
      </trkpt>
      <trkpt lat="46.53763" lon="0.31133">
        <ele>132.4</ele>
        <time>2021-09-12T09:19:06Z</time>
      </trkpt>
      <trkpt lat="46.53766" lon="0.31138">
        <ele>132.2</ele>
        <time>2021-09-12T09:19:07Z</time>
      </trkpt>
      <trkpt lat="46.53769" lon="0.31144">
        <ele>132</ele>
        <time>2021-09-12T09:19:08Z</time>
      </trkpt>
      <trkpt lat="46.53779" lon="0.31158">
        <ele>131.2</ele>
        <time>2021-09-12T09:19:11Z</time>
      </trkpt>
      <trkpt lat="46.53783" lon="0.31162">
        <ele>131</ele>
        <time>2021-09-12T09:19:12Z</time>
      </trkpt>
      <trkpt lat="46.5379" lon="0.31172">
        <ele>130.4</ele>
        <time>2021-09-12T09:19:14Z</time>
      </trkpt>
      <trkpt lat="46.53794" lon="0.31177">
        <ele>130</ele>
        <time>2021-09-12T09:19:15Z</time>
      </trkpt>
      <trkpt lat="46.53803" lon="0.31188">
        <ele>129.4</ele>
        <time>2021-09-12T09:19:17Z</time>
      </trkpt>
      <trkpt lat="46.53812" lon="0.31201">
        <ele>129</ele>
        <time>2021-09-12T09:19:19Z</time>
      </trkpt>
      <trkpt lat="46.53822" lon="0.31209">
        <ele>128.8</ele>
        <time>2021-09-12T09:19:21Z</time>
      </trkpt>
      <trkpt lat="46.53826" lon="0.31214">
        <ele>128.8</ele>
        <time>2021-09-12T09:19:22Z</time>
      </trkpt>
      <trkpt lat="46.53831" lon="0.31217">
        <ele>128.8</ele>
        <time>2021-09-12T09:19:23Z</time>
      </trkpt>
      <trkpt lat="46.53847" lon="0.31231">
        <ele>128.6</ele>
        <time>2021-09-12T09:19:27Z</time>
      </trkpt>
      <trkpt lat="46.53855" lon="0.31238">
        <ele>128.6</ele>
        <time>2021-09-12T09:19:29Z</time>
      </trkpt>
      <trkpt lat="46.53881" lon="0.31263">
        <ele>128.6</ele>
        <time>2021-09-12T09:19:35Z</time>
      </trkpt>
      <trkpt lat="46.53903" lon="0.31281">
        <ele>129.6</ele>
        <time>2021-09-12T09:19:41Z</time>
      </trkpt>
      <trkpt lat="46.53909" lon="0.31288">
        <ele>130</ele>
        <time>2021-09-12T09:19:43Z</time>
      </trkpt>
      <trkpt lat="46.53922" lon="0.31298">
        <ele>130.4</ele>
        <time>2021-09-12T09:19:47Z</time>
      </trkpt>
      <trkpt lat="46.53925" lon="0.31301">
        <ele>130.4</ele>
        <time>2021-09-12T09:19:48Z</time>
      </trkpt>
      <trkpt lat="46.53931" lon="0.31306">
        <ele>130.8</ele>
        <time>2021-09-12T09:19:50Z</time>
      </trkpt>
      <trkpt lat="46.53934" lon="0.31308">
        <ele>131</ele>
        <time>2021-09-12T09:19:51Z</time>
      </trkpt>
      <trkpt lat="46.53941" lon="0.31313">
        <ele>131.2</ele>
        <time>2021-09-12T09:19:53Z</time>
      </trkpt>
      <trkpt lat="46.53957" lon="0.31323">
        <ele>131.6</ele>
        <time>2021-09-12T09:19:58Z</time>
      </trkpt>
      <trkpt lat="46.53968" lon="0.31331">
        <ele>132.2</ele>
        <time>2021-09-12T09:20:01Z</time>
      </trkpt>
      <trkpt lat="46.53982" lon="0.31339">
        <ele>132.8</ele>
        <time>2021-09-12T09:20:05Z</time>
      </trkpt>
      <trkpt lat="46.53992" lon="0.31345">
        <ele>133.2</ele>
        <time>2021-09-12T09:20:08Z</time>
      </trkpt>
      <trkpt lat="46.54009" lon="0.31357">
        <ele>133.4</ele>
        <time>2021-09-12T09:20:12Z</time>
      </trkpt>
      <trkpt lat="46.54036" lon="0.31369">
        <ele>134.2</ele>
        <time>2021-09-12T09:20:19Z</time>
      </trkpt>
      <trkpt lat="46.54055" lon="0.31374">
        <ele>134.6</ele>
        <time>2021-09-12T09:20:25Z</time>
      </trkpt>
      <trkpt lat="46.54073" lon="0.31376">
        <ele>134.8</ele>
        <time>2021-09-12T09:20:31Z</time>
      </trkpt>
      <trkpt lat="46.54076" lon="0.31376">
        <ele>134.8</ele>
        <time>2021-09-12T09:20:32Z</time>
      </trkpt>
      <trkpt lat="46.54094" lon="0.31379">
        <ele>134.8</ele>
        <time>2021-09-12T09:20:36Z</time>
      </trkpt>
      <trkpt lat="46.54099" lon="0.3138">
        <ele>134.6</ele>
        <time>2021-09-12T09:20:37Z</time>
      </trkpt>
      <trkpt lat="46.54133" lon="0.31389">
        <ele>134.6</ele>
        <time>2021-09-12T09:20:44Z</time>
      </trkpt>
      <trkpt lat="46.54151" lon="0.31395">
        <ele>135</ele>
        <time>2021-09-12T09:20:47Z</time>
      </trkpt>
      <trkpt lat="46.54165" lon="0.314">
        <ele>135</ele>
        <time>2021-09-12T09:20:50Z</time>
      </trkpt>
      <trkpt lat="46.54174" lon="0.31403">
        <ele>135.4</ele>
        <time>2021-09-12T09:20:52Z</time>
      </trkpt>
      <trkpt lat="46.54192" lon="0.31407">
        <ele>135.4</ele>
        <time>2021-09-12T09:20:56Z</time>
      </trkpt>
      <trkpt lat="46.54196" lon="0.31407">
        <ele>135.4</ele>
        <time>2021-09-12T09:20:57Z</time>
      </trkpt>
      <trkpt lat="46.54201" lon="0.31406">
        <ele>135.4</ele>
        <time>2021-09-12T09:20:58Z</time>
      </trkpt>
      <trkpt lat="46.54222" lon="0.31406">
        <ele>135.6</ele>
        <time>2021-09-12T09:21:03Z</time>
      </trkpt>
      <trkpt lat="46.54248" lon="0.31404">
        <ele>135.8</ele>
        <time>2021-09-12T09:21:09Z</time>
      </trkpt>
      <trkpt lat="46.54275" lon="0.31398">
        <ele>135.6</ele>
        <time>2021-09-12T09:21:15Z</time>
      </trkpt>
      <trkpt lat="46.54279" lon="0.31396">
        <ele>135.6</ele>
        <time>2021-09-12T09:21:16Z</time>
      </trkpt>
      <trkpt lat="46.54288" lon="0.31392">
        <ele>135.6</ele>
        <time>2021-09-12T09:21:18Z</time>
      </trkpt>
      <trkpt lat="46.54305" lon="0.31384">
        <ele>135.6</ele>
        <time>2021-09-12T09:21:22Z</time>
      </trkpt>
      <trkpt lat="46.54328" lon="0.31378">
        <ele>135.2</ele>
        <time>2021-09-12T09:21:27Z</time>
      </trkpt>
      <trkpt lat="46.54351" lon="0.31374">
        <ele>135.2</ele>
        <time>2021-09-12T09:21:31Z</time>
      </trkpt>
      <trkpt lat="46.54356" lon="0.31372">
        <ele>135</ele>
        <time>2021-09-12T09:21:32Z</time>
      </trkpt>
      <trkpt lat="46.54373" lon="0.31369">
        <ele>134.8</ele>
        <time>2021-09-12T09:21:35Z</time>
      </trkpt>
      <trkpt lat="46.54377" lon="0.3137">
        <ele>134.8</ele>
        <time>2021-09-12T09:21:36Z</time>
      </trkpt>
      <trkpt lat="46.54382" lon="0.31372">
        <ele>134.6</ele>
        <time>2021-09-12T09:21:37Z</time>
      </trkpt>
      <trkpt lat="46.54394" lon="0.31383">
        <ele>134.2</ele>
        <time>2021-09-12T09:21:40Z</time>
      </trkpt>
      <trkpt lat="46.54403" lon="0.31394">
        <ele>134</ele>
        <time>2021-09-12T09:21:41Z</time>
      </trkpt>
      <trkpt lat="46.54405" lon="0.31406">
        <ele>133.8</ele>
        <time>2021-09-12T09:21:44Z</time>
      </trkpt>
      <trkpt lat="46.544" lon="0.31423">
        <ele>133.8</ele>
        <time>2021-09-12T09:21:47Z</time>
      </trkpt>
      <trkpt lat="46.54398" lon="0.31435">
        <ele>133.8</ele>
        <time>2021-09-12T09:21:49Z</time>
      </trkpt>
      <trkpt lat="46.54398" lon="0.31442">
        <ele>133.8</ele>
        <time>2021-09-12T09:21:50Z</time>
      </trkpt>
      <trkpt lat="46.54396" lon="0.31474">
        <ele>133.8</ele>
        <time>2021-09-12T09:21:55Z</time>
      </trkpt>
      <trkpt lat="46.54395" lon="0.31501">
        <ele>134</ele>
        <time>2021-09-12T09:21:59Z</time>
      </trkpt>
      <trkpt lat="46.54396" lon="0.31515">
        <ele>133.8</ele>
        <time>2021-09-12T09:22:01Z</time>
      </trkpt>
      <trkpt lat="46.54402" lon="0.31566">
        <ele>133.6</ele>
        <time>2021-09-12T09:22:08Z</time>
      </trkpt>
      <trkpt lat="46.54407" lon="0.31589">
        <ele>133.2</ele>
        <time>2021-09-12T09:22:11Z</time>
      </trkpt>
      <trkpt lat="46.54418" lon="0.31625">
        <ele>132.4</ele>
        <time>2021-09-12T09:22:16Z</time>
      </trkpt>
      <trkpt lat="46.54424" lon="0.31638">
        <ele>132.2</ele>
        <time>2021-09-12T09:22:18Z</time>
      </trkpt>
      <trkpt lat="46.54427" lon="0.31644">
        <ele>132</ele>
        <time>2021-09-12T09:22:19Z</time>
      </trkpt>
      <trkpt lat="46.54435" lon="0.31655">
        <ele>131.4</ele>
        <time>2021-09-12T09:22:21Z</time>
      </trkpt>
      <trkpt lat="46.54439" lon="0.3166">
        <ele>131.4</ele>
        <time>2021-09-12T09:22:22Z</time>
      </trkpt>
      <trkpt lat="46.54443" lon="0.31664">
        <ele>130.8</ele>
        <time>2021-09-12T09:22:23Z</time>
      </trkpt>
      <trkpt lat="46.54456" lon="0.31678">
        <ele>130.2</ele>
        <time>2021-09-12T09:22:26Z</time>
      </trkpt>
      <trkpt lat="46.54461" lon="0.31691">
        <ele>130</ele>
        <time>2021-09-12T09:22:28Z</time>
      </trkpt>
      <trkpt lat="46.54467" lon="0.3172">
        <ele>129.8</ele>
        <time>2021-09-12T09:22:32Z</time>
      </trkpt>
      <trkpt lat="46.5447" lon="0.31726">
        <ele>129.8</ele>
        <time>2021-09-12T09:22:33Z</time>
      </trkpt>
      <trkpt lat="46.54472" lon="0.31732">
        <ele>129.8</ele>
        <time>2021-09-12T09:22:34Z</time>
      </trkpt>
      <trkpt lat="46.54488" lon="0.31759">
        <ele>130</ele>
        <time>2021-09-12T09:22:39Z</time>
      </trkpt>
      <trkpt lat="46.54491" lon="0.31765">
        <ele>130</ele>
        <time>2021-09-12T09:22:40Z</time>
      </trkpt>
      <trkpt lat="46.54496" lon="0.31777">
        <ele>129.8</ele>
        <time>2021-09-12T09:22:42Z</time>
      </trkpt>
      <trkpt lat="46.54497" lon="0.31784">
        <ele>129.6</ele>
        <time>2021-09-12T09:22:43Z</time>
      </trkpt>
      <trkpt lat="46.545" lon="0.31837">
        <ele>129</ele>
        <time>2021-09-12T09:22:50Z</time>
      </trkpt>
      <trkpt lat="46.54502" lon="0.31851">
        <ele>128.8</ele>
        <time>2021-09-12T09:22:52Z</time>
      </trkpt>
      <trkpt lat="46.54504" lon="0.31888">
        <ele>128.8</ele>
        <time>2021-09-12T09:22:57Z</time>
      </trkpt>
      <trkpt lat="46.54506" lon="0.31927">
        <ele>128.4</ele>
        <time>2021-09-12T09:23:03Z</time>
      </trkpt>
      <trkpt lat="46.54508" lon="0.31945">
        <ele>128.4</ele>
        <time>2021-09-12T09:23:06Z</time>
      </trkpt>
      <trkpt lat="46.54512" lon="0.31962">
        <ele>128.2</ele>
        <time>2021-09-12T09:23:09Z</time>
      </trkpt>
      <trkpt lat="46.54514" lon="0.31967">
        <ele>128.2</ele>
        <time>2021-09-12T09:23:10Z</time>
      </trkpt>
      <trkpt lat="46.54519" lon="0.31979">
        <ele>128.2</ele>
        <time>2021-09-12T09:23:12Z</time>
      </trkpt>
      <trkpt lat="46.54526" lon="0.31988">
        <ele>128.2</ele>
        <time>2021-09-12T09:23:14Z</time>
      </trkpt>
      <trkpt lat="46.54547" lon="0.32005">
        <ele>128</ele>
        <time>2021-09-12T09:23:19Z</time>
      </trkpt>
      <trkpt lat="46.54552" lon="0.32007">
        <ele>128</ele>
        <time>2021-09-12T09:23:20Z</time>
      </trkpt>
      <trkpt lat="46.54562" lon="0.3201">
        <ele>128</ele>
        <time>2021-09-12T09:23:22Z</time>
      </trkpt>
      <trkpt lat="46.54572" lon="0.3201">
        <ele>128.4</ele>
        <time>2021-09-12T09:23:24Z</time>
      </trkpt>
      <trkpt lat="46.54614" lon="0.32002">
        <ele>128.2</ele>
        <time>2021-09-12T09:23:32Z</time>
      </trkpt>
      <trkpt lat="46.5465" lon="0.32001">
        <ele>128.6</ele>
        <time>2021-09-12T09:23:39Z</time>
      </trkpt>
      <trkpt lat="46.54674" lon="0.32004">
        <ele>127.8</ele>
        <time>2021-09-12T09:23:44Z</time>
      </trkpt>
      <trkpt lat="46.54685" lon="0.32008">
        <ele>127.6</ele>
        <time>2021-09-12T09:23:46Z</time>
      </trkpt>
      <trkpt lat="46.54701" lon="0.32014">
        <ele>126.8</ele>
        <time>2021-09-12T09:23:49Z</time>
      </trkpt>
      <trkpt lat="46.54706" lon="0.32018">
        <ele>126.6</ele>
        <time>2021-09-12T09:23:50Z</time>
      </trkpt>
      <trkpt lat="46.54711" lon="0.32024">
        <ele>126.4</ele>
        <time>2021-09-12T09:23:51Z</time>
      </trkpt>
      <trkpt lat="46.54735" lon="0.3206">
        <ele>125.8</ele>
        <time>2021-09-12T09:23:57Z</time>
      </trkpt>
      <trkpt lat="46.54739" lon="0.32065">
        <ele>125.6</ele>
        <time>2021-09-12T09:23:58Z</time>
      </trkpt>
      <trkpt lat="46.54747" lon="0.32075">
        <ele>125.4</ele>
        <time>2021-09-12T09:24:00Z</time>
      </trkpt>
      <trkpt lat="46.54756" lon="0.32082">
        <ele>125.2</ele>
        <time>2021-09-12T09:24:02Z</time>
      </trkpt>
      <trkpt lat="46.54785" lon="0.32092">
        <ele>125</ele>
        <time>2021-09-12T09:24:08Z</time>
      </trkpt>
      <trkpt lat="46.54818" lon="0.32097">
        <ele>125.4</ele>
        <time>2021-09-12T09:24:14Z</time>
      </trkpt>
      <trkpt lat="46.54829" lon="0.32094">
        <ele>125.6</ele>
        <time>2021-09-12T09:24:16Z</time>
      </trkpt>
      <trkpt lat="46.54838" lon="0.32087">
        <ele>125.6</ele>
        <time>2021-09-12T09:24:18Z</time>
      </trkpt>
      <trkpt lat="46.54867" lon="0.32067">
        <ele>125.8</ele>
        <time>2021-09-12T09:24:25Z</time>
      </trkpt>
      <trkpt lat="46.54874" lon="0.3207">
        <ele>126</ele>
        <time>2021-09-12T09:24:27Z</time>
      </trkpt>
      <trkpt lat="46.54877" lon="0.32074">
        <ele>126</ele>
        <time>2021-09-12T09:24:28Z</time>
      </trkpt>
      <trkpt lat="46.54879" lon="0.32079">
        <ele>126.2</ele>
        <time>2021-09-12T09:24:29Z</time>
      </trkpt>
      <trkpt lat="46.5489" lon="0.32103">
        <ele>126.2</ele>
        <time>2021-09-12T09:24:33Z</time>
      </trkpt>
      <trkpt lat="46.54895" lon="0.32116">
        <ele>126.2</ele>
        <time>2021-09-12T09:24:35Z</time>
      </trkpt>
      <trkpt lat="46.54896" lon="0.3213">
        <ele>126.4</ele>
        <time>2021-09-12T09:24:37Z</time>
      </trkpt>
      <trkpt lat="46.54896" lon="0.3213">
        <ele>126.6</ele>
        <time>2021-09-12T09:24:38Z</time>
      </trkpt>
      <trkpt lat="46.54893" lon="0.32142">
        <ele>127</ele>
        <time>2021-09-12T09:24:39Z</time>
      </trkpt>
      <trkpt lat="46.54888" lon="0.32153">
        <ele>127.2</ele>
        <time>2021-09-12T09:24:41Z</time>
      </trkpt>
      <trkpt lat="46.54888" lon="0.32164">
        <ele>127.2</ele>
        <time>2021-09-12T09:24:43Z</time>
      </trkpt>
      <trkpt lat="46.54889" lon="0.32173">
        <ele>127.2</ele>
        <time>2021-09-12T09:24:46Z</time>
      </trkpt>
      <trkpt lat="46.54887" lon="0.32175">
        <ele>127.2</ele>
        <time>2021-09-12T09:24:47Z</time>
      </trkpt>
      <trkpt lat="46.54871" lon="0.32185">
        <ele>127.4</ele>
        <time>2021-09-12T09:24:51Z</time>
      </trkpt>
      <trkpt lat="46.54862" lon="0.32189">
        <ele>127.4</ele>
        <time>2021-09-12T09:24:53Z</time>
      </trkpt>
      <trkpt lat="46.54853" lon="0.32195">
        <ele>127.2</ele>
        <time>2021-09-12T09:24:55Z</time>
      </trkpt>
      <trkpt lat="46.54826" lon="0.32207">
        <ele>126.8</ele>
        <time>2021-09-12T09:25:00Z</time>
      </trkpt>
      <trkpt lat="46.54778" lon="0.3223">
        <ele>126.2</ele>
        <time>2021-09-12T09:25:08Z</time>
      </trkpt>
      <trkpt lat="46.5476" lon="0.32242">
        <ele>125.6</ele>
        <time>2021-09-12T09:25:11Z</time>
      </trkpt>
      <trkpt lat="46.54737" lon="0.32261">
        <ele>125.2</ele>
        <time>2021-09-12T09:25:15Z</time>
      </trkpt>
      <trkpt lat="46.54716" lon="0.32281">
        <ele>124.4</ele>
        <time>2021-09-12T09:25:19Z</time>
      </trkpt>
      <trkpt lat="46.54707" lon="0.32292">
        <ele>124.2</ele>
        <time>2021-09-12T09:25:21Z</time>
      </trkpt>
      <trkpt lat="46.54668" lon="0.32335">
        <ele>123.6</ele>
        <time>2021-09-12T09:25:29Z</time>
      </trkpt>
      <trkpt lat="46.54634" lon="0.32369">
        <ele>123.6</ele>
        <time>2021-09-12T09:25:36Z</time>
      </trkpt>
      <trkpt lat="46.54607" lon="0.32389">
        <ele>123.6</ele>
        <time>2021-09-12T09:25:42Z</time>
      </trkpt>
      <trkpt lat="46.54587" lon="0.32407">
        <ele>123.6</ele>
        <time>2021-09-12T09:25:47Z</time>
      </trkpt>
      <trkpt lat="46.54584" lon="0.32412">
        <ele>123.6</ele>
        <time>2021-09-12T09:25:48Z</time>
      </trkpt>
      <trkpt lat="46.54581" lon="0.32418">
        <ele>123.6</ele>
        <time>2021-09-12T09:25:49Z</time>
      </trkpt>
      <trkpt lat="46.54572" lon="0.32439">
        <ele>123.6</ele>
        <time>2021-09-12T09:25:53Z</time>
      </trkpt>
      <trkpt lat="46.54569" lon="0.32442">
        <ele>123.6</ele>
        <time>2021-09-12T09:25:54Z</time>
      </trkpt>
      <trkpt lat="46.54562" lon="0.32446">
        <ele>123.4</ele>
        <time>2021-09-12T09:25:57Z</time>
      </trkpt>
      <trkpt lat="46.54555" lon="0.3245">
        <ele>123.2</ele>
        <time>2021-09-12T09:25:59Z</time>
      </trkpt>
      <trkpt lat="46.54552" lon="0.32451">
        <ele>123.2</ele>
        <time>2021-09-12T09:26:00Z</time>
      </trkpt>
      <trkpt lat="46.54547" lon="0.32453">
        <ele>123.2</ele>
        <time>2021-09-12T09:26:02Z</time>
      </trkpt>
      <trkpt lat="46.54544" lon="0.32455">
        <ele>123</ele>
        <time>2021-09-12T09:26:03Z</time>
      </trkpt>
      <trkpt lat="46.5453" lon="0.32461">
        <ele>123.4</ele>
        <time>2021-09-12T09:26:08Z</time>
      </trkpt>
      <trkpt lat="46.54513" lon="0.32468">
        <ele>123.4</ele>
        <time>2021-09-12T09:26:14Z</time>
      </trkpt>
      <trkpt lat="46.54505" lon="0.32473">
        <ele>123.6</ele>
        <time>2021-09-12T09:26:18Z</time>
      </trkpt>
      <trkpt lat="46.54504" lon="0.32473">
        <ele>123.6</ele>
        <time>2021-09-12T09:26:19Z</time>
      </trkpt>
      <trkpt lat="46.54492" lon="0.3248">
        <ele>123.2</ele>
        <time>2021-09-12T09:26:30Z</time>
      </trkpt>
      <trkpt lat="46.54485" lon="0.32482">
        <ele>123.2</ele>
        <time>2021-09-12T09:26:33Z</time>
      </trkpt>
      <trkpt lat="46.54479" lon="0.32484">
        <ele>123.2</ele>
        <time>2021-09-12T09:26:35Z</time>
      </trkpt>
      <trkpt lat="46.5446" lon="0.32484">
        <ele>123</ele>
        <time>2021-09-12T09:26:41Z</time>
      </trkpt>
      <trkpt lat="46.54437" lon="0.32486">
        <ele>123.6</ele>
        <time>2021-09-12T09:26:47Z</time>
      </trkpt>
      <trkpt lat="46.54415" lon="0.32488">
        <ele>123.4</ele>
        <time>2021-09-12T09:26:54Z</time>
      </trkpt>
      <trkpt lat="46.54412" lon="0.32489">
        <ele>123.4</ele>
        <time>2021-09-12T09:26:57Z</time>
      </trkpt>
      <trkpt lat="46.5441" lon="0.3249">
        <ele>123.2</ele>
        <time>2021-09-12T09:26:59Z</time>
      </trkpt>
      <trkpt lat="46.54407" lon="0.32486">
        <ele>123</ele>
        <time>2021-09-12T09:27:09Z</time>
      </trkpt>
      <trkpt lat="46.54408" lon="0.32486">
        <ele>123</ele>
        <time>2021-09-12T09:27:10Z</time>
      </trkpt>
      <trkpt lat="46.54409" lon="0.32486">
        <ele>123</ele>
        <time>2021-09-12T09:27:12Z</time>
      </trkpt>
      <trkpt lat="46.54415" lon="0.32485">
        <ele>123.6</ele>
        <time>2021-09-12T09:27:16Z</time>
      </trkpt>
      <trkpt lat="46.5442" lon="0.32485">
        <ele>123.6</ele>
        <time>2021-09-12T09:27:19Z</time>
      </trkpt>
      <trkpt lat="46.54423" lon="0.32485">
        <ele>123.6</ele>
        <time>2021-09-12T09:27:20Z</time>
      </trkpt>
      <trkpt lat="46.54432" lon="0.32486">
        <ele>123.2</ele>
        <time>2021-09-12T09:27:23Z</time>
      </trkpt>
      <trkpt lat="46.54437" lon="0.32485">
        <ele>123.2</ele>
        <time>2021-09-12T09:27:25Z</time>
      </trkpt>
      <trkpt lat="46.54441" lon="0.32484">
        <ele>123</ele>
        <time>2021-09-12T09:27:26Z</time>
      </trkpt>
      <trkpt lat="46.54447" lon="0.32483">
        <ele>123</ele>
        <time>2021-09-12T09:27:28Z</time>
      </trkpt>
      <trkpt lat="46.54458" lon="0.3248">
        <ele>122.8</ele>
        <time>2021-09-12T09:27:31Z</time>
      </trkpt>
      <trkpt lat="46.54461" lon="0.32478">
        <ele>122.6</ele>
        <time>2021-09-12T09:27:32Z</time>
      </trkpt>
      <trkpt lat="46.54467" lon="0.32476">
        <ele>122.6</ele>
        <time>2021-09-12T09:27:34Z</time>
      </trkpt>
      <trkpt lat="46.54471" lon="0.32473">
        <ele>122.4</ele>
        <time>2021-09-12T09:27:36Z</time>
      </trkpt>
      <trkpt lat="46.54475" lon="0.32474">
        <ele>122.4</ele>
        <time>2021-09-12T09:27:38Z</time>
      </trkpt>
      <trkpt lat="46.5449" lon="0.32481">
        <ele>122.2</ele>
        <time>2021-09-12T09:27:43Z</time>
      </trkpt>
      <trkpt lat="46.54494" lon="0.32482">
        <ele>122</ele>
        <time>2021-09-12T09:27:44Z</time>
      </trkpt>
      <trkpt lat="46.54499" lon="0.32486">
        <ele>121.8</ele>
        <time>2021-09-12T09:27:46Z</time>
      </trkpt>
      <trkpt lat="46.54504" lon="0.32494">
        <ele>121.6</ele>
        <time>2021-09-12T09:27:48Z</time>
      </trkpt>
      <trkpt lat="46.54506" lon="0.32498">
        <ele>121.6</ele>
        <time>2021-09-12T09:27:49Z</time>
      </trkpt>
      <trkpt lat="46.54506" lon="0.32504">
        <ele>121.8</ele>
        <time>2021-09-12T09:27:50Z</time>
      </trkpt>
      <trkpt lat="46.54504" lon="0.32508">
        <ele>121.8</ele>
        <time>2021-09-12T09:27:53Z</time>
      </trkpt>
      <trkpt lat="46.54502" lon="0.32509">
        <ele>121.8</ele>
        <time>2021-09-12T09:27:54Z</time>
      </trkpt>
      <trkpt lat="46.545" lon="0.3251">
        <ele>121.8</ele>
        <time>2021-09-12T09:27:55Z</time>
      </trkpt>
      <trkpt lat="46.54492" lon="0.32517">
        <ele>121.2</ele>
        <time>2021-09-12T09:28:00Z</time>
      </trkpt>
      <trkpt lat="46.5449" lon="0.32517">
        <ele>121</ele>
        <time>2021-09-12T09:28:01Z</time>
      </trkpt>
      <trkpt lat="46.54488" lon="0.3252">
        <ele>120.8</ele>
        <time>2021-09-12T09:28:02Z</time>
      </trkpt>
      <trkpt lat="46.54487" lon="0.32524">
        <ele>120.8</ele>
        <time>2021-09-12T09:28:04Z</time>
      </trkpt>
      <trkpt lat="46.54487" lon="0.32527">
        <ele>120.8</ele>
        <time>2021-09-12T09:28:05Z</time>
      </trkpt>
      <trkpt lat="46.54487" lon="0.32533">
        <ele>120</ele>
        <time>2021-09-12T09:28:07Z</time>
      </trkpt>
      <trkpt lat="46.5449" lon="0.32545">
        <ele>119</ele>
        <time>2021-09-12T09:28:10Z</time>
      </trkpt>
      <trkpt lat="46.54492" lon="0.32549">
        <ele>118.8</ele>
        <time>2021-09-12T09:28:11Z</time>
      </trkpt>
      <trkpt lat="46.54494" lon="0.32552">
        <ele>118.8</ele>
        <time>2021-09-12T09:28:12Z</time>
      </trkpt>
      <trkpt lat="46.54497" lon="0.32561">
        <ele>118.2</ele>
        <time>2021-09-12T09:28:14Z</time>
      </trkpt>
      <trkpt lat="46.54498" lon="0.32566">
        <ele>118.2</ele>
        <time>2021-09-12T09:28:15Z</time>
      </trkpt>
      <trkpt lat="46.54499" lon="0.32571">
        <ele>118.2</ele>
        <time>2021-09-12T09:28:16Z</time>
      </trkpt>
      <trkpt lat="46.54496" lon="0.32575">
        <ele>117.8</ele>
        <time>2021-09-12T09:28:18Z</time>
      </trkpt>
      <trkpt lat="46.54493" lon="0.32578">
        <ele>117.4</ele>
        <time>2021-09-12T09:28:20Z</time>
      </trkpt>
      <trkpt lat="46.5449" lon="0.3258">
        <ele>116.8</ele>
        <time>2021-09-12T09:28:22Z</time>
      </trkpt>
      <trkpt lat="46.54488" lon="0.32582">
        <ele>116.8</ele>
        <time>2021-09-12T09:28:23Z</time>
      </trkpt>
      <trkpt lat="46.54482" lon="0.32584">
        <ele>116.6</ele>
        <time>2021-09-12T09:28:26Z</time>
      </trkpt>
      <trkpt lat="46.54477" lon="0.32585">
        <ele>116.2</ele>
        <time>2021-09-12T09:28:28Z</time>
      </trkpt>
      <trkpt lat="46.54462" lon="0.32584">
        <ele>115.8</ele>
        <time>2021-09-12T09:28:33Z</time>
      </trkpt>
      <trkpt lat="46.54458" lon="0.32585">
        <ele>115.8</ele>
        <time>2021-09-12T09:28:34Z</time>
      </trkpt>
      <trkpt lat="46.54455" lon="0.32587">
        <ele>116</ele>
        <time>2021-09-12T09:28:35Z</time>
      </trkpt>
      <trkpt lat="46.54452" lon="0.3259">
        <ele>116</ele>
        <time>2021-09-12T09:28:37Z</time>
      </trkpt>
      <trkpt lat="46.5445" lon="0.32594">
        <ele>116</ele>
        <time>2021-09-12T09:28:38Z</time>
      </trkpt>
      <trkpt lat="46.54449" lon="0.32597">
        <ele>115.6</ele>
        <time>2021-09-12T09:28:39Z</time>
      </trkpt>
      <trkpt lat="46.54446" lon="0.32601">
        <ele>114.6</ele>
        <time>2021-09-12T09:28:41Z</time>
      </trkpt>
      <trkpt lat="46.54442" lon="0.32604">
        <ele>113.8</ele>
        <time>2021-09-12T09:28:43Z</time>
      </trkpt>
      <trkpt lat="46.5444" lon="0.32606">
        <ele>113.4</ele>
        <time>2021-09-12T09:28:44Z</time>
      </trkpt>
      <trkpt lat="46.54431" lon="0.32615">
        <ele>112.6</ele>
        <time>2021-09-12T09:28:47Z</time>
      </trkpt>
      <trkpt lat="46.54429" lon="0.32617">
        <ele>112.2</ele>
        <time>2021-09-12T09:28:48Z</time>
      </trkpt>
      <trkpt lat="46.54425" lon="0.3262">
        <ele>111.8</ele>
        <time>2021-09-12T09:28:49Z</time>
      </trkpt>
      <trkpt lat="46.54421" lon="0.32623">
        <ele>111.2</ele>
        <time>2021-09-12T09:28:50Z</time>
      </trkpt>
      <trkpt lat="46.54413" lon="0.32629">
        <ele>110.6</ele>
        <time>2021-09-12T09:28:52Z</time>
      </trkpt>
      <trkpt lat="46.54406" lon="0.32636">
        <ele>110</ele>
        <time>2021-09-12T09:28:54Z</time>
      </trkpt>
      <trkpt lat="46.54403" lon="0.32641">
        <ele>109.8</ele>
        <time>2021-09-12T09:28:56Z</time>
      </trkpt>
      <trkpt lat="46.54401" lon="0.32645">
        <ele>109.6</ele>
        <time>2021-09-12T09:28:59Z</time>
      </trkpt>
      <trkpt lat="46.54402" lon="0.32649">
        <ele>109</ele>
        <time>2021-09-12T09:29:01Z</time>
      </trkpt>
      <trkpt lat="46.54402" lon="0.32654">
        <ele>108.2</ele>
        <time>2021-09-12T09:29:03Z</time>
      </trkpt>
      <trkpt lat="46.54401" lon="0.32657">
        <ele>107.8</ele>
        <time>2021-09-12T09:29:04Z</time>
      </trkpt>
      <trkpt lat="46.54398" lon="0.32668">
        <ele>106.4</ele>
        <time>2021-09-12T09:29:10Z</time>
      </trkpt>
      <trkpt lat="46.54397" lon="0.3267">
        <ele>106</ele>
        <time>2021-09-12T09:29:11Z</time>
      </trkpt>
      <trkpt lat="46.54393" lon="0.32672">
        <ele>105.2</ele>
        <time>2021-09-12T09:29:13Z</time>
      </trkpt>
      <trkpt lat="46.54388" lon="0.32673">
        <ele>104.8</ele>
        <time>2021-09-12T09:29:15Z</time>
      </trkpt>
      <trkpt lat="46.54385" lon="0.32674">
        <ele>104.6</ele>
        <time>2021-09-12T09:29:17Z</time>
      </trkpt>
      <trkpt lat="46.54383" lon="0.32676">
        <ele>104.4</ele>
        <time>2021-09-12T09:29:18Z</time>
      </trkpt>
      <trkpt lat="46.54383" lon="0.32678">
        <ele>104.2</ele>
        <time>2021-09-12T09:29:19Z</time>
      </trkpt>
      <trkpt lat="46.54382" lon="0.3268">
        <ele>104</ele>
        <time>2021-09-12T09:29:20Z</time>
      </trkpt>
      <trkpt lat="46.5438" lon="0.32681">
        <ele>103</ele>
        <time>2021-09-12T09:29:21Z</time>
      </trkpt>
      <trkpt lat="46.54377" lon="0.32684">
        <ele>101.2</ele>
        <time>2021-09-12T09:29:23Z</time>
      </trkpt>
      <trkpt lat="46.54371" lon="0.32686">
        <ele>100</ele>
        <time>2021-09-12T09:29:26Z</time>
      </trkpt>
      <trkpt lat="46.54366" lon="0.32687">
        <ele>99.4</ele>
        <time>2021-09-12T09:29:28Z</time>
      </trkpt>
      <trkpt lat="46.54364" lon="0.32688">
        <ele>98.8</ele>
        <time>2021-09-12T09:29:29Z</time>
      </trkpt>
      <trkpt lat="46.5436" lon="0.32689">
        <ele>97.8</ele>
        <time>2021-09-12T09:29:30Z</time>
      </trkpt>
      <trkpt lat="46.54357" lon="0.32691">
        <ele>96.6</ele>
        <time>2021-09-12T09:29:31Z</time>
      </trkpt>
      <trkpt lat="46.54354" lon="0.32692">
        <ele>95.6</ele>
        <time>2021-09-12T09:29:32Z</time>
      </trkpt>
      <trkpt lat="46.54348" lon="0.32694">
        <ele>93.8</ele>
        <time>2021-09-12T09:29:34Z</time>
      </trkpt>
      <trkpt lat="46.54341" lon="0.32697">
        <ele>91.8</ele>
        <time>2021-09-12T09:29:36Z</time>
      </trkpt>
      <trkpt lat="46.54336" lon="0.327">
        <ele>90.2</ele>
        <time>2021-09-12T09:29:38Z</time>
      </trkpt>
      <trkpt lat="46.54331" lon="0.32702">
        <ele>88.2</ele>
        <time>2021-09-12T09:29:39Z</time>
      </trkpt>
      <trkpt lat="46.54331" lon="0.32702">
        <ele>87.2</ele>
        <time>2021-09-12T09:29:41Z</time>
      </trkpt>
      <trkpt lat="46.54323" lon="0.32706">
        <ele>85.4</ele>
        <time>2021-09-12T09:29:43Z</time>
      </trkpt>
      <trkpt lat="46.5432" lon="0.32707">
        <ele>85.2</ele>
        <time>2021-09-12T09:29:44Z</time>
      </trkpt>
      <trkpt lat="46.54318" lon="0.32709">
        <ele>84.4</ele>
        <time>2021-09-12T09:29:45Z</time>
      </trkpt>
      <trkpt lat="46.54314" lon="0.32709">
        <ele>83.8</ele>
        <time>2021-09-12T09:29:46Z</time>
      </trkpt>
      <trkpt lat="46.5431" lon="0.32708">
        <ele>83</ele>
        <time>2021-09-12T09:29:47Z</time>
      </trkpt>
      <trkpt lat="46.54306" lon="0.32708">
        <ele>81.8</ele>
        <time>2021-09-12T09:29:48Z</time>
      </trkpt>
      <trkpt lat="46.543" lon="0.32707">
        <ele>81</ele>
        <time>2021-09-12T09:29:49Z</time>
      </trkpt>
      <trkpt lat="46.54294" lon="0.32707">
        <ele>79.8</ele>
        <time>2021-09-12T09:29:50Z</time>
      </trkpt>
      <trkpt lat="46.54288" lon="0.32706">
        <ele>78.4</ele>
        <time>2021-09-12T09:29:51Z</time>
      </trkpt>
      <trkpt lat="46.54282" lon="0.32705">
        <ele>77.4</ele>
        <time>2021-09-12T09:29:52Z</time>
      </trkpt>
      <trkpt lat="46.54276" lon="0.32705">
        <ele>76.8</ele>
        <time>2021-09-12T09:29:53Z</time>
      </trkpt>
      <trkpt lat="46.54259" lon="0.32701">
        <ele>76.2</ele>
        <time>2021-09-12T09:29:56Z</time>
      </trkpt>
      <trkpt lat="46.54237" lon="0.32699">
        <ele>76</ele>
        <time>2021-09-12T09:30:00Z</time>
      </trkpt>
      <trkpt lat="46.54229" lon="0.32702">
        <ele>76</ele>
        <time>2021-09-12T09:30:02Z</time>
      </trkpt>
      <trkpt lat="46.54225" lon="0.32706">
        <ele>75.8</ele>
        <time>2021-09-12T09:30:03Z</time>
      </trkpt>
      <trkpt lat="46.54224" lon="0.3271">
        <ele>75.8</ele>
        <time>2021-09-12T09:30:04Z</time>
      </trkpt>
      <trkpt lat="46.54223" lon="0.32714">
        <ele>75.6</ele>
        <time>2021-09-12T09:30:05Z</time>
      </trkpt>
      <trkpt lat="46.54217" lon="0.32727">
        <ele>75.2</ele>
        <time>2021-09-12T09:30:10Z</time>
      </trkpt>
      <trkpt lat="46.54207" lon="0.32744">
        <ele>74.8</ele>
        <time>2021-09-12T09:30:15Z</time>
      </trkpt>
      <trkpt lat="46.54204" lon="0.32748">
        <ele>74.6</ele>
        <time>2021-09-12T09:30:16Z</time>
      </trkpt>
      <trkpt lat="46.54195" lon="0.3276">
        <ele>74.2</ele>
        <time>2021-09-12T09:30:20Z</time>
      </trkpt>
      <trkpt lat="46.54192" lon="0.32764">
        <ele>74.2</ele>
        <time>2021-09-12T09:30:24Z</time>
      </trkpt>
      <trkpt lat="46.54189" lon="0.32764">
        <ele>74.2</ele>
        <time>2021-09-12T09:30:26Z</time>
      </trkpt>
      <trkpt lat="46.54188" lon="0.32763">
        <ele>74.4</ele>
        <time>2021-09-12T09:30:28Z</time>
      </trkpt>
      <trkpt lat="46.5418" lon="0.32762">
        <ele>75.8</ele>
        <time>2021-09-12T09:30:34Z</time>
      </trkpt>
      <trkpt lat="46.54172" lon="0.32764">
        <ele>76.8</ele>
        <time>2021-09-12T09:30:40Z</time>
      </trkpt>
      <trkpt lat="46.54165" lon="0.32764">
        <ele>78.2</ele>
        <time>2021-09-12T09:30:44Z</time>
      </trkpt>
      <trkpt lat="46.54163" lon="0.32764">
        <ele>78.4</ele>
        <time>2021-09-12T09:30:45Z</time>
      </trkpt>
      <trkpt lat="46.54152" lon="0.32767">
        <ele>79.2</ele>
        <time>2021-09-12T09:30:52Z</time>
      </trkpt>
      <trkpt lat="46.54143" lon="0.32767">
        <ele>79.6</ele>
        <time>2021-09-12T09:30:56Z</time>
      </trkpt>
      <trkpt lat="46.54133" lon="0.32769">
        <ele>80.2</ele>
        <time>2021-09-12T09:31:02Z</time>
      </trkpt>
      <trkpt lat="46.54124" lon="0.32773">
        <ele>81</ele>
        <time>2021-09-12T09:31:08Z</time>
      </trkpt>
      <trkpt lat="46.54121" lon="0.32773">
        <ele>81.4</ele>
        <time>2021-09-12T09:31:10Z</time>
      </trkpt>
      <trkpt lat="46.54115" lon="0.32775">
        <ele>82.4</ele>
        <time>2021-09-12T09:31:15Z</time>
      </trkpt>
      <trkpt lat="46.54114" lon="0.32776">
        <ele>82.6</ele>
        <time>2021-09-12T09:31:16Z</time>
      </trkpt>
      <trkpt lat="46.54109" lon="0.32775">
        <ele>83.8</ele>
        <time>2021-09-12T09:31:20Z</time>
      </trkpt>
      <trkpt lat="46.54099" lon="0.32777">
        <ele>84.8</ele>
        <time>2021-09-12T09:31:26Z</time>
      </trkpt>
      <trkpt lat="46.54092" lon="0.3278">
        <ele>86</ele>
        <time>2021-09-12T09:31:32Z</time>
      </trkpt>
      <trkpt lat="46.54085" lon="0.32781">
        <ele>87.2</ele>
        <time>2021-09-12T09:31:37Z</time>
      </trkpt>
      <trkpt lat="46.54075" lon="0.32785">
        <ele>88.4</ele>
        <time>2021-09-12T09:31:44Z</time>
      </trkpt>
      <trkpt lat="46.54072" lon="0.32787">
        <ele>89.4</ele>
        <time>2021-09-12T09:31:48Z</time>
      </trkpt>
      <trkpt lat="46.5407" lon="0.32787">
        <ele>89.6</ele>
        <time>2021-09-12T09:31:49Z</time>
      </trkpt>
      <trkpt lat="46.54068" lon="0.32789">
        <ele>90.6</ele>
        <time>2021-09-12T09:31:52Z</time>
      </trkpt>
      <trkpt lat="46.54064" lon="0.3279">
        <ele>91</ele>
        <time>2021-09-12T09:31:56Z</time>
      </trkpt>
      <trkpt lat="46.54062" lon="0.32792">
        <ele>91.2</ele>
        <time>2021-09-12T09:31:59Z</time>
      </trkpt>
      <trkpt lat="46.5406" lon="0.32793">
        <ele>91.6</ele>
        <time>2021-09-12T09:32:02Z</time>
      </trkpt>
      <trkpt lat="46.54056" lon="0.32795">
        <ele>92.4</ele>
        <time>2021-09-12T09:32:08Z</time>
      </trkpt>
      <trkpt lat="46.54057" lon="0.32796">
        <ele>92.6</ele>
        <time>2021-09-12T09:32:10Z</time>
      </trkpt>
      <trkpt lat="46.54058" lon="0.32798">
        <ele>93.2</ele>
        <time>2021-09-12T09:32:14Z</time>
      </trkpt>
      <trkpt lat="46.54058" lon="0.32799">
        <ele>93.2</ele>
        <time>2021-09-12T09:32:16Z</time>
      </trkpt>
      <trkpt lat="46.54062" lon="0.32802">
        <ele>93.2</ele>
        <time>2021-09-12T09:32:25Z</time>
      </trkpt>
      <trkpt lat="46.54063" lon="0.32802">
        <ele>93.2</ele>
        <time>2021-09-12T09:32:27Z</time>
      </trkpt>
      <trkpt lat="46.54069" lon="0.32802">
        <ele>92.8</ele>
        <time>2021-09-12T09:32:34Z</time>
      </trkpt>
      <trkpt lat="46.54076" lon="0.32799">
        <ele>91.4</ele>
        <time>2021-09-12T09:32:40Z</time>
      </trkpt>
      <trkpt lat="46.5408" lon="0.32798">
        <ele>90.4</ele>
        <time>2021-09-12T09:32:43Z</time>
      </trkpt>
      <trkpt lat="46.54081" lon="0.32797">
        <ele>90</ele>
        <time>2021-09-12T09:32:44Z</time>
      </trkpt>
      <trkpt lat="46.54083" lon="0.32796">
        <ele>89</ele>
        <time>2021-09-12T09:32:47Z</time>
      </trkpt>
      <trkpt lat="46.54085" lon="0.32795">
        <ele>87.6</ele>
        <time>2021-09-12T09:32:49Z</time>
      </trkpt>
      <trkpt lat="46.54087" lon="0.32794">
        <ele>86.6</ele>
        <time>2021-09-12T09:32:50Z</time>
      </trkpt>
      <trkpt lat="46.54089" lon="0.32793">
        <ele>85.4</ele>
        <time>2021-09-12T09:32:53Z</time>
      </trkpt>
      <trkpt lat="46.54089" lon="0.32793">
        <ele>84.6</ele>
        <time>2021-09-12T09:32:54Z</time>
      </trkpt>
      <trkpt lat="46.5409" lon="0.32793">
        <ele>84</ele>
        <time>2021-09-12T09:32:55Z</time>
      </trkpt>
      <trkpt lat="46.54093" lon="0.32793">
        <ele>83.6</ele>
        <time>2021-09-12T09:32:56Z</time>
      </trkpt>
      <trkpt lat="46.54094" lon="0.32794">
        <ele>82.6</ele>
        <time>2021-09-12T09:32:57Z</time>
      </trkpt>
      <trkpt lat="46.54094" lon="0.32794">
        <ele>81.6</ele>
        <time>2021-09-12T09:32:59Z</time>
      </trkpt>
      <trkpt lat="46.54095" lon="0.32793">
        <ele>81</ele>
        <time>2021-09-12T09:33:04Z</time>
      </trkpt>
      <trkpt lat="46.54103" lon="0.32795">
        <ele>80.6</ele>
        <time>2021-09-12T09:33:15Z</time>
      </trkpt>
      <trkpt lat="46.54103" lon="0.32796">
        <ele>80.4</ele>
        <time>2021-09-12T09:33:16Z</time>
      </trkpt>
      <trkpt lat="46.54104" lon="0.32798">
        <ele>79.4</ele>
        <time>2021-09-12T09:33:19Z</time>
      </trkpt>
      <trkpt lat="46.54106" lon="0.32799">
        <ele>78.4</ele>
        <time>2021-09-12T09:33:28Z</time>
      </trkpt>
      <trkpt lat="46.54108" lon="0.32803">
        <ele>77.4</ele>
        <time>2021-09-12T09:33:38Z</time>
      </trkpt>
      <trkpt lat="46.54108" lon="0.32806">
        <ele>76.4</ele>
        <time>2021-09-12T09:33:41Z</time>
      </trkpt>
      <trkpt lat="46.54107" lon="0.32808">
        <ele>76</ele>
        <time>2021-09-12T09:33:42Z</time>
      </trkpt>
      <trkpt lat="46.54107" lon="0.32809">
        <ele>75.8</ele>
        <time>2021-09-12T09:33:45Z</time>
      </trkpt>
      <trkpt lat="46.54105" lon="0.32811">
        <ele>76</ele>
        <time>2021-09-12T09:33:50Z</time>
      </trkpt>
      <trkpt lat="46.54103" lon="0.32813">
        <ele>76.2</ele>
        <time>2021-09-12T09:33:52Z</time>
      </trkpt>
      <trkpt lat="46.54096" lon="0.32821">
        <ele>76.4</ele>
        <time>2021-09-12T09:33:57Z</time>
      </trkpt>
      <trkpt lat="46.54089" lon="0.32832">
        <ele>77</ele>
        <time>2021-09-12T09:34:02Z</time>
      </trkpt>
      <trkpt lat="46.54088" lon="0.32833">
        <ele>77.2</ele>
        <time>2021-09-12T09:34:03Z</time>
      </trkpt>
      <trkpt lat="46.54081" lon="0.32842">
        <ele>77.8</ele>
        <time>2021-09-12T09:34:08Z</time>
      </trkpt>
      <trkpt lat="46.54072" lon="0.32845">
        <ele>77</ele>
        <time>2021-09-12T09:34:11Z</time>
      </trkpt>
      <trkpt lat="46.54062" lon="0.32849">
        <ele>76</ele>
        <time>2021-09-12T09:34:14Z</time>
      </trkpt>
      <trkpt lat="46.54058" lon="0.32851">
        <ele>75.8</ele>
        <time>2021-09-12T09:34:15Z</time>
      </trkpt>
      <trkpt lat="46.54037" lon="0.32861">
        <ele>75</ele>
        <time>2021-09-12T09:34:21Z</time>
      </trkpt>
      <trkpt lat="46.54027" lon="0.32866">
        <ele>74.8</ele>
        <time>2021-09-12T09:34:24Z</time>
      </trkpt>
      <trkpt lat="46.54016" lon="0.32872">
        <ele>75.2</ele>
        <time>2021-09-12T09:34:27Z</time>
      </trkpt>
      <trkpt lat="46.53996" lon="0.32887">
        <ele>74.8</ele>
        <time>2021-09-12T09:34:32Z</time>
      </trkpt>
      <trkpt lat="46.53992" lon="0.32891">
        <ele>74.8</ele>
        <time>2021-09-12T09:34:33Z</time>
      </trkpt>
      <trkpt lat="46.53978" lon="0.32903">
        <ele>75.2</ele>
        <time>2021-09-12T09:34:38Z</time>
      </trkpt>
      <trkpt lat="46.53971" lon="0.32908">
        <ele>75.4</ele>
        <time>2021-09-12T09:34:40Z</time>
      </trkpt>
      <trkpt lat="46.53965" lon="0.32913">
        <ele>75.6</ele>
        <time>2021-09-12T09:34:42Z</time>
      </trkpt>
      <trkpt lat="46.5396" lon="0.32922">
        <ele>75.4</ele>
        <time>2021-09-12T09:34:44Z</time>
      </trkpt>
      <trkpt lat="46.53953" lon="0.32933">
        <ele>75.4</ele>
        <time>2021-09-12T09:34:46Z</time>
      </trkpt>
      <trkpt lat="46.53947" lon="0.32941">
        <ele>75.8</ele>
        <time>2021-09-12T09:34:48Z</time>
      </trkpt>
      <trkpt lat="46.53944" lon="0.32946">
        <ele>75.8</ele>
        <time>2021-09-12T09:34:49Z</time>
      </trkpt>
      <trkpt lat="46.53939" lon="0.32953">
        <ele>75.8</ele>
        <time>2021-09-12T09:34:51Z</time>
      </trkpt>
      <trkpt lat="46.5393" lon="0.32966">
        <ele>75.4</ele>
        <time>2021-09-12T09:34:53Z</time>
      </trkpt>
      <trkpt lat="46.53927" lon="0.32972">
        <ele>75.4</ele>
        <time>2021-09-12T09:34:54Z</time>
      </trkpt>
      <trkpt lat="46.5392" lon="0.3299">
        <ele>75</ele>
        <time>2021-09-12T09:34:57Z</time>
      </trkpt>
      <trkpt lat="46.53913" lon="0.33001">
        <ele>75.2</ele>
        <time>2021-09-12T09:34:59Z</time>
      </trkpt>
      <trkpt lat="46.5391" lon="0.33008">
        <ele>75.2</ele>
        <time>2021-09-12T09:35:00Z</time>
      </trkpt>
      <trkpt lat="46.53896" lon="0.33036">
        <ele>75.8</ele>
        <time>2021-09-12T09:35:06Z</time>
      </trkpt>
      <trkpt lat="46.53885" lon="0.33059">
        <ele>76.6</ele>
        <time>2021-09-12T09:35:12Z</time>
      </trkpt>
      <trkpt lat="46.53885" lon="0.33063">
        <ele>76.6</ele>
        <time>2021-09-12T09:35:13Z</time>
      </trkpt>
      <trkpt lat="46.53884" lon="0.33066">
        <ele>76.6</ele>
        <time>2021-09-12T09:35:14Z</time>
      </trkpt>
      <trkpt lat="46.53882" lon="0.33071">
        <ele>76.6</ele>
        <time>2021-09-12T09:35:15Z</time>
      </trkpt>
      <trkpt lat="46.53881" lon="0.33081">
        <ele>76.6</ele>
        <time>2021-09-12T09:35:17Z</time>
      </trkpt>
      <trkpt lat="46.53882" lon="0.33091">
        <ele>76.6</ele>
        <time>2021-09-12T09:35:19Z</time>
      </trkpt>
      <trkpt lat="46.53881" lon="0.33109">
        <ele>76.6</ele>
        <time>2021-09-12T09:35:21Z</time>
      </trkpt>
      <trkpt lat="46.53882" lon="0.33116">
        <ele>76.6</ele>
        <time>2021-09-12T09:35:22Z</time>
      </trkpt>
      <trkpt lat="46.53884" lon="0.33125">
        <ele>76.6</ele>
        <time>2021-09-12T09:35:23Z</time>
      </trkpt>
      <trkpt lat="46.53887" lon="0.33143">
        <ele>76.2</ele>
        <time>2021-09-12T09:35:25Z</time>
      </trkpt>
      <trkpt lat="46.5389" lon="0.33157">
        <ele>75.8</ele>
        <time>2021-09-12T09:35:27Z</time>
      </trkpt>
      <trkpt lat="46.53893" lon="0.33164">
        <ele>75.2</ele>
        <time>2021-09-12T09:35:29Z</time>
      </trkpt>
      <trkpt lat="46.53893" lon="0.33175">
        <ele>74.8</ele>
        <time>2021-09-12T09:35:34Z</time>
      </trkpt>
      <trkpt lat="46.53894" lon="0.3318">
        <ele>74.4</ele>
        <time>2021-09-12T09:35:37Z</time>
      </trkpt>
      <trkpt lat="46.53896" lon="0.33185">
        <ele>73.8</ele>
        <time>2021-09-12T09:35:45Z</time>
      </trkpt>
      <trkpt lat="46.53896" lon="0.33186">
        <ele>73.6</ele>
        <time>2021-09-12T09:35:55Z</time>
      </trkpt>
      <trkpt lat="46.53896" lon="0.33186">
        <ele>73.8</ele>
        <time>2021-09-12T09:36:09Z</time>
      </trkpt>
      <trkpt lat="46.53897" lon="0.33185">
        <ele>73.6</ele>
        <time>2021-09-12T09:36:19Z</time>
      </trkpt>
      <trkpt lat="46.53894" lon="0.33186">
        <ele>74</ele>
        <time>2021-09-12T09:36:31Z</time>
      </trkpt>
      <trkpt lat="46.53897" lon="0.33184">
        <ele>73.6</ele>
        <time>2021-09-12T09:36:46Z</time>
      </trkpt>
      <trkpt lat="46.53896" lon="0.33184">
        <ele>73.6</ele>
        <time>2021-09-12T09:36:58Z</time>
      </trkpt>
      <trkpt lat="46.53893" lon="0.3318">
        <ele>73.6</ele>
        <time>2021-09-12T09:37:11Z</time>
      </trkpt>
      <trkpt lat="46.53893" lon="0.3318">
        <ele>73.6</ele>
        <time>2021-09-12T09:37:22Z</time>
      </trkpt>
      <trkpt lat="46.53893" lon="0.3318">
        <ele>73.6</ele>
        <time>2021-09-12T09:37:35Z</time>
      </trkpt>
      <trkpt lat="46.53892" lon="0.3318">
        <ele>73.6</ele>
        <time>2021-09-12T09:37:49Z</time>
      </trkpt>
      <trkpt lat="46.53892" lon="0.3318">
        <ele>73.6</ele>
        <time>2021-09-12T09:38:03Z</time>
      </trkpt>
      <trkpt lat="46.53894" lon="0.33182">
        <ele>73.6</ele>
        <time>2021-09-12T09:38:16Z</time>
      </trkpt>
      <trkpt lat="46.53894" lon="0.33182">
        <ele>73.6</ele>
        <time>2021-09-12T09:38:32Z</time>
      </trkpt>
      <trkpt lat="46.53896" lon="0.33184">
        <ele>73.6</ele>
        <time>2021-09-12T09:38:47Z</time>
      </trkpt>
      <trkpt lat="46.53896" lon="0.33183">
        <ele>73.6</ele>
        <time>2021-09-12T09:38:59Z</time>
      </trkpt>
      <trkpt lat="46.53898" lon="0.33184">
        <ele>73.6</ele>
        <time>2021-09-12T09:39:12Z</time>
      </trkpt>
      <trkpt lat="46.53902" lon="0.33187">
        <ele>73.6</ele>
        <time>2021-09-12T09:39:23Z</time>
      </trkpt>
      <trkpt lat="46.53905" lon="0.33186">
        <ele>73.6</ele>
        <time>2021-09-12T09:39:37Z</time>
      </trkpt>
      <trkpt lat="46.53915" lon="0.33184">
        <ele>73.6</ele>
        <time>2021-09-12T09:39:52Z</time>
      </trkpt>
      <trkpt lat="46.53925" lon="0.33184">
        <ele>73.6</ele>
        <time>2021-09-12T09:40:05Z</time>
      </trkpt>
      <trkpt lat="46.53928" lon="0.33187">
        <ele>73.6</ele>
        <time>2021-09-12T09:40:16Z</time>
      </trkpt>
      <trkpt lat="46.53931" lon="0.33187">
        <ele>73.6</ele>
        <time>2021-09-12T09:40:26Z</time>
      </trkpt>
      <trkpt lat="46.53933" lon="0.33187">
        <ele>73.6</ele>
        <time>2021-09-12T09:40:29Z</time>
      </trkpt>
      <trkpt lat="46.53933" lon="0.33187">
        <ele>73.6</ele>
        <time>2021-09-12T09:40:31Z</time>
      </trkpt>
      <trkpt lat="46.53934" lon="0.33186">
        <ele>73.4</ele>
        <time>2021-09-12T09:40:36Z</time>
      </trkpt>
      <trkpt lat="46.53937" lon="0.33186">
        <ele>73.2</ele>
        <time>2021-09-12T09:40:42Z</time>
      </trkpt>
      <trkpt lat="46.53938" lon="0.33186">
        <ele>73</ele>
        <time>2021-09-12T09:40:55Z</time>
      </trkpt>
      <trkpt lat="46.53941" lon="0.33187">
        <ele>73</ele>
        <time>2021-09-12T09:41:12Z</time>
      </trkpt>
      <trkpt lat="46.53941" lon="0.33183">
        <ele>73.4</ele>
        <time>2021-09-12T09:41:23Z</time>
      </trkpt>
      <trkpt lat="46.53937" lon="0.33164">
        <ele>73.4</ele>
        <time>2021-09-12T09:41:30Z</time>
      </trkpt>
      <trkpt lat="46.53934" lon="0.33148">
        <ele>73.4</ele>
        <time>2021-09-12T09:41:34Z</time>
      </trkpt>
      <trkpt lat="46.53933" lon="0.33142">
        <ele>73.4</ele>
        <time>2021-09-12T09:41:35Z</time>
      </trkpt>
      <trkpt lat="46.53933" lon="0.33132">
        <ele>73.6</ele>
        <time>2021-09-12T09:41:37Z</time>
      </trkpt>
      <trkpt lat="46.53934" lon="0.33118">
        <ele>73.4</ele>
        <time>2021-09-12T09:41:40Z</time>
      </trkpt>
      <trkpt lat="46.53933" lon="0.33111">
        <ele>73.6</ele>
        <time>2021-09-12T09:41:41Z</time>
      </trkpt>
      <trkpt lat="46.53935" lon="0.33096">
        <ele>73.6</ele>
        <time>2021-09-12T09:41:43Z</time>
      </trkpt>
      <trkpt lat="46.53936" lon="0.3309">
        <ele>73.6</ele>
        <time>2021-09-12T09:41:44Z</time>
      </trkpt>
      <trkpt lat="46.53938" lon="0.33079">
        <ele>73.4</ele>
        <time>2021-09-12T09:41:46Z</time>
      </trkpt>
      <trkpt lat="46.53943" lon="0.3307">
        <ele>73.4</ele>
        <time>2021-09-12T09:41:48Z</time>
      </trkpt>
      <trkpt lat="46.53947" lon="0.33069">
        <ele>73.4</ele>
        <time>2021-09-12T09:41:49Z</time>
      </trkpt>
      <trkpt lat="46.5395" lon="0.33068">
        <ele>73.2</ele>
        <time>2021-09-12T09:41:50Z</time>
      </trkpt>
      <trkpt lat="46.53957" lon="0.33067">
        <ele>73.2</ele>
        <time>2021-09-12T09:41:52Z</time>
      </trkpt>
      <trkpt lat="46.5396" lon="0.33065">
        <ele>73.2</ele>
        <time>2021-09-12T09:41:53Z</time>
      </trkpt>
      <trkpt lat="46.53963" lon="0.33064">
        <ele>73.2</ele>
        <time>2021-09-12T09:41:54Z</time>
      </trkpt>
      <trkpt lat="46.53972" lon="0.33056">
        <ele>73.4</ele>
        <time>2021-09-12T09:41:57Z</time>
      </trkpt>
      <trkpt lat="46.53984" lon="0.33045">
        <ele>73.4</ele>
        <time>2021-09-12T09:42:01Z</time>
      </trkpt>
      <trkpt lat="46.53991" lon="0.33044">
        <ele>73.4</ele>
        <time>2021-09-12T09:42:03Z</time>
      </trkpt>
      <trkpt lat="46.53997" lon="0.33047">
        <ele>73.4</ele>
        <time>2021-09-12T09:42:05Z</time>
      </trkpt>
      <trkpt lat="46.54002" lon="0.33053">
        <ele>73.8</ele>
        <time>2021-09-12T09:42:07Z</time>
      </trkpt>
      <trkpt lat="46.54014" lon="0.33067">
        <ele>74.6</ele>
        <time>2021-09-12T09:42:12Z</time>
      </trkpt>
      <trkpt lat="46.54016" lon="0.33069">
        <ele>74.8</ele>
        <time>2021-09-12T09:42:13Z</time>
      </trkpt>
      <trkpt lat="46.54023" lon="0.33076">
        <ele>76</ele>
        <time>2021-09-12T09:42:16Z</time>
      </trkpt>
      <trkpt lat="46.54034" lon="0.33085">
        <ele>77</ele>
        <time>2021-09-12T09:42:20Z</time>
      </trkpt>
      <trkpt lat="46.54036" lon="0.33087">
        <ele>77.2</ele>
        <time>2021-09-12T09:42:21Z</time>
      </trkpt>
      <trkpt lat="46.54037" lon="0.33095">
        <ele>77.8</ele>
        <time>2021-09-12T09:42:23Z</time>
      </trkpt>
      <trkpt lat="46.54038" lon="0.331">
        <ele>78</ele>
        <time>2021-09-12T09:42:24Z</time>
      </trkpt>
      <trkpt lat="46.54033" lon="0.33113">
        <ele>78.2</ele>
        <time>2021-09-12T09:42:27Z</time>
      </trkpt>
      <trkpt lat="46.54029" lon="0.3312">
        <ele>78.4</ele>
        <time>2021-09-12T09:42:29Z</time>
      </trkpt>
      <trkpt lat="46.54027" lon="0.33136">
        <ele>79.4</ele>
        <time>2021-09-12T09:42:34Z</time>
      </trkpt>
      <trkpt lat="46.54027" lon="0.33138">
        <ele>79.8</ele>
        <time>2021-09-12T09:42:35Z</time>
      </trkpt>
      <trkpt lat="46.54028" lon="0.33151">
        <ele>80.8</ele>
        <time>2021-09-12T09:42:39Z</time>
      </trkpt>
      <trkpt lat="46.54028" lon="0.33157">
        <ele>81.2</ele>
        <time>2021-09-12T09:42:41Z</time>
      </trkpt>
      <trkpt lat="46.54028" lon="0.3317">
        <ele>81.8</ele>
        <time>2021-09-12T09:42:45Z</time>
      </trkpt>
      <trkpt lat="46.54027" lon="0.33183">
        <ele>82.6</ele>
        <time>2021-09-12T09:42:49Z</time>
      </trkpt>
      <trkpt lat="46.54026" lon="0.33195">
        <ele>83</ele>
        <time>2021-09-12T09:42:52Z</time>
      </trkpt>
      <trkpt lat="46.54026" lon="0.33209">
        <ele>83.8</ele>
        <time>2021-09-12T09:42:56Z</time>
      </trkpt>
      <trkpt lat="46.54028" lon="0.33216">
        <ele>84</ele>
        <time>2021-09-12T09:42:58Z</time>
      </trkpt>
      <trkpt lat="46.54029" lon="0.33229">
        <ele>84.6</ele>
        <time>2021-09-12T09:43:02Z</time>
      </trkpt>
      <trkpt lat="46.54029" lon="0.33243">
        <ele>85</ele>
        <time>2021-09-12T09:43:06Z</time>
      </trkpt>
      <trkpt lat="46.5403" lon="0.33255">
        <ele>85.8</ele>
        <time>2021-09-12T09:43:09Z</time>
      </trkpt>
      <trkpt lat="46.54032" lon="0.33262">
        <ele>86</ele>
        <time>2021-09-12T09:43:11Z</time>
      </trkpt>
      <trkpt lat="46.54036" lon="0.33289">
        <ele>86.4</ele>
        <time>2021-09-12T09:43:16Z</time>
      </trkpt>
      <trkpt lat="46.54041" lon="0.3333">
        <ele>86.8</ele>
        <time>2021-09-12T09:43:23Z</time>
      </trkpt>
      <trkpt lat="46.54046" lon="0.33382">
        <ele>87</ele>
        <time>2021-09-12T09:43:31Z</time>
      </trkpt>
      <trkpt lat="46.5405" lon="0.3341">
        <ele>87</ele>
        <time>2021-09-12T09:43:35Z</time>
      </trkpt>
      <trkpt lat="46.54053" lon="0.3342">
        <ele>87.2</ele>
        <time>2021-09-12T09:43:37Z</time>
      </trkpt>
      <trkpt lat="46.54054" lon="0.33424">
        <ele>87.4</ele>
        <time>2021-09-12T09:43:38Z</time>
      </trkpt>
      <trkpt lat="46.54063" lon="0.33441">
        <ele>88</ele>
        <time>2021-09-12T09:43:42Z</time>
      </trkpt>
      <trkpt lat="46.54069" lon="0.33452">
        <ele>88.6</ele>
        <time>2021-09-12T09:43:45Z</time>
      </trkpt>
      <trkpt lat="46.54074" lon="0.33462">
        <ele>89</ele>
        <time>2021-09-12T09:43:48Z</time>
      </trkpt>
      <trkpt lat="46.54081" lon="0.33472">
        <ele>89.6</ele>
        <time>2021-09-12T09:43:51Z</time>
      </trkpt>
      <trkpt lat="46.54087" lon="0.33485">
        <ele>90.4</ele>
        <time>2021-09-12T09:43:55Z</time>
      </trkpt>
      <trkpt lat="46.54092" lon="0.33495">
        <ele>90.6</ele>
        <time>2021-09-12T09:43:58Z</time>
      </trkpt>
      <trkpt lat="46.54098" lon="0.33508">
        <ele>91.2</ele>
        <time>2021-09-12T09:44:02Z</time>
      </trkpt>
      <trkpt lat="46.54103" lon="0.33521">
        <ele>91.8</ele>
        <time>2021-09-12T09:44:06Z</time>
      </trkpt>
      <trkpt lat="46.54106" lon="0.33533">
        <ele>92.6</ele>
        <time>2021-09-12T09:44:10Z</time>
      </trkpt>
      <trkpt lat="46.5411" lon="0.33541">
        <ele>93</ele>
        <time>2021-09-12T09:44:13Z</time>
      </trkpt>
      <trkpt lat="46.54115" lon="0.33555">
        <ele>93.8</ele>
        <time>2021-09-12T09:44:18Z</time>
      </trkpt>
      <trkpt lat="46.54117" lon="0.33557">
        <ele>94</ele>
        <time>2021-09-12T09:44:19Z</time>
      </trkpt>
      <trkpt lat="46.54122" lon="0.33573">
        <ele>95</ele>
        <time>2021-09-12T09:44:24Z</time>
      </trkpt>
      <trkpt lat="46.54124" lon="0.3358">
        <ele>95.4</ele>
        <time>2021-09-12T09:44:26Z</time>
      </trkpt>
      <trkpt lat="46.54128" lon="0.33597">
        <ele>96.4</ele>
        <time>2021-09-12T09:44:32Z</time>
      </trkpt>
      <trkpt lat="46.5413" lon="0.33608">
        <ele>96.8</ele>
        <time>2021-09-12T09:44:35Z</time>
      </trkpt>
      <trkpt lat="46.54134" lon="0.33623">
        <ele>97.4</ele>
        <time>2021-09-12T09:44:39Z</time>
      </trkpt>
      <trkpt lat="46.54135" lon="0.33626">
        <ele>97.6</ele>
        <time>2021-09-12T09:44:40Z</time>
      </trkpt>
      <trkpt lat="46.54138" lon="0.33637">
        <ele>98.2</ele>
        <time>2021-09-12T09:44:43Z</time>
      </trkpt>
      <trkpt lat="46.54141" lon="0.33644">
        <ele>98.6</ele>
        <time>2021-09-12T09:44:45Z</time>
      </trkpt>
      <trkpt lat="46.54146" lon="0.33664">
        <ele>99.6</ele>
        <time>2021-09-12T09:44:51Z</time>
      </trkpt>
      <trkpt lat="46.54147" lon="0.33668">
        <ele>99.8</ele>
        <time>2021-09-12T09:44:52Z</time>
      </trkpt>
      <trkpt lat="46.54153" lon="0.33688">
        <ele>100.6</ele>
        <time>2021-09-12T09:44:58Z</time>
      </trkpt>
      <trkpt lat="46.54157" lon="0.33704">
        <ele>101.8</ele>
        <time>2021-09-12T09:45:04Z</time>
      </trkpt>
      <trkpt lat="46.54161" lon="0.33721">
        <ele>102.6</ele>
        <time>2021-09-12T09:45:10Z</time>
      </trkpt>
      <trkpt lat="46.54161" lon="0.33727">
        <ele>103</ele>
        <time>2021-09-12T09:45:12Z</time>
      </trkpt>
      <trkpt lat="46.54164" lon="0.33741">
        <ele>103.8</ele>
        <time>2021-09-12T09:45:16Z</time>
      </trkpt>
      <trkpt lat="46.54166" lon="0.33751">
        <ele>104.2</ele>
        <time>2021-09-12T09:45:19Z</time>
      </trkpt>
      <trkpt lat="46.54168" lon="0.33765">
        <ele>104.8</ele>
        <time>2021-09-12T09:45:23Z</time>
      </trkpt>
      <trkpt lat="46.54169" lon="0.33771">
        <ele>105.4</ele>
        <time>2021-09-12T09:45:25Z</time>
      </trkpt>
      <trkpt lat="46.54175" lon="0.33796">
        <ele>106.4</ele>
        <time>2021-09-12T09:45:32Z</time>
      </trkpt>
      <trkpt lat="46.54175" lon="0.338">
        <ele>106.6</ele>
        <time>2021-09-12T09:45:33Z</time>
      </trkpt>
      <trkpt lat="46.54178" lon="0.33819">
        <ele>107.6</ele>
        <time>2021-09-12T09:45:39Z</time>
      </trkpt>
      <trkpt lat="46.54182" lon="0.33844">
        <ele>108.6</ele>
        <time>2021-09-12T09:45:46Z</time>
      </trkpt>
      <trkpt lat="46.54183" lon="0.33847">
        <ele>108.8</ele>
        <time>2021-09-12T09:45:47Z</time>
      </trkpt>
      <trkpt lat="46.54186" lon="0.33865">
        <ele>109.8</ele>
        <time>2021-09-12T09:45:52Z</time>
      </trkpt>
      <trkpt lat="46.54187" lon="0.33875">
        <ele>110.4</ele>
        <time>2021-09-12T09:45:55Z</time>
      </trkpt>
      <trkpt lat="46.5419" lon="0.33888">
        <ele>111</ele>
        <time>2021-09-12T09:45:59Z</time>
      </trkpt>
      <trkpt lat="46.54191" lon="0.33899">
        <ele>111.4</ele>
        <time>2021-09-12T09:46:02Z</time>
      </trkpt>
      <trkpt lat="46.54194" lon="0.33914">
        <ele>111.8</ele>
        <time>2021-09-12T09:46:06Z</time>
      </trkpt>
      <trkpt lat="46.54195" lon="0.33917">
        <ele>112</ele>
        <time>2021-09-12T09:46:07Z</time>
      </trkpt>
      <trkpt lat="46.54198" lon="0.33932">
        <ele>112.6</ele>
        <time>2021-09-12T09:46:11Z</time>
      </trkpt>
      <trkpt lat="46.54195" lon="0.33953">
        <ele>113</ele>
        <time>2021-09-12T09:46:16Z</time>
      </trkpt>
      <trkpt lat="46.54192" lon="0.33971">
        <ele>112.6</ele>
        <time>2021-09-12T09:46:21Z</time>
      </trkpt>
      <trkpt lat="46.54192" lon="0.33976">
        <ele>112.4</ele>
        <time>2021-09-12T09:46:22Z</time>
      </trkpt>
      <trkpt lat="46.54193" lon="0.33985">
        <ele>112.4</ele>
        <time>2021-09-12T09:46:24Z</time>
      </trkpt>
      <trkpt lat="46.54195" lon="0.3399">
        <ele>112.2</ele>
        <time>2021-09-12T09:46:25Z</time>
      </trkpt>
      <trkpt lat="46.54198" lon="0.34011">
        <ele>112.4</ele>
        <time>2021-09-12T09:46:30Z</time>
      </trkpt>
      <trkpt lat="46.54195" lon="0.34026">
        <ele>112.2</ele>
        <time>2021-09-12T09:46:34Z</time>
      </trkpt>
      <trkpt lat="46.54189" lon="0.34048">
        <ele>112</ele>
        <time>2021-09-12T09:46:39Z</time>
      </trkpt>
      <trkpt lat="46.54188" lon="0.34054">
        <ele>112</ele>
        <time>2021-09-12T09:46:40Z</time>
      </trkpt>
      <trkpt lat="46.54184" lon="0.34073">
        <ele>112.8</ele>
        <time>2021-09-12T09:46:45Z</time>
      </trkpt>
      <trkpt lat="46.54182" lon="0.3408">
        <ele>113.2</ele>
        <time>2021-09-12T09:46:47Z</time>
      </trkpt>
      <trkpt lat="46.54179" lon="0.34089">
        <ele>113.2</ele>
        <time>2021-09-12T09:46:49Z</time>
      </trkpt>
      <trkpt lat="46.54166" lon="0.34114">
        <ele>113.4</ele>
        <time>2021-09-12T09:46:54Z</time>
      </trkpt>
      <trkpt lat="46.54155" lon="0.34141">
        <ele>112.2</ele>
        <time>2021-09-12T09:46:59Z</time>
      </trkpt>
      <trkpt lat="46.54153" lon="0.34146">
        <ele>112</ele>
        <time>2021-09-12T09:47:00Z</time>
      </trkpt>
      <trkpt lat="46.5415" lon="0.34161">
        <ele>110.8</ele>
        <time>2021-09-12T09:47:03Z</time>
      </trkpt>
      <trkpt lat="46.54148" lon="0.34166">
        <ele>110.6</ele>
        <time>2021-09-12T09:47:04Z</time>
      </trkpt>
      <trkpt lat="46.54147" lon="0.34173">
        <ele>110.6</ele>
        <time>2021-09-12T09:47:05Z</time>
      </trkpt>
      <trkpt lat="46.5414" lon="0.34197">
        <ele>110.6</ele>
        <time>2021-09-12T09:47:09Z</time>
      </trkpt>
      <trkpt lat="46.54133" lon="0.34214">
        <ele>111.6</ele>
        <time>2021-09-12T09:47:14Z</time>
      </trkpt>
      <trkpt lat="46.54122" lon="0.34238">
        <ele>110.8</ele>
        <time>2021-09-12T09:47:20Z</time>
      </trkpt>
      <trkpt lat="46.54115" lon="0.3425">
        <ele>110</ele>
        <time>2021-09-12T09:47:23Z</time>
      </trkpt>
      <trkpt lat="46.54111" lon="0.34252">
        <ele>109.8</ele>
        <time>2021-09-12T09:47:24Z</time>
      </trkpt>
      <trkpt lat="46.54109" lon="0.34255">
        <ele>109.6</ele>
        <time>2021-09-12T09:47:25Z</time>
      </trkpt>
      <trkpt lat="46.54106" lon="0.34263">
        <ele>108.6</ele>
        <time>2021-09-12T09:47:27Z</time>
      </trkpt>
      <trkpt lat="46.54104" lon="0.34268">
        <ele>108</ele>
        <time>2021-09-12T09:47:28Z</time>
      </trkpt>
      <trkpt lat="46.54098" lon="0.34284">
        <ele>107.2</ele>
        <time>2021-09-12T09:47:33Z</time>
      </trkpt>
      <trkpt lat="46.54095" lon="0.34289">
        <ele>106</ele>
        <time>2021-09-12T09:47:36Z</time>
      </trkpt>
      <trkpt lat="46.54095" lon="0.34291">
        <ele>106</ele>
        <time>2021-09-12T09:47:37Z</time>
      </trkpt>
      <trkpt lat="46.54096" lon="0.34304">
        <ele>105.4</ele>
        <time>2021-09-12T09:47:42Z</time>
      </trkpt>
      <trkpt lat="46.54096" lon="0.3431">
        <ele>105.2</ele>
        <time>2021-09-12T09:47:44Z</time>
      </trkpt>
      <trkpt lat="46.54093" lon="0.34315">
        <ele>104.8</ele>
        <time>2021-09-12T09:47:46Z</time>
      </trkpt>
      <trkpt lat="46.5409" lon="0.34319">
        <ele>103.8</ele>
        <time>2021-09-12T09:47:47Z</time>
      </trkpt>
      <trkpt lat="46.54086" lon="0.34325">
        <ele>102.6</ele>
        <time>2021-09-12T09:47:49Z</time>
      </trkpt>
      <trkpt lat="46.54081" lon="0.34331">
        <ele>102</ele>
        <time>2021-09-12T09:47:51Z</time>
      </trkpt>
      <trkpt lat="46.5407" lon="0.34344">
        <ele>100.8</ele>
        <time>2021-09-12T09:47:54Z</time>
      </trkpt>
      <trkpt lat="46.54065" lon="0.34349">
        <ele>100.4</ele>
        <time>2021-09-12T09:47:55Z</time>
      </trkpt>
      <trkpt lat="46.54062" lon="0.34354">
        <ele>99.8</ele>
        <time>2021-09-12T09:47:56Z</time>
      </trkpt>
      <trkpt lat="46.54057" lon="0.34365">
        <ele>99.2</ele>
        <time>2021-09-12T09:47:58Z</time>
      </trkpt>
      <trkpt lat="46.54055" lon="0.3437">
        <ele>99</ele>
        <time>2021-09-12T09:47:59Z</time>
      </trkpt>
      <trkpt lat="46.54051" lon="0.34376">
        <ele>99</ele>
        <time>2021-09-12T09:48:00Z</time>
      </trkpt>
      <trkpt lat="46.54042" lon="0.34383">
        <ele>98.8</ele>
        <time>2021-09-12T09:48:02Z</time>
      </trkpt>
      <trkpt lat="46.54037" lon="0.34385">
        <ele>98.6</ele>
        <time>2021-09-12T09:48:03Z</time>
      </trkpt>
      <trkpt lat="46.54024" lon="0.34385">
        <ele>98</ele>
        <time>2021-09-12T09:48:07Z</time>
      </trkpt>
      <trkpt lat="46.54023" lon="0.34384">
        <ele>97.8</ele>
        <time>2021-09-12T09:48:08Z</time>
      </trkpt>
      <trkpt lat="46.54021" lon="0.3438">
        <ele>97.6</ele>
        <time>2021-09-12T09:48:11Z</time>
      </trkpt>
      <trkpt lat="46.54021" lon="0.34371">
        <ele>96.4</ele>
        <time>2021-09-12T09:48:14Z</time>
      </trkpt>
      <trkpt lat="46.54022" lon="0.34368">
        <ele>95.8</ele>
        <time>2021-09-12T09:48:15Z</time>
      </trkpt>
      <trkpt lat="46.54023" lon="0.34365">
        <ele>94.8</ele>
        <time>2021-09-12T09:48:16Z</time>
      </trkpt>
      <trkpt lat="46.54023" lon="0.34364">
        <ele>93.6</ele>
        <time>2021-09-12T09:48:17Z</time>
      </trkpt>
      <trkpt lat="46.54023" lon="0.34362">
        <ele>93</ele>
        <time>2021-09-12T09:48:18Z</time>
      </trkpt>
      <trkpt lat="46.54022" lon="0.3436">
        <ele>92.4</ele>
        <time>2021-09-12T09:48:19Z</time>
      </trkpt>
      <trkpt lat="46.5402" lon="0.34357">
        <ele>91</ele>
        <time>2021-09-12T09:48:20Z</time>
      </trkpt>
      <trkpt lat="46.54017" lon="0.34355">
        <ele>89.6</ele>
        <time>2021-09-12T09:48:21Z</time>
      </trkpt>
      <trkpt lat="46.54013" lon="0.34349">
        <ele>87.2</ele>
        <time>2021-09-12T09:48:23Z</time>
      </trkpt>
      <trkpt lat="46.5401" lon="0.34347">
        <ele>85</ele>
        <time>2021-09-12T09:48:24Z</time>
      </trkpt>
      <trkpt lat="46.54008" lon="0.34344">
        <ele>83.6</ele>
        <time>2021-09-12T09:48:25Z</time>
      </trkpt>
      <trkpt lat="46.54006" lon="0.34341">
        <ele>81.4</ele>
        <time>2021-09-12T09:48:26Z</time>
      </trkpt>
      <trkpt lat="46.54004" lon="0.3434">
        <ele>80</ele>
        <time>2021-09-12T09:48:27Z</time>
      </trkpt>
      <trkpt lat="46.54003" lon="0.34337">
        <ele>79.2</ele>
        <time>2021-09-12T09:48:28Z</time>
      </trkpt>
      <trkpt lat="46.54001" lon="0.34334">
        <ele>77.6</ele>
        <time>2021-09-12T09:48:29Z</time>
      </trkpt>
      <trkpt lat="46.53998" lon="0.3433">
        <ele>76.4</ele>
        <time>2021-09-12T09:48:30Z</time>
      </trkpt>
      <trkpt lat="46.53996" lon="0.34328">
        <ele>75.6</ele>
        <time>2021-09-12T09:48:31Z</time>
      </trkpt>
      <trkpt lat="46.53994" lon="0.34329">
        <ele>75.2</ele>
        <time>2021-09-12T09:48:32Z</time>
      </trkpt>
      <trkpt lat="46.53984" lon="0.34337">
        <ele>74.6</ele>
        <time>2021-09-12T09:48:37Z</time>
      </trkpt>
      <trkpt lat="46.53966" lon="0.34353">
        <ele>75.4</ele>
        <time>2021-09-12T09:48:44Z</time>
      </trkpt>
      <trkpt lat="46.53952" lon="0.34364">
        <ele>76.4</ele>
        <time>2021-09-12T09:48:50Z</time>
      </trkpt>
      <trkpt lat="46.5395" lon="0.34366">
        <ele>76.4</ele>
        <time>2021-09-12T09:48:51Z</time>
      </trkpt>
      <trkpt lat="46.53938" lon="0.34378">
        <ele>77.4</ele>
        <time>2021-09-12T09:48:56Z</time>
      </trkpt>
      <trkpt lat="46.53934" lon="0.34384">
        <ele>77.6</ele>
        <time>2021-09-12T09:48:58Z</time>
      </trkpt>
      <trkpt lat="46.53923" lon="0.34402">
        <ele>78.8</ele>
        <time>2021-09-12T09:49:04Z</time>
      </trkpt>
      <trkpt lat="46.53921" lon="0.34408">
        <ele>79.2</ele>
        <time>2021-09-12T09:49:06Z</time>
      </trkpt>
      <trkpt lat="46.53918" lon="0.34416">
        <ele>80.2</ele>
        <time>2021-09-12T09:49:09Z</time>
      </trkpt>
      <trkpt lat="46.53917" lon="0.34423">
        <ele>80.6</ele>
        <time>2021-09-12T09:49:12Z</time>
      </trkpt>
      <trkpt lat="46.53918" lon="0.34429">
        <ele>81.4</ele>
        <time>2021-09-12T09:49:15Z</time>
      </trkpt>
      <trkpt lat="46.5392" lon="0.34437">
        <ele>82.4</ele>
        <time>2021-09-12T09:49:19Z</time>
      </trkpt>
      <trkpt lat="46.53921" lon="0.34439">
        <ele>82.6</ele>
        <time>2021-09-12T09:49:20Z</time>
      </trkpt>
      <trkpt lat="46.53923" lon="0.34448">
        <ele>83.6</ele>
        <time>2021-09-12T09:49:25Z</time>
      </trkpt>
      <trkpt lat="46.53926" lon="0.34455">
        <ele>84.4</ele>
        <time>2021-09-12T09:49:29Z</time>
      </trkpt>
      <trkpt lat="46.53927" lon="0.34457">
        <ele>84.8</ele>
        <time>2021-09-12T09:49:30Z</time>
      </trkpt>
      <trkpt lat="46.53927" lon="0.3447">
        <ele>85.6</ele>
        <time>2021-09-12T09:49:35Z</time>
      </trkpt>
      <trkpt lat="46.53924" lon="0.34475">
        <ele>85.8</ele>
        <time>2021-09-12T09:49:37Z</time>
      </trkpt>
      <trkpt lat="46.53922" lon="0.34477">
        <ele>86</ele>
        <time>2021-09-12T09:49:38Z</time>
      </trkpt>
      <trkpt lat="46.53919" lon="0.34479">
        <ele>86</ele>
        <time>2021-09-12T09:49:39Z</time>
      </trkpt>
      <trkpt lat="46.53901" lon="0.34487">
        <ele>86</ele>
        <time>2021-09-12T09:49:44Z</time>
      </trkpt>
      <trkpt lat="46.53872" lon="0.34497">
        <ele>86.4</ele>
        <time>2021-09-12T09:49:51Z</time>
      </trkpt>
      <trkpt lat="46.53857" lon="0.34499">
        <ele>87</ele>
        <time>2021-09-12T09:49:55Z</time>
      </trkpt>
      <trkpt lat="46.53845" lon="0.34499">
        <ele>87.2</ele>
        <time>2021-09-12T09:49:59Z</time>
      </trkpt>
      <trkpt lat="46.53828" lon="0.34491">
        <ele>87.2</ele>
        <time>2021-09-12T09:50:04Z</time>
      </trkpt>
      <trkpt lat="46.53819" lon="0.34488">
        <ele>87.2</ele>
        <time>2021-09-12T09:50:06Z</time>
      </trkpt>
      <trkpt lat="46.53801" lon="0.34482">
        <ele>87</ele>
        <time>2021-09-12T09:50:10Z</time>
      </trkpt>
      <trkpt lat="46.53774" lon="0.34474">
        <ele>87</ele>
        <time>2021-09-12T09:50:16Z</time>
      </trkpt>
      <trkpt lat="46.53761" lon="0.34469">
        <ele>87</ele>
        <time>2021-09-12T09:50:19Z</time>
      </trkpt>
      <trkpt lat="46.53742" lon="0.34461">
        <ele>87</ele>
        <time>2021-09-12T09:50:23Z</time>
      </trkpt>
      <trkpt lat="46.53727" lon="0.34455">
        <ele>87</ele>
        <time>2021-09-12T09:50:26Z</time>
      </trkpt>
      <trkpt lat="46.53705" lon="0.34445">
        <ele>86.6</ele>
        <time>2021-09-12T09:50:30Z</time>
      </trkpt>
      <trkpt lat="46.53667" lon="0.34425">
        <ele>85.8</ele>
        <time>2021-09-12T09:50:37Z</time>
      </trkpt>
      <trkpt lat="46.53662" lon="0.34423">
        <ele>85.8</ele>
        <time>2021-09-12T09:50:38Z</time>
      </trkpt>
      <trkpt lat="46.53622" lon="0.3441">
        <ele>84.8</ele>
        <time>2021-09-12T09:50:45Z</time>
      </trkpt>
      <trkpt lat="46.53616" lon="0.34409">
        <ele>84.8</ele>
        <time>2021-09-12T09:50:46Z</time>
      </trkpt>
      <trkpt lat="46.5361" lon="0.34409">
        <ele>84.8</ele>
        <time>2021-09-12T09:50:47Z</time>
      </trkpt>
      <trkpt lat="46.53587" lon="0.34409">
        <ele>84.2</ele>
        <time>2021-09-12T09:50:51Z</time>
      </trkpt>
      <trkpt lat="46.53569" lon="0.34401">
        <ele>83.8</ele>
        <time>2021-09-12T09:50:54Z</time>
      </trkpt>
      <trkpt lat="46.53564" lon="0.34397">
        <ele>83.8</ele>
        <time>2021-09-12T09:50:55Z</time>
      </trkpt>
      <trkpt lat="46.53545" lon="0.34381">
        <ele>84</ele>
        <time>2021-09-12T09:50:59Z</time>
      </trkpt>
      <trkpt lat="46.53536" lon="0.34375">
        <ele>84.6</ele>
        <time>2021-09-12T09:51:01Z</time>
      </trkpt>
      <trkpt lat="46.53528" lon="0.3437">
        <ele>84.8</ele>
        <time>2021-09-12T09:51:03Z</time>
      </trkpt>
      <trkpt lat="46.53516" lon="0.34364">
        <ele>85.8</ele>
        <time>2021-09-12T09:51:06Z</time>
      </trkpt>
      <trkpt lat="46.53504" lon="0.34359">
        <ele>86</ele>
        <time>2021-09-12T09:51:09Z</time>
      </trkpt>
      <trkpt lat="46.53474" lon="0.34348">
        <ele>87</ele>
        <time>2021-09-12T09:51:17Z</time>
      </trkpt>
      <trkpt lat="46.5345" lon="0.34341">
        <ele>87.4</ele>
        <time>2021-09-12T09:51:23Z</time>
      </trkpt>
      <trkpt lat="46.53446" lon="0.3434">
        <ele>87.6</ele>
        <time>2021-09-12T09:51:24Z</time>
      </trkpt>
      <trkpt lat="46.53429" lon="0.34342">
        <ele>88</ele>
        <time>2021-09-12T09:51:28Z</time>
      </trkpt>
      <trkpt lat="46.53416" lon="0.34342">
        <ele>87.6</ele>
        <time>2021-09-12T09:51:31Z</time>
      </trkpt>
      <trkpt lat="46.53412" lon="0.34342">
        <ele>87.6</ele>
        <time>2021-09-12T09:51:32Z</time>
      </trkpt>
      <trkpt lat="46.53392" lon="0.34335">
        <ele>87.4</ele>
        <time>2021-09-12T09:51:36Z</time>
      </trkpt>
      <trkpt lat="46.53383" lon="0.34331">
        <ele>87</ele>
        <time>2021-09-12T09:51:38Z</time>
      </trkpt>
      <trkpt lat="46.53374" lon="0.34325">
        <ele>87</ele>
        <time>2021-09-12T09:51:40Z</time>
      </trkpt>
      <trkpt lat="46.53372" lon="0.34322">
        <ele>87</ele>
        <time>2021-09-12T09:51:41Z</time>
      </trkpt>
      <trkpt lat="46.53366" lon="0.34317">
        <ele>86.8</ele>
        <time>2021-09-12T09:51:45Z</time>
      </trkpt>
      <trkpt lat="46.53366" lon="0.34318">
        <ele>86.8</ele>
        <time>2021-09-12T09:51:46Z</time>
      </trkpt>
      <trkpt lat="46.53366" lon="0.34318">
        <ele>86.6</ele>
        <time>2021-09-12T09:51:47Z</time>
      </trkpt>
      <trkpt lat="46.53368" lon="0.34319">
        <ele>86.6</ele>
        <time>2021-09-12T09:51:49Z</time>
      </trkpt>
      <trkpt lat="46.53374" lon="0.34325">
        <ele>86.6</ele>
        <time>2021-09-12T09:51:53Z</time>
      </trkpt>
      <trkpt lat="46.53379" lon="0.34329">
        <ele>86.6</ele>
        <time>2021-09-12T09:51:55Z</time>
      </trkpt>
      <trkpt lat="46.53378" lon="0.34335">
        <ele>86.6</ele>
        <time>2021-09-12T09:51:57Z</time>
      </trkpt>
      <trkpt lat="46.53366" lon="0.34354">
        <ele>86.8</ele>
        <time>2021-09-12T09:52:02Z</time>
      </trkpt>
      <trkpt lat="46.53357" lon="0.34365">
        <ele>87.2</ele>
        <time>2021-09-12T09:52:05Z</time>
      </trkpt>
      <trkpt lat="46.53349" lon="0.34369">
        <ele>87</ele>
        <time>2021-09-12T09:52:07Z</time>
      </trkpt>
      <trkpt lat="46.53345" lon="0.3437">
        <ele>87.2</ele>
        <time>2021-09-12T09:52:08Z</time>
      </trkpt>
      <trkpt lat="46.53328" lon="0.34376">
        <ele>88.2</ele>
        <time>2021-09-12T09:52:13Z</time>
      </trkpt>
      <trkpt lat="46.53325" lon="0.34377">
        <ele>88.2</ele>
        <time>2021-09-12T09:52:14Z</time>
      </trkpt>
      <trkpt lat="46.53308" lon="0.34382">
        <ele>88</ele>
        <time>2021-09-12T09:52:20Z</time>
      </trkpt>
      <trkpt lat="46.53288" lon="0.34384">
        <ele>88.6</ele>
        <time>2021-09-12T09:52:26Z</time>
      </trkpt>
      <trkpt lat="46.53275" lon="0.34385">
        <ele>89.2</ele>
        <time>2021-09-12T09:52:30Z</time>
      </trkpt>
      <trkpt lat="46.53268" lon="0.34387">
        <ele>89.6</ele>
        <time>2021-09-12T09:52:32Z</time>
      </trkpt>
      <trkpt lat="46.53247" lon="0.34386">
        <ele>90</ele>
        <time>2021-09-12T09:52:38Z</time>
      </trkpt>
      <trkpt lat="46.53241" lon="0.34384">
        <ele>90.2</ele>
        <time>2021-09-12T09:52:40Z</time>
      </trkpt>
      <trkpt lat="46.53228" lon="0.3438">
        <ele>90.8</ele>
        <time>2021-09-12T09:52:44Z</time>
      </trkpt>
      <trkpt lat="46.53225" lon="0.34379">
        <ele>91</ele>
        <time>2021-09-12T09:52:45Z</time>
      </trkpt>
      <trkpt lat="46.53217" lon="0.34377">
        <ele>91.2</ele>
        <time>2021-09-12T09:52:48Z</time>
      </trkpt>
      <trkpt lat="46.53204" lon="0.34371">
        <ele>91.4</ele>
        <time>2021-09-12T09:52:52Z</time>
      </trkpt>
      <trkpt lat="46.53181" lon="0.34359">
        <ele>91.4</ele>
        <time>2021-09-12T09:52:57Z</time>
      </trkpt>
      <trkpt lat="46.53162" lon="0.34349">
        <ele>91.6</ele>
        <time>2021-09-12T09:53:01Z</time>
      </trkpt>
      <trkpt lat="46.53153" lon="0.34345">
        <ele>91.8</ele>
        <time>2021-09-12T09:53:03Z</time>
      </trkpt>
      <trkpt lat="46.53144" lon="0.34341">
        <ele>91.8</ele>
        <time>2021-09-12T09:53:04Z</time>
      </trkpt>
      <trkpt lat="46.5313" lon="0.34337">
        <ele>91.8</ele>
        <time>2021-09-12T09:53:08Z</time>
      </trkpt>
      <trkpt lat="46.53121" lon="0.34337">
        <ele>92</ele>
        <time>2021-09-12T09:53:10Z</time>
      </trkpt>
      <trkpt lat="46.53107" lon="0.34341">
        <ele>92.2</ele>
        <time>2021-09-12T09:53:13Z</time>
      </trkpt>
      <trkpt lat="46.5309" lon="0.34345">
        <ele>92.6</ele>
        <time>2021-09-12T09:53:17Z</time>
      </trkpt>
      <trkpt lat="46.53074" lon="0.34349">
        <ele>92.8</ele>
        <time>2021-09-12T09:53:21Z</time>
      </trkpt>
      <trkpt lat="46.5307" lon="0.34349">
        <ele>92.8</ele>
        <time>2021-09-12T09:53:22Z</time>
      </trkpt>
      <trkpt lat="46.53061" lon="0.34348">
        <ele>92.6</ele>
        <time>2021-09-12T09:53:24Z</time>
      </trkpt>
      <trkpt lat="46.53052" lon="0.34344">
        <ele>92.6</ele>
        <time>2021-09-12T09:53:26Z</time>
      </trkpt>
      <trkpt lat="46.53047" lon="0.34342">
        <ele>92.4</ele>
        <time>2021-09-12T09:53:27Z</time>
      </trkpt>
      <trkpt lat="46.53014" lon="0.34336">
        <ele>91.2</ele>
        <time>2021-09-12T09:53:33Z</time>
      </trkpt>
      <trkpt lat="46.53009" lon="0.34337">
        <ele>91.2</ele>
        <time>2021-09-12T09:53:34Z</time>
      </trkpt>
      <trkpt lat="46.52995" lon="0.34338">
        <ele>91</ele>
        <time>2021-09-12T09:53:37Z</time>
      </trkpt>
      <trkpt lat="46.52993" lon="0.3434">
        <ele>90.8</ele>
        <time>2021-09-12T09:53:38Z</time>
      </trkpt>
      <trkpt lat="46.52991" lon="0.34344">
        <ele>90.6</ele>
        <time>2021-09-12T09:53:39Z</time>
      </trkpt>
      <trkpt lat="46.52991" lon="0.34351">
        <ele>90.4</ele>
        <time>2021-09-12T09:53:41Z</time>
      </trkpt>
      <trkpt lat="46.52996" lon="0.34377">
        <ele>90.6</ele>
        <time>2021-09-12T09:53:47Z</time>
      </trkpt>
      <trkpt lat="46.52997" lon="0.34413">
        <ele>91.4</ele>
        <time>2021-09-12T09:53:54Z</time>
      </trkpt>
      <trkpt lat="46.52992" lon="0.34442">
        <ele>92.2</ele>
        <time>2021-09-12T09:54:00Z</time>
      </trkpt>
      <trkpt lat="46.52989" lon="0.34452">
        <ele>92.6</ele>
        <time>2021-09-12T09:54:02Z</time>
      </trkpt>
      <trkpt lat="46.52982" lon="0.34474">
        <ele>93.4</ele>
        <time>2021-09-12T09:54:07Z</time>
      </trkpt>
      <trkpt lat="46.52977" lon="0.3449">
        <ele>94.2</ele>
        <time>2021-09-12T09:54:11Z</time>
      </trkpt>
      <trkpt lat="46.52975" lon="0.34494">
        <ele>94.4</ele>
        <time>2021-09-12T09:54:12Z</time>
      </trkpt>
      <trkpt lat="46.52962" lon="0.34535">
        <ele>95.4</ele>
        <time>2021-09-12T09:54:22Z</time>
      </trkpt>
      <trkpt lat="46.52953" lon="0.34569">
        <ele>96.6</ele>
        <time>2021-09-12T09:54:30Z</time>
      </trkpt>
      <trkpt lat="46.52951" lon="0.34573">
        <ele>96.8</ele>
        <time>2021-09-12T09:54:31Z</time>
      </trkpt>
      <trkpt lat="46.52946" lon="0.34591">
        <ele>97.6</ele>
        <time>2021-09-12T09:54:36Z</time>
      </trkpt>
      <trkpt lat="46.52945" lon="0.34595">
        <ele>97.8</ele>
        <time>2021-09-12T09:54:37Z</time>
      </trkpt>
      <trkpt lat="46.52942" lon="0.34612">
        <ele>98.8</ele>
        <time>2021-09-12T09:54:42Z</time>
      </trkpt>
      <trkpt lat="46.52941" lon="0.34618">
        <ele>99.2</ele>
        <time>2021-09-12T09:54:44Z</time>
      </trkpt>
      <trkpt lat="46.5294" lon="0.34629">
        <ele>100</ele>
        <time>2021-09-12T09:54:48Z</time>
      </trkpt>
      <trkpt lat="46.5294" lon="0.34641">
        <ele>100.6</ele>
        <time>2021-09-12T09:54:52Z</time>
      </trkpt>
      <trkpt lat="46.52936" lon="0.34651">
        <ele>101</ele>
        <time>2021-09-12T09:54:56Z</time>
      </trkpt>
      <trkpt lat="46.52935" lon="0.34654">
        <ele>101.2</ele>
        <time>2021-09-12T09:54:57Z</time>
      </trkpt>
      <trkpt lat="46.52931" lon="0.34671">
        <ele>102</ele>
        <time>2021-09-12T09:55:03Z</time>
      </trkpt>
      <trkpt lat="46.5293" lon="0.34673">
        <ele>102.4</ele>
        <time>2021-09-12T09:55:04Z</time>
      </trkpt>
      <trkpt lat="46.52927" lon="0.34682">
        <ele>103.2</ele>
        <time>2021-09-12T09:55:08Z</time>
      </trkpt>
      <trkpt lat="46.52925" lon="0.34691">
        <ele>104.4</ele>
        <time>2021-09-12T09:55:12Z</time>
      </trkpt>
      <trkpt lat="46.52921" lon="0.34704">
        <ele>105.6</ele>
        <time>2021-09-12T09:55:18Z</time>
      </trkpt>
      <trkpt lat="46.5292" lon="0.34709">
        <ele>106</ele>
        <time>2021-09-12T09:55:20Z</time>
      </trkpt>
      <trkpt lat="46.52919" lon="0.34715">
        <ele>106.6</ele>
        <time>2021-09-12T09:55:23Z</time>
      </trkpt>
      <trkpt lat="46.52916" lon="0.34723">
        <ele>107.4</ele>
        <time>2021-09-12T09:55:27Z</time>
      </trkpt>
      <trkpt lat="46.52915" lon="0.34728">
        <ele>107.8</ele>
        <time>2021-09-12T09:55:29Z</time>
      </trkpt>
      <trkpt lat="46.52913" lon="0.34739">
        <ele>108.8</ele>
        <time>2021-09-12T09:55:34Z</time>
      </trkpt>
      <trkpt lat="46.52913" lon="0.3474">
        <ele>109</ele>
        <time>2021-09-12T09:55:35Z</time>
      </trkpt>
      <trkpt lat="46.52909" lon="0.34753">
        <ele>109.8</ele>
        <time>2021-09-12T09:55:41Z</time>
      </trkpt>
      <trkpt lat="46.52908" lon="0.34757">
        <ele>110.4</ele>
        <time>2021-09-12T09:55:43Z</time>
      </trkpt>
      <trkpt lat="46.52905" lon="0.34765">
        <ele>111</ele>
        <time>2021-09-12T09:55:47Z</time>
      </trkpt>
      <trkpt lat="46.52905" lon="0.34765">
        <ele>112.2</ele>
        <time>2021-09-12T09:55:52Z</time>
      </trkpt>
      <trkpt lat="46.52901" lon="0.34778">
        <ele>112.4</ele>
        <time>2021-09-12T09:55:54Z</time>
      </trkpt>
      <trkpt lat="46.529" lon="0.34788">
        <ele>113.4</ele>
        <time>2021-09-12T09:55:59Z</time>
      </trkpt>
      <trkpt lat="46.52899" lon="0.34792">
        <ele>113.8</ele>
        <time>2021-09-12T09:56:01Z</time>
      </trkpt>
      <trkpt lat="46.52897" lon="0.34802">
        <ele>114.8</ele>
        <time>2021-09-12T09:56:05Z</time>
      </trkpt>
      <trkpt lat="46.52896" lon="0.34811">
        <ele>115.6</ele>
        <time>2021-09-12T09:56:08Z</time>
      </trkpt>
      <trkpt lat="46.52895" lon="0.34814">
        <ele>115.8</ele>
        <time>2021-09-12T09:56:09Z</time>
      </trkpt>
      <trkpt lat="46.52892" lon="0.34829">
        <ele>116.8</ele>
        <time>2021-09-12T09:56:14Z</time>
      </trkpt>
      <trkpt lat="46.52889" lon="0.34837">
        <ele>117.2</ele>
        <time>2021-09-12T09:56:17Z</time>
      </trkpt>
      <trkpt lat="46.52886" lon="0.34845">
        <ele>118</ele>
        <time>2021-09-12T09:56:20Z</time>
      </trkpt>
      <trkpt lat="46.52883" lon="0.34859">
        <ele>118.6</ele>
        <time>2021-09-12T09:56:25Z</time>
      </trkpt>
      <trkpt lat="46.52883" lon="0.34859">
        <ele>119.2</ele>
        <time>2021-09-12T09:56:28Z</time>
      </trkpt>
      <trkpt lat="46.52877" lon="0.34882">
        <ele>120.4</ele>
        <time>2021-09-12T09:56:33Z</time>
      </trkpt>
      <trkpt lat="46.52876" lon="0.34884">
        <ele>120.6</ele>
        <time>2021-09-12T09:56:34Z</time>
      </trkpt>
      <trkpt lat="46.52868" lon="0.34904">
        <ele>121.2</ele>
        <time>2021-09-12T09:56:42Z</time>
      </trkpt>
      <trkpt lat="46.52867" lon="0.34907">
        <ele>121.4</ele>
        <time>2021-09-12T09:56:43Z</time>
      </trkpt>
      <trkpt lat="46.52862" lon="0.34921">
        <ele>122.2</ele>
        <time>2021-09-12T09:56:48Z</time>
      </trkpt>
      <trkpt lat="46.52855" lon="0.34934">
        <ele>122.8</ele>
        <time>2021-09-12T09:56:52Z</time>
      </trkpt>
      <trkpt lat="46.5285" lon="0.34944">
        <ele>123.2</ele>
        <time>2021-09-12T09:56:55Z</time>
      </trkpt>
      <trkpt lat="46.52844" lon="0.34957">
        <ele>123.8</ele>
        <time>2021-09-12T09:56:59Z</time>
      </trkpt>
      <trkpt lat="46.5284" lon="0.3497">
        <ele>124.2</ele>
        <time>2021-09-12T09:57:02Z</time>
      </trkpt>
      <trkpt lat="46.52826" lon="0.35009">
        <ele>124.8</ele>
        <time>2021-09-12T09:57:10Z</time>
      </trkpt>
      <trkpt lat="46.52824" lon="0.35013">
        <ele>124.8</ele>
        <time>2021-09-12T09:57:11Z</time>
      </trkpt>
      <trkpt lat="46.52812" lon="0.35044">
        <ele>124.8</ele>
        <time>2021-09-12T09:57:17Z</time>
      </trkpt>
      <trkpt lat="46.52797" lon="0.35085">
        <ele>124.2</ele>
        <time>2021-09-12T09:57:24Z</time>
      </trkpt>
      <trkpt lat="46.5279" lon="0.35107">
        <ele>124.2</ele>
        <time>2021-09-12T09:57:28Z</time>
      </trkpt>
      <trkpt lat="46.52787" lon="0.35118">
        <ele>123.8</ele>
        <time>2021-09-12T09:57:30Z</time>
      </trkpt>
      <trkpt lat="46.52785" lon="0.35123">
        <ele>123.6</ele>
        <time>2021-09-12T09:57:31Z</time>
      </trkpt>
      <trkpt lat="46.52774" lon="0.35162">
        <ele>123.6</ele>
        <time>2021-09-12T09:57:38Z</time>
      </trkpt>
      <trkpt lat="46.52761" lon="0.35196">
        <ele>123.2</ele>
        <time>2021-09-12T09:57:45Z</time>
      </trkpt>
      <trkpt lat="46.52759" lon="0.35202">
        <ele>123</ele>
        <time>2021-09-12T09:57:46Z</time>
      </trkpt>
      <trkpt lat="46.52748" lon="0.35238">
        <ele>123.2</ele>
        <time>2021-09-12T09:57:52Z</time>
      </trkpt>
      <trkpt lat="46.52734" lon="0.35278">
        <ele>123</ele>
        <time>2021-09-12T09:57:58Z</time>
      </trkpt>
      <trkpt lat="46.52724" lon="0.35304">
        <ele>123</ele>
        <time>2021-09-12T09:58:02Z</time>
      </trkpt>
      <trkpt lat="46.52716" lon="0.35324">
        <ele>123.6</ele>
        <time>2021-09-12T09:58:05Z</time>
      </trkpt>
      <trkpt lat="46.52714" lon="0.35329">
        <ele>123.6</ele>
        <time>2021-09-12T09:58:06Z</time>
      </trkpt>
      <trkpt lat="46.5271" lon="0.35338">
        <ele>123.6</ele>
        <time>2021-09-12T09:58:08Z</time>
      </trkpt>
      <trkpt lat="46.52708" lon="0.35341">
        <ele>123.8</ele>
        <time>2021-09-12T09:58:09Z</time>
      </trkpt>
      <trkpt lat="46.52691" lon="0.35345">
        <ele>124.4</ele>
        <time>2021-09-12T09:58:14Z</time>
      </trkpt>
      <trkpt lat="46.52664" lon="0.35349">
        <ele>124.6</ele>
        <time>2021-09-12T09:58:20Z</time>
      </trkpt>
      <trkpt lat="46.52631" lon="0.35355">
        <ele>124.6</ele>
        <time>2021-09-12T09:58:27Z</time>
      </trkpt>
      <trkpt lat="46.52622" lon="0.35356">
        <ele>124.4</ele>
        <time>2021-09-12T09:58:29Z</time>
      </trkpt>
      <trkpt lat="46.52601" lon="0.35357">
        <ele>124.4</ele>
        <time>2021-09-12T09:58:33Z</time>
      </trkpt>
      <trkpt lat="46.5257" lon="0.35364">
        <ele>124.6</ele>
        <time>2021-09-12T09:58:39Z</time>
      </trkpt>
      <trkpt lat="46.52554" lon="0.35366">
        <ele>124.8</ele>
        <time>2021-09-12T09:58:42Z</time>
      </trkpt>
      <trkpt lat="46.52539" lon="0.35367">
        <ele>125.2</ele>
        <time>2021-09-12T09:58:45Z</time>
      </trkpt>
      <trkpt lat="46.52509" lon="0.35373">
        <ele>125.6</ele>
        <time>2021-09-12T09:58:51Z</time>
      </trkpt>
      <trkpt lat="46.52473" lon="0.35382">
        <ele>125.8</ele>
        <time>2021-09-12T09:58:57Z</time>
      </trkpt>
      <trkpt lat="46.52468" lon="0.35384">
        <ele>126</ele>
        <time>2021-09-12T09:58:58Z</time>
      </trkpt>
      <trkpt lat="46.52421" lon="0.35402">
        <ele>126</ele>
        <time>2021-09-12T09:59:06Z</time>
      </trkpt>
      <trkpt lat="46.52374" lon="0.35421">
        <ele>126</ele>
        <time>2021-09-12T09:59:14Z</time>
      </trkpt>
      <trkpt lat="46.52332" lon="0.35434">
        <ele>127</ele>
        <time>2021-09-12T09:59:22Z</time>
      </trkpt>
      <trkpt lat="46.52327" lon="0.35436">
        <ele>127.2</ele>
        <time>2021-09-12T09:59:23Z</time>
      </trkpt>
      <trkpt lat="46.52302" lon="0.35443">
        <ele>128.2</ele>
        <time>2021-09-12T09:59:28Z</time>
      </trkpt>
      <trkpt lat="46.52283" lon="0.35448">
        <ele>128.8</ele>
        <time>2021-09-12T09:59:32Z</time>
      </trkpt>
      <trkpt lat="46.52252" lon="0.35459">
        <ele>129.2</ele>
        <time>2021-09-12T09:59:39Z</time>
      </trkpt>
      <trkpt lat="46.52248" lon="0.3546">
        <ele>129.2</ele>
        <time>2021-09-12T09:59:40Z</time>
      </trkpt>
      <trkpt lat="46.52239" lon="0.35465">
        <ele>129.2</ele>
        <time>2021-09-12T09:59:42Z</time>
      </trkpt>
      <trkpt lat="46.52226" lon="0.35476">
        <ele>129.6</ele>
        <time>2021-09-12T09:59:45Z</time>
      </trkpt>
      <trkpt lat="46.52222" lon="0.35479">
        <ele>129.6</ele>
        <time>2021-09-12T09:59:46Z</time>
      </trkpt>
      <trkpt lat="46.52202" lon="0.35488">
        <ele>129.6</ele>
        <time>2021-09-12T09:59:50Z</time>
      </trkpt>
      <trkpt lat="46.52165" lon="0.35503">
        <ele>129.8</ele>
        <time>2021-09-12T09:59:58Z</time>
      </trkpt>
      <trkpt lat="46.52141" lon="0.35513">
        <ele>130.2</ele>
        <time>2021-09-12T10:00:03Z</time>
      </trkpt>
      <trkpt lat="46.52122" lon="0.35522">
        <ele>130.8</ele>
        <time>2021-09-12T10:00:07Z</time>
      </trkpt>
      <trkpt lat="46.52084" lon="0.35538">
        <ele>131.2</ele>
        <time>2021-09-12T10:00:15Z</time>
      </trkpt>
      <trkpt lat="46.5207" lon="0.35544">
        <ele>131.6</ele>
        <time>2021-09-12T10:00:18Z</time>
      </trkpt>
      <trkpt lat="46.52024" lon="0.35564">
        <ele>132.2</ele>
        <time>2021-09-12T10:00:28Z</time>
      </trkpt>
      <trkpt lat="46.51977" lon="0.35584">
        <ele>132.8</ele>
        <time>2021-09-12T10:00:38Z</time>
      </trkpt>
      <trkpt lat="46.51957" lon="0.35591">
        <ele>133.2</ele>
        <time>2021-09-12T10:00:42Z</time>
      </trkpt>
      <trkpt lat="46.51934" lon="0.35601">
        <ele>133.6</ele>
        <time>2021-09-12T10:00:47Z</time>
      </trkpt>
      <trkpt lat="46.5189" lon="0.35618">
        <ele>133.6</ele>
        <time>2021-09-12T10:00:56Z</time>
      </trkpt>
      <trkpt lat="46.51853" lon="0.35626">
        <ele>133.6</ele>
        <time>2021-09-12T10:01:03Z</time>
      </trkpt>
      <trkpt lat="46.51847" lon="0.35625">
        <ele>133.6</ele>
        <time>2021-09-12T10:01:04Z</time>
      </trkpt>
      <trkpt lat="46.51842" lon="0.35624">
        <ele>133.6</ele>
        <time>2021-09-12T10:01:05Z</time>
      </trkpt>
      <trkpt lat="46.51835" lon="0.35616">
        <ele>133.4</ele>
        <time>2021-09-12T10:01:07Z</time>
      </trkpt>
      <trkpt lat="46.51828" lon="0.35608">
        <ele>133.4</ele>
        <time>2021-09-12T10:01:09Z</time>
      </trkpt>
      <trkpt lat="46.5182" lon="0.35603">
        <ele>133.4</ele>
        <time>2021-09-12T10:01:11Z</time>
      </trkpt>
      <trkpt lat="46.51816" lon="0.35602">
        <ele>133.4</ele>
        <time>2021-09-12T10:01:12Z</time>
      </trkpt>
      <trkpt lat="46.51808" lon="0.35606">
        <ele>133.4</ele>
        <time>2021-09-12T10:01:14Z</time>
      </trkpt>
      <trkpt lat="46.518" lon="0.35616">
        <ele>133.4</ele>
        <time>2021-09-12T10:01:16Z</time>
      </trkpt>
      <trkpt lat="46.51797" lon="0.35623">
        <ele>133.4</ele>
        <time>2021-09-12T10:01:17Z</time>
      </trkpt>
      <trkpt lat="46.51783" lon="0.35648">
        <ele>133.6</ele>
        <time>2021-09-12T10:01:21Z</time>
      </trkpt>
      <trkpt lat="46.51773" lon="0.35656">
        <ele>133.6</ele>
        <time>2021-09-12T10:01:23Z</time>
      </trkpt>
      <trkpt lat="46.51726" lon="0.35681">
        <ele>133.8</ele>
        <time>2021-09-12T10:01:32Z</time>
      </trkpt>
      <trkpt lat="46.51676" lon="0.35704">
        <ele>134</ele>
        <time>2021-09-12T10:01:41Z</time>
      </trkpt>
      <trkpt lat="46.51629" lon="0.35722">
        <ele>134.2</ele>
        <time>2021-09-12T10:01:49Z</time>
      </trkpt>
      <trkpt lat="46.51617" lon="0.35726">
        <ele>134.2</ele>
        <time>2021-09-12T10:01:51Z</time>
      </trkpt>
      <trkpt lat="46.51601" lon="0.35734">
        <ele>134.2</ele>
        <time>2021-09-12T10:01:54Z</time>
      </trkpt>
      <trkpt lat="46.51592" lon="0.35743">
        <ele>134.2</ele>
        <time>2021-09-12T10:01:56Z</time>
      </trkpt>
      <trkpt lat="46.51587" lon="0.35747">
        <ele>134.2</ele>
        <time>2021-09-12T10:01:57Z</time>
      </trkpt>
      <trkpt lat="46.51572" lon="0.35754">
        <ele>134</ele>
        <time>2021-09-12T10:02:00Z</time>
      </trkpt>
      <trkpt lat="46.51523" lon="0.35772">
        <ele>134.6</ele>
        <time>2021-09-12T10:02:09Z</time>
      </trkpt>
      <trkpt lat="46.51491" lon="0.35786">
        <ele>134.8</ele>
        <time>2021-09-12T10:02:15Z</time>
      </trkpt>
      <trkpt lat="46.51448" lon="0.35802">
        <ele>135.2</ele>
        <time>2021-09-12T10:02:23Z</time>
      </trkpt>
      <trkpt lat="46.51443" lon="0.35804">
        <ele>135.2</ele>
        <time>2021-09-12T10:02:24Z</time>
      </trkpt>
      <trkpt lat="46.51411" lon="0.35817">
        <ele>134.8</ele>
        <time>2021-09-12T10:02:30Z</time>
      </trkpt>
      <trkpt lat="46.51364" lon="0.35837">
        <ele>134.2</ele>
        <time>2021-09-12T10:02:38Z</time>
      </trkpt>
      <trkpt lat="46.51352" lon="0.35842">
        <ele>134</ele>
        <time>2021-09-12T10:02:40Z</time>
      </trkpt>
      <trkpt lat="46.51303" lon="0.35862">
        <ele>133.6</ele>
        <time>2021-09-12T10:02:48Z</time>
      </trkpt>
      <trkpt lat="46.51265" lon="0.35878">
        <ele>133.2</ele>
        <time>2021-09-12T10:02:55Z</time>
      </trkpt>
      <trkpt lat="46.5122" lon="0.35896">
        <ele>133.4</ele>
        <time>2021-09-12T10:03:04Z</time>
      </trkpt>
      <trkpt lat="46.51184" lon="0.3591">
        <ele>134.2</ele>
        <time>2021-09-12T10:03:12Z</time>
      </trkpt>
      <trkpt lat="46.51154" lon="0.35922">
        <ele>135</ele>
        <time>2021-09-12T10:03:19Z</time>
      </trkpt>
      <trkpt lat="46.51142" lon="0.35927">
        <ele>135.2</ele>
        <time>2021-09-12T10:03:22Z</time>
      </trkpt>
      <trkpt lat="46.51134" lon="0.3593">
        <ele>135.6</ele>
        <time>2021-09-12T10:03:24Z</time>
      </trkpt>
      <trkpt lat="46.5113" lon="0.3593">
        <ele>135.6</ele>
        <time>2021-09-12T10:03:25Z</time>
      </trkpt>
      <trkpt lat="46.51125" lon="0.3593">
        <ele>135.6</ele>
        <time>2021-09-12T10:03:26Z</time>
      </trkpt>
      <trkpt lat="46.51104" lon="0.35922">
        <ele>135.6</ele>
        <time>2021-09-12T10:03:31Z</time>
      </trkpt>
      <trkpt lat="46.5107" lon="0.35913">
        <ele>135.8</ele>
        <time>2021-09-12T10:03:38Z</time>
      </trkpt>
      <trkpt lat="46.51066" lon="0.3591">
        <ele>135.8</ele>
        <time>2021-09-12T10:03:39Z</time>
      </trkpt>
      <trkpt lat="46.51035" lon="0.35887">
        <ele>136.4</ele>
        <time>2021-09-12T10:03:46Z</time>
      </trkpt>
      <trkpt lat="46.51031" lon="0.35884">
        <ele>136.4</ele>
        <time>2021-09-12T10:03:47Z</time>
      </trkpt>
      <trkpt lat="46.50993" lon="0.35854">
        <ele>136.6</ele>
        <time>2021-09-12T10:03:56Z</time>
      </trkpt>
      <trkpt lat="46.50989" lon="0.35851">
        <ele>136.6</ele>
        <time>2021-09-12T10:03:57Z</time>
      </trkpt>
      <trkpt lat="46.50981" lon="0.35848">
        <ele>136.6</ele>
        <time>2021-09-12T10:03:59Z</time>
      </trkpt>
      <trkpt lat="46.50973" lon="0.35843">
        <ele>137</ele>
        <time>2021-09-12T10:04:01Z</time>
      </trkpt>
      <trkpt lat="46.50954" lon="0.35834">
        <ele>137.2</ele>
        <time>2021-09-12T10:04:05Z</time>
      </trkpt>
      <trkpt lat="46.50949" lon="0.35831">
        <ele>137.2</ele>
        <time>2021-09-12T10:04:06Z</time>
      </trkpt>
      <trkpt lat="46.5094" lon="0.35825">
        <ele>137.4</ele>
        <time>2021-09-12T10:04:08Z</time>
      </trkpt>
      <trkpt lat="46.50931" lon="0.35819">
        <ele>137.4</ele>
        <time>2021-09-12T10:04:10Z</time>
      </trkpt>
      <trkpt lat="46.50922" lon="0.35814">
        <ele>137.8</ele>
        <time>2021-09-12T10:04:12Z</time>
      </trkpt>
      <trkpt lat="46.50903" lon="0.35805">
        <ele>138</ele>
        <time>2021-09-12T10:04:16Z</time>
      </trkpt>
      <trkpt lat="46.50898" lon="0.35806">
        <ele>138</ele>
        <time>2021-09-12T10:04:17Z</time>
      </trkpt>
      <trkpt lat="46.50889" lon="0.35811">
        <ele>138.2</ele>
        <time>2021-09-12T10:04:19Z</time>
      </trkpt>
      <trkpt lat="46.50882" lon="0.3582">
        <ele>138.2</ele>
        <time>2021-09-12T10:04:21Z</time>
      </trkpt>
      <trkpt lat="46.50869" lon="0.35854">
        <ele>137.8</ele>
        <time>2021-09-12T10:04:26Z</time>
      </trkpt>
      <trkpt lat="46.5086" lon="0.35874">
        <ele>137.6</ele>
        <time>2021-09-12T10:04:29Z</time>
      </trkpt>
      <trkpt lat="46.50847" lon="0.35896">
        <ele>137.2</ele>
        <time>2021-09-12T10:04:33Z</time>
      </trkpt>
      <trkpt lat="46.50848" lon="0.35923">
        <ele>137</ele>
        <time>2021-09-12T10:04:37Z</time>
      </trkpt>
      <trkpt lat="46.50853" lon="0.35945">
        <ele>136.4</ele>
        <time>2021-09-12T10:04:40Z</time>
      </trkpt>
      <trkpt lat="46.50855" lon="0.35958">
        <ele>135.6</ele>
        <time>2021-09-12T10:04:42Z</time>
      </trkpt>
      <trkpt lat="46.50855" lon="0.35963">
        <ele>135.4</ele>
        <time>2021-09-12T10:04:43Z</time>
      </trkpt>
      <trkpt lat="46.50854" lon="0.35968">
        <ele>135.2</ele>
        <time>2021-09-12T10:04:44Z</time>
      </trkpt>
      <trkpt lat="46.5085" lon="0.35971">
        <ele>135.2</ele>
        <time>2021-09-12T10:04:45Z</time>
      </trkpt>
      <trkpt lat="46.50846" lon="0.35974">
        <ele>135.2</ele>
        <time>2021-09-12T10:04:46Z</time>
      </trkpt>
      <trkpt lat="46.50829" lon="0.35989">
        <ele>134.2</ele>
        <time>2021-09-12T10:04:50Z</time>
      </trkpt>
      <trkpt lat="46.50824" lon="0.35993">
        <ele>134.2</ele>
        <time>2021-09-12T10:04:51Z</time>
      </trkpt>
      <trkpt lat="46.50799" lon="0.36007">
        <ele>134</ele>
        <time>2021-09-12T10:04:56Z</time>
      </trkpt>
      <trkpt lat="46.5079" lon="0.36011">
        <ele>133.8</ele>
        <time>2021-09-12T10:04:58Z</time>
      </trkpt>
      <trkpt lat="46.50784" lon="0.36016">
        <ele>133.8</ele>
        <time>2021-09-12T10:05:00Z</time>
      </trkpt>
      <trkpt lat="46.50777" lon="0.3603">
        <ele>133.6</ele>
        <time>2021-09-12T10:05:04Z</time>
      </trkpt>
      <trkpt lat="46.50778" lon="0.36045">
        <ele>133.2</ele>
        <time>2021-09-12T10:05:06Z</time>
      </trkpt>
      <trkpt lat="46.50778" lon="0.36063">
        <ele>132</ele>
        <time>2021-09-12T10:05:08Z</time>
      </trkpt>
      <trkpt lat="46.50779" lon="0.36071">
        <ele>131.8</ele>
        <time>2021-09-12T10:05:09Z</time>
      </trkpt>
      <trkpt lat="46.5078" lon="0.36089">
        <ele>130.8</ele>
        <time>2021-09-12T10:05:11Z</time>
      </trkpt>
      <trkpt lat="46.50779" lon="0.36098">
        <ele>130.6</ele>
        <time>2021-09-12T10:05:12Z</time>
      </trkpt>
      <trkpt lat="46.50777" lon="0.36105">
        <ele>130.6</ele>
        <time>2021-09-12T10:05:13Z</time>
      </trkpt>
      <trkpt lat="46.50774" lon="0.36111">
        <ele>130.4</ele>
        <time>2021-09-12T10:05:14Z</time>
      </trkpt>
      <trkpt lat="46.50764" lon="0.36125">
        <ele>131.6</ele>
        <time>2021-09-12T10:05:17Z</time>
      </trkpt>
      <trkpt lat="46.50761" lon="0.36131">
        <ele>131.8</ele>
        <time>2021-09-12T10:05:18Z</time>
      </trkpt>
      <trkpt lat="46.50759" lon="0.36138">
        <ele>132</ele>
        <time>2021-09-12T10:05:19Z</time>
      </trkpt>
      <trkpt lat="46.50754" lon="0.36151">
        <ele>132.2</ele>
        <time>2021-09-12T10:05:21Z</time>
      </trkpt>
      <trkpt lat="46.50753" lon="0.36157">
        <ele>132.2</ele>
        <time>2021-09-12T10:05:22Z</time>
      </trkpt>
      <trkpt lat="46.50744" lon="0.36212">
        <ele>132.4</ele>
        <time>2021-09-12T10:05:29Z</time>
      </trkpt>
      <trkpt lat="46.50741" lon="0.36227">
        <ele>132.2</ele>
        <time>2021-09-12T10:05:31Z</time>
      </trkpt>
      <trkpt lat="46.50734" lon="0.36279">
        <ele>131.4</ele>
        <time>2021-09-12T10:05:37Z</time>
      </trkpt>
      <trkpt lat="46.50729" lon="0.36318">
        <ele>130.6</ele>
        <time>2021-09-12T10:05:41Z</time>
      </trkpt>
      <trkpt lat="46.50723" lon="0.36357">
        <ele>129.8</ele>
        <time>2021-09-12T10:05:45Z</time>
      </trkpt>
      <trkpt lat="46.50721" lon="0.36367">
        <ele>129.6</ele>
        <time>2021-09-12T10:05:46Z</time>
      </trkpt>
      <trkpt lat="46.50716" lon="0.36406">
        <ele>128.4</ele>
        <time>2021-09-12T10:05:50Z</time>
      </trkpt>
      <trkpt lat="46.50711" lon="0.36434">
        <ele>127.6</ele>
        <time>2021-09-12T10:05:53Z</time>
      </trkpt>
      <trkpt lat="46.50709" lon="0.36444">
        <ele>127.2</ele>
        <time>2021-09-12T10:05:54Z</time>
      </trkpt>
      <trkpt lat="46.50704" lon="0.36492">
        <ele>126</ele>
        <time>2021-09-12T10:05:59Z</time>
      </trkpt>
      <trkpt lat="46.50698" lon="0.36532">
        <ele>125</ele>
        <time>2021-09-12T10:06:03Z</time>
      </trkpt>
      <trkpt lat="46.50695" lon="0.36552">
        <ele>124.6</ele>
        <time>2021-09-12T10:06:05Z</time>
      </trkpt>
      <trkpt lat="46.50693" lon="0.36561">
        <ele>124.6</ele>
        <time>2021-09-12T10:06:06Z</time>
      </trkpt>
      <trkpt lat="46.50687" lon="0.36579">
        <ele>124.6</ele>
        <time>2021-09-12T10:06:08Z</time>
      </trkpt>
      <trkpt lat="46.50683" lon="0.36587">
        <ele>124.6</ele>
        <time>2021-09-12T10:06:09Z</time>
      </trkpt>
      <trkpt lat="46.50678" lon="0.36596">
        <ele>124.6</ele>
        <time>2021-09-12T10:06:10Z</time>
      </trkpt>
      <trkpt lat="46.50664" lon="0.36611">
        <ele>124.8</ele>
        <time>2021-09-12T10:06:13Z</time>
      </trkpt>
      <trkpt lat="46.50661" lon="0.36614">
        <ele>125</ele>
        <time>2021-09-12T10:06:14Z</time>
      </trkpt>
      <trkpt lat="46.5065" lon="0.3663">
        <ele>126.4</ele>
        <time>2021-09-12T10:06:18Z</time>
      </trkpt>
      <trkpt lat="46.50647" lon="0.36646">
        <ele>127.4</ele>
        <time>2021-09-12T10:06:22Z</time>
      </trkpt>
      <trkpt lat="46.50647" lon="0.3666">
        <ele>128.4</ele>
        <time>2021-09-12T10:06:26Z</time>
      </trkpt>
      <trkpt lat="46.50646" lon="0.36679">
        <ele>129.4</ele>
        <time>2021-09-12T10:06:31Z</time>
      </trkpt>
      <trkpt lat="46.50646" lon="0.36682">
        <ele>129.4</ele>
        <time>2021-09-12T10:06:32Z</time>
      </trkpt>
      <trkpt lat="46.50644" lon="0.367">
        <ele>130.4</ele>
        <time>2021-09-12T10:06:38Z</time>
      </trkpt>
      <trkpt lat="46.50644" lon="0.36704">
        <ele>130.8</ele>
        <time>2021-09-12T10:06:39Z</time>
      </trkpt>
      <trkpt lat="46.50642" lon="0.36725">
        <ele>132</ele>
        <time>2021-09-12T10:06:45Z</time>
      </trkpt>
      <trkpt lat="46.50643" lon="0.36728">
        <ele>132</ele>
        <time>2021-09-12T10:06:46Z</time>
      </trkpt>
      <trkpt lat="46.50647" lon="0.36741">
        <ele>132.2</ele>
        <time>2021-09-12T10:06:50Z</time>
      </trkpt>
      <trkpt lat="46.50648" lon="0.36759">
        <ele>133</ele>
        <time>2021-09-12T10:06:55Z</time>
      </trkpt>
      <trkpt lat="46.50645" lon="0.36781">
        <ele>133.6</ele>
        <time>2021-09-12T10:07:01Z</time>
      </trkpt>
      <trkpt lat="46.50644" lon="0.36788">
        <ele>133.6</ele>
        <time>2021-09-12T10:07:06Z</time>
      </trkpt>
      <trkpt lat="46.50644" lon="0.36789">
        <ele>133</ele>
        <time>2021-09-12T10:07:08Z</time>
      </trkpt>
      <trkpt lat="46.50644" lon="0.36792">
        <ele>132.8</ele>
        <time>2021-09-12T10:26:10Z</time>
      </trkpt>
      <trkpt lat="46.50645" lon="0.36788">
        <ele>132.8</ele>
        <time>2021-09-12T10:26:16Z</time>
      </trkpt>
      <trkpt lat="46.50647" lon="0.36779">
        <ele>132.6</ele>
        <time>2021-09-12T10:26:22Z</time>
      </trkpt>
      <trkpt lat="46.50648" lon="0.36779">
        <ele>132.6</ele>
        <time>2021-09-12T10:26:23Z</time>
      </trkpt>
      <trkpt lat="46.50649" lon="0.36783">
        <ele>132.6</ele>
        <time>2021-09-12T10:26:26Z</time>
      </trkpt>
      <trkpt lat="46.50648" lon="0.36783">
        <ele>132.6</ele>
        <time>2021-09-12T10:26:27Z</time>
      </trkpt>
      <trkpt lat="46.50645" lon="0.36783">
        <ele>132.8</ele>
        <time>2021-09-12T10:26:29Z</time>
      </trkpt>
      <trkpt lat="46.5064" lon="0.36789">
        <ele>132.6</ele>
        <time>2021-09-12T10:26:32Z</time>
      </trkpt>
      <trkpt lat="46.50634" lon="0.36803">
        <ele>131.8</ele>
        <time>2021-09-12T10:26:36Z</time>
      </trkpt>
      <trkpt lat="46.50632" lon="0.3681">
        <ele>131.8</ele>
        <time>2021-09-12T10:26:38Z</time>
      </trkpt>
      <trkpt lat="46.50623" lon="0.36837">
        <ele>132</ele>
        <time>2021-09-12T10:26:45Z</time>
      </trkpt>
      <trkpt lat="46.50616" lon="0.36868">
        <ele>132.8</ele>
        <time>2021-09-12T10:26:52Z</time>
      </trkpt>
      <trkpt lat="46.5061" lon="0.36889">
        <ele>133</ele>
        <time>2021-09-12T10:26:57Z</time>
      </trkpt>
      <trkpt lat="46.50607" lon="0.36898">
        <ele>133.2</ele>
        <time>2021-09-12T10:26:59Z</time>
      </trkpt>
      <trkpt lat="46.50597" lon="0.3693">
        <ele>133.2</ele>
        <time>2021-09-12T10:27:05Z</time>
      </trkpt>
      <trkpt lat="46.50593" lon="0.3694">
        <ele>133.2</ele>
        <time>2021-09-12T10:27:07Z</time>
      </trkpt>
      <trkpt lat="46.50586" lon="0.36951">
        <ele>133</ele>
        <time>2021-09-12T10:27:10Z</time>
      </trkpt>
      <trkpt lat="46.50582" lon="0.36966">
        <ele>133</ele>
        <time>2021-09-12T10:27:14Z</time>
      </trkpt>
      <trkpt lat="46.50582" lon="0.36971">
        <ele>133</ele>
        <time>2021-09-12T10:27:15Z</time>
      </trkpt>
      <trkpt lat="46.50584" lon="0.36976">
        <ele>132.8</ele>
        <time>2021-09-12T10:27:16Z</time>
      </trkpt>
      <trkpt lat="46.50589" lon="0.36991">
        <ele>132.8</ele>
        <time>2021-09-12T10:27:19Z</time>
      </trkpt>
      <trkpt lat="46.50597" lon="0.37019">
        <ele>132.6</ele>
        <time>2021-09-12T10:27:24Z</time>
      </trkpt>
      <trkpt lat="46.50603" lon="0.37028">
        <ele>132.2</ele>
        <time>2021-09-12T10:27:26Z</time>
      </trkpt>
      <trkpt lat="46.5061" lon="0.37035">
        <ele>132.2</ele>
        <time>2021-09-12T10:27:28Z</time>
      </trkpt>
      <trkpt lat="46.50617" lon="0.37044">
        <ele>131.8</ele>
        <time>2021-09-12T10:27:30Z</time>
      </trkpt>
      <trkpt lat="46.50626" lon="0.37052">
        <ele>131.4</ele>
        <time>2021-09-12T10:27:32Z</time>
      </trkpt>
      <trkpt lat="46.50634" lon="0.37059">
        <ele>131.2</ele>
        <time>2021-09-12T10:27:34Z</time>
      </trkpt>
      <trkpt lat="46.50643" lon="0.37063">
        <ele>131.2</ele>
        <time>2021-09-12T10:27:36Z</time>
      </trkpt>
      <trkpt lat="46.50651" lon="0.37066">
        <ele>131.2</ele>
        <time>2021-09-12T10:27:38Z</time>
      </trkpt>
      <trkpt lat="46.50654" lon="0.37068">
        <ele>131.4</ele>
        <time>2021-09-12T10:27:39Z</time>
      </trkpt>
      <trkpt lat="46.50656" lon="0.3707">
        <ele>131.6</ele>
        <time>2021-09-12T10:27:40Z</time>
      </trkpt>
      <trkpt lat="46.50663" lon="0.37077">
        <ele>131.6</ele>
        <time>2021-09-12T10:27:44Z</time>
      </trkpt>
      <trkpt lat="46.50674" lon="0.37087">
        <ele>131.4</ele>
        <time>2021-09-12T10:27:49Z</time>
      </trkpt>
      <trkpt lat="46.50678" lon="0.3709">
        <ele>131.6</ele>
        <time>2021-09-12T10:27:51Z</time>
      </trkpt>
      <trkpt lat="46.50687" lon="0.37097">
        <ele>131.4</ele>
        <time>2021-09-12T10:27:54Z</time>
      </trkpt>
      <trkpt lat="46.50708" lon="0.37114">
        <ele>131.6</ele>
        <time>2021-09-12T10:28:01Z</time>
      </trkpt>
      <trkpt lat="46.50718" lon="0.3713">
        <ele>131.8</ele>
        <time>2021-09-12T10:28:05Z</time>
      </trkpt>
      <trkpt lat="46.50723" lon="0.37134">
        <ele>131.8</ele>
        <time>2021-09-12T10:28:06Z</time>
      </trkpt>
      <trkpt lat="46.50737" lon="0.37142">
        <ele>132</ele>
        <time>2021-09-12T10:28:08Z</time>
      </trkpt>
      <trkpt lat="46.50755" lon="0.37156">
        <ele>131.6</ele>
        <time>2021-09-12T10:28:12Z</time>
      </trkpt>
      <trkpt lat="46.50771" lon="0.37169">
        <ele>131.4</ele>
        <time>2021-09-12T10:28:17Z</time>
      </trkpt>
      <trkpt lat="46.50785" lon="0.37187">
        <ele>131.4</ele>
        <time>2021-09-12T10:28:22Z</time>
      </trkpt>
      <trkpt lat="46.50787" lon="0.37189">
        <ele>131.4</ele>
        <time>2021-09-12T10:28:23Z</time>
      </trkpt>
      <trkpt lat="46.50805" lon="0.37206">
        <ele>131.6</ele>
        <time>2021-09-12T10:28:28Z</time>
      </trkpt>
      <trkpt lat="46.50808" lon="0.37208">
        <ele>131.8</ele>
        <time>2021-09-12T10:28:29Z</time>
      </trkpt>
      <trkpt lat="46.50813" lon="0.37215">
        <ele>131.8</ele>
        <time>2021-09-12T10:28:31Z</time>
      </trkpt>
      <trkpt lat="46.50821" lon="0.37228">
        <ele>132</ele>
        <time>2021-09-12T10:28:34Z</time>
      </trkpt>
      <trkpt lat="46.50834" lon="0.37255">
        <ele>131.8</ele>
        <time>2021-09-12T10:28:39Z</time>
      </trkpt>
      <trkpt lat="46.50842" lon="0.37278">
        <ele>131.8</ele>
        <time>2021-09-12T10:28:43Z</time>
      </trkpt>
      <trkpt lat="46.50844" lon="0.37282">
        <ele>131.8</ele>
        <time>2021-09-12T10:28:44Z</time>
      </trkpt>
      <trkpt lat="46.50846" lon="0.37285">
        <ele>132</ele>
        <time>2021-09-12T10:28:45Z</time>
      </trkpt>
      <trkpt lat="46.50852" lon="0.37295">
        <ele>131.8</ele>
        <time>2021-09-12T10:28:47Z</time>
      </trkpt>
      <trkpt lat="46.50855" lon="0.37301">
        <ele>131.8</ele>
        <time>2021-09-12T10:28:48Z</time>
      </trkpt>
      <trkpt lat="46.50877" lon="0.37336">
        <ele>131.6</ele>
        <time>2021-09-12T10:28:54Z</time>
      </trkpt>
      <trkpt lat="46.50889" lon="0.37346">
        <ele>131.4</ele>
        <time>2021-09-12T10:28:57Z</time>
      </trkpt>
      <trkpt lat="46.50897" lon="0.37351">
        <ele>131.4</ele>
        <time>2021-09-12T10:28:59Z</time>
      </trkpt>
      <trkpt lat="46.50905" lon="0.37357">
        <ele>131.4</ele>
        <time>2021-09-12T10:29:01Z</time>
      </trkpt>
      <trkpt lat="46.50908" lon="0.3736">
        <ele>131.4</ele>
        <time>2021-09-12T10:29:02Z</time>
      </trkpt>
      <trkpt lat="46.50912" lon="0.37363">
        <ele>131.4</ele>
        <time>2021-09-12T10:29:03Z</time>
      </trkpt>
      <trkpt lat="46.50915" lon="0.37366">
        <ele>131.4</ele>
        <time>2021-09-12T10:29:04Z</time>
      </trkpt>
      <trkpt lat="46.50927" lon="0.37375">
        <ele>131.4</ele>
        <time>2021-09-12T10:29:07Z</time>
      </trkpt>
      <trkpt lat="46.50937" lon="0.37382">
        <ele>131.4</ele>
        <time>2021-09-12T10:29:09Z</time>
      </trkpt>
      <trkpt lat="46.50949" lon="0.37386">
        <ele>131.6</ele>
        <time>2021-09-12T10:29:12Z</time>
      </trkpt>
      <trkpt lat="46.5096" lon="0.3739">
        <ele>131.6</ele>
        <time>2021-09-12T10:29:14Z</time>
      </trkpt>
      <trkpt lat="46.50969" lon="0.37394">
        <ele>131.4</ele>
        <time>2021-09-12T10:29:16Z</time>
      </trkpt>
      <trkpt lat="46.50977" lon="0.37398">
        <ele>131.4</ele>
        <time>2021-09-12T10:29:18Z</time>
      </trkpt>
      <trkpt lat="46.50985" lon="0.374">
        <ele>131.6</ele>
        <time>2021-09-12T10:29:20Z</time>
      </trkpt>
      <trkpt lat="46.50994" lon="0.37405">
        <ele>131.6</ele>
        <time>2021-09-12T10:29:22Z</time>
      </trkpt>
      <trkpt lat="46.51001" lon="0.37408">
        <ele>131.8</ele>
        <time>2021-09-12T10:29:24Z</time>
      </trkpt>
      <trkpt lat="46.51007" lon="0.3741">
        <ele>131.8</ele>
        <time>2021-09-12T10:29:25Z</time>
      </trkpt>
      <trkpt lat="46.51011" lon="0.3741">
        <ele>132</ele>
        <time>2021-09-12T10:29:26Z</time>
      </trkpt>
      <trkpt lat="46.5102" lon="0.37409">
        <ele>132</ele>
        <time>2021-09-12T10:29:28Z</time>
      </trkpt>
      <trkpt lat="46.5103" lon="0.37407">
        <ele>132</ele>
        <time>2021-09-12T10:29:30Z</time>
      </trkpt>
      <trkpt lat="46.51034" lon="0.37405">
        <ele>132</ele>
        <time>2021-09-12T10:29:31Z</time>
      </trkpt>
      <trkpt lat="46.51058" lon="0.37398">
        <ele>132</ele>
        <time>2021-09-12T10:29:36Z</time>
      </trkpt>
      <trkpt lat="46.51068" lon="0.37395">
        <ele>132</ele>
        <time>2021-09-12T10:29:38Z</time>
      </trkpt>
      <trkpt lat="46.51078" lon="0.37392">
        <ele>131.8</ele>
        <time>2021-09-12T10:29:40Z</time>
      </trkpt>
      <trkpt lat="46.51088" lon="0.37388">
        <ele>131.8</ele>
        <time>2021-09-12T10:29:42Z</time>
      </trkpt>
      <trkpt lat="46.51116" lon="0.37376">
        <ele>131.8</ele>
        <time>2021-09-12T10:29:47Z</time>
      </trkpt>
      <trkpt lat="46.51122" lon="0.37374">
        <ele>131.8</ele>
        <time>2021-09-12T10:29:48Z</time>
      </trkpt>
      <trkpt lat="46.51147" lon="0.37363">
        <ele>132</ele>
        <time>2021-09-12T10:29:53Z</time>
      </trkpt>
      <trkpt lat="46.51181" lon="0.3735">
        <ele>131.4</ele>
        <time>2021-09-12T10:29:59Z</time>
      </trkpt>
      <trkpt lat="46.51194" lon="0.37346">
        <ele>131.2</ele>
        <time>2021-09-12T10:30:01Z</time>
      </trkpt>
      <trkpt lat="46.51204" lon="0.37347">
        <ele>131</ele>
        <time>2021-09-12T10:30:03Z</time>
      </trkpt>
      <trkpt lat="46.51209" lon="0.37348">
        <ele>131</ele>
        <time>2021-09-12T10:30:04Z</time>
      </trkpt>
      <trkpt lat="46.51218" lon="0.37352">
        <ele>130.8</ele>
        <time>2021-09-12T10:30:06Z</time>
      </trkpt>
      <trkpt lat="46.51225" lon="0.37354">
        <ele>130.8</ele>
        <time>2021-09-12T10:30:07Z</time>
      </trkpt>
      <trkpt lat="46.51236" lon="0.37361">
        <ele>130.6</ele>
        <time>2021-09-12T10:30:09Z</time>
      </trkpt>
      <trkpt lat="46.51245" lon="0.37369">
        <ele>130.4</ele>
        <time>2021-09-12T10:30:11Z</time>
      </trkpt>
      <trkpt lat="46.5125" lon="0.37371">
        <ele>130.2</ele>
        <time>2021-09-12T10:30:13Z</time>
      </trkpt>
      <trkpt lat="46.51254" lon="0.37371">
        <ele>129.8</ele>
        <time>2021-09-12T10:30:14Z</time>
      </trkpt>
      <trkpt lat="46.51257" lon="0.3737">
        <ele>129.4</ele>
        <time>2021-09-12T10:30:15Z</time>
      </trkpt>
      <trkpt lat="46.51264" lon="0.37369">
        <ele>129.4</ele>
        <time>2021-09-12T10:30:17Z</time>
      </trkpt>
      <trkpt lat="46.51271" lon="0.37365">
        <ele>129.2</ele>
        <time>2021-09-12T10:30:19Z</time>
      </trkpt>
      <trkpt lat="46.51283" lon="0.37362">
        <ele>129.2</ele>
        <time>2021-09-12T10:30:22Z</time>
      </trkpt>
      <trkpt lat="46.51296" lon="0.37357">
        <ele>128.6</ele>
        <time>2021-09-12T10:30:25Z</time>
      </trkpt>
      <trkpt lat="46.513" lon="0.37355">
        <ele>128.2</ele>
        <time>2021-09-12T10:30:26Z</time>
      </trkpt>
      <trkpt lat="46.51315" lon="0.3735">
        <ele>127.6</ele>
        <time>2021-09-12T10:30:29Z</time>
      </trkpt>
      <trkpt lat="46.51323" lon="0.37348">
        <ele>127.2</ele>
        <time>2021-09-12T10:30:30Z</time>
      </trkpt>
      <trkpt lat="46.5133" lon="0.37347">
        <ele>126.6</ele>
        <time>2021-09-12T10:30:31Z</time>
      </trkpt>
      <trkpt lat="46.51335" lon="0.37344">
        <ele>125.8</ele>
        <time>2021-09-12T10:30:32Z</time>
      </trkpt>
      <trkpt lat="46.51345" lon="0.37337">
        <ele>124.6</ele>
        <time>2021-09-12T10:30:34Z</time>
      </trkpt>
      <trkpt lat="46.51352" lon="0.37331">
        <ele>124.2</ele>
        <time>2021-09-12T10:30:35Z</time>
      </trkpt>
      <trkpt lat="46.51361" lon="0.37317">
        <ele>123.6</ele>
        <time>2021-09-12T10:30:36Z</time>
      </trkpt>
      <trkpt lat="46.51361" lon="0.37317">
        <ele>123.2</ele>
        <time>2021-09-12T10:30:38Z</time>
      </trkpt>
      <trkpt lat="46.51382" lon="0.37298">
        <ele>122.4</ele>
        <time>2021-09-12T10:30:42Z</time>
      </trkpt>
      <trkpt lat="46.51387" lon="0.37295">
        <ele>122</ele>
        <time>2021-09-12T10:30:43Z</time>
      </trkpt>
      <trkpt lat="46.51396" lon="0.37292">
        <ele>121.6</ele>
        <time>2021-09-12T10:30:45Z</time>
      </trkpt>
      <trkpt lat="46.51401" lon="0.3729">
        <ele>121.2</ele>
        <time>2021-09-12T10:30:46Z</time>
      </trkpt>
      <trkpt lat="46.51406" lon="0.37289">
        <ele>120.8</ele>
        <time>2021-09-12T10:30:47Z</time>
      </trkpt>
      <trkpt lat="46.51421" lon="0.37286">
        <ele>120</ele>
        <time>2021-09-12T10:30:50Z</time>
      </trkpt>
      <trkpt lat="46.51427" lon="0.37284">
        <ele>118.8</ele>
        <time>2021-09-12T10:30:51Z</time>
      </trkpt>
      <trkpt lat="46.51431" lon="0.37282">
        <ele>117.8</ele>
        <time>2021-09-12T10:30:52Z</time>
      </trkpt>
      <trkpt lat="46.51434" lon="0.37279">
        <ele>117</ele>
        <time>2021-09-12T10:30:53Z</time>
      </trkpt>
      <trkpt lat="46.51437" lon="0.37274">
        <ele>116.2</ele>
        <time>2021-09-12T10:30:54Z</time>
      </trkpt>
      <trkpt lat="46.51439" lon="0.3727">
        <ele>115.8</ele>
        <time>2021-09-12T10:30:55Z</time>
      </trkpt>
      <trkpt lat="46.5144" lon="0.37267">
        <ele>115.6</ele>
        <time>2021-09-12T10:30:56Z</time>
      </trkpt>
      <trkpt lat="46.51445" lon="0.3726">
        <ele>115</ele>
        <time>2021-09-12T10:30:59Z</time>
      </trkpt>
      <trkpt lat="46.51448" lon="0.37256">
        <ele>114</ele>
        <time>2021-09-12T10:31:00Z</time>
      </trkpt>
      <trkpt lat="46.51451" lon="0.37252">
        <ele>113.4</ele>
        <time>2021-09-12T10:31:01Z</time>
      </trkpt>
      <trkpt lat="46.51452" lon="0.3725">
        <ele>113</ele>
        <time>2021-09-12T10:31:02Z</time>
      </trkpt>
      <trkpt lat="46.51458" lon="0.37241">
        <ele>111.8</ele>
        <time>2021-09-12T10:31:05Z</time>
      </trkpt>
      <trkpt lat="46.51463" lon="0.37234">
        <ele>110.6</ele>
        <time>2021-09-12T10:31:07Z</time>
      </trkpt>
      <trkpt lat="46.51465" lon="0.37231">
        <ele>109.4</ele>
        <time>2021-09-12T10:31:08Z</time>
      </trkpt>
      <trkpt lat="46.51468" lon="0.37227">
        <ele>108.6</ele>
        <time>2021-09-12T10:31:09Z</time>
      </trkpt>
      <trkpt lat="46.5147" lon="0.37224">
        <ele>107.8</ele>
        <time>2021-09-12T10:31:10Z</time>
      </trkpt>
      <trkpt lat="46.51475" lon="0.37218">
        <ele>106.6</ele>
        <time>2021-09-12T10:31:12Z</time>
      </trkpt>
      <trkpt lat="46.51479" lon="0.37214">
        <ele>105.6</ele>
        <time>2021-09-12T10:31:14Z</time>
      </trkpt>
      <trkpt lat="46.51483" lon="0.37209">
        <ele>104</ele>
        <time>2021-09-12T10:31:16Z</time>
      </trkpt>
      <trkpt lat="46.51488" lon="0.37201">
        <ele>102.8</ele>
        <time>2021-09-12T10:31:19Z</time>
      </trkpt>
      <trkpt lat="46.51489" lon="0.37195">
        <ele>101.8</ele>
        <time>2021-09-12T10:31:21Z</time>
      </trkpt>
      <trkpt lat="46.51491" lon="0.37191">
        <ele>101.6</ele>
        <time>2021-09-12T10:31:22Z</time>
      </trkpt>
      <trkpt lat="46.51497" lon="0.37182">
        <ele>99.4</ele>
        <time>2021-09-12T10:31:25Z</time>
      </trkpt>
      <trkpt lat="46.51498" lon="0.37176">
        <ele>98.4</ele>
        <time>2021-09-12T10:31:27Z</time>
      </trkpt>
      <trkpt lat="46.51498" lon="0.37164">
        <ele>97.6</ele>
        <time>2021-09-12T10:31:31Z</time>
      </trkpt>
      <trkpt lat="46.51499" lon="0.37163">
        <ele>97.6</ele>
        <time>2021-09-12T10:31:32Z</time>
      </trkpt>
      <trkpt lat="46.515" lon="0.37163">
        <ele>97.6</ele>
        <time>2021-09-12T10:31:33Z</time>
      </trkpt>
      <trkpt lat="46.51503" lon="0.37163">
        <ele>96.4</ele>
        <time>2021-09-12T10:31:34Z</time>
      </trkpt>
      <trkpt lat="46.51506" lon="0.37164">
        <ele>95.4</ele>
        <time>2021-09-12T10:31:35Z</time>
      </trkpt>
      <trkpt lat="46.51509" lon="0.37167">
        <ele>94.8</ele>
        <time>2021-09-12T10:31:36Z</time>
      </trkpt>
      <trkpt lat="46.51514" lon="0.37177">
        <ele>94.2</ele>
        <time>2021-09-12T10:31:38Z</time>
      </trkpt>
      <trkpt lat="46.51516" lon="0.37187">
        <ele>93.6</ele>
        <time>2021-09-12T10:31:40Z</time>
      </trkpt>
      <trkpt lat="46.51518" lon="0.37195">
        <ele>93</ele>
        <time>2021-09-12T10:31:42Z</time>
      </trkpt>
      <trkpt lat="46.51518" lon="0.372">
        <ele>92.6</ele>
        <time>2021-09-12T10:31:43Z</time>
      </trkpt>
      <trkpt lat="46.51516" lon="0.3721">
        <ele>92.4</ele>
        <time>2021-09-12T10:31:45Z</time>
      </trkpt>
      <trkpt lat="46.51517" lon="0.37226">
        <ele>92.2</ele>
        <time>2021-09-12T10:31:48Z</time>
      </trkpt>
      <trkpt lat="46.51519" lon="0.37237">
        <ele>92.2</ele>
        <time>2021-09-12T10:31:50Z</time>
      </trkpt>
      <trkpt lat="46.51524" lon="0.37254">
        <ele>92.4</ele>
        <time>2021-09-12T10:31:53Z</time>
      </trkpt>
      <trkpt lat="46.51527" lon="0.37264">
        <ele>92.4</ele>
        <time>2021-09-12T10:31:55Z</time>
      </trkpt>
      <trkpt lat="46.51532" lon="0.37281">
        <ele>92.6</ele>
        <time>2021-09-12T10:32:00Z</time>
      </trkpt>
      <trkpt lat="46.51534" lon="0.37298">
        <ele>94</ele>
        <time>2021-09-12T10:32:07Z</time>
      </trkpt>
      <trkpt lat="46.51534" lon="0.37304">
        <ele>95</ele>
        <time>2021-09-12T10:32:10Z</time>
      </trkpt>
      <trkpt lat="46.51535" lon="0.37307">
        <ele>96</ele>
        <time>2021-09-12T10:32:13Z</time>
      </trkpt>
      <trkpt lat="46.51535" lon="0.37309">
        <ele>96.6</ele>
        <time>2021-09-12T10:32:14Z</time>
      </trkpt>
      <trkpt lat="46.51536" lon="0.37311">
        <ele>97</ele>
        <time>2021-09-12T10:32:15Z</time>
      </trkpt>
      <trkpt lat="46.51536" lon="0.37312">
        <ele>97.6</ele>
        <time>2021-09-12T10:32:16Z</time>
      </trkpt>
      <trkpt lat="46.51536" lon="0.37314">
        <ele>98.8</ele>
        <time>2021-09-12T10:32:19Z</time>
      </trkpt>
      <trkpt lat="46.51535" lon="0.37317">
        <ele>99.8</ele>
        <time>2021-09-12T10:32:21Z</time>
      </trkpt>
      <trkpt lat="46.51532" lon="0.37322">
        <ele>100.6</ele>
        <time>2021-09-12T10:32:24Z</time>
      </trkpt>
      <trkpt lat="46.51532" lon="0.37323">
        <ele>101</ele>
        <time>2021-09-12T10:32:25Z</time>
      </trkpt>
      <trkpt lat="46.51531" lon="0.37324">
        <ele>101.2</ele>
        <time>2021-09-12T10:32:26Z</time>
      </trkpt>
      <trkpt lat="46.51531" lon="0.37325">
        <ele>101.6</ele>
        <time>2021-09-12T10:32:27Z</time>
      </trkpt>
      <trkpt lat="46.51529" lon="0.37326">
        <ele>102</ele>
        <time>2021-09-12T10:32:29Z</time>
      </trkpt>
      <trkpt lat="46.51528" lon="0.37328">
        <ele>102.6</ele>
        <time>2021-09-12T10:32:30Z</time>
      </trkpt>
      <trkpt lat="46.51527" lon="0.37332">
        <ele>103.4</ele>
        <time>2021-09-12T10:32:34Z</time>
      </trkpt>
      <trkpt lat="46.51526" lon="0.37333">
        <ele>104</ele>
        <time>2021-09-12T10:32:36Z</time>
      </trkpt>
      <trkpt lat="46.51525" lon="0.37333">
        <ele>104.6</ele>
        <time>2021-09-12T10:32:37Z</time>
      </trkpt>
      <trkpt lat="46.5152" lon="0.37339">
        <ele>105.6</ele>
        <time>2021-09-12T10:32:43Z</time>
      </trkpt>
      <trkpt lat="46.51519" lon="0.3734">
        <ele>105.8</ele>
        <time>2021-09-12T10:32:44Z</time>
      </trkpt>
      <trkpt lat="46.51516" lon="0.37342">
        <ele>106.6</ele>
        <time>2021-09-12T10:32:48Z</time>
      </trkpt>
      <trkpt lat="46.51513" lon="0.37343">
        <ele>108</ele>
        <time>2021-09-12T10:32:54Z</time>
      </trkpt>
      <trkpt lat="46.51511" lon="0.37344">
        <ele>108.4</ele>
        <time>2021-09-12T10:32:57Z</time>
      </trkpt>
      <trkpt lat="46.51507" lon="0.37345">
        <ele>109.2</ele>
        <time>2021-09-12T10:33:01Z</time>
      </trkpt>
      <trkpt lat="46.51504" lon="0.37346">
        <ele>110.4</ele>
        <time>2021-09-12T10:33:06Z</time>
      </trkpt>
      <trkpt lat="46.51501" lon="0.37346">
        <ele>111.2</ele>
        <time>2021-09-12T10:33:11Z</time>
      </trkpt>
      <trkpt lat="46.515" lon="0.37345">
        <ele>111.4</ele>
        <time>2021-09-12T10:33:12Z</time>
      </trkpt>
      <trkpt lat="46.51496" lon="0.37343">
        <ele>111.8</ele>
        <time>2021-09-12T10:33:15Z</time>
      </trkpt>
      <trkpt lat="46.51495" lon="0.37342">
        <ele>112.6</ele>
        <time>2021-09-12T10:33:18Z</time>
      </trkpt>
      <trkpt lat="46.51494" lon="0.37341">
        <ele>112.6</ele>
        <time>2021-09-12T10:33:22Z</time>
      </trkpt>
      <trkpt lat="46.51489" lon="0.37338">
        <ele>113.4</ele>
        <time>2021-09-12T10:33:30Z</time>
      </trkpt>
      <trkpt lat="46.51488" lon="0.37338">
        <ele>113.6</ele>
        <time>2021-09-12T10:33:31Z</time>
      </trkpt>
      <trkpt lat="46.51485" lon="0.37337">
        <ele>114.8</ele>
        <time>2021-09-12T10:33:34Z</time>
      </trkpt>
      <trkpt lat="46.51481" lon="0.37337">
        <ele>115.8</ele>
        <time>2021-09-12T10:33:37Z</time>
      </trkpt>
      <trkpt lat="46.51476" lon="0.37344">
        <ele>116.4</ele>
        <time>2021-09-12T10:33:43Z</time>
      </trkpt>
      <trkpt lat="46.51474" lon="0.37348">
        <ele>116.6</ele>
        <time>2021-09-12T10:33:45Z</time>
      </trkpt>
      <trkpt lat="46.51467" lon="0.37368">
        <ele>116.8</ele>
        <time>2021-09-12T10:33:55Z</time>
      </trkpt>
      <trkpt lat="46.51461" lon="0.37395">
        <ele>117.4</ele>
        <time>2021-09-12T10:34:07Z</time>
      </trkpt>
      <trkpt lat="46.51463" lon="0.37399">
        <ele>117.4</ele>
        <time>2021-09-12T10:34:09Z</time>
      </trkpt>
      <trkpt lat="46.51468" lon="0.374">
        <ele>116.2</ele>
        <time>2021-09-12T10:34:13Z</time>
      </trkpt>
      <trkpt lat="46.51469" lon="0.374">
        <ele>115.6</ele>
        <time>2021-09-12T10:34:14Z</time>
      </trkpt>
      <trkpt lat="46.51472" lon="0.37395">
        <ele>114.2</ele>
        <time>2021-09-12T10:34:17Z</time>
      </trkpt>
      <trkpt lat="46.51473" lon="0.37393">
        <ele>113.6</ele>
        <time>2021-09-12T10:34:18Z</time>
      </trkpt>
      <trkpt lat="46.51474" lon="0.3739">
        <ele>112.8</ele>
        <time>2021-09-12T10:34:19Z</time>
      </trkpt>
      <trkpt lat="46.51475" lon="0.37386">
        <ele>112.4</ele>
        <time>2021-09-12T10:34:20Z</time>
      </trkpt>
      <trkpt lat="46.51479" lon="0.37381">
        <ele>111.6</ele>
        <time>2021-09-12T10:34:22Z</time>
      </trkpt>
      <trkpt lat="46.51481" lon="0.37383">
        <ele>110.4</ele>
        <time>2021-09-12T10:34:24Z</time>
      </trkpt>
      <trkpt lat="46.51486" lon="0.37394">
        <ele>111</ele>
        <time>2021-09-12T10:34:30Z</time>
      </trkpt>
      <trkpt lat="46.51487" lon="0.37396">
        <ele>111</ele>
        <time>2021-09-12T10:34:31Z</time>
      </trkpt>
      <trkpt lat="46.51492" lon="0.37397">
        <ele>111.4</ele>
        <time>2021-09-12T10:34:34Z</time>
      </trkpt>
      <trkpt lat="46.51494" lon="0.37394">
        <ele>110.8</ele>
        <time>2021-09-12T10:34:37Z</time>
      </trkpt>
      <trkpt lat="46.51499" lon="0.37399">
        <ele>110</ele>
        <time>2021-09-12T10:34:41Z</time>
      </trkpt>
      <trkpt lat="46.515" lon="0.374">
        <ele>110</ele>
        <time>2021-09-12T10:34:42Z</time>
      </trkpt>
      <trkpt lat="46.51501" lon="0.37402">
        <ele>110.8</ele>
        <time>2021-09-12T10:34:44Z</time>
      </trkpt>
      <trkpt lat="46.51504" lon="0.37405">
        <ele>111.8</ele>
        <time>2021-09-12T10:34:46Z</time>
      </trkpt>
      <trkpt lat="46.51506" lon="0.37408">
        <ele>112.2</ele>
        <time>2021-09-12T10:34:48Z</time>
      </trkpt>
      <trkpt lat="46.51509" lon="0.37411">
        <ele>112.8</ele>
        <time>2021-09-12T10:34:50Z</time>
      </trkpt>
      <trkpt lat="46.51515" lon="0.37418">
        <ele>113</ele>
        <time>2021-09-12T10:34:53Z</time>
      </trkpt>
      <trkpt lat="46.51516" lon="0.37421">
        <ele>113.2</ele>
        <time>2021-09-12T10:34:54Z</time>
      </trkpt>
      <trkpt lat="46.5152" lon="0.37428">
        <ele>113.8</ele>
        <time>2021-09-12T10:34:57Z</time>
      </trkpt>
      <trkpt lat="46.5152" lon="0.3743">
        <ele>114.2</ele>
        <time>2021-09-12T10:34:58Z</time>
      </trkpt>
      <trkpt lat="46.51523" lon="0.37431">
        <ele>114.6</ele>
        <time>2021-09-12T10:34:59Z</time>
      </trkpt>
      <trkpt lat="46.51524" lon="0.37434">
        <ele>115</ele>
        <time>2021-09-12T10:35:02Z</time>
      </trkpt>
      <trkpt lat="46.51526" lon="0.37438">
        <ele>115.2</ele>
        <time>2021-09-12T10:35:04Z</time>
      </trkpt>
      <trkpt lat="46.51527" lon="0.37439">
        <ele>115.2</ele>
        <time>2021-09-12T10:35:05Z</time>
      </trkpt>
      <trkpt lat="46.51533" lon="0.37447">
        <ele>115.4</ele>
        <time>2021-09-12T10:35:10Z</time>
      </trkpt>
      <trkpt lat="46.51535" lon="0.37451">
        <ele>115.4</ele>
        <time>2021-09-12T10:35:12Z</time>
      </trkpt>
      <trkpt lat="46.51538" lon="0.37458">
        <ele>115.4</ele>
        <time>2021-09-12T10:35:15Z</time>
      </trkpt>
      <trkpt lat="46.51537" lon="0.37459">
        <ele>115.8</ele>
        <time>2021-09-12T10:35:16Z</time>
      </trkpt>
      <trkpt lat="46.51536" lon="0.3746">
        <ele>115.8</ele>
        <time>2021-09-12T10:35:17Z</time>
      </trkpt>
      <trkpt lat="46.51535" lon="0.3746">
        <ele>116</ele>
        <time>2021-09-12T10:35:18Z</time>
      </trkpt>
      <trkpt lat="46.51535" lon="0.3746">
        <ele>116.2</ele>
        <time>2021-09-12T10:35:19Z</time>
      </trkpt>
      <trkpt lat="46.51534" lon="0.37459">
        <ele>116.2</ele>
        <time>2021-09-12T10:35:21Z</time>
      </trkpt>
      <trkpt lat="46.51533" lon="0.37459">
        <ele>116.4</ele>
        <time>2021-09-12T10:35:22Z</time>
      </trkpt>
      <trkpt lat="46.5153" lon="0.37463">
        <ele>116.4</ele>
        <time>2021-09-12T10:35:25Z</time>
      </trkpt>
      <trkpt lat="46.51529" lon="0.37465">
        <ele>116.4</ele>
        <time>2021-09-12T10:35:26Z</time>
      </trkpt>
      <trkpt lat="46.51528" lon="0.37471">
        <ele>117.2</ele>
        <time>2021-09-12T10:35:30Z</time>
      </trkpt>
      <trkpt lat="46.51527" lon="0.37471">
        <ele>117.2</ele>
        <time>2021-09-12T10:35:31Z</time>
      </trkpt>
      <trkpt lat="46.51525" lon="0.37474">
        <ele>117.6</ele>
        <time>2021-09-12T10:35:34Z</time>
      </trkpt>
      <trkpt lat="46.51525" lon="0.37476">
        <ele>117.6</ele>
        <time>2021-09-12T10:35:35Z</time>
      </trkpt>
      <trkpt lat="46.51525" lon="0.37484">
        <ele>118</ele>
        <time>2021-09-12T10:35:39Z</time>
      </trkpt>
      <trkpt lat="46.51521" lon="0.3749">
        <ele>118.2</ele>
        <time>2021-09-12T10:35:42Z</time>
      </trkpt>
      <trkpt lat="46.5152" lon="0.37489">
        <ele>118.2</ele>
        <time>2021-09-12T10:35:44Z</time>
      </trkpt>
      <trkpt lat="46.51517" lon="0.37486">
        <ele>118.4</ele>
        <time>2021-09-12T10:35:46Z</time>
      </trkpt>
      <trkpt lat="46.51513" lon="0.37483">
        <ele>117.8</ele>
        <time>2021-09-12T10:35:49Z</time>
      </trkpt>
      <trkpt lat="46.51513" lon="0.37481">
        <ele>117.8</ele>
        <time>2021-09-12T10:35:50Z</time>
      </trkpt>
      <trkpt lat="46.51514" lon="0.37473">
        <ele>117.6</ele>
        <time>2021-09-12T10:35:53Z</time>
      </trkpt>
      <trkpt lat="46.51512" lon="0.37469">
        <ele>117.2</ele>
        <time>2021-09-12T10:35:57Z</time>
      </trkpt>
      <trkpt lat="46.51511" lon="0.3747">
        <ele>117</ele>
        <time>2021-09-12T10:35:58Z</time>
      </trkpt>
      <trkpt lat="46.51505" lon="0.37466">
        <ele>117</ele>
        <time>2021-09-12T10:36:02Z</time>
      </trkpt>
      <trkpt lat="46.51502" lon="0.37462">
        <ele>117</ele>
        <time>2021-09-12T10:36:04Z</time>
      </trkpt>
      <trkpt lat="46.51498" lon="0.37455">
        <ele>116.6</ele>
        <time>2021-09-12T10:36:07Z</time>
      </trkpt>
      <trkpt lat="46.51494" lon="0.37453">
        <ele>116.4</ele>
        <time>2021-09-12T10:36:09Z</time>
      </trkpt>
      <trkpt lat="46.51491" lon="0.37453">
        <ele>116.4</ele>
        <time>2021-09-12T10:36:11Z</time>
      </trkpt>
      <trkpt lat="46.51482" lon="0.37452">
        <ele>118</ele>
        <time>2021-09-12T10:36:17Z</time>
      </trkpt>
      <trkpt lat="46.5148" lon="0.37451">
        <ele>118.2</ele>
        <time>2021-09-12T10:36:18Z</time>
      </trkpt>
      <trkpt lat="46.51469" lon="0.37447">
        <ele>118.8</ele>
        <time>2021-09-12T10:36:23Z</time>
      </trkpt>
      <trkpt lat="46.51462" lon="0.37447">
        <ele>119.2</ele>
        <time>2021-09-12T10:36:26Z</time>
      </trkpt>
      <trkpt lat="46.51457" lon="0.37449">
        <ele>120.4</ele>
        <time>2021-09-12T10:36:29Z</time>
      </trkpt>
      <trkpt lat="46.51455" lon="0.3745">
        <ele>120.6</ele>
        <time>2021-09-12T10:36:30Z</time>
      </trkpt>
      <trkpt lat="46.51444" lon="0.37465">
        <ele>121.4</ele>
        <time>2021-09-12T10:36:37Z</time>
      </trkpt>
      <trkpt lat="46.51443" lon="0.37467">
        <ele>121.6</ele>
        <time>2021-09-12T10:36:38Z</time>
      </trkpt>
      <trkpt lat="46.51434" lon="0.37489">
        <ele>122.2</ele>
        <time>2021-09-12T10:36:45Z</time>
      </trkpt>
      <trkpt lat="46.51431" lon="0.37499">
        <ele>122.4</ele>
        <time>2021-09-12T10:36:48Z</time>
      </trkpt>
      <trkpt lat="46.5143" lon="0.37512">
        <ele>122.6</ele>
        <time>2021-09-12T10:36:50Z</time>
      </trkpt>
      <trkpt lat="46.51434" lon="0.37544">
        <ele>122</ele>
        <time>2021-09-12T10:36:56Z</time>
      </trkpt>
      <trkpt lat="46.51443" lon="0.3757">
        <ele>121.6</ele>
        <time>2021-09-12T10:37:02Z</time>
      </trkpt>
      <trkpt lat="46.51445" lon="0.37574">
        <ele>121.4</ele>
        <time>2021-09-12T10:37:03Z</time>
      </trkpt>
      <trkpt lat="46.51449" lon="0.37585">
        <ele>121.2</ele>
        <time>2021-09-12T10:37:05Z</time>
      </trkpt>
      <trkpt lat="46.51454" lon="0.37596">
        <ele>120.8</ele>
        <time>2021-09-12T10:37:07Z</time>
      </trkpt>
      <trkpt lat="46.51464" lon="0.3762">
        <ele>120.4</ele>
        <time>2021-09-12T10:37:11Z</time>
      </trkpt>
      <trkpt lat="46.51469" lon="0.37629">
        <ele>120</ele>
        <time>2021-09-12T10:37:13Z</time>
      </trkpt>
      <trkpt lat="46.51478" lon="0.37662">
        <ele>119</ele>
        <time>2021-09-12T10:37:18Z</time>
      </trkpt>
      <trkpt lat="46.51486" lon="0.37707">
        <ele>118.2</ele>
        <time>2021-09-12T10:37:24Z</time>
      </trkpt>
      <trkpt lat="46.51489" lon="0.37723">
        <ele>117.8</ele>
        <time>2021-09-12T10:37:26Z</time>
      </trkpt>
      <trkpt lat="46.51492" lon="0.37731">
        <ele>117.4</ele>
        <time>2021-09-12T10:37:27Z</time>
      </trkpt>
      <trkpt lat="46.51498" lon="0.37747">
        <ele>116.8</ele>
        <time>2021-09-12T10:37:29Z</time>
      </trkpt>
      <trkpt lat="46.515" lon="0.37756">
        <ele>116.4</ele>
        <time>2021-09-12T10:37:30Z</time>
      </trkpt>
      <trkpt lat="46.5151" lon="0.3778">
        <ele>115.8</ele>
        <time>2021-09-12T10:37:33Z</time>
      </trkpt>
      <trkpt lat="46.51519" lon="0.37807">
        <ele>114.6</ele>
        <time>2021-09-12T10:37:36Z</time>
      </trkpt>
      <trkpt lat="46.51539" lon="0.37864">
        <ele>113.8</ele>
        <time>2021-09-12T10:37:43Z</time>
      </trkpt>
      <trkpt lat="46.51556" lon="0.37897">
        <ele>113.4</ele>
        <time>2021-09-12T10:37:48Z</time>
      </trkpt>
      <trkpt lat="46.51563" lon="0.3791">
        <ele>113.4</ele>
        <time>2021-09-12T10:37:50Z</time>
      </trkpt>
      <trkpt lat="46.51578" lon="0.37942">
        <ele>112.4</ele>
        <time>2021-09-12T10:37:55Z</time>
      </trkpt>
      <trkpt lat="46.51581" lon="0.37948">
        <ele>112.2</ele>
        <time>2021-09-12T10:37:56Z</time>
      </trkpt>
      <trkpt lat="46.51585" lon="0.37955">
        <ele>111.8</ele>
        <time>2021-09-12T10:37:57Z</time>
      </trkpt>
      <trkpt lat="46.51591" lon="0.37966">
        <ele>111.4</ele>
        <time>2021-09-12T10:37:59Z</time>
      </trkpt>
      <trkpt lat="46.51596" lon="0.37974">
        <ele>110.8</ele>
        <time>2021-09-12T10:38:01Z</time>
      </trkpt>
      <trkpt lat="46.516" lon="0.37977">
        <ele>110.2</ele>
        <time>2021-09-12T10:38:03Z</time>
      </trkpt>
      <trkpt lat="46.51605" lon="0.37981">
        <ele>109.6</ele>
        <time>2021-09-12T10:38:06Z</time>
      </trkpt>
      <trkpt lat="46.51607" lon="0.37976">
        <ele>109.2</ele>
        <time>2021-09-12T10:38:09Z</time>
      </trkpt>
      <trkpt lat="46.51608" lon="0.37973">
        <ele>109.2</ele>
        <time>2021-09-12T10:38:10Z</time>
      </trkpt>
      <trkpt lat="46.51609" lon="0.37967">
        <ele>109.2</ele>
        <time>2021-09-12T10:38:12Z</time>
      </trkpt>
      <trkpt lat="46.51611" lon="0.37958">
        <ele>109.6</ele>
        <time>2021-09-12T10:38:15Z</time>
      </trkpt>
      <trkpt lat="46.51612" lon="0.37953">
        <ele>109.6</ele>
        <time>2021-09-12T10:38:16Z</time>
      </trkpt>
      <trkpt lat="46.51613" lon="0.37948">
        <ele>110</ele>
        <time>2021-09-12T10:38:17Z</time>
      </trkpt>
      <trkpt lat="46.51615" lon="0.37938">
        <ele>110.2</ele>
        <time>2021-09-12T10:38:19Z</time>
      </trkpt>
      <trkpt lat="46.51616" lon="0.37931">
        <ele>110.2</ele>
        <time>2021-09-12T10:38:20Z</time>
      </trkpt>
      <trkpt lat="46.51618" lon="0.37923">
        <ele>110.2</ele>
        <time>2021-09-12T10:38:21Z</time>
      </trkpt>
      <trkpt lat="46.51621" lon="0.37911">
        <ele>109.4</ele>
        <time>2021-09-12T10:38:23Z</time>
      </trkpt>
      <trkpt lat="46.51622" lon="0.37904">
        <ele>109</ele>
        <time>2021-09-12T10:38:24Z</time>
      </trkpt>
      <trkpt lat="46.51626" lon="0.3789">
        <ele>108.4</ele>
        <time>2021-09-12T10:38:26Z</time>
      </trkpt>
      <trkpt lat="46.51626" lon="0.37885">
        <ele>108.4</ele>
        <time>2021-09-12T10:38:27Z</time>
      </trkpt>
      <trkpt lat="46.51628" lon="0.3788">
        <ele>108.4</ele>
        <time>2021-09-12T10:38:28Z</time>
      </trkpt>
      <trkpt lat="46.51629" lon="0.37872">
        <ele>109.8</ele>
        <time>2021-09-12T10:38:31Z</time>
      </trkpt>
      <trkpt lat="46.51629" lon="0.37869">
        <ele>110</ele>
        <time>2021-09-12T10:38:32Z</time>
      </trkpt>
      <trkpt lat="46.51638" lon="0.37849">
        <ele>111</ele>
        <time>2021-09-12T10:38:37Z</time>
      </trkpt>
      <trkpt lat="46.51639" lon="0.37845">
        <ele>111.2</ele>
        <time>2021-09-12T10:38:38Z</time>
      </trkpt>
      <trkpt lat="46.51643" lon="0.37834">
        <ele>111.6</ele>
        <time>2021-09-12T10:38:41Z</time>
      </trkpt>
      <trkpt lat="46.51646" lon="0.37825">
        <ele>111.6</ele>
        <time>2021-09-12T10:38:43Z</time>
      </trkpt>
      <trkpt lat="46.51651" lon="0.37812">
        <ele>112.2</ele>
        <time>2021-09-12T10:38:46Z</time>
      </trkpt>
      <trkpt lat="46.51652" lon="0.37801">
        <ele>112.2</ele>
        <time>2021-09-12T10:38:48Z</time>
      </trkpt>
      <trkpt lat="46.51655" lon="0.37796">
        <ele>112.2</ele>
        <time>2021-09-12T10:38:49Z</time>
      </trkpt>
      <trkpt lat="46.51656" lon="0.3779">
        <ele>112.2</ele>
        <time>2021-09-12T10:38:50Z</time>
      </trkpt>
      <trkpt lat="46.51661" lon="0.37779">
        <ele>112.2</ele>
        <time>2021-09-12T10:38:52Z</time>
      </trkpt>
      <trkpt lat="46.51664" lon="0.3777">
        <ele>112.4</ele>
        <time>2021-09-12T10:38:54Z</time>
      </trkpt>
      <trkpt lat="46.51666" lon="0.37766">
        <ele>112.2</ele>
        <time>2021-09-12T10:38:55Z</time>
      </trkpt>
      <trkpt lat="46.51668" lon="0.37757">
        <ele>112.4</ele>
        <time>2021-09-12T10:38:57Z</time>
      </trkpt>
      <trkpt lat="46.51675" lon="0.37743">
        <ele>112.2</ele>
        <time>2021-09-12T10:38:59Z</time>
      </trkpt>
      <trkpt lat="46.51682" lon="0.37731">
        <ele>111.8</ele>
        <time>2021-09-12T10:39:01Z</time>
      </trkpt>
      <trkpt lat="46.51683" lon="0.37725">
        <ele>111.8</ele>
        <time>2021-09-12T10:39:02Z</time>
      </trkpt>
      <trkpt lat="46.51694" lon="0.37694">
        <ele>111.2</ele>
        <time>2021-09-12T10:39:06Z</time>
      </trkpt>
      <trkpt lat="46.51696" lon="0.37686">
        <ele>111</ele>
        <time>2021-09-12T10:39:07Z</time>
      </trkpt>
      <trkpt lat="46.51698" lon="0.37681">
        <ele>111</ele>
        <time>2021-09-12T10:39:08Z</time>
      </trkpt>
      <trkpt lat="46.51705" lon="0.37661">
        <ele>110.2</ele>
        <time>2021-09-12T10:39:11Z</time>
      </trkpt>
      <trkpt lat="46.51708" lon="0.37654">
        <ele>109.8</ele>
        <time>2021-09-12T10:39:12Z</time>
      </trkpt>
      <trkpt lat="46.51714" lon="0.37638">
        <ele>109</ele>
        <time>2021-09-12T10:39:14Z</time>
      </trkpt>
      <trkpt lat="46.51718" lon="0.37629">
        <ele>108.8</ele>
        <time>2021-09-12T10:39:15Z</time>
      </trkpt>
      <trkpt lat="46.51722" lon="0.37621">
        <ele>108.4</ele>
        <time>2021-09-12T10:39:16Z</time>
      </trkpt>
      <trkpt lat="46.51728" lon="0.37602">
        <ele>107.4</ele>
        <time>2021-09-12T10:39:18Z</time>
      </trkpt>
      <trkpt lat="46.5173" lon="0.37596">
        <ele>107</ele>
        <time>2021-09-12T10:39:19Z</time>
      </trkpt>
      <trkpt lat="46.51738" lon="0.37579">
        <ele>104.8</ele>
        <time>2021-09-12T10:39:21Z</time>
      </trkpt>
      <trkpt lat="46.51746" lon="0.37563">
        <ele>102.8</ele>
        <time>2021-09-12T10:39:23Z</time>
      </trkpt>
      <trkpt lat="46.51749" lon="0.37556">
        <ele>101.6</ele>
        <time>2021-09-12T10:39:24Z</time>
      </trkpt>
      <trkpt lat="46.51751" lon="0.3755">
        <ele>100.6</ele>
        <time>2021-09-12T10:39:25Z</time>
      </trkpt>
      <trkpt lat="46.51752" lon="0.37544">
        <ele>98.6</ele>
        <time>2021-09-12T10:39:26Z</time>
      </trkpt>
      <trkpt lat="46.51751" lon="0.37538">
        <ele>97.4</ele>
        <time>2021-09-12T10:39:27Z</time>
      </trkpt>
      <trkpt lat="46.5175" lon="0.37532">
        <ele>96.8</ele>
        <time>2021-09-12T10:39:28Z</time>
      </trkpt>
      <trkpt lat="46.5175" lon="0.37528">
        <ele>96</ele>
        <time>2021-09-12T10:39:29Z</time>
      </trkpt>
      <trkpt lat="46.51752" lon="0.37525">
        <ele>95.2</ele>
        <time>2021-09-12T10:39:30Z</time>
      </trkpt>
      <trkpt lat="46.51754" lon="0.37522">
        <ele>94.6</ele>
        <time>2021-09-12T10:39:31Z</time>
      </trkpt>
      <trkpt lat="46.51756" lon="0.37521">
        <ele>93.8</ele>
        <time>2021-09-12T10:39:32Z</time>
      </trkpt>
      <trkpt lat="46.51759" lon="0.37521">
        <ele>93.4</ele>
        <time>2021-09-12T10:39:33Z</time>
      </trkpt>
      <trkpt lat="46.51767" lon="0.37518">
        <ele>93.2</ele>
        <time>2021-09-12T10:39:36Z</time>
      </trkpt>
      <trkpt lat="46.5178" lon="0.37514">
        <ele>93.2</ele>
        <time>2021-09-12T10:39:40Z</time>
      </trkpt>
      <trkpt lat="46.51787" lon="0.37514">
        <ele>93.2</ele>
        <time>2021-09-12T10:39:42Z</time>
      </trkpt>
      <trkpt lat="46.51791" lon="0.37513">
        <ele>93.2</ele>
        <time>2021-09-12T10:39:43Z</time>
      </trkpt>
      <trkpt lat="46.51813" lon="0.37512">
        <ele>93.2</ele>
        <time>2021-09-12T10:39:49Z</time>
      </trkpt>
      <trkpt lat="46.51817" lon="0.37513">
        <ele>93.2</ele>
        <time>2021-09-12T10:39:50Z</time>
      </trkpt>
      <trkpt lat="46.51834" lon="0.37513">
        <ele>93</ele>
        <time>2021-09-12T10:39:55Z</time>
      </trkpt>
      <trkpt lat="46.5184" lon="0.37517">
        <ele>93</ele>
        <time>2021-09-12T10:39:57Z</time>
      </trkpt>
      <trkpt lat="46.51854" lon="0.37527">
        <ele>93.4</ele>
        <time>2021-09-12T10:40:01Z</time>
      </trkpt>
      <trkpt lat="46.51863" lon="0.37536">
        <ele>93.6</ele>
        <time>2021-09-12T10:40:04Z</time>
      </trkpt>
      <trkpt lat="46.51872" lon="0.37547">
        <ele>93.8</ele>
        <time>2021-09-12T10:40:07Z</time>
      </trkpt>
      <trkpt lat="46.51877" lon="0.37558">
        <ele>94</ele>
        <time>2021-09-12T10:40:09Z</time>
      </trkpt>
      <trkpt lat="46.51881" lon="0.37574">
        <ele>94</ele>
        <time>2021-09-12T10:40:12Z</time>
      </trkpt>
      <trkpt lat="46.51883" lon="0.37589">
        <ele>94.4</ele>
        <time>2021-09-12T10:40:15Z</time>
      </trkpt>
      <trkpt lat="46.51882" lon="0.37595">
        <ele>94.4</ele>
        <time>2021-09-12T10:40:16Z</time>
      </trkpt>
      <trkpt lat="46.51882" lon="0.37616">
        <ele>94.6</ele>
        <time>2021-09-12T10:40:20Z</time>
      </trkpt>
      <trkpt lat="46.51881" lon="0.37645">
        <ele>94.4</ele>
        <time>2021-09-12T10:40:25Z</time>
      </trkpt>
      <trkpt lat="46.51881" lon="0.37651">
        <ele>94.4</ele>
        <time>2021-09-12T10:40:26Z</time>
      </trkpt>
      <trkpt lat="46.51881" lon="0.377">
        <ele>94</ele>
        <time>2021-09-12T10:40:33Z</time>
      </trkpt>
      <trkpt lat="46.51879" lon="0.37743">
        <ele>93.8</ele>
        <time>2021-09-12T10:40:39Z</time>
      </trkpt>
      <trkpt lat="46.51877" lon="0.37756">
        <ele>93.4</ele>
        <time>2021-09-12T10:40:41Z</time>
      </trkpt>
      <trkpt lat="46.51872" lon="0.37782">
        <ele>94.2</ele>
        <time>2021-09-12T10:40:45Z</time>
      </trkpt>
      <trkpt lat="46.51859" lon="0.37816">
        <ele>94.2</ele>
        <time>2021-09-12T10:40:51Z</time>
      </trkpt>
      <trkpt lat="46.51849" lon="0.37839">
        <ele>94.6</ele>
        <time>2021-09-12T10:40:56Z</time>
      </trkpt>
      <trkpt lat="46.51848" lon="0.37842">
        <ele>94.8</ele>
        <time>2021-09-12T10:40:57Z</time>
      </trkpt>
      <trkpt lat="46.51846" lon="0.37854">
        <ele>95.2</ele>
        <time>2021-09-12T10:40:59Z</time>
      </trkpt>
      <trkpt lat="46.51844" lon="0.37871">
        <ele>95.4</ele>
        <time>2021-09-12T10:41:02Z</time>
      </trkpt>
      <trkpt lat="46.51842" lon="0.37889">
        <ele>95.6</ele>
        <time>2021-09-12T10:41:05Z</time>
      </trkpt>
      <trkpt lat="46.51839" lon="0.37909">
        <ele>95.6</ele>
        <time>2021-09-12T10:41:08Z</time>
      </trkpt>
      <trkpt lat="46.51836" lon="0.37939">
        <ele>96</ele>
        <time>2021-09-12T10:41:14Z</time>
      </trkpt>
      <trkpt lat="46.51834" lon="0.37961">
        <ele>95.8</ele>
        <time>2021-09-12T10:41:18Z</time>
      </trkpt>
      <trkpt lat="46.51834" lon="0.37964">
        <ele>95.8</ele>
        <time>2021-09-12T10:41:19Z</time>
      </trkpt>
      <trkpt lat="46.51836" lon="0.37967">
        <ele>95.4</ele>
        <time>2021-09-12T10:41:20Z</time>
      </trkpt>
      <trkpt lat="46.51842" lon="0.37973">
        <ele>94.8</ele>
        <time>2021-09-12T10:41:23Z</time>
      </trkpt>
      <trkpt lat="46.51845" lon="0.37975">
        <ele>94.4</ele>
        <time>2021-09-12T10:41:24Z</time>
      </trkpt>
      <trkpt lat="46.5185" lon="0.37978">
        <ele>94.2</ele>
        <time>2021-09-12T10:41:26Z</time>
      </trkpt>
      <trkpt lat="46.51853" lon="0.3798">
        <ele>93.8</ele>
        <time>2021-09-12T10:41:27Z</time>
      </trkpt>
      <trkpt lat="46.5186" lon="0.37984">
        <ele>93.8</ele>
        <time>2021-09-12T10:41:29Z</time>
      </trkpt>
      <trkpt lat="46.51867" lon="0.37989">
        <ele>93.6</ele>
        <time>2021-09-12T10:41:31Z</time>
      </trkpt>
      <trkpt lat="46.51871" lon="0.37991">
        <ele>93.2</ele>
        <time>2021-09-12T10:41:32Z</time>
      </trkpt>
      <trkpt lat="46.5188" lon="0.37994">
        <ele>93</ele>
        <time>2021-09-12T10:41:34Z</time>
      </trkpt>
      <trkpt lat="46.51887" lon="0.3799">
        <ele>92.6</ele>
        <time>2021-09-12T10:41:36Z</time>
      </trkpt>
      <trkpt lat="46.51889" lon="0.37988">
        <ele>92.6</ele>
        <time>2021-09-12T10:41:37Z</time>
      </trkpt>
      <trkpt lat="46.51895" lon="0.37983">
        <ele>92.2</ele>
        <time>2021-09-12T10:41:39Z</time>
      </trkpt>
      <trkpt lat="46.51898" lon="0.3798">
        <ele>92</ele>
        <time>2021-09-12T10:41:40Z</time>
      </trkpt>
      <trkpt lat="46.51905" lon="0.37973">
        <ele>91</ele>
        <time>2021-09-12T10:41:44Z</time>
      </trkpt>
      <trkpt lat="46.51912" lon="0.37971">
        <ele>91.2</ele>
        <time>2021-09-12T10:41:51Z</time>
      </trkpt>
      <trkpt lat="46.51914" lon="0.37972">
        <ele>91.2</ele>
        <time>2021-09-12T10:42:00Z</time>
      </trkpt>
      <trkpt lat="46.51917" lon="0.37969">
        <ele>91.2</ele>
        <time>2021-09-12T10:42:07Z</time>
      </trkpt>
      <trkpt lat="46.51919" lon="0.37967">
        <ele>91.2</ele>
        <time>2021-09-12T10:42:09Z</time>
      </trkpt>
      <trkpt lat="46.51923" lon="0.37966">
        <ele>91.4</ele>
        <time>2021-09-12T10:42:12Z</time>
      </trkpt>
      <trkpt lat="46.51926" lon="0.37963">
        <ele>91.4</ele>
        <time>2021-09-12T10:42:16Z</time>
      </trkpt>
      <trkpt lat="46.51928" lon="0.37963">
        <ele>91.4</ele>
        <time>2021-09-12T10:42:17Z</time>
      </trkpt>
      <trkpt lat="46.51938" lon="0.37964">
        <ele>91.6</ele>
        <time>2021-09-12T10:42:21Z</time>
      </trkpt>
      <trkpt lat="46.51959" lon="0.37962">
        <ele>92.2</ele>
        <time>2021-09-12T10:42:28Z</time>
      </trkpt>
      <trkpt lat="46.51976" lon="0.37963">
        <ele>93</ele>
        <time>2021-09-12T10:42:33Z</time>
      </trkpt>
      <trkpt lat="46.5198" lon="0.37965">
        <ele>93.2</ele>
        <time>2021-09-12T10:42:34Z</time>
      </trkpt>
      <trkpt lat="46.51983" lon="0.37967">
        <ele>93.4</ele>
        <time>2021-09-12T10:42:35Z</time>
      </trkpt>
      <trkpt lat="46.52002" lon="0.37985">
        <ele>94.4</ele>
        <time>2021-09-12T10:42:44Z</time>
      </trkpt>
      <trkpt lat="46.52005" lon="0.37989">
        <ele>94.6</ele>
        <time>2021-09-12T10:42:46Z</time>
      </trkpt>
      <trkpt lat="46.52009" lon="0.37989">
        <ele>95</ele>
        <time>2021-09-12T10:42:49Z</time>
      </trkpt>
      <trkpt lat="46.52014" lon="0.37988">
        <ele>95.4</ele>
        <time>2021-09-12T10:42:52Z</time>
      </trkpt>
      <trkpt lat="46.52017" lon="0.37989">
        <ele>96.6</ele>
        <time>2021-09-12T10:42:54Z</time>
      </trkpt>
      <trkpt lat="46.52018" lon="0.3799">
        <ele>97</ele>
        <time>2021-09-12T10:42:55Z</time>
      </trkpt>
      <trkpt lat="46.52028" lon="0.37997">
        <ele>97.6</ele>
        <time>2021-09-12T10:43:02Z</time>
      </trkpt>
      <trkpt lat="46.52029" lon="0.37998">
        <ele>97.8</ele>
        <time>2021-09-12T10:43:03Z</time>
      </trkpt>
      <trkpt lat="46.52033" lon="0.38004">
        <ele>98.8</ele>
        <time>2021-09-12T10:43:08Z</time>
      </trkpt>
      <trkpt lat="46.52035" lon="0.38005">
        <ele>99.4</ele>
        <time>2021-09-12T10:43:10Z</time>
      </trkpt>
      <trkpt lat="46.52037" lon="0.38007">
        <ele>100</ele>
        <time>2021-09-12T10:43:13Z</time>
      </trkpt>
      <trkpt lat="46.52042" lon="0.3801">
        <ele>101.2</ele>
        <time>2021-09-12T10:43:18Z</time>
      </trkpt>
      <trkpt lat="46.52044" lon="0.38011">
        <ele>102</ele>
        <time>2021-09-12T10:43:20Z</time>
      </trkpt>
      <trkpt lat="46.52045" lon="0.38012">
        <ele>102.2</ele>
        <time>2021-09-12T10:43:21Z</time>
      </trkpt>
      <trkpt lat="46.52047" lon="0.38013">
        <ele>102.6</ele>
        <time>2021-09-12T10:43:23Z</time>
      </trkpt>
      <trkpt lat="46.52053" lon="0.38015">
        <ele>103.2</ele>
        <time>2021-09-12T10:43:28Z</time>
      </trkpt>
      <trkpt lat="46.52059" lon="0.38017">
        <ele>104.4</ele>
        <time>2021-09-12T10:43:33Z</time>
      </trkpt>
      <trkpt lat="46.52062" lon="0.38017">
        <ele>105</ele>
        <time>2021-09-12T10:43:36Z</time>
      </trkpt>
      <trkpt lat="46.52063" lon="0.38018">
        <ele>105.6</ele>
        <time>2021-09-12T10:43:37Z</time>
      </trkpt>
      <trkpt lat="46.52065" lon="0.38019">
        <ele>106</ele>
        <time>2021-09-12T10:43:40Z</time>
      </trkpt>
      <trkpt lat="46.52067" lon="0.38019">
        <ele>106.6</ele>
        <time>2021-09-12T10:43:42Z</time>
      </trkpt>
      <trkpt lat="46.52074" lon="0.3802">
        <ele>107.6</ele>
        <time>2021-09-12T10:43:49Z</time>
      </trkpt>
      <trkpt lat="46.52074" lon="0.3802">
        <ele>107.8</ele>
        <time>2021-09-12T10:43:50Z</time>
      </trkpt>
      <trkpt lat="46.52078" lon="0.38021">
        <ele>108.4</ele>
        <time>2021-09-12T10:43:55Z</time>
      </trkpt>
      <trkpt lat="46.5208" lon="0.38021">
        <ele>108.6</ele>
        <time>2021-09-12T10:43:57Z</time>
      </trkpt>
      <trkpt lat="46.52081" lon="0.38021">
        <ele>108.8</ele>
        <time>2021-09-12T10:43:58Z</time>
      </trkpt>
      <trkpt lat="46.52084" lon="0.3802">
        <ele>109.8</ele>
        <time>2021-09-12T10:44:01Z</time>
      </trkpt>
      <trkpt lat="46.52086" lon="0.38019">
        <ele>110.2</ele>
        <time>2021-09-12T10:44:03Z</time>
      </trkpt>
      <trkpt lat="46.52091" lon="0.38019">
        <ele>110.8</ele>
        <time>2021-09-12T10:44:07Z</time>
      </trkpt>
      <trkpt lat="46.52092" lon="0.38019">
        <ele>111</ele>
        <time>2021-09-12T10:44:08Z</time>
      </trkpt>
      <trkpt lat="46.52097" lon="0.38019">
        <ele>112</ele>
        <time>2021-09-12T10:44:13Z</time>
      </trkpt>
      <trkpt lat="46.52099" lon="0.3802">
        <ele>112.4</ele>
        <time>2021-09-12T10:44:15Z</time>
      </trkpt>
      <trkpt lat="46.52101" lon="0.3802">
        <ele>112.4</ele>
        <time>2021-09-12T10:44:17Z</time>
      </trkpt>
      <trkpt lat="46.52105" lon="0.3802">
        <ele>113</ele>
        <time>2021-09-12T10:44:20Z</time>
      </trkpt>
      <trkpt lat="46.52109" lon="0.38018">
        <ele>113.6</ele>
        <time>2021-09-12T10:44:25Z</time>
      </trkpt>
      <trkpt lat="46.5211" lon="0.38019">
        <ele>113.8</ele>
        <time>2021-09-12T10:44:28Z</time>
      </trkpt>
      <trkpt lat="46.52111" lon="0.38018">
        <ele>114</ele>
        <time>2021-09-12T10:44:29Z</time>
      </trkpt>
      <trkpt lat="46.52121" lon="0.38017">
        <ele>114.8</ele>
        <time>2021-09-12T10:44:36Z</time>
      </trkpt>
      <trkpt lat="46.52123" lon="0.38017">
        <ele>115</ele>
        <time>2021-09-12T10:44:38Z</time>
      </trkpt>
      <trkpt lat="46.52133" lon="0.38012">
        <ele>116.2</ele>
        <time>2021-09-12T10:44:45Z</time>
      </trkpt>
      <trkpt lat="46.52136" lon="0.3801">
        <ele>116.6</ele>
        <time>2021-09-12T10:44:48Z</time>
      </trkpt>
      <trkpt lat="46.52144" lon="0.38004">
        <ele>117.4</ele>
        <time>2021-09-12T10:44:53Z</time>
      </trkpt>
      <trkpt lat="46.52153" lon="0.37998">
        <ele>117.6</ele>
        <time>2021-09-12T10:44:58Z</time>
      </trkpt>
      <trkpt lat="46.52159" lon="0.37993">
        <ele>118.4</ele>
        <time>2021-09-12T10:45:02Z</time>
      </trkpt>
      <trkpt lat="46.52162" lon="0.37992">
        <ele>118.6</ele>
        <time>2021-09-12T10:45:04Z</time>
      </trkpt>
      <trkpt lat="46.52164" lon="0.3799">
        <ele>118.6</ele>
        <time>2021-09-12T10:45:05Z</time>
      </trkpt>
      <trkpt lat="46.52171" lon="0.37979">
        <ele>118.8</ele>
        <time>2021-09-12T10:45:10Z</time>
      </trkpt>
      <trkpt lat="46.52185" lon="0.37967">
        <ele>119.2</ele>
        <time>2021-09-12T10:45:16Z</time>
      </trkpt>
      <trkpt lat="46.52194" lon="0.37955">
        <ele>119.4</ele>
        <time>2021-09-12T10:45:19Z</time>
      </trkpt>
      <trkpt lat="46.52199" lon="0.37947">
        <ele>119.8</ele>
        <time>2021-09-12T10:45:21Z</time>
      </trkpt>
      <trkpt lat="46.52223" lon="0.37925">
        <ele>119.4</ele>
        <time>2021-09-12T10:45:28Z</time>
      </trkpt>
      <trkpt lat="46.52239" lon="0.37912">
        <ele>119</ele>
        <time>2021-09-12T10:45:33Z</time>
      </trkpt>
      <trkpt lat="46.52246" lon="0.37911">
        <ele>118.4</ele>
        <time>2021-09-12T10:45:35Z</time>
      </trkpt>
      <trkpt lat="46.5225" lon="0.37913">
        <ele>118.2</ele>
        <time>2021-09-12T10:45:36Z</time>
      </trkpt>
      <trkpt lat="46.52265" lon="0.37923">
        <ele>118.2</ele>
        <time>2021-09-12T10:45:40Z</time>
      </trkpt>
      <trkpt lat="46.52278" lon="0.37934">
        <ele>119.2</ele>
        <time>2021-09-12T10:45:45Z</time>
      </trkpt>
      <trkpt lat="46.52281" lon="0.37936">
        <ele>119.4</ele>
        <time>2021-09-12T10:45:46Z</time>
      </trkpt>
      <trkpt lat="46.52302" lon="0.37953">
        <ele>120.2</ele>
        <time>2021-09-12T10:45:53Z</time>
      </trkpt>
      <trkpt lat="46.52304" lon="0.37956">
        <ele>120.4</ele>
        <time>2021-09-12T10:45:54Z</time>
      </trkpt>
      <trkpt lat="46.52309" lon="0.3796">
        <ele>120.4</ele>
        <time>2021-09-12T10:45:56Z</time>
      </trkpt>
      <trkpt lat="46.52311" lon="0.3796">
        <ele>120.6</ele>
        <time>2021-09-12T10:45:57Z</time>
      </trkpt>
      <trkpt lat="46.52312" lon="0.37959">
        <ele>120.4</ele>
        <time>2021-09-12T10:45:58Z</time>
      </trkpt>
      <trkpt lat="46.52314" lon="0.37953">
        <ele>120.4</ele>
        <time>2021-09-12T10:46:00Z</time>
      </trkpt>
      <trkpt lat="46.52314" lon="0.37922">
        <ele>119</ele>
        <time>2021-09-12T10:46:06Z</time>
      </trkpt>
      <trkpt lat="46.52313" lon="0.3791">
        <ele>118</ele>
        <time>2021-09-12T10:46:08Z</time>
      </trkpt>
      <trkpt lat="46.52315" lon="0.37895">
        <ele>116.6</ele>
        <time>2021-09-12T10:46:11Z</time>
      </trkpt>
      <trkpt lat="46.52317" lon="0.37892">
        <ele>116.4</ele>
        <time>2021-09-12T10:46:12Z</time>
      </trkpt>
      <trkpt lat="46.52319" lon="0.37889">
        <ele>116.2</ele>
        <time>2021-09-12T10:46:13Z</time>
      </trkpt>
      <trkpt lat="46.52322" lon="0.37888">
        <ele>115.8</ele>
        <time>2021-09-12T10:46:15Z</time>
      </trkpt>
      <trkpt lat="46.52326" lon="0.37888">
        <ele>115.6</ele>
        <time>2021-09-12T10:46:17Z</time>
      </trkpt>
      <trkpt lat="46.52337" lon="0.37884">
        <ele>115.6</ele>
        <time>2021-09-12T10:46:20Z</time>
      </trkpt>
      <trkpt lat="46.52362" lon="0.37879">
        <ele>114.6</ele>
        <time>2021-09-12T10:46:25Z</time>
      </trkpt>
      <trkpt lat="46.5238" lon="0.37877">
        <ele>113.4</ele>
        <time>2021-09-12T10:46:28Z</time>
      </trkpt>
      <trkpt lat="46.52402" lon="0.37875">
        <ele>112.6</ele>
        <time>2021-09-12T10:46:32Z</time>
      </trkpt>
      <trkpt lat="46.52407" lon="0.37876">
        <ele>112.2</ele>
        <time>2021-09-12T10:46:33Z</time>
      </trkpt>
      <trkpt lat="46.52412" lon="0.37877">
        <ele>112</ele>
        <time>2021-09-12T10:46:34Z</time>
      </trkpt>
      <trkpt lat="46.52417" lon="0.37882">
        <ele>111.8</ele>
        <time>2021-09-12T10:46:36Z</time>
      </trkpt>
      <trkpt lat="46.52438" lon="0.379">
        <ele>112.8</ele>
        <time>2021-09-12T10:46:43Z</time>
      </trkpt>
      <trkpt lat="46.52442" lon="0.37905">
        <ele>113.4</ele>
        <time>2021-09-12T10:46:45Z</time>
      </trkpt>
      <trkpt lat="46.52453" lon="0.37917">
        <ele>114.4</ele>
        <time>2021-09-12T10:46:50Z</time>
      </trkpt>
      <trkpt lat="46.52464" lon="0.37923">
        <ele>115.6</ele>
        <time>2021-09-12T10:46:56Z</time>
      </trkpt>
      <trkpt lat="46.52472" lon="0.37923">
        <ele>116.6</ele>
        <time>2021-09-12T10:47:00Z</time>
      </trkpt>
      <trkpt lat="46.5248" lon="0.37921">
        <ele>117.6</ele>
        <time>2021-09-12T10:47:04Z</time>
      </trkpt>
      <trkpt lat="46.52482" lon="0.3792">
        <ele>117.8</ele>
        <time>2021-09-12T10:47:05Z</time>
      </trkpt>
      <trkpt lat="46.5249" lon="0.37917">
        <ele>118.8</ele>
        <time>2021-09-12T10:47:09Z</time>
      </trkpt>
      <trkpt lat="46.52493" lon="0.37915">
        <ele>119.4</ele>
        <time>2021-09-12T10:47:11Z</time>
      </trkpt>
      <trkpt lat="46.52498" lon="0.37911">
        <ele>120</ele>
        <time>2021-09-12T10:47:14Z</time>
      </trkpt>
      <trkpt lat="46.52504" lon="0.37908">
        <ele>120.4</ele>
        <time>2021-09-12T10:47:18Z</time>
      </trkpt>
      <trkpt lat="46.52511" lon="0.37903">
        <ele>121.2</ele>
        <time>2021-09-12T10:47:22Z</time>
      </trkpt>
      <trkpt lat="46.52517" lon="0.37901">
        <ele>121.6</ele>
        <time>2021-09-12T10:47:25Z</time>
      </trkpt>
      <trkpt lat="46.52527" lon="0.37897">
        <ele>122.2</ele>
        <time>2021-09-12T10:47:30Z</time>
      </trkpt>
      <trkpt lat="46.52529" lon="0.37896">
        <ele>122.4</ele>
        <time>2021-09-12T10:47:31Z</time>
      </trkpt>
      <trkpt lat="46.52538" lon="0.37887">
        <ele>123.4</ele>
        <time>2021-09-12T10:47:37Z</time>
      </trkpt>
      <trkpt lat="46.52539" lon="0.37885">
        <ele>123.4</ele>
        <time>2021-09-12T10:47:38Z</time>
      </trkpt>
      <trkpt lat="46.52548" lon="0.37871">
        <ele>124</ele>
        <time>2021-09-12T10:47:44Z</time>
      </trkpt>
      <trkpt lat="46.52554" lon="0.37863">
        <ele>124.4</ele>
        <time>2021-09-12T10:47:49Z</time>
      </trkpt>
      <trkpt lat="46.52556" lon="0.37862">
        <ele>124.4</ele>
        <time>2021-09-12T10:47:50Z</time>
      </trkpt>
      <trkpt lat="46.52565" lon="0.37851">
        <ele>125</ele>
        <time>2021-09-12T10:47:56Z</time>
      </trkpt>
      <trkpt lat="46.52579" lon="0.37834">
        <ele>125</ele>
        <time>2021-09-12T10:48:03Z</time>
      </trkpt>
      <trkpt lat="46.52589" lon="0.37823">
        <ele>125.4</ele>
        <time>2021-09-12T10:48:07Z</time>
      </trkpt>
      <trkpt lat="46.52596" lon="0.37816">
        <ele>125.6</ele>
        <time>2021-09-12T10:48:09Z</time>
      </trkpt>
      <trkpt lat="46.52615" lon="0.37798">
        <ele>125.4</ele>
        <time>2021-09-12T10:48:15Z</time>
      </trkpt>
      <trkpt lat="46.52629" lon="0.3779">
        <ele>125</ele>
        <time>2021-09-12T10:48:19Z</time>
      </trkpt>
      <trkpt lat="46.52636" lon="0.37785">
        <ele>124.8</ele>
        <time>2021-09-12T10:48:21Z</time>
      </trkpt>
      <trkpt lat="46.52638" lon="0.37782">
        <ele>124</ele>
        <time>2021-09-12T10:48:22Z</time>
      </trkpt>
      <trkpt lat="46.52644" lon="0.37777">
        <ele>123.6</ele>
        <time>2021-09-12T10:48:24Z</time>
      </trkpt>
      <trkpt lat="46.52651" lon="0.37774">
        <ele>123.4</ele>
        <time>2021-09-12T10:48:26Z</time>
      </trkpt>
      <trkpt lat="46.52657" lon="0.37771">
        <ele>123.4</ele>
        <time>2021-09-12T10:48:27Z</time>
      </trkpt>
      <trkpt lat="46.52664" lon="0.37767">
        <ele>122.8</ele>
        <time>2021-09-12T10:48:29Z</time>
      </trkpt>
      <trkpt lat="46.52669" lon="0.37765">
        <ele>122.6</ele>
        <time>2021-09-12T10:48:30Z</time>
      </trkpt>
      <trkpt lat="46.52679" lon="0.3776">
        <ele>122.4</ele>
        <time>2021-09-12T10:48:32Z</time>
      </trkpt>
      <trkpt lat="46.52683" lon="0.37759">
        <ele>122.4</ele>
        <time>2021-09-12T10:48:33Z</time>
      </trkpt>
      <trkpt lat="46.52701" lon="0.37753">
        <ele>122.4</ele>
        <time>2021-09-12T10:48:38Z</time>
      </trkpt>
      <trkpt lat="46.52711" lon="0.37749">
        <ele>121.2</ele>
        <time>2021-09-12T10:48:40Z</time>
      </trkpt>
      <trkpt lat="46.52722" lon="0.37747">
        <ele>119.4</ele>
        <time>2021-09-12T10:48:42Z</time>
      </trkpt>
      <trkpt lat="46.52729" lon="0.37744">
        <ele>119</ele>
        <time>2021-09-12T10:48:43Z</time>
      </trkpt>
      <trkpt lat="46.5274" lon="0.37741">
        <ele>118.2</ele>
        <time>2021-09-12T10:48:45Z</time>
      </trkpt>
      <trkpt lat="46.52751" lon="0.37735">
        <ele>117.2</ele>
        <time>2021-09-12T10:48:47Z</time>
      </trkpt>
      <trkpt lat="46.52759" lon="0.3773">
        <ele>116.2</ele>
        <time>2021-09-12T10:48:49Z</time>
      </trkpt>
      <trkpt lat="46.5276" lon="0.37726">
        <ele>115.8</ele>
        <time>2021-09-12T10:48:50Z</time>
      </trkpt>
      <trkpt lat="46.52762" lon="0.37713">
        <ele>115</ele>
        <time>2021-09-12T10:48:52Z</time>
      </trkpt>
      <trkpt lat="46.52763" lon="0.377">
        <ele>114.4</ele>
        <time>2021-09-12T10:48:54Z</time>
      </trkpt>
      <trkpt lat="46.5276" lon="0.37684">
        <ele>113.6</ele>
        <time>2021-09-12T10:48:57Z</time>
      </trkpt>
      <trkpt lat="46.52754" lon="0.37659">
        <ele>111.6</ele>
        <time>2021-09-12T10:48:58Z</time>
      </trkpt>
      <trkpt lat="46.52754" lon="0.37659">
        <ele>111.6</ele>
        <time>2021-09-12T10:48:59Z</time>
      </trkpt>
      <trkpt lat="46.52751" lon="0.3765">
        <ele>109.6</ele>
        <time>2021-09-12T10:49:01Z</time>
      </trkpt>
      <trkpt lat="46.52745" lon="0.37629">
        <ele>107.2</ele>
        <time>2021-09-12T10:49:03Z</time>
      </trkpt>
      <trkpt lat="46.52742" lon="0.37621">
        <ele>106.2</ele>
        <time>2021-09-12T10:49:04Z</time>
      </trkpt>
      <trkpt lat="46.52738" lon="0.37615">
        <ele>105.6</ele>
        <time>2021-09-12T10:49:05Z</time>
      </trkpt>
      <trkpt lat="46.52731" lon="0.37603">
        <ele>103.4</ele>
        <time>2021-09-12T10:49:07Z</time>
      </trkpt>
      <trkpt lat="46.52727" lon="0.37595">
        <ele>102.4</ele>
        <time>2021-09-12T10:49:08Z</time>
      </trkpt>
      <trkpt lat="46.52724" lon="0.3759">
        <ele>101.2</ele>
        <time>2021-09-12T10:49:09Z</time>
      </trkpt>
      <trkpt lat="46.52719" lon="0.37583">
        <ele>100</ele>
        <time>2021-09-12T10:49:10Z</time>
      </trkpt>
      <trkpt lat="46.52718" lon="0.37563">
        <ele>97.6</ele>
        <time>2021-09-12T10:49:12Z</time>
      </trkpt>
      <trkpt lat="46.52716" lon="0.37553">
        <ele>96.2</ele>
        <time>2021-09-12T10:49:13Z</time>
      </trkpt>
      <trkpt lat="46.52715" lon="0.37532">
        <ele>95.2</ele>
        <time>2021-09-12T10:49:15Z</time>
      </trkpt>
      <trkpt lat="46.52716" lon="0.37522">
        <ele>94.8</ele>
        <time>2021-09-12T10:49:16Z</time>
      </trkpt>
      <trkpt lat="46.52718" lon="0.37512">
        <ele>94.2</ele>
        <time>2021-09-12T10:49:17Z</time>
      </trkpt>
      <trkpt lat="46.52719" lon="0.37503">
        <ele>93.8</ele>
        <time>2021-09-12T10:49:18Z</time>
      </trkpt>
      <trkpt lat="46.5272" lon="0.37486">
        <ele>92.8</ele>
        <time>2021-09-12T10:49:20Z</time>
      </trkpt>
      <trkpt lat="46.5272" lon="0.37477">
        <ele>92.4</ele>
        <time>2021-09-12T10:49:21Z</time>
      </trkpt>
      <trkpt lat="46.5272" lon="0.37461">
        <ele>91.8</ele>
        <time>2021-09-12T10:49:23Z</time>
      </trkpt>
      <trkpt lat="46.52718" lon="0.37444">
        <ele>91.4</ele>
        <time>2021-09-12T10:49:25Z</time>
      </trkpt>
      <trkpt lat="46.52716" lon="0.37435">
        <ele>90.8</ele>
        <time>2021-09-12T10:49:26Z</time>
      </trkpt>
      <trkpt lat="46.52715" lon="0.37427">
        <ele>90.4</ele>
        <time>2021-09-12T10:49:27Z</time>
      </trkpt>
      <trkpt lat="46.52713" lon="0.37418">
        <ele>90</ele>
        <time>2021-09-12T10:49:28Z</time>
      </trkpt>
      <trkpt lat="46.52712" lon="0.37397">
        <ele>89.6</ele>
        <time>2021-09-12T10:49:31Z</time>
      </trkpt>
      <trkpt lat="46.52712" lon="0.37391">
        <ele>89.6</ele>
        <time>2021-09-12T10:49:32Z</time>
      </trkpt>
      <trkpt lat="46.52708" lon="0.37369">
        <ele>89.4</ele>
        <time>2021-09-12T10:49:35Z</time>
      </trkpt>
      <trkpt lat="46.52703" lon="0.37356">
        <ele>89.4</ele>
        <time>2021-09-12T10:49:37Z</time>
      </trkpt>
      <trkpt lat="46.52695" lon="0.37336">
        <ele>89</ele>
        <time>2021-09-12T10:49:40Z</time>
      </trkpt>
      <trkpt lat="46.52691" lon="0.37321">
        <ele>88.8</ele>
        <time>2021-09-12T10:49:42Z</time>
      </trkpt>
      <trkpt lat="46.5269" lon="0.37314">
        <ele>88.2</ele>
        <time>2021-09-12T10:49:43Z</time>
      </trkpt>
      <trkpt lat="46.52686" lon="0.37287">
        <ele>87.8</ele>
        <time>2021-09-12T10:49:47Z</time>
      </trkpt>
      <trkpt lat="46.52676" lon="0.37255">
        <ele>88.4</ele>
        <time>2021-09-12T10:49:53Z</time>
      </trkpt>
      <trkpt lat="46.52668" lon="0.3722">
        <ele>88.4</ele>
        <time>2021-09-12T10:50:00Z</time>
      </trkpt>
      <trkpt lat="46.52665" lon="0.3721">
        <ele>88.6</ele>
        <time>2021-09-12T10:50:01Z</time>
      </trkpt>
      <trkpt lat="46.52662" lon="0.372">
        <ele>88.8</ele>
        <time>2021-09-12T10:50:04Z</time>
      </trkpt>
      <trkpt lat="46.52661" lon="0.37194">
        <ele>89</ele>
        <time>2021-09-12T10:50:05Z</time>
      </trkpt>
      <trkpt lat="46.5266" lon="0.37189">
        <ele>89.2</ele>
        <time>2021-09-12T10:50:06Z</time>
      </trkpt>
      <trkpt lat="46.52659" lon="0.37183">
        <ele>89.2</ele>
        <time>2021-09-12T10:50:07Z</time>
      </trkpt>
      <trkpt lat="46.52658" lon="0.37178">
        <ele>89.4</ele>
        <time>2021-09-12T10:50:08Z</time>
      </trkpt>
      <trkpt lat="46.52654" lon="0.37162">
        <ele>89.2</ele>
        <time>2021-09-12T10:50:11Z</time>
      </trkpt>
      <trkpt lat="46.52653" lon="0.37157">
        <ele>89.2</ele>
        <time>2021-09-12T10:50:12Z</time>
      </trkpt>
      <trkpt lat="46.5265" lon="0.37135">
        <ele>89</ele>
        <time>2021-09-12T10:50:16Z</time>
      </trkpt>
      <trkpt lat="46.52649" lon="0.37129">
        <ele>88.8</ele>
        <time>2021-09-12T10:50:17Z</time>
      </trkpt>
      <trkpt lat="46.52648" lon="0.37118">
        <ele>88.8</ele>
        <time>2021-09-12T10:50:19Z</time>
      </trkpt>
      <trkpt lat="46.52648" lon="0.37107">
        <ele>89</ele>
        <time>2021-09-12T10:50:21Z</time>
      </trkpt>
      <trkpt lat="46.52648" lon="0.371">
        <ele>89.2</ele>
        <time>2021-09-12T10:50:22Z</time>
      </trkpt>
      <trkpt lat="46.52652" lon="0.37051">
        <ele>89.4</ele>
        <time>2021-09-12T10:50:30Z</time>
      </trkpt>
      <trkpt lat="46.52652" lon="0.37045">
        <ele>89.6</ele>
        <time>2021-09-12T10:50:31Z</time>
      </trkpt>
      <trkpt lat="46.52654" lon="0.37025">
        <ele>89.6</ele>
        <time>2021-09-12T10:50:35Z</time>
      </trkpt>
      <trkpt lat="46.52657" lon="0.36992">
        <ele>90.2</ele>
        <time>2021-09-12T10:50:41Z</time>
      </trkpt>
      <trkpt lat="46.52658" lon="0.36986">
        <ele>90.4</ele>
        <time>2021-09-12T10:50:42Z</time>
      </trkpt>
      <trkpt lat="46.52663" lon="0.36962">
        <ele>90.6</ele>
        <time>2021-09-12T10:50:48Z</time>
      </trkpt>
      <trkpt lat="46.52666" lon="0.36949">
        <ele>91.4</ele>
        <time>2021-09-12T10:50:51Z</time>
      </trkpt>
      <trkpt lat="46.52671" lon="0.36934">
        <ele>91.8</ele>
        <time>2021-09-12T10:50:55Z</time>
      </trkpt>
      <trkpt lat="46.52672" lon="0.36928">
        <ele>92.6</ele>
        <time>2021-09-12T10:50:58Z</time>
      </trkpt>
      <trkpt lat="46.52673" lon="0.36926">
        <ele>92.8</ele>
        <time>2021-09-12T10:50:59Z</time>
      </trkpt>
      <trkpt lat="46.52675" lon="0.36921">
        <ele>93</ele>
        <time>2021-09-12T10:51:01Z</time>
      </trkpt>
      <trkpt lat="46.52678" lon="0.36913">
        <ele>93.6</ele>
        <time>2021-09-12T10:51:04Z</time>
      </trkpt>
      <trkpt lat="46.52681" lon="0.36905">
        <ele>94.4</ele>
        <time>2021-09-12T10:51:08Z</time>
      </trkpt>
      <trkpt lat="46.52682" lon="0.36903">
        <ele>94.8</ele>
        <time>2021-09-12T10:51:09Z</time>
      </trkpt>
      <trkpt lat="46.52685" lon="0.36895">
        <ele>95.2</ele>
        <time>2021-09-12T10:51:12Z</time>
      </trkpt>
      <trkpt lat="46.52686" lon="0.36892">
        <ele>95.8</ele>
        <time>2021-09-12T10:51:14Z</time>
      </trkpt>
      <trkpt lat="46.52689" lon="0.36888">
        <ele>96.2</ele>
        <time>2021-09-12T10:51:16Z</time>
      </trkpt>
      <trkpt lat="46.52695" lon="0.36878">
        <ele>97</ele>
        <time>2021-09-12T10:51:21Z</time>
      </trkpt>
      <trkpt lat="46.52697" lon="0.36874">
        <ele>97.2</ele>
        <time>2021-09-12T10:51:23Z</time>
      </trkpt>
      <trkpt lat="46.52702" lon="0.36867">
        <ele>98</ele>
        <time>2021-09-12T10:51:27Z</time>
      </trkpt>
      <trkpt lat="46.52705" lon="0.36861">
        <ele>98.6</ele>
        <time>2021-09-12T10:51:31Z</time>
      </trkpt>
      <trkpt lat="46.52707" lon="0.36858">
        <ele>99</ele>
        <time>2021-09-12T10:51:33Z</time>
      </trkpt>
      <trkpt lat="46.52709" lon="0.36856">
        <ele>99.6</ele>
        <time>2021-09-12T10:51:35Z</time>
      </trkpt>
      <trkpt lat="46.52713" lon="0.36852">
        <ele>100</ele>
        <time>2021-09-12T10:51:39Z</time>
      </trkpt>
      <trkpt lat="46.52715" lon="0.3685">
        <ele>100.4</ele>
        <time>2021-09-12T10:51:41Z</time>
      </trkpt>
      <trkpt lat="46.52718" lon="0.36847">
        <ele>101</ele>
        <time>2021-09-12T10:51:44Z</time>
      </trkpt>
      <trkpt lat="46.52719" lon="0.36846">
        <ele>101.2</ele>
        <time>2021-09-12T10:51:45Z</time>
      </trkpt>
      <trkpt lat="46.5272" lon="0.36844">
        <ele>101.4</ele>
        <time>2021-09-12T10:51:46Z</time>
      </trkpt>
      <trkpt lat="46.52726" lon="0.36838">
        <ele>102</ele>
        <time>2021-09-12T10:51:51Z</time>
      </trkpt>
      <trkpt lat="46.52728" lon="0.36837">
        <ele>102.4</ele>
        <time>2021-09-12T10:51:52Z</time>
      </trkpt>
      <trkpt lat="46.5273" lon="0.36835">
        <ele>102.8</ele>
        <time>2021-09-12T10:51:54Z</time>
      </trkpt>
      <trkpt lat="46.52738" lon="0.36827">
        <ele>103.4</ele>
        <time>2021-09-12T10:52:00Z</time>
      </trkpt>
      <trkpt lat="46.52744" lon="0.36822">
        <ele>104.6</ele>
        <time>2021-09-12T10:52:05Z</time>
      </trkpt>
      <trkpt lat="46.52746" lon="0.36821">
        <ele>104.8</ele>
        <time>2021-09-12T10:52:06Z</time>
      </trkpt>
      <trkpt lat="46.52758" lon="0.36813">
        <ele>105.6</ele>
        <time>2021-09-12T10:52:15Z</time>
      </trkpt>
      <trkpt lat="46.52769" lon="0.36809">
        <ele>106.6</ele>
        <time>2021-09-12T10:52:21Z</time>
      </trkpt>
      <trkpt lat="46.52771" lon="0.36809">
        <ele>106.8</ele>
        <time>2021-09-12T10:52:22Z</time>
      </trkpt>
      <trkpt lat="46.52781" lon="0.36806">
        <ele>108</ele>
        <time>2021-09-12T10:52:28Z</time>
      </trkpt>
      <trkpt lat="46.52792" lon="0.36806">
        <ele>109</ele>
        <time>2021-09-12T10:52:35Z</time>
      </trkpt>
      <trkpt lat="46.52794" lon="0.36806">
        <ele>109.2</ele>
        <time>2021-09-12T10:52:36Z</time>
      </trkpt>
      <trkpt lat="46.52801" lon="0.36805">
        <ele>110</ele>
        <time>2021-09-12T10:52:41Z</time>
      </trkpt>
      <trkpt lat="46.52812" lon="0.36807">
        <ele>111.2</ele>
        <time>2021-09-12T10:52:48Z</time>
      </trkpt>
      <trkpt lat="46.52816" lon="0.36809">
        <ele>111.4</ele>
        <time>2021-09-12T10:52:51Z</time>
      </trkpt>
      <trkpt lat="46.52824" lon="0.36811">
        <ele>112.4</ele>
        <time>2021-09-12T10:52:56Z</time>
      </trkpt>
      <trkpt lat="46.52838" lon="0.36817">
        <ele>113.4</ele>
        <time>2021-09-12T10:53:04Z</time>
      </trkpt>
      <trkpt lat="46.52861" lon="0.36833">
        <ele>114.2</ele>
        <time>2021-09-12T10:53:13Z</time>
      </trkpt>
      <trkpt lat="46.52876" lon="0.36845">
        <ele>114.4</ele>
        <time>2021-09-12T10:53:20Z</time>
      </trkpt>
      <trkpt lat="46.52879" lon="0.36847">
        <ele>114.6</ele>
        <time>2021-09-12T10:53:21Z</time>
      </trkpt>
      <trkpt lat="46.52896" lon="0.36864">
        <ele>115.4</ele>
        <time>2021-09-12T10:53:28Z</time>
      </trkpt>
      <trkpt lat="46.5291" lon="0.36888">
        <ele>115.6</ele>
        <time>2021-09-12T10:53:35Z</time>
      </trkpt>
      <trkpt lat="46.52914" lon="0.3691">
        <ele>116</ele>
        <time>2021-09-12T10:53:41Z</time>
      </trkpt>
      <trkpt lat="46.52917" lon="0.36921">
        <ele>116.6</ele>
        <time>2021-09-12T10:53:44Z</time>
      </trkpt>
      <trkpt lat="46.52922" lon="0.36944">
        <ele>117.2</ele>
        <time>2021-09-12T10:53:50Z</time>
      </trkpt>
      <trkpt lat="46.52924" lon="0.36954">
        <ele>117.6</ele>
        <time>2021-09-12T10:53:53Z</time>
      </trkpt>
      <trkpt lat="46.52926" lon="0.36964">
        <ele>118.2</ele>
        <time>2021-09-12T10:53:56Z</time>
      </trkpt>
      <trkpt lat="46.52929" lon="0.36975">
        <ele>118.6</ele>
        <time>2021-09-12T10:53:59Z</time>
      </trkpt>
      <trkpt lat="46.52932" lon="0.36987">
        <ele>118.8</ele>
        <time>2021-09-12T10:54:02Z</time>
      </trkpt>
      <trkpt lat="46.5294" lon="0.37007">
        <ele>118.8</ele>
        <time>2021-09-12T10:54:08Z</time>
      </trkpt>
      <trkpt lat="46.52945" lon="0.37014">
        <ele>117.8</ele>
        <time>2021-09-12T10:54:13Z</time>
      </trkpt>
      <trkpt lat="46.52944" lon="0.37014">
        <ele>117.6</ele>
        <time>2021-09-12T10:54:15Z</time>
      </trkpt>
      <trkpt lat="46.52944" lon="0.37015">
        <ele>117.4</ele>
        <time>2021-09-12T10:54:25Z</time>
      </trkpt>
      <trkpt lat="46.52944" lon="0.37015">
        <ele>117.4</ele>
        <time>2021-09-12T10:54:42Z</time>
      </trkpt>
      <trkpt lat="46.52944" lon="0.37015">
        <ele>117.4</ele>
        <time>2021-09-12T10:55:09Z</time>
      </trkpt>
      <trkpt lat="46.52944" lon="0.37015">
        <ele>117.6</ele>
        <time>2021-09-12T10:55:34Z</time>
      </trkpt>
      <trkpt lat="46.52944" lon="0.37015">
        <ele>117.6</ele>
        <time>2021-09-12T10:56:02Z</time>
      </trkpt>
      <trkpt lat="46.52944" lon="0.37015">
        <ele>117.6</ele>
        <time>2021-09-12T10:56:03Z</time>
      </trkpt>
      <trkpt lat="46.52944" lon="0.37015">
        <ele>117.8</ele>
        <time>2021-09-12T10:56:40Z</time>
      </trkpt>
      <trkpt lat="46.52949" lon="0.37017">
        <ele>117.8</ele>
        <time>2021-09-12T10:56:47Z</time>
      </trkpt>
      <trkpt lat="46.52955" lon="0.3702">
        <ele>117.8</ele>
        <time>2021-09-12T10:56:49Z</time>
      </trkpt>
      <trkpt lat="46.52963" lon="0.37024">
        <ele>117.2</ele>
        <time>2021-09-12T10:56:51Z</time>
      </trkpt>
      <trkpt lat="46.52979" lon="0.37031">
        <ele>116.2</ele>
        <time>2021-09-12T10:56:54Z</time>
      </trkpt>
      <trkpt lat="46.52995" lon="0.3704">
        <ele>114.8</ele>
        <time>2021-09-12T10:56:57Z</time>
      </trkpt>
      <trkpt lat="46.53" lon="0.37042">
        <ele>114.4</ele>
        <time>2021-09-12T10:56:58Z</time>
      </trkpt>
      <trkpt lat="46.53006" lon="0.37044">
        <ele>113.8</ele>
        <time>2021-09-12T10:56:59Z</time>
      </trkpt>
      <trkpt lat="46.53012" lon="0.37046">
        <ele>113.2</ele>
        <time>2021-09-12T10:57:00Z</time>
      </trkpt>
      <trkpt lat="46.53032" lon="0.37046">
        <ele>112.4</ele>
        <time>2021-09-12T10:57:03Z</time>
      </trkpt>
      <trkpt lat="46.53054" lon="0.37044">
        <ele>111</ele>
        <time>2021-09-12T10:57:06Z</time>
      </trkpt>
      <trkpt lat="46.53078" lon="0.37042">
        <ele>109.6</ele>
        <time>2021-09-12T10:57:09Z</time>
      </trkpt>
      <trkpt lat="46.53106" lon="0.37038">
        <ele>107.8</ele>
        <time>2021-09-12T10:57:12Z</time>
      </trkpt>
      <trkpt lat="46.53116" lon="0.37035">
        <ele>107</ele>
        <time>2021-09-12T10:57:13Z</time>
      </trkpt>
      <trkpt lat="46.53126" lon="0.37032">
        <ele>106.4</ele>
        <time>2021-09-12T10:57:14Z</time>
      </trkpt>
      <trkpt lat="46.53146" lon="0.37024">
        <ele>105.4</ele>
        <time>2021-09-12T10:57:17Z</time>
      </trkpt>
      <trkpt lat="46.53151" lon="0.37018">
        <ele>104.6</ele>
        <time>2021-09-12T10:57:19Z</time>
      </trkpt>
      <trkpt lat="46.53153" lon="0.37014">
        <ele>104.6</ele>
        <time>2021-09-12T10:57:20Z</time>
      </trkpt>
      <trkpt lat="46.53155" lon="0.37001">
        <ele>104.4</ele>
        <time>2021-09-12T10:57:23Z</time>
      </trkpt>
      <trkpt lat="46.53153" lon="0.36992">
        <ele>104.2</ele>
        <time>2021-09-12T10:57:25Z</time>
      </trkpt>
      <trkpt lat="46.53145" lon="0.3696">
        <ele>103.6</ele>
        <time>2021-09-12T10:57:30Z</time>
      </trkpt>
      <trkpt lat="46.5314" lon="0.36946">
        <ele>103.2</ele>
        <time>2021-09-12T10:57:32Z</time>
      </trkpt>
      <trkpt lat="46.53131" lon="0.36908">
        <ele>102.2</ele>
        <time>2021-09-12T10:57:37Z</time>
      </trkpt>
      <trkpt lat="46.53111" lon="0.36851">
        <ele>101</ele>
        <time>2021-09-12T10:57:44Z</time>
      </trkpt>
      <trkpt lat="46.531" lon="0.36827">
        <ele>99.8</ele>
        <time>2021-09-12T10:57:47Z</time>
      </trkpt>
      <trkpt lat="46.5309" lon="0.36791">
        <ele>98.8</ele>
        <time>2021-09-12T10:57:51Z</time>
      </trkpt>
      <trkpt lat="46.53088" lon="0.36781">
        <ele>98.6</ele>
        <time>2021-09-12T10:57:52Z</time>
      </trkpt>
      <trkpt lat="46.53083" lon="0.36741">
        <ele>97.2</ele>
        <time>2021-09-12T10:57:56Z</time>
      </trkpt>
      <trkpt lat="46.53083" lon="0.3672">
        <ele>96.8</ele>
        <time>2021-09-12T10:57:58Z</time>
      </trkpt>
      <trkpt lat="46.53087" lon="0.36699">
        <ele>96</ele>
        <time>2021-09-12T10:58:00Z</time>
      </trkpt>
      <trkpt lat="46.5309" lon="0.3669">
        <ele>95.8</ele>
        <time>2021-09-12T10:58:01Z</time>
      </trkpt>
      <trkpt lat="46.53112" lon="0.36639">
        <ele>95.2</ele>
        <time>2021-09-12T10:58:07Z</time>
      </trkpt>
      <trkpt lat="46.53116" lon="0.36632">
        <ele>95</ele>
        <time>2021-09-12T10:58:08Z</time>
      </trkpt>
      <trkpt lat="46.53125" lon="0.36611">
        <ele>94.2</ele>
        <time>2021-09-12T10:58:11Z</time>
      </trkpt>
      <trkpt lat="46.5313" lon="0.36597">
        <ele>93.8</ele>
        <time>2021-09-12T10:58:13Z</time>
      </trkpt>
      <trkpt lat="46.53146" lon="0.36558">
        <ele>92.8</ele>
        <time>2021-09-12T10:58:18Z</time>
      </trkpt>
      <trkpt lat="46.53149" lon="0.3655">
        <ele>92.6</ele>
        <time>2021-09-12T10:58:19Z</time>
      </trkpt>
      <trkpt lat="46.53162" lon="0.36516">
        <ele>91.6</ele>
        <time>2021-09-12T10:58:23Z</time>
      </trkpt>
      <trkpt lat="46.53166" lon="0.36508">
        <ele>91</ele>
        <time>2021-09-12T10:58:24Z</time>
      </trkpt>
      <trkpt lat="46.5317" lon="0.36499">
        <ele>90.4</ele>
        <time>2021-09-12T10:58:25Z</time>
      </trkpt>
      <trkpt lat="46.53174" lon="0.3649">
        <ele>90.2</ele>
        <time>2021-09-12T10:58:26Z</time>
      </trkpt>
      <trkpt lat="46.53182" lon="0.36473">
        <ele>89.8</ele>
        <time>2021-09-12T10:58:28Z</time>
      </trkpt>
      <trkpt lat="46.5319" lon="0.36456">
        <ele>89</ele>
        <time>2021-09-12T10:58:30Z</time>
      </trkpt>
      <trkpt lat="46.53195" lon="0.36449">
        <ele>88.8</ele>
        <time>2021-09-12T10:58:31Z</time>
      </trkpt>
      <trkpt lat="46.53231" lon="0.36392">
        <ele>88.4</ele>
        <time>2021-09-12T10:58:39Z</time>
      </trkpt>
      <trkpt lat="46.53241" lon="0.3638">
        <ele>88.4</ele>
        <time>2021-09-12T10:58:41Z</time>
      </trkpt>
      <trkpt lat="46.53251" lon="0.36372">
        <ele>88.4</ele>
        <time>2021-09-12T10:58:43Z</time>
      </trkpt>
      <trkpt lat="46.53255" lon="0.36369">
        <ele>88.4</ele>
        <time>2021-09-12T10:58:44Z</time>
      </trkpt>
      <trkpt lat="46.53264" lon="0.36362">
        <ele>88.4</ele>
        <time>2021-09-12T10:58:46Z</time>
      </trkpt>
      <trkpt lat="46.5327" lon="0.36352">
        <ele>88.6</ele>
        <time>2021-09-12T10:58:48Z</time>
      </trkpt>
      <trkpt lat="46.53273" lon="0.36346">
        <ele>89</ele>
        <time>2021-09-12T10:58:49Z</time>
      </trkpt>
      <trkpt lat="46.53274" lon="0.36339">
        <ele>89</ele>
        <time>2021-09-12T10:58:50Z</time>
      </trkpt>
      <trkpt lat="46.53276" lon="0.36326">
        <ele>89.4</ele>
        <time>2021-09-12T10:58:52Z</time>
      </trkpt>
      <trkpt lat="46.53276" lon="0.3632">
        <ele>89.6</ele>
        <time>2021-09-12T10:58:53Z</time>
      </trkpt>
      <trkpt lat="46.53275" lon="0.36307">
        <ele>89.6</ele>
        <time>2021-09-12T10:58:55Z</time>
      </trkpt>
      <trkpt lat="46.53271" lon="0.36289">
        <ele>90</ele>
        <time>2021-09-12T10:58:58Z</time>
      </trkpt>
      <trkpt lat="46.5327" lon="0.36283">
        <ele>90.2</ele>
        <time>2021-09-12T10:58:59Z</time>
      </trkpt>
      <trkpt lat="46.53265" lon="0.36265">
        <ele>91.2</ele>
        <time>2021-09-12T10:59:03Z</time>
      </trkpt>
      <trkpt lat="46.53261" lon="0.36252">
        <ele>91.8</ele>
        <time>2021-09-12T10:59:06Z</time>
      </trkpt>
      <trkpt lat="46.53259" lon="0.36239">
        <ele>92.4</ele>
        <time>2021-09-12T10:59:09Z</time>
      </trkpt>
      <trkpt lat="46.53255" lon="0.36221">
        <ele>92.8</ele>
        <time>2021-09-12T10:59:13Z</time>
      </trkpt>
      <trkpt lat="46.5325" lon="0.36197">
        <ele>93.6</ele>
        <time>2021-09-12T10:59:18Z</time>
      </trkpt>
      <trkpt lat="46.53249" lon="0.36192">
        <ele>93.6</ele>
        <time>2021-09-12T10:59:19Z</time>
      </trkpt>
      <trkpt lat="46.53245" lon="0.36162">
        <ele>94.6</ele>
        <time>2021-09-12T10:59:25Z</time>
      </trkpt>
      <trkpt lat="46.53244" lon="0.36157">
        <ele>94.6</ele>
        <time>2021-09-12T10:59:26Z</time>
      </trkpt>
      <trkpt lat="46.53236" lon="0.36126">
        <ele>95.6</ele>
        <time>2021-09-12T10:59:33Z</time>
      </trkpt>
      <trkpt lat="46.53236" lon="0.36126">
        <ele>95.8</ele>
        <time>2021-09-12T10:59:34Z</time>
      </trkpt>
      <trkpt lat="46.53233" lon="0.36113">
        <ele>96</ele>
        <time>2021-09-12T10:59:36Z</time>
      </trkpt>
      <trkpt lat="46.53234" lon="0.36105">
        <ele>96.2</ele>
        <time>2021-09-12T10:59:38Z</time>
      </trkpt>
      <trkpt lat="46.5324" lon="0.36096">
        <ele>96.4</ele>
        <time>2021-09-12T10:59:41Z</time>
      </trkpt>
      <trkpt lat="46.53246" lon="0.36093">
        <ele>96.4</ele>
        <time>2021-09-12T10:59:43Z</time>
      </trkpt>
      <trkpt lat="46.53263" lon="0.36083">
        <ele>96.8</ele>
        <time>2021-09-12T10:59:50Z</time>
      </trkpt>
      <trkpt lat="46.5327" lon="0.36077">
        <ele>98</ele>
        <time>2021-09-12T10:59:55Z</time>
      </trkpt>
      <trkpt lat="46.53272" lon="0.36075">
        <ele>98.2</ele>
        <time>2021-09-12T10:59:57Z</time>
      </trkpt>
      <trkpt lat="46.53276" lon="0.36072">
        <ele>99.2</ele>
        <time>2021-09-12T11:00:00Z</time>
      </trkpt>
      <trkpt lat="46.53281" lon="0.36068">
        <ele>100.4</ele>
        <time>2021-09-12T11:00:04Z</time>
      </trkpt>
      <trkpt lat="46.53289" lon="0.36066">
        <ele>101.4</ele>
        <time>2021-09-12T11:00:10Z</time>
      </trkpt>
      <trkpt lat="46.53296" lon="0.36061">
        <ele>102.6</ele>
        <time>2021-09-12T11:00:16Z</time>
      </trkpt>
      <trkpt lat="46.53297" lon="0.3606">
        <ele>102.6</ele>
        <time>2021-09-12T11:00:17Z</time>
      </trkpt>
      <trkpt lat="46.533" lon="0.36058">
        <ele>103.2</ele>
        <time>2021-09-12T11:00:20Z</time>
      </trkpt>
      <trkpt lat="46.53302" lon="0.36057">
        <ele>103.6</ele>
        <time>2021-09-12T11:00:22Z</time>
      </trkpt>
      <trkpt lat="46.53305" lon="0.36056">
        <ele>104</ele>
        <time>2021-09-12T11:00:24Z</time>
      </trkpt>
      <trkpt lat="46.53308" lon="0.36055">
        <ele>104.6</ele>
        <time>2021-09-12T11:00:27Z</time>
      </trkpt>
      <trkpt lat="46.5332" lon="0.36052">
        <ele>105.8</ele>
        <time>2021-09-12T11:00:34Z</time>
      </trkpt>
      <trkpt lat="46.53327" lon="0.36051">
        <ele>107</ele>
        <time>2021-09-12T11:00:39Z</time>
      </trkpt>
      <trkpt lat="46.5333" lon="0.36051">
        <ele>107.2</ele>
        <time>2021-09-12T11:00:41Z</time>
      </trkpt>
      <trkpt lat="46.53336" lon="0.36054">
        <ele>108</ele>
        <time>2021-09-12T11:00:45Z</time>
      </trkpt>
      <trkpt lat="46.53345" lon="0.3606">
        <ele>108.8</ele>
        <time>2021-09-12T11:00:52Z</time>
      </trkpt>
      <trkpt lat="46.53348" lon="0.36061">
        <ele>109.2</ele>
        <time>2021-09-12T11:00:54Z</time>
      </trkpt>
      <trkpt lat="46.53359" lon="0.36068">
        <ele>110.2</ele>
        <time>2021-09-12T11:01:01Z</time>
      </trkpt>
      <trkpt lat="46.53365" lon="0.36072">
        <ele>110.6</ele>
        <time>2021-09-12T11:01:04Z</time>
      </trkpt>
      <trkpt lat="46.53376" lon="0.36081">
        <ele>111.4</ele>
        <time>2021-09-12T11:01:11Z</time>
      </trkpt>
      <trkpt lat="46.53386" lon="0.36089">
        <ele>112.2</ele>
        <time>2021-09-12T11:01:18Z</time>
      </trkpt>
      <trkpt lat="46.5339" lon="0.36092">
        <ele>112.4</ele>
        <time>2021-09-12T11:01:20Z</time>
      </trkpt>
      <trkpt lat="46.53403" lon="0.36105">
        <ele>113.4</ele>
        <time>2021-09-12T11:01:28Z</time>
      </trkpt>
      <trkpt lat="46.53405" lon="0.36106">
        <ele>113.4</ele>
        <time>2021-09-12T11:01:29Z</time>
      </trkpt>
      <trkpt lat="46.53422" lon="0.36119">
        <ele>113.8</ele>
        <time>2021-09-12T11:01:35Z</time>
      </trkpt>
      <trkpt lat="46.53441" lon="0.36136">
        <ele>114.2</ele>
        <time>2021-09-12T11:01:41Z</time>
      </trkpt>
      <trkpt lat="46.53459" lon="0.36156">
        <ele>114.6</ele>
        <time>2021-09-12T11:01:47Z</time>
      </trkpt>
      <trkpt lat="46.53479" lon="0.36173">
        <ele>114.2</ele>
        <time>2021-09-12T11:01:53Z</time>
      </trkpt>
      <trkpt lat="46.53502" lon="0.36178">
        <ele>114</ele>
        <time>2021-09-12T11:01:58Z</time>
      </trkpt>
      <trkpt lat="46.53532" lon="0.36182">
        <ele>115.6</ele>
        <time>2021-09-12T11:02:05Z</time>
      </trkpt>
      <trkpt lat="46.5356" lon="0.36197">
        <ele>115.8</ele>
        <time>2021-09-12T11:02:13Z</time>
      </trkpt>
      <trkpt lat="46.53582" lon="0.36213">
        <ele>115</ele>
        <time>2021-09-12T11:02:21Z</time>
      </trkpt>
      <trkpt lat="46.53592" lon="0.3623">
        <ele>114.6</ele>
        <time>2021-09-12T11:02:25Z</time>
      </trkpt>
      <trkpt lat="46.53598" lon="0.36239">
        <ele>114.6</ele>
        <time>2021-09-12T11:02:27Z</time>
      </trkpt>
      <trkpt lat="46.53618" lon="0.36265">
        <ele>114</ele>
        <time>2021-09-12T11:02:33Z</time>
      </trkpt>
      <trkpt lat="46.53638" lon="0.36287">
        <ele>113.6</ele>
        <time>2021-09-12T11:02:38Z</time>
      </trkpt>
      <trkpt lat="46.53645" lon="0.36294">
        <ele>113.4</ele>
        <time>2021-09-12T11:02:40Z</time>
      </trkpt>
      <trkpt lat="46.53673" lon="0.36323">
        <ele>113.4</ele>
        <time>2021-09-12T11:02:47Z</time>
      </trkpt>
      <trkpt lat="46.53709" lon="0.36355">
        <ele>113</ele>
        <time>2021-09-12T11:02:54Z</time>
      </trkpt>
      <trkpt lat="46.53736" lon="0.3638">
        <ele>113.2</ele>
        <time>2021-09-12T11:03:00Z</time>
      </trkpt>
      <trkpt lat="46.53746" lon="0.36387">
        <ele>113.2</ele>
        <time>2021-09-12T11:03:03Z</time>
      </trkpt>
      <trkpt lat="46.53754" lon="0.36395">
        <ele>114</ele>
        <time>2021-09-12T11:03:06Z</time>
      </trkpt>
      <trkpt lat="46.53776" lon="0.36419">
        <ele>114</ele>
        <time>2021-09-12T11:03:13Z</time>
      </trkpt>
      <trkpt lat="46.53792" lon="0.36436">
        <ele>114</ele>
        <time>2021-09-12T11:03:19Z</time>
      </trkpt>
      <trkpt lat="46.53816" lon="0.36447">
        <ele>113.2</ele>
        <time>2021-09-12T11:03:26Z</time>
      </trkpt>
      <trkpt lat="46.53829" lon="0.36435">
        <ele>113.2</ele>
        <time>2021-09-12T11:03:30Z</time>
      </trkpt>
      <trkpt lat="46.53831" lon="0.36406">
        <ele>114</ele>
        <time>2021-09-12T11:03:35Z</time>
      </trkpt>
      <trkpt lat="46.53829" lon="0.36374">
        <ele>114.8</ele>
        <time>2021-09-12T11:03:40Z</time>
      </trkpt>
      <trkpt lat="46.53827" lon="0.36343">
        <ele>115.8</ele>
        <time>2021-09-12T11:03:45Z</time>
      </trkpt>
      <trkpt lat="46.53827" lon="0.36337">
        <ele>116</ele>
        <time>2021-09-12T11:03:46Z</time>
      </trkpt>
      <trkpt lat="46.53824" lon="0.36305">
        <ele>116.8</ele>
        <time>2021-09-12T11:03:52Z</time>
      </trkpt>
      <trkpt lat="46.53824" lon="0.36278">
        <ele>117.2</ele>
        <time>2021-09-12T11:03:57Z</time>
      </trkpt>
      <trkpt lat="46.53826" lon="0.36269">
        <ele>117.4</ele>
        <time>2021-09-12T11:03:59Z</time>
      </trkpt>
      <trkpt lat="46.53837" lon="0.36235">
        <ele>118.2</ele>
        <time>2021-09-12T11:04:06Z</time>
      </trkpt>
      <trkpt lat="46.5384" lon="0.3623">
        <ele>118.2</ele>
        <time>2021-09-12T11:04:07Z</time>
      </trkpt>
      <trkpt lat="46.53844" lon="0.36221">
        <ele>118.2</ele>
        <time>2021-09-12T11:04:09Z</time>
      </trkpt>
      <trkpt lat="46.53854" lon="0.36204">
        <ele>118.6</ele>
        <time>2021-09-12T11:04:13Z</time>
      </trkpt>
      <trkpt lat="46.53874" lon="0.36172">
        <ele>118.6</ele>
        <time>2021-09-12T11:04:20Z</time>
      </trkpt>
      <trkpt lat="46.53899" lon="0.36135">
        <ele>118</ele>
        <time>2021-09-12T11:04:28Z</time>
      </trkpt>
      <trkpt lat="46.53922" lon="0.36101">
        <ele>117.6</ele>
        <time>2021-09-12T11:04:36Z</time>
      </trkpt>
      <trkpt lat="46.53946" lon="0.36075">
        <ele>117.4</ele>
        <time>2021-09-12T11:04:43Z</time>
      </trkpt>
      <trkpt lat="46.53967" lon="0.36055">
        <ele>117.2</ele>
        <time>2021-09-12T11:04:48Z</time>
      </trkpt>
      <trkpt lat="46.53971" lon="0.3605">
        <ele>117</ele>
        <time>2021-09-12T11:04:49Z</time>
      </trkpt>
      <trkpt lat="46.53975" lon="0.36044">
        <ele>117</ele>
        <time>2021-09-12T11:04:50Z</time>
      </trkpt>
      <trkpt lat="46.53982" lon="0.36032">
        <ele>116.6</ele>
        <time>2021-09-12T11:04:52Z</time>
      </trkpt>
      <trkpt lat="46.53988" lon="0.36017">
        <ele>116.6</ele>
        <time>2021-09-12T11:04:54Z</time>
      </trkpt>
      <trkpt lat="46.5399" lon="0.36009">
        <ele>116.2</ele>
        <time>2021-09-12T11:04:55Z</time>
      </trkpt>
      <trkpt lat="46.53992" lon="0.36001">
        <ele>116</ele>
        <time>2021-09-12T11:04:56Z</time>
      </trkpt>
      <trkpt lat="46.53992" lon="0.35992">
        <ele>115.8</ele>
        <time>2021-09-12T11:04:57Z</time>
      </trkpt>
      <trkpt lat="46.53994" lon="0.35964">
        <ele>115</ele>
        <time>2021-09-12T11:05:00Z</time>
      </trkpt>
      <trkpt lat="46.53995" lon="0.35955">
        <ele>114.8</ele>
        <time>2021-09-12T11:05:01Z</time>
      </trkpt>
      <trkpt lat="46.53999" lon="0.35898">
        <ele>115.4</ele>
        <time>2021-09-12T11:05:08Z</time>
      </trkpt>
      <trkpt lat="46.54001" lon="0.35878">
        <ele>116</ele>
        <time>2021-09-12T11:05:10Z</time>
      </trkpt>
      <trkpt lat="46.54002" lon="0.35854">
        <ele>117</ele>
        <time>2021-09-12T11:05:15Z</time>
      </trkpt>
      <trkpt lat="46.54003" lon="0.35848">
        <ele>117.2</ele>
        <time>2021-09-12T11:05:16Z</time>
      </trkpt>
      <trkpt lat="46.54006" lon="0.35805">
        <ele>118.2</ele>
        <time>2021-09-12T11:05:23Z</time>
      </trkpt>
      <trkpt lat="46.54007" lon="0.35799">
        <ele>118.2</ele>
        <time>2021-09-12T11:05:24Z</time>
      </trkpt>
      <trkpt lat="46.54012" lon="0.35751">
        <ele>118.6</ele>
        <time>2021-09-12T11:05:32Z</time>
      </trkpt>
      <trkpt lat="46.5402" lon="0.35711">
        <ele>119.2</ele>
        <time>2021-09-12T11:05:39Z</time>
      </trkpt>
      <trkpt lat="46.54025" lon="0.35685">
        <ele>119.6</ele>
        <time>2021-09-12T11:05:43Z</time>
      </trkpt>
      <trkpt lat="46.54036" lon="0.35648">
        <ele>119.8</ele>
        <time>2021-09-12T11:05:49Z</time>
      </trkpt>
      <trkpt lat="46.54059" lon="0.35597">
        <ele>119.8</ele>
        <time>2021-09-12T11:05:58Z</time>
      </trkpt>
      <trkpt lat="46.54077" lon="0.35558">
        <ele>119.6</ele>
        <time>2021-09-12T11:06:05Z</time>
      </trkpt>
      <trkpt lat="46.54095" lon="0.35513">
        <ele>119.6</ele>
        <time>2021-09-12T11:06:13Z</time>
      </trkpt>
      <trkpt lat="46.54101" lon="0.35495">
        <ele>119.6</ele>
        <time>2021-09-12T11:06:16Z</time>
      </trkpt>
      <trkpt lat="46.54104" lon="0.35482">
        <ele>119.6</ele>
        <time>2021-09-12T11:06:18Z</time>
      </trkpt>
      <trkpt lat="46.54104" lon="0.35475">
        <ele>119.4</ele>
        <time>2021-09-12T11:06:19Z</time>
      </trkpt>
      <trkpt lat="46.54104" lon="0.35468">
        <ele>119.2</ele>
        <time>2021-09-12T11:06:20Z</time>
      </trkpt>
      <trkpt lat="46.54104" lon="0.35454">
        <ele>119</ele>
        <time>2021-09-12T11:06:22Z</time>
      </trkpt>
      <trkpt lat="46.54106" lon="0.35447">
        <ele>119</ele>
        <time>2021-09-12T11:06:23Z</time>
      </trkpt>
      <trkpt lat="46.54108" lon="0.35441">
        <ele>119</ele>
        <time>2021-09-12T11:06:24Z</time>
      </trkpt>
      <trkpt lat="46.5412" lon="0.35427">
        <ele>119</ele>
        <time>2021-09-12T11:06:27Z</time>
      </trkpt>
      <trkpt lat="46.54152" lon="0.35393">
        <ele>119.4</ele>
        <time>2021-09-12T11:06:35Z</time>
      </trkpt>
      <trkpt lat="46.54182" lon="0.35377">
        <ele>119.8</ele>
        <time>2021-09-12T11:06:42Z</time>
      </trkpt>
      <trkpt lat="46.54201" lon="0.35371">
        <ele>120</ele>
        <time>2021-09-12T11:06:47Z</time>
      </trkpt>
      <trkpt lat="46.54204" lon="0.35371">
        <ele>120</ele>
        <time>2021-09-12T11:06:48Z</time>
      </trkpt>
      <trkpt lat="46.54214" lon="0.3537">
        <ele>120.4</ele>
        <time>2021-09-12T11:06:51Z</time>
      </trkpt>
      <trkpt lat="46.54223" lon="0.3537">
        <ele>120.4</ele>
        <time>2021-09-12T11:06:54Z</time>
      </trkpt>
      <trkpt lat="46.54229" lon="0.3537">
        <ele>120.6</ele>
        <time>2021-09-12T11:06:56Z</time>
      </trkpt>
      <trkpt lat="46.54235" lon="0.3537">
        <ele>121</ele>
        <time>2021-09-12T11:06:58Z</time>
      </trkpt>
      <trkpt lat="46.54246" lon="0.35371">
        <ele>121.2</ele>
        <time>2021-09-12T11:07:02Z</time>
      </trkpt>
      <trkpt lat="46.54249" lon="0.35371">
        <ele>121.4</ele>
        <time>2021-09-12T11:07:03Z</time>
      </trkpt>
      <trkpt lat="46.54257" lon="0.35373">
        <ele>121.6</ele>
        <time>2021-09-12T11:07:06Z</time>
      </trkpt>
      <trkpt lat="46.54279" lon="0.35376">
        <ele>121.4</ele>
        <time>2021-09-12T11:07:13Z</time>
      </trkpt>
      <trkpt lat="46.54294" lon="0.35378">
        <ele>121.2</ele>
        <time>2021-09-12T11:07:17Z</time>
      </trkpt>
      <trkpt lat="46.54307" lon="0.3538">
        <ele>120.8</ele>
        <time>2021-09-12T11:07:21Z</time>
      </trkpt>
      <trkpt lat="46.54311" lon="0.35382">
        <ele>120.8</ele>
        <time>2021-09-12T11:07:23Z</time>
      </trkpt>
      <trkpt lat="46.54313" lon="0.35386">
        <ele>120.6</ele>
        <time>2021-09-12T11:07:25Z</time>
      </trkpt>
      <trkpt lat="46.54316" lon="0.35392">
        <ele>120.6</ele>
        <time>2021-09-12T11:07:27Z</time>
      </trkpt>
      <trkpt lat="46.54319" lon="0.35396">
        <ele>120.2</ele>
        <time>2021-09-12T11:07:29Z</time>
      </trkpt>
      <trkpt lat="46.54321" lon="0.35398">
        <ele>120</ele>
        <time>2021-09-12T11:07:30Z</time>
      </trkpt>
      <trkpt lat="46.54328" lon="0.35403">
        <ele>119.8</ele>
        <time>2021-09-12T11:07:32Z</time>
      </trkpt>
      <trkpt lat="46.5433" lon="0.35407">
        <ele>119.6</ele>
        <time>2021-09-12T11:07:34Z</time>
      </trkpt>
      <trkpt lat="46.54331" lon="0.35408">
        <ele>119.6</ele>
        <time>2021-09-12T11:07:35Z</time>
      </trkpt>
      <trkpt lat="46.5434" lon="0.35411">
        <ele>119.8</ele>
        <time>2021-09-12T11:07:39Z</time>
      </trkpt>
      <trkpt lat="46.54344" lon="0.35413">
        <ele>119.8</ele>
        <time>2021-09-12T11:07:40Z</time>
      </trkpt>
      <trkpt lat="46.54355" lon="0.35418">
        <ele>119.6</ele>
        <time>2021-09-12T11:07:44Z</time>
      </trkpt>
      <trkpt lat="46.54358" lon="0.3542">
        <ele>119.6</ele>
        <time>2021-09-12T11:07:45Z</time>
      </trkpt>
      <trkpt lat="46.54362" lon="0.35426">
        <ele>119.6</ele>
        <time>2021-09-12T11:07:47Z</time>
      </trkpt>
      <trkpt lat="46.54366" lon="0.35431">
        <ele>119.6</ele>
        <time>2021-09-12T11:07:48Z</time>
      </trkpt>
      <trkpt lat="46.54369" lon="0.35434">
        <ele>119.4</ele>
        <time>2021-09-12T11:07:49Z</time>
      </trkpt>
      <trkpt lat="46.54374" lon="0.35436">
        <ele>119.4</ele>
        <time>2021-09-12T11:07:51Z</time>
      </trkpt>
      <trkpt lat="46.54381" lon="0.35439">
        <ele>119.2</ele>
        <time>2021-09-12T11:07:53Z</time>
      </trkpt>
      <trkpt lat="46.54383" lon="0.3544">
        <ele>119.2</ele>
        <time>2021-09-12T11:07:54Z</time>
      </trkpt>
      <trkpt lat="46.54386" lon="0.35443">
        <ele>119</ele>
        <time>2021-09-12T11:07:55Z</time>
      </trkpt>
      <trkpt lat="46.5439" lon="0.35445">
        <ele>118.6</ele>
        <time>2021-09-12T11:07:56Z</time>
      </trkpt>
      <trkpt lat="46.54399" lon="0.35451">
        <ele>118.2</ele>
        <time>2021-09-12T11:08:01Z</time>
      </trkpt>
      <trkpt lat="46.54401" lon="0.35452">
        <ele>117.8</ele>
        <time>2021-09-12T11:08:02Z</time>
      </trkpt>
      <trkpt lat="46.54404" lon="0.35452">
        <ele>117.8</ele>
        <time>2021-09-12T11:08:03Z</time>
      </trkpt>
      <trkpt lat="46.5441" lon="0.35453">
        <ele>117.6</ele>
        <time>2021-09-12T11:08:05Z</time>
      </trkpt>
      <trkpt lat="46.54415" lon="0.35453">
        <ele>117.6</ele>
        <time>2021-09-12T11:08:06Z</time>
      </trkpt>
      <trkpt lat="46.5442" lon="0.35449">
        <ele>117.6</ele>
        <time>2021-09-12T11:08:08Z</time>
      </trkpt>
      <trkpt lat="46.54425" lon="0.35442">
        <ele>117</ele>
        <time>2021-09-12T11:08:10Z</time>
      </trkpt>
      <trkpt lat="46.54427" lon="0.35439">
        <ele>116.8</ele>
        <time>2021-09-12T11:08:11Z</time>
      </trkpt>
      <trkpt lat="46.54428" lon="0.35438">
        <ele>116.6</ele>
        <time>2021-09-12T11:08:12Z</time>
      </trkpt>
      <trkpt lat="46.54433" lon="0.3544">
        <ele>116.4</ele>
        <time>2021-09-12T11:08:14Z</time>
      </trkpt>
      <trkpt lat="46.54447" lon="0.35454">
        <ele>115.8</ele>
        <time>2021-09-12T11:08:19Z</time>
      </trkpt>
      <trkpt lat="46.54456" lon="0.35465">
        <ele>114.8</ele>
        <time>2021-09-12T11:08:24Z</time>
      </trkpt>
      <trkpt lat="46.54458" lon="0.35466">
        <ele>114.8</ele>
        <time>2021-09-12T11:08:25Z</time>
      </trkpt>
      <trkpt lat="46.54459" lon="0.35469">
        <ele>114.8</ele>
        <time>2021-09-12T11:08:26Z</time>
      </trkpt>
      <trkpt lat="46.54464" lon="0.35471">
        <ele>114.8</ele>
        <time>2021-09-12T11:08:28Z</time>
      </trkpt>
      <trkpt lat="46.54478" lon="0.35467">
        <ele>114</ele>
        <time>2021-09-12T11:08:32Z</time>
      </trkpt>
      <trkpt lat="46.5448" lon="0.35464">
        <ele>113.6</ele>
        <time>2021-09-12T11:08:33Z</time>
      </trkpt>
      <trkpt lat="46.54485" lon="0.3546">
        <ele>113.6</ele>
        <time>2021-09-12T11:08:35Z</time>
      </trkpt>
      <trkpt lat="46.5449" lon="0.35455">
        <ele>112.8</ele>
        <time>2021-09-12T11:08:38Z</time>
      </trkpt>
      <trkpt lat="46.54494" lon="0.35448">
        <ele>112.8</ele>
        <time>2021-09-12T11:08:43Z</time>
      </trkpt>
      <trkpt lat="46.54497" lon="0.35445">
        <ele>112.6</ele>
        <time>2021-09-12T11:08:45Z</time>
      </trkpt>
      <trkpt lat="46.545" lon="0.35438">
        <ele>111.8</ele>
        <time>2021-09-12T11:08:48Z</time>
      </trkpt>
      <trkpt lat="46.54508" lon="0.35418">
        <ele>111.8</ele>
        <time>2021-09-12T11:08:54Z</time>
      </trkpt>
      <trkpt lat="46.54517" lon="0.35406">
        <ele>112</ele>
        <time>2021-09-12T11:09:00Z</time>
      </trkpt>
      <trkpt lat="46.5452" lon="0.35405">
        <ele>112</ele>
        <time>2021-09-12T11:09:01Z</time>
      </trkpt>
      <trkpt lat="46.54523" lon="0.35403">
        <ele>111.6</ele>
        <time>2021-09-12T11:09:02Z</time>
      </trkpt>
      <trkpt lat="46.54526" lon="0.354">
        <ele>111</ele>
        <time>2021-09-12T11:09:03Z</time>
      </trkpt>
      <trkpt lat="46.54528" lon="0.35394">
        <ele>110.8</ele>
        <time>2021-09-12T11:09:04Z</time>
      </trkpt>
      <trkpt lat="46.54532" lon="0.35383">
        <ele>110.4</ele>
        <time>2021-09-12T11:09:06Z</time>
      </trkpt>
      <trkpt lat="46.54537" lon="0.35366">
        <ele>110.4</ele>
        <time>2021-09-12T11:09:09Z</time>
      </trkpt>
      <trkpt lat="46.54542" lon="0.3536">
        <ele>110.6</ele>
        <time>2021-09-12T11:09:11Z</time>
      </trkpt>
      <trkpt lat="46.54547" lon="0.35357">
        <ele>110.4</ele>
        <time>2021-09-12T11:09:13Z</time>
      </trkpt>
      <trkpt lat="46.5455" lon="0.35356">
        <ele>109.8</ele>
        <time>2021-09-12T11:09:14Z</time>
      </trkpt>
      <trkpt lat="46.54554" lon="0.35355">
        <ele>109.4</ele>
        <time>2021-09-12T11:09:15Z</time>
      </trkpt>
      <trkpt lat="46.54563" lon="0.35353">
        <ele>107.6</ele>
        <time>2021-09-12T11:09:17Z</time>
      </trkpt>
      <trkpt lat="46.54569" lon="0.35355">
        <ele>106.2</ele>
        <time>2021-09-12T11:09:19Z</time>
      </trkpt>
      <trkpt lat="46.54575" lon="0.35359">
        <ele>104</ele>
        <time>2021-09-12T11:09:21Z</time>
      </trkpt>
      <trkpt lat="46.54581" lon="0.3536">
        <ele>103</ele>
        <time>2021-09-12T11:09:22Z</time>
      </trkpt>
      <trkpt lat="46.54585" lon="0.35362">
        <ele>102</ele>
        <time>2021-09-12T11:09:23Z</time>
      </trkpt>
      <trkpt lat="46.54593" lon="0.35365">
        <ele>100.2</ele>
        <time>2021-09-12T11:09:25Z</time>
      </trkpt>
      <trkpt lat="46.54597" lon="0.35367">
        <ele>99.2</ele>
        <time>2021-09-12T11:09:26Z</time>
      </trkpt>
      <trkpt lat="46.54602" lon="0.3537">
        <ele>98</ele>
        <time>2021-09-12T11:09:27Z</time>
      </trkpt>
      <trkpt lat="46.54608" lon="0.35374">
        <ele>97</ele>
        <time>2021-09-12T11:09:28Z</time>
      </trkpt>
      <trkpt lat="46.54612" lon="0.35378">
        <ele>96</ele>
        <time>2021-09-12T11:09:29Z</time>
      </trkpt>
      <trkpt lat="46.54621" lon="0.35388">
        <ele>95.2</ele>
        <time>2021-09-12T11:09:31Z</time>
      </trkpt>
      <trkpt lat="46.54629" lon="0.35397">
        <ele>94.8</ele>
        <time>2021-09-12T11:09:33Z</time>
      </trkpt>
      <trkpt lat="46.54638" lon="0.35403">
        <ele>93.4</ele>
        <time>2021-09-12T11:09:35Z</time>
      </trkpt>
      <trkpt lat="46.54643" lon="0.35408">
        <ele>93.2</ele>
        <time>2021-09-12T11:09:36Z</time>
      </trkpt>
      <trkpt lat="46.54652" lon="0.35416">
        <ele>92.4</ele>
        <time>2021-09-12T11:09:38Z</time>
      </trkpt>
      <trkpt lat="46.54655" lon="0.35421">
        <ele>92</ele>
        <time>2021-09-12T11:09:39Z</time>
      </trkpt>
      <trkpt lat="46.54659" lon="0.3543">
        <ele>91.6</ele>
        <time>2021-09-12T11:09:41Z</time>
      </trkpt>
      <trkpt lat="46.54663" lon="0.35439">
        <ele>91.4</ele>
        <time>2021-09-12T11:09:43Z</time>
      </trkpt>
      <trkpt lat="46.54669" lon="0.35464">
        <ele>91.2</ele>
        <time>2021-09-12T11:09:47Z</time>
      </trkpt>
      <trkpt lat="46.5468" lon="0.35489">
        <ele>91.2</ele>
        <time>2021-09-12T11:09:51Z</time>
      </trkpt>
      <trkpt lat="46.54683" lon="0.355">
        <ele>90.8</ele>
        <time>2021-09-12T11:09:53Z</time>
      </trkpt>
      <trkpt lat="46.54687" lon="0.35509">
        <ele>90.2</ele>
        <time>2021-09-12T11:09:55Z</time>
      </trkpt>
      <trkpt lat="46.54692" lon="0.35515">
        <ele>89.4</ele>
        <time>2021-09-12T11:09:57Z</time>
      </trkpt>
      <trkpt lat="46.54695" lon="0.35518">
        <ele>89.2</ele>
        <time>2021-09-12T11:09:58Z</time>
      </trkpt>
      <trkpt lat="46.54698" lon="0.3552">
        <ele>88.4</ele>
        <time>2021-09-12T11:09:59Z</time>
      </trkpt>
      <trkpt lat="46.54701" lon="0.35521">
        <ele>88</ele>
        <time>2021-09-12T11:10:00Z</time>
      </trkpt>
      <trkpt lat="46.54706" lon="0.35525">
        <ele>87.2</ele>
        <time>2021-09-12T11:10:02Z</time>
      </trkpt>
      <trkpt lat="46.54709" lon="0.35528">
        <ele>86.8</ele>
        <time>2021-09-12T11:10:03Z</time>
      </trkpt>
      <trkpt lat="46.54715" lon="0.35534">
        <ele>85.6</ele>
        <time>2021-09-12T11:10:05Z</time>
      </trkpt>
      <trkpt lat="46.54717" lon="0.35536">
        <ele>85</ele>
        <time>2021-09-12T11:10:06Z</time>
      </trkpt>
      <trkpt lat="46.54719" lon="0.35538">
        <ele>83.2</ele>
        <time>2021-09-12T11:10:07Z</time>
      </trkpt>
      <trkpt lat="46.54723" lon="0.35545">
        <ele>82</ele>
        <time>2021-09-12T11:10:09Z</time>
      </trkpt>
      <trkpt lat="46.54723" lon="0.35546">
        <ele>81.4</ele>
        <time>2021-09-12T11:10:10Z</time>
      </trkpt>
      <trkpt lat="46.54728" lon="0.35551">
        <ele>81.2</ele>
        <time>2021-09-12T11:10:14Z</time>
      </trkpt>
      <trkpt lat="46.54728" lon="0.35553">
        <ele>81.2</ele>
        <time>2021-09-12T11:10:17Z</time>
      </trkpt>
      <trkpt lat="46.54727" lon="0.35556">
        <ele>81</ele>
        <time>2021-09-12T11:10:30Z</time>
      </trkpt>
      <trkpt lat="46.54728" lon="0.35556">
        <ele>81.4</ele>
        <time>2021-09-12T11:10:43Z</time>
      </trkpt>
      <trkpt lat="46.54728" lon="0.35557">
        <ele>81.2</ele>
        <time>2021-09-12T11:10:54Z</time>
      </trkpt>
      <trkpt lat="46.54729" lon="0.35557">
        <ele>81.2</ele>
        <time>2021-09-12T11:11:09Z</time>
      </trkpt>
      <trkpt lat="46.5473" lon="0.35557">
        <ele>81.6</ele>
        <time>2021-09-12T11:11:28Z</time>
      </trkpt>
      <trkpt lat="46.54731" lon="0.35559">
        <ele>81.2</ele>
        <time>2021-09-12T11:11:44Z</time>
      </trkpt>
      <trkpt lat="46.54731" lon="0.35559">
        <ele>81.4</ele>
        <time>2021-09-12T11:12:00Z</time>
      </trkpt>
      <trkpt lat="46.54732" lon="0.35559">
        <ele>81.2</ele>
        <time>2021-09-12T11:12:16Z</time>
      </trkpt>
      <trkpt lat="46.54732" lon="0.35559">
        <ele>81.4</ele>
        <time>2021-09-12T11:12:32Z</time>
      </trkpt>
      <trkpt lat="46.5473" lon="0.35563">
        <ele>81.8</ele>
        <time>2021-09-12T11:12:41Z</time>
      </trkpt>
      <trkpt lat="46.54731" lon="0.35569">
        <ele>82</ele>
        <time>2021-09-12T11:12:45Z</time>
      </trkpt>
      <trkpt lat="46.54731" lon="0.35574">
        <ele>82.8</ele>
        <time>2021-09-12T11:12:49Z</time>
      </trkpt>
      <trkpt lat="46.54731" lon="0.35578">
        <ele>83.2</ele>
        <time>2021-09-12T11:12:51Z</time>
      </trkpt>
      <trkpt lat="46.54731" lon="0.35579">
        <ele>83.4</ele>
        <time>2021-09-12T11:12:52Z</time>
      </trkpt>
      <trkpt lat="46.54732" lon="0.35586">
        <ele>84.2</ele>
        <time>2021-09-12T11:12:55Z</time>
      </trkpt>
      <trkpt lat="46.54731" lon="0.35591">
        <ele>85.2</ele>
        <time>2021-09-12T11:12:58Z</time>
      </trkpt>
      <trkpt lat="46.5473" lon="0.35598">
        <ele>86.2</ele>
        <time>2021-09-12T11:13:02Z</time>
      </trkpt>
      <trkpt lat="46.5473" lon="0.35601">
        <ele>87</ele>
        <time>2021-09-12T11:13:05Z</time>
      </trkpt>
      <trkpt lat="46.54729" lon="0.35602">
        <ele>87.4</ele>
        <time>2021-09-12T11:13:07Z</time>
      </trkpt>
      <trkpt lat="46.54729" lon="0.35603">
        <ele>87.6</ele>
        <time>2021-09-12T11:13:08Z</time>
      </trkpt>
      <trkpt lat="46.54728" lon="0.35606">
        <ele>88.4</ele>
        <time>2021-09-12T11:13:11Z</time>
      </trkpt>
      <trkpt lat="46.54728" lon="0.35608">
        <ele>88.8</ele>
        <time>2021-09-12T11:13:13Z</time>
      </trkpt>
      <trkpt lat="46.54728" lon="0.35611">
        <ele>89.4</ele>
        <time>2021-09-12T11:13:15Z</time>
      </trkpt>
      <trkpt lat="46.54729" lon="0.35613">
        <ele>89.6</ele>
        <time>2021-09-12T11:13:16Z</time>
      </trkpt>
      <trkpt lat="46.54729" lon="0.35617">
        <ele>89.8</ele>
        <time>2021-09-12T11:13:18Z</time>
      </trkpt>
      <trkpt lat="46.54731" lon="0.35623">
        <ele>90</ele>
        <time>2021-09-12T11:13:22Z</time>
      </trkpt>
      <trkpt lat="46.54731" lon="0.35625">
        <ele>89.8</ele>
        <time>2021-09-12T11:13:23Z</time>
      </trkpt>
      <trkpt lat="46.54736" lon="0.35645">
        <ele>89.2</ele>
        <time>2021-09-12T11:13:32Z</time>
      </trkpt>
      <trkpt lat="46.54737" lon="0.35653">
        <ele>89.4</ele>
        <time>2021-09-12T11:13:38Z</time>
      </trkpt>
      <trkpt lat="46.54737" lon="0.35658">
        <ele>89.6</ele>
        <time>2021-09-12T11:13:40Z</time>
      </trkpt>
      <trkpt lat="46.54735" lon="0.35671">
        <ele>90.6</ele>
        <time>2021-09-12T11:13:47Z</time>
      </trkpt>
      <trkpt lat="46.54733" lon="0.35677">
        <ele>91.8</ele>
        <time>2021-09-12T11:13:50Z</time>
      </trkpt>
      <trkpt lat="46.54732" lon="0.35678">
        <ele>92.6</ele>
        <time>2021-09-12T11:13:52Z</time>
      </trkpt>
      <trkpt lat="46.54731" lon="0.35679">
        <ele>92.8</ele>
        <time>2021-09-12T11:13:53Z</time>
      </trkpt>
      <trkpt lat="46.54731" lon="0.35681">
        <ele>93.2</ele>
        <time>2021-09-12T11:13:54Z</time>
      </trkpt>
      <trkpt lat="46.54729" lon="0.35684">
        <ele>94</ele>
        <time>2021-09-12T11:13:57Z</time>
      </trkpt>
      <trkpt lat="46.54727" lon="0.35686">
        <ele>94.4</ele>
        <time>2021-09-12T11:13:59Z</time>
      </trkpt>
      <trkpt lat="46.54726" lon="0.35688">
        <ele>95</ele>
        <time>2021-09-12T11:14:01Z</time>
      </trkpt>
      <trkpt lat="46.54726" lon="0.35689">
        <ele>95.2</ele>
        <time>2021-09-12T11:14:02Z</time>
      </trkpt>
      <trkpt lat="46.54723" lon="0.35694">
        <ele>96.2</ele>
        <time>2021-09-12T11:14:08Z</time>
      </trkpt>
      <trkpt lat="46.54722" lon="0.35696">
        <ele>96.4</ele>
        <time>2021-09-12T11:14:10Z</time>
      </trkpt>
      <trkpt lat="46.54718" lon="0.35702">
        <ele>97.2</ele>
        <time>2021-09-12T11:14:16Z</time>
      </trkpt>
      <trkpt lat="46.54716" lon="0.35706">
        <ele>97.8</ele>
        <time>2021-09-12T11:14:21Z</time>
      </trkpt>
      <trkpt lat="46.54713" lon="0.3571">
        <ele>98.2</ele>
        <time>2021-09-12T11:14:24Z</time>
      </trkpt>
      <trkpt lat="46.5471" lon="0.35712">
        <ele>99.2</ele>
        <time>2021-09-12T11:14:27Z</time>
      </trkpt>
      <trkpt lat="46.54709" lon="0.35713">
        <ele>99.4</ele>
        <time>2021-09-12T11:14:28Z</time>
      </trkpt>
      <trkpt lat="46.54706" lon="0.35714">
        <ele>100</ele>
        <time>2021-09-12T11:14:31Z</time>
      </trkpt>
      <trkpt lat="46.54705" lon="0.35713">
        <ele>100.2</ele>
        <time>2021-09-12T11:14:33Z</time>
      </trkpt>
      <trkpt lat="46.54704" lon="0.35714">
        <ele>100.4</ele>
        <time>2021-09-12T11:14:34Z</time>
      </trkpt>
      <trkpt lat="46.54703" lon="0.35715">
        <ele>100.8</ele>
        <time>2021-09-12T11:14:36Z</time>
      </trkpt>
      <trkpt lat="46.54702" lon="0.35718">
        <ele>101.4</ele>
        <time>2021-09-12T11:14:39Z</time>
      </trkpt>
      <trkpt lat="46.547" lon="0.35722">
        <ele>102</ele>
        <time>2021-09-12T11:14:43Z</time>
      </trkpt>
      <trkpt lat="46.54699" lon="0.35725">
        <ele>102.4</ele>
        <time>2021-09-12T11:14:45Z</time>
      </trkpt>
      <trkpt lat="46.54698" lon="0.35726">
        <ele>102.6</ele>
        <time>2021-09-12T11:14:46Z</time>
      </trkpt>
      <trkpt lat="46.54696" lon="0.35731">
        <ele>103.6</ele>
        <time>2021-09-12T11:14:51Z</time>
      </trkpt>
      <trkpt lat="46.54691" lon="0.3574">
        <ele>104.8</ele>
        <time>2021-09-12T11:14:59Z</time>
      </trkpt>
      <trkpt lat="46.54691" lon="0.3574">
        <ele>104.8</ele>
        <time>2021-09-12T11:15:00Z</time>
      </trkpt>
      <trkpt lat="46.54687" lon="0.3575">
        <ele>105.2</ele>
        <time>2021-09-12T11:15:09Z</time>
      </trkpt>
      <trkpt lat="46.54691" lon="0.35767">
        <ele>105</ele>
        <time>2021-09-12T11:15:17Z</time>
      </trkpt>
      <trkpt lat="46.54697" lon="0.3578">
        <ele>105.8</ele>
        <time>2021-09-12T11:15:24Z</time>
      </trkpt>
      <trkpt lat="46.54699" lon="0.35785">
        <ele>106.4</ele>
        <time>2021-09-12T11:15:27Z</time>
      </trkpt>
      <trkpt lat="46.547" lon="0.35791">
        <ele>106.8</ele>
        <time>2021-09-12T11:15:30Z</time>
      </trkpt>
      <trkpt lat="46.54701" lon="0.35794">
        <ele>107</ele>
        <time>2021-09-12T11:15:32Z</time>
      </trkpt>
      <trkpt lat="46.54702" lon="0.35795">
        <ele>107.2</ele>
        <time>2021-09-12T11:15:34Z</time>
      </trkpt>
      <trkpt lat="46.54703" lon="0.35794">
        <ele>107.2</ele>
        <time>2021-09-12T11:15:35Z</time>
      </trkpt>
      <trkpt lat="46.54703" lon="0.35792">
        <ele>107.2</ele>
        <time>2021-09-12T11:15:37Z</time>
      </trkpt>
      <trkpt lat="46.54706" lon="0.35788">
        <ele>105.6</ele>
        <time>2021-09-12T11:15:42Z</time>
      </trkpt>
      <trkpt lat="46.54707" lon="0.35786">
        <ele>105.2</ele>
        <time>2021-09-12T11:15:43Z</time>
      </trkpt>
      <trkpt lat="46.54707" lon="0.35785">
        <ele>104.4</ele>
        <time>2021-09-12T11:15:44Z</time>
      </trkpt>
      <trkpt lat="46.54709" lon="0.35784">
        <ele>102.8</ele>
        <time>2021-09-12T11:15:46Z</time>
      </trkpt>
      <trkpt lat="46.54711" lon="0.35783">
        <ele>101.8</ele>
        <time>2021-09-12T11:15:48Z</time>
      </trkpt>
      <trkpt lat="46.54713" lon="0.35782">
        <ele>100.6</ele>
        <time>2021-09-12T11:15:50Z</time>
      </trkpt>
      <trkpt lat="46.54714" lon="0.35781">
        <ele>100</ele>
        <time>2021-09-12T11:15:51Z</time>
      </trkpt>
      <trkpt lat="46.54715" lon="0.35781">
        <ele>99.6</ele>
        <time>2021-09-12T11:15:52Z</time>
      </trkpt>
      <trkpt lat="46.54718" lon="0.35778">
        <ele>98.4</ele>
        <time>2021-09-12T11:15:55Z</time>
      </trkpt>
      <trkpt lat="46.5472" lon="0.35775">
        <ele>98</ele>
        <time>2021-09-12T11:15:58Z</time>
      </trkpt>
      <trkpt lat="46.54721" lon="0.35772">
        <ele>97.4</ele>
        <time>2021-09-12T11:16:00Z</time>
      </trkpt>
      <trkpt lat="46.54722" lon="0.35771">
        <ele>97</ele>
        <time>2021-09-12T11:16:01Z</time>
      </trkpt>
      <trkpt lat="46.54723" lon="0.3577">
        <ele>97</ele>
        <time>2021-09-12T11:16:02Z</time>
      </trkpt>
      <trkpt lat="46.54725" lon="0.35769">
        <ele>96.6</ele>
        <time>2021-09-12T11:16:04Z</time>
      </trkpt>
      <trkpt lat="46.54726" lon="0.35767">
        <ele>96.4</ele>
        <time>2021-09-12T11:16:06Z</time>
      </trkpt>
      <trkpt lat="46.54727" lon="0.35762">
        <ele>96</ele>
        <time>2021-09-12T11:16:09Z</time>
      </trkpt>
      <trkpt lat="46.54727" lon="0.35759">
        <ele>95.6</ele>
        <time>2021-09-12T11:16:11Z</time>
      </trkpt>
      <trkpt lat="46.54728" lon="0.35758">
        <ele>95</ele>
        <time>2021-09-12T11:16:12Z</time>
      </trkpt>
      <trkpt lat="46.54729" lon="0.35756">
        <ele>94.4</ele>
        <time>2021-09-12T11:16:14Z</time>
      </trkpt>
      <trkpt lat="46.54729" lon="0.35755">
        <ele>94.2</ele>
        <time>2021-09-12T11:16:15Z</time>
      </trkpt>
      <trkpt lat="46.5473" lon="0.35754">
        <ele>93.8</ele>
        <time>2021-09-12T11:16:17Z</time>
      </trkpt>
      <trkpt lat="46.54732" lon="0.35753">
        <ele>92.6</ele>
        <time>2021-09-12T11:16:23Z</time>
      </trkpt>
      <trkpt lat="46.54733" lon="0.35753">
        <ele>92.4</ele>
        <time>2021-09-12T11:16:24Z</time>
      </trkpt>
      <trkpt lat="46.54737" lon="0.35758">
        <ele>92.2</ele>
        <time>2021-09-12T11:16:36Z</time>
      </trkpt>
      <trkpt lat="46.54739" lon="0.35759">
        <ele>92.6</ele>
        <time>2021-09-12T11:16:44Z</time>
      </trkpt>
      <trkpt lat="46.54739" lon="0.3576">
        <ele>92.6</ele>
        <time>2021-09-12T11:16:47Z</time>
      </trkpt>
      <trkpt lat="46.5474" lon="0.35759">
        <ele>91.6</ele>
        <time>2021-09-12T11:16:57Z</time>
      </trkpt>
      <trkpt lat="46.5474" lon="0.35759">
        <ele>91.4</ele>
        <time>2021-09-12T11:16:59Z</time>
      </trkpt>
      <trkpt lat="46.54741" lon="0.35758">
        <ele>90.4</ele>
        <time>2021-09-12T11:17:10Z</time>
      </trkpt>
      <trkpt lat="46.54741" lon="0.35758">
        <ele>90.4</ele>
        <time>2021-09-12T11:17:11Z</time>
      </trkpt>
      <trkpt lat="46.54743" lon="0.35754">
        <ele>89.8</ele>
        <time>2021-09-12T11:17:20Z</time>
      </trkpt>
      <trkpt lat="46.54743" lon="0.35748">
        <ele>89.4</ele>
        <time>2021-09-12T11:17:30Z</time>
      </trkpt>
      <trkpt lat="46.54744" lon="0.35744">
        <ele>87.8</ele>
        <time>2021-09-12T11:17:34Z</time>
      </trkpt>
      <trkpt lat="46.54745" lon="0.35743">
        <ele>86.8</ele>
        <time>2021-09-12T11:17:36Z</time>
      </trkpt>
      <trkpt lat="46.54748" lon="0.35738">
        <ele>85.6</ele>
        <time>2021-09-12T11:17:46Z</time>
      </trkpt>
      <trkpt lat="46.54748" lon="0.35736">
        <ele>84.8</ele>
        <time>2021-09-12T11:17:50Z</time>
      </trkpt>
      <trkpt lat="46.54749" lon="0.35735">
        <ele>84.6</ele>
        <time>2021-09-12T11:17:52Z</time>
      </trkpt>
      <trkpt lat="46.54751" lon="0.35732">
        <ele>83.4</ele>
        <time>2021-09-12T11:18:02Z</time>
      </trkpt>
      <trkpt lat="46.54751" lon="0.35732">
        <ele>83</ele>
        <time>2021-09-12T11:18:04Z</time>
      </trkpt>
      <trkpt lat="46.54752" lon="0.35732">
        <ele>82.4</ele>
        <time>2021-09-12T11:18:16Z</time>
      </trkpt>
      <trkpt lat="46.54752" lon="0.35733">
        <ele>82.2</ele>
        <time>2021-09-12T11:18:20Z</time>
      </trkpt>
      <trkpt lat="46.54752" lon="0.35738">
        <ele>82.2</ele>
        <time>2021-09-12T11:18:32Z</time>
      </trkpt>
      <trkpt lat="46.54754" lon="0.35737">
        <ele>82.2</ele>
        <time>2021-09-12T11:18:46Z</time>
      </trkpt>
      <trkpt lat="46.54757" lon="0.35739">
        <ele>82.2</ele>
        <time>2021-09-12T11:19:00Z</time>
      </trkpt>
      <trkpt lat="46.54756" lon="0.3574">
        <ele>82.2</ele>
        <time>2021-09-12T11:19:12Z</time>
      </trkpt>
      <trkpt lat="46.54756" lon="0.35742">
        <ele>82.4</ele>
        <time>2021-09-12T11:19:14Z</time>
      </trkpt>
      <trkpt lat="46.54756" lon="0.35752">
        <ele>82.4</ele>
        <time>2021-09-12T11:19:20Z</time>
      </trkpt>
      <trkpt lat="46.54755" lon="0.35757">
        <ele>82.2</ele>
        <time>2021-09-12T11:19:22Z</time>
      </trkpt>
      <trkpt lat="46.54757" lon="0.35794">
        <ele>82</ele>
        <time>2021-09-12T11:19:35Z</time>
      </trkpt>
      <trkpt lat="46.54759" lon="0.35821">
        <ele>82</ele>
        <time>2021-09-12T11:19:42Z</time>
      </trkpt>
      <trkpt lat="46.54761" lon="0.3584">
        <ele>81.8</ele>
        <time>2021-09-12T11:19:47Z</time>
      </trkpt>
      <trkpt lat="46.54766" lon="0.35854">
        <ele>82.2</ele>
        <time>2021-09-12T11:19:52Z</time>
      </trkpt>
      <trkpt lat="46.54771" lon="0.35862">
        <ele>82.4</ele>
        <time>2021-09-12T11:19:57Z</time>
      </trkpt>
      <trkpt lat="46.54778" lon="0.35878">
        <ele>82.6</ele>
        <time>2021-09-12T11:20:08Z</time>
      </trkpt>
      <trkpt lat="46.54778" lon="0.35883">
        <ele>82.6</ele>
        <time>2021-09-12T11:20:11Z</time>
      </trkpt>
      <trkpt lat="46.54777" lon="0.35889">
        <ele>82.8</ele>
        <time>2021-09-12T11:20:16Z</time>
      </trkpt>
      <trkpt lat="46.54777" lon="0.35891">
        <ele>83.4</ele>
        <time>2021-09-12T11:20:18Z</time>
      </trkpt>
      <trkpt lat="46.54778" lon="0.35894">
        <ele>83.6</ele>
        <time>2021-09-12T11:20:20Z</time>
      </trkpt>
      <trkpt lat="46.5478" lon="0.35899">
        <ele>84</ele>
        <time>2021-09-12T11:20:24Z</time>
      </trkpt>
      <trkpt lat="46.5478" lon="0.35902">
        <ele>84.4</ele>
        <time>2021-09-12T11:20:27Z</time>
      </trkpt>
      <trkpt lat="46.54781" lon="0.35906">
        <ele>84.8</ele>
        <time>2021-09-12T11:20:31Z</time>
      </trkpt>
      <trkpt lat="46.54782" lon="0.35907">
        <ele>85.2</ele>
        <time>2021-09-12T11:20:34Z</time>
      </trkpt>
      <trkpt lat="46.54781" lon="0.35911">
        <ele>85.6</ele>
        <time>2021-09-12T11:20:39Z</time>
      </trkpt>
      <trkpt lat="46.54781" lon="0.35919">
        <ele>86.4</ele>
        <time>2021-09-12T11:20:49Z</time>
      </trkpt>
      <trkpt lat="46.54781" lon="0.35919">
        <ele>86.6</ele>
        <time>2021-09-12T11:20:53Z</time>
      </trkpt>
      <trkpt lat="46.54781" lon="0.35924">
        <ele>87.6</ele>
        <time>2021-09-12T11:21:04Z</time>
      </trkpt>
      <trkpt lat="46.54781" lon="0.35924">
        <ele>87.6</ele>
        <time>2021-09-12T11:21:05Z</time>
      </trkpt>
      <trkpt lat="46.54776" lon="0.35922">
        <ele>88.6</ele>
        <time>2021-09-12T11:21:13Z</time>
      </trkpt>
      <trkpt lat="46.54775" lon="0.35921">
        <ele>89.4</ele>
        <time>2021-09-12T11:21:16Z</time>
      </trkpt>
      <trkpt lat="46.54774" lon="0.3592">
        <ele>89.8</ele>
        <time>2021-09-12T11:21:18Z</time>
      </trkpt>
      <trkpt lat="46.54769" lon="0.35917">
        <ele>90.6</ele>
        <time>2021-09-12T11:21:28Z</time>
      </trkpt>
      <trkpt lat="46.54768" lon="0.35916">
        <ele>90.8</ele>
        <time>2021-09-12T11:21:31Z</time>
      </trkpt>
      <trkpt lat="46.54766" lon="0.35913">
        <ele>91</ele>
        <time>2021-09-12T11:21:35Z</time>
      </trkpt>
      <trkpt lat="46.54763" lon="0.35907">
        <ele>91.4</ele>
        <time>2021-09-12T11:21:41Z</time>
      </trkpt>
      <trkpt lat="46.54762" lon="0.35906">
        <ele>91.8</ele>
        <time>2021-09-12T11:21:43Z</time>
      </trkpt>
      <trkpt lat="46.54756" lon="0.359">
        <ele>93.2</ele>
        <time>2021-09-12T11:21:51Z</time>
      </trkpt>
      <trkpt lat="46.54756" lon="0.359">
        <ele>93.6</ele>
        <time>2021-09-12T11:21:52Z</time>
      </trkpt>
      <trkpt lat="46.54752" lon="0.35893">
        <ele>94.4</ele>
        <time>2021-09-12T11:22:02Z</time>
      </trkpt>
      <trkpt lat="46.5475" lon="0.35889">
        <ele>94.4</ele>
        <time>2021-09-12T11:22:04Z</time>
      </trkpt>
      <trkpt lat="46.5475" lon="0.35888">
        <ele>94.4</ele>
        <time>2021-09-12T11:22:05Z</time>
      </trkpt>
      <trkpt lat="46.54743" lon="0.35864">
        <ele>95.2</ele>
        <time>2021-09-12T11:22:16Z</time>
      </trkpt>
      <trkpt lat="46.54741" lon="0.35862">
        <ele>95.2</ele>
        <time>2021-09-12T11:22:18Z</time>
      </trkpt>
      <trkpt lat="46.5474" lon="0.35861">
        <ele>95.6</ele>
        <time>2021-09-12T11:22:20Z</time>
      </trkpt>
      <trkpt lat="46.54738" lon="0.35859">
        <ele>96.6</ele>
        <time>2021-09-12T11:22:23Z</time>
      </trkpt>
      <trkpt lat="46.54737" lon="0.35859">
        <ele>97</ele>
        <time>2021-09-12T11:22:25Z</time>
      </trkpt>
      <trkpt lat="46.54734" lon="0.3586">
        <ele>97.6</ele>
        <time>2021-09-12T11:22:28Z</time>
      </trkpt>
      <trkpt lat="46.54733" lon="0.35864">
        <ele>98.6</ele>
        <time>2021-09-12T11:22:34Z</time>
      </trkpt>
      <trkpt lat="46.54733" lon="0.35866">
        <ele>98.6</ele>
        <time>2021-09-12T11:22:35Z</time>
      </trkpt>
      <trkpt lat="46.54733" lon="0.3587">
        <ele>98.8</ele>
        <time>2021-09-12T11:22:38Z</time>
      </trkpt>
      <trkpt lat="46.54733" lon="0.35872">
        <ele>98.8</ele>
        <time>2021-09-12T11:22:40Z</time>
      </trkpt>
      <trkpt lat="46.54733" lon="0.35875">
        <ele>98.8</ele>
        <time>2021-09-12T11:22:42Z</time>
      </trkpt>
      <trkpt lat="46.54732" lon="0.35879">
        <ele>99</ele>
        <time>2021-09-12T11:22:46Z</time>
      </trkpt>
      <trkpt lat="46.54731" lon="0.35881">
        <ele>99.2</ele>
        <time>2021-09-12T11:22:48Z</time>
      </trkpt>
      <trkpt lat="46.54731" lon="0.35882">
        <ele>99.4</ele>
        <time>2021-09-12T11:22:49Z</time>
      </trkpt>
      <trkpt lat="46.54729" lon="0.35884">
        <ele>99.6</ele>
        <time>2021-09-12T11:22:52Z</time>
      </trkpt>
      <trkpt lat="46.54729" lon="0.35888">
        <ele>100</ele>
        <time>2021-09-12T11:22:58Z</time>
      </trkpt>
      <trkpt lat="46.5473" lon="0.35897">
        <ele>99.6</ele>
        <time>2021-09-12T11:23:04Z</time>
      </trkpt>
      <trkpt lat="46.54731" lon="0.35902">
        <ele>99.2</ele>
        <time>2021-09-12T11:23:06Z</time>
      </trkpt>
      <trkpt lat="46.54739" lon="0.35922">
        <ele>98.8</ele>
        <time>2021-09-12T11:23:11Z</time>
      </trkpt>
      <trkpt lat="46.54741" lon="0.35926">
        <ele>98.6</ele>
        <time>2021-09-12T11:23:12Z</time>
      </trkpt>
      <trkpt lat="46.54751" lon="0.35943">
        <ele>97.6</ele>
        <time>2021-09-12T11:23:17Z</time>
      </trkpt>
      <trkpt lat="46.54753" lon="0.35947">
        <ele>97.6</ele>
        <time>2021-09-12T11:23:19Z</time>
      </trkpt>
      <trkpt lat="46.54754" lon="0.35947">
        <ele>97.6</ele>
        <time>2021-09-12T11:23:20Z</time>
      </trkpt>
      <trkpt lat="46.54756" lon="0.35947">
        <ele>97.4</ele>
        <time>2021-09-12T11:23:22Z</time>
      </trkpt>
      <trkpt lat="46.54757" lon="0.35945">
        <ele>96.6</ele>
        <time>2021-09-12T11:23:25Z</time>
      </trkpt>
      <trkpt lat="46.54757" lon="0.35945">
        <ele>96.2</ele>
        <time>2021-09-12T11:23:26Z</time>
      </trkpt>
      <trkpt lat="46.54757" lon="0.35943">
        <ele>95.2</ele>
        <time>2021-09-12T11:23:28Z</time>
      </trkpt>
      <trkpt lat="46.5476" lon="0.35942">
        <ele>94</ele>
        <time>2021-09-12T11:23:31Z</time>
      </trkpt>
      <trkpt lat="46.54761" lon="0.35941">
        <ele>93.4</ele>
        <time>2021-09-12T11:23:32Z</time>
      </trkpt>
      <trkpt lat="46.54762" lon="0.3594">
        <ele>92.6</ele>
        <time>2021-09-12T11:23:33Z</time>
      </trkpt>
      <trkpt lat="46.54764" lon="0.35939">
        <ele>91.6</ele>
        <time>2021-09-12T11:23:35Z</time>
      </trkpt>
      <trkpt lat="46.54766" lon="0.35938">
        <ele>91</ele>
        <time>2021-09-12T11:23:36Z</time>
      </trkpt>
      <trkpt lat="46.54767" lon="0.35937">
        <ele>90</ele>
        <time>2021-09-12T11:23:37Z</time>
      </trkpt>
      <trkpt lat="46.54768" lon="0.35935">
        <ele>89</ele>
        <time>2021-09-12T11:23:39Z</time>
      </trkpt>
      <trkpt lat="46.5477" lon="0.35934">
        <ele>87.8</ele>
        <time>2021-09-12T11:23:40Z</time>
      </trkpt>
      <trkpt lat="46.54772" lon="0.35931">
        <ele>86</ele>
        <time>2021-09-12T11:23:42Z</time>
      </trkpt>
      <trkpt lat="46.54773" lon="0.35929">
        <ele>84.6</ele>
        <time>2021-09-12T11:23:44Z</time>
      </trkpt>
      <trkpt lat="46.54776" lon="0.35926">
        <ele>83.4</ele>
        <time>2021-09-12T11:23:46Z</time>
      </trkpt>
      <trkpt lat="46.54779" lon="0.35923">
        <ele>82</ele>
        <time>2021-09-12T11:23:48Z</time>
      </trkpt>
      <trkpt lat="46.54782" lon="0.35921">
        <ele>81</ele>
        <time>2021-09-12T11:23:51Z</time>
      </trkpt>
      <trkpt lat="46.54793" lon="0.35925">
        <ele>80.6</ele>
        <time>2021-09-12T11:24:01Z</time>
      </trkpt>
      <trkpt lat="46.54794" lon="0.35926">
        <ele>80.6</ele>
        <time>2021-09-12T11:24:02Z</time>
      </trkpt>
      <trkpt lat="46.54795" lon="0.35927">
        <ele>80.4</ele>
        <time>2021-09-12T11:24:04Z</time>
      </trkpt>
      <trkpt lat="46.54797" lon="0.35929">
        <ele>80.4</ele>
        <time>2021-09-12T11:24:07Z</time>
      </trkpt>
      <trkpt lat="46.54801" lon="0.35939">
        <ele>81.4</ele>
        <time>2021-09-12T11:24:14Z</time>
      </trkpt>
      <trkpt lat="46.54803" lon="0.35942">
        <ele>82</ele>
        <time>2021-09-12T11:24:16Z</time>
      </trkpt>
      <trkpt lat="46.54807" lon="0.35951">
        <ele>83</ele>
        <time>2021-09-12T11:24:22Z</time>
      </trkpt>
      <trkpt lat="46.54808" lon="0.35953">
        <ele>83.8</ele>
        <time>2021-09-12T11:24:24Z</time>
      </trkpt>
      <trkpt lat="46.54809" lon="0.35956">
        <ele>84.2</ele>
        <time>2021-09-12T11:24:26Z</time>
      </trkpt>
      <trkpt lat="46.5481" lon="0.35959">
        <ele>84.4</ele>
        <time>2021-09-12T11:24:28Z</time>
      </trkpt>
      <trkpt lat="46.54812" lon="0.35964">
        <ele>84.8</ele>
        <time>2021-09-12T11:24:31Z</time>
      </trkpt>
      <trkpt lat="46.54814" lon="0.35968">
        <ele>85.2</ele>
        <time>2021-09-12T11:24:35Z</time>
      </trkpt>
      <trkpt lat="46.54818" lon="0.35974">
        <ele>86</ele>
        <time>2021-09-12T11:24:39Z</time>
      </trkpt>
      <trkpt lat="46.54818" lon="0.35977">
        <ele>86.4</ele>
        <time>2021-09-12T11:24:41Z</time>
      </trkpt>
      <trkpt lat="46.54818" lon="0.35979">
        <ele>86.8</ele>
        <time>2021-09-12T11:24:43Z</time>
      </trkpt>
      <trkpt lat="46.54817" lon="0.35981">
        <ele>87.4</ele>
        <time>2021-09-12T11:24:46Z</time>
      </trkpt>
      <trkpt lat="46.54817" lon="0.35981">
        <ele>87.6</ele>
        <time>2021-09-12T11:24:48Z</time>
      </trkpt>
      <trkpt lat="46.54818" lon="0.35982">
        <ele>87.4</ele>
        <time>2021-09-12T11:24:51Z</time>
      </trkpt>
      <trkpt lat="46.54818" lon="0.35982">
        <ele>87.6</ele>
        <time>2021-09-12T11:24:59Z</time>
      </trkpt>
      <trkpt lat="46.54818" lon="0.35981">
        <ele>87.8</ele>
        <time>2021-09-12T11:25:01Z</time>
      </trkpt>
      <trkpt lat="46.54815" lon="0.35979">
        <ele>88.4</ele>
        <time>2021-09-12T11:25:04Z</time>
      </trkpt>
      <trkpt lat="46.54814" lon="0.35979">
        <ele>88.6</ele>
        <time>2021-09-12T11:25:05Z</time>
      </trkpt>
      <trkpt lat="46.54813" lon="0.35978">
        <ele>88.8</ele>
        <time>2021-09-12T11:25:08Z</time>
      </trkpt>
      <trkpt lat="46.54807" lon="0.3598">
        <ele>89.8</ele>
        <time>2021-09-12T11:25:17Z</time>
      </trkpt>
      <trkpt lat="46.548" lon="0.35977">
        <ele>91</ele>
        <time>2021-09-12T11:25:24Z</time>
      </trkpt>
      <trkpt lat="46.54799" lon="0.35977">
        <ele>91.2</ele>
        <time>2021-09-12T11:25:26Z</time>
      </trkpt>
      <trkpt lat="46.54799" lon="0.35977">
        <ele>91.4</ele>
        <time>2021-09-12T11:25:27Z</time>
      </trkpt>
      <trkpt lat="46.54797" lon="0.35976">
        <ele>92</ele>
        <time>2021-09-12T11:25:30Z</time>
      </trkpt>
      <trkpt lat="46.54796" lon="0.35975">
        <ele>92</ele>
        <time>2021-09-12T11:25:31Z</time>
      </trkpt>
      <trkpt lat="46.54792" lon="0.35975">
        <ele>93</ele>
        <time>2021-09-12T11:25:36Z</time>
      </trkpt>
      <trkpt lat="46.54788" lon="0.35975">
        <ele>94</ele>
        <time>2021-09-12T11:25:41Z</time>
      </trkpt>
      <trkpt lat="46.54787" lon="0.35975">
        <ele>94.2</ele>
        <time>2021-09-12T11:25:42Z</time>
      </trkpt>
      <trkpt lat="46.54784" lon="0.35975">
        <ele>95.2</ele>
        <time>2021-09-12T11:25:48Z</time>
      </trkpt>
      <trkpt lat="46.54779" lon="0.35975">
        <ele>96</ele>
        <time>2021-09-12T11:25:54Z</time>
      </trkpt>
      <trkpt lat="46.54778" lon="0.35975">
        <ele>96.2</ele>
        <time>2021-09-12T11:25:55Z</time>
      </trkpt>
      <trkpt lat="46.54773" lon="0.35977">
        <ele>97.4</ele>
        <time>2021-09-12T11:26:03Z</time>
      </trkpt>
      <trkpt lat="46.54773" lon="0.35977">
        <ele>97.6</ele>
        <time>2021-09-12T11:26:05Z</time>
      </trkpt>
      <trkpt lat="46.54774" lon="0.35985">
        <ele>97.6</ele>
        <time>2021-09-12T11:26:15Z</time>
      </trkpt>
      <trkpt lat="46.5478" lon="0.36003">
        <ele>98.2</ele>
        <time>2021-09-12T11:26:23Z</time>
      </trkpt>
      <trkpt lat="46.54783" lon="0.36012">
        <ele>98.4</ele>
        <time>2021-09-12T11:26:26Z</time>
      </trkpt>
      <trkpt lat="46.54786" lon="0.36021">
        <ele>99</ele>
        <time>2021-09-12T11:26:30Z</time>
      </trkpt>
      <trkpt lat="46.54793" lon="0.36036">
        <ele>99.4</ele>
        <time>2021-09-12T11:26:35Z</time>
      </trkpt>
      <trkpt lat="46.54799" lon="0.36048">
        <ele>99.4</ele>
        <time>2021-09-12T11:26:39Z</time>
      </trkpt>
      <trkpt lat="46.54804" lon="0.36055">
        <ele>99.4</ele>
        <time>2021-09-12T11:26:41Z</time>
      </trkpt>
      <trkpt lat="46.54815" lon="0.36069">
        <ele>99.4</ele>
        <time>2021-09-12T11:26:46Z</time>
      </trkpt>
      <trkpt lat="46.54833" lon="0.36088">
        <ele>99</ele>
        <time>2021-09-12T11:26:53Z</time>
      </trkpt>
      <trkpt lat="46.5484" lon="0.36096">
        <ele>98.6</ele>
        <time>2021-09-12T11:26:55Z</time>
      </trkpt>
      <trkpt lat="46.54843" lon="0.361">
        <ele>98.4</ele>
        <time>2021-09-12T11:26:56Z</time>
      </trkpt>
      <trkpt lat="46.54855" lon="0.36112">
        <ele>97.8</ele>
        <time>2021-09-12T11:26:59Z</time>
      </trkpt>
      <trkpt lat="46.54859" lon="0.36116">
        <ele>97.4</ele>
        <time>2021-09-12T11:27:00Z</time>
      </trkpt>
      <trkpt lat="46.54863" lon="0.36119">
        <ele>97.2</ele>
        <time>2021-09-12T11:27:01Z</time>
      </trkpt>
      <trkpt lat="46.54883" lon="0.36137">
        <ele>96.6</ele>
        <time>2021-09-12T11:27:04Z</time>
      </trkpt>
      <trkpt lat="46.54887" lon="0.36142">
        <ele>95.8</ele>
        <time>2021-09-12T11:27:05Z</time>
      </trkpt>
      <trkpt lat="46.54893" lon="0.36152">
        <ele>95</ele>
        <time>2021-09-12T11:27:07Z</time>
      </trkpt>
      <trkpt lat="46.54896" lon="0.36156">
        <ele>94.8</ele>
        <time>2021-09-12T11:27:08Z</time>
      </trkpt>
      <trkpt lat="46.54899" lon="0.3616">
        <ele>94.4</ele>
        <time>2021-09-12T11:27:09Z</time>
      </trkpt>
      <trkpt lat="46.54904" lon="0.36167">
        <ele>93.6</ele>
        <time>2021-09-12T11:27:11Z</time>
      </trkpt>
      <trkpt lat="46.54906" lon="0.36169">
        <ele>93</ele>
        <time>2021-09-12T11:27:12Z</time>
      </trkpt>
      <trkpt lat="46.54909" lon="0.36171">
        <ele>92.8</ele>
        <time>2021-09-12T11:27:13Z</time>
      </trkpt>
      <trkpt lat="46.54911" lon="0.36171">
        <ele>92.4</ele>
        <time>2021-09-12T11:27:14Z</time>
      </trkpt>
      <trkpt lat="46.54914" lon="0.36166">
        <ele>92.2</ele>
        <time>2021-09-12T11:27:18Z</time>
      </trkpt>
      <trkpt lat="46.54915" lon="0.36163">
        <ele>92.4</ele>
        <time>2021-09-12T11:27:20Z</time>
      </trkpt>
      <trkpt lat="46.54913" lon="0.36162">
        <ele>92.6</ele>
        <time>2021-09-12T11:27:23Z</time>
      </trkpt>
      <trkpt lat="46.54913" lon="0.36162">
        <ele>92.6</ele>
        <time>2021-09-12T11:27:24Z</time>
      </trkpt>
      <trkpt lat="46.54912" lon="0.36161">
        <ele>93</ele>
        <time>2021-09-12T11:27:28Z</time>
      </trkpt>
      <trkpt lat="46.54912" lon="0.3616">
        <ele>93.2</ele>
        <time>2021-09-12T11:27:29Z</time>
      </trkpt>
      <trkpt lat="46.54912" lon="0.36156">
        <ele>93.6</ele>
        <time>2021-09-12T11:27:31Z</time>
      </trkpt>
      <trkpt lat="46.54911" lon="0.36151">
        <ele>93.8</ele>
        <time>2021-09-12T11:27:34Z</time>
      </trkpt>
      <trkpt lat="46.54908" lon="0.36145">
        <ele>94</ele>
        <time>2021-09-12T11:27:38Z</time>
      </trkpt>
      <trkpt lat="46.54906" lon="0.36142">
        <ele>94.6</ele>
        <time>2021-09-12T11:27:40Z</time>
      </trkpt>
      <trkpt lat="46.54905" lon="0.36141">
        <ele>95</ele>
        <time>2021-09-12T11:27:41Z</time>
      </trkpt>
      <trkpt lat="46.54903" lon="0.3614">
        <ele>95.4</ele>
        <time>2021-09-12T11:27:43Z</time>
      </trkpt>
      <trkpt lat="46.54901" lon="0.36138">
        <ele>95.8</ele>
        <time>2021-09-12T11:27:45Z</time>
      </trkpt>
      <trkpt lat="46.54898" lon="0.36138">
        <ele>96.2</ele>
        <time>2021-09-12T11:27:47Z</time>
      </trkpt>
      <trkpt lat="46.54897" lon="0.36137">
        <ele>96.4</ele>
        <time>2021-09-12T11:27:48Z</time>
      </trkpt>
      <trkpt lat="46.54897" lon="0.36131">
        <ele>96.6</ele>
        <time>2021-09-12T11:27:52Z</time>
      </trkpt>
      <trkpt lat="46.54897" lon="0.36129">
        <ele>96.6</ele>
        <time>2021-09-12T11:27:53Z</time>
      </trkpt>
      <trkpt lat="46.549" lon="0.36114">
        <ele>94.8</ele>
        <time>2021-09-12T11:28:01Z</time>
      </trkpt>
      <trkpt lat="46.549" lon="0.36112">
        <ele>93.2</ele>
        <time>2021-09-12T11:28:03Z</time>
      </trkpt>
      <trkpt lat="46.54898" lon="0.36104">
        <ele>92</ele>
        <time>2021-09-12T11:28:06Z</time>
      </trkpt>
      <trkpt lat="46.54896" lon="0.361">
        <ele>90.8</ele>
        <time>2021-09-12T11:28:08Z</time>
      </trkpt>
      <trkpt lat="46.54897" lon="0.36094">
        <ele>89.2</ele>
        <time>2021-09-12T11:28:11Z</time>
      </trkpt>
      <trkpt lat="46.54896" lon="0.36091">
        <ele>88.2</ele>
        <time>2021-09-12T11:28:13Z</time>
      </trkpt>
      <trkpt lat="46.54898" lon="0.36086">
        <ele>86.8</ele>
        <time>2021-09-12T11:28:16Z</time>
      </trkpt>
      <trkpt lat="46.549" lon="0.36079">
        <ele>84.8</ele>
        <time>2021-09-12T11:28:18Z</time>
      </trkpt>
      <trkpt lat="46.54902" lon="0.36074">
        <ele>83</ele>
        <time>2021-09-12T11:28:20Z</time>
      </trkpt>
      <trkpt lat="46.54904" lon="0.36072">
        <ele>81.8</ele>
        <time>2021-09-12T11:28:23Z</time>
      </trkpt>
      <trkpt lat="46.54906" lon="0.36073">
        <ele>81.6</ele>
        <time>2021-09-12T11:28:24Z</time>
      </trkpt>
      <trkpt lat="46.54911" lon="0.36078">
        <ele>81.2</ele>
        <time>2021-09-12T11:28:29Z</time>
      </trkpt>
      <trkpt lat="46.54917" lon="0.36092">
        <ele>81.6</ele>
        <time>2021-09-12T11:28:35Z</time>
      </trkpt>
      <trkpt lat="46.54927" lon="0.36109">
        <ele>82.2</ele>
        <time>2021-09-12T11:28:42Z</time>
      </trkpt>
      <trkpt lat="46.54936" lon="0.36125">
        <ele>82.2</ele>
        <time>2021-09-12T11:28:47Z</time>
      </trkpt>
      <trkpt lat="46.54945" lon="0.36146">
        <ele>82.2</ele>
        <time>2021-09-12T11:28:53Z</time>
      </trkpt>
      <trkpt lat="46.5496" lon="0.36163">
        <ele>82.2</ele>
        <time>2021-09-12T11:28:58Z</time>
      </trkpt>
      <trkpt lat="46.54964" lon="0.36166">
        <ele>82.2</ele>
        <time>2021-09-12T11:28:59Z</time>
      </trkpt>
      <trkpt lat="46.54976" lon="0.36173">
        <ele>82.2</ele>
        <time>2021-09-12T11:29:02Z</time>
      </trkpt>
      <trkpt lat="46.54983" lon="0.36176">
        <ele>82</ele>
        <time>2021-09-12T11:29:04Z</time>
      </trkpt>
      <trkpt lat="46.54986" lon="0.36177">
        <ele>82</ele>
        <time>2021-09-12T11:29:05Z</time>
      </trkpt>
      <trkpt lat="46.54989" lon="0.36178">
        <ele>82</ele>
        <time>2021-09-12T11:29:06Z</time>
      </trkpt>
      <trkpt lat="46.55007" lon="0.36189">
        <ele>81.8</ele>
        <time>2021-09-12T11:29:11Z</time>
      </trkpt>
      <trkpt lat="46.55025" lon="0.36213">
        <ele>82.2</ele>
        <time>2021-09-12T11:29:17Z</time>
      </trkpt>
      <trkpt lat="46.55026" lon="0.36216">
        <ele>82.8</ele>
        <time>2021-09-12T11:29:19Z</time>
      </trkpt>
      <trkpt lat="46.55027" lon="0.36219">
        <ele>83.2</ele>
        <time>2021-09-12T11:29:20Z</time>
      </trkpt>
      <trkpt lat="46.55027" lon="0.36224">
        <ele>83.8</ele>
        <time>2021-09-12T11:29:22Z</time>
      </trkpt>
      <trkpt lat="46.55029" lon="0.36229">
        <ele>84.6</ele>
        <time>2021-09-12T11:29:24Z</time>
      </trkpt>
      <trkpt lat="46.5503" lon="0.36232">
        <ele>85</ele>
        <time>2021-09-12T11:29:25Z</time>
      </trkpt>
      <trkpt lat="46.55033" lon="0.3624">
        <ele>86.2</ele>
        <time>2021-09-12T11:29:29Z</time>
      </trkpt>
      <trkpt lat="46.55034" lon="0.3624">
        <ele>86.2</ele>
        <time>2021-09-12T11:29:30Z</time>
      </trkpt>
      <trkpt lat="46.55034" lon="0.36241">
        <ele>86.4</ele>
        <time>2021-09-12T11:29:31Z</time>
      </trkpt>
      <trkpt lat="46.55035" lon="0.36243">
        <ele>86.6</ele>
        <time>2021-09-12T11:29:33Z</time>
      </trkpt>
      <trkpt lat="46.55038" lon="0.36243">
        <ele>86.6</ele>
        <time>2021-09-12T11:29:35Z</time>
      </trkpt>
      <trkpt lat="46.55039" lon="0.36243">
        <ele>86.6</ele>
        <time>2021-09-12T11:29:36Z</time>
      </trkpt>
      <trkpt lat="46.55042" lon="0.36244">
        <ele>85.8</ele>
        <time>2021-09-12T11:29:41Z</time>
      </trkpt>
      <trkpt lat="46.55043" lon="0.36244">
        <ele>85.6</ele>
        <time>2021-09-12T11:29:43Z</time>
      </trkpt>
      <trkpt lat="46.55051" lon="0.36249">
        <ele>85.8</ele>
        <time>2021-09-12T11:29:51Z</time>
      </trkpt>
      <trkpt lat="46.55055" lon="0.36258">
        <ele>86.8</ele>
        <time>2021-09-12T11:29:58Z</time>
      </trkpt>
      <trkpt lat="46.55056" lon="0.36261">
        <ele>87.2</ele>
        <time>2021-09-12T11:30:02Z</time>
      </trkpt>
      <trkpt lat="46.55055" lon="0.36266">
        <ele>87.6</ele>
        <time>2021-09-12T11:30:07Z</time>
      </trkpt>
      <trkpt lat="46.55056" lon="0.36283">
        <ele>86.2</ele>
        <time>2021-09-12T11:30:13Z</time>
      </trkpt>
      <trkpt lat="46.55057" lon="0.36288">
        <ele>85.6</ele>
        <time>2021-09-12T11:30:14Z</time>
      </trkpt>
      <trkpt lat="46.55058" lon="0.36297">
        <ele>84.2</ele>
        <time>2021-09-12T11:30:16Z</time>
      </trkpt>
      <trkpt lat="46.55057" lon="0.36302">
        <ele>83.6</ele>
        <time>2021-09-12T11:30:17Z</time>
      </trkpt>
      <trkpt lat="46.55056" lon="0.36316">
        <ele>83.4</ele>
        <time>2021-09-12T11:30:22Z</time>
      </trkpt>
      <trkpt lat="46.55053" lon="0.36324">
        <ele>83.2</ele>
        <time>2021-09-12T11:30:25Z</time>
      </trkpt>
      <trkpt lat="46.55048" lon="0.36334">
        <ele>83.6</ele>
        <time>2021-09-12T11:30:29Z</time>
      </trkpt>
      <trkpt lat="46.55044" lon="0.36348">
        <ele>84.2</ele>
        <time>2021-09-12T11:30:33Z</time>
      </trkpt>
      <trkpt lat="46.55042" lon="0.36355">
        <ele>84.4</ele>
        <time>2021-09-12T11:30:35Z</time>
      </trkpt>
      <trkpt lat="46.5504" lon="0.36379">
        <ele>84.8</ele>
        <time>2021-09-12T11:30:41Z</time>
      </trkpt>
      <trkpt lat="46.55041" lon="0.36383">
        <ele>85</ele>
        <time>2021-09-12T11:30:43Z</time>
      </trkpt>
      <trkpt lat="46.55042" lon="0.36385">
        <ele>85</ele>
        <time>2021-09-12T11:30:46Z</time>
      </trkpt>
      <trkpt lat="46.55043" lon="0.36384">
        <ele>85.2</ele>
        <time>2021-09-12T11:30:47Z</time>
      </trkpt>
      <trkpt lat="46.55045" lon="0.36384">
        <ele>85</ele>
        <time>2021-09-12T11:30:50Z</time>
      </trkpt>
      <trkpt lat="46.55047" lon="0.36384">
        <ele>84.8</ele>
        <time>2021-09-12T11:30:51Z</time>
      </trkpt>
      <trkpt lat="46.55054" lon="0.36383">
        <ele>84.2</ele>
        <time>2021-09-12T11:30:55Z</time>
      </trkpt>
      <trkpt lat="46.5506" lon="0.36382">
        <ele>84</ele>
        <time>2021-09-12T11:30:58Z</time>
      </trkpt>
      <trkpt lat="46.55071" lon="0.36381">
        <ele>84</ele>
        <time>2021-09-12T11:31:03Z</time>
      </trkpt>
      <trkpt lat="46.55085" lon="0.36382">
        <ele>84.2</ele>
        <time>2021-09-12T11:31:09Z</time>
      </trkpt>
      <trkpt lat="46.55104" lon="0.36386">
        <ele>85.2</ele>
        <time>2021-09-12T11:31:16Z</time>
      </trkpt>
      <trkpt lat="46.55106" lon="0.36386">
        <ele>85.2</ele>
        <time>2021-09-12T11:31:17Z</time>
      </trkpt>
      <trkpt lat="46.55117" lon="0.36387">
        <ele>85.8</ele>
        <time>2021-09-12T11:31:21Z</time>
      </trkpt>
      <trkpt lat="46.55127" lon="0.36387">
        <ele>86.4</ele>
        <time>2021-09-12T11:31:25Z</time>
      </trkpt>
      <trkpt lat="46.55132" lon="0.36387">
        <ele>86.8</ele>
        <time>2021-09-12T11:31:27Z</time>
      </trkpt>
      <trkpt lat="46.55135" lon="0.36389">
        <ele>86.8</ele>
        <time>2021-09-12T11:31:28Z</time>
      </trkpt>
      <trkpt lat="46.55141" lon="0.36393">
        <ele>87.2</ele>
        <time>2021-09-12T11:31:31Z</time>
      </trkpt>
      <trkpt lat="46.55143" lon="0.36396">
        <ele>87.6</ele>
        <time>2021-09-12T11:31:33Z</time>
      </trkpt>
      <trkpt lat="46.55144" lon="0.36395">
        <ele>87.8</ele>
        <time>2021-09-12T11:31:34Z</time>
      </trkpt>
      <trkpt lat="46.55153" lon="0.364">
        <ele>88.6</ele>
        <time>2021-09-12T11:31:37Z</time>
      </trkpt>
      <trkpt lat="46.55157" lon="0.36402">
        <ele>89.2</ele>
        <time>2021-09-12T11:31:40Z</time>
      </trkpt>
      <trkpt lat="46.55158" lon="0.36403">
        <ele>89.4</ele>
        <time>2021-09-12T11:31:41Z</time>
      </trkpt>
      <trkpt lat="46.5516" lon="0.36404">
        <ele>89.6</ele>
        <time>2021-09-12T11:31:42Z</time>
      </trkpt>
      <trkpt lat="46.55167" lon="0.36409">
        <ele>90.8</ele>
        <time>2021-09-12T11:31:45Z</time>
      </trkpt>
      <trkpt lat="46.55172" lon="0.36412">
        <ele>91.4</ele>
        <time>2021-09-12T11:31:47Z</time>
      </trkpt>
      <trkpt lat="46.55172" lon="0.36413">
        <ele>91.6</ele>
        <time>2021-09-12T11:31:48Z</time>
      </trkpt>
      <trkpt lat="46.55177" lon="0.36414">
        <ele>92</ele>
        <time>2021-09-12T11:31:52Z</time>
      </trkpt>
      <trkpt lat="46.5518" lon="0.36413">
        <ele>92.6</ele>
        <time>2021-09-12T11:31:55Z</time>
      </trkpt>
      <trkpt lat="46.55184" lon="0.36413">
        <ele>93.2</ele>
        <time>2021-09-12T11:31:57Z</time>
      </trkpt>
      <trkpt lat="46.55186" lon="0.36412">
        <ele>93.4</ele>
        <time>2021-09-12T11:31:59Z</time>
      </trkpt>
      <trkpt lat="46.55189" lon="0.36412">
        <ele>94</ele>
        <time>2021-09-12T11:32:02Z</time>
      </trkpt>
      <trkpt lat="46.55191" lon="0.36412">
        <ele>94.4</ele>
        <time>2021-09-12T11:32:04Z</time>
      </trkpt>
      <trkpt lat="46.55196" lon="0.3641">
        <ele>95.4</ele>
        <time>2021-09-12T11:32:12Z</time>
      </trkpt>
      <trkpt lat="46.55199" lon="0.36411">
        <ele>96</ele>
        <time>2021-09-12T11:32:16Z</time>
      </trkpt>
      <trkpt lat="46.552" lon="0.36411">
        <ele>96.4</ele>
        <time>2021-09-12T11:32:18Z</time>
      </trkpt>
      <trkpt lat="46.55207" lon="0.36412">
        <ele>97.4</ele>
        <time>2021-09-12T11:32:29Z</time>
      </trkpt>
      <trkpt lat="46.55208" lon="0.36412">
        <ele>97.6</ele>
        <time>2021-09-12T11:32:30Z</time>
      </trkpt>
      <trkpt lat="46.55213" lon="0.36407">
        <ele>98.8</ele>
        <time>2021-09-12T11:32:40Z</time>
      </trkpt>
      <trkpt lat="46.55214" lon="0.36406">
        <ele>98.8</ele>
        <time>2021-09-12T11:32:41Z</time>
      </trkpt>
      <trkpt lat="46.55214" lon="0.36405">
        <ele>99</ele>
        <time>2021-09-12T11:32:42Z</time>
      </trkpt>
      <trkpt lat="46.55217" lon="0.36404">
        <ele>99.8</ele>
        <time>2021-09-12T11:32:48Z</time>
      </trkpt>
      <trkpt lat="46.55218" lon="0.36404">
        <ele>99.8</ele>
        <time>2021-09-12T11:32:54Z</time>
      </trkpt>
      <trkpt lat="46.55218" lon="0.36401">
        <ele>99.8</ele>
        <time>2021-09-12T11:33:07Z</time>
      </trkpt>
      <trkpt lat="46.55221" lon="0.36397">
        <ele>99.8</ele>
        <time>2021-09-12T11:33:12Z</time>
      </trkpt>
      <trkpt lat="46.55223" lon="0.36393">
        <ele>100</ele>
        <time>2021-09-12T11:33:15Z</time>
      </trkpt>
      <trkpt lat="46.5523" lon="0.36384">
        <ele>100.8</ele>
        <time>2021-09-12T11:33:23Z</time>
      </trkpt>
      <trkpt lat="46.55233" lon="0.36381">
        <ele>101.4</ele>
        <time>2021-09-12T11:33:27Z</time>
      </trkpt>
      <trkpt lat="46.55236" lon="0.36376">
        <ele>101.8</ele>
        <time>2021-09-12T11:33:32Z</time>
      </trkpt>
      <trkpt lat="46.55242" lon="0.36368">
        <ele>103</ele>
        <time>2021-09-12T11:33:39Z</time>
      </trkpt>
      <trkpt lat="46.55243" lon="0.36366">
        <ele>103.2</ele>
        <time>2021-09-12T11:33:41Z</time>
      </trkpt>
      <trkpt lat="46.55246" lon="0.36359">
        <ele>104</ele>
        <time>2021-09-12T11:33:47Z</time>
      </trkpt>
      <trkpt lat="46.55249" lon="0.36352">
        <ele>105.2</ele>
        <time>2021-09-12T11:33:54Z</time>
      </trkpt>
      <trkpt lat="46.5525" lon="0.3635">
        <ele>105.4</ele>
        <time>2021-09-12T11:33:55Z</time>
      </trkpt>
      <trkpt lat="46.55251" lon="0.36345">
        <ele>106.4</ele>
        <time>2021-09-12T11:34:00Z</time>
      </trkpt>
      <trkpt lat="46.55253" lon="0.36338">
        <ele>107.6</ele>
        <time>2021-09-12T11:34:05Z</time>
      </trkpt>
      <trkpt lat="46.55256" lon="0.36334">
        <ele>108</ele>
        <time>2021-09-12T11:34:09Z</time>
      </trkpt>
      <trkpt lat="46.55258" lon="0.36332">
        <ele>108.6</ele>
        <time>2021-09-12T11:34:12Z</time>
      </trkpt>
      <trkpt lat="46.55258" lon="0.3633">
        <ele>108.8</ele>
        <time>2021-09-12T11:34:14Z</time>
      </trkpt>
      <trkpt lat="46.55261" lon="0.36325">
        <ele>109.8</ele>
        <time>2021-09-12T11:34:19Z</time>
      </trkpt>
      <trkpt lat="46.55262" lon="0.36322">
        <ele>110.2</ele>
        <time>2021-09-12T11:34:22Z</time>
      </trkpt>
      <trkpt lat="46.55265" lon="0.36316">
        <ele>110.8</ele>
        <time>2021-09-12T11:34:27Z</time>
      </trkpt>
      <trkpt lat="46.55267" lon="0.36309">
        <ele>111.8</ele>
        <time>2021-09-12T11:34:35Z</time>
      </trkpt>
      <trkpt lat="46.55267" lon="0.36308">
        <ele>111.8</ele>
        <time>2021-09-12T11:34:36Z</time>
      </trkpt>
      <trkpt lat="46.5527" lon="0.36306">
        <ele>112.8</ele>
        <time>2021-09-12T11:34:45Z</time>
      </trkpt>
      <trkpt lat="46.55272" lon="0.36305">
        <ele>113.6</ele>
        <time>2021-09-12T11:34:48Z</time>
      </trkpt>
      <trkpt lat="46.55272" lon="0.36302">
        <ele>113.8</ele>
        <time>2021-09-12T11:34:51Z</time>
      </trkpt>
      <trkpt lat="46.55272" lon="0.36302">
        <ele>113.8</ele>
        <time>2021-09-12T11:34:52Z</time>
      </trkpt>
      <trkpt lat="46.55272" lon="0.36299">
        <ele>113.8</ele>
        <time>2021-09-12T11:34:54Z</time>
      </trkpt>
      <trkpt lat="46.55272" lon="0.36296">
        <ele>114</ele>
        <time>2021-09-12T11:34:56Z</time>
      </trkpt>
      <trkpt lat="46.5527" lon="0.36282">
        <ele>113.8</ele>
        <time>2021-09-12T11:35:01Z</time>
      </trkpt>
      <trkpt lat="46.55269" lon="0.36273">
        <ele>113.6</ele>
        <time>2021-09-12T11:35:04Z</time>
      </trkpt>
      <trkpt lat="46.55266" lon="0.36259">
        <ele>113.8</ele>
        <time>2021-09-12T11:35:09Z</time>
      </trkpt>
      <trkpt lat="46.55261" lon="0.36232">
        <ele>113.4</ele>
        <time>2021-09-12T11:35:15Z</time>
      </trkpt>
      <trkpt lat="46.55254" lon="0.36197">
        <ele>113.2</ele>
        <time>2021-09-12T11:35:23Z</time>
      </trkpt>
      <trkpt lat="46.5525" lon="0.36181">
        <ele>112.8</ele>
        <time>2021-09-12T11:35:27Z</time>
      </trkpt>
      <trkpt lat="46.55246" lon="0.36167">
        <ele>112.8</ele>
        <time>2021-09-12T11:35:30Z</time>
      </trkpt>
      <trkpt lat="46.55235" lon="0.36135">
        <ele>112.6</ele>
        <time>2021-09-12T11:35:36Z</time>
      </trkpt>
      <trkpt lat="46.55232" lon="0.36125">
        <ele>112.4</ele>
        <time>2021-09-12T11:35:38Z</time>
      </trkpt>
      <trkpt lat="46.55227" lon="0.36108">
        <ele>112</ele>
        <time>2021-09-12T11:35:42Z</time>
      </trkpt>
      <trkpt lat="46.55213" lon="0.36083">
        <ele>112</ele>
        <time>2021-09-12T11:35:48Z</time>
      </trkpt>
      <trkpt lat="46.55207" lon="0.36074">
        <ele>111.8</ele>
        <time>2021-09-12T11:35:50Z</time>
      </trkpt>
      <trkpt lat="46.55204" lon="0.3607">
        <ele>111.8</ele>
        <time>2021-09-12T11:35:51Z</time>
      </trkpt>
      <trkpt lat="46.55194" lon="0.36059">
        <ele>112</ele>
        <time>2021-09-12T11:35:54Z</time>
      </trkpt>
      <trkpt lat="46.55172" lon="0.36036">
        <ele>112</ele>
        <time>2021-09-12T11:36:00Z</time>
      </trkpt>
      <trkpt lat="46.55165" lon="0.36025">
        <ele>112</ele>
        <time>2021-09-12T11:36:02Z</time>
      </trkpt>
      <trkpt lat="46.55154" lon="0.3601">
        <ele>112</ele>
        <time>2021-09-12T11:36:05Z</time>
      </trkpt>
      <trkpt lat="46.55149" lon="0.35998">
        <ele>112</ele>
        <time>2021-09-12T11:36:07Z</time>
      </trkpt>
      <trkpt lat="46.55147" lon="0.35992">
        <ele>112</ele>
        <time>2021-09-12T11:36:08Z</time>
      </trkpt>
      <trkpt lat="46.5514" lon="0.35949">
        <ele>112.8</ele>
        <time>2021-09-12T11:36:15Z</time>
      </trkpt>
      <trkpt lat="46.55139" lon="0.35943">
        <ele>113</ele>
        <time>2021-09-12T11:36:16Z</time>
      </trkpt>
      <trkpt lat="46.5513" lon="0.35904">
        <ele>114.2</ele>
        <time>2021-09-12T11:36:23Z</time>
      </trkpt>
      <trkpt lat="46.55125" lon="0.35859">
        <ele>114.8</ele>
        <time>2021-09-12T11:36:30Z</time>
      </trkpt>
      <trkpt lat="46.55121" lon="0.35824">
        <ele>115</ele>
        <time>2021-09-12T11:36:35Z</time>
      </trkpt>
      <trkpt lat="46.55122" lon="0.35817">
        <ele>115</ele>
        <time>2021-09-12T11:36:36Z</time>
      </trkpt>
      <trkpt lat="46.55122" lon="0.3581">
        <ele>115</ele>
        <time>2021-09-12T11:36:37Z</time>
      </trkpt>
      <trkpt lat="46.55126" lon="0.35796">
        <ele>115</ele>
        <time>2021-09-12T11:36:39Z</time>
      </trkpt>
      <trkpt lat="46.5513" lon="0.35784">
        <ele>115</ele>
        <time>2021-09-12T11:36:41Z</time>
      </trkpt>
      <trkpt lat="46.55136" lon="0.35758">
        <ele>115.2</ele>
        <time>2021-09-12T11:36:45Z</time>
      </trkpt>
      <trkpt lat="46.55137" lon="0.3575">
        <ele>115</ele>
        <time>2021-09-12T11:36:46Z</time>
      </trkpt>
      <trkpt lat="46.55137" lon="0.35742">
        <ele>115</ele>
        <time>2021-09-12T11:36:47Z</time>
      </trkpt>
      <trkpt lat="46.55138" lon="0.35704">
        <ele>113</ele>
        <time>2021-09-12T11:36:52Z</time>
      </trkpt>
      <trkpt lat="46.55139" lon="0.35697">
        <ele>112.6</ele>
        <time>2021-09-12T11:36:53Z</time>
      </trkpt>
      <trkpt lat="46.55142" lon="0.35691">
        <ele>112</ele>
        <time>2021-09-12T11:36:54Z</time>
      </trkpt>
      <trkpt lat="46.55146" lon="0.35688">
        <ele>111.8</ele>
        <time>2021-09-12T11:36:55Z</time>
      </trkpt>
      <trkpt lat="46.55157" lon="0.35688">
        <ele>110.8</ele>
        <time>2021-09-12T11:36:57Z</time>
      </trkpt>
      <trkpt lat="46.55179" lon="0.35695">
        <ele>110.2</ele>
        <time>2021-09-12T11:37:02Z</time>
      </trkpt>
      <trkpt lat="46.55188" lon="0.35694">
        <ele>110.4</ele>
        <time>2021-09-12T11:37:04Z</time>
      </trkpt>
      <trkpt lat="46.55196" lon="0.35689">
        <ele>110.4</ele>
        <time>2021-09-12T11:37:06Z</time>
      </trkpt>
      <trkpt lat="46.55206" lon="0.35678">
        <ele>110.8</ele>
        <time>2021-09-12T11:37:09Z</time>
      </trkpt>
      <trkpt lat="46.55211" lon="0.35671">
        <ele>111.2</ele>
        <time>2021-09-12T11:37:11Z</time>
      </trkpt>
      <trkpt lat="46.55216" lon="0.35664">
        <ele>112</ele>
        <time>2021-09-12T11:37:13Z</time>
      </trkpt>
      <trkpt lat="46.55225" lon="0.35654">
        <ele>113.2</ele>
        <time>2021-09-12T11:37:17Z</time>
      </trkpt>
      <trkpt lat="46.55227" lon="0.35652">
        <ele>113.4</ele>
        <time>2021-09-12T11:37:18Z</time>
      </trkpt>
      <trkpt lat="46.55235" lon="0.35647">
        <ele>114.2</ele>
        <time>2021-09-12T11:37:21Z</time>
      </trkpt>
      <trkpt lat="46.55252" lon="0.3564">
        <ele>115.6</ele>
        <time>2021-09-12T11:37:27Z</time>
      </trkpt>
      <trkpt lat="46.55269" lon="0.35638">
        <ele>116.6</ele>
        <time>2021-09-12T11:37:33Z</time>
      </trkpt>
      <trkpt lat="46.55284" lon="0.35637">
        <ele>117.6</ele>
        <time>2021-09-12T11:37:39Z</time>
      </trkpt>
      <trkpt lat="46.55286" lon="0.35637">
        <ele>118</ele>
        <time>2021-09-12T11:37:40Z</time>
      </trkpt>
      <trkpt lat="46.55299" lon="0.35637">
        <ele>118.8</ele>
        <time>2021-09-12T11:37:45Z</time>
      </trkpt>
      <trkpt lat="46.55307" lon="0.35637">
        <ele>119.4</ele>
        <time>2021-09-12T11:37:48Z</time>
      </trkpt>
      <trkpt lat="46.55315" lon="0.35639">
        <ele>119.8</ele>
        <time>2021-09-12T11:37:51Z</time>
      </trkpt>
      <trkpt lat="46.55324" lon="0.35641">
        <ele>120</ele>
        <time>2021-09-12T11:37:55Z</time>
      </trkpt>
      <trkpt lat="46.55337" lon="0.35643">
        <ele>120.8</ele>
        <time>2021-09-12T11:38:00Z</time>
      </trkpt>
      <trkpt lat="46.55345" lon="0.35643">
        <ele>121.4</ele>
        <time>2021-09-12T11:38:03Z</time>
      </trkpt>
      <trkpt lat="46.55366" lon="0.35647">
        <ele>122.2</ele>
        <time>2021-09-12T11:38:10Z</time>
      </trkpt>
      <trkpt lat="46.5539" lon="0.35653">
        <ele>123</ele>
        <time>2021-09-12T11:38:18Z</time>
      </trkpt>
      <trkpt lat="46.55393" lon="0.35653">
        <ele>123.2</ele>
        <time>2021-09-12T11:38:19Z</time>
      </trkpt>
      <trkpt lat="46.55419" lon="0.35659">
        <ele>123.8</ele>
        <time>2021-09-12T11:38:27Z</time>
      </trkpt>
      <trkpt lat="46.55431" lon="0.35662">
        <ele>124.4</ele>
        <time>2021-09-12T11:38:31Z</time>
      </trkpt>
      <trkpt lat="46.55442" lon="0.35663">
        <ele>124.8</ele>
        <time>2021-09-12T11:38:34Z</time>
      </trkpt>
      <trkpt lat="46.55471" lon="0.35668">
        <ele>124.4</ele>
        <time>2021-09-12T11:38:41Z</time>
      </trkpt>
      <trkpt lat="46.555" lon="0.35671">
        <ele>123.6</ele>
        <time>2021-09-12T11:38:47Z</time>
      </trkpt>
      <trkpt lat="46.55511" lon="0.35671">
        <ele>123.2</ele>
        <time>2021-09-12T11:38:49Z</time>
      </trkpt>
      <trkpt lat="46.55539" lon="0.35669">
        <ele>122.2</ele>
        <time>2021-09-12T11:38:54Z</time>
      </trkpt>
      <trkpt lat="46.55544" lon="0.35668">
        <ele>121.8</ele>
        <time>2021-09-12T11:38:55Z</time>
      </trkpt>
      <trkpt lat="46.55569" lon="0.35662">
        <ele>121.2</ele>
        <time>2021-09-12T11:39:00Z</time>
      </trkpt>
      <trkpt lat="46.55579" lon="0.3566">
        <ele>120.8</ele>
        <time>2021-09-12T11:39:02Z</time>
      </trkpt>
      <trkpt lat="46.556" lon="0.35657">
        <ele>120</ele>
        <time>2021-09-12T11:39:06Z</time>
      </trkpt>
      <trkpt lat="46.55613" lon="0.35654">
        <ele>119.4</ele>
        <time>2021-09-12T11:39:08Z</time>
      </trkpt>
      <trkpt lat="46.55632" lon="0.35649">
        <ele>118.8</ele>
        <time>2021-09-12T11:39:11Z</time>
      </trkpt>
      <trkpt lat="46.55646" lon="0.35646">
        <ele>117.6</ele>
        <time>2021-09-12T11:39:13Z</time>
      </trkpt>
      <trkpt lat="46.55659" lon="0.3564">
        <ele>117.2</ele>
        <time>2021-09-12T11:39:15Z</time>
      </trkpt>
      <trkpt lat="46.55692" lon="0.35623">
        <ele>116.2</ele>
        <time>2021-09-12T11:39:20Z</time>
      </trkpt>
      <trkpt lat="46.55698" lon="0.3562">
        <ele>116.2</ele>
        <time>2021-09-12T11:39:21Z</time>
      </trkpt>
      <trkpt lat="46.55737" lon="0.356">
        <ele>115.4</ele>
        <time>2021-09-12T11:39:28Z</time>
      </trkpt>
      <trkpt lat="46.55742" lon="0.35598">
        <ele>115.2</ele>
        <time>2021-09-12T11:39:29Z</time>
      </trkpt>
      <trkpt lat="46.55762" lon="0.35592">
        <ele>114.2</ele>
        <time>2021-09-12T11:39:33Z</time>
      </trkpt>
      <trkpt lat="46.55766" lon="0.35591">
        <ele>114</ele>
        <time>2021-09-12T11:39:34Z</time>
      </trkpt>
      <trkpt lat="46.55778" lon="0.35581">
        <ele>113</ele>
        <time>2021-09-12T11:39:38Z</time>
      </trkpt>
      <trkpt lat="46.55782" lon="0.35578">
        <ele>112.8</ele>
        <time>2021-09-12T11:39:39Z</time>
      </trkpt>
      <trkpt lat="46.55792" lon="0.3557">
        <ele>112.2</ele>
        <time>2021-09-12T11:39:41Z</time>
      </trkpt>
      <trkpt lat="46.55799" lon="0.35567">
        <ele>111.8</ele>
        <time>2021-09-12T11:39:42Z</time>
      </trkpt>
      <trkpt lat="46.55812" lon="0.35562">
        <ele>110.6</ele>
        <time>2021-09-12T11:39:44Z</time>
      </trkpt>
      <trkpt lat="46.55833" lon="0.35558">
        <ele>110</ele>
        <time>2021-09-12T11:39:47Z</time>
      </trkpt>
      <trkpt lat="46.55847" lon="0.35556">
        <ele>109.4</ele>
        <time>2021-09-12T11:39:49Z</time>
      </trkpt>
      <trkpt lat="46.55874" lon="0.35554">
        <ele>108.8</ele>
        <time>2021-09-12T11:39:53Z</time>
      </trkpt>
      <trkpt lat="46.5588" lon="0.35556">
        <ele>108.6</ele>
        <time>2021-09-12T11:39:54Z</time>
      </trkpt>
      <trkpt lat="46.55885" lon="0.35557">
        <ele>108.6</ele>
        <time>2021-09-12T11:39:55Z</time>
      </trkpt>
      <trkpt lat="46.55895" lon="0.35556">
        <ele>108.6</ele>
        <time>2021-09-12T11:39:57Z</time>
      </trkpt>
      <trkpt lat="46.55901" lon="0.35551">
        <ele>108.6</ele>
        <time>2021-09-12T11:39:59Z</time>
      </trkpt>
      <trkpt lat="46.55907" lon="0.35547">
        <ele>108.8</ele>
        <time>2021-09-12T11:40:01Z</time>
      </trkpt>
      <trkpt lat="46.55915" lon="0.35542">
        <ele>109.2</ele>
        <time>2021-09-12T11:40:04Z</time>
      </trkpt>
      <trkpt lat="46.55918" lon="0.35534">
        <ele>109.4</ele>
        <time>2021-09-12T11:40:06Z</time>
      </trkpt>
      <trkpt lat="46.55918" lon="0.35519">
        <ele>109.8</ele>
        <time>2021-09-12T11:40:09Z</time>
      </trkpt>
      <trkpt lat="46.55906" lon="0.35498">
        <ele>110</ele>
        <time>2021-09-12T11:40:13Z</time>
      </trkpt>
      <trkpt lat="46.55903" lon="0.35486">
        <ele>109.8</ele>
        <time>2021-09-12T11:40:15Z</time>
      </trkpt>
      <trkpt lat="46.55901" lon="0.35474">
        <ele>109.8</ele>
        <time>2021-09-12T11:40:17Z</time>
      </trkpt>
      <trkpt lat="46.55892" lon="0.35431">
        <ele>110.4</ele>
        <time>2021-09-12T11:40:24Z</time>
      </trkpt>
      <trkpt lat="46.55891" lon="0.35424">
        <ele>110.6</ele>
        <time>2021-09-12T11:40:25Z</time>
      </trkpt>
      <trkpt lat="46.55883" lon="0.3538">
        <ele>111.6</ele>
        <time>2021-09-12T11:40:32Z</time>
      </trkpt>
      <trkpt lat="46.55879" lon="0.35361">
        <ele>111.8</ele>
        <time>2021-09-12T11:40:35Z</time>
      </trkpt>
      <trkpt lat="46.55873" lon="0.35331">
        <ele>112.6</ele>
        <time>2021-09-12T11:40:40Z</time>
      </trkpt>
      <trkpt lat="46.55866" lon="0.35301">
        <ele>113.4</ele>
        <time>2021-09-12T11:40:45Z</time>
      </trkpt>
      <trkpt lat="46.55864" lon="0.35289">
        <ele>113.8</ele>
        <time>2021-09-12T11:40:47Z</time>
      </trkpt>
      <trkpt lat="46.55856" lon="0.3525">
        <ele>114.6</ele>
        <time>2021-09-12T11:40:54Z</time>
      </trkpt>
      <trkpt lat="46.55854" lon="0.35238">
        <ele>114.8</ele>
        <time>2021-09-12T11:40:56Z</time>
      </trkpt>
      <trkpt lat="46.55841" lon="0.35184">
        <ele>114.8</ele>
        <time>2021-09-12T11:41:04Z</time>
      </trkpt>
      <trkpt lat="46.55824" lon="0.35117">
        <ele>113.8</ele>
        <time>2021-09-12T11:41:12Z</time>
      </trkpt>
      <trkpt lat="46.55822" lon="0.35108">
        <ele>113.8</ele>
        <time>2021-09-12T11:41:13Z</time>
      </trkpt>
      <trkpt lat="46.55804" lon="0.35058">
        <ele>113.6</ele>
        <time>2021-09-12T11:41:19Z</time>
      </trkpt>
      <trkpt lat="46.55792" lon="0.35021">
        <ele>114.4</ele>
        <time>2021-09-12T11:41:25Z</time>
      </trkpt>
      <trkpt lat="46.55785" lon="0.35">
        <ele>115</ele>
        <time>2021-09-12T11:41:29Z</time>
      </trkpt>
      <trkpt lat="46.55781" lon="0.34991">
        <ele>115.4</ele>
        <time>2021-09-12T11:41:31Z</time>
      </trkpt>
      <trkpt lat="46.55777" lon="0.34983">
        <ele>115.6</ele>
        <time>2021-09-12T11:41:33Z</time>
      </trkpt>
      <trkpt lat="46.55764" lon="0.34976">
        <ele>116</ele>
        <time>2021-09-12T11:41:37Z</time>
      </trkpt>
      <trkpt lat="46.55735" lon="0.34978">
        <ele>115.6</ele>
        <time>2021-09-12T11:41:43Z</time>
      </trkpt>
      <trkpt lat="46.5572" lon="0.34974">
        <ele>115.6</ele>
        <time>2021-09-12T11:41:46Z</time>
      </trkpt>
      <trkpt lat="46.55711" lon="0.34968">
        <ele>115.8</ele>
        <time>2021-09-12T11:41:48Z</time>
      </trkpt>
      <trkpt lat="46.55699" lon="0.34954">
        <ele>116</ele>
        <time>2021-09-12T11:41:51Z</time>
      </trkpt>
      <trkpt lat="46.55693" lon="0.34943">
        <ele>116.2</ele>
        <time>2021-09-12T11:41:53Z</time>
      </trkpt>
      <trkpt lat="46.55678" lon="0.34905">
        <ele>116.4</ele>
        <time>2021-09-12T11:42:00Z</time>
      </trkpt>
      <trkpt lat="46.55672" lon="0.34891">
        <ele>116.4</ele>
        <time>2021-09-12T11:42:04Z</time>
      </trkpt>
      <trkpt lat="46.55663" lon="0.34894">
        <ele>116</ele>
        <time>2021-09-12T11:42:08Z</time>
      </trkpt>
      <trkpt lat="46.5565" lon="0.349">
        <ele>114.8</ele>
        <time>2021-09-12T11:42:11Z</time>
      </trkpt>
      <trkpt lat="46.55639" lon="0.34906">
        <ele>113.4</ele>
        <time>2021-09-12T11:42:14Z</time>
      </trkpt>
      <trkpt lat="46.55636" lon="0.34904">
        <ele>112.8</ele>
        <time>2021-09-12T11:42:16Z</time>
      </trkpt>
      <trkpt lat="46.55635" lon="0.34902">
        <ele>112.4</ele>
        <time>2021-09-12T11:42:17Z</time>
      </trkpt>
      <trkpt lat="46.5563" lon="0.34888">
        <ele>111.8</ele>
        <time>2021-09-12T11:42:22Z</time>
      </trkpt>
      <trkpt lat="46.55627" lon="0.34886">
        <ele>111.8</ele>
        <time>2021-09-12T11:42:23Z</time>
      </trkpt>
      <trkpt lat="46.55623" lon="0.34885">
        <ele>111.4</ele>
        <time>2021-09-12T11:42:24Z</time>
      </trkpt>
      <trkpt lat="46.55616" lon="0.34883">
        <ele>110.4</ele>
        <time>2021-09-12T11:42:26Z</time>
      </trkpt>
      <trkpt lat="46.5561" lon="0.34878">
        <ele>109.8</ele>
        <time>2021-09-12T11:42:28Z</time>
      </trkpt>
      <trkpt lat="46.55608" lon="0.34874">
        <ele>109.6</ele>
        <time>2021-09-12T11:42:29Z</time>
      </trkpt>
      <trkpt lat="46.55605" lon="0.34872">
        <ele>109.2</ele>
        <time>2021-09-12T11:42:30Z</time>
      </trkpt>
      <trkpt lat="46.556" lon="0.34871">
        <ele>108.8</ele>
        <time>2021-09-12T11:42:31Z</time>
      </trkpt>
      <trkpt lat="46.55591" lon="0.34866">
        <ele>107.8</ele>
        <time>2021-09-12T11:42:33Z</time>
      </trkpt>
      <trkpt lat="46.55581" lon="0.34858">
        <ele>106.6</ele>
        <time>2021-09-12T11:42:35Z</time>
      </trkpt>
      <trkpt lat="46.55569" lon="0.34849">
        <ele>105.2</ele>
        <time>2021-09-12T11:42:37Z</time>
      </trkpt>
      <trkpt lat="46.55563" lon="0.34845">
        <ele>104.6</ele>
        <time>2021-09-12T11:42:38Z</time>
      </trkpt>
      <trkpt lat="46.55557" lon="0.34841">
        <ele>103.8</ele>
        <time>2021-09-12T11:42:39Z</time>
      </trkpt>
      <trkpt lat="46.55545" lon="0.34833">
        <ele>102.4</ele>
        <time>2021-09-12T11:42:41Z</time>
      </trkpt>
      <trkpt lat="46.55539" lon="0.3483">
        <ele>102</ele>
        <time>2021-09-12T11:42:42Z</time>
      </trkpt>
      <trkpt lat="46.55534" lon="0.3483">
        <ele>101.4</ele>
        <time>2021-09-12T11:42:43Z</time>
      </trkpt>
      <trkpt lat="46.5552" lon="0.34828">
        <ele>99.6</ele>
        <time>2021-09-12T11:42:45Z</time>
      </trkpt>
      <trkpt lat="46.55514" lon="0.34827">
        <ele>97.8</ele>
        <time>2021-09-12T11:42:46Z</time>
      </trkpt>
      <trkpt lat="46.5551" lon="0.34826">
        <ele>97</ele>
        <time>2021-09-12T11:42:47Z</time>
      </trkpt>
      <trkpt lat="46.55506" lon="0.34823">
        <ele>95.8</ele>
        <time>2021-09-12T11:42:48Z</time>
      </trkpt>
      <trkpt lat="46.55502" lon="0.3482">
        <ele>95.2</ele>
        <time>2021-09-12T11:42:49Z</time>
      </trkpt>
      <trkpt lat="46.55493" lon="0.3481">
        <ele>94.4</ele>
        <time>2021-09-12T11:42:51Z</time>
      </trkpt>
      <trkpt lat="46.55479" lon="0.34792">
        <ele>93.8</ele>
        <time>2021-09-12T11:42:54Z</time>
      </trkpt>
      <trkpt lat="46.55471" lon="0.34781">
        <ele>92.8</ele>
        <time>2021-09-12T11:42:56Z</time>
      </trkpt>
      <trkpt lat="46.55465" lon="0.34774">
        <ele>92</ele>
        <time>2021-09-12T11:42:58Z</time>
      </trkpt>
      <trkpt lat="46.55462" lon="0.3477">
        <ele>91.8</ele>
        <time>2021-09-12T11:42:59Z</time>
      </trkpt>
      <trkpt lat="46.5546" lon="0.34765">
        <ele>91.4</ele>
        <time>2021-09-12T11:43:00Z</time>
      </trkpt>
      <trkpt lat="46.55454" lon="0.34753">
        <ele>91</ele>
        <time>2021-09-12T11:43:02Z</time>
      </trkpt>
      <trkpt lat="46.55451" lon="0.34747">
        <ele>90.8</ele>
        <time>2021-09-12T11:43:03Z</time>
      </trkpt>
      <trkpt lat="46.55448" lon="0.34743">
        <ele>90.6</ele>
        <time>2021-09-12T11:43:04Z</time>
      </trkpt>
      <trkpt lat="46.55438" lon="0.34737">
        <ele>90</ele>
        <time>2021-09-12T11:43:06Z</time>
      </trkpt>
      <trkpt lat="46.55434" lon="0.34734">
        <ele>89.6</ele>
        <time>2021-09-12T11:43:07Z</time>
      </trkpt>
      <trkpt lat="46.55429" lon="0.3473">
        <ele>88.2</ele>
        <time>2021-09-12T11:43:08Z</time>
      </trkpt>
      <trkpt lat="46.55425" lon="0.34726">
        <ele>86.6</ele>
        <time>2021-09-12T11:43:09Z</time>
      </trkpt>
      <trkpt lat="46.55422" lon="0.34722">
        <ele>84.8</ele>
        <time>2021-09-12T11:43:10Z</time>
      </trkpt>
      <trkpt lat="46.55419" lon="0.34718">
        <ele>84</ele>
        <time>2021-09-12T11:43:11Z</time>
      </trkpt>
      <trkpt lat="46.55417" lon="0.34713">
        <ele>83.2</ele>
        <time>2021-09-12T11:43:12Z</time>
      </trkpt>
      <trkpt lat="46.55412" lon="0.34696">
        <ele>82</ele>
        <time>2021-09-12T11:43:15Z</time>
      </trkpt>
      <trkpt lat="46.55417" lon="0.3467">
        <ele>81.6</ele>
        <time>2021-09-12T11:43:20Z</time>
      </trkpt>
      <trkpt lat="46.55428" lon="0.34633">
        <ele>81.8</ele>
        <time>2021-09-12T11:43:27Z</time>
      </trkpt>
      <trkpt lat="46.55439" lon="0.34586">
        <ele>82.2</ele>
        <time>2021-09-12T11:43:35Z</time>
      </trkpt>
      <trkpt lat="46.55447" lon="0.34528">
        <ele>82</ele>
        <time>2021-09-12T11:43:44Z</time>
      </trkpt>
      <trkpt lat="46.55447" lon="0.34521">
        <ele>82.2</ele>
        <time>2021-09-12T11:43:45Z</time>
      </trkpt>
      <trkpt lat="46.55446" lon="0.34514">
        <ele>82.2</ele>
        <time>2021-09-12T11:43:46Z</time>
      </trkpt>
      <trkpt lat="46.55439" lon="0.34487">
        <ele>82.2</ele>
        <time>2021-09-12T11:43:50Z</time>
      </trkpt>
      <trkpt lat="46.55422" lon="0.34451">
        <ele>82</ele>
        <time>2021-09-12T11:43:56Z</time>
      </trkpt>
      <trkpt lat="46.554" lon="0.3443">
        <ele>82</ele>
        <time>2021-09-12T11:44:01Z</time>
      </trkpt>
      <trkpt lat="46.55386" lon="0.34421">
        <ele>82.2</ele>
        <time>2021-09-12T11:44:04Z</time>
      </trkpt>
      <trkpt lat="46.55373" lon="0.34415">
        <ele>82.2</ele>
        <time>2021-09-12T11:44:07Z</time>
      </trkpt>
      <trkpt lat="46.55355" lon="0.34412">
        <ele>83</ele>
        <time>2021-09-12T11:44:11Z</time>
      </trkpt>
      <trkpt lat="46.55351" lon="0.34411">
        <ele>83.4</ele>
        <time>2021-09-12T11:44:12Z</time>
      </trkpt>
      <trkpt lat="46.55341" lon="0.34411">
        <ele>83.8</ele>
        <time>2021-09-12T11:44:14Z</time>
      </trkpt>
      <trkpt lat="46.55313" lon="0.34412">
        <ele>84.2</ele>
        <time>2021-09-12T11:44:20Z</time>
      </trkpt>
      <trkpt lat="46.5527" lon="0.34408">
        <ele>83.2</ele>
        <time>2021-09-12T11:44:28Z</time>
      </trkpt>
      <trkpt lat="46.5523" lon="0.34397">
        <ele>82.4</ele>
        <time>2021-09-12T11:44:35Z</time>
      </trkpt>
      <trkpt lat="46.5522" lon="0.34394">
        <ele>82.2</ele>
        <time>2021-09-12T11:44:37Z</time>
      </trkpt>
      <trkpt lat="46.55203" lon="0.34394">
        <ele>82</ele>
        <time>2021-09-12T11:44:41Z</time>
      </trkpt>
      <trkpt lat="46.5519" lon="0.34391">
        <ele>82</ele>
        <time>2021-09-12T11:44:47Z</time>
      </trkpt>
      <trkpt lat="46.55168" lon="0.34385">
        <ele>81.8</ele>
        <time>2021-09-12T11:44:54Z</time>
      </trkpt>
      <trkpt lat="46.55142" lon="0.34377">
        <ele>81.8</ele>
        <time>2021-09-12T11:45:01Z</time>
      </trkpt>
      <trkpt lat="46.55116" lon="0.34366">
        <ele>82</ele>
        <time>2021-09-12T11:45:08Z</time>
      </trkpt>
      <trkpt lat="46.55088" lon="0.34347">
        <ele>81.8</ele>
        <time>2021-09-12T11:45:16Z</time>
      </trkpt>
      <trkpt lat="46.5508" lon="0.34343">
        <ele>81.4</ele>
        <time>2021-09-12T11:45:18Z</time>
      </trkpt>
      <trkpt lat="46.55075" lon="0.34341">
        <ele>81.2</ele>
        <time>2021-09-12T11:45:19Z</time>
      </trkpt>
      <trkpt lat="46.55059" lon="0.34335">
        <ele>80.6</ele>
        <time>2021-09-12T11:45:23Z</time>
      </trkpt>
      <trkpt lat="46.55056" lon="0.34336">
        <ele>80.6</ele>
        <time>2021-09-12T11:45:24Z</time>
      </trkpt>
      <trkpt lat="46.55051" lon="0.34342">
        <ele>80.4</ele>
        <time>2021-09-12T11:45:26Z</time>
      </trkpt>
      <trkpt lat="46.55053" lon="0.34348">
        <ele>79.8</ele>
        <time>2021-09-12T11:45:28Z</time>
      </trkpt>
      <trkpt lat="46.55054" lon="0.34352">
        <ele>79.8</ele>
        <time>2021-09-12T11:45:29Z</time>
      </trkpt>
      <trkpt lat="46.55056" lon="0.34355">
        <ele>79.6</ele>
        <time>2021-09-12T11:45:30Z</time>
      </trkpt>
      <trkpt lat="46.55056" lon="0.34368">
        <ele>79</ele>
        <time>2021-09-12T11:45:34Z</time>
      </trkpt>
      <trkpt lat="46.55055" lon="0.34372">
        <ele>78.8</ele>
        <time>2021-09-12T11:45:35Z</time>
      </trkpt>
      <trkpt lat="46.55055" lon="0.34377">
        <ele>78.8</ele>
        <time>2021-09-12T11:45:36Z</time>
      </trkpt>
      <trkpt lat="46.55059" lon="0.34383">
        <ele>78.4</ele>
        <time>2021-09-12T11:45:38Z</time>
      </trkpt>
      <trkpt lat="46.55067" lon="0.34394">
        <ele>78.2</ele>
        <time>2021-09-12T11:45:42Z</time>
      </trkpt>
      <trkpt lat="46.55067" lon="0.34399">
        <ele>78.2</ele>
        <time>2021-09-12T11:45:43Z</time>
      </trkpt>
      <trkpt lat="46.55062" lon="0.34427">
        <ele>78.6</ele>
        <time>2021-09-12T11:45:49Z</time>
      </trkpt>
      <trkpt lat="46.55054" lon="0.34435">
        <ele>80</ele>
        <time>2021-09-12T11:45:54Z</time>
      </trkpt>
      <trkpt lat="46.55045" lon="0.34439">
        <ele>81.2</ele>
        <time>2021-09-12T11:45:59Z</time>
      </trkpt>
      <trkpt lat="46.5504" lon="0.3444">
        <ele>82</ele>
        <time>2021-09-12T11:46:02Z</time>
      </trkpt>
      <trkpt lat="46.55039" lon="0.3444">
        <ele>82.4</ele>
        <time>2021-09-12T11:46:03Z</time>
      </trkpt>
      <trkpt lat="46.5503" lon="0.34441">
        <ele>83.4</ele>
        <time>2021-09-12T11:46:08Z</time>
      </trkpt>
      <trkpt lat="46.55026" lon="0.34441">
        <ele>84</ele>
        <time>2021-09-12T11:46:11Z</time>
      </trkpt>
      <trkpt lat="46.55023" lon="0.34441">
        <ele>84.4</ele>
        <time>2021-09-12T11:46:13Z</time>
      </trkpt>
      <trkpt lat="46.55021" lon="0.34441">
        <ele>84.8</ele>
        <time>2021-09-12T11:46:15Z</time>
      </trkpt>
      <trkpt lat="46.55018" lon="0.34441">
        <ele>85.6</ele>
        <time>2021-09-12T11:46:18Z</time>
      </trkpt>
      <trkpt lat="46.55012" lon="0.34443">
        <ele>86.4</ele>
        <time>2021-09-12T11:46:24Z</time>
      </trkpt>
      <trkpt lat="46.55012" lon="0.34444">
        <ele>86.6</ele>
        <time>2021-09-12T11:46:25Z</time>
      </trkpt>
      <trkpt lat="46.55013" lon="0.34446">
        <ele>86.6</ele>
        <time>2021-09-12T11:46:27Z</time>
      </trkpt>
      <trkpt lat="46.55014" lon="0.3445">
        <ele>87</ele>
        <time>2021-09-12T11:46:29Z</time>
      </trkpt>
      <trkpt lat="46.55017" lon="0.34456">
        <ele>87.6</ele>
        <time>2021-09-12T11:46:34Z</time>
      </trkpt>
      <trkpt lat="46.55018" lon="0.34458">
        <ele>88</ele>
        <time>2021-09-12T11:46:36Z</time>
      </trkpt>
      <trkpt lat="46.5502" lon="0.34461">
        <ele>88.6</ele>
        <time>2021-09-12T11:46:38Z</time>
      </trkpt>
      <trkpt lat="46.55023" lon="0.34466">
        <ele>89.2</ele>
        <time>2021-09-12T11:46:42Z</time>
      </trkpt>
      <trkpt lat="46.55028" lon="0.34471">
        <ele>89.6</ele>
        <time>2021-09-12T11:46:48Z</time>
      </trkpt>
      <trkpt lat="46.55031" lon="0.34476">
        <ele>90</ele>
        <time>2021-09-12T11:46:51Z</time>
      </trkpt>
      <trkpt lat="46.55035" lon="0.34482">
        <ele>90.8</ele>
        <time>2021-09-12T11:46:54Z</time>
      </trkpt>
      <trkpt lat="46.5504" lon="0.34487">
        <ele>91.2</ele>
        <time>2021-09-12T11:46:58Z</time>
      </trkpt>
      <trkpt lat="46.55044" lon="0.3449">
        <ele>91.8</ele>
        <time>2021-09-12T11:47:01Z</time>
      </trkpt>
      <trkpt lat="46.5505" lon="0.34496">
        <ele>92.4</ele>
        <time>2021-09-12T11:47:05Z</time>
      </trkpt>
      <trkpt lat="46.55052" lon="0.34499">
        <ele>92.8</ele>
        <time>2021-09-12T11:47:07Z</time>
      </trkpt>
      <trkpt lat="46.55059" lon="0.34505">
        <ele>93.8</ele>
        <time>2021-09-12T11:47:12Z</time>
      </trkpt>
      <trkpt lat="46.5506" lon="0.34507">
        <ele>94</ele>
        <time>2021-09-12T11:47:13Z</time>
      </trkpt>
      <trkpt lat="46.55061" lon="0.34508">
        <ele>94.2</ele>
        <time>2021-09-12T11:47:14Z</time>
      </trkpt>
      <trkpt lat="46.55067" lon="0.34513">
        <ele>95</ele>
        <time>2021-09-12T11:47:19Z</time>
      </trkpt>
      <trkpt lat="46.55069" lon="0.34515">
        <ele>95.2</ele>
        <time>2021-09-12T11:47:21Z</time>
      </trkpt>
      <trkpt lat="46.55074" lon="0.34519">
        <ele>96</ele>
        <time>2021-09-12T11:47:26Z</time>
      </trkpt>
      <trkpt lat="46.55078" lon="0.34525">
        <ele>96.6</ele>
        <time>2021-09-12T11:47:30Z</time>
      </trkpt>
      <trkpt lat="46.55081" lon="0.34527">
        <ele>97.4</ele>
        <time>2021-09-12T11:47:33Z</time>
      </trkpt>
      <trkpt lat="46.55085" lon="0.34532">
        <ele>98</ele>
        <time>2021-09-12T11:47:38Z</time>
      </trkpt>
      <trkpt lat="46.55086" lon="0.34534">
        <ele>98.6</ele>
        <time>2021-09-12T11:47:40Z</time>
      </trkpt>
      <trkpt lat="46.5509" lon="0.34538">
        <ele>99.4</ele>
        <time>2021-09-12T11:47:43Z</time>
      </trkpt>
      <trkpt lat="46.55092" lon="0.34541">
        <ele>99.8</ele>
        <time>2021-09-12T11:47:46Z</time>
      </trkpt>
      <trkpt lat="46.55093" lon="0.34543">
        <ele>100</ele>
        <time>2021-09-12T11:47:47Z</time>
      </trkpt>
      <trkpt lat="46.55098" lon="0.34549">
        <ele>100.6</ele>
        <time>2021-09-12T11:47:51Z</time>
      </trkpt>
      <trkpt lat="46.55101" lon="0.34552">
        <ele>100.8</ele>
        <time>2021-09-12T11:47:54Z</time>
      </trkpt>
      <trkpt lat="46.55103" lon="0.34553">
        <ele>101.2</ele>
        <time>2021-09-12T11:47:55Z</time>
      </trkpt>
      <trkpt lat="46.55104" lon="0.34554">
        <ele>101.4</ele>
        <time>2021-09-12T11:47:56Z</time>
      </trkpt>
      <trkpt lat="46.55108" lon="0.34559">
        <ele>102.2</ele>
        <time>2021-09-12T11:48:01Z</time>
      </trkpt>
      <trkpt lat="46.55113" lon="0.34565">
        <ele>103.2</ele>
        <time>2021-09-12T11:48:06Z</time>
      </trkpt>
      <trkpt lat="46.55117" lon="0.34571">
        <ele>104.2</ele>
        <time>2021-09-12T11:48:10Z</time>
      </trkpt>
      <trkpt lat="46.55118" lon="0.34575">
        <ele>104.8</ele>
        <time>2021-09-12T11:48:13Z</time>
      </trkpt>
      <trkpt lat="46.5512" lon="0.34578">
        <ele>105.2</ele>
        <time>2021-09-12T11:48:16Z</time>
      </trkpt>
      <trkpt lat="46.55123" lon="0.34587">
        <ele>106.4</ele>
        <time>2021-09-12T11:48:22Z</time>
      </trkpt>
      <trkpt lat="46.55124" lon="0.34593">
        <ele>107.6</ele>
        <time>2021-09-12T11:48:26Z</time>
      </trkpt>
      <trkpt lat="46.55124" lon="0.34594">
        <ele>107.8</ele>
        <time>2021-09-12T11:48:27Z</time>
      </trkpt>
      <trkpt lat="46.55123" lon="0.34596">
        <ele>108</ele>
        <time>2021-09-12T11:48:29Z</time>
      </trkpt>
      <trkpt lat="46.55123" lon="0.34598">
        <ele>108.6</ele>
        <time>2021-09-12T11:48:31Z</time>
      </trkpt>
      <trkpt lat="46.55122" lon="0.34602">
        <ele>109.2</ele>
        <time>2021-09-12T11:48:34Z</time>
      </trkpt>
      <trkpt lat="46.55121" lon="0.34603">
        <ele>109.8</ele>
        <time>2021-09-12T11:48:36Z</time>
      </trkpt>
      <trkpt lat="46.55117" lon="0.3461">
        <ele>110.2</ele>
        <time>2021-09-12T11:48:42Z</time>
      </trkpt>
      <trkpt lat="46.55113" lon="0.34615">
        <ele>110.6</ele>
        <time>2021-09-12T11:48:46Z</time>
      </trkpt>
      <trkpt lat="46.55111" lon="0.34617">
        <ele>110.8</ele>
        <time>2021-09-12T11:48:48Z</time>
      </trkpt>
      <trkpt lat="46.55105" lon="0.34626">
        <ele>111.8</ele>
        <time>2021-09-12T11:48:55Z</time>
      </trkpt>
      <trkpt lat="46.55103" lon="0.34627">
        <ele>111.8</ele>
        <time>2021-09-12T11:48:56Z</time>
      </trkpt>
      <trkpt lat="46.55092" lon="0.34641">
        <ele>112.8</ele>
        <time>2021-09-12T11:49:06Z</time>
      </trkpt>
      <trkpt lat="46.55089" lon="0.34645">
        <ele>113.6</ele>
        <time>2021-09-12T11:49:09Z</time>
      </trkpt>
      <trkpt lat="46.55087" lon="0.34647">
        <ele>114</ele>
        <time>2021-09-12T11:49:11Z</time>
      </trkpt>
      <trkpt lat="46.55083" lon="0.34661">
        <ele>115</ele>
        <time>2021-09-12T11:49:17Z</time>
      </trkpt>
      <trkpt lat="46.55082" lon="0.34663">
        <ele>115.4</ele>
        <time>2021-09-12T11:49:18Z</time>
      </trkpt>
      <trkpt lat="46.55081" lon="0.34669">
        <ele>115.6</ele>
        <time>2021-09-12T11:49:20Z</time>
      </trkpt>
      <trkpt lat="46.55082" lon="0.34691">
        <ele>116.2</ele>
        <time>2021-09-12T11:49:28Z</time>
      </trkpt>
      <trkpt lat="46.55083" lon="0.34701">
        <ele>116.4</ele>
        <time>2021-09-12T11:49:31Z</time>
      </trkpt>
      <trkpt lat="46.55084" lon="0.34712">
        <ele>116.8</ele>
        <time>2021-09-12T11:49:35Z</time>
      </trkpt>
      <trkpt lat="46.55088" lon="0.34737">
        <ele>117.2</ele>
        <time>2021-09-12T11:49:43Z</time>
      </trkpt>
      <trkpt lat="46.55088" lon="0.34745">
        <ele>117.2</ele>
        <time>2021-09-12T11:49:46Z</time>
      </trkpt>
      <trkpt lat="46.55087" lon="0.34751">
        <ele>117.2</ele>
        <time>2021-09-12T11:49:48Z</time>
      </trkpt>
      <trkpt lat="46.55086" lon="0.34755">
        <ele>117.2</ele>
        <time>2021-09-12T11:49:49Z</time>
      </trkpt>
      <trkpt lat="46.55074" lon="0.34772">
        <ele>117.8</ele>
        <time>2021-09-12T11:49:55Z</time>
      </trkpt>
      <trkpt lat="46.5506" lon="0.34788">
        <ele>118.2</ele>
        <time>2021-09-12T11:50:01Z</time>
      </trkpt>
      <trkpt lat="46.55057" lon="0.3479">
        <ele>118.4</ele>
        <time>2021-09-12T11:50:02Z</time>
      </trkpt>
      <trkpt lat="46.55038" lon="0.34811">
        <ele>119.2</ele>
        <time>2021-09-12T11:50:09Z</time>
      </trkpt>
      <trkpt lat="46.55035" lon="0.34814">
        <ele>119.4</ele>
        <time>2021-09-12T11:50:10Z</time>
      </trkpt>
      <trkpt lat="46.55018" lon="0.34828">
        <ele>119.6</ele>
        <time>2021-09-12T11:50:16Z</time>
      </trkpt>
      <trkpt lat="46.55001" lon="0.3484">
        <ele>120.4</ele>
        <time>2021-09-12T11:50:21Z</time>
      </trkpt>
      <trkpt lat="46.54992" lon="0.34846">
        <ele>120.8</ele>
        <time>2021-09-12T11:50:24Z</time>
      </trkpt>
      <trkpt lat="46.54966" lon="0.34858">
        <ele>121.4</ele>
        <time>2021-09-12T11:50:31Z</time>
      </trkpt>
      <trkpt lat="46.54938" lon="0.34878">
        <ele>122</ele>
        <time>2021-09-12T11:50:39Z</time>
      </trkpt>
      <trkpt lat="46.54911" lon="0.34897">
        <ele>122</ele>
        <time>2021-09-12T11:50:46Z</time>
      </trkpt>
      <trkpt lat="46.5487" lon="0.34921">
        <ele>121.8</ele>
        <time>2021-09-12T11:50:56Z</time>
      </trkpt>
      <trkpt lat="46.54837" lon="0.34942">
        <ele>121.8</ele>
        <time>2021-09-12T11:51:04Z</time>
      </trkpt>
      <trkpt lat="46.54819" lon="0.34951">
        <ele>121.8</ele>
        <time>2021-09-12T11:51:09Z</time>
      </trkpt>
      <trkpt lat="46.54815" lon="0.34952">
        <ele>121.8</ele>
        <time>2021-09-12T11:51:10Z</time>
      </trkpt>
      <trkpt lat="46.54807" lon="0.34956">
        <ele>121.6</ele>
        <time>2021-09-12T11:51:12Z</time>
      </trkpt>
      <trkpt lat="46.54789" lon="0.34966">
        <ele>122</ele>
        <time>2021-09-12T11:51:16Z</time>
      </trkpt>
      <trkpt lat="46.54758" lon="0.34987">
        <ele>121.8</ele>
        <time>2021-09-12T11:51:23Z</time>
      </trkpt>
      <trkpt lat="46.54727" lon="0.35006">
        <ele>122</ele>
        <time>2021-09-12T11:51:30Z</time>
      </trkpt>
      <trkpt lat="46.54692" lon="0.3502">
        <ele>121.6</ele>
        <time>2021-09-12T11:51:38Z</time>
      </trkpt>
      <trkpt lat="46.54683" lon="0.3502">
        <ele>121.4</ele>
        <time>2021-09-12T11:51:40Z</time>
      </trkpt>
      <trkpt lat="46.54674" lon="0.35024">
        <ele>121.4</ele>
        <time>2021-09-12T11:51:43Z</time>
      </trkpt>
      <trkpt lat="46.54667" lon="0.35038">
        <ele>121.4</ele>
        <time>2021-09-12T11:51:48Z</time>
      </trkpt>
      <trkpt lat="46.54656" lon="0.35057">
        <ele>120.6</ele>
        <time>2021-09-12T11:51:53Z</time>
      </trkpt>
      <trkpt lat="46.54653" lon="0.35066">
        <ele>120.4</ele>
        <time>2021-09-12T11:51:55Z</time>
      </trkpt>
      <trkpt lat="46.54652" lon="0.35071">
        <ele>120.2</ele>
        <time>2021-09-12T11:51:56Z</time>
      </trkpt>
      <trkpt lat="46.54648" lon="0.35086">
        <ele>119.6</ele>
        <time>2021-09-12T11:51:59Z</time>
      </trkpt>
      <trkpt lat="46.54646" lon="0.3509">
        <ele>119</ele>
        <time>2021-09-12T11:52:00Z</time>
      </trkpt>
      <trkpt lat="46.54644" lon="0.35095">
        <ele>118.8</ele>
        <time>2021-09-12T11:52:01Z</time>
      </trkpt>
      <trkpt lat="46.5464" lon="0.35105">
        <ele>117.8</ele>
        <time>2021-09-12T11:52:03Z</time>
      </trkpt>
      <trkpt lat="46.54637" lon="0.3511">
        <ele>117.4</ele>
        <time>2021-09-12T11:52:04Z</time>
      </trkpt>
      <trkpt lat="46.54634" lon="0.35113">
        <ele>117.2</ele>
        <time>2021-09-12T11:52:05Z</time>
      </trkpt>
      <trkpt lat="46.5463" lon="0.35118">
        <ele>117</ele>
        <time>2021-09-12T11:52:06Z</time>
      </trkpt>
      <trkpt lat="46.54624" lon="0.35126">
        <ele>117</ele>
        <time>2021-09-12T11:52:08Z</time>
      </trkpt>
      <trkpt lat="46.54621" lon="0.35128">
        <ele>117</ele>
        <time>2021-09-12T11:52:09Z</time>
      </trkpt>
      <trkpt lat="46.54601" lon="0.35144">
        <ele>117.8</ele>
        <time>2021-09-12T11:52:14Z</time>
      </trkpt>
      <trkpt lat="46.54598" lon="0.35147">
        <ele>117.8</ele>
        <time>2021-09-12T11:52:15Z</time>
      </trkpt>
      <trkpt lat="46.54587" lon="0.35155">
        <ele>117.8</ele>
        <time>2021-09-12T11:52:17Z</time>
      </trkpt>
      <trkpt lat="46.54583" lon="0.35159">
        <ele>117.8</ele>
        <time>2021-09-12T11:52:18Z</time>
      </trkpt>
      <trkpt lat="46.54578" lon="0.35162">
        <ele>117.8</ele>
        <time>2021-09-12T11:52:19Z</time>
      </trkpt>
      <trkpt lat="46.54571" lon="0.35162">
        <ele>118</ele>
        <time>2021-09-12T11:52:21Z</time>
      </trkpt>
      <trkpt lat="46.54567" lon="0.35163">
        <ele>118.2</ele>
        <time>2021-09-12T11:52:22Z</time>
      </trkpt>
      <trkpt lat="46.54552" lon="0.35168">
        <ele>119</ele>
        <time>2021-09-12T11:52:27Z</time>
      </trkpt>
      <trkpt lat="46.54533" lon="0.35176">
        <ele>119.6</ele>
        <time>2021-09-12T11:52:33Z</time>
      </trkpt>
      <trkpt lat="46.54527" lon="0.35178">
        <ele>119.2</ele>
        <time>2021-09-12T11:52:35Z</time>
      </trkpt>
      <trkpt lat="46.54519" lon="0.35181">
        <ele>119.4</ele>
        <time>2021-09-12T11:52:37Z</time>
      </trkpt>
      <trkpt lat="46.54515" lon="0.35182">
        <ele>119.4</ele>
        <time>2021-09-12T11:52:38Z</time>
      </trkpt>
      <trkpt lat="46.54498" lon="0.35186">
        <ele>120</ele>
        <time>2021-09-12T11:52:43Z</time>
      </trkpt>
      <trkpt lat="46.54484" lon="0.35191">
        <ele>120.4</ele>
        <time>2021-09-12T11:52:47Z</time>
      </trkpt>
      <trkpt lat="46.5447" lon="0.35198">
        <ele>120.6</ele>
        <time>2021-09-12T11:52:52Z</time>
      </trkpt>
      <trkpt lat="46.54466" lon="0.35199">
        <ele>120.6</ele>
        <time>2021-09-12T11:52:53Z</time>
      </trkpt>
      <trkpt lat="46.54455" lon="0.35197">
        <ele>120.8</ele>
        <time>2021-09-12T11:52:56Z</time>
      </trkpt>
      <trkpt lat="46.54438" lon="0.35185">
        <ele>121</ele>
        <time>2021-09-12T11:53:01Z</time>
      </trkpt>
      <trkpt lat="46.54435" lon="0.35182">
        <ele>121.2</ele>
        <time>2021-09-12T11:53:02Z</time>
      </trkpt>
      <trkpt lat="46.54432" lon="0.3518">
        <ele>121.6</ele>
        <time>2021-09-12T11:53:03Z</time>
      </trkpt>
      <trkpt lat="46.5442" lon="0.3517">
        <ele>121.8</ele>
        <time>2021-09-12T11:53:07Z</time>
      </trkpt>
      <trkpt lat="46.54413" lon="0.3516">
        <ele>121.6</ele>
        <time>2021-09-12T11:53:10Z</time>
      </trkpt>
      <trkpt lat="46.54409" lon="0.35154">
        <ele>121.6</ele>
        <time>2021-09-12T11:53:12Z</time>
      </trkpt>
      <trkpt lat="46.54399" lon="0.3514">
        <ele>121.6</ele>
        <time>2021-09-12T11:53:16Z</time>
      </trkpt>
      <trkpt lat="46.54388" lon="0.35132">
        <ele>121.2</ele>
        <time>2021-09-12T11:53:20Z</time>
      </trkpt>
      <trkpt lat="46.5438" lon="0.35128">
        <ele>121.2</ele>
        <time>2021-09-12T11:53:22Z</time>
      </trkpt>
      <trkpt lat="46.54373" lon="0.35121">
        <ele>121.2</ele>
        <time>2021-09-12T11:53:24Z</time>
      </trkpt>
      <trkpt lat="46.54368" lon="0.35111">
        <ele>121</ele>
        <time>2021-09-12T11:53:26Z</time>
      </trkpt>
      <trkpt lat="46.54364" lon="0.35097">
        <ele>120.8</ele>
        <time>2021-09-12T11:53:29Z</time>
      </trkpt>
      <trkpt lat="46.54363" lon="0.35093">
        <ele>120.6</ele>
        <time>2021-09-12T11:53:30Z</time>
      </trkpt>
      <trkpt lat="46.5436" lon="0.35084">
        <ele>120.6</ele>
        <time>2021-09-12T11:53:32Z</time>
      </trkpt>
      <trkpt lat="46.54353" lon="0.35079">
        <ele>120.8</ele>
        <time>2021-09-12T11:53:34Z</time>
      </trkpt>
      <trkpt lat="46.54349" lon="0.35077">
        <ele>120.8</ele>
        <time>2021-09-12T11:53:35Z</time>
      </trkpt>
      <trkpt lat="46.54323" lon="0.35072">
        <ele>120.6</ele>
        <time>2021-09-12T11:53:41Z</time>
      </trkpt>
      <trkpt lat="46.54319" lon="0.35072">
        <ele>120.4</ele>
        <time>2021-09-12T11:53:42Z</time>
      </trkpt>
      <trkpt lat="46.54316" lon="0.3507">
        <ele>120.2</ele>
        <time>2021-09-12T11:53:43Z</time>
      </trkpt>
      <trkpt lat="46.54298" lon="0.3506">
        <ele>119.4</ele>
        <time>2021-09-12T11:53:47Z</time>
      </trkpt>
      <trkpt lat="46.54291" lon="0.35054">
        <ele>119.4</ele>
        <time>2021-09-12T11:53:49Z</time>
      </trkpt>
      <trkpt lat="46.54283" lon="0.35046">
        <ele>119</ele>
        <time>2021-09-12T11:53:51Z</time>
      </trkpt>
      <trkpt lat="46.54278" lon="0.35043">
        <ele>119</ele>
        <time>2021-09-12T11:53:52Z</time>
      </trkpt>
      <trkpt lat="46.5427" lon="0.35038">
        <ele>118.8</ele>
        <time>2021-09-12T11:53:54Z</time>
      </trkpt>
      <trkpt lat="46.54262" lon="0.35029">
        <ele>118</ele>
        <time>2021-09-12T11:53:56Z</time>
      </trkpt>
      <trkpt lat="46.5426" lon="0.35016">
        <ele>117.2</ele>
        <time>2021-09-12T11:54:00Z</time>
      </trkpt>
      <trkpt lat="46.5426" lon="0.34999">
        <ele>117.4</ele>
        <time>2021-09-12T11:54:06Z</time>
      </trkpt>
      <trkpt lat="46.54263" lon="0.35">
        <ele>117.4</ele>
        <time>2021-09-12T11:54:08Z</time>
      </trkpt>
      <trkpt lat="46.54269" lon="0.34999">
        <ele>117.6</ele>
        <time>2021-09-12T11:54:11Z</time>
      </trkpt>
      <trkpt lat="46.54271" lon="0.34998">
        <ele>117.8</ele>
        <time>2021-09-12T11:54:12Z</time>
      </trkpt>
      <trkpt lat="46.54275" lon="0.34991">
        <ele>118.2</ele>
        <time>2021-09-12T11:54:15Z</time>
      </trkpt>
      <trkpt lat="46.54286" lon="0.34986">
        <ele>118.8</ele>
        <time>2021-09-12T11:54:20Z</time>
      </trkpt>
      <trkpt lat="46.54288" lon="0.34985">
        <ele>118.8</ele>
        <time>2021-09-12T11:54:21Z</time>
      </trkpt>
      <trkpt lat="46.54294" lon="0.34984">
        <ele>119</ele>
        <time>2021-09-12T11:54:23Z</time>
      </trkpt>
      <trkpt lat="46.54295" lon="0.34982">
        <ele>119</ele>
        <time>2021-09-12T11:54:24Z</time>
      </trkpt>
      <trkpt lat="46.54296" lon="0.3498">
        <ele>119</ele>
        <time>2021-09-12T11:54:25Z</time>
      </trkpt>
      <trkpt lat="46.54294" lon="0.34965">
        <ele>119.2</ele>
        <time>2021-09-12T11:54:29Z</time>
      </trkpt>
      <trkpt lat="46.5429" lon="0.34945">
        <ele>119.2</ele>
        <time>2021-09-12T11:54:34Z</time>
      </trkpt>
      <trkpt lat="46.54283" lon="0.34923">
        <ele>119.6</ele>
        <time>2021-09-12T11:54:40Z</time>
      </trkpt>
      <trkpt lat="46.54276" lon="0.34907">
        <ele>119.8</ele>
        <time>2021-09-12T11:54:44Z</time>
      </trkpt>
      <trkpt lat="46.54272" lon="0.34903">
        <ele>119.8</ele>
        <time>2021-09-12T11:54:46Z</time>
      </trkpt>
      <trkpt lat="46.54263" lon="0.34888">
        <ele>120</ele>
        <time>2021-09-12T11:54:50Z</time>
      </trkpt>
      <trkpt lat="46.54252" lon="0.34864">
        <ele>120</ele>
        <time>2021-09-12T11:54:56Z</time>
      </trkpt>
      <trkpt lat="46.54253" lon="0.34844">
        <ele>119.8</ele>
        <time>2021-09-12T11:55:01Z</time>
      </trkpt>
      <trkpt lat="46.54253" lon="0.34834">
        <ele>119.8</ele>
        <time>2021-09-12T11:55:04Z</time>
      </trkpt>
      <trkpt lat="46.54253" lon="0.3483">
        <ele>119.8</ele>
        <time>2021-09-12T11:55:06Z</time>
      </trkpt>
      <trkpt lat="46.54252" lon="0.34825">
        <ele>119.8</ele>
        <time>2021-09-12T11:55:08Z</time>
      </trkpt>
      <trkpt lat="46.54253" lon="0.34811">
        <ele>120</ele>
        <time>2021-09-12T11:55:11Z</time>
      </trkpt>
      <trkpt lat="46.54253" lon="0.34802">
        <ele>120</ele>
        <time>2021-09-12T11:55:13Z</time>
      </trkpt>
      <trkpt lat="46.54253" lon="0.34789">
        <ele>119.8</ele>
        <time>2021-09-12T11:55:16Z</time>
      </trkpt>
      <trkpt lat="46.54251" lon="0.34775">
        <ele>119.4</ele>
        <time>2021-09-12T11:55:20Z</time>
      </trkpt>
      <trkpt lat="46.54246" lon="0.34745">
        <ele>119.4</ele>
        <time>2021-09-12T11:55:26Z</time>
      </trkpt>
      <trkpt lat="46.54244" lon="0.34731">
        <ele>119.6</ele>
        <time>2021-09-12T11:55:29Z</time>
      </trkpt>
      <trkpt lat="46.54247" lon="0.34724">
        <ele>119.2</ele>
        <time>2021-09-12T11:55:31Z</time>
      </trkpt>
      <trkpt lat="46.54257" lon="0.34717">
        <ele>119</ele>
        <time>2021-09-12T11:55:34Z</time>
      </trkpt>
      <trkpt lat="46.54259" lon="0.34715">
        <ele>119.2</ele>
        <time>2021-09-12T11:55:35Z</time>
      </trkpt>
      <trkpt lat="46.54264" lon="0.34706">
        <ele>119</ele>
        <time>2021-09-12T11:55:38Z</time>
      </trkpt>
      <trkpt lat="46.54267" lon="0.347">
        <ele>119</ele>
        <time>2021-09-12T11:55:40Z</time>
      </trkpt>
      <trkpt lat="46.54272" lon="0.34692">
        <ele>118.8</ele>
        <time>2021-09-12T11:55:42Z</time>
      </trkpt>
      <trkpt lat="46.54275" lon="0.34683">
        <ele>118.6</ele>
        <time>2021-09-12T11:55:45Z</time>
      </trkpt>
      <trkpt lat="46.54283" lon="0.34669">
        <ele>118.2</ele>
        <time>2021-09-12T11:55:50Z</time>
      </trkpt>
      <trkpt lat="46.54284" lon="0.34665">
        <ele>118.2</ele>
        <time>2021-09-12T11:55:51Z</time>
      </trkpt>
      <trkpt lat="46.54298" lon="0.34651">
        <ele>119</ele>
        <time>2021-09-12T11:55:57Z</time>
      </trkpt>
      <trkpt lat="46.54308" lon="0.34643">
        <ele>119.2</ele>
        <time>2021-09-12T11:56:00Z</time>
      </trkpt>
      <trkpt lat="46.54311" lon="0.34636">
        <ele>119.4</ele>
        <time>2021-09-12T11:56:02Z</time>
      </trkpt>
      <trkpt lat="46.5433" lon="0.34618">
        <ele>119.4</ele>
        <time>2021-09-12T11:56:07Z</time>
      </trkpt>
      <trkpt lat="46.54333" lon="0.34616">
        <ele>119.4</ele>
        <time>2021-09-12T11:56:08Z</time>
      </trkpt>
      <trkpt lat="46.54346" lon="0.34608">
        <ele>119.6</ele>
        <time>2021-09-12T11:56:12Z</time>
      </trkpt>
      <trkpt lat="46.54361" lon="0.34597">
        <ele>119.8</ele>
        <time>2021-09-12T11:56:16Z</time>
      </trkpt>
      <trkpt lat="46.54362" lon="0.34593">
        <ele>119.8</ele>
        <time>2021-09-12T11:56:17Z</time>
      </trkpt>
      <trkpt lat="46.54363" lon="0.34589">
        <ele>119.8</ele>
        <time>2021-09-12T11:56:18Z</time>
      </trkpt>
      <trkpt lat="46.54369" lon="0.34573">
        <ele>119.6</ele>
        <time>2021-09-12T11:56:20Z</time>
      </trkpt>
      <trkpt lat="46.54378" lon="0.34553">
        <ele>119.4</ele>
        <time>2021-09-12T11:56:26Z</time>
      </trkpt>
      <trkpt lat="46.54397" lon="0.34533">
        <ele>119.2</ele>
        <time>2021-09-12T11:56:33Z</time>
      </trkpt>
      <trkpt lat="46.54413" lon="0.34516">
        <ele>119</ele>
        <time>2021-09-12T11:56:38Z</time>
      </trkpt>
      <trkpt lat="46.54414" lon="0.34503">
        <ele>119</ele>
        <time>2021-09-12T11:56:40Z</time>
      </trkpt>
      <trkpt lat="46.54413" lon="0.34497">
        <ele>119</ele>
        <time>2021-09-12T11:56:41Z</time>
      </trkpt>
      <trkpt lat="46.54399" lon="0.34462">
        <ele>119</ele>
        <time>2021-09-12T11:56:47Z</time>
      </trkpt>
      <trkpt lat="46.54382" lon="0.34411">
        <ele>118.4</ele>
        <time>2021-09-12T11:56:55Z</time>
      </trkpt>
      <trkpt lat="46.54364" lon="0.34368">
        <ele>118.4</ele>
        <time>2021-09-12T11:57:02Z</time>
      </trkpt>
      <trkpt lat="46.54346" lon="0.34331">
        <ele>118.2</ele>
        <time>2021-09-12T11:57:09Z</time>
      </trkpt>
      <trkpt lat="46.54336" lon="0.34309">
        <ele>118.2</ele>
        <time>2021-09-12T11:57:13Z</time>
      </trkpt>
      <trkpt lat="46.54329" lon="0.34303">
        <ele>118.4</ele>
        <time>2021-09-12T11:57:15Z</time>
      </trkpt>
      <trkpt lat="46.54322" lon="0.343">
        <ele>118.8</ele>
        <time>2021-09-12T11:57:17Z</time>
      </trkpt>
      <trkpt lat="46.54309" lon="0.343">
        <ele>119.2</ele>
        <time>2021-09-12T11:57:20Z</time>
      </trkpt>
      <trkpt lat="46.54302" lon="0.343">
        <ele>119.4</ele>
        <time>2021-09-12T11:57:22Z</time>
      </trkpt>
      <trkpt lat="46.54294" lon="0.34298">
        <ele>119.6</ele>
        <time>2021-09-12T11:57:24Z</time>
      </trkpt>
      <trkpt lat="46.5429" lon="0.34297">
        <ele>119.6</ele>
        <time>2021-09-12T11:57:25Z</time>
      </trkpt>
      <trkpt lat="46.54259" lon="0.34282">
        <ele>119.8</ele>
        <time>2021-09-12T11:57:33Z</time>
      </trkpt>
      <trkpt lat="46.5425" lon="0.34279">
        <ele>120</ele>
        <time>2021-09-12T11:57:35Z</time>
      </trkpt>
      <trkpt lat="46.54237" lon="0.34273">
        <ele>120</ele>
        <time>2021-09-12T11:57:38Z</time>
      </trkpt>
      <trkpt lat="46.54233" lon="0.34272">
        <ele>120</ele>
        <time>2021-09-12T11:57:39Z</time>
      </trkpt>
      <trkpt lat="46.54207" lon="0.34266">
        <ele>119.8</ele>
        <time>2021-09-12T11:57:45Z</time>
      </trkpt>
      <trkpt lat="46.54191" lon="0.34268">
        <ele>119.4</ele>
        <time>2021-09-12T11:57:48Z</time>
      </trkpt>
      <trkpt lat="46.54175" lon="0.34272">
        <ele>119.4</ele>
        <time>2021-09-12T11:57:51Z</time>
      </trkpt>
      <trkpt lat="46.54165" lon="0.34277">
        <ele>119.4</ele>
        <time>2021-09-12T11:57:53Z</time>
      </trkpt>
      <trkpt lat="46.54155" lon="0.34283">
        <ele>119</ele>
        <time>2021-09-12T11:57:55Z</time>
      </trkpt>
      <trkpt lat="46.54151" lon="0.34288">
        <ele>118.2</ele>
        <time>2021-09-12T11:57:56Z</time>
      </trkpt>
      <trkpt lat="46.54147" lon="0.34292">
        <ele>117.2</ele>
        <time>2021-09-12T11:57:57Z</time>
      </trkpt>
      <trkpt lat="46.54142" lon="0.34297">
        <ele>116</ele>
        <time>2021-09-12T11:57:58Z</time>
      </trkpt>
      <trkpt lat="46.54133" lon="0.34306">
        <ele>115</ele>
        <time>2021-09-12T11:58:00Z</time>
      </trkpt>
      <trkpt lat="46.54128" lon="0.34311">
        <ele>114.2</ele>
        <time>2021-09-12T11:58:01Z</time>
      </trkpt>
      <trkpt lat="46.54122" lon="0.34315">
        <ele>113.8</ele>
        <time>2021-09-12T11:58:02Z</time>
      </trkpt>
      <trkpt lat="46.5411" lon="0.34327">
        <ele>111.8</ele>
        <time>2021-09-12T11:58:04Z</time>
      </trkpt>
      <trkpt lat="46.54104" lon="0.34333">
        <ele>110.6</ele>
        <time>2021-09-12T11:58:05Z</time>
      </trkpt>
      <trkpt lat="46.54097" lon="0.34338">
        <ele>108.8</ele>
        <time>2021-09-12T11:58:06Z</time>
      </trkpt>
      <trkpt lat="46.54089" lon="0.34344">
        <ele>107.4</ele>
        <time>2021-09-12T11:58:07Z</time>
      </trkpt>
      <trkpt lat="46.54082" lon="0.34351">
        <ele>106.6</ele>
        <time>2021-09-12T11:58:08Z</time>
      </trkpt>
      <trkpt lat="46.54076" lon="0.34358">
        <ele>106.2</ele>
        <time>2021-09-12T11:58:09Z</time>
      </trkpt>
      <trkpt lat="46.5407" lon="0.34365">
        <ele>105.2</ele>
        <time>2021-09-12T11:58:10Z</time>
      </trkpt>
      <trkpt lat="46.54066" lon="0.34372">
        <ele>104.2</ele>
        <time>2021-09-12T11:58:11Z</time>
      </trkpt>
      <trkpt lat="46.54058" lon="0.34383">
        <ele>103.2</ele>
        <time>2021-09-12T11:58:13Z</time>
      </trkpt>
      <trkpt lat="46.54052" lon="0.34387">
        <ele>103</ele>
        <time>2021-09-12T11:58:14Z</time>
      </trkpt>
      <trkpt lat="46.54046" lon="0.34389">
        <ele>102.6</ele>
        <time>2021-09-12T11:58:15Z</time>
      </trkpt>
      <trkpt lat="46.5403" lon="0.34386">
        <ele>102.4</ele>
        <time>2021-09-12T11:58:18Z</time>
      </trkpt>
      <trkpt lat="46.5402" lon="0.34387">
        <ele>102</ele>
        <time>2021-09-12T11:58:20Z</time>
      </trkpt>
      <trkpt lat="46.54014" lon="0.3439">
        <ele>101</ele>
        <time>2021-09-12T11:58:21Z</time>
      </trkpt>
      <trkpt lat="46.54007" lon="0.34392">
        <ele>100.4</ele>
        <time>2021-09-12T11:58:22Z</time>
      </trkpt>
      <trkpt lat="46.53999" lon="0.34396">
        <ele>100</ele>
        <time>2021-09-12T11:58:23Z</time>
      </trkpt>
      <trkpt lat="46.53983" lon="0.34404">
        <ele>98.2</ele>
        <time>2021-09-12T11:58:25Z</time>
      </trkpt>
      <trkpt lat="46.53975" lon="0.34409">
        <ele>97.6</ele>
        <time>2021-09-12T11:58:26Z</time>
      </trkpt>
      <trkpt lat="46.53967" lon="0.34415">
        <ele>97.2</ele>
        <time>2021-09-12T11:58:27Z</time>
      </trkpt>
      <trkpt lat="46.53955" lon="0.34428">
        <ele>95.8</ele>
        <time>2021-09-12T11:58:29Z</time>
      </trkpt>
      <trkpt lat="46.53952" lon="0.34434">
        <ele>94.8</ele>
        <time>2021-09-12T11:58:30Z</time>
      </trkpt>
      <trkpt lat="46.53948" lon="0.34441">
        <ele>93.8</ele>
        <time>2021-09-12T11:58:31Z</time>
      </trkpt>
      <trkpt lat="46.53944" lon="0.34448">
        <ele>93.4</ele>
        <time>2021-09-12T11:58:32Z</time>
      </trkpt>
      <trkpt lat="46.53941" lon="0.34455">
        <ele>92.6</ele>
        <time>2021-09-12T11:58:33Z</time>
      </trkpt>
      <trkpt lat="46.53936" lon="0.34463">
        <ele>92</ele>
        <time>2021-09-12T11:58:34Z</time>
      </trkpt>
      <trkpt lat="46.5393" lon="0.34469">
        <ele>91.6</ele>
        <time>2021-09-12T11:58:35Z</time>
      </trkpt>
      <trkpt lat="46.53918" lon="0.34478">
        <ele>90.6</ele>
        <time>2021-09-12T11:58:37Z</time>
      </trkpt>
      <trkpt lat="46.53912" lon="0.34481">
        <ele>90.4</ele>
        <time>2021-09-12T11:58:38Z</time>
      </trkpt>
      <trkpt lat="46.53873" lon="0.34493">
        <ele>90.4</ele>
        <time>2021-09-12T11:58:44Z</time>
      </trkpt>
      <trkpt lat="46.53852" lon="0.34494">
        <ele>91</ele>
        <time>2021-09-12T11:58:48Z</time>
      </trkpt>
      <trkpt lat="46.53841" lon="0.34492">
        <ele>91.4</ele>
        <time>2021-09-12T11:58:50Z</time>
      </trkpt>
      <trkpt lat="46.5381" lon="0.3448">
        <ele>91</ele>
        <time>2021-09-12T11:58:56Z</time>
      </trkpt>
      <trkpt lat="46.53781" lon="0.34474">
        <ele>90.8</ele>
        <time>2021-09-12T11:59:02Z</time>
      </trkpt>
      <trkpt lat="46.53746" lon="0.34462">
        <ele>90.8</ele>
        <time>2021-09-12T11:59:09Z</time>
      </trkpt>
      <trkpt lat="46.53704" lon="0.34444">
        <ele>90.4</ele>
        <time>2021-09-12T11:59:17Z</time>
      </trkpt>
      <trkpt lat="46.53669" lon="0.34426">
        <ele>89.8</ele>
        <time>2021-09-12T11:59:23Z</time>
      </trkpt>
      <trkpt lat="46.53634" lon="0.34412">
        <ele>89.6</ele>
        <time>2021-09-12T11:59:29Z</time>
      </trkpt>
      <trkpt lat="46.53622" lon="0.34409">
        <ele>89</ele>
        <time>2021-09-12T11:59:31Z</time>
      </trkpt>
      <trkpt lat="46.53595" lon="0.34408">
        <ele>88.4</ele>
        <time>2021-09-12T11:59:36Z</time>
      </trkpt>
      <trkpt lat="46.5359" lon="0.34408">
        <ele>88.4</ele>
        <time>2021-09-12T11:59:37Z</time>
      </trkpt>
      <trkpt lat="46.53579" lon="0.34406">
        <ele>88.4</ele>
        <time>2021-09-12T11:59:39Z</time>
      </trkpt>
      <trkpt lat="46.53569" lon="0.34401">
        <ele>88.2</ele>
        <time>2021-09-12T11:59:41Z</time>
      </trkpt>
      <trkpt lat="46.53564" lon="0.34398">
        <ele>88.2</ele>
        <time>2021-09-12T11:59:42Z</time>
      </trkpt>
      <trkpt lat="46.53535" lon="0.34373">
        <ele>88.8</ele>
        <time>2021-09-12T11:59:49Z</time>
      </trkpt>
      <trkpt lat="46.5352" lon="0.34365">
        <ele>89.6</ele>
        <time>2021-09-12T11:59:53Z</time>
      </trkpt>
      <trkpt lat="46.53514" lon="0.34363">
        <ele>89.8</ele>
        <time>2021-09-12T11:59:55Z</time>
      </trkpt>
      <trkpt lat="46.53498" lon="0.34358">
        <ele>90.4</ele>
        <time>2021-09-12T12:00:00Z</time>
      </trkpt>
      <trkpt lat="46.53492" lon="0.34357">
        <ele>90.6</ele>
        <time>2021-09-12T12:00:02Z</time>
      </trkpt>
      <trkpt lat="46.53486" lon="0.34354">
        <ele>90.8</ele>
        <time>2021-09-12T12:00:04Z</time>
      </trkpt>
      <trkpt lat="46.53456" lon="0.34342">
        <ele>91.4</ele>
        <time>2021-09-12T12:00:13Z</time>
      </trkpt>
      <trkpt lat="46.53433" lon="0.3434">
        <ele>91.6</ele>
        <time>2021-09-12T12:00:19Z</time>
      </trkpt>
      <trkpt lat="46.53429" lon="0.3434">
        <ele>91.8</ele>
        <time>2021-09-12T12:00:20Z</time>
      </trkpt>
      <trkpt lat="46.534" lon="0.34339">
        <ele>92.2</ele>
        <time>2021-09-12T12:00:27Z</time>
      </trkpt>
      <trkpt lat="46.53387" lon="0.34334">
        <ele>91.8</ele>
        <time>2021-09-12T12:00:30Z</time>
      </trkpt>
      <trkpt lat="46.53378" lon="0.34336">
        <ele>91.4</ele>
        <time>2021-09-12T12:00:32Z</time>
      </trkpt>
      <trkpt lat="46.53372" lon="0.34343">
        <ele>91.2</ele>
        <time>2021-09-12T12:00:34Z</time>
      </trkpt>
      <trkpt lat="46.53363" lon="0.34354">
        <ele>91</ele>
        <time>2021-09-12T12:00:37Z</time>
      </trkpt>
      <trkpt lat="46.53349" lon="0.34367">
        <ele>91.2</ele>
        <time>2021-09-12T12:00:42Z</time>
      </trkpt>
      <trkpt lat="46.53345" lon="0.34369">
        <ele>91.2</ele>
        <time>2021-09-12T12:00:43Z</time>
      </trkpt>
      <trkpt lat="46.53326" lon="0.34375">
        <ele>91.4</ele>
        <time>2021-09-12T12:00:49Z</time>
      </trkpt>
      <trkpt lat="46.53309" lon="0.3438">
        <ele>92.2</ele>
        <time>2021-09-12T12:00:55Z</time>
      </trkpt>
      <trkpt lat="46.53294" lon="0.34382">
        <ele>92.6</ele>
        <time>2021-09-12T12:01:00Z</time>
      </trkpt>
      <trkpt lat="46.53291" lon="0.34383">
        <ele>92.8</ele>
        <time>2021-09-12T12:01:01Z</time>
      </trkpt>
      <trkpt lat="46.53279" lon="0.34384">
        <ele>93</ele>
        <time>2021-09-12T12:01:05Z</time>
      </trkpt>
      <trkpt lat="46.53257" lon="0.34387">
        <ele>93.8</ele>
        <time>2021-09-12T12:01:12Z</time>
      </trkpt>
      <trkpt lat="46.53236" lon="0.34386">
        <ele>94.2</ele>
        <time>2021-09-12T12:01:19Z</time>
      </trkpt>
      <trkpt lat="46.53219" lon="0.34378">
        <ele>94.8</ele>
        <time>2021-09-12T12:01:26Z</time>
      </trkpt>
      <trkpt lat="46.53216" lon="0.34376">
        <ele>95</ele>
        <time>2021-09-12T12:01:27Z</time>
      </trkpt>
      <trkpt lat="46.53198" lon="0.3437">
        <ele>95.4</ele>
        <time>2021-09-12T12:01:33Z</time>
      </trkpt>
      <trkpt lat="46.53176" lon="0.34357">
        <ele>95.6</ele>
        <time>2021-09-12T12:01:39Z</time>
      </trkpt>
      <trkpt lat="46.53144" lon="0.34341">
        <ele>95.6</ele>
        <time>2021-09-12T12:01:47Z</time>
      </trkpt>
      <trkpt lat="46.53116" lon="0.34335">
        <ele>95.8</ele>
        <time>2021-09-12T12:01:54Z</time>
      </trkpt>
      <trkpt lat="46.53091" lon="0.34342">
        <ele>95.8</ele>
        <time>2021-09-12T12:02:01Z</time>
      </trkpt>
      <trkpt lat="46.53081" lon="0.34344">
        <ele>96</ele>
        <time>2021-09-12T12:02:04Z</time>
      </trkpt>
      <trkpt lat="46.53064" lon="0.34348">
        <ele>96.2</ele>
        <time>2021-09-12T12:02:08Z</time>
      </trkpt>
      <trkpt lat="46.53055" lon="0.34346">
        <ele>96.4</ele>
        <time>2021-09-12T12:02:10Z</time>
      </trkpt>
      <trkpt lat="46.5304" lon="0.34342">
        <ele>96.4</ele>
        <time>2021-09-12T12:02:13Z</time>
      </trkpt>
      <trkpt lat="46.53026" lon="0.34338">
        <ele>96</ele>
        <time>2021-09-12T12:02:16Z</time>
      </trkpt>
      <trkpt lat="46.53012" lon="0.34337">
        <ele>95.6</ele>
        <time>2021-09-12T12:02:19Z</time>
      </trkpt>
      <trkpt lat="46.53002" lon="0.34336">
        <ele>94.8</ele>
        <time>2021-09-12T12:02:21Z</time>
      </trkpt>
      <trkpt lat="46.52997" lon="0.34336">
        <ele>94.4</ele>
        <time>2021-09-12T12:02:22Z</time>
      </trkpt>
      <trkpt lat="46.52991" lon="0.34339">
        <ele>94</ele>
        <time>2021-09-12T12:02:24Z</time>
      </trkpt>
      <trkpt lat="46.52989" lon="0.34342">
        <ele>93.8</ele>
        <time>2021-09-12T12:02:25Z</time>
      </trkpt>
      <trkpt lat="46.52983" lon="0.3435">
        <ele>93.4</ele>
        <time>2021-09-12T12:02:29Z</time>
      </trkpt>
      <trkpt lat="46.52973" lon="0.34357">
        <ele>93.6</ele>
        <time>2021-09-12T12:02:35Z</time>
      </trkpt>
      <trkpt lat="46.52966" lon="0.34366">
        <ele>93.8</ele>
        <time>2021-09-12T12:02:40Z</time>
      </trkpt>
      <trkpt lat="46.52963" lon="0.34366">
        <ele>94</ele>
        <time>2021-09-12T12:02:41Z</time>
      </trkpt>
      <trkpt lat="46.52963" lon="0.34364">
        <ele>94</ele>
        <time>2021-09-12T12:02:43Z</time>
      </trkpt>
      <trkpt lat="46.52973" lon="0.34358">
        <ele>94.4</ele>
        <time>2021-09-12T12:02:47Z</time>
      </trkpt>
      <trkpt lat="46.52987" lon="0.34356">
        <ele>94.4</ele>
        <time>2021-09-12T12:02:51Z</time>
      </trkpt>
      <trkpt lat="46.52992" lon="0.34364">
        <ele>94.4</ele>
        <time>2021-09-12T12:02:53Z</time>
      </trkpt>
      <trkpt lat="46.52993" lon="0.34369">
        <ele>94.2</ele>
        <time>2021-09-12T12:02:54Z</time>
      </trkpt>
      <trkpt lat="46.52997" lon="0.34407">
        <ele>94.8</ele>
        <time>2021-09-12T12:03:01Z</time>
      </trkpt>
      <trkpt lat="46.52995" lon="0.34422">
        <ele>95.2</ele>
        <time>2021-09-12T12:03:04Z</time>
      </trkpt>
      <trkpt lat="46.52991" lon="0.3444">
        <ele>95.6</ele>
        <time>2021-09-12T12:03:08Z</time>
      </trkpt>
      <trkpt lat="46.52989" lon="0.34449">
        <ele>95.8</ele>
        <time>2021-09-12T12:03:10Z</time>
      </trkpt>
      <trkpt lat="46.52979" lon="0.34481">
        <ele>97</ele>
        <time>2021-09-12T12:03:17Z</time>
      </trkpt>
      <trkpt lat="46.52976" lon="0.3449">
        <ele>97.4</ele>
        <time>2021-09-12T12:03:19Z</time>
      </trkpt>
      <trkpt lat="46.52968" lon="0.34515">
        <ele>98.2</ele>
        <time>2021-09-12T12:03:25Z</time>
      </trkpt>
      <trkpt lat="46.52964" lon="0.34527">
        <ele>98.6</ele>
        <time>2021-09-12T12:03:28Z</time>
      </trkpt>
      <trkpt lat="46.52958" lon="0.34545">
        <ele>99.2</ele>
        <time>2021-09-12T12:03:33Z</time>
      </trkpt>
      <trkpt lat="46.52952" lon="0.34563">
        <ele>99.8</ele>
        <time>2021-09-12T12:03:38Z</time>
      </trkpt>
      <trkpt lat="46.52949" lon="0.34573">
        <ele>100.2</ele>
        <time>2021-09-12T12:03:41Z</time>
      </trkpt>
      <trkpt lat="46.52944" lon="0.3459">
        <ele>101.2</ele>
        <time>2021-09-12T12:03:47Z</time>
      </trkpt>
      <trkpt lat="46.5294" lon="0.3461">
        <ele>102.2</ele>
        <time>2021-09-12T12:03:54Z</time>
      </trkpt>
      <trkpt lat="46.5294" lon="0.34615">
        <ele>102.4</ele>
        <time>2021-09-12T12:03:56Z</time>
      </trkpt>
      <trkpt lat="46.52939" lon="0.34631">
        <ele>103.4</ele>
        <time>2021-09-12T12:04:03Z</time>
      </trkpt>
      <trkpt lat="46.52936" lon="0.34648">
        <ele>104.4</ele>
        <time>2021-09-12T12:04:10Z</time>
      </trkpt>
      <trkpt lat="46.52935" lon="0.3465">
        <ele>104.4</ele>
        <time>2021-09-12T12:04:11Z</time>
      </trkpt>
      <trkpt lat="46.52931" lon="0.34668">
        <ele>105.6</ele>
        <time>2021-09-12T12:04:18Z</time>
      </trkpt>
      <trkpt lat="46.52927" lon="0.34682">
        <ele>106.6</ele>
        <time>2021-09-12T12:04:25Z</time>
      </trkpt>
      <trkpt lat="46.52926" lon="0.34683">
        <ele>106.8</ele>
        <time>2021-09-12T12:04:26Z</time>
      </trkpt>
      <trkpt lat="46.52925" lon="0.3469">
        <ele>107.8</ele>
        <time>2021-09-12T12:04:30Z</time>
      </trkpt>
      <trkpt lat="46.52922" lon="0.347">
        <ele>108.8</ele>
        <time>2021-09-12T12:04:35Z</time>
      </trkpt>
      <trkpt lat="46.52918" lon="0.34712">
        <ele>110</ele>
        <time>2021-09-12T12:04:42Z</time>
      </trkpt>
      <trkpt lat="46.52917" lon="0.34715">
        <ele>110.4</ele>
        <time>2021-09-12T12:04:44Z</time>
      </trkpt>
      <trkpt lat="46.52915" lon="0.34722">
        <ele>111</ele>
        <time>2021-09-12T12:04:47Z</time>
      </trkpt>
      <trkpt lat="46.52914" lon="0.34729">
        <ele>111.6</ele>
        <time>2021-09-12T12:04:51Z</time>
      </trkpt>
      <trkpt lat="46.52912" lon="0.34736">
        <ele>112</ele>
        <time>2021-09-12T12:04:55Z</time>
      </trkpt>
      <trkpt lat="46.52911" lon="0.34741">
        <ele>112.6</ele>
        <time>2021-09-12T12:04:58Z</time>
      </trkpt>
      <trkpt lat="46.5291" lon="0.34745">
        <ele>113.4</ele>
        <time>2021-09-12T12:05:01Z</time>
      </trkpt>
      <trkpt lat="46.52907" lon="0.34755">
        <ele>113.8</ele>
        <time>2021-09-12T12:05:07Z</time>
      </trkpt>
      <trkpt lat="46.52905" lon="0.34761">
        <ele>114.6</ele>
        <time>2021-09-12T12:05:11Z</time>
      </trkpt>
      <trkpt lat="46.52904" lon="0.34767">
        <ele>115.2</ele>
        <time>2021-09-12T12:05:14Z</time>
      </trkpt>
      <trkpt lat="46.52903" lon="0.34771">
        <ele>115.6</ele>
        <time>2021-09-12T12:05:16Z</time>
      </trkpt>
      <trkpt lat="46.52902" lon="0.34778">
        <ele>116.2</ele>
        <time>2021-09-12T12:05:20Z</time>
      </trkpt>
      <trkpt lat="46.529" lon="0.34785">
        <ele>116.8</ele>
        <time>2021-09-12T12:05:24Z</time>
      </trkpt>
      <trkpt lat="46.52897" lon="0.34797">
        <ele>118</ele>
        <time>2021-09-12T12:05:32Z</time>
      </trkpt>
      <trkpt lat="46.52894" lon="0.34813">
        <ele>119.2</ele>
        <time>2021-09-12T12:05:39Z</time>
      </trkpt>
      <trkpt lat="46.52893" lon="0.34817">
        <ele>119.4</ele>
        <time>2021-09-12T12:05:41Z</time>
      </trkpt>
      <trkpt lat="46.52889" lon="0.34833">
        <ele>120.2</ele>
        <time>2021-09-12T12:05:48Z</time>
      </trkpt>
      <trkpt lat="46.52889" lon="0.34835">
        <ele>120.4</ele>
        <time>2021-09-12T12:05:49Z</time>
      </trkpt>
      <trkpt lat="46.52886" lon="0.34844">
        <ele>121.4</ele>
        <time>2021-09-12T12:05:53Z</time>
      </trkpt>
      <trkpt lat="46.52885" lon="0.34852">
        <ele>121.8</ele>
        <time>2021-09-12T12:05:57Z</time>
      </trkpt>
      <trkpt lat="46.52883" lon="0.34862">
        <ele>122.4</ele>
        <time>2021-09-12T12:06:02Z</time>
      </trkpt>
      <trkpt lat="46.52883" lon="0.34865">
        <ele>122.6</ele>
        <time>2021-09-12T12:06:04Z</time>
      </trkpt>
      <trkpt lat="46.5288" lon="0.34879">
        <ele>123.4</ele>
        <time>2021-09-12T12:06:12Z</time>
      </trkpt>
      <trkpt lat="46.52874" lon="0.34893">
        <ele>124.2</ele>
        <time>2021-09-12T12:06:20Z</time>
      </trkpt>
      <trkpt lat="46.52873" lon="0.34896">
        <ele>124.4</ele>
        <time>2021-09-12T12:06:22Z</time>
      </trkpt>
      <trkpt lat="46.52868" lon="0.34905">
        <ele>125</ele>
        <time>2021-09-12T12:06:27Z</time>
      </trkpt>
      <trkpt lat="46.52866" lon="0.34913">
        <ele>125.4</ele>
        <time>2021-09-12T12:06:31Z</time>
      </trkpt>
      <trkpt lat="46.52863" lon="0.3492">
        <ele>125.6</ele>
        <time>2021-09-12T12:06:34Z</time>
      </trkpt>
      <trkpt lat="46.52855" lon="0.34938">
        <ele>126.4</ele>
        <time>2021-09-12T12:06:42Z</time>
      </trkpt>
      <trkpt lat="46.52846" lon="0.34958">
        <ele>127.2</ele>
        <time>2021-09-12T12:06:49Z</time>
      </trkpt>
      <trkpt lat="46.5284" lon="0.34973">
        <ele>127.4</ele>
        <time>2021-09-12T12:06:53Z</time>
      </trkpt>
      <trkpt lat="46.52838" lon="0.34979">
        <ele>127.8</ele>
        <time>2021-09-12T12:06:55Z</time>
      </trkpt>
      <trkpt lat="46.52837" lon="0.34982">
        <ele>127.8</ele>
        <time>2021-09-12T12:06:56Z</time>
      </trkpt>
      <trkpt lat="46.52825" lon="0.35014">
        <ele>128</ele>
        <time>2021-09-12T12:07:04Z</time>
      </trkpt>
      <trkpt lat="46.5281" lon="0.35053">
        <ele>127.6</ele>
        <time>2021-09-12T12:07:12Z</time>
      </trkpt>
      <trkpt lat="46.52794" lon="0.35098">
        <ele>127.2</ele>
        <time>2021-09-12T12:07:21Z</time>
      </trkpt>
      <trkpt lat="46.52787" lon="0.35123">
        <ele>126.4</ele>
        <time>2021-09-12T12:07:26Z</time>
      </trkpt>
      <trkpt lat="46.52785" lon="0.35133">
        <ele>126.4</ele>
        <time>2021-09-12T12:07:28Z</time>
      </trkpt>
      <trkpt lat="46.52779" lon="0.35155">
        <ele>126</ele>
        <time>2021-09-12T12:07:34Z</time>
      </trkpt>
      <trkpt lat="46.52772" lon="0.35178">
        <ele>126.2</ele>
        <time>2021-09-12T12:07:40Z</time>
      </trkpt>
      <trkpt lat="46.52771" lon="0.35183">
        <ele>126.2</ele>
        <time>2021-09-12T12:07:41Z</time>
      </trkpt>
      <trkpt lat="46.52769" lon="0.35188">
        <ele>126</ele>
        <time>2021-09-12T12:07:42Z</time>
      </trkpt>
      <trkpt lat="46.52763" lon="0.35205">
        <ele>125.8</ele>
        <time>2021-09-12T12:07:46Z</time>
      </trkpt>
      <trkpt lat="46.5276" lon="0.35217">
        <ele>125.8</ele>
        <time>2021-09-12T12:07:49Z</time>
      </trkpt>
      <trkpt lat="46.52759" lon="0.35221">
        <ele>126</ele>
        <time>2021-09-12T12:07:50Z</time>
      </trkpt>
      <trkpt lat="46.52757" lon="0.35225">
        <ele>126</ele>
        <time>2021-09-12T12:07:51Z</time>
      </trkpt>
      <trkpt lat="46.52756" lon="0.35229">
        <ele>126</ele>
        <time>2021-09-12T12:07:52Z</time>
      </trkpt>
      <trkpt lat="46.52754" lon="0.35234">
        <ele>126</ele>
        <time>2021-09-12T12:07:53Z</time>
      </trkpt>
      <trkpt lat="46.52749" lon="0.35245">
        <ele>125.8</ele>
        <time>2021-09-12T12:07:55Z</time>
      </trkpt>
      <trkpt lat="46.52742" lon="0.35262">
        <ele>125.8</ele>
        <time>2021-09-12T12:07:58Z</time>
      </trkpt>
      <trkpt lat="46.52723" lon="0.35306">
        <ele>126</ele>
        <time>2021-09-12T12:08:04Z</time>
      </trkpt>
      <trkpt lat="46.52711" lon="0.35332">
        <ele>126</ele>
        <time>2021-09-12T12:08:09Z</time>
      </trkpt>
      <trkpt lat="46.5269" lon="0.35344">
        <ele>126.6</ele>
        <time>2021-09-12T12:08:14Z</time>
      </trkpt>
      <trkpt lat="46.52672" lon="0.35352">
        <ele>126.8</ele>
        <time>2021-09-12T12:08:18Z</time>
      </trkpt>
      <trkpt lat="46.52664" lon="0.35354">
        <ele>127</ele>
        <time>2021-09-12T12:08:20Z</time>
      </trkpt>
      <trkpt lat="46.52656" lon="0.35356">
        <ele>127.2</ele>
        <time>2021-09-12T12:08:22Z</time>
      </trkpt>
      <trkpt lat="46.5263" lon="0.35362">
        <ele>127.2</ele>
        <time>2021-09-12T12:08:28Z</time>
      </trkpt>
      <trkpt lat="46.52625" lon="0.35363">
        <ele>127.2</ele>
        <time>2021-09-12T12:08:29Z</time>
      </trkpt>
      <trkpt lat="46.52595" lon="0.35369">
        <ele>127</ele>
        <time>2021-09-12T12:08:36Z</time>
      </trkpt>
      <trkpt lat="46.52565" lon="0.35372">
        <ele>127</ele>
        <time>2021-09-12T12:08:43Z</time>
      </trkpt>
      <trkpt lat="46.5256" lon="0.35373">
        <ele>127</ele>
        <time>2021-09-12T12:08:44Z</time>
      </trkpt>
      <trkpt lat="46.52541" lon="0.35376">
        <ele>127.4</ele>
        <time>2021-09-12T12:08:49Z</time>
      </trkpt>
      <trkpt lat="46.52537" lon="0.35376">
        <ele>127.6</ele>
        <time>2021-09-12T12:08:50Z</time>
      </trkpt>
      <trkpt lat="46.52509" lon="0.35379">
        <ele>128</ele>
        <time>2021-09-12T12:08:57Z</time>
      </trkpt>
      <trkpt lat="46.52473" lon="0.35386">
        <ele>128.4</ele>
        <time>2021-09-12T12:09:04Z</time>
      </trkpt>
      <trkpt lat="46.52436" lon="0.35399">
        <ele>128.4</ele>
        <time>2021-09-12T12:09:12Z</time>
      </trkpt>
      <trkpt lat="46.52431" lon="0.354">
        <ele>128.4</ele>
        <time>2021-09-12T12:09:13Z</time>
      </trkpt>
      <trkpt lat="46.52399" lon="0.35412">
        <ele>128.2</ele>
        <time>2021-09-12T12:09:20Z</time>
      </trkpt>
      <trkpt lat="46.52351" lon="0.35429">
        <ele>128.6</ele>
        <time>2021-09-12T12:09:31Z</time>
      </trkpt>
      <trkpt lat="46.52325" lon="0.35436">
        <ele>129.4</ele>
        <time>2021-09-12T12:09:38Z</time>
      </trkpt>
      <trkpt lat="46.52321" lon="0.35437">
        <ele>129.6</ele>
        <time>2021-09-12T12:09:39Z</time>
      </trkpt>
      <trkpt lat="46.52304" lon="0.35443">
        <ele>130.2</ele>
        <time>2021-09-12T12:09:45Z</time>
      </trkpt>
      <trkpt lat="46.52298" lon="0.35444">
        <ele>130.6</ele>
        <time>2021-09-12T12:09:47Z</time>
      </trkpt>
      <trkpt lat="46.52283" lon="0.35449">
        <ele>131</ele>
        <time>2021-09-12T12:09:52Z</time>
      </trkpt>
      <trkpt lat="46.52258" lon="0.35457">
        <ele>131.6</ele>
        <time>2021-09-12T12:10:00Z</time>
      </trkpt>
      <trkpt lat="46.52255" lon="0.35458">
        <ele>131.8</ele>
        <time>2021-09-12T12:10:01Z</time>
      </trkpt>
      <trkpt lat="46.52234" lon="0.35469">
        <ele>132.2</ele>
        <time>2021-09-12T12:10:07Z</time>
      </trkpt>
      <trkpt lat="46.52214" lon="0.35483">
        <ele>132</ele>
        <time>2021-09-12T12:10:13Z</time>
      </trkpt>
      <trkpt lat="46.52193" lon="0.35493">
        <ele>132.4</ele>
        <time>2021-09-12T12:10:19Z</time>
      </trkpt>
      <trkpt lat="46.52171" lon="0.35502">
        <ele>132.6</ele>
        <time>2021-09-12T12:10:25Z</time>
      </trkpt>
      <trkpt lat="46.5216" lon="0.35507">
        <ele>133</ele>
        <time>2021-09-12T12:10:28Z</time>
      </trkpt>
      <trkpt lat="46.52123" lon="0.35522">
        <ele>133.2</ele>
        <time>2021-09-12T12:10:38Z</time>
      </trkpt>
      <trkpt lat="46.52103" lon="0.35531">
        <ele>133.4</ele>
        <time>2021-09-12T12:10:44Z</time>
      </trkpt>
      <trkpt lat="46.52086" lon="0.35538">
        <ele>133.6</ele>
        <time>2021-09-12T12:10:49Z</time>
      </trkpt>
      <trkpt lat="46.52079" lon="0.35541">
        <ele>133.8</ele>
        <time>2021-09-12T12:10:51Z</time>
      </trkpt>
      <trkpt lat="46.52049" lon="0.35554">
        <ele>134.4</ele>
        <time>2021-09-12T12:10:59Z</time>
      </trkpt>
      <trkpt lat="46.52037" lon="0.35559">
        <ele>134.8</ele>
        <time>2021-09-12T12:11:02Z</time>
      </trkpt>
      <trkpt lat="46.52014" lon="0.35569">
        <ele>135</ele>
        <time>2021-09-12T12:11:08Z</time>
      </trkpt>
      <trkpt lat="46.51981" lon="0.35583">
        <ele>135.6</ele>
        <time>2021-09-12T12:11:17Z</time>
      </trkpt>
      <trkpt lat="46.51978" lon="0.35584">
        <ele>135.6</ele>
        <time>2021-09-12T12:11:18Z</time>
      </trkpt>
      <trkpt lat="46.51971" lon="0.35587">
        <ele>135.8</ele>
        <time>2021-09-12T12:11:20Z</time>
      </trkpt>
      <trkpt lat="46.51954" lon="0.35593">
        <ele>136</ele>
        <time>2021-09-12T12:11:24Z</time>
      </trkpt>
      <trkpt lat="46.5192" lon="0.35607">
        <ele>136</ele>
        <time>2021-09-12T12:11:32Z</time>
      </trkpt>
      <trkpt lat="46.5188" lon="0.35621">
        <ele>136.2</ele>
        <time>2021-09-12T12:11:41Z</time>
      </trkpt>
      <trkpt lat="46.5185" lon="0.35626">
        <ele>136</ele>
        <time>2021-09-12T12:11:48Z</time>
      </trkpt>
      <trkpt lat="46.51845" lon="0.35625">
        <ele>136</ele>
        <time>2021-09-12T12:11:49Z</time>
      </trkpt>
      <trkpt lat="46.51837" lon="0.3562">
        <ele>136</ele>
        <time>2021-09-12T12:11:51Z</time>
      </trkpt>
      <trkpt lat="46.51833" lon="0.35615">
        <ele>136</ele>
        <time>2021-09-12T12:11:52Z</time>
      </trkpt>
      <trkpt lat="46.5183" lon="0.3561">
        <ele>136</ele>
        <time>2021-09-12T12:11:53Z</time>
      </trkpt>
      <trkpt lat="46.51823" lon="0.35604">
        <ele>136</ele>
        <time>2021-09-12T12:11:55Z</time>
      </trkpt>
      <trkpt lat="46.51819" lon="0.35603">
        <ele>136</ele>
        <time>2021-09-12T12:11:56Z</time>
      </trkpt>
      <trkpt lat="46.51815" lon="0.35602">
        <ele>136</ele>
        <time>2021-09-12T12:11:57Z</time>
      </trkpt>
      <trkpt lat="46.51807" lon="0.35605">
        <ele>136</ele>
        <time>2021-09-12T12:11:59Z</time>
      </trkpt>
      <trkpt lat="46.51796" lon="0.35626">
        <ele>136.2</ele>
        <time>2021-09-12T12:12:03Z</time>
      </trkpt>
      <trkpt lat="46.5179" lon="0.35638">
        <ele>136.2</ele>
        <time>2021-09-12T12:12:05Z</time>
      </trkpt>
      <trkpt lat="46.51779" lon="0.35652">
        <ele>136.6</ele>
        <time>2021-09-12T12:12:08Z</time>
      </trkpt>
      <trkpt lat="46.51752" lon="0.35668">
        <ele>136.6</ele>
        <time>2021-09-12T12:12:14Z</time>
      </trkpt>
      <trkpt lat="46.51713" lon="0.35689">
        <ele>136.6</ele>
        <time>2021-09-12T12:12:22Z</time>
      </trkpt>
      <trkpt lat="46.51708" lon="0.35691">
        <ele>136.6</ele>
        <time>2021-09-12T12:12:23Z</time>
      </trkpt>
      <trkpt lat="46.51703" lon="0.35694">
        <ele>136.8</ele>
        <time>2021-09-12T12:12:24Z</time>
      </trkpt>
      <trkpt lat="46.51659" lon="0.35711">
        <ele>136.4</ele>
        <time>2021-09-12T12:12:33Z</time>
      </trkpt>
      <trkpt lat="46.51621" lon="0.35725">
        <ele>136.4</ele>
        <time>2021-09-12T12:12:41Z</time>
      </trkpt>
      <trkpt lat="46.516" lon="0.35734">
        <ele>136.6</ele>
        <time>2021-09-12T12:12:46Z</time>
      </trkpt>
      <trkpt lat="46.51596" lon="0.35737">
        <ele>136.6</ele>
        <time>2021-09-12T12:12:47Z</time>
      </trkpt>
      <trkpt lat="46.51594" lon="0.35741">
        <ele>136.6</ele>
        <time>2021-09-12T12:12:48Z</time>
      </trkpt>
      <trkpt lat="46.51587" lon="0.35748">
        <ele>136.8</ele>
        <time>2021-09-12T12:12:50Z</time>
      </trkpt>
      <trkpt lat="46.51582" lon="0.3575">
        <ele>136.8</ele>
        <time>2021-09-12T12:12:51Z</time>
      </trkpt>
      <trkpt lat="46.51543" lon="0.35766">
        <ele>137</ele>
        <time>2021-09-12T12:12:59Z</time>
      </trkpt>
      <trkpt lat="46.51507" lon="0.35781">
        <ele>137.2</ele>
        <time>2021-09-12T12:13:06Z</time>
      </trkpt>
      <trkpt lat="46.51481" lon="0.3579">
        <ele>137.2</ele>
        <time>2021-09-12T12:13:12Z</time>
      </trkpt>
      <trkpt lat="46.51454" lon="0.35801">
        <ele>137.6</ele>
        <time>2021-09-12T12:13:18Z</time>
      </trkpt>
      <trkpt lat="46.5145" lon="0.35802">
        <ele>137.6</ele>
        <time>2021-09-12T12:13:19Z</time>
      </trkpt>
      <trkpt lat="46.51422" lon="0.35814">
        <ele>137.6</ele>
        <time>2021-09-12T12:13:25Z</time>
      </trkpt>
      <trkpt lat="46.51391" lon="0.35824">
        <ele>137</ele>
        <time>2021-09-12T12:13:31Z</time>
      </trkpt>
      <trkpt lat="46.51358" lon="0.35837">
        <ele>136.6</ele>
        <time>2021-09-12T12:13:37Z</time>
      </trkpt>
      <trkpt lat="46.51308" lon="0.3586">
        <ele>136</ele>
        <time>2021-09-12T12:13:46Z</time>
      </trkpt>
      <trkpt lat="46.51286" lon="0.35867">
        <ele>135.8</ele>
        <time>2021-09-12T12:13:50Z</time>
      </trkpt>
      <trkpt lat="46.51269" lon="0.35875">
        <ele>135.6</ele>
        <time>2021-09-12T12:13:53Z</time>
      </trkpt>
      <trkpt lat="46.51233" lon="0.35889">
        <ele>136.2</ele>
        <time>2021-09-12T12:14:00Z</time>
      </trkpt>
      <trkpt lat="46.51198" lon="0.35904">
        <ele>136.4</ele>
        <time>2021-09-12T12:14:08Z</time>
      </trkpt>
      <trkpt lat="46.5119" lon="0.35908">
        <ele>136.8</ele>
        <time>2021-09-12T12:14:10Z</time>
      </trkpt>
      <trkpt lat="46.51163" lon="0.35919">
        <ele>137.6</ele>
        <time>2021-09-12T12:14:17Z</time>
      </trkpt>
      <trkpt lat="46.51155" lon="0.35922">
        <ele>137.8</ele>
        <time>2021-09-12T12:14:19Z</time>
      </trkpt>
      <trkpt lat="46.51126" lon="0.35929">
        <ele>138.2</ele>
        <time>2021-09-12T12:14:26Z</time>
      </trkpt>
      <trkpt lat="46.51102" lon="0.35922">
        <ele>138.4</ele>
        <time>2021-09-12T12:14:32Z</time>
      </trkpt>
      <trkpt lat="46.51098" lon="0.3592">
        <ele>138.4</ele>
        <time>2021-09-12T12:14:33Z</time>
      </trkpt>
      <trkpt lat="46.51077" lon="0.35914">
        <ele>138.8</ele>
        <time>2021-09-12T12:14:38Z</time>
      </trkpt>
      <trkpt lat="46.51064" lon="0.3591">
        <ele>138.8</ele>
        <time>2021-09-12T12:14:41Z</time>
      </trkpt>
      <trkpt lat="46.51053" lon="0.35903">
        <ele>138.8</ele>
        <time>2021-09-12T12:14:44Z</time>
      </trkpt>
      <trkpt lat="46.51023" lon="0.35876">
        <ele>139.2</ele>
        <time>2021-09-12T12:14:52Z</time>
      </trkpt>
      <trkpt lat="46.50993" lon="0.35852">
        <ele>139.4</ele>
        <time>2021-09-12T12:15:00Z</time>
      </trkpt>
      <trkpt lat="46.50965" lon="0.35838">
        <ele>140</ele>
        <time>2021-09-12T12:15:07Z</time>
      </trkpt>
      <trkpt lat="46.50961" lon="0.35836">
        <ele>140</ele>
        <time>2021-09-12T12:15:08Z</time>
      </trkpt>
      <trkpt lat="46.50937" lon="0.35823">
        <ele>140</ele>
        <time>2021-09-12T12:15:14Z</time>
      </trkpt>
      <trkpt lat="46.50913" lon="0.3581">
        <ele>140.6</ele>
        <time>2021-09-12T12:15:20Z</time>
      </trkpt>
      <trkpt lat="46.50904" lon="0.35805">
        <ele>140.8</ele>
        <time>2021-09-12T12:15:22Z</time>
      </trkpt>
      <trkpt lat="46.50895" lon="0.35807">
        <ele>140.8</ele>
        <time>2021-09-12T12:15:24Z</time>
      </trkpt>
      <trkpt lat="46.50887" lon="0.35811">
        <ele>140.8</ele>
        <time>2021-09-12T12:15:26Z</time>
      </trkpt>
      <trkpt lat="46.50881" lon="0.3582">
        <ele>140.8</ele>
        <time>2021-09-12T12:15:28Z</time>
      </trkpt>
      <trkpt lat="46.5087" lon="0.35852">
        <ele>140.4</ele>
        <time>2021-09-12T12:15:33Z</time>
      </trkpt>
      <trkpt lat="46.50861" lon="0.35874">
        <ele>140.2</ele>
        <time>2021-09-12T12:15:37Z</time>
      </trkpt>
      <trkpt lat="46.50855" lon="0.35882">
        <ele>140</ele>
        <time>2021-09-12T12:15:39Z</time>
      </trkpt>
      <trkpt lat="46.50847" lon="0.35904">
        <ele>139.2</ele>
        <time>2021-09-12T12:15:44Z</time>
      </trkpt>
      <trkpt lat="46.50848" lon="0.35915">
        <ele>138.8</ele>
        <time>2021-09-12T12:15:46Z</time>
      </trkpt>
      <trkpt lat="46.50851" lon="0.35932">
        <ele>138.8</ele>
        <time>2021-09-12T12:15:49Z</time>
      </trkpt>
      <trkpt lat="46.50856" lon="0.35955">
        <ele>137.8</ele>
        <time>2021-09-12T12:15:53Z</time>
      </trkpt>
      <trkpt lat="46.50856" lon="0.35961">
        <ele>137.6</ele>
        <time>2021-09-12T12:15:54Z</time>
      </trkpt>
      <trkpt lat="46.50856" lon="0.35966">
        <ele>137.6</ele>
        <time>2021-09-12T12:15:55Z</time>
      </trkpt>
      <trkpt lat="46.50854" lon="0.3597">
        <ele>137.4</ele>
        <time>2021-09-12T12:15:56Z</time>
      </trkpt>
      <trkpt lat="46.50847" lon="0.35976">
        <ele>137</ele>
        <time>2021-09-12T12:15:58Z</time>
      </trkpt>
      <trkpt lat="46.50841" lon="0.35979">
        <ele>137</ele>
        <time>2021-09-12T12:16:00Z</time>
      </trkpt>
      <trkpt lat="46.50828" lon="0.35987">
        <ele>137</ele>
        <time>2021-09-12T12:16:04Z</time>
      </trkpt>
      <trkpt lat="46.50801" lon="0.36005">
        <ele>136.8</ele>
        <time>2021-09-12T12:16:11Z</time>
      </trkpt>
      <trkpt lat="46.50785" lon="0.36013">
        <ele>136.8</ele>
        <time>2021-09-12T12:16:17Z</time>
      </trkpt>
      <trkpt lat="46.50779" lon="0.36024">
        <ele>137</ele>
        <time>2021-09-12T12:16:21Z</time>
      </trkpt>
      <trkpt lat="46.50777" lon="0.36039">
        <ele>136.4</ele>
        <time>2021-09-12T12:16:23Z</time>
      </trkpt>
      <trkpt lat="46.50778" lon="0.36048">
        <ele>135.8</ele>
        <time>2021-09-12T12:16:24Z</time>
      </trkpt>
      <trkpt lat="46.50778" lon="0.36057">
        <ele>135.4</ele>
        <time>2021-09-12T12:16:25Z</time>
      </trkpt>
      <trkpt lat="46.50779" lon="0.36065">
        <ele>134.6</ele>
        <time>2021-09-12T12:16:26Z</time>
      </trkpt>
      <trkpt lat="46.50781" lon="0.36084">
        <ele>133.6</ele>
        <time>2021-09-12T12:16:28Z</time>
      </trkpt>
      <trkpt lat="46.50781" lon="0.36093">
        <ele>133.4</ele>
        <time>2021-09-12T12:16:29Z</time>
      </trkpt>
      <trkpt lat="46.50779" lon="0.36101">
        <ele>133.2</ele>
        <time>2021-09-12T12:16:30Z</time>
      </trkpt>
      <trkpt lat="46.50773" lon="0.36113">
        <ele>133.4</ele>
        <time>2021-09-12T12:16:32Z</time>
      </trkpt>
      <trkpt lat="46.50767" lon="0.36123">
        <ele>134.2</ele>
        <time>2021-09-12T12:16:34Z</time>
      </trkpt>
      <trkpt lat="46.50764" lon="0.36127">
        <ele>134.6</ele>
        <time>2021-09-12T12:16:35Z</time>
      </trkpt>
      <trkpt lat="46.50761" lon="0.36132">
        <ele>135</ele>
        <time>2021-09-12T12:16:36Z</time>
      </trkpt>
      <trkpt lat="46.50758" lon="0.36139">
        <ele>135.2</ele>
        <time>2021-09-12T12:16:37Z</time>
      </trkpt>
      <trkpt lat="46.5075" lon="0.36179">
        <ele>135</ele>
        <time>2021-09-12T12:16:43Z</time>
      </trkpt>
      <trkpt lat="46.50743" lon="0.36224">
        <ele>134.6</ele>
        <time>2021-09-12T12:16:49Z</time>
      </trkpt>
      <trkpt lat="46.50736" lon="0.36268">
        <ele>133.6</ele>
        <time>2021-09-12T12:16:55Z</time>
      </trkpt>
      <trkpt lat="46.50733" lon="0.36291">
        <ele>133.2</ele>
        <time>2021-09-12T12:16:58Z</time>
      </trkpt>
      <trkpt lat="46.50729" lon="0.36319">
        <ele>132.6</ele>
        <time>2021-09-12T12:17:02Z</time>
      </trkpt>
      <trkpt lat="46.50727" lon="0.36342">
        <ele>132.2</ele>
        <time>2021-09-12T12:17:05Z</time>
      </trkpt>
      <trkpt lat="46.50721" lon="0.36381">
        <ele>131.2</ele>
        <time>2021-09-12T12:17:10Z</time>
      </trkpt>
      <trkpt lat="46.50717" lon="0.36405">
        <ele>130.6</ele>
        <time>2021-09-12T12:17:13Z</time>
      </trkpt>
      <trkpt lat="46.50714" lon="0.36422">
        <ele>130</ele>
        <time>2021-09-12T12:17:15Z</time>
      </trkpt>
      <trkpt lat="46.50713" lon="0.36431">
        <ele>129.8</ele>
        <time>2021-09-12T12:17:16Z</time>
      </trkpt>
      <trkpt lat="46.50708" lon="0.36477">
        <ele>129</ele>
        <time>2021-09-12T12:17:21Z</time>
      </trkpt>
      <trkpt lat="46.50706" lon="0.36487">
        <ele>128.6</ele>
        <time>2021-09-12T12:17:22Z</time>
      </trkpt>
      <trkpt lat="46.50704" lon="0.36506">
        <ele>127.8</ele>
        <time>2021-09-12T12:17:24Z</time>
      </trkpt>
      <trkpt lat="46.50697" lon="0.36553">
        <ele>126.8</ele>
        <time>2021-09-12T12:17:29Z</time>
      </trkpt>
      <trkpt lat="46.50694" lon="0.36569">
        <ele>126.6</ele>
        <time>2021-09-12T12:17:31Z</time>
      </trkpt>
      <trkpt lat="46.5069" lon="0.36582">
        <ele>126.6</ele>
        <time>2021-09-12T12:17:33Z</time>
      </trkpt>
      <trkpt lat="46.50687" lon="0.36587">
        <ele>126.6</ele>
        <time>2021-09-12T12:17:34Z</time>
      </trkpt>
      <trkpt lat="46.50685" lon="0.36592">
        <ele>126.6</ele>
        <time>2021-09-12T12:17:35Z</time>
      </trkpt>
      <trkpt lat="46.50672" lon="0.36606">
        <ele>126.8</ele>
        <time>2021-09-12T12:17:39Z</time>
      </trkpt>
      <trkpt lat="46.50654" lon="0.36626">
        <ele>127.8</ele>
        <time>2021-09-12T12:17:45Z</time>
      </trkpt>
      <trkpt lat="46.50651" lon="0.3663">
        <ele>128.2</ele>
        <time>2021-09-12T12:17:46Z</time>
      </trkpt>
      <trkpt lat="46.50649" lon="0.36634">
        <ele>128.8</ele>
        <time>2021-09-12T12:17:47Z</time>
      </trkpt>
      <trkpt lat="46.50646" lon="0.36648">
        <ele>129.6</ele>
        <time>2021-09-12T12:17:50Z</time>
      </trkpt>
      <trkpt lat="46.50645" lon="0.36662">
        <ele>130.8</ele>
        <time>2021-09-12T12:17:54Z</time>
      </trkpt>
      <trkpt lat="46.50645" lon="0.36669">
        <ele>131</ele>
        <time>2021-09-12T12:17:56Z</time>
      </trkpt>
      <trkpt lat="46.50645" lon="0.36682">
        <ele>131.8</ele>
        <time>2021-09-12T12:18:00Z</time>
      </trkpt>
      <trkpt lat="46.50643" lon="0.36691">
        <ele>132.2</ele>
        <time>2021-09-12T12:18:03Z</time>
      </trkpt>
      <trkpt lat="46.50642" lon="0.36704">
        <ele>133</ele>
        <time>2021-09-12T12:18:07Z</time>
      </trkpt>
      <trkpt lat="46.5064" lon="0.36724">
        <ele>133.8</ele>
        <time>2021-09-12T12:18:13Z</time>
      </trkpt>
      <trkpt lat="46.5064" lon="0.36728">
        <ele>134</ele>
        <time>2021-09-12T12:18:14Z</time>
      </trkpt>
      <trkpt lat="46.50645" lon="0.36746">
        <ele>134.6</ele>
        <time>2021-09-12T12:18:20Z</time>
      </trkpt>
      <trkpt lat="46.50648" lon="0.36753">
        <ele>135</ele>
        <time>2021-09-12T12:18:23Z</time>
      </trkpt>
      <trkpt lat="46.50651" lon="0.36765">
        <ele>135.4</ele>
        <time>2021-09-12T12:18:27Z</time>
      </trkpt>
      <trkpt lat="46.50652" lon="0.36773">
        <ele>135.4</ele>
        <time>2021-09-12T12:18:30Z</time>
      </trkpt>
      <trkpt lat="46.50652" lon="0.36778">
        <ele>135.6</ele>
        <time>2021-09-12T12:18:32Z</time>
      </trkpt>
      <trkpt lat="46.50652" lon="0.36785">
        <ele>136.2</ele>
        <time>2021-09-12T12:18:35Z</time>
      </trkpt>
      <trkpt lat="46.50651" lon="0.36789">
        <ele>136.4</ele>
        <time>2021-09-12T12:18:37Z</time>
      </trkpt>
      <trkpt lat="46.50651" lon="0.36793">
        <ele>136.4</ele>
        <time>2021-09-12T12:18:41Z</time>
      </trkpt>
    </trkseg>
  </trk>
</gpx>